Daily Reports


METAR STATION :  PALERMO PUNTA RAISI

 

Date / Time           Temp   Dew  HtIx Chill %Rh Press  Rain  Wind  Wind  Wind Visib Cloud Sky/Weather
                        C    C    C    C   %   hPa    mm   Dir   Spd  Gust    km    km ---/---

01/01/2006 00:20      15.0   7.0  15.9   6.4  59  1019   ---   SSW    26    26   ---   0.8 Broken Clouds/
01/01/2006 01:50      15.0   7.0  15.9   6.4  59  1019   ---   SSW    26    26   ---   0.9 Broken Clouds/
01/01/2006 02:50       0.0   0.0   4.0 -15.9 100  1018   ---   SSW    26    26   ---   --- /
01/01/2006 02:50      14.0  12.0  17.0   4.9  88  1018   ---   SSW    26    26   ---   --- None reported/None reported
01/01/2006 03:20       0.0   0.0   4.0 -16.7 100  1018   ---   SSW    29    29   ---   --- /
01/01/2006 04:50       0.0   0.0   4.0 -13.6 100  1017   ---   SSW    19    19   ---   --- /
01/01/2006 06:00       0.0   0.0   4.0 -13.6 100   ---   ---   SSW   ---   ---   ---   --- /
01/01/2006 06:50      14.0   8.0  15.5   3.4  67  1016   ---   SSW    37    55   ---   0.9 Broken Clouds/
01/01/2006 07:50      14.0   4.0  14.5   2.8  51  1016   ---     S    45    68   ---   1.0 Broken Clouds/
01/01/2006 08:20      14.0   3.0  14.3   3.3  47  1016   ---     S    39    56   ---   1.0 Broken Clouds/
01/01/2006 09:20      15.0   2.0  15.0   4.9  41  1016   ---   SSW    37    56   ---   1.0 Scattered Clouds/
01/01/2006 10:50      16.0   5.0  16.3   6.1  48  1016   ---   SSW    43    43   ---   1.0 Scattered Clouds/
01/01/2006 11:20      16.0   5.0  16.3   7.0  48  1016   ---   SSW    32    51   ---   1.0 Scattered Clouds/
01/01/2006 12:20      16.0   6.0  16.5   7.2  51  1015   ---   SSW    31    55   ---   1.0 Scattered Clouds/
01/01/2006 13:20      16.0   7.0  16.7   6.4  55  1014   ---   SSW    39    39   ---   1.0 Scattered Clouds/
01/01/2006 14:50      15.0   7.0  15.9   7.3  59  1013   ---   SSW    21    21   ---   1.0 Scattered Clouds/
01/01/2006 15:50      15.0   7.0  15.9   6.9  59  1013   ---   SSW    23    23   ---   1.0 Broken Clouds/
01/01/2006 16:50      15.0   7.0  15.9   6.9  59  1013   ---   SSW    23    23   ---   1.0 Broken Clouds/
01/01/2006 17:50      15.0   7.0  15.9   5.9  59  1013   ---   SSW    29    29   ---   1.0 Broken Clouds/
01/01/2006 18:50      15.0   8.0  16.2   5.9  63  1013   ---   SSW    29    47   ---   1.0 Broken Clouds/
01/01/2006 19:50      15.0   7.0  15.9   5.9  59  1012   ---   SSW    29    29   ---   1.0 Broken Clouds/
01/01/2006 20:50      15.0   8.0  16.2   5.9  63  1012   ---   SSW    29    29   ---   --- Overcast/ Light Rain
01/01/2006 21:20      13.0   9.0  15.1   4.0  77  1013   ---   WSW    23    23   ---   --- Overcast/ Rain
01/01/2006 22:50      13.0   8.0  14.8   3.1  72  1013   ---   SSW    27    27   ---   --- Overcast/ Light Rain
01/01/2006 23:20      13.0   7.0  14.4   4.0  67  1013   ---     S    23    23   ---   --- Overcast/ Light Rain
02/01/2006 00:50      12.0   6.0  13.4   1.1  67  1013   ---     W    31    31   ---   --- Overcast/ Light Rain
02/01/2006 01:20      12.0   6.0  13.4   2.6  67  1013   ---    SW    23    23   ---   --- Overcast/ Light Rain
02/01/2006 02:20      12.0   6.0  13.4   1.6  67  1013   ---   WSW    27    27   ---   --- Overcast/ Light Rain
02/01/2006 03:20      12.0   6.0  13.4   0.2  67  1013   ---   WNW    39    39   ---   0.7 Scattered Clouds/
02/01/2006 04:20      13.0   5.0  13.9   1.8  58  1013   ---   WNW    39    39   ---   0.7 Scattered Clouds/
02/01/2006 05:50      12.0   5.0  13.1   1.4  62  1014   ---     W    29    29   ---   0.7 Scattered Clouds/
02/01/2006 06:50      12.0   6.0  13.4   1.6  67  1014   ---     W    27    27   ---   0.7 Scattered Clouds/
02/01/2006 06:50      12.0   6.0  13.4   1.6  67  1014   ---     W    27    27   ---   0.7 Scattered Clouds/None reported
02/01/2006 07:20      13.0   6.0  14.2   3.1  62  1014   ---   WNW    27    27   ---   0.6 Scattered Clouds/
02/01/2006 08:20      13.0   6.0  14.2   2.6  62  1014   ---   WNW    31    31   ---   --- Overcast/ Rain
02/01/2006 09:50      13.0   6.0  14.2   2.9  62  1015   ---   WNW    29    29   ---   0.6 Scattered Clouds/
02/01/2006 10:20      13.0   7.0  14.4   2.6  67  1015   ---     W    31    31   ---   0.8 Scattered Clouds/
02/01/2006 11:50      15.0   7.0  15.9   7.3  59  1015   ---     W    21    21   ---   0.8 Scattered Clouds/
02/01/2006 12:20      14.0   6.0  14.9   4.9  59  1015   ---     W    26    26   ---   0.6 Scattered Clouds/ Showers in the Vicinity
02/01/2006 13:50      15.0   6.0  15.7   6.9  55  1014   ---     W    23    23   ---   0.6 Few Clouds/
02/01/2006 14:20      16.0   6.0  16.5   9.0  51  1014   ---     W    19    19   ---   0.6 Few Clouds/
02/01/2006 14:50      15.0   4.0  15.3   6.9  48  1014   ---     W    23    23   ---   0.6 Scattered Clouds/
02/01/2006 16:50      13.0   8.0  14.8   3.4  72  1014   ---   WSW    26    26   ---   0.4 Broken Clouds/
02/01/2006 18:20      10.0   5.0  11.7   3.6  71  1015   ---     S    13    13   ---   --- Overcast/ Light Rain
02/01/2006 19:50      11.0   4.0  12.1   1.5  62  1015   ---     S    21    21   ---   0.7 Scattered Clouds/
02/01/2006 20:50      11.0   4.0  12.1   0.4  62  1014   ---    SW    26    26   ---   0.7 Scattered Clouds/
02/01/2006 21:20      11.0   5.0  12.4   0.4  66  1014   ---    SW    26    26   ---   0.7 Scattered Clouds/
02/01/2006 22:50      11.0   6.0  12.7   0.1  71  1014   ---   SSW    27    27   ---   0.8 Scattered Clouds/
02/01/2006 23:50      11.0   6.0  12.7   1.1  71  1014   ---   SSW    23    23   ---   0.7 Scattered Clouds/
03/01/2006 00:50      11.0   6.0  12.7   1.5  71  1013   ---   SSW    21    21   ---   0.7 Scattered Clouds/
03/01/2006 02:50      11.0   6.0  12.7   1.1  71  1014   ---    SW    23    23   ---   0.7 Scattered Clouds/
03/01/2006 03:50      11.0   5.0  12.4   3.1  66  1014   ---   SSW    16    16   ---   0.7 Scattered Clouds/
03/01/2006 04:50      11.0   4.0  12.1   2.7  62  1013   ---   SSW    18    18   ---   0.9 Few Clouds/
03/01/2006 05:50      11.0   4.0  12.1   4.0  62  1012   ---     S    14    14   ---   0.9 Few Clouds/
03/01/2006 06:50      11.0   4.0  12.1   1.9  62  1013   ---     S    19    19   ---   0.9 Scattered Clouds/
03/01/2006 07:50      11.0   5.0  12.4   1.5  66  1013   ---    SW    21    21   ---   --- Overcast/ Light Rain
03/01/2006 08:50      11.0   6.0  12.7   1.9  71  1013   ---   SSW    19    19   ---   --- Overcast/ Light Rain
03/01/2006 10:50      12.0   5.0  13.1   4.5  62  1013   ---   SSW    16    16   ---   0.6 Broken Clouds/
03/01/2006 11:50      11.0   6.0  12.7   3.1  71  1013   ---   SSW    16    16   ---   --- Overcast/ Light Rain
03/01/2006 13:50      12.0   5.0  13.1   8.5  62  1012   ---    SW     8     8   ---   0.7 Broken Clouds/
03/01/2006 14:50      12.0   4.0  12.9   7.7  58  1012   ---     S    10    10   ---   0.7 Broken Clouds/
03/01/2006 15:50      12.0   4.0  12.9  10.1  58  1012   ---   SSW     6     6   ---   0.7 Broken Clouds/
03/01/2006 16:50      11.0   4.0  12.1   7.3  62  1013   ---   SSW     8     8   ---   0.7 Broken Clouds/
03/01/2006 17:50       9.0   5.0  11.1   6.8  76  1013   ---     S     6     6   ---   0.7 Scattered Clouds/
03/01/2006 18:50       9.0   4.0  10.7   5.0  71  1012   ---     S     8     8   ---   0.7 Scattered Clouds/
03/01/2006 19:50       9.0   3.0  10.4   4.1  66  1012   ---     S    10    10   ---   0.7 Scattered Clouds/
03/01/2006 20:50      10.0   4.0  11.4   5.3  66  1013   ---     S    10    10   ---   0.7 Scattered Clouds/
03/01/2006 21:50      10.0   3.0  11.1   7.9  62  1012   ---     S     6     6   ---   0.7 Scattered Clouds/
03/01/2006 22:50       9.0   3.0  10.4   4.1  66  1012   ---     S    10    10   ---   0.7 Scattered Clouds/
03/01/2006 23:50       8.0   3.0   9.7   2.9  71  1012   ---     S    10    10   ---   0.7 Few Clouds/
04/01/2006 00:50       9.0   3.0  10.4   2.3  66  1012   ---     S    13    13   ---   0.7 Few Clouds/
04/01/2006 01:50       9.0   4.0  10.7   4.1  71  1012   ---   SSW    10    10   ---   0.7 Few Clouds/
04/01/2006 02:50       8.0   3.0   9.7   3.8  71  1012   ---     S     8     8   ---   0.7 Few Clouds/
04/01/2006 03:50       7.0   3.0   9.0   2.7  76  1012   ---     S     8     8   ---   0.7 Few Clouds/
04/01/2006 04:50       8.0   3.0   9.7   3.8  71  1011   ---     S     8     8   ---   0.7 Few Clouds/
04/01/2006 06:50       7.0   3.0   9.0   1.7  76  1011   ---     S    10    10   ---   0.7 Few Clouds/
04/01/2006 07:50       8.0   4.0  10.0   5.7  76  1011   ---     S     6     6   ---   0.5 Few Clouds/
04/01/2006 08:50       7.0   2.0   8.7   4.6  70  1011   ---     S     6     6   ---   0.7 Few Clouds/
04/01/2006 09:50      10.0   5.0  11.7  10.0  71  1011   ---     N     3     3   ---   0.7 Few Clouds/
04/01/2006 10:50      13.0   5.0  13.9  11.2  58  1012   ---   WSW     6     6   ---   0.7 Few Clouds/
04/01/2006 11:50      13.0   3.0  13.5  13.0  51  1011   ---     N     5     5   ---   0.7 Few Clouds/
04/01/2006 12:50      13.0   4.0  13.7  13.0  54  1011   ---     N     5     5   ---   0.7 Scattered Clouds/
04/01/2006 13:50      12.0   4.0  12.9  12.0  58  1010   ---     N     5     5   ---   0.7 Scattered Clouds/
04/01/2006 14:50      13.0   4.0  13.7  11.2  54  1010   ---     E     6     6   ---   0.6 Scattered Clouds/
04/01/2006 15:50      13.0   5.0  13.9  13.0  58  1010   ---     N     5     5   ---   0.5 Scattered Clouds/
04/01/2006 16:50      12.0   5.0  13.1   8.5  62  1010   ---     E     8     8   ---   0.6 Scattered Clouds/
04/01/2006 17:50      11.0   5.0  12.4   2.7  66  1010   ---    SW    18    18   ---   0.6 Scattered Clouds/
04/01/2006 18:50      10.0   5.0  11.7   5.3  71  1011   ---   SSW    10    10   ---   0.6 Broken Clouds/
04/01/2006 19:50      10.0   5.0  11.7   7.9  71  1010   ---   SSW     6     6   ---   0.6 Broken Clouds/
04/01/2006 20:50       9.0   4.0  10.7   6.8  71  1011   ---   SSW     6     6   ---   0.6 Broken Clouds/
04/01/2006 21:50       9.0   4.0  10.7   6.8  71  1010   ---   SSW     6     6   ---   0.7 Scattered Clouds/
04/01/2006 22:50       9.0   4.0  10.7   9.0  71  1011   ---     N     0     0   ---   0.7 Scattered Clouds/
04/01/2006 23:50       9.0   4.0  10.7   6.8  71  1010   ---     S     6     6   ---   0.7 Scattered Clouds/
05/01/2006 00:50       8.0   3.0   9.7   8.0  71  1010   ---     N     5     5   ---   --- / Thunderstorm
05/01/2006 01:50       8.0   3.0   9.7   5.7  71  1010   ---     S     6     6   ---   --- / Thunderstorm
05/01/2006 02:50       9.0   4.0  10.7   4.1  71  1010   ---   SSE    10    10   ---   0.7 Scattered Clouds/
05/01/2006 04:50       9.0   4.0  10.7   9.0  71  1011   ---     N     5     5   ---   --- Overcast/ Rain
05/01/2006 05:50       8.0   4.0  10.0   1.0  76  1011   ---     S    13    13   ---   0.7 Scattered Clouds/
05/01/2006 06:50       8.0   3.0   9.7   2.9  71  1011   ---    SW    10    10   ---   1.0 Scattered Clouds/
05/01/2006 08:50       9.0   3.0  10.4   6.8  66  1012   ---   SSW     6     6   ---   0.7 Scattered Clouds/
05/01/2006 10:50      13.0   4.0  13.7   7.4  54  1012   ---    SW    13    13   ---   0.7 Few Clouds/
05/01/2006 12:50      14.0   2.0  14.2  10.8  44  1012   ---    SW     8     8   ---   0.7 Scattered Clouds/
05/01/2006 13:50      14.0   3.0  14.3  14.0  47  1012   ---     N     5     5   ---   0.7 Scattered Clouds/
05/01/2006 14:50      14.0   3.0  14.3  14.0  47  1012   ---     N     5     5   ---   0.7 Scattered Clouds/
05/01/2006 15:50      12.0   5.0  13.1  12.0  62  1012   ---     N     3     3   ---   0.8 Broken Clouds/
05/01/2006 16:50      12.0   6.0  13.4  12.0  67  1012   ---     N     5     5   ---   0.8 Broken Clouds/
05/01/2006 17:50      11.0   6.0  12.7   4.0  71  1013   ---   SSW    14    14   ---   0.8 Broken Clouds/
05/01/2006 18:50      10.0   5.0  11.7   6.2  71  1013   ---     S     8     8   ---   0.8 Broken Clouds/
05/01/2006 20:50       9.0   4.0  10.7   9.0  71  1014   ---     N     5     5   ---   0.8 Scattered Clouds/
05/01/2006 21:50       9.0   4.0  10.7   9.0  71  1014   ---     N     3     3   ---   0.8 Scattered Clouds/
05/01/2006 22:50       9.0   4.0  10.7   6.8  71  1014   ---     S     6     6   ---   0.8 Scattered Clouds/
05/01/2006 23:50       9.0   3.0  10.4   6.8  66  1015   ---     S     6     6   ---   0.8 Scattered Clouds/
06/01/2006 00:50       9.0   4.0  10.7   5.0  71  1015   ---     S     8     8   ---   0.8 Scattered Clouds/
06/01/2006 01:50      10.0   3.0  11.1   7.9  62  1014   ---     S     6     6   ---   0.7 Scattered Clouds/
06/01/2006 02:50       9.0   3.0  10.4   6.8  66  1015   ---     S     6     6   ---   0.8 Few Clouds/
06/01/2006 04:50       9.0   4.0  10.7   6.8  71  1015   ---    SW     6     6   ---   0.7 Scattered Clouds/
06/01/2006 06:00       0.0   0.0   4.0  -3.0 100   ---   ---    SW   ---   ---   ---   --- /
06/01/2006 06:50       9.0   4.0  10.7   9.0  71  1016   ---     N     5     5   ---   0.7 Scattered Clouds/
06/01/2006 07:50       8.0   3.0   9.7   3.8  71  1016   ---     S     8     8   ---   0.7 Scattered Clouds/
06/01/2006 08:50       8.0   3.0   9.7   3.8  71  1017   ---   SSW     8     8   ---   0.7 Scattered Clouds/
06/01/2006 09:50      12.0   6.0  13.4  12.0  67  1017   ---     N     3     3   ---   0.7 Scattered Clouds/
06/01/2006 10:50      14.0   6.0  14.9  14.0  59  1018   ---     N     3     3   ---   0.7 Scattered Clouds/
06/01/2006 11:50      13.0   7.0  14.4  13.0  67  1018   ---     N     5     5   ---   0.7 Scattered Clouds/
06/01/2006 12:50      15.0   6.0  15.7  15.0  55  1018   ---     N     5     5   ---   0.7 Scattered Clouds/
06/01/2006 13:50      15.0   6.0  15.7  15.0  55  1018   ---     N     5     5   ---   0.7 Scattered Clouds/
06/01/2006 15:50      14.0   6.0  14.9  14.0  59  1018   ---     N     5     5   ---   0.7 Scattered Clouds/
06/01/2006 16:20      13.0   5.0  13.9  13.0  58  1018   ---     N     5     5   ---   0.7 Scattered Clouds/
06/01/2006 17:50      11.0   6.0  12.7   9.0  71  1019   ---   NNW     6     6   ---   0.7 Scattered Clouds/
06/01/2006 18:50      11.0   6.0  12.7  11.0  71  1019   ---     N     3     3   ---   0.7 Scattered Clouds/
06/01/2006 19:50      10.0   6.0  12.1  10.0  76  1020   ---     N     5     5   ---   0.7 Scattered Clouds/
06/01/2006 20:50      10.0   5.0  11.7  10.0  71  1020   ---     N     5     5   ---   0.7 Scattered Clouds/
06/01/2006 21:50       9.0   5.0  11.1   6.8  76  1020   ---   SSE     6     6   ---   0.7 Scattered Clouds/
06/01/2006 22:50      10.0   5.0  11.7   7.9  71  1021   ---   SSE     6     6   ---   0.7 Scattered Clouds/
06/01/2006 23:50       9.0   4.0  10.7   6.8  71  1021   ---     S     6     6   ---   0.7 Few Clouds/
07/01/2006 01:00       0.0   0.0   4.0  -3.0 100   ---   ---     S   ---   ---   ---   --- /
07/01/2006 01:50       8.0   3.0   9.7   8.0  71  1021   ---     N     5     5   ---   0.7 Few Clouds/
07/01/2006 02:50       8.0   3.0   9.7   3.8  71  1022   ---     S     8     8   ---   0.7 Few Clouds/
07/01/2006 03:50       8.0   3.0   9.7   8.0  71  1021   ---     N     5     5   ---   --- /
07/01/2006 04:20       8.0   3.0   9.7   8.0  71  1022   ---     N     2     2   ---   0.8 Scattered Clouds/
07/01/2006 05:50       8.0   3.0   9.7   8.0  71  1022   ---     N     3     3   ---   0.8 Scattered Clouds/
07/01/2006 06:50       8.0   3.0   9.7   8.0  71  1021   ---     N     3     3   ---   0.8 Few Clouds/
07/01/2006 07:50       8.0   3.0   9.7   8.0  71  1022   ---     N     3     3   ---   0.8 Few Clouds/
07/01/2006 08:50       8.0   3.0   9.7   8.0  71  1022   ---     N     2     2   ---   0.8 Few Clouds/
07/01/2006 09:50      13.0   6.0  14.2  13.0  62  1023   ---     N     3     3   ---   0.8 Scattered Clouds/
07/01/2006 10:50      13.0   4.0  13.7  13.0  54  1023   ---     N     2     2   ---   0.8 Scattered Clouds/
07/01/2006 10:50      13.0   4.0  13.7  13.0  54  1023   ---   ---     2     2   ---   0.8 Scattered Clouds/None reported
07/01/2006 11:50      13.0   5.0  13.9  13.0  58  1023   ---     N     2     2   ---   0.8 Scattered Clouds/
07/01/2006 12:50      14.0   3.0  14.3  14.0  47  1022   ---     N     2     2   ---   0.8 Scattered Clouds/
07/01/2006 13:50      14.0   2.0  14.2  14.0  44  1021   ---     N     5     5   ---   0.8 Few Clouds/
07/01/2006 14:50      14.0   5.0  14.7  10.1  55  1021   ---   NNE    10    10   ---   0.8 Few Clouds/
07/01/2006 15:50      14.0   5.0  14.7   8.7  55  1021   ---   ENE    13    13   ---   0.8 Few Clouds/
07/01/2006 16:20      14.0   5.0  14.7  10.8  55  1021   ---   ENE     8     8   ---   0.8 Few Clouds/
07/01/2006 17:50      12.0   5.0  13.1  12.0  62  1021   ---     N     5     5   ---   0.8 Few Clouds/
07/01/2006 18:50      11.0   5.0  12.4  11.0  66  1022   ---     N     2     2   ---   0.8 Few Clouds/
07/01/2006 19:50      10.0   5.0  11.7  10.0  71  1022   ---     N     5     5   ---   0.8 Few Clouds/
07/01/2006 20:50      10.0   5.0  11.7  10.0  71  1022   ---     N     3     3   ---   0.8 Few Clouds/
07/01/2006 21:50      10.0   4.0  11.4  10.0  66  1022   ---     N     3     3   ---   0.8 Few Clouds/
07/01/2006 22:50       9.0   4.0  10.7   9.0  71  1022   ---     N     2     2   ---   0.8 Few Clouds/
07/01/2006 23:50       8.0   3.0   9.7   8.0  71  1022   ---     N     3     3   ---   0.8 Few Clouds/
08/01/2006 00:50       8.0   3.0   9.7   8.0  71  1022   ---     N     5     5   ---   0.8 Few Clouds/
08/01/2006 01:50       8.0   3.0   9.7   8.0  71  1022   ---     N     3     3   ---   0.8 Few Clouds/
08/01/2006 02:50      10.0   4.0  11.4  10.0  66  1022   ---     N     3     3   ---   0.8 Few Clouds/
08/01/2006 03:50      10.0   2.0  10.9  10.0  58  1022   ---     N     0     0   ---   0.8 Few Clouds/
08/01/2006 04:50       9.0   3.0  10.4   5.0  66  1022   ---     S     8     8   ---   0.8 Few Clouds/
08/01/2006 05:50       9.0   3.0  10.4   6.8  66  1022   ---   SSE     6     6   ---   0.8 Few Clouds/
08/01/2006 06:50      10.0   4.0  11.4  10.0  66  1021   ---     N     0     0   ---   0.8 Scattered Clouds/
08/01/2006 07:50       9.0   3.0  10.4   9.0  66  1022   ---   ---     2     2   ---   0.8 Scattered Clouds/
08/01/2006 08:50      10.0   4.0  11.4  10.0  66  1022   ---     N     2     2   ---   0.8 Broken Clouds/
08/01/2006 09:50      11.0   5.0  12.4  11.0  66  1022   ---     N     3     3   ---   0.8 Broken Clouds/
08/01/2006 10:50      13.0   7.0  14.4  13.0  67  1022   ---     N     0     0   ---   0.8 Broken Clouds/
08/01/2006 10:50      13.0   7.0  14.4  13.0  67  1022   ---   ---     0     0   ---   0.8 Broken Clouds/None reported
08/01/2006 11:50      15.0   4.0  15.3  15.0  48  1022   ---   ---     5     5   ---   0.8 Broken Clouds/
08/01/2006 12:50      15.0   4.0  15.3   9.3  48  1021   ---     E    14    14   ---   0.8 Broken Clouds/
08/01/2006 12:50      15.0   4.0  15.3   9.3  48  1021   ---     E    14    14   ---   0.8 Broken Clouds/None reported
08/01/2006 13:50      15.0   4.0  15.3  12.0  48  1020   ---     E     8     8   ---   0.8 Broken Clouds/
08/01/2006 14:50      14.0   6.0  14.9   6.2  59  1020   ---     E    19    19   ---   0.8 Broken Clouds/
08/01/2006 15:50      15.0   5.0  15.5   6.9  51  1020   ---     E    23    23   ---   0.8 Broken Clouds/
08/01/2006 16:50      14.0   5.0  14.7   5.8  55  1019   ---     E    21    21   ---   0.8 Scattered Clouds/
08/01/2006 17:50      13.0   6.0  14.2   3.4  62  1020   ---     E    26    26   ---   0.8 Scattered Clouds/
08/01/2006 17:50      13.0   6.0  14.2   3.4  62  1020   ---     E    26    26   ---   0.8 Scattered Clouds/None reported
08/01/2006 18:50      13.0   6.0  14.2   4.8  62  1019   ---     E    19    19   ---   0.8 Scattered Clouds/
08/01/2006 19:50      13.0   4.0  13.7   2.6  54  1019   ---     E    31    31   ---   0.8 Scattered Clouds/
08/01/2006 20:50      13.0   4.0  13.7  13.0  54  1020   ---     N     3     3   ---   0.8 Scattered Clouds/
08/01/2006 21:50      13.0   3.0  13.5  13.0  51  1020   ---     N     5     5   ---   0.8 Scattered Clouds/
08/01/2006 22:50      13.0   3.0  13.5  13.0  51  1020   ---     N     5     5   ---   0.8 Scattered Clouds/
08/01/2006 23:50      14.0   3.0  14.3  10.8  47  1020   ---     N     8    27   ---   0.8 Scattered Clouds/
09/01/2006 00:50      14.0   4.0  14.5   8.7  51  1019   ---     E    13    13   ---   0.8 Broken Clouds/
09/01/2006 01:50      13.0   3.0  13.5   8.9  51  1019   ---     E    10    10   ---   0.8 Broken Clouds/
09/01/2006 02:50      13.0   3.0  13.5  11.2  51  1019   ---   ESE     6     6   ---   0.7 Broken Clouds/
09/01/2006 03:50      13.0   4.0  13.7  13.0  54  1019   ---     N     2     2   ---   0.8 Broken Clouds/
09/01/2006 04:50      13.0   5.0  13.9  13.0  58  1019   ---     N     5     5   ---   0.8 Broken Clouds/
09/01/2006 05:50      13.0   5.0  13.9  13.0  58  1019   ---     N     5     5   ---   0.8 Broken Clouds/
09/01/2006 06:50      13.0   6.0  14.2   6.6  62  1019   ---     E    14    14   ---   0.8 Scattered Clouds/
09/01/2006 07:50      13.0   6.0  14.2   4.4  62  1018   ---     E    21    21   ---   0.8 Scattered Clouds/
09/01/2006 08:50      13.0   6.0  14.2   4.4  62  1019   ---     E    21    21   ---   0.8 Scattered Clouds/
09/01/2006 09:50      13.0   6.0  14.2   3.4  62  1019   ---     E    26    26   ---   0.8 Scattered Clouds/
09/01/2006 10:50      14.0   7.0  15.2   6.9  63  1019   ---     E    18    18   ---   0.8 Broken Clouds/
09/01/2006 11:50      14.0   7.0  15.2   4.9  63  1019   ---     E    26    26   ---   0.8 Scattered Clouds/
09/01/2006 12:50      14.0   7.0  15.2   4.9  63  1019   ---     E    26    26   ---   0.8 Scattered Clouds/
09/01/2006 13:50      14.0   7.0  15.2   4.1  63  1018   ---   ENE    31    31   ---   0.8 Scattered Clouds/
09/01/2006 14:50      14.0   8.0  15.5   4.1  67  1018   ---   ENE    31    31   ---   0.5 Broken Clouds/
09/01/2006 15:50      14.0   8.0  15.5   3.8  67  1018   ---     E    34    34   ---   0.5 Broken Clouds/
09/01/2006 16:50      14.0   8.0  15.5   4.1  67  1019   ---   ENE    31    31   ---   0.5 Broken Clouds/
09/01/2006 17:50      14.0   9.0  15.8   4.4  72  1019   ---     E    29    29   ---   0.5 Broken Clouds/
09/01/2006 18:50      14.0   9.0  15.8   4.1  72  1019   ---   ENE    31    31   ---   0.5 Broken Clouds/
09/01/2006 19:50      14.0   8.0  15.5   4.1  67  1020   ---   ENE    31    31   ---   0.5 Broken Clouds/
09/01/2006 20:50      13.0   8.0  14.8   3.1  72  1021   ---     E    27    27   ---   0.5 Broken Clouds/
09/01/2006 21:50      12.0   8.0  14.1   2.6  77  1021   ---     E    23    23   ---   --- Overcast/ Light Rain
09/01/2006 22:50      12.0   7.0  13.7   4.5  71  1022   ---     E    16    16   ---   0.5 Broken Clouds/
09/01/2006 23:50      13.0   5.0  13.9   4.8  58  1022   ---     E    19    19   ---   0.8 Scattered Clouds/
10/01/2006 00:50      13.0   5.0  13.9   4.8  58  1022   ---   ENE    19    19   ---   0.8 Scattered Clouds/
10/01/2006 01:50      13.0   5.0  13.9   5.8  58  1021   ---     E    16    16   ---   0.8 Scattered Clouds/
10/01/2006 02:50      13.0   4.0  13.7   4.8  54  1022   ---     E    19    19   ---   0.7 Scattered Clouds/
10/01/2006 03:50      12.0   5.0  13.1   5.3  62  1022   ---     E    14    14   ---   0.7 Scattered Clouds/
10/01/2006 04:50      13.0   4.0  13.7   5.5  54  1022   ---     E    18    18   ---   0.7 Scattered Clouds/
10/01/2006 05:50      11.0   6.0  12.7  -1.3  71  1022   ---    NE    37    37   ---   --- Overcast/ Light Rain
10/01/2006 06:50      11.0   6.0  12.7   0.4  71  1023   ---   NNE    26    26   ---   --- Overcast/ Light Rain
10/01/2006 07:50      10.0   5.0  11.7   5.3  71  1023   ---   ESE    10    10   ---   --- Overcast/ Light Rain
10/01/2006 08:50      11.0   6.0  12.7   9.0  71  1024   ---   ENE     6     6   ---   0.6 Scattered Clouds/
10/01/2006 09:50      11.0   6.0  12.7   6.5  71  1025   ---     E    10    10   ---   0.7 Few Clouds/
10/01/2006 10:50      12.0   6.0  13.4   5.3  67  1025   ---   ENE    14    14   ---   0.7 Few Clouds/
10/01/2006 11:50      13.0   4.0  13.7  13.0  54  1025   ---     N     3     3   ---   0.7 Few Clouds/
10/01/2006 12:50      14.0   5.0  14.7   8.0  55  1025   ---    NE    14    14   ---   0.7 Few Clouds/
10/01/2006 13:50      14.0   4.0  14.5   8.7  51  1024   ---    NE    13    13   ---   0.7 Few Clouds/
10/01/2006 14:50      11.0   6.0  12.7  -0.4  71  1024   ---   NNE    31    31   ---   --- Overcast/ Light Rain
10/01/2006 15:20      11.0   6.0  12.7   1.5  71  1024   ---   NNE    21    21   ---   --- Overcast/ Light Rain
10/01/2006 15:50      11.0   6.0  12.7   4.0  71  1024   ---    NE    14    14   ---   0.6 Broken Clouds/
10/01/2006 15:50      11.0   6.0  12.7   4.0  71  1024   ---    NE    14    14   ---   0.6 Broken Clouds/None reported
10/01/2006 17:50      11.0   4.0  12.1   4.9  62  1025   ---     E    13    13   ---   0.4 Broken Clouds/
10/01/2006 18:50      11.0   3.0  11.9   3.1  58  1025   ---     E    16    16   ---   0.6 Scattered Clouds/
10/01/2006 19:50      11.0   3.0  11.9   4.9  58  1025   ---     E    13    13   ---   0.6 Scattered Clouds/
10/01/2006 20:50      11.0   2.0  11.6   6.5  54  1026   ---   ENE    10    10   ---   0.7 Scattered Clouds/
10/01/2006 21:50      11.0   3.0  11.9   7.3  58  1025   ---     E     8     8   ---   0.7 Scattered Clouds/
10/01/2006 22:50      10.0   3.0  11.1  10.0  62  1025   ---     N     3     3   ---   0.7 Scattered Clouds/
10/01/2006 23:50      10.0   3.0  11.1  10.0  62  1026   ---     N     3     3   ---   0.7 Scattered Clouds/
11/01/2006 00:20       9.0   3.0  10.4   9.0  66  1025   ---     N     2     2   ---   0.7 Scattered Clouds/
11/01/2006 01:50       9.0   4.0  10.7   4.1  71  1026   ---     S    10    10   ---   0.7 Broken Clouds/
11/01/2006 02:50       9.0   4.0  10.7   2.3  71  1026   ---   SSE    13    13   ---   --- Overcast/ Light Rain
11/01/2006 03:50       9.0   3.0  10.4   0.4  66  1026   ---     S    16    16   ---   0.7 Broken Clouds/
11/01/2006 04:20      10.0   3.0  11.1   7.9  62  1025   ---   SSE     6     6   ---   0.7 Broken Clouds/
11/01/2006 05:50      11.0   1.0  11.4  11.0  50  1025   ---     N     0     0   ---   0.7 Broken Clouds/
11/01/2006 06:50      10.0   2.0  10.9   7.9  58  1025   ---     E     6     6   ---   0.7 Broken Clouds/
11/01/2006 07:50       9.0   2.0  10.1   9.0  62  1025   ---     N     5     5   ---   0.7 Broken Clouds/
11/01/2006 08:50       9.0   4.0  10.7   5.0  71  1026   ---   SSE     8     8   ---   --- Overcast/ Light Rain
11/01/2006 09:50      11.0   6.0  12.7  11.0  71  1026   ---     N     2     2   ---   --- Overcast/ Light Rain
11/01/2006 10:50      12.0   4.0  12.9  12.0  58  1026   ---     N     0     0   ---   --- Overcast/ Rain
11/01/2006 11:50      12.0   4.0  12.9   8.5  58  1026   ---     W     8     8   ---   0.7 Broken Clouds/
11/01/2006 12:50      11.0   4.0  12.1   1.9  62  1025   ---     N    19    19   ---   0.7 Broken Clouds/
11/01/2006 13:50      12.0   3.0  12.7  12.0  54  1025   ---     N     5     5   ---   0.7 Broken Clouds/
11/01/2006 14:50      11.0   5.0  12.4   9.0  66  1024   ---   ESE     6     6   ---   0.7 Broken Clouds/
11/01/2006 15:50      12.0   5.0  13.1  12.0  62  1025   ---     N     0     0   ---   0.7 Broken Clouds/
11/01/2006 16:50      11.0   5.0  12.4   3.1  66  1025   ---    NE    16    16   ---   0.7 Broken Clouds/
11/01/2006 17:50      10.0   4.0  11.4   6.2  66  1025   ---   ENE     8     8   ---   0.7 Broken Clouds/
11/01/2006 18:50      11.0   4.0  12.1   9.0  62  1024   ---   ENE     6     6   ---   0.7 Broken Clouds/
11/01/2006 18:50      11.0   4.0  12.1   9.0  62  1024   ---   ENE     6     6   ---   0.7 Broken Clouds/None reported
11/01/2006 19:50      11.0   4.0  12.1  11.0  62  1025   ---     N     5     5   ---   0.7 Broken Clouds/
11/01/2006 20:50      11.0   4.0  12.1   9.0  62  1025   ---     E     6     6   ---   0.7 Broken Clouds/
11/01/2006 21:50      11.0   4.0  12.1  11.0  62  1025   ---     N     2     2   ---   --- Overcast/ Light Rain
11/01/2006 22:50      11.0   4.0  12.1  11.0  62  1025   ---     N     0     0   ---   --- Overcast/ Rain Showers
11/01/2006 23:50      10.0   5.0  11.7  10.0  71  1025   ---   ---     2     2   ---   --- Overcast/ Light Rain
12/01/2006 00:50      10.0   2.0  10.9   0.1  58  1025   ---    NE    21    21   ---   0.7 Broken Clouds/
12/01/2006 01:50      11.0   3.0  11.9   3.1  58  1025   ---     E    16    16   ---   0.7 Broken Clouds/
12/01/2006 02:50      11.0   3.0  11.9   9.0  58  1025   ---   ENE     6     6   ---   0.7 Broken Clouds/
12/01/2006 03:50      11.0   3.0  11.9   4.0  58  1025   ---   ENE    14    14   ---   0.7 Broken Clouds/
12/01/2006 04:20      11.0   2.0  11.6   1.9  54  1025   ---   NNE    19    19   ---   0.7 Broken Clouds/
12/01/2006 05:50      11.0   2.0  11.6   1.9  54  1025   ---    NE    19    19   ---   0.7 Broken Clouds/
12/01/2006 06:50      11.0   2.0  11.6   0.4  54  1024   ---   NNE    26    26   ---   0.7 Broken Clouds/
12/01/2006 07:50      11.0   2.0  11.6   1.5  54  1025   ---   NNE    21    21   ---   0.7 Broken Clouds/
12/01/2006 08:50      11.0   3.0  11.9   1.9  58  1025   ---    NE    19    19   ---   0.7 Broken Clouds/
12/01/2006 09:50      12.0   3.0  12.7   4.1  54  1026   ---   NNE    18    18   ---   0.7 Broken Clouds/
12/01/2006 10:20      12.0   3.0  12.7   3.3  54  1026   ---     N    19    19   ---   --- Overcast/ Light Rain
12/01/2006 10:20      12.0   3.0  12.7   3.3  54  1026   ---     N    19    19   ---   --- Overcast/ Light Rain
12/01/2006 11:50      12.0   5.0  13.1   3.3  62  1026   ---     N    19    19   ---   0.7 Broken Clouds/
12/01/2006 13:00       0.0   0.0   4.0 -13.6 100   ---   ---     N   ---   ---   ---   --- /
12/01/2006 13:50      13.0   3.0  13.5   6.6  51  1025   ---   NNE    14    14   ---   0.7 Scattered Clouds/
12/01/2006 13:50      13.0   3.0  13.5   6.6  51  1025   ---   NNE    14    14   ---   0.7 Scattered Clouds/None reported
12/01/2006 14:50      12.0   3.0  12.7   4.5  54  1024   ---     N    16    16   ---   0.7 Scattered Clouds/
12/01/2006 15:50      12.0   4.0  12.9   5.3  58  1025   ---     N    14    14   ---   0.7 Broken Clouds/
12/01/2006 16:50      12.0   5.0  13.1   5.3  62  1025   ---    NE    14    14   ---   0.7 Broken Clouds/
12/01/2006 17:20      11.0   5.0  12.4   4.9  66  1025   ---   ENE    13    13   ---   0.7 Broken Clouds/
12/01/2006 18:50      11.0   6.0  12.7   1.1  71  1025   ---   NNE    23    23   ---   --- Overcast/ Light Rain
12/01/2006 19:50      10.0   4.0  11.4   7.9  66  1025   ---    NE     6     6   ---   0.5 Broken Clouds/
12/01/2006 20:50      10.0   5.0  11.7   7.9  71  1026   ---   ESE     6     6   ---   0.5 Broken Clouds/
12/01/2006 21:50      10.0   4.0  11.4  10.0  66  1026   ---     N     2     2   ---   0.5 Broken Clouds/
12/01/2006 22:50      10.0   6.0  12.1   7.9  76  1026   ---   ENE     6     6   ---   0.5 Broken Clouds/
12/01/2006 23:50       9.0   5.0  11.1   6.8  76  1027   ---   SSE     6     6   ---   --- Overcast/ Light Rain
13/01/2006 00:50       9.0   4.0  10.7   6.8  71  1027   ---    SW     6     6   ---   --- Overcast/ Light Rain
13/01/2006 02:00       0.0   0.0   4.0  -3.0 100   ---   ---    SW   ---   ---   ---   --- /
13/01/2006 02:50      10.0   4.0  11.4   3.6  66  1027   ---     E    13    13   ---   0.5 Broken Clouds/
13/01/2006 04:00       0.0   0.0   4.0  -9.2 100   ---   ---     E   ---   ---   ---   --- /
13/01/2006 05:00       0.0   0.0   4.0  -9.2 100   ---   ---     E   ---   ---   ---   --- /
13/01/2006 05:50      10.0   2.0  10.9   2.7  58  1026   ---     E    14    14   ---   0.5 Broken Clouds/
13/01/2006 06:50      11.0   1.0  11.4   4.0  50  1027   ---     E    14    14   ---   0.5 Broken Clouds/
13/01/2006 07:50      10.0   2.0  10.9   2.7  58  1027   ---   ENE    14    14   ---   0.5 Broken Clouds/
13/01/2006 08:50      11.0   1.0  11.4   4.0  50  1027   ---     E    14    14   ---   0.5 Broken Clouds/
13/01/2006 09:50      11.0   1.0  11.4   6.5  50  1028   ---     E    10    10   ---   0.6 Broken Clouds/
13/01/2006 10:50      12.0   1.0  12.3   5.3  47  1027   ---     E    14    14   ---   0.6 Broken Clouds/
13/01/2006 11:50      13.0   1.0  13.1   8.9  44  1027   ---   ENE    10    10   ---   0.6 Scattered Clouds/
13/01/2006 12:50      12.0   2.0  12.5   3.3  50  1027   ---   ENE    19    19   ---   0.6 Scattered Clouds/
13/01/2006 13:50      12.0   1.0  12.3   3.3  47  1026   ---   ENE    19    19   ---   0.7 Scattered Clouds/
13/01/2006 14:50      12.0  -1.0  12.0   3.0  41  1026   ---     E    21    21   ---   0.7 Scattered Clouds/
13/01/2006 15:50      12.0  -1.0  12.0   3.3  41  1026   ---     E    19    19   ---   0.7 Scattered Clouds/
13/01/2006 16:20      11.0  -1.0  11.1   1.9  43  1026   ---     E    19    19   ---   0.7 Scattered Clouds/
13/01/2006 17:50      10.0  -1.0  10.3   1.8  46  1026   ---     E    16    16   ---   0.7 Broken Clouds/
13/01/2006 18:50      10.0  -1.0  10.3   2.7  46  1027   ---     E    14    14   ---   0.7 Broken Clouds/
13/01/2006 19:50      10.0  -1.0  10.3  10.0  46  1026   ---     N     5     5   ---   0.7 Broken Clouds/
13/01/2006 20:50      10.0  -1.0  10.3  10.0  46  1027   ---     N     2     2   ---   0.7 Broken Clouds/
13/01/2006 21:50       9.0   0.0   9.6   9.0  53  1027   ---     N     3     3   ---   0.7 Broken Clouds/
13/01/2006 22:50       7.0   1.0   8.4   2.7  66  1027   ---   SSE     8     8   ---   0.7 Few Clouds/
13/01/2006 23:20       8.0   2.0   9.4   8.0  66  1027   ---     N     5     5   ---   0.7 Few Clouds/
14/01/2006 00:50       6.0   1.0   7.7   3.5  70  1027   ---   SSE     6     6   ---   0.7 Few Clouds/
14/01/2006 01:50       6.0   0.0   7.3   3.5  65  1027   ---     S     6     6   ---   0.7 Few Clouds/
14/01/2006 02:50       6.0   0.0   7.3   6.0  65  1027   ---     N     5     5   ---   0.7 Few Clouds/
14/01/2006 03:50       6.0  -1.0   7.1   3.5  61  1026   ---     S     6     6   ---   0.7 Few Clouds/
14/01/2006 04:50       7.0   1.0   8.4   1.7  66  1026   ---     S    10    10   ---   0.7 Few Clouds/
14/01/2006 05:50       8.0   1.0   9.1   2.9  61  1026   ---     S    10    10   ---   0.7 Few Clouds/
14/01/2006 06:50       9.0   2.0  10.1   2.3  62  1026   ---     S    13    13   ---   0.7 Few Clouds/
14/01/2006 07:50       8.0   1.0   9.1   3.8  61  1026   ---     S     8     8   ---   0.7 Scattered Clouds/
14/01/2006 08:50       9.0   2.0  10.1   2.3  62  1027   ---     S    13    13   ---   0.7 Scattered Clouds/
14/01/2006 09:50      10.0   0.0  10.4   3.6  50  1027   ---     S    13    13   ---   0.7 Scattered Clouds/
14/01/2006 10:50      12.0   0.0  12.1  12.0  44  1027   ---     N     0     0   ---   0.7 Few Clouds/
14/01/2006 11:50      12.0  -2.0  11.9  10.1  38  1027   ---     W     6     6   ---   0.7 Few Clouds/
14/01/2006 12:50      12.0   2.0  12.5  10.1  50  1026   ---     W     6     6   ---   0.7 Few Clouds/
14/01/2006 13:50      12.0   3.0  12.7   7.7  54  1026   ---   WSW    10    10   ---   0.7 Broken Clouds/
14/01/2006 14:50      12.0   2.0  12.5   8.5  50  1025   ---   WSW     8     8   ---   0.7 Broken Clouds/
14/01/2006 15:50      13.0   1.0  13.1  13.0  44  1025   ---     N     5     5   ---   0.7 Scattered Clouds/
14/01/2006 16:50      12.0   1.0  12.3  12.0  47  1025   ---     N     0     0   ---   0.8 Scattered Clouds/
14/01/2006 17:50      11.0   4.0  12.1  11.0  62  1025   ---   ---     2     2   ---   0.8 Scattered Clouds/
14/01/2006 18:50      10.0   3.0  11.1  10.0  62  1025   ---     N     5     5   ---   0.8 Scattered Clouds/
14/01/2006 18:50      10.0   3.0  11.1  10.0  62  1025   ---   ---     5     5   ---   0.8 Scattered Clouds/None reported
14/01/2006 18:50      10.0   3.0  11.1  10.0  62  1025   ---   ---     5     5   ---   0.8 Scattered Clouds/None reported
14/01/2006 19:50       9.0   3.0  10.4   6.8  66  1025   ---   SSE     6     6   ---   0.8 Scattered Clouds/
14/01/2006 20:50       8.0   3.0   9.7   5.7  71  1026   ---   SSE     6     6   ---   0.8 Scattered Clouds/
14/01/2006 21:50       9.0   3.0  10.4   9.0  66  1025   ---     N     5     5   ---   0.8 Scattered Clouds/
14/01/2006 22:20       9.0   3.0  10.4   9.0  66  1025   ---     N     5     5   ---   0.8 Scattered Clouds/
14/01/2006 23:50       8.0   3.0   9.7   3.8  71  1025   ---     S     8     8   ---   0.8 Broken Clouds/
15/01/2006 00:50       8.0   2.0   9.4   8.0  66  1025   ---     N     2     2   ---   0.8 Broken Clouds/
15/01/2006 01:50       8.0   3.0   9.7   8.0  71  1024   ---     N     3     3   ---   0.8 Broken Clouds/
15/01/2006 02:50       8.0   3.0   9.7   8.0  71  1024   ---     N     5     5   ---   0.8 Broken Clouds/
15/01/2006 03:50       8.0   2.0   9.4   8.0  66  1024   ---     N     3     3   ---   0.8 Broken Clouds/
15/01/2006 04:50       8.0   3.0   9.7   5.7  71  1024   ---   SSW     6     6   ---   0.8 Broken Clouds/
15/01/2006 05:50       9.0   3.0  10.4   9.0  66  1024   ---     N     2     2   ---   0.8 Broken Clouds/
15/01/2006 06:50       8.0   3.0   9.7   8.0  71  1024   ---     N     2     2   ---   0.8 Broken Clouds/
15/01/2006 07:50       8.0   3.0   9.7   5.7  71  1024   ---     S     6     6   ---   0.8 Broken Clouds/
15/01/2006 08:50       9.0   3.0  10.4   9.0  66  1024   ---     N     0     0   ---   0.8 Broken Clouds/
15/01/2006 09:50      10.0   4.0  11.4  10.0  66  1025   ---   ---     5     5   ---   0.8 Broken Clouds/
15/01/2006 10:50      12.0   4.0  12.9  12.0  58  1025   ---     N     0     0   ---   0.8 Broken Clouds/
15/01/2006 11:50      12.0   4.0  12.9  12.0  58  1025   ---   ---     2     2   ---   0.8 Broken Clouds/
15/01/2006 13:00       0.0   0.0   4.0   0.0 100   ---   ---   ---   ---   ---   ---   --- /
15/01/2006 13:50      12.0   4.0  12.9  10.1  58  1023   ---    NE     6     6   ---   0.7 Broken Clouds/
15/01/2006 14:50      12.0   5.0  13.1  12.0  62  1024   ---     N     5     5   ---   0.7 Broken Clouds/
15/01/2006 15:50      11.0   6.0  12.7   9.0  71  1023   ---     S     6     6   ---   0.7 Broken Clouds/
15/01/2006 16:50      10.0   6.0  12.1  10.0  76  1024   ---     N     5     5   ---   0.7 Broken Clouds/
15/01/2006 17:50      10.0   5.0  11.7  10.0  71  1024   ---     N     3     3   ---   0.8 Broken Clouds/
15/01/2006 18:50      10.0   5.0  11.7  10.0  71  1024   ---     N     3     3   ---   0.8 Broken Clouds/
15/01/2006 19:50      10.0   5.0  11.7   6.2  71  1024   ---   ENE     8     8   ---   0.8 Broken Clouds/
15/01/2006 20:50       9.0   5.0  11.1   5.0  76  1024   ---     E     8     8   ---   0.8 Broken Clouds/
15/01/2006 21:50      10.0   5.0  11.7   6.2  71  1024   ---   ENE     8     8   ---   0.8 Broken Clouds/
15/01/2006 22:50      10.0   5.0  11.7   3.6  71  1024   ---   ENE    13    13   ---   0.8 Broken Clouds/
15/01/2006 23:50      11.0   6.0  12.7   4.0  71  1024   ---   ENE    14    14   ---   0.7 Broken Clouds/
16/01/2006 00:50      11.0   5.0  12.4   3.1  66  1024   ---   ENE    16    16   ---   0.7 Broken Clouds/
16/01/2006 01:50      11.0   6.0  12.7   4.0  71  1024   ---     E    14    14   ---   0.8 Broken Clouds/
16/01/2006 02:20      11.0   6.0  12.7   4.0  71  1024   ---   ENE    14    14   ---   0.8 Broken Clouds/
16/01/2006 03:50      11.0   6.0  12.7   6.5  71  1024   ---    NE    10    10   ---   0.8 Broken Clouds/
16/01/2006 05:50      11.0   6.0  12.7   4.9  71  1023   ---   ENE    13    13   ---   0.5 Broken Clouds/
16/01/2006 06:50      11.0   6.0  12.7   2.7  71  1023   ---   ENE    18    18   ---   0.5 Broken Clouds/
16/01/2006 07:50      11.0   6.0  12.7   2.7  71  1023   ---     E    18    18   ---   0.5 Broken Clouds/
16/01/2006 08:50      11.0   6.0  12.7   4.0  71  1024   ---   ENE    14    14   ---   0.5 Scattered Clouds/
16/01/2006 09:50      12.0   6.0  13.4   5.3  67  1024   ---     E    14    14   ---   0.5 Scattered Clouds/
16/01/2006 10:50      13.0   6.0  14.2   7.4  62  1024   ---     E    13    13   ---   0.5 Scattered Clouds/
16/01/2006 11:50      13.0   6.0  14.2   8.9  62  1024   ---     E    10    10   ---   0.7 Scattered Clouds/
16/01/2006 12:50      14.0   6.0  14.9  10.8  59  1023   ---     E     8     8   ---   0.7 Scattered Clouds/
16/01/2006 13:50      13.0   6.0  14.2  11.2  62  1023   ---   ENE     6     6   ---   0.7 Scattered Clouds/
16/01/2006 14:50      13.0   6.0  14.2   9.7  62  1023   ---   ENE     8     8   ---   0.7 Broken Clouds/
16/01/2006 15:50      13.0   6.0  14.2   7.4  62  1023   ---     E    13    13   ---   0.7 Broken Clouds/
16/01/2006 16:20      13.0   6.0  14.2   6.6  62  1023   ---   ENE    14    14   ---   0.7 Broken Clouds/
16/01/2006 17:50      12.0   6.0  13.4   6.2  67  1022   ---     E    13    13   ---   0.7 Broken Clouds/
16/01/2006 18:50      12.0   6.0  13.4   8.5  67  1024   ---     E     8     8   ---   0.7 Broken Clouds/
16/01/2006 19:50      12.0   6.0  13.4   8.5  67  1024   ---     E     8     8   ---   0.7 Broken Clouds/
16/01/2006 20:50      11.0   6.0  12.7  11.0  71  1024   ---     N     2     2   ---   0.7 Broken Clouds/
16/01/2006 20:50      11.0   6.0  12.7  11.0  71  1024   ---   ---     2     2   ---   0.7 Broken Clouds/None reported
16/01/2006 21:50      10.0   5.0  11.7  10.0  71  1024   ---     N     5     5   ---   0.8 Few Clouds/
16/01/2006 22:50      10.0   5.0  11.7   6.2  71  1024   ---   SSE     8     8   ---   0.8 Few Clouds/
16/01/2006 23:50       9.0   4.0  10.7   6.8  71  1024   ---     S     6     6   ---   0.8 Few Clouds/
17/01/2006 00:50       8.0   4.0  10.0   5.7  76  1023   ---     S     6     6   ---   0.8 Few Clouds/
17/01/2006 01:50      10.0   5.0  11.7  10.0  71  1023   ---     N     2     2   ---   0.8 Few Clouds/
17/01/2006 02:50       9.0   4.0  10.7   9.0  71  1024   ---     N     3     3   ---   0.8 Few Clouds/
17/01/2006 03:50       9.0   4.0  10.7   6.8  71  1023   ---     S     6     6   ---   0.8 Few Clouds/
17/01/2006 04:50       9.0   4.0  10.7   9.0  71  1023   ---     N     2     2   ---   0.8 Few Clouds/
17/01/2006 05:50       8.0   3.0   9.7   8.0  71  1024   ---     N     5     5   ---   0.8 Few Clouds/
17/01/2006 06:50       9.0   5.0  11.1   6.8  76  1024   ---     S     6     6   ---   0.8 Broken Clouds/
17/01/2006 07:50      11.0   6.0  12.7  11.0  71  1024   ---     N     3     3   ---   0.8 Broken Clouds/
17/01/2006 08:50      11.0   5.0  12.4  11.0  66  1025   ---     N     3     3   ---   0.8 Broken Clouds/
17/01/2006 09:50      13.0   6.0  14.2  13.0  62  1025   ---     N     2     2   ---   0.8 Broken Clouds/
17/01/2006 10:20      13.0   6.0  14.2  13.0  62  1025   ---     N     3     3   ---   0.8 Broken Clouds/
17/01/2006 11:50      14.0   5.0  14.7  14.0  55  1025   ---     N     2     2   ---   0.8 Broken Clouds/
17/01/2006 12:50      14.0   5.0  14.7  14.0  55  1025   ---     N     3     3   ---   0.7 Broken Clouds/
17/01/2006 13:50      14.0   6.0  14.9  14.0  59  1024   ---     N     5     5   ---   0.7 Broken Clouds/
17/01/2006 14:20      14.0   6.0  14.9  12.3  59  1024   ---   NNE     6     6   ---   0.7 Broken Clouds/
17/01/2006 15:50      14.0   3.0  14.3  14.0  47  1023   ---     N     5     5   ---   0.7 Broken Clouds/
17/01/2006 17:50      13.0   5.0  13.9  11.2  58  1023   ---   WSW     6     6   ---   0.7 Broken Clouds/
17/01/2006 18:20      12.0   6.0  13.4   6.2  67  1023   ---   SSW    13    13   ---   0.7 Broken Clouds/
17/01/2006 19:50      12.0   7.0  13.7   6.2  71  1024   ---   SSW    13    13   ---   0.7 Broken Clouds/
17/01/2006 20:50      12.0   7.0  13.7   5.3  71  1024   ---   SSW    14    14   ---   0.7 Scattered Clouds/
17/01/2006 21:50      12.0   7.0  13.7   7.7  71  1024   ---   SSW    10    10   ---   0.7 Broken Clouds/
17/01/2006 22:20      12.0   6.0  13.4   8.5  67  1023   ---     S     8     8   ---   0.7 Broken Clouds/
17/01/2006 23:50      12.0   6.0  13.4   6.2  67  1022   ---     S    13    13   ---   0.7 Broken Clouds/
18/01/2006 00:20      12.0   4.0  12.9   3.3  58  1022   ---   SSW    19    19   ---   0.7 Scattered Clouds/
18/01/2006 01:20      12.0   6.0  13.4   3.0  67  1022   ---   SSW    21    21   ---   0.7 Scattered Clouds/
18/01/2006 02:20      12.0   5.0  13.1   3.3  62  1022   ---   SSW    19    19   ---   0.8 Scattered Clouds/
18/01/2006 03:20      12.0   3.0  12.7   4.1  54  1022   ---    SW    18    18   ---   0.8 Broken Clouds/
18/01/2006 04:20      12.0   2.0  12.5   3.3  50  1021   ---   SSW    19    19   ---   0.8 Broken Clouds/
18/01/2006 05:20      12.0   2.0  12.5   3.3  50  1021   ---   SSW    19    19   ---   0.8 Few Clouds/
18/01/2006 06:50      12.0   2.0  12.5   1.4  50  1020   ---   SSW    29    29   ---   0.8 Few Clouds/
18/01/2006 07:50      12.0   1.0  12.3   0.7  47  1020   ---   SSW    34    34   ---   --- /
18/01/2006 09:00       0.0   0.0   4.0 -17.7 100   ---   ---   SSW   ---   ---   ---   --- /
18/01/2006 10:00       0.0   0.0   4.0 -17.7 100   ---   ---   SSW   ---   ---   ---   --- /
18/01/2006 10:50      14.0   2.0  14.2   3.1  44  1019   ---   SSW    42    42   ---   --- /
18/01/2006 11:50      15.0   3.0  15.2   5.3  44  1019   ---    SW    34    34   ---   --- /
18/01/2006 12:50      16.0   3.0  16.0   7.0  42  1018   ---    SW    32    32   ---   --- /
18/01/2006 13:50      16.0   3.0  16.0   7.2  42  1017   ---    SW    31    31   ---   6.0 Scattered Clouds/
18/01/2006 14:50      15.0   4.0  15.3   6.1  48  1017   ---    SW    27    27   ---   0.7 Scattered Clouds/
18/01/2006 15:50      15.0   5.0  15.5   5.3  51  1016   ---   WSW    34    34   ---   0.7 Scattered Clouds/
18/01/2006 16:50      14.0   6.0  14.9   3.8  59  1016   ---    SW    34    34   ---   0.7 Scattered Clouds/
18/01/2006 17:50      13.0   6.0  14.2   1.8  62  1015   ---   SSW    37    37   ---   0.7 Few Clouds/
18/01/2006 18:50      13.0   7.0  14.4   2.6  67  1016   ---   SSW    31    31   ---   0.7 Few Clouds/
18/01/2006 19:50      13.0   8.0  14.8   2.9  72  1016   ---   SSW    29    29   ---   0.7 Few Clouds/
18/01/2006 20:50      14.0   8.0  15.5   4.4  67  1016   ---   SSW    29    29   ---   0.7 Few Clouds/
18/01/2006 21:50      14.0   9.0  15.8   3.8  72  1016   ---    SW    34    34   ---   0.7 Few Clouds/
18/01/2006 22:50      14.0   9.0  15.8   3.4  72  1016   ---   WSW    37    37   ---   0.7 Scattered Clouds/
18/01/2006 23:20      14.0   9.0  15.8   4.4  72  1016   ---   WSW    29    29   ---   0.7 Scattered Clouds/
19/01/2006 00:50      14.0   9.0  15.8   4.4  72  1015   ---   WSW    29    29   ---   0.7 Scattered Clouds/
19/01/2006 01:50      14.0   9.0  15.8   4.4  72  1015   ---   WSW    29    29   ---   0.7 Scattered Clouds/
19/01/2006 02:50      14.0   9.0  15.8   4.4  72  1015   ---   WSW    29    29   ---   0.7 Scattered Clouds/
19/01/2006 03:50      14.0   9.0  15.8   4.6  72  1015   ---    SW    27    27   ---   0.8 Broken Clouds/
19/01/2006 05:00       0.0   0.0   4.0 -16.4 100   ---   ---    SW   ---   ---   ---   --- /
19/01/2006 05:50      14.0   9.0  15.8   3.8  72  1015   ---     W    34    34   ---   0.8 Broken Clouds/
19/01/2006 06:50      14.0   9.0  15.8   4.1  72  1014   ---     W    31    31   ---   0.5 Broken Clouds/
19/01/2006 07:50      14.0   8.0  15.5   4.4  67  1015   ---     W    29    29   ---   0.5 Broken Clouds/
19/01/2006 08:50      14.0   9.0  15.8   3.9  72  1016   ---     W    32    32   ---   --- Overcast/ Light Rain
19/01/2006 10:00       0.0   0.0   4.0 -17.5 100   ---   ---     W   ---   ---   ---   --- /
19/01/2006 10:50      14.0   9.0  15.8   7.2  72  1017   ---    NW    16    16   ---   0.4 Broken Clouds/
19/01/2006 11:50      15.0   9.0  16.5   7.6  67  1017   ---   NNW    19    19   ---   0.4 Broken Clouds/
19/01/2006 12:50      15.0   9.0  16.5  13.3  67  1017   ---     N     6     6   ---   0.4 Broken Clouds/
19/01/2006 13:50      15.0   9.0  16.5  11.3  67  1017   ---     N    10    10   ---   0.4 Scattered Clouds/
19/01/2006 14:50      15.0   9.0  16.5  13.3  67  1017   ---     N     6     6   ---   0.4 Scattered Clouds/
19/01/2006 15:50      15.0  10.0  16.8  12.0  72  1018   ---     N     8     8   ---   0.5 Scattered Clouds/
19/01/2006 16:20      15.0  10.0  16.8  13.3  72  1018   ---   NNE     6     6   ---   0.5 Scattered Clouds/
19/01/2006 17:50      13.0   9.0  15.1  13.0  77  1018   ---     N     0     0   ---   0.5 Few Clouds/
19/01/2006 19:50      13.0   8.0  14.8   5.5  72  1019   ---   ENE    18    18   ---   0.5 Scattered Clouds/
19/01/2006 20:50      14.0   8.0  15.5   5.8  67  1020   ---   ENE    21    21   ---   0.5 Scattered Clouds/
19/01/2006 21:50      13.0   8.0  14.8   8.9  72  1020   ---     E    10    10   ---   0.5 Scattered Clouds/
19/01/2006 22:50      13.0   8.0  14.8   7.4  72  1021   ---     E    13    13   ---   0.5 Scattered Clouds/
19/01/2006 23:50      13.0   8.0  14.8   7.4  72  1021   ---     E    13    13   ---   0.5 Scattered Clouds/
20/01/2006 00:50      13.0   8.0  14.8   4.0  72  1022   ---   ENE    23    23   ---   0.5 Scattered Clouds/
20/01/2006 01:50      13.0   8.0  14.8  13.0  72  1022   ---     N     5     5   ---   0.5 Scattered Clouds/
20/01/2006 02:50      13.0   7.0  14.4  13.0  67  1022   ---     N     3     3   ---   0.5 Scattered Clouds/
20/01/2006 03:50      13.0   7.0  14.4  11.2  67  1023   ---    NE     6     6   ---   0.5 Scattered Clouds/
20/01/2006 04:50      13.0   6.0  14.2  13.0  62  1023   ---     N     3     3   ---   0.5 Scattered Clouds/
20/01/2006 05:50      11.0   6.0  12.7   9.0  71  1023   ---   WSW     6     6   ---   0.5 Scattered Clouds/
20/01/2006 06:50      10.0   5.0  11.7  10.0  71  1024   ---     N     2     2   ---   0.6 Few Clouds/
20/01/2006 07:50       9.0   5.0  11.1   9.0  76  1024   ---     N     3     3   ---   0.6 Few Clouds/
20/01/2006 08:50      10.0   5.0  11.7  10.0  71  1025   ---     N     2     2   ---   0.6 Few Clouds/
20/01/2006 09:50      13.0   7.0  14.4  13.0  67  1026   ---     N     0     0   ---   0.6 Few Clouds/
20/01/2006 10:50      14.0   6.0  14.9  14.0  59  1026   ---   ---     5     5   ---   0.6 Few Clouds/
20/01/2006 11:50      15.0   4.0  15.3  10.0  48  1026   ---   ENE    13    13   ---   0.6 Few Clouds/
20/01/2006 12:50      14.0   6.0  14.9   7.2  59  1024   ---    NE    16    16   ---   0.6 Few Clouds/
20/01/2006 13:50      15.0   4.0  15.3   8.2  48  1025   ---   ENE    18    18   ---   0.7 Few Clouds/
20/01/2006 14:50      15.0   5.0  15.5   7.3  51  1025   ---   ENE    21    21   ---   0.7 Few Clouds/
20/01/2006 15:50      14.0   5.0  14.7   6.9  55  1025   ---   ENE    18    18   ---   0.7 Few Clouds/
20/01/2006 16:20      14.0   6.0  14.9   6.2  59  1024   ---   ENE    19    19   ---   0.7 Few Clouds/
20/01/2006 17:20      13.0   5.0  13.9   5.5  58  1025   ---     E    18    18   ---   0.7 Few Clouds/
20/01/2006 18:50      12.0   6.0  13.4  12.0  67  1025   ---     N     3     3   ---   0.7 Few Clouds/
20/01/2006 19:50      10.0   6.0  12.1  10.0  76  1025   ---     N     5     5   ---   0.7 Few Clouds/
20/01/2006 20:50      11.0   5.0  12.4   7.3  66  1026   ---     S     8     8   ---   0.7 Few Clouds/
20/01/2006 21:50      10.0   5.0  11.7   6.2  71  1025   ---   SSW     8     8   ---   0.7 Few Clouds/
20/01/2006 22:50      11.0   6.0  12.7   7.3  71  1025   ---     S     8     8   ---   0.7 Few Clouds/
20/01/2006 23:50      11.0   5.0  12.4   7.3  66  1025   ---     E     8     8   ---   0.7 Few Clouds/
21/01/2006 00:50      10.0   4.0  11.4   7.9  66  1025   ---   ESE     6     6   ---   0.7 Few Clouds/
21/01/2006 01:50      10.0   5.0  11.7  10.0  71  1025   ---     N     3     3   ---   --- /
21/01/2006 02:50       9.0   5.0  11.1   9.0  76  1024   ---     N     5     5   ---   --- /
21/01/2006 03:50      10.0   5.0  11.7  10.0  71  1023   ---     N     3     3   ---   --- /
21/01/2006 04:50       9.0   5.0  11.1   9.0  76  1024   ---     N     5     5   ---   --- /
21/01/2006 05:50      10.0   5.0  11.7   7.9  71  1023   ---   SSW     6     6   ---   --- /
21/01/2006 06:50      10.0   6.0  12.1  10.0  76  1024   ---     N     3     3   ---   0.7 Scattered Clouds/
21/01/2006 07:50      12.0   6.0  13.4  12.0  67  1023   ---     N     3     3   ---   0.7 Broken Clouds/
21/01/2006 08:50      13.0   7.0  14.4  11.2  67  1023   ---   ENE     6     6   ---   0.7 Broken Clouds/
21/01/2006 09:50      13.0   8.0  14.8   9.7  72  1023   ---   ENE     8     8   ---   0.7 Broken Clouds/
21/01/2006 10:20      13.0   8.0  14.8   9.7  72  1023   ---   ENE     8     8   ---   0.7 Broken Clouds/
21/01/2006 10:20      13.0   8.0  14.8   9.7  72  1023   ---   ENE     8     8   ---   0.7 Broken Clouds/None reported
21/01/2006 11:50      15.0   7.0  15.9  10.0  59  1022   ---    NE    13    13   ---   0.7 Broken Clouds/
21/01/2006 12:50      14.0   7.0  15.2   8.0  63  1022   ---    NE    14    14   ---   0.7 Broken Clouds/
21/01/2006 15:50      14.0   8.0  15.5   6.2  67  1020   ---   ENE    19    19   ---   0.8 Scattered Clouds/
21/01/2006 16:50      13.0   8.0  14.8   5.8  72  1020   ---   ENE    16    16   ---   0.8 Scattered Clouds/
21/01/2006 17:50      12.0   8.0  14.1   4.5  77  1020   ---   ENE    16    16   ---   0.8 Scattered Clouds/
21/01/2006 18:50      12.0   8.0  14.1   5.3  77  1019   ---   ENE    14    14   ---   0.8 Scattered Clouds/
21/01/2006 19:50      12.0   6.0  13.4   5.3  67  1020   ---   ENE    14    14   ---   0.8 Scattered Clouds/
21/01/2006 20:20      12.0   6.0  13.4   6.2  67  1019   ---   ENE    13    13   ---   0.8 Scattered Clouds/
21/01/2006 21:50      12.0   7.0  13.7   6.2  71  1019   ---     E    13    13   ---   0.8 Scattered Clouds/
21/01/2006 22:50      12.0   7.0  13.7   6.2  71  1019   ---     E    13    13   ---   0.8 Scattered Clouds/
21/01/2006 23:50      11.0   6.0  12.7   1.9  71  1019   ---   NNE    19    19   ---   0.8 Scattered Clouds/
22/01/2006 00:50      12.0   7.0  13.7   5.3  71  1018   ---     E    14    14   ---   0.8 Few Clouds/
22/01/2006 02:00       0.0   0.0   4.0 -10.5 100   ---   ---     E   ---   ---   ---   --- /
22/01/2006 02:50      11.0   5.0  12.4  11.0  66  1017   ---     N     5     5   ---   0.8 Few Clouds/
22/01/2006 03:50      10.0   6.0  12.1  10.0  76  1016   ---     N     5     5   ---   0.8 Few Clouds/
22/01/2006 04:20      10.0   6.0  12.1   7.9  76  1016   ---   ENE     6     6   ---   0.8 Few Clouds/
22/01/2006 05:50      11.0   6.0  12.7   4.9  71  1015   ---   NNE    13    13   ---   0.8 Few Clouds/
22/01/2006 06:50      11.0   6.0  12.7   6.5  71  1015   ---    NE    10    10   ---   0.6 Scattered Clouds/
22/01/2006 07:50      11.0   6.0  12.7   4.9  71  1015   ---    NE    13    13   ---   0.6 Scattered Clouds/
22/01/2006 08:50      11.0   6.0  12.7   4.9  71  1015   ---   ENE    13    13   ---   0.6 Scattered Clouds/
22/01/2006 09:50      13.0   6.0  14.2   8.9  62  1014   ---   ENE    10    10   ---   0.6 Scattered Clouds/
22/01/2006 10:50      12.0   5.0  13.1   4.5  62  1014   ---    NE    16    16   ---   0.8 Scattered Clouds/
22/01/2006 11:50      13.0   5.0  13.9   7.4  58  1014   ---    NE    13    13   ---   0.8 Scattered Clouds/
22/01/2006 11:50      13.0   5.0  13.9   7.4  58  1014   ---    NE    13    13   ---   0.8 Scattered Clouds/None reported
22/01/2006 12:50      13.0   5.0  13.9   6.6  58  1013   ---    NE    14    14   ---   0.7 Scattered Clouds/
22/01/2006 12:50      13.0   5.0  13.9   6.6  58  1013   ---    NE    14    14   ---   0.7 Scattered Clouds/None reported
22/01/2006 12:50      13.0   5.0  13.9   6.6  58  1013   ---    NE    14    14   ---   0.7 Scattered Clouds/None reported
22/01/2006 14:00       0.0   0.0   4.0 -10.5 100   ---   ---    NE   ---   ---   ---   --- /
22/01/2006 14:50      13.0   6.0  14.2  11.2  62  1013   ---    NE     6     6   ---   0.7 Broken Clouds/
22/01/2006 15:50      13.0   6.0  14.2   9.7  62  1012   ---    NE     8     8   ---   0.7 Broken Clouds/
22/01/2006 16:50      12.0   8.0  14.1   6.2  77  1012   ---    NE    13    13   ---   0.6 Broken Clouds/
22/01/2006 17:50      12.0   7.0  13.7  12.0  71  1013   ---     N     5     5   ---   0.6 Broken Clouds/
22/01/2006 18:50      11.0   6.0  12.7  11.0  71  1012   ---     N     3     3   ---   0.6 Broken Clouds/
22/01/2006 19:50      11.0   6.0  12.7   6.5  71  1012   ---   WNW    10    10   ---   0.6 Broken Clouds/
22/01/2006 20:50      10.0   6.0  12.1   1.4  76  1013   ---   NNE    18    18   ---   --- Overcast/ Light Rain
22/01/2006 20:50      10.0   6.0  12.1   1.4  76  1013   ---   NNE    18    18   ---   --- Overcast/ Light Rain
22/01/2006 20:50      10.0   6.0  12.1   1.4  76  1013   ---   NNE    18    18   ---   --- Overcast/ Light Rain
22/01/2006 21:50      10.0   5.0  11.7   5.3  71  1013   ---   ENE    10    10   ---   --- Overcast/ Rain
22/01/2006 22:50      10.0   5.0  11.7   5.3  71  1013   ---     E    10    10   ---   0.8 Broken Clouds/
22/01/2006 23:50      10.0   4.0  11.4  10.0  66  1012   ---     N     3     3   ---   --- Overcast/ Light Rain
23/01/2006 00:50      10.0   4.0  11.4  10.0  66  1012   ---     N     2     2   ---   --- Overcast/ Light Rain
23/01/2006 01:50       9.0   4.0  10.7   9.0  71  1012   ---     N     3     3   ---   --- Overcast/ Light Rain
23/01/2006 02:50      10.0   5.0  11.7   6.2  71  1011   ---    NE     8     8   ---   0.5 Broken Clouds/
23/01/2006 03:50      11.0   5.0  12.4  -1.5  66  1011   ---    NE    40    40   ---   0.5 Scattered Clouds/
23/01/2006 04:20      10.0   5.0  11.7  -2.4  71  1011   ---    NE    34    34   ---   0.5 Scattered Clouds/
23/01/2006 05:50      10.0   4.0  11.4  -1.9  66  1012   ---    NE    31    31   ---   --- Overcast/ Light Rain
23/01/2006 06:50      11.0   5.0  12.4   2.7  66  1013   ---    NE    18    18   ---   --- Overcast/ Light Rain
23/01/2006 07:50      11.0   4.0  12.1  -1.3  62  1013   ---   NNE    37    37   ---   0.7 Scattered Clouds/
23/01/2006 08:20      11.0   4.0  12.1  -0.4  62  1013   ---    NE    31    31   ---   0.7 Scattered Clouds/
23/01/2006 09:50      11.0   3.0  11.9  -0.1  58  1014   ---   NNE    29    29   ---   0.7 Broken Clouds/
23/01/2006 10:50      11.0   3.0  11.9   0.1  58  1014   ---    NE    27    27   ---   0.7 Scattered Clouds/
23/01/2006 11:50      12.0   2.0  12.5   3.3  50  1014   ---    NE    19    19   ---   0.7 Scattered Clouds/
23/01/2006 12:50      11.0   0.0  11.3   2.7  47  1014   ---     N    18    18   ---   0.7 Broken Clouds/
23/01/2006 13:50       9.0   2.0  10.1  -3.5  62  1013   ---   NNE    31    31   ---   --- Overcast/ Rain
23/01/2006 14:20       9.0   0.0   9.6   4.1  53  1013   ---   NNE    10    10   ---   0.5 Broken Clouds/
23/01/2006 15:50       9.0   2.0  10.1   4.1  62  1016   ---     N    10    10   ---   0.8 Broken Clouds/
23/01/2006 16:20       9.0   2.0  10.1  -1.3  62  1014   ---    NW    21    40   ---   0.3 Broken Clouds/
23/01/2006 17:50       8.0   3.0   9.7  -6.1  71  1014   ---   NNW    39    39   ---   0.3 Broken Clouds/
23/01/2006 18:50       8.0   2.0   9.4  -6.1  66  1014   ---   NNW    39    39   ---   0.4 Broken Clouds/
23/01/2006 19:50       8.0   2.0   9.4  -3.2  66  1014   ---     N    23    23   ---   0.4 Broken Clouds/
23/01/2006 20:50       8.0   2.0   9.4  -2.3  66  1015   ---     N    19    19   ---   0.4 Broken Clouds/
23/01/2006 21:50       6.0   1.0   7.7  -5.6  70  1015   ---     E    21    21   ---   0.4 Broken Clouds/
23/01/2006 22:50       7.0   1.0   8.4  -0.2  66  1015   ---     E    13    13   ---   --- Overcast/ Light Rain
23/01/2006 23:50       8.0   1.0   9.1   0.0  61  1014   ---     E    14    14   ---   0.5 Broken Clouds/
23/01/2006 23:50       8.0   1.0   9.1   0.0  61  1014   ---     E    14    14   ---   0.5 Broken Clouds/None reported
24/01/2006 00:50       8.0   2.0   9.4   1.0  66  1015   ---     E    13    13   ---   0.5 Broken Clouds/
24/01/2006 01:50       7.0   2.0   8.7  -5.5  70  1014   ---   ENE    26    26   ---   --- Overcast/ Light Rain
24/01/2006 02:50       8.0   2.0   9.4  -6.0  66  1015   ---    NE    37    37   ---   0.4 Broken Clouds/
24/01/2006 03:50       7.0   2.0   8.7  -6.8  70  1015   ---    NE    32    32   ---   --- Overcast/ Rain Showers
24/01/2006 04:50       5.0   2.0   7.4  -5.5  81  1016   ---   ESE    18    18   ---   --- Overcast/ Heavy Rain
24/01/2006 05:50       5.0   1.0   7.0   5.0  75  1015   ---     N     5     5   ---   --- Overcast/ Light Rain
24/01/2006 06:50       8.0   2.0   9.4  -6.0  66  1016   ---    NE    37    37   ---   --- Overcast/ Light Rain
24/01/2006 07:50       7.0   0.0   8.1  -6.1  61  1016   ---     E    29    29   ---   --- Overcast/ Light Rain
24/01/2006 08:50       7.0   2.0   8.7  -2.8  70  1016   ---     E    18    18   ---   0.4 Broken Clouds/
24/01/2006 09:50       8.0   1.0   9.1  -2.3  61  1017   ---     E    19    19   ---   --- Overcast/ Light Rain
24/01/2006 10:50       7.0   1.0   8.4  -3.7  66  1018   ---     E    19    19   ---   0.5 Broken Clouds/
24/01/2006 11:50       7.0   2.0   8.7  -4.2  70  1019   ---     E    21    21   ---   --- Overcast/ Light Rain
24/01/2006 12:50       6.0   2.0   8.0  -6.1  75  1019   ---     E    23    23   ---   --- Overcast/ Light Rain
24/01/2006 13:50       8.0   1.0   9.1  -2.7  61  1019   ---     E    21    21   ---   0.5 Broken Clouds/
24/01/2006 14:50       7.0   1.0   8.4   1.7  66  1019   ---   ENE    10    10   ---   --- Overcast/ Light Rain
24/01/2006 15:20       7.0   2.0   8.7   2.7  70  1019   ---     E     8     8   ---   --- Overcast/ Light Rain
24/01/2006 16:20       8.0   0.0   8.8  -5.0  57  1019   ---   NNE    31    31   ---   0.5 Broken Clouds/
24/01/2006 17:20       8.0  -1.0   8.6  -4.4  53  1019   ---    NE    27    27   ---   0.5 Broken Clouds/
24/01/2006 17:50       8.0  -1.0   8.6  -2.3  53  1019   ---    NE    19    19   ---   0.5 Broken Clouds/
24/01/2006 17:50       8.0  -1.0   8.6  -2.3  53  1019   ---    NE    19    19   ---   0.5 Broken Clouds/None reported
24/01/2006 18:50       8.0  -1.0   8.6  -4.4  53  1020   ---    NE    27    45   ---   0.5 Broken Clouds/
24/01/2006 20:20       7.0   0.0   8.1   1.7  61  1020   ---     N    10    10   ---   --- Overcast/ Light Rain
24/01/2006 21:20       6.0   1.0   7.7  -9.5  70  1020   ---   NNE    42    42   ---   --- Overcast/ Light Rain
24/01/2006 22:50       7.0   0.0   8.1  -2.3  61  1020   ---    NE    16    16   ---   0.5 Broken Clouds/
24/01/2006 23:20       7.0   0.0   8.1  -5.5  61  1020   ---    NE    26    26   ---   0.5 Broken Clouds/
25/01/2006 00:50       7.0  -1.0   7.8  -3.7  57  1020   ---    NE    19    19   ---   0.5 Broken Clouds/
25/01/2006 01:50       7.0  -2.0   7.6  -4.7  53  1020   ---   NNE    23    23   ---   0.5 Broken Clouds/
25/01/2006 02:50       7.0  -1.0   7.8  -4.7  57  1020   ---     N    23    23   ---   0.5 Broken Clouds/
25/01/2006 03:50       7.0  -1.0   7.8  -4.2  57  1020   ---    NE    21    21   ---   0.7 Broken Clouds/
25/01/2006 04:50       7.0  -2.0   7.6  -5.5  53  1019   ---   NNE    26    26   ---   0.7 Broken Clouds/
25/01/2006 05:50       6.0   1.0   7.7  -4.2  70  1019   ---     E    18    18   ---   0.7 Broken Clouds/
25/01/2006 06:50       6.0   0.0   7.3  -5.6  65  1019   ---     E    21    21   ---   --- Overcast/ Light Rain
25/01/2006 07:50       7.0   0.0   8.1  -7.6  61  1020   ---   NNE    39    39   ---   --- Overcast/ Light Rain
25/01/2006 08:50       7.0  -2.0   7.6  -4.2  53  1020   ---    NE    21    21   ---   --- Overcast/ Light Rain
25/01/2006 09:50       7.0  -2.0   7.6  -6.1  53  1020   ---    NE    29    29   ---   0.7 Broken Clouds/
25/01/2006 10:50       8.0  -2.0   8.4  -4.4  49  1021   ---    NE    27    27   ---   0.7 Broken Clouds/
25/01/2006 11:50       8.0  -2.0   8.4  -4.4  49  1021   ---    NE    27    27   ---   0.7 Broken Clouds/
25/01/2006 12:50       7.0   1.0   8.4  -5.5  66  1021   ---   ENE    26    26   ---   0.7 Broken Clouds/
25/01/2006 13:50       7.0   0.0   8.1  -4.2  61  1020   ---   ENE    21    21   ---   0.5 Broken Clouds/
25/01/2006 14:50       7.0   1.0   8.4  -2.8  66  1020   ---     E    18    18   ---   0.6 Broken Clouds/
25/01/2006 15:50       7.0   0.0   8.1  -3.7  61  1019   ---   ENE    19    19   ---   0.6 Broken Clouds/
25/01/2006 16:20       7.0   0.0   8.1  -2.8  61  1020   ---   ENE    18    18   ---   0.6 Broken Clouds/
25/01/2006 17:20       7.0   0.0   8.1  -2.8  61  1019   ---   ENE    18    18   ---   0.6 Broken Clouds/
25/01/2006 17:50       7.0  -1.0   7.8  -2.8  57  1020   ---    NE    18    18   ---   0.6 Broken Clouds/
25/01/2006 19:20       7.0  -1.0   7.8   2.7  57  1020   ---   ENE     8     8   ---   0.6 Broken Clouds/
25/01/2006 20:20       6.0  -2.0   6.8   6.0  56  1020   ---     N     5     5   ---   0.6 Broken Clouds/
25/01/2006 21:20       7.0  -2.0   7.6   7.0  53  1020   ---     N     0     0   ---   0.6 Broken Clouds/
25/01/2006 22:20       7.0  -2.0   7.6   7.0  53  1020   ---   ---     5     5   ---   0.6 Broken Clouds/
25/01/2006 23:20       7.0  -3.0   7.4   7.0  49  1020   ---     N     5     5   ---   0.6 Broken Clouds/
26/01/2006 00:50       6.0  -2.0   6.8   0.5  56  1020   ---   SSW    10    10   ---   0.7 Broken Clouds/
26/01/2006 01:50       6.0  -2.0   6.8   6.0  56  1020   ---     N     5     5   ---   0.7 Broken Clouds/
26/01/2006 02:50       6.0  -2.0   6.8   6.0  56  1019   ---     N     0     0   ---   0.7 Broken Clouds/
26/01/2006 03:50       6.0  -3.0   6.6   6.0  52  1019   ---   ---     5     5   ---   0.7 Broken Clouds/
26/01/2006 04:50       6.0  -2.0   6.8   1.5  56  1019   ---     S     8     8   ---   0.7 Broken Clouds/
26/01/2006 05:20       6.0  -2.0   6.8   6.0  56  1019   ---     N     3     3   ---   0.7 Broken Clouds/
26/01/2006 06:50       6.0  -3.0   6.6   3.5  52  1019   ---     S     6     6   ---   0.7 Broken Clouds/
26/01/2006 07:50       6.0  -2.0   6.8   6.0  56  1019   ---     N     5     5   ---   0.9 Broken Clouds/
26/01/2006 08:50       7.0   0.0   8.1   7.0  61  1019   ---     N     3     3   ---   0.9 Scattered Clouds/
26/01/2006 09:50       9.0  -1.0   9.4   4.1  50  1019   ---     S    10    10   ---   0.9 Broken Clouds/
26/01/2006 10:50       9.0  -4.0   8.9   6.8  40  1019   ---   SSW     6     6   ---   0.9 Scattered Clouds/
26/01/2006 11:20      10.0  -4.0   9.8   3.6  37  1019   ---    SW    13    13   ---   0.9 Scattered Clouds/
26/01/2006 12:50      11.0  -1.0  11.1   2.7  43  1019   ---   SSW    18    18   ---   1.2 Scattered Clouds/
26/01/2006 13:50      10.0  -1.0  10.3   3.6  46  1018   ---   WSW    13    13   ---   0.9 Broken Clouds/
26/01/2006 14:50      11.0  -1.0  11.1   6.5  43  1017   ---    SW    10    10   ---   0.9 Broken Clouds/
26/01/2006 15:50      11.0  -1.0  11.1   4.9  43  1018   ---     S    13    13   ---   0.9 Scattered Clouds/
26/01/2006 16:50      11.0  -1.0  11.1   6.5  43  1017   ---   SSW    10    10   ---   0.9 Scattered Clouds/
26/01/2006 17:20      10.0  -2.0  10.1   7.9  43  1017   ---   SSW     6     6   ---   0.9 Scattered Clouds/
26/01/2006 18:50       9.0  -2.0   9.2   6.8  46  1017   ---   SSE     6     6   ---   0.9 Scattered Clouds/
26/01/2006 19:50       8.0  -1.0   8.6   5.7  53  1017   ---   SSE     6     6   ---   0.9 Scattered Clouds/
26/01/2006 20:50       9.0  -1.0   9.4   9.0  50  1017   ---     N     3     3   ---   0.9 Broken Clouds/
26/01/2006 21:50       9.0  -1.0   9.4   9.0  50  1017   ---     N     3     3   ---   0.9 Broken Clouds/
26/01/2006 22:50      10.0   0.0  10.4   7.9  50  1017   ---   SSE     6     6   ---   0.9 Broken Clouds/
26/01/2006 23:50       9.0  -2.0   9.2   6.8  46  1017   ---   ENE     6     6   ---   0.9 Scattered Clouds/
27/01/2006 00:50      11.0   2.0  11.6   2.7  54  1017   ---   WSW    18    18   ---   0.9 Broken Clouds/
27/01/2006 01:50      10.0   2.0  10.9   1.8  58  1017   ---   SSE    16    16   ---   0.9 Broken Clouds/
27/01/2006 02:20      10.0   1.0  10.6   6.2  54  1016   ---   ENE     8     8   ---   0.9 Broken Clouds/
27/01/2006 03:50      10.0   2.0  10.9   1.8  58  1016   ---    SE    16    16   ---   0.8 Broken Clouds/
27/01/2006 04:20      11.0   2.0  11.6   2.7  54  1016   ---     S    18    42   ---   0.8 Broken Clouds/
27/01/2006 05:50      10.0   3.0  11.1  -1.4  62  1017   ---     S    27    45   ---   --- Overcast/ Light Rain
27/01/2006 06:50      10.0   3.0  11.1   3.6  62  1017   ---     S    13    13   ---   0.7 Broken Clouds/
27/01/2006 07:50      11.0   2.0  11.6   4.0  54  1017   ---     S    14    14   ---   0.7 Broken Clouds/
27/01/2006 08:50      12.0   3.0  12.7   6.2  54  1017   ---     S    13    13   ---   0.7 Broken Clouds/
27/01/2006 10:00       0.0   0.0   4.0  -9.2 100   ---   ---     S   ---   ---   ---   --- /
27/01/2006 10:50      15.0   4.0  15.3  11.3  48  1018   ---   SSW    10    10   ---   0.7 Broken Clouds/
27/01/2006 11:50      12.0   5.0  13.1   6.2  62  1018   ---   SSW    13    13   ---   0.7 Broken Clouds/
27/01/2006 12:50      12.0   4.0  12.9   3.3  58  1018   ---    SW    19    19   ---   0.7 Broken Clouds/
27/01/2006 13:50      12.0   4.0  12.9   7.7  58  1018   ---   SSW    10    10   ---   0.7 Broken Clouds/
27/01/2006 14:50      13.0   5.0  13.9   9.7  58  1019   ---     S     8     8   ---   0.7 Broken Clouds/
27/01/2006 15:50      11.0   6.0  12.7   4.9  71  1019   ---    SW    13    13   ---   0.7 Broken Clouds/
27/01/2006 16:50      11.0   5.0  12.4   4.0  66  1018   ---    SW    14    14   ---   0.7 Broken Clouds/
27/01/2006 17:50      11.0   5.0  12.4  11.0  66  1018   ---     N     3     3   ---   0.7 Broken Clouds/
27/01/2006 18:20      11.0   4.0  12.1  11.0  62  1019   ---     N     2     2   ---   0.7 Broken Clouds/
27/01/2006 19:50      10.0   5.0  11.7  10.0  71  1019   ---     N     5     5   ---   0.7 Scattered Clouds/
27/01/2006 20:50      10.0   5.0  11.7  10.0  71  1019   ---     N     5     5   ---   0.7 Scattered Clouds/
27/01/2006 22:50      10.0   5.0  11.7  10.0  71  1020   ---     N     5     5   ---   0.7 Broken Clouds/
27/01/2006 23:50      10.0   5.0  11.7  10.0  71  1020   ---     N     3     3   ---   0.7 Broken Clouds/
28/01/2006 00:20      10.0   4.0  11.4  10.0  66  1020   ---     N     2     2   ---   0.7 Broken Clouds/
28/01/2006 01:50      10.0   5.0  11.7   7.9  71  1020   ---     S     6     6   ---   0.7 Broken Clouds/
28/01/2006 02:50      10.0   5.0  11.7  10.0  71  1020   ---     N     3     3   ---   0.7 Scattered Clouds/
28/01/2006 03:50      11.0   5.0  12.4  11.0  66  1020   ---     N     3     3   ---   0.7 Scattered Clouds/
28/01/2006 04:50      11.0   6.0  12.7  11.0  71  1020   ---     N     3     3   ---   1.0 Scattered Clouds/
28/01/2006 05:50      11.0   5.0  12.4  11.0  66  1020   ---     N     2     2   ---   1.0 Scattered Clouds/
28/01/2006 06:20      13.0   7.0  14.4  11.2  67  1021   ---   SSW     6     6   ---   1.0 Broken Clouds/
28/01/2006 07:50      12.0   6.0  13.4   8.5  67  1021   ---     E     8     8   ---   0.9 Broken Clouds/
28/01/2006 08:50      12.0   7.0  13.7   8.5  71  1021   ---    NE     8     8   ---   0.9 Broken Clouds/
28/01/2006 09:20      13.0   8.0  14.8  11.2  72  1021   ---    NE     6     6   ---   0.9 Broken Clouds/
28/01/2006 10:50      14.0   8.0  15.5  14.0  67  1022   ---     N     2     2   ---   0.9 Broken Clouds/
28/01/2006 11:50      15.0   8.0  16.2  13.3  63  1022   ---     N     6     6   ---   0.9 Broken Clouds/
28/01/2006 12:20      15.0   9.0  16.5  11.3  67  1021   ---   NNE    10    10   ---   0.9 Broken Clouds/
28/01/2006 12:20      15.0   9.0  16.5  11.3  67  1021   ---   NNE    10    10   ---   0.9 Broken Clouds/None reported
28/01/2006 13:50      16.0   7.0  16.7  16.0  55  1021   ---     N     0     0   ---   5.4 Scattered Clouds/
28/01/2006 13:50      16.0   7.0  16.7  16.0  55  1021   ---   ---     0     0   ---   5.4 Scattered Clouds/None reported
28/01/2006 14:50      18.0   5.0  18.1  10.8  42  1020   ---     S    26    26   ---   0.7 Broken Clouds/
28/01/2006 15:50      16.0   7.0  16.7  11.3  55  1020   ---     S    13    13   ---   0.7 Broken Clouds/
28/01/2006 15:50      16.0   7.0  16.7  11.3  55  1020   ---     S    13    13   ---   0.7 Broken Clouds/None reported
28/01/2006 16:50      15.0   6.0  15.7  12.0  55  1020   ---     E     8     8   ---   0.7 Broken Clouds/
28/01/2006 17:50      15.0   5.0  15.5  15.0  51  1020   ---     N     2     2   ---   0.7 Broken Clouds/
28/01/2006 18:50      13.0   5.0  13.9  13.0  58  1021   ---     N     2     2   ---   0.7 Broken Clouds/
28/01/2006 19:50      13.0   4.0  13.7  13.0  54  1021   ---     N     0     0   ---   0.7 Broken Clouds/
28/01/2006 20:50      13.0   6.0  14.2  13.0  62  1021   ---   ---     2     2   ---   0.7 Broken Clouds/
28/01/2006 21:50      13.0   7.0  14.4  13.0  67  1021   ---     N     0     0   ---   0.8 Broken Clouds/
28/01/2006 22:50      13.0   6.0  14.2   7.4  62  1021   ---   NNW    13    13   ---   0.8 Broken Clouds/
28/01/2006 23:50      13.0   8.0  14.8   5.5  72  1021   ---     N    18    18   ---   0.7 Broken Clouds/
29/01/2006 00:20      14.0   6.0  14.9  12.3  59  1020   ---   NNW     6     6   ---   0.7 Broken Clouds/
29/01/2006 01:50      14.0   2.0  14.2   8.0  44  1020   ---   ENE    14    14   ---   0.7 Scattered Clouds/
29/01/2006 02:50      12.0   4.0  12.9  10.1  58  1020   ---     N     6     6   ---   0.7 Scattered Clouds/
29/01/2006 03:50      12.0   4.0  12.9  12.0  58  1020   ---     N     5     5   ---   0.7 Broken Clouds/
29/01/2006 04:50      12.0   4.0  12.9  12.0  58  1020   ---     N     0     0   ---   0.7 Broken Clouds/
29/01/2006 05:50      13.0   6.0  14.2  11.2  62  1020   ---   ESE     6     6   ---   0.7 Broken Clouds/
29/01/2006 06:20      12.0   5.0  13.1  10.1  62  1020   ---     E     6     6   ---   0.7 Broken Clouds/
29/01/2006 07:50      13.0   4.0  13.7   8.9  54  1020   ---     E    10    10   ---   0.9 Scattered Clouds/
29/01/2006 08:50      13.0   5.0  13.9   9.7  58  1020   ---     E     8     8   ---   --- /
29/01/2006 08:50      13.0   5.0  13.9   9.7  58  1020   ---     E     8     8   ---   --- None reported/None reported
29/01/2006 10:50      16.0   6.0  16.5  16.0  51  1020   ---     N     3     3   ---   --- /
29/01/2006 10:50      16.0   6.0  16.5  16.0  51  1020   ---   ---     3     3   ---   --- None reported/None reported
29/01/2006 11:50      16.0   5.0  16.3  16.0  48  1020   ---     N     3     3   ---   6.0 Scattered Clouds/
29/01/2006 12:50      18.0   7.0  18.4  18.0  49  1019   ---     N     2     2   ---   6.0 Scattered Clouds/
29/01/2006 13:50      17.0   6.0  17.4  17.0  48  1018   ---     N     2     2   ---   6.0 Scattered Clouds/
29/01/2006 14:20      18.0   7.0  18.4  18.0  49  1017   ---     N     2     2   ---   --- /
29/01/2006 14:20      18.0   7.0  18.4  18.0  49  1017   ---   ---     2     2   ---   --- None reported/None reported
29/01/2006 15:50      17.0   7.0  17.5  17.0  52  1017   ---     N     5     5   ---   4.8 Broken Clouds/
29/01/2006 16:50      18.0   6.0  18.2  15.5  45  1016   ---   ENE     8     8   ---   3.3 Broken Clouds/
29/01/2006 17:50      17.0   5.0  17.2  17.0  45  1016   ---     N     5     5   ---   0.9 Broken Clouds/
29/01/2006 18:20      16.0   6.0  16.5  12.5  51  1016   ---     W    10    10   ---   0.9 Broken Clouds/
29/01/2006 19:50      16.0   6.0  16.5  16.0  51  1016   ---     N     5     5   ---   0.9 Broken Clouds/
29/01/2006 20:50      16.0   6.0  16.5  16.0  51  1016   ---     N     3     3   ---   0.9 Overcast/
29/01/2006 21:20      16.0   6.0  16.5  16.0  51  1016   ---     N     2     2   ---   0.9 Overcast/
29/01/2006 22:50      16.0   6.0  16.5  16.0  51  1016   ---     N     3     3   ---   0.9 Overcast/
29/01/2006 23:50      19.0   3.0  18.7  13.0  35  1015   ---     S    21    21   ---   0.9 Overcast/
30/01/2006 00:20      17.0   4.0  17.1  11.9  42  1014   ---     E    14    32   ---   0.9 Overcast/
30/01/2006 01:50      17.0   5.0  17.2  11.3  45  1014   ---   ESE    16    34   ---   0.9 Overcast/
30/01/2006 02:20      17.0   5.0  17.2  12.5  45  1014   ---   ENE    13    13   ---   --- Overcast/ Rain
30/01/2006 03:50      15.0   8.0  16.2   8.6  63  1014   ---     E    16    16   ---   0.9 Overcast/
30/01/2006 04:50      15.0   7.0  15.9   7.6  59  1013   ---     E    19    43   ---   0.9 Overcast/
30/01/2006 05:50      15.0   7.0  15.9   8.2  59  1012   ---     E    18    18   ---   --- Overcast/ Rain
30/01/2006 06:20      15.0   7.0  15.9   7.3  59  1013   ---     E    21    21   ---   --- Overcast/ Light Rain
30/01/2006 07:50      15.0   7.0  15.9   8.6  59  1011   ---     E    16    40   ---   0.7 Overcast/
30/01/2006 08:50      16.0   7.0  16.7  10.6  55  1010   ---   ESE    14    42   ---   0.7 Overcast/
30/01/2006 09:20      16.0   7.0  16.7   7.6  55  1010   ---     E    27    50   ---   0.7 Overcast/
30/01/2006 10:50      16.0   8.0  16.9   7.4  59  1010   ---     E    29    58   ---   0.7 Overcast/
30/01/2006 11:50      16.0   8.0  16.9   7.6  59  1009   ---    SE    27    51   ---   0.7 Overcast/
30/01/2006 12:50      16.0   8.0  16.9   8.4  59  1008   ---     E    23    23   ---   0.7 Overcast/
30/01/2006 13:50      17.0   6.0  17.4   9.3  48  1008   ---    SE    26    47   ---   0.7 Overcast/
30/01/2006 14:50      17.0   6.0  17.4  10.4  48  1007   ---   SSE    19    40   ---   0.7 Overcast/
30/01/2006 15:50      16.0   5.0  16.3   7.4  48  1007   ---    SE    29    60   ---   0.7 Overcast/
30/01/2006 16:50      15.0   6.0  15.7   7.3  55  1007   ---   ESE    21    60   ---   --- Overcast/ Light Rain
30/01/2006 17:50      15.0   5.0  15.5   4.1  51  1007   ---     E    50    92   ---   --- Overcast/ Light Rain
30/01/2006 18:50      14.0   7.0  15.2   3.2  63  1007   ---     E    40    64   ---   --- Overcast/ Light Rain
30/01/2006 19:50      14.0   7.0  15.2   4.9  63  1008   ---   ESE    26    53   ---   0.7 Overcast/
30/01/2006 20:50      14.0   7.0  15.2   4.9  63  1008   ---     E    26    26   ---   0.7 Overcast/
30/01/2006 21:20      14.0   7.0  15.2   6.2  63  1008   ---   ESE    19    19   ---   0.7 Overcast/
30/01/2006 22:50      15.0   7.0  15.9   9.3  59  1008   ---     E    14    14   ---   0.7 Overcast/
30/01/2006 23:50      15.0   7.0  15.9   8.2  59  1008   ---     E    18    18   ---   0.7 Overcast/
31/01/2006 00:20      15.0   7.0  15.9  10.0  59  1008   ---   ENE    13    31   ---   0.7 Overcast/
31/01/2006 01:50      13.0   8.0  14.8   4.8  72  1007   ---     E    19    19   ---   0.7 Overcast/
31/01/2006 02:50      13.0   8.0  14.8   5.5  72  1007   ---     E    18    18   ---   0.7 Overcast/
31/01/2006 03:50      13.0   9.0  15.1   2.4  77  1007   ---     E    32    32   ---   0.7 Overcast/
31/01/2006 04:50      13.0   9.0  15.1   5.8  77  1007   ---   ESE    16    16   ---   0.7 Broken Clouds/
31/01/2006 05:50      12.0   9.0  14.5   0.7  82  1007   ---     E    34    34   ---   --- / Drizzle
31/01/2006 06:50      14.0   6.0  14.9   3.9  59  1006   ---     E    32    32   ---   0.4 Broken Clouds/
31/01/2006 07:50      15.0   7.0  15.9  13.3  59  1007   ---   ESE     6     6   ---   0.4 Broken Clouds/
31/01/2006 08:50      14.0   8.0  15.5   5.5  67  1008   ---     E    23    23   ---   --- Overcast/ Light Rain
31/01/2006 09:20      13.0   9.0  15.1   6.6  77  1008   ---   ENE    14    14   ---   --- Overcast/ Light Rain
31/01/2006 10:50      12.0   8.0  14.1   5.3  77  1009   ---     E    14    14   ---   --- Overcast/ Light Rain
31/01/2006 11:50      12.0  10.0  14.9   4.5  88  1009   ---    NE    16    16   ---   0.3 Broken Clouds/
31/01/2006 12:20      12.0  10.0  14.9   4.1  88  1009   ---   ENE    18    18   ---   0.1 Broken Clouds/
31/01/2006 13:50      12.0   9.0  14.5   5.3  82  1008   ---   ENE    14    14   ---   --- Overcast/ Light Rain
31/01/2006 14:50      13.0   9.0  15.1   8.9  77  1008   ---   ENE    10    10   ---   --- Overcast/ Light Rain
31/01/2006 16:00       0.0   0.0   4.0  -6.7 100   ---   ---   ENE   ---   ---   ---   --- /
31/01/2006 16:50      13.0   8.0  14.8   3.1  72  1008   ---     E    27    27   ---   0.4 Broken Clouds/
31/01/2006 17:50      14.0   6.0  14.9   3.9  59  1008   ---     E    32    32   ---   0.4 Broken Clouds/
31/01/2006 18:50      14.0   6.0  14.9   4.1  59  1009   ---     E    31    31   ---   0.4 Broken Clouds/
31/01/2006 19:50      14.0   6.0  14.9   4.1  59  1009   ---     E    31    31   ---   0.4 Broken Clouds/
31/01/2006 20:50      14.0   6.0  14.9   4.1  59  1010   ---     E    31    31   ---   0.7 Broken Clouds/
31/01/2006 21:50      14.0   3.0  14.3   3.8  47  1010   ---     E    34    34   ---   0.7 Broken Clouds/
31/01/2006 22:50      14.0   3.0  14.3   3.8  47  1010   ---     E    34    34   ---   0.7 Broken Clouds/
31/01/2006 23:50      13.0   6.0  14.2   4.8  62  1011   ---   ENE    19    19   ---   0.7 Broken Clouds/
01/02/2006 00:20      13.0   7.0  14.4   4.8  67  1011   ---   ENE    19    19   ---   0.7 Broken Clouds/
01/02/2006 01:50      13.0   8.0  14.8   4.8  72  1011   ---   ENE    19    19   ---   0.7 Broken Clouds/
01/02/2006 02:50      13.0   9.0  15.1   4.8  77  1011   ---   NNE    19    19   ---   0.7 Broken Clouds/
01/02/2006 03:50      12.0   8.0  14.1   3.3  77  1010   ---   NNE    19    19   ---   0.7 Broken Clouds/
01/02/2006 04:50      12.0   9.0  14.5   3.0  82  1010   ---    NE    21    21   ---   0.4 Scattered Clouds/
01/02/2006 05:50      12.0   8.0  14.1   4.5  77  1011   ---    NE    16    16   ---   0.4 Scattered Clouds/
01/02/2006 06:20      12.0   7.0  13.7   4.1  71  1010   ---    NE    18    18   ---   0.4 Few Clouds/
01/02/2006 07:50      12.0   8.0  14.1   5.3  77  1011   ---    NE    14    14   ---   0.4 Scattered Clouds/
01/02/2006 08:50      12.0   9.0  14.5   4.1  82  1011   ---    NE    18    18   ---   0.3 Scattered Clouds/
01/02/2006 09:20      13.0   9.0  15.1   6.6  77  1012   ---   ENE    14    14   ---   0.3 Scattered Clouds/
01/02/2006 10:50      13.0   8.0  14.8   4.0  72  1013   ---    NE    23    23   ---   0.3 Scattered Clouds/
01/02/2006 11:50      14.0   8.0  15.5   6.9  67  1013   ---    NE    18    18   ---   0.3 Scattered Clouds/
01/02/2006 12:50      14.0   8.0  15.5   7.2  67  1013   ---    NE    16    16   ---   0.6 Scattered Clouds/
01/02/2006 13:50      14.0   8.0  15.5   7.2  67  1012   ---   ENE    16    16   ---   0.6 Scattered Clouds/
01/02/2006 14:50      14.0   9.0  15.8   8.7  72  1012   ---   NNE    13    13   ---   0.6 Scattered Clouds/
01/02/2006 15:50      14.0   7.0  15.2  10.8  63  1012   ---   NNE     8     8   ---   --- /
01/02/2006 16:50      14.0   8.0  15.5   8.0  67  1013   ---   NNE    14    14   ---   --- /
01/02/2006 17:50      13.0   9.0  15.1   5.5  77  1013   ---   NNE    18    18   ---   0.5 Few Clouds/
01/02/2006 18:20      12.0   8.0  14.1   4.1  77  1014   ---    NE    18    18   ---   0.5 Few Clouds/
01/02/2006 19:50      12.0   7.0  13.7   7.7  71  1015   ---   NNE    10    10   ---   0.5 Few Clouds/
01/02/2006 20:50      11.0   6.0  12.7  11.0  71  1015   ---     N     5     5   ---   0.5 Few Clouds/
01/02/2006 21:50      10.0   6.0  12.1  10.0  76  1015   ---     N     5     5   ---   0.5 Few Clouds/
01/02/2006 22:50       9.0   4.0  10.7   9.0  71  1016   ---     N     5     5   ---   0.6 Few Clouds/
01/02/2006 23:50       9.0   4.0  10.7   5.0  71  1016   ---     S     8     8   ---   0.6 Few Clouds/
02/02/2006 00:50       9.0   3.0  10.4   6.8  66  1016   ---     S     6     6   ---   0.6 Few Clouds/
02/02/2006 01:50       9.0   3.0  10.4   6.8  66  1016   ---     S     6     6   ---   0.6 Few Clouds/
02/02/2006 02:50       9.0   5.0  11.1   9.0  76  1016   ---     N     5     5   ---   --- /
02/02/2006 04:00       0.0   0.0   4.0   0.0 100   ---   ---     N   ---   ---   ---   --- /
02/02/2006 04:20       7.0   3.0   9.0   4.6  76  1016   ---   SSW     6     6   ---   --- /
02/02/2006 05:50       8.0   3.0   9.7   3.8  71  1016   ---     S     8     8   ---   --- /
02/02/2006 06:50       9.0   5.0  11.1   6.8  76  1016   ---     S     6     6   ---   --- /
02/02/2006 07:50       9.0   5.0  11.1   9.0  76  1016   ---     N     5     5   ---   0.4 Few Clouds/
02/02/2006 08:50      10.0   6.0  12.1  10.0  76  1016   ---     N     5     5   ---   0.6 Few Clouds/
02/02/2006 09:20      11.0   7.0  13.1   9.0  76  1017   ---   SSW     6     6   ---   0.6 Few Clouds/
02/02/2006 10:50      14.0   8.0  15.5  12.3  67  1017   ---   SSW     6     6   ---   --- /
02/02/2006 11:20      14.0   8.0  15.5  12.3  67  1017   ---     W     6     6   ---   --- /
02/02/2006 12:20      15.0   5.0  15.5  12.0  51  1017   ---     W     8     8   ---   --- /
02/02/2006 13:50      15.0   4.0  15.3  15.0  48  1017   ---     N     5     5   ---   --- /
02/02/2006 14:50      14.0   7.0  15.2  10.1  63  1016   ---    NW    10    10   ---   --- /
02/02/2006 15:50      14.0   8.0  15.5   8.7  67  1016   ---    NW    13    13   ---   --- /
02/02/2006 16:50      14.0   8.0  15.5   8.7  67  1016   ---    NW    13    13   ---   --- /
02/02/2006 17:50      12.0   7.0  13.7   8.5  71  1017   ---   WNW     8     8   ---   0.5 Few Clouds/
02/02/2006 18:20      11.0   6.0  12.7   9.0  71  1017   ---    NW     6     6   ---   0.5 Few Clouds/
02/02/2006 19:50      11.0   6.0  12.7  11.0  71  1017   ---     N     0     0   ---   0.7 Few Clouds/
02/02/2006 20:50      10.0   6.0  12.1  10.0  76  1017   ---   ---     5     5   ---   0.7 Few Clouds/
02/02/2006 21:50       9.0   5.0  11.1   6.8  76  1017   ---   SSW     6     6   ---   0.7 Few Clouds/
02/02/2006 22:50       9.0   4.0  10.7   4.1  71  1018   ---   SSW    10    10   ---   0.7 Few Clouds/
02/02/2006 23:50       8.0   3.0   9.7   5.7  71  1017   ---   SSW     6     6   ---   0.7 Few Clouds/
03/02/2006 00:20       9.0   5.0  11.1   6.8  76  1018   ---   SSW     6     6   ---   0.7 Few Clouds/
03/02/2006 01:50      10.0   5.0  11.7  10.0  71  1018   ---     N     2     2   ---   0.8 Few Clouds/
03/02/2006 02:20       8.0   3.0   9.7   8.0  71  1018   ---     N     3     3   ---   0.8 Few Clouds/
03/02/2006 03:50       8.0   4.0  10.0   5.7  76  1018   ---     S     6     6   ---   0.8 Few Clouds/
03/02/2006 04:20       8.0   3.0   9.7   3.8  71  1018   ---     S     8     8   ---   0.8 Few Clouds/
03/02/2006 05:50       9.0   4.0  10.7   4.1  71  1017   ---     S    10    10   ---   0.8 Few Clouds/
03/02/2006 06:20       9.0   4.0  10.7   1.4  71  1016   ---     S    14    14   ---   0.8 Few Clouds/
03/02/2006 07:50      10.0   5.0  11.7   3.6  71  1017   ---   SSW    13    13   ---   0.6 Few Clouds/
03/02/2006 08:50      11.0   5.0  12.4   4.9  66  1017   ---     S    13    13   ---   0.6 Few Clouds/
03/02/2006 09:20      11.0   5.0  12.4   4.9  66  1017   ---   SSW    13    13   ---   0.6 Few Clouds/
03/02/2006 10:50      13.0   5.0  13.9   5.5  58  1017   ---   SSW    18    18   ---   0.6 Few Clouds/
03/02/2006 11:50      14.0   6.0  14.9   8.0  59  1016   ---   SSW    14    14   ---   0.6 Few Clouds/
03/02/2006 12:20      15.0   6.0  15.7   7.6  55  1016   ---    SW    19    19   ---   0.6 Few Clouds/
03/02/2006 13:50      14.0   6.0  14.9   8.7  59  1015   ---    NE    13    13   ---   0.6 Few Clouds/
03/02/2006 14:50      13.0   5.0  13.9   7.4  58  1015   ---   ENE    13    13   ---   0.6 Scattered Clouds/
03/02/2006 15:50      13.0   7.0  14.4   9.7  67  1015   ---   ENE     8     8   ---   0.6 Broken Clouds/
03/02/2006 16:50      13.0   6.0  14.2  11.2  62  1015   ---     E     6     6   ---   0.6 Broken Clouds/
03/02/2006 17:50      11.0   6.0  12.7   7.3  71  1014   ---     E     8     8   ---   0.6 Broken Clouds/
03/02/2006 18:20      11.0   5.0  12.4  11.0  66  1014   ---     N     5     5   ---   0.6 Broken Clouds/
03/02/2006 19:50      11.0   5.0  12.4  11.0  66  1014   ---     N     5     5   ---   0.9 Few Clouds/
03/02/2006 20:20      10.0   5.0  11.7  10.0  71  1014   ---     N     5     5   ---   0.9 Few Clouds/
03/02/2006 21:20      11.0   5.0  12.4  11.0  66  1014   ---     N     5     5   ---   0.9 Few Clouds/
03/02/2006 22:50      10.0   5.0  11.7  10.0  71  1014   ---     N     3     3   ---   --- /
03/02/2006 23:50       8.0   3.0   9.7   8.0  71  1014   ---     N     2     2   ---   --- /
04/02/2006 00:20       9.0   5.0  11.1   9.0  76  1014   ---     N     0     0   ---   --- /
04/02/2006 01:50       8.0   3.0   9.7   8.0  71  1014   ---   ---     3     3   ---   --- /
04/02/2006 02:50       9.0   4.0  10.7   9.0  71  1014   ---     N     3     3   ---   --- /
04/02/2006 03:50       8.0   4.0  10.0   8.0  76  1014   ---     N     0     0   ---   --- /
04/02/2006 04:50      10.0   6.0  12.1   6.2  76  1013   ---     E     8     8   ---   --- /
04/02/2006 06:00       0.0   0.0   4.0  -5.5 100   ---   ---     E   ---   ---   ---   --- /
04/02/2006 07:00       0.0   0.0   4.0  -5.5 100   ---   ---     E   ---   ---   ---   --- /
04/02/2006 07:50       8.0   6.0  10.9   8.0  87  1012   ---     S     3     3   ---   0.9 Scattered Clouds/
04/02/2006 09:00       0.0   0.0   4.0   0.0 100   ---   ---     S   ---   ---   ---   --- /
04/02/2006 10:00       0.0   0.0   4.0   0.0 100   ---   ---     S   ---   ---   ---   --- /
04/02/2006 11:00       0.0   0.0   4.0   0.0 100   ---   ---     S   ---   ---   ---   --- /
04/02/2006 11:50      14.0   7.0  15.2  14.0  63  1013   ---     N     3     3   ---   0.7 Scattered Clouds/
04/02/2006 12:20      15.0   8.0  16.2  15.0  63  1013   ---     N     5     5   ---   0.7 Scattered Clouds/
04/02/2006 14:00       0.0   0.0   4.0   0.0 100   ---   ---     N   ---   ---   ---   --- /
04/02/2006 14:50      15.0   6.0  15.7  13.3  55  1012   ---   NNE     6     6   ---   0.7 Scattered Clouds/
04/02/2006 15:50      15.0   8.0  16.2  13.3  63  1012   ---   NNE     6     6   ---   0.7 Scattered Clouds/
04/02/2006 16:50      13.0   6.0  14.2  11.2  62  1012   ---   NNE     6     6   ---   0.7 Broken Clouds/
04/02/2006 17:50      13.0   6.0  14.2  11.2  62  1012   ---   NNE     6     6   ---   0.7 Broken Clouds/
04/02/2006 19:00       0.0   0.0   4.0  -3.0 100   ---   ---   NNE   ---   ---   ---   --- /
04/02/2006 19:50      12.0   6.0  13.4  12.0  67  1012   ---     N     5     5   ---   0.7 Broken Clouds/
04/02/2006 20:50      11.0   5.0  12.4  11.0  66  1012   ---     S     3     3   ---   0.7 Few Clouds/
04/02/2006 21:50      10.0   5.0  11.7  10.0  71  1012   ---   SSW     5     5   ---   --- /
04/02/2006 22:50      11.0   6.0  12.7   7.3  71  1012   ---    SW     8     8   ---   0.7 Broken Clouds/
04/02/2006 22:50      11.0   6.0  12.7   7.3  71  1012   ---    SW     8     8   ---   0.7 Broken Clouds/None reported
04/02/2006 23:50      11.0   6.0  12.7  11.0  71  1012   ---     S     5     5   ---   0.7 Broken Clouds/
05/02/2006 00:50      12.0   7.0  13.7  12.0  71  1012   ---    SE     2     2   ---   0.7 Broken Clouds/
05/02/2006 01:50      11.0   6.0  12.7  11.0  71  1012   ---    SE     2     2   ---   0.7 Broken Clouds/
05/02/2006 02:50      11.0   6.0  12.7  11.0  71  1012   ---   SSE     2     2   ---   0.7 Broken Clouds/
05/02/2006 03:50      11.0   6.0  12.7  11.0  71  1011   ---     N     0     0   ---   0.7 Broken Clouds/
05/02/2006 04:50      11.0   6.0  12.7  11.0  71  1011   ---   ---     0     0   ---   0.5 Broken Clouds/
05/02/2006 05:50      11.0   7.0  13.1   4.0  76  1011   ---     E    14    14   ---   0.5 Broken Clouds/
05/02/2006 06:20      10.0   7.0  12.5   1.8  82  1011   ---     E    16    16   ---   0.7 Scattered Clouds/
05/02/2006 07:50      10.0   6.0  12.1  10.0  76  1011   ---     S     3     3   ---   0.7 Few Clouds/
05/02/2006 08:50       9.0   5.0  11.1   9.0  76  1011   ---     N     0     0   ---   0.7 Scattered Clouds/
05/02/2006 09:50      13.0   7.0  14.4  11.2  67  1011   ---   NNE     6     6   ---   0.6 Scattered Clouds/
05/02/2006 10:50      14.0   8.0  15.5  12.3  67  1011   ---   NNE     6     6   ---   0.6 Scattered Clouds/
05/02/2006 10:50      14.0   8.0  15.5  12.3  67  1011   ---   NNE     6     6   ---   0.6 Scattered Clouds/None reported
05/02/2006 11:50      12.0   7.0  13.7   0.8  71  1011   ---   NNW    32    32   ---   --- Overcast/ Light Rain
05/02/2006 12:50      12.0   8.0  14.1  12.0  77  1011   ---   ESE     3     3   ---   0.5 Broken Clouds/
05/02/2006 14:00       0.0   0.0   4.0   0.0 100   ---   ---   ESE   ---   ---   ---   --- /
05/02/2006 14:50      10.0   6.0  12.1   2.7  76  1011   ---     E    14    14   ---   --- Overcast/ Light Rain
05/02/2006 15:50      11.0   5.0  12.4   9.0  66  1011   ---     E     6     6   ---   0.6 Broken Clouds/
05/02/2006 16:50      11.0   7.0  13.1  11.0  76  1011   ---     N     2     2   ---   0.6 Broken Clouds/
05/02/2006 17:50      10.0  61.01105.7  10.01694  1010   ---     N     3     3   ---   --- Overcast/ Light Rain
05/02/2006 18:20      10.0   6.0  12.1  10.0  76  1011   ---     N     2     2   ---   --- Overcast/ Light Rain
05/02/2006 19:50       9.0   5.0  11.1   9.0  76  1012   ---     S     5     5   ---   --- Overcast/ Light Rain
05/02/2006 20:50      11.0   5.0  12.4   3.1  66  1012   ---   NNE    16    16   ---   0.5 Broken Clouds/
05/02/2006 21:20      11.0   5.0  12.4   3.1  66  1012   ---   NNE    16    16   ---   0.5 Broken Clouds/
05/02/2006 22:50      11.0   4.0  12.1   1.5  62  1012   ---   NNE    21    21   ---   0.5 Broken Clouds/
05/02/2006 23:50      11.0   3.0  11.9   3.1  58  1012   ---     N    16    16   ---   0.5 Broken Clouds/
06/02/2006 00:20      11.0   3.0  11.9   3.1  58  1012   ---     N    16    16   ---   0.5 Broken Clouds/
06/02/2006 01:50       9.0   4.0  10.7  -1.3  71  1012   ---     N    21    21   ---   0.8 Broken Clouds/
06/02/2006 02:20       9.0   4.0  10.7  -1.3  71  1012   ---     N    21    21   ---   0.8 Broken Clouds/
06/02/2006 03:50      10.0   4.0  11.4  -1.6  66  1012   ---   NNW    29    29   ---   --- Overcast/ Light Rain
06/02/2006 04:50       8.0   3.0   9.7   0.0  71  1012   ---   ENE    14    14   ---   0.5 Broken Clouds/
06/02/2006 05:50       8.0   3.0   9.7  -2.3  71  1012   ---    NE    19    19   ---   --- Overcast/ Heavy Rain
06/02/2006 06:20       7.0   3.0   9.0   1.7  76  1012   ---     E    10    10   ---   --- / Drizzle
06/02/2006 07:50       8.0   3.0   9.7  -0.9  71  1013   ---   ENE    16    16   ---   0.4 Broken Clouds/
06/02/2006 08:50       8.0   3.0   9.7   1.0  71  1013   ---     E    13    13   ---   0.5 Broken Clouds/
06/02/2006 09:20       9.0   3.0  10.4   4.1  66  1013   ---     E    10    10   ---   0.5 Broken Clouds/
06/02/2006 10:50      10.0   3.0  11.1   0.5  62  1013   ---    NE    19    19   ---   0.5 Broken Clouds/
06/02/2006 11:50      10.0   3.0  11.1   1.8  62  1013   ---   NNE    16    16   ---   0.5 Broken Clouds/
06/02/2006 12:50       9.0   0.0   9.6   1.4  53  1014   ---    NE    14    14   ---   0.5 Broken Clouds/
06/02/2006 13:50       8.0   2.0   9.4  -4.4  66  1014   ---     N    27    27   ---   --- Overcast/ Light Rain
06/02/2006 14:50       7.0   2.0   8.7   1.7  70  1014   ---   ENE    10    10   ---   --- Overcast/ Light Rain
06/02/2006 16:50       7.0   1.0   8.4  -4.7  66  1014   ---    NE    23    23   ---   0.6 Broken Clouds/
06/02/2006 14:50       7.0   2.0   8.7   1.7  70  1014   ---   ENE    10    10   ---   --- Overcast/ Light Rain
06/02/2006 18:50       6.0   0.0   7.3  -6.1  65  1016   ---    NE    23    23   ---   0.6 Broken Clouds/
06/02/2006 14:50       7.0   2.0   8.7   1.7  70  1014   ---   ENE    10    10   ---   --- Overcast/ Light Rain
06/02/2006 20:50       7.0  -2.0   7.6  -7.0  53  1016   ---   NNE    34    34   ---   0.6 Broken Clouds/
06/02/2006 14:50       7.0   2.0   8.7   1.7  70  1014   ---   ENE    10    10   ---   --- Overcast/ Light Rain
06/02/2006 22:50       6.0  -4.0   6.4  -5.1  49  1017   ---    NE    19    43   ---   0.6 Broken Clouds/
06/02/2006 23:50       6.0  -4.0   6.4  -7.4  49  1017   ---   NNE    27    45   ---   --- Overcast/ Light Rain
06/02/2006 14:50       7.0   2.0   8.7   1.7  70  1014   ---   ENE    10    10   ---   --- Overcast/ Light Rain
07/02/2006 01:50       6.0  -6.0   6.0  -8.5  42  1017   ---    NE    34    53   ---   0.6 Broken Clouds/
06/02/2006 14:50       7.0   2.0   8.7   1.7  70  1014   ---   ENE    10    10   ---   --- Overcast/ Light Rain
07/02/2006 03:50       6.0  -7.0   5.9  -9.4  39  1016   ---    NE    40    40   ---   0.6 Broken Clouds/
07/02/2006 04:50       6.0  -6.0   6.0  -9.5  42  1016   ---   NNE    42    63   ---   0.6 Broken Clouds/
06/02/2006 14:50       7.0   2.0   8.7   1.7  70  1014   ---   ENE    10    10   ---   --- Overcast/ Light Rain
07/02/2006 06:20       6.0  -7.0   5.9 -10.0  39  1017   ---   NNE    47    47   ---   0.6 Broken Clouds/
07/02/2006 07:50       6.0  -8.0   5.8  -9.4  36  1018   ---    NE    40    63   ---   0.7 Broken Clouds/
06/02/2006 14:50       7.0   2.0   8.7   1.7  70  1014   ---   ENE    10    10   ---   --- Overcast/ Light Rain
07/02/2006 09:50       6.0  -8.0   5.8  -9.2  36  1019   ---    NE    39    39   ---   0.7 Broken Clouds/
07/02/2006 10:50       7.0  -7.0   6.8  -7.6  36  1020   ---    NE    39    39   ---   0.7 Broken Clouds/
07/02/2006 11:50       7.0  -6.0   6.9  -6.8  39  1020   ---    NE    32    32   ---   0.7 Broken Clouds/
06/02/2006 14:50       7.0   2.0   8.7   1.7  70  1014   ---   ENE    10    10   ---   --- Overcast/ Light Rain
07/02/2006 14:20       8.0  -4.0   8.1  -5.4  42  1020   ---   NNE    34    34   ---   0.9 Broken Clouds/
07/02/2006 15:50       7.0  -6.0   6.9  -6.1  39  1020   ---   NNE    29    29   ---   0.9 Scattered Clouds/
07/02/2006 16:50       7.0  -6.0   6.9  -6.1  39  1020   ---   NNE    29    29   ---   0.9 Scattered Clouds/
07/02/2006 17:50       7.0  -5.0   7.1  -5.5  42  1020   ---   NNE    26    26   ---   0.9 Scattered Clouds/
07/02/2006 18:20       6.0  -5.0   6.2  -5.6  45  1020   ---    NE    21    21   ---   0.9 Scattered Clouds/
07/02/2006 19:50       6.0  -6.0   6.0  -3.7  42  1020   ---   NNE    16    16   ---   0.9 Scattered Clouds/
06/02/2006 20:20       7.0  -5.0   7.1  -6.1  42  1016   ---   NNE    29    29   ---   0.6 Broken Clouds/
06/02/2006 21:20       6.0  -3.0   6.6  -8.0  52  1017   ---    NE    31    31   ---   0.6 Broken Clouds/
07/02/2006 21:50       6.0  -3.0   6.6  -1.5  52  1021   ---   NNE    13    13   ---   0.9 Scattered Clouds/
07/02/2006 23:50       7.0  -3.0   7.4  -1.3  49  1020   ---     N    14    14   ---   1.0 Few Clouds/
08/02/2006 00:50       6.0  -3.0   6.6   6.0  52  1020   ---     N     5     5   ---   1.0 Few Clouds/
08/02/2006 01:50       4.0  -3.0   5.0   4.0  60  1020   ---     N     5     5   ---   1.0 Few Clouds/
08/02/2006 02:50       5.0  -1.0   6.3   2.4  65  1020   ---     S     6     6   ---   1.0 Few Clouds/
08/02/2006 03:50       5.0  -1.0   6.3   0.4  65  1019   ---     S     8     8   ---   1.0 Few Clouds/
08/02/2006 04:50       6.0   0.0   7.3  -2.6  65  1020   ---     S    14    14   ---   1.0 Few Clouds/
08/02/2006 05:50       7.0   0.0   8.1   1.7  61  1019   ---     S    10    10   ---   1.0 Few Clouds/
08/02/2006 06:50       7.0   0.0   8.1  -0.2  61  1019   ---     S    13    13   ---   0.9 Scattered Clouds/
08/02/2006 07:50       8.0   1.0   9.1   1.0  61  1019   ---     S    13    13   ---   0.9 Scattered Clouds/
08/02/2006 08:50       9.0   1.0   9.8   2.3  57  1019   ---     S    13    13   ---   1.2 Scattered Clouds/
08/02/2006 09:50      10.0   2.0  10.9   5.3  58  1019   ---    SW    10    10   ---   1.2 Scattered Clouds/
08/02/2006 10:50      12.0   3.0  12.7   5.3  54  1019   ---   SSW    14    14   ---   1.0 Few Clouds/
08/02/2006 11:50      13.0   3.0  13.5   7.4  51  1019   ---   SSW    13    13   ---   0.9 Scattered Clouds/
08/02/2006 12:50      13.0   3.0  13.5   6.6  51  1018   ---    SW    14    14   ---   0.9 Broken Clouds/
08/02/2006 13:50      12.0   4.0  12.9   5.3  58  1017   ---     W    14    14   ---   0.9 Broken Clouds/
08/02/2006 14:50      12.0   4.0  12.9   5.3  58  1017   ---    SW    14    14   ---   0.7 Broken Clouds/
08/02/2006 15:50      12.0   4.0  12.9   3.0  58  1016   ---     W    21    21   ---   0.7 Broken Clouds/
08/02/2006 16:20      11.0   5.0  12.4  -0.1  66  1016   ---   WSW    29    29   ---   0.7 Broken Clouds/
08/02/2006 17:50      11.0   4.0  12.1   1.5  62  1016   ---   SSW    21    21   ---   0.7 Broken Clouds/
08/02/2006 18:50      12.0   5.0  13.1   6.2  62  1015   ---   WSW    13    13   ---   0.6 Broken Clouds/
08/02/2006 19:50      11.0   5.0  12.4   1.1  66  1015   ---    SW    23    23   ---   0.6 Scattered Clouds/
08/02/2006 20:50      12.0   4.0  12.9   3.0  58  1015   ---   SSW    21    21   ---   0.7 Scattered Clouds/
08/02/2006 21:20      11.0   4.0  12.1   1.1  62  1015   ---    SW    23    23   ---   0.7 Scattered Clouds/
08/02/2006 22:50      12.0   4.0  12.9   1.6  58  1015   ---   SSW    27    27   ---   0.7 Scattered Clouds/
08/02/2006 23:50      12.0   4.0  12.9   1.1  58  1014   ---    SW    31    31   ---   0.7 Few Clouds/
09/02/2006 00:20      12.0   4.0  12.9   1.4  58  1014   ---    SW    29    29   ---   0.7 Few Clouds/
09/02/2006 01:50      12.0   5.0  13.1   0.3  62  1014   ---   SSW    37    55   ---   0.7 Scattered Clouds/
09/02/2006 02:50      12.0   5.0  13.1   1.1  62  1013   ---    SW    31    31   ---   0.7 Scattered Clouds/
09/02/2006 03:50      11.0   4.0  12.1  -0.1  62  1013   ---    SW    29    29   ---   0.7 Scattered Clouds/
09/02/2006 04:50      11.0   4.0  12.1   0.1  62  1012   ---   SSW    27    27   ---   0.7 Broken Clouds/
09/02/2006 05:50      11.0   4.0  12.1  -0.1  62  1011   ---   SSW    29    29   ---   0.7 Scattered Clouds/
09/02/2006 06:20      11.0   4.0  12.1  -0.1  62  1012   ---    SW    29    29   ---   0.9 Scattered Clouds/
09/02/2006 07:50      12.0   5.0  13.1   1.1  62  1011   ---    SW    31    31   ---   0.9 Scattered Clouds/
09/02/2006 08:50      12.0   5.0  13.1   0.7  62  1012   ---    SW    34    34   ---   0.7 Broken Clouds/
09/02/2006 09:50      13.0   7.0  14.4   1.8  67  1012   ---   WSW    37    37   ---   0.7 Broken Clouds/
09/02/2006 10:50      13.0   6.0  14.2   2.2  62  1012   ---     W    34    34   ---   0.7 Broken Clouds/
09/02/2006 11:50      14.0   7.0  15.2   4.1  63  1012   ---     W    31    31   ---   0.7 Broken Clouds/
09/02/2006 12:50      13.0   6.0  14.2   0.9  62  1012   ---     W    50    50   ---   0.7 Broken Clouds/
09/02/2006 13:50      14.0   6.0  14.9   2.9  59  1012   ---     W    43    43   ---   0.7 Broken Clouds/
09/02/2006 14:20      14.0   5.0  14.7   3.2  55  1012   ---     W    40    40   ---   0.7 Broken Clouds/
09/02/2006 15:50      14.0   6.0  14.9   3.4  59  1012   ---     W    37    37   ---   1.0 Broken Clouds/
09/02/2006 16:20      13.0   5.0  13.9   1.8  58  1012   ---     W    39    39   ---   1.0 Broken Clouds/
09/02/2006 17:50      12.0   6.0  13.4   0.3  67  1012   ---     W    37    37   ---   1.0 Broken Clouds/
09/02/2006 18:20      12.0   6.0  13.4   0.8  67  1012   ---     W    32    32   ---   1.0 Broken Clouds/
09/02/2006 19:50      12.0   6.0  13.4   0.2  67  1012   ---     W    39    39   ---   1.0 Broken Clouds/
09/02/2006 20:50      12.0   6.0  13.4   1.6  67  1013   ---     W    27    27   ---   0.9 Broken Clouds/
09/02/2006 21:50      12.0   6.0  13.4   0.8  67  1012   ---     W    32    32   ---   0.9 Broken Clouds/
09/02/2006 22:50      12.0   5.0  13.1   0.7  62  1013   ---     W    34    34   ---   0.8 Broken Clouds/
09/02/2006 23:50      12.0   5.0  13.1  -0.2  62  1012   ---     W    43    43   ---   0.8 Broken Clouds/
10/02/2006 00:50      12.0   5.0  13.1  -0.1  62  1013   ---     W    42    42   ---   0.8 Broken Clouds/
10/02/2006 01:50      12.0   5.0  13.1  -0.1  62  1013   ---     W    42    42   ---   0.8 Broken Clouds/
10/02/2006 02:50      12.0   4.0  12.9  -0.1  58  1013   ---     W    42    42   ---   0.8 Broken Clouds/
10/02/2006 03:50      12.0   4.0  12.9  -0.1  58  1013   ---     W    42    42   ---   0.8 Broken Clouds/
10/02/2006 04:50      12.0   4.0  12.9   0.0  58  1012   ---     W    40    40   ---   0.8 Broken Clouds/
10/02/2006 05:50      12.0   5.0  13.1   0.0  62  1013   ---     W    40    40   ---   0.8 Broken Clouds/
10/02/2006 06:50      12.0   5.0  13.1   0.8  62  1013   ---     W    32    32   ---   0.8 Broken Clouds/
10/02/2006 07:50      12.0   6.0  13.4   0.2  67  1012   ---     W    39    39   ---   0.9 Broken Clouds/
10/02/2006 08:50      12.0   7.0  13.7   0.0  71  1013   ---   WNW    40    40   ---   0.9 Broken Clouds/
10/02/2006 09:20      12.0   6.0  13.4   1.1  67  1013   ---     W    31    31   ---   0.9 Broken Clouds/
10/02/2006 10:50      13.0   6.0  14.2   3.4  62  1013   ---     W    26    26   ---   0.9 Broken Clouds/
10/02/2006 11:50      13.0   5.0  13.9   2.2  58  1013   ---     W    34    34   ---   0.9 Broken Clouds/
10/02/2006 12:50      15.0   8.0  16.2   5.4  63  1013   ---     W    32    32   ---   0.9 Broken Clouds/
10/02/2006 13:50      14.0   7.0  15.2   3.9  63  1013   ---     W    32    32   ---   0.9 Broken Clouds/
10/02/2006 15:50      13.0   8.0  14.8   2.2  72  1013   ---     W    34    34   ---   0.7 Broken Clouds/
10/02/2006 16:20      13.0   7.0  14.4   2.9  67  1013   ---     W    29    29   ---   0.7 Broken Clouds/
10/02/2006 17:50      13.0   8.0  14.8   3.4  72  1013   ---     W    26    26   ---   0.7 Broken Clouds/
10/02/2006 18:50      12.0   7.0  13.7   1.6  71  1013   ---   WNW    27    27   ---   0.7 Broken Clouds/
10/02/2006 19:50      13.0   7.0  14.4   3.4  67  1014   ---     W    26    26   ---   0.7 Broken Clouds/
10/02/2006 20:50      13.0   6.0  14.2   4.0  62  1015   ---     W    23    23   ---   0.7 Broken Clouds/
10/02/2006 21:50      12.0   6.0  13.4   2.6  67  1015   ---     W    23    23   ---   0.7 Broken Clouds/
10/02/2006 22:50      13.0   6.0  14.2   4.8  62  1015   ---     W    19    19   ---   0.9 Broken Clouds/
10/02/2006 23:50      13.0   6.0  14.2   4.8  62  1015   ---     W    19    19   ---   0.9 Broken Clouds/
11/02/2006 00:50      12.0   6.0  13.4   4.1  67  1015   ---   WNW    18    18   ---   0.9 Broken Clouds/
11/02/2006 01:50      12.0   6.0  13.4   4.5  67  1015   ---     W    16    16   ---   0.9 Broken Clouds/
11/02/2006 02:50      11.0   6.0  12.7   6.5  71  1015   ---   SSW    10    10   ---   0.9 Broken Clouds/
11/02/2006 03:50      11.0   6.0  12.7   3.1  71  1014   ---   SSW    16    16   ---   0.9 Broken Clouds/
11/02/2006 04:50      12.0   7.0  13.7   1.9  71  1015   ---   WNW    26    26   ---   0.9 Broken Clouds/
11/02/2006 05:50      12.0   6.0  13.4   3.0  67  1016   ---   WNW    21    21   ---   0.9 Broken Clouds/
11/02/2006 06:50      11.0   6.0  12.7   3.1  71  1016   ---     W    16    16   ---   0.9 Scattered Clouds/
11/02/2006 07:50      11.0   6.0  12.7   4.9  71  1016   ---   SSW    13    13   ---   0.8 Scattered Clouds/
11/02/2006 07:50      11.0   6.0  12.7   4.9  71  1016   ---   SSW    13    13   ---   0.8 Scattered Clouds/None reported
11/02/2006 08:50      12.0   6.0  13.4   7.7  67  1016   ---     S    10    10   ---   0.8 Broken Clouds/
11/02/2006 09:50      13.0   6.0  14.2   9.7  62  1017   ---    SW     8     8   ---   0.8 Broken Clouds/
11/02/2006 10:50      14.0   7.0  15.2  10.1  63  1017   ---    SW    10    10   ---   0.7 Broken Clouds/
11/02/2006 11:50      14.0   7.0  15.2  10.8  63  1017   ---    SW     8     8   ---   0.7 Broken Clouds/
11/02/2006 12:50      14.0   5.0  14.7  14.0  55  1017   ---     N     3     3   ---   0.8 Broken Clouds/
11/02/2006 12:50      14.0   5.0  14.7  14.0  55  1017   ---   ---     3     3   ---   0.8 Broken Clouds/None reported
11/02/2006 13:50      13.0   5.0  13.9  13.0  58  1017   ---     N     2     2   ---   0.8 Scattered Clouds/
11/02/2006 14:20      14.0   6.0  14.9  12.3  59  1017   ---     N     6     6   ---   0.8 Scattered Clouds/
11/02/2006 15:50      14.0   7.0  15.2   8.0  63  1017   ---   NNE    14    14   ---   0.8 Scattered Clouds/
11/02/2006 16:50      14.0   7.0  15.2  10.8  63  1017   ---    NE     8     8   ---   0.6 Broken Clouds/
11/02/2006 17:50      13.0   8.0  14.8   8.9  72  1017   ---    NE    10    10   ---   0.6 Scattered Clouds/
11/02/2006 18:20      12.0   7.0  13.7   6.2  71  1017   ---   NNE    13    13   ---   0.6 Scattered Clouds/
11/02/2006 19:50      11.0   6.0  12.7   4.9  71  1018   ---   NNE    13    13   ---   0.6 Scattered Clouds/
11/02/2006 20:50      11.0   6.0  12.7  11.0  71  1018   ---     N     5     5   ---   0.8 Broken Clouds/
11/02/2006 21:20      11.0   6.0  12.7   7.3  71  1018   ---    NE     8     8   ---   0.8 Broken Clouds/
11/02/2006 22:50      11.0   7.0  13.1   4.9  76  1020   ---     E    13    13   ---   0.7 Broken Clouds/
11/02/2006 23:50      12.0   5.0  13.1   7.7  62  1020   ---     E    10    10   ---   0.7 Broken Clouds/
12/02/2006 00:20      12.0   5.0  13.1   7.7  62  1019   ---     E    10    10   ---   0.7 Broken Clouds/
12/02/2006 01:50      12.0   4.0  12.9   4.5  58  1019   ---   ENE    16    16   ---   0.7 Broken Clouds/
12/02/2006 02:50      12.0   3.0  12.7   3.3  54  1019   ---   ENE    19    19   ---   0.7 Broken Clouds/
12/02/2006 03:50      11.0   2.0  11.6   1.9  54  1019   ---   ENE    19    19   ---   0.7 Broken Clouds/
12/02/2006 04:50      11.0   2.0  11.6   1.1  54  1019   ---   ENE    23    23   ---   0.7 Broken Clouds/
12/02/2006 06:00       0.0   0.0   4.0 -14.8 100   ---   ---   ENE   ---   ---   ---   --- /
12/02/2006 06:50      11.0   3.0  11.9   2.7  58  1020   ---   ENE    18    18   ---   0.8 Broken Clouds/
12/02/2006 07:50      11.0   2.0  11.6   4.9  54  1020   ---     E    13    13   ---   0.8 Scattered Clouds/
12/02/2006 08:50      11.0   2.0  11.6   1.9  54  1021   ---   ENE    19    19   ---   0.8 Scattered Clouds/
12/02/2006 09:50      12.0   1.0  12.3   3.0  47  1021   ---   ENE    21    21   ---   0.8 Scattered Clouds/
12/02/2006 10:20      12.0   1.0  12.3   4.1  47  1022   ---   ENE    18    18   ---   0.8 Scattered Clouds/
12/02/2006 11:50      13.0   0.0  13.0   4.0  41  1022   ---   ENE    23    23   ---   0.8 Scattered Clouds/
12/02/2006 12:20      13.0   0.0  13.0   3.4  41  1021   ---   ENE    26    26   ---   0.8 Few Clouds/
12/02/2006 13:50      13.0  -1.0  12.9   4.0  38  1021   ---   ENE    23    23   ---   0.8 Few Clouds/
12/02/2006 14:20      13.0  -1.0  12.9   4.0  38  1021   ---   ENE    23    23   ---   0.8 Few Clouds/
12/02/2006 15:50      12.0  -1.0  12.0   3.0  41  1021   ---   ENE    21    21   ---   0.8 Scattered Clouds/
12/02/2006 16:20      12.0  -1.0  12.0   3.3  41  1021   ---   ENE    19    19   ---   0.8 Few Clouds/
12/02/2006 17:50      11.0  -1.0  11.1   1.5  43  1021   ---   ENE    21    21   ---   0.8 Few Clouds/
12/02/2006 18:20      10.0  -2.0  10.1   2.7  43  1021   ---     E    14    14   ---   0.8 Few Clouds/
12/02/2006 19:50      10.0  -5.0   9.7   1.8  34  1021   ---     E    16    16   ---   0.8 Few Clouds/
12/02/2006 20:50      10.0  -4.0   9.8   5.3  37  1022   ---     E    10    10   ---   0.8 Few Clouds/
12/02/2006 21:50      10.0  -3.0  10.0   2.7  40  1021   ---     E    14    14   ---   0.8 Few Clouds/
12/02/2006 21:50      10.0  -3.0  10.0   2.7  40  1021   ---     E    14    14   ---   0.8 Few Clouds/None reported
12/02/2006 22:20      10.0  -2.0  10.1   2.7  43  1021   ---     E    14    14   ---   0.8 Few Clouds/
12/02/2006 23:50      10.0  -2.0  10.1   5.3  43  1021   ---     E    10    10   ---   0.8 Few Clouds/
13/02/2006 00:50      10.0  -2.0  10.1   5.3  43  1022   ---     E    10    10   ---   0.8 Few Clouds/
13/02/2006 01:50      10.0  -1.0  10.3   3.6  46  1021   ---     E    13    13   ---   0.8 Broken Clouds/
13/02/2006 02:20       9.0  -2.0   9.2   5.0  46  1022   ---   ENE     8     8   ---   0.8 Broken Clouds/
13/02/2006 03:50       9.0  -1.0   9.4   5.0  50  1021   ---     E     8     8   ---   0.8 Broken Clouds/
13/02/2006 04:50       9.0   0.0   9.6   5.0  53  1020   ---     E     8     8   ---   0.8 Broken Clouds/
13/02/2006 05:50       9.0  -1.0   9.4   9.0  50  1021   ---     N     5     5   ---   0.8 Broken Clouds/
13/02/2006 06:50       8.0   0.0   8.8   8.0  57  1020   ---     N     5     5   ---   0.8 Scattered Clouds/
13/02/2006 07:50       8.0   0.0   8.8   8.0  57  1020   ---     N     3     3   ---   0.7 Scattered Clouds/
13/02/2006 08:50       9.0   2.0  10.1   9.0  62  1020   ---     N     2     2   ---   0.7 Broken Clouds/
13/02/2006 09:50      11.0   0.0  11.3  11.0  47  1021   ---     N     2     2   ---   0.7 Broken Clouds/
13/02/2006 10:50      11.0   2.0  11.6  11.0  54  1021   ---     N     5     5   ---   0.7 Broken Clouds/
13/02/2006 11:50      12.0  -2.0  11.9  12.0  38  1021   ---     N     5     5   ---   0.7 Broken Clouds/
13/02/2006 12:50      12.0  -3.0  11.7   6.2  35  1021   ---    NE    13    13   ---   0.7 Scattered Clouds/
13/02/2006 13:50      12.0  -2.0  11.9   5.3  38  1020   ---   ENE    14    14   ---   0.7 Few Clouds/
13/02/2006 14:50      12.0  -2.0  11.9   4.5  38  1020   ---    NE    16    16   ---   0.7 Few Clouds/
13/02/2006 15:50      12.0   0.0  12.1   4.1  44  1020   ---   ENE    18    18   ---   0.7 Few Clouds/
13/02/2006 16:50      11.0   0.0  11.3   3.1  47  1020   ---   ENE    16    16   ---   0.7 Few Clouds/
13/02/2006 17:50      10.0   0.0  10.4   1.8  50  1020   ---   ENE    16    16   ---   0.7 Few Clouds/
13/02/2006 18:50      10.0   0.0  10.4   3.6  50  1021   ---   ENE    13    13   ---   0.7 Few Clouds/
13/02/2006 19:50       9.0   0.0   9.6   5.0  53  1021   ---   ENE     8     8   ---   0.7 Few Clouds/
13/02/2006 20:50       9.0   1.0   9.8   6.8  57  1022   ---     E     6     6   ---   0.7 Scattered Clouds/
13/02/2006 21:50       9.0   1.0   9.8   4.1  57  1023   ---     E    10    10   ---   0.7 Scattered Clouds/
13/02/2006 22:50       9.0   0.0   9.6   5.0  53  1023   ---     E     8     8   ---   0.7 Scattered Clouds/
13/02/2006 23:50       9.0   1.0   9.8   6.8  57  1023   ---     E     6     6   ---   0.7 Scattered Clouds/
14/02/2006 00:50       9.0   1.0   9.8   6.8  57  1023   ---     E     6     6   ---   0.7 Scattered Clouds/
14/02/2006 01:50       9.0   3.0  10.4  -1.3  66  1023   ---    NE    21    21   ---   --- Overcast/ Light Rain
14/02/2006 02:50       9.0   2.0  10.1   6.8  62  1023   ---     E     6     6   ---   0.6 Scattered Clouds/
14/02/2006 03:50       9.0   1.0   9.8   4.1  57  1023   ---     E    10    10   ---   0.7 Scattered Clouds/
14/02/2006 04:20       9.0   1.0   9.8   5.0  57  1023   ---     E     8     8   ---   0.7 Scattered Clouds/
14/02/2006 05:50       9.0   0.0   9.6   5.0  53  1023   ---   ENE     8     8   ---   0.9 Scattered Clouds/
14/02/2006 06:20       9.0  -1.0   9.4   5.0  50  1023   ---     E     8     8   ---   0.9 Few Clouds/
14/02/2006 07:50       8.0  -1.0   8.6   8.0  53  1024   ---     N     5     5   ---   0.9 Few Clouds/
14/02/2006 08:50       8.0   0.0   8.8   8.0  57  1024   ---     N     5     5   ---   0.9 Few Clouds/
14/02/2006 09:50      12.0   0.0  12.1  12.0  44  1025   ---     N     0     0   ---   0.9 Few Clouds/
14/02/2006 10:50      12.0  -3.0  11.7  12.0  35  1025   ---   ---     3     3   ---   0.9 Few Clouds/
14/02/2006 11:50      12.0  -3.0  11.7  12.0  35  1026   ---     N     5     5   ---   0.9 Few Clouds/
14/02/2006 12:50      12.0  -3.0  11.7  10.1  35  1026   ---     N     6     6   ---   0.9 Few Clouds/
14/02/2006 13:50      12.0  -2.0  11.9  12.0  38  1026   ---     N     3     3   ---   0.9 Few Clouds/
14/02/2006 14:50      12.0  -2.0  11.9  12.0  38  1025   ---     N     3     3   ---   --- /
14/02/2006 15:50      12.0  -2.0  11.9  12.0  38  1025   ---     N     5     5   ---   --- /
14/02/2006 16:50      12.0  -2.0  11.9  12.0  38  1025   ---     N     5     5   ---   --- /
14/02/2006 16:50      12.0  -2.0  11.9  12.0  38  1025   ---   ---     5     5   ---   --- None reported/None reported
14/02/2006 17:50      11.0  -2.0  11.0  11.0  40  1025   ---     N     5     5   ---   --- /
14/02/2006 20:20       9.0   2.0  10.1   9.0  62  1025   ---     N     5     5   ---   0.7 Few Clouds/
14/02/2006 21:50       8.0   3.0   9.7   2.9  71  1025   ---   SSE    10    10   ---   0.7 Few Clouds/
14/02/2006 22:50       7.0   3.0   9.0   2.7  76  1026   ---   SSE     8     8   ---   0.7 Few Clouds/
14/02/2006 22:50       7.0   3.0   9.0   2.7  76  1026   ---   SSE     8     8   ---   0.7 Few Clouds/None reported
14/02/2006 23:50       7.0   3.0   9.0   2.7  76  1026   ---     S     8     8   ---   0.7 Few Clouds/
15/02/2006 00:50       7.0   3.0   9.0   4.6  76  1026   ---   SSW     6     6   ---   0.7 Few Clouds/
15/02/2006 01:50       7.0   3.0   9.0   4.6  76  1026   ---   SSW     6     6   ---   0.7 Few Clouds/
15/02/2006 02:50       7.0   2.0   8.7  -0.2  70  1026   ---     S    13    13   ---   0.7 Few Clouds/
15/02/2006 03:50       7.0   2.0   8.7   1.7  70  1026   ---   SSE    10    10   ---   0.7 Few Clouds/
15/02/2006 04:50       7.0   1.0   8.4   1.7  66  1026   ---     S    10    10   ---   0.7 Few Clouds/
15/02/2006 05:50       7.0   0.0   8.1   2.7  61  1026   ---     S     8     8   ---   0.7 Few Clouds/
15/02/2006 06:20       7.0   0.0   8.1  -0.2  61  1026   ---     S    13    13   ---   0.7 Few Clouds/
15/02/2006 07:50       7.0   0.0   8.1   1.7  61  1025   ---     S    10    10   ---   0.7 Few Clouds/
15/02/2006 08:50       8.0   1.0   9.1   3.8  61  1026   ---     S     8     8   ---   0.7 Scattered Clouds/
15/02/2006 09:50      12.0   0.0  12.1   8.5  44  1026   ---    SW     8     8   ---   0.7 Broken Clouds/
15/02/2006 10:50      13.0   0.0  13.0   7.4  41  1026   ---   WSW    13    13   ---   1.0 Broken Clouds/
15/02/2006 11:50      12.0   0.0  12.1   7.7  44  1025   ---    SW    10    10   ---   0.9 Broken Clouds/
15/02/2006 12:20      13.0   0.0  13.0   8.9  41  1025   ---   WSW    10    10   ---   0.9 Broken Clouds/
15/02/2006 13:50      14.0   0.0  13.9  12.3  38  1024   ---     W     6     6   ---   0.9 Scattered Clouds/
15/02/2006 14:50      14.0   0.0  13.9  10.1  38  1023   ---    SW    10    10   ---   0.9 Scattered Clouds/
15/02/2006 15:50      14.0  -1.0  13.8   8.7  36  1023   ---   WSW    13    13   ---   0.7 Few Clouds/
15/02/2006 16:20      14.0   0.0  13.9   8.7  38  1023   ---    SW    13    13   ---   0.7 Few Clouds/
15/02/2006 17:50      13.0   3.0  13.5   8.9  51  1022   ---    SW    10    10   ---   0.7 Few Clouds/
15/02/2006 18:20      12.0   4.0  12.9   3.3  58  1022   ---   SSW    19    19   ---   0.7 Scattered Clouds/
15/02/2006 19:50      11.0   4.0  12.1   2.7  62  1022   ---   SSW    18    18   ---   0.7 Scattered Clouds/
15/02/2006 20:20      11.0   4.0  12.1   2.7  62  1022   ---   SSW    18    18   ---   0.7 Scattered Clouds/
15/02/2006 21:50      12.0   5.0  13.1   1.6  62  1021   ---   SSW    27    27   ---   0.7 Scattered Clouds/
15/02/2006 22:50      12.0   6.0  13.4   1.6  67  1021   ---   SSW    27    27   ---   0.7 Scattered Clouds/
15/02/2006 23:50      12.0   5.0  13.1   1.6  62  1021   ---   SSW    27    27   ---   0.8 Scattered Clouds/
16/02/2006 00:20      12.0   5.0  13.1   1.9  62  1021   ---   SSW    26    26   ---   0.8 Scattered Clouds/
16/02/2006 01:50      12.0   6.0  13.4   0.8  67  1020   ---   SSW    32    32   ---   0.8 Scattered Clouds/
16/02/2006 02:50      12.0   7.0  13.7   0.8  71  1019   ---   SSW    32    32   ---   0.8 Few Clouds/
16/02/2006 03:20      12.0   7.0  13.7   0.3  71  1018   ---   SSW    37    37   ---   0.8 Few Clouds/
16/02/2006 04:50      13.0   7.0  14.4   1.4  67  1017   ---   SSW    43    66   ---   0.8 Few Clouds/
16/02/2006 05:50      13.0   7.0  14.4   0.9  67  1016   ---   SSW    50    71   ---   0.8 Few Clouds/
16/02/2006 06:20      12.0   6.0  13.4  -0.5  67  1016   ---   SSW    47    66   ---   0.8 Few Clouds/
16/02/2006 07:50      12.0   7.0  13.7   0.0  71  1016   ---   SSW    40    40   ---   0.8 Scattered Clouds/
16/02/2006 08:50      13.0   7.0  14.4   0.8  67  1015   ---   SSW    51    71   ---   0.8 Broken Clouds/
16/02/2006 09:50      15.0   6.0  15.7   4.5  55  1015   ---   SSW    43    66   ---   0.8 Broken Clouds/
16/02/2006 10:50      15.0   8.0  16.2   4.7  63  1015   ---   SSW    42    42   ---   0.8 Broken Clouds/
16/02/2006 11:50      15.0   7.0  15.9   4.7  59  1014   ---   SSW    40    40   ---   0.8 Broken Clouds/
16/02/2006 12:20      16.0   6.0  16.5   6.0  51  1014   ---   SSW    45    45   ---   0.8 Broken Clouds/
16/02/2006 13:50      17.0   6.0  17.4   7.9  48  1013   ---    SW    40    40   ---   0.8 Broken Clouds/
16/02/2006 14:50      16.0   6.0  16.5   6.5  51  1012   ---    SW    37    37   ---   0.8 Broken Clouds/
16/02/2006 15:50      16.0   6.0  16.5   6.4  51  1012   ---   SSW    39    39   ---   0.8 Broken Clouds/
16/02/2006 16:20      16.0   6.0  16.5   6.5  51  1012   ---   SSW    37    37   ---   4.8 Broken Clouds/
16/02/2006 17:50      15.0   6.0  15.7   5.3  55  1011   ---   SSW    34    34   ---   4.8 Broken Clouds/
16/02/2006 18:20      15.0   6.0  15.7   4.9  55  1011   ---   SSW    39    39   ---   4.8 Broken Clouds/
16/02/2006 19:50      16.0   5.0  16.3   6.1  48  1011   ---   SSW    43    63   ---   4.8 Broken Clouds/
16/02/2006 20:50      16.0   6.0  16.5   6.0  51  1011   ---   SSW    45    45   ---   3.6 Scattered Clouds/
16/02/2006 21:20      16.0   6.0  16.5   6.1  51  1011   ---     S    43    43   ---   3.6 Scattered Clouds/
16/02/2006 22:20      16.0   5.0  16.3   6.5  48  1011   ---   SSW    37    37   ---   0.8 Broken Clouds/
16/02/2006 23:50      16.0   6.0  16.5   6.1  51  1011   ---   SSW    43    69   ---   0.8 Scattered Clouds/
17/02/2006 00:50      16.0   6.0  16.5   7.0  51  1011   ---   SSW    32    32   ---   0.8 Scattered Clouds/
17/02/2006 01:50      16.0   7.0  16.7   6.3  55  1010   ---   SSW    40    63   ---   0.8 Broken Clouds/
17/02/2006 02:50      16.0   7.0  16.7   6.5  55  1009   ---   SSW    37    37   ---   0.8 Broken Clouds/
17/02/2006 03:50      15.0   8.0  16.2   4.7  63  1010   ---    SW    42    42   ---   0.8 Broken Clouds/
17/02/2006 04:50      15.0   9.0  16.5   4.7  67  1010   ---    SW    40    40   ---   0.8 Scattered Clouds/
17/02/2006 05:50      14.0   9.0  15.8   3.1  72  1010   ---    SW    42    42   ---   0.8 Scattered Clouds/
17/02/2006 06:20      14.0  10.0  16.1   3.4  77  1011   ---    SW    37    37   ---   0.8 Few Clouds/
17/02/2006 07:50      14.0  10.0  16.1   4.4  77  1012   ---   WSW    29    29   ---   0.7 Scattered Clouds/
17/02/2006 08:50      15.0  10.0  16.8   6.4  72  1012   ---   SSW    26    26   ---   0.7 Scattered Clouds/
17/02/2006 09:50      15.0  11.0  17.1   6.1  77  1012   ---   WSW    27    27   ---   0.6 Broken Clouds/
17/02/2006 10:50      16.0  12.0  18.1   7.6  77  1013   ---   WSW    27    27   ---   0.6 Broken Clouds/
17/02/2006 11:50      16.0  11.0  17.8   8.4  72  1014   ---   WSW    23    23   ---   0.6 Scattered Clouds/
17/02/2006 12:50      17.0  10.0  18.2  10.1  63  1014   ---     W    21    21   ---   0.6 Scattered Clouds/
17/02/2006 13:50      17.0  11.0  18.5  10.1  68  1014   ---     W    21    21   ---   0.6 Scattered Clouds/
17/02/2006 14:50      17.0  12.0  18.8   8.9  72  1013   ---     W    29    29   ---   0.6 Scattered Clouds/
17/02/2006 15:50      17.0  12.0  18.8   8.9  72  1014   ---     W    29    29   ---   0.6 Scattered Clouds/
17/02/2006 16:50      17.0  12.0  18.8  11.0  72  1014   ---     W    18    18   ---   0.6 Scattered Clouds/
17/02/2006 17:50      15.0  11.0  17.1   9.3  77  1014   ---    SW    14    14   ---   0.4 Scattered Clouds/
17/02/2006 18:20      15.0  11.0  17.1   8.6  77  1013   ---     W    16    16   ---   0.4 Scattered Clouds/
17/02/2006 19:50      15.0  11.0  17.1   9.3  77  1015   ---    SW    14    14   ---   0.4 Scattered Clouds/
17/02/2006 20:20      15.0  10.0  16.8   8.2  72  1015   ---   WSW    18    18   ---   0.4 Scattered Clouds/
17/02/2006 21:20      15.0  10.0  16.8  10.0  72  1015   ---   SSW    13    13   ---   0.7 Broken Clouds/
17/02/2006 22:50      15.0  10.0  16.8   8.6  72  1017   ---   SSW    16    16   ---   0.7 Broken Clouds/
17/02/2006 23:50      14.0  10.0  16.1   8.7  77  1016   ---    SW    13    13   ---   0.7 Broken Clouds/
18/02/2006 00:50      14.0   9.0  15.8   7.2  72  1017   ---    SW    16    16   ---   0.7 Scattered Clouds/
18/02/2006 01:50      14.0   8.0  15.5   8.0  67  1017   ---   SSW    14    14   ---   0.7 Scattered Clouds/
18/02/2006 02:50      14.0   8.0  15.5  10.8  67  1015   ---   SSW     8     8   ---   0.7 Scattered Clouds/
18/02/2006 03:50      13.0   8.0  14.8   9.7  72  1016   ---   SSW     8     8   ---   0.7 Scattered Clouds/
18/02/2006 04:50      11.0   6.0  12.7  11.0  71  1016   ---     N     3     3   ---   0.7 Scattered Clouds/
18/02/2006 05:50      12.0   6.0  13.4   3.0  67  1016   ---   SSW    21    21   ---   0.7 Scattered Clouds/
18/02/2006 06:20      13.0   7.0  14.4   7.4  67  1017   ---     S    13    13   ---   0.7 Scattered Clouds/
18/02/2006 07:50      13.0   8.0  14.8   6.6  72  1017   ---     S    14    14   ---   --- /
18/02/2006 08:50      14.0   8.0  15.5   7.2  67  1017   ---   SSW    16    16   ---   0.6 Few Clouds/
18/02/2006 09:20      15.0   8.0  16.2   7.6  63  1017   ---   SSW    19    19   ---   0.6 Few Clouds/
18/02/2006 10:20       0.0   0.0   4.0 -13.6 100   ---   ---   SSW   ---   ---   ---   --- /
18/02/2006 11:50      17.0   8.0  17.7  11.0  55  1018   ---    SW    18    18   ---   0.6 Scattered Clouds/
18/02/2006 13:50      18.0   6.0  18.2  15.5  45  1017   ---   WSW     8     8   ---   0.6 Scattered Clouds/
18/02/2006 14:50      17.0   7.0  17.5  12.5  52  1016   ---   WSW    13    13   ---   0.6 Scattered Clouds/
18/02/2006 15:20      18.0   7.0  18.4  13.8  49  1016   ---     W    13    13   ---   0.7 Broken Clouds/
18/02/2006 16:20      17.0   9.0  18.0  13.8  59  1017   ---     W    10    10   ---   0.7 Broken Clouds/
18/02/2006 17:50      16.0  10.0  17.5  10.6  68  1017   ---    SW    14    14   ---   0.9 Broken Clouds/
18/02/2006 18:50      15.0   8.0  16.2   9.3  63  1017   ---   SSW    14    14   ---   0.9 Broken Clouds/
18/02/2006 19:50      15.0   8.0  16.2   9.3  63  1017   ---   SSW    14    14   ---   0.9 Broken Clouds/
18/02/2006 20:50      15.0   8.0  16.2  12.0  63  1017   ---   SSW     8     8   ---   0.9 Broken Clouds/
18/02/2006 21:20      15.0   8.0  16.2   8.6  63  1017   ---   SSW    16    16   ---   0.9 Broken Clouds/
18/02/2006 22:50      15.0   7.0  15.9   8.6  59  1017   ---   SSW    16    16   ---   0.9 Broken Clouds/
18/02/2006 23:50      15.0   8.0  16.2   9.3  63  1017   ---   SSW    14    14   ---   0.9 Broken Clouds/
19/02/2006 00:50      15.0   8.0  16.2   9.3  63  1017   ---   SSW    14    14   ---   0.9 Scattered Clouds/
19/02/2006 01:50      14.0   7.0  15.2   8.0  63  1017   ---     S    14    14   ---   0.9 Scattered Clouds/
19/02/2006 02:50      15.0   8.0  16.2   9.3  63  1017   ---     S    14    14   ---   0.9 Scattered Clouds/
19/02/2006 03:50      14.0   7.0  15.2   8.0  63  1017   ---     S    14    14   ---   0.9 Scattered Clouds/
19/02/2006 04:20      14.0   7.0  15.2   7.2  63  1017   ---     S    16    16   ---   0.9 Scattered Clouds/
19/02/2006 05:50      14.0   6.0  14.9   8.7  59  1016   ---     S    13    13   ---   0.9 Scattered Clouds/
19/02/2006 06:20      15.0   5.0  15.5   9.3  51  1016   ---     S    14    14   ---   0.7 Scattered Clouds/
19/02/2006 07:50      14.0   4.0  14.5  10.1  51  1016   ---   SSW    10    10   ---   0.7 Few Clouds/
19/02/2006 09:50      17.0   6.0  17.4  14.3  48  1017   ---   WSW     8     8   ---   --- /
19/02/2006 10:50      17.0   6.0  17.4  13.8  48  1017   ---   WSW    10    10   ---   --- /
19/02/2006 10:50      17.0   6.0  17.4  13.8  48  1017   ---   WSW    10    10   ---   --- None reported/None reported
19/02/2006 11:50      17.0   6.0  17.4  13.8  48  1017   ---   WNW    10    10   ---   0.7 Few Clouds/
19/02/2006 12:50      18.0   6.0  18.2  15.5  45  1016   ---   WNW     8     8   ---   0.7 Few Clouds/
19/02/2006 13:50      16.0   9.0  17.2  16.0  63  1016   ---     N     5     5   ---   0.7 Scattered Clouds/
19/02/2006 14:20      16.0   8.0  16.9  14.4  59  1016   ---   NNE     6     6   ---   0.7 Scattered Clouds/
19/02/2006 15:50      16.0  11.0  17.8  11.3  72  1016   ---    NE    13    13   ---   0.7 Scattered Clouds/
19/02/2006 16:20      16.0  11.0  17.8   9.9  72  1016   ---   ENE    16    16   ---   0.7 Scattered Clouds/
19/02/2006 17:50      15.0  10.0  16.8  11.3  72  1015   ---   ENE    10    10   ---   0.8 Scattered Clouds/
19/02/2006 18:20      14.0  10.0  16.1  14.0  77  1015   ---     N     5     5   ---   0.8 Scattered Clouds/
19/02/2006 19:50      14.0   8.0  15.5  14.0  67  1016   ---     N     5     5   ---   0.8 Scattered Clouds/
19/02/2006 20:20      13.0   8.0  14.8  13.0  72  1016   ---     N     3     3   ---   0.8 Few Clouds/
19/02/2006 21:20      12.0   7.0  13.7  12.0  71  1015   ---     N     0     0   ---   0.8 Few Clouds/
19/02/2006 22:50      11.0   7.0  13.1   9.0  76  1016   ---   SSW     6     6   ---   0.8 Few Clouds/
19/02/2006 23:50      12.0   7.0  13.7  12.0  71  1015   ---     N     2     2   ---   --- /
20/02/2006 00:50      12.0   8.0  14.1  12.0  77  1015   ---     N     2     2   ---   --- /
20/02/2006 02:00       0.0   0.0   4.0   0.0 100   ---   ---     N   ---   ---   ---   --- /
20/02/2006 02:50      15.0   4.0  15.3   6.9  48  1014   ---    SW    23    23   ---   --- /
20/02/2006 03:50      15.0   4.0  15.3   6.9  48  1014   ---    SW    23    23   ---   0.7 Few Clouds/
20/02/2006 04:20      16.0   4.0  16.2   8.7  45  1014   ---   SSW    21    42   ---   0.9 Few Clouds/
20/02/2006 05:50      15.0   3.0  15.2   6.1  44  1014   ---    SW    27    27   ---   --- /
20/02/2006 06:20      15.0   4.0  15.3   5.3  48  1013   ---     S    34    34   ---   1.0 Few Clouds/
20/02/2006 07:50      16.0   5.0  16.3   7.6  48  1014   ---    SW    27    47   ---   --- /
20/02/2006 08:50      15.0   8.0  16.2   6.4  63  1015   ---   WSW    26    26   ---   0.7 Scattered Clouds/
20/02/2006 09:20      15.0   8.0  16.2   5.4  63  1015   ---   SSW    32    32   ---   0.7 Scattered Clouds/
20/02/2006 10:50      17.0   9.0  18.0   9.8  59  1015   ---   SSW    23    23   ---   0.7 Scattered Clouds/
20/02/2006 11:50      14.0   9.0  15.8   5.8  72  1016   ---   WNW    21    21   ---   0.7 Broken Clouds/
20/02/2006 12:50      15.0   8.0  16.2  13.3  63  1015   ---     W     6     6   ---   0.7 Broken Clouds/
20/02/2006 13:50      14.0   8.0  15.5  12.3  67  1015   ---     W     6     6   ---   --- / Drizzle
20/02/2006 14:50      15.0  10.0  16.8  13.3  72  1015   ---   WNW     6     6   ---   0.7 Broken Clouds/
20/02/2006 15:50      14.0   9.0  15.8  14.0  72  1014   ---     N     5     5   ---   0.7 Broken Clouds/
20/02/2006 16:20      14.0  10.0  16.1  14.0  77  1014   ---     N     2     2   ---   0.7 Broken Clouds/
20/02/2006 17:50      13.0   9.0  15.1  13.0  77  1014   ---     N     3     3   ---   0.7 Broken Clouds/
20/02/2006 18:50      13.0   8.0  14.8   9.7  72  1014   ---   ENE     8     8   ---   0.7 Broken Clouds/
20/02/2006 19:50      13.0   7.0  14.4   6.6  67  1014   ---   ENE    14    14   ---   0.7 Broken Clouds/
20/02/2006 20:50      13.0   8.0  14.8   8.9  72  1013   ---   ENE    10    10   ---   0.7 Broken Clouds/
20/02/2006 21:20      13.0   7.0  14.4  13.0  67  1013   ---     N     2     2   ---   0.7 Broken Clouds/
20/02/2006 22:50      11.0   5.0  12.4   1.5  66  1014   ---   NNE    21    21   ---   --- Overcast/ Light Rain
20/02/2006 23:50      11.0   5.0  12.4   0.1  66  1014   ---     E    27    27   ---   --- Overcast/ Light Rain
21/02/2006 00:20      11.0   6.0  12.7   3.1  71  1014   ---   ENE    16    16   ---   --- Overcast/ Light Rain
21/02/2006 01:50      12.0   6.0  13.4  12.0  67  1012   ---     N     3     3   ---   --- / Drizzle
21/02/2006 02:50      15.0   8.0  16.2   6.9  63  1011   ---   SSW    23    58   ---   0.7 Broken Clouds/
21/02/2006 03:50      15.0   8.0  16.2   6.9  63  1010   ---   SSW    23    64   ---   0.7 Scattered Clouds/
21/02/2006 04:50      15.0   9.0  16.5   5.9  67  1012   ---   SSW    29    29   ---   0.6 Scattered Clouds/
21/02/2006 05:50      15.0   9.0  16.5   8.2  67  1012   ---     W    18    18   ---   0.6 Scattered Clouds/
21/02/2006 06:20      13.0   8.0  14.8   6.6  72  1012   ---   WSW    14    14   ---   0.6 Scattered Clouds/
21/02/2006 06:20      13.0   8.0  14.8   6.6  72  1012   ---   WSW    14    14   ---   0.6 Scattered Clouds/None reported
21/02/2006 07:50      14.0   8.0  15.5   6.2  67  1013   ---   SSW    19    19   ---   0.6 Scattered Clouds/
21/02/2006 08:50      14.0   8.0  15.5   5.8  67  1014   ---   SSW    21    21   ---   0.6 Scattered Clouds/
21/02/2006 09:50      15.0   8.0  16.2   6.4  63  1014   ---   SSW    26    26   ---   0.6 Scattered Clouds/
21/02/2006 10:20      16.0   8.0  16.9   7.8  59  1014   ---   SSW    26    26   ---   0.6 Few Clouds/
21/02/2006 11:50      17.0   8.0  17.7  10.1  55  1014   ---   WSW    21    21   ---   0.6 Few Clouds/
21/02/2006 12:50      17.0   7.0  17.5  10.4  52  1014   ---     W    19    19   ---   0.6 Scattered Clouds/
21/02/2006 13:50      18.0   2.0  17.7  10.6  34  1014   ---   WSW    27    27   ---   0.8 Scattered Clouds/
21/02/2006 14:20      18.0   3.0  17.8  10.6  37  1014   ---    SW    27    27   ---   0.8 Scattered Clouds/
21/02/2006 15:50      18.0   5.0  18.1  10.8  42  1013   ---    SW    26    26   ---   0.8 Scattered Clouds/
21/02/2006 16:20      18.0   4.0  17.9  11.8  39  1013   ---    SW    19    19   ---   0.8 Scattered Clouds/
21/02/2006 18:00       0.0   0.0   4.0 -13.6 100   ---   ---    SW   ---   ---   ---   --- /
21/02/2006 18:50      16.0   2.0  15.9   8.7  39  1014   ---   SSW    21    21   ---   3.0 Scattered Clouds/
21/02/2006 19:50      15.0   1.0  14.9  10.0  39  1015   ---   SSW    13    13   ---   0.8 Broken Clouds/
21/02/2006 20:50      16.0   2.0  15.9   9.9  39  1015   ---     W    16    16   ---   0.8 Broken Clouds/
21/02/2006 21:20      15.0   2.0  15.0   7.6  41  1016   ---   SSW    19    19   ---   0.8 Broken Clouds/
21/02/2006 22:50      15.0   3.0  15.2  11.3  44  1015   ---     W    10    10   ---   0.8 Broken Clouds/
21/02/2006 23:50      16.0   3.0  16.0  10.6  42  1015   ---   SSW    14    14   ---   0.8 Broken Clouds/
22/02/2006 00:50      16.0   3.0  16.0   9.0  42  1016   ---   SSW    19    19   ---   0.8 Broken Clouds/
22/02/2006 01:50      16.0   5.0  16.3   9.6  48  1016   ---   WSW    18    18   ---   0.8 Broken Clouds/
22/02/2006 02:50      16.0   2.0  15.9   8.4  39  1016   ---   SSW    23    23   ---   0.8 Broken Clouds/
22/02/2006 03:50      15.0   5.0  15.5   8.6  51  1016   ---    SW    16    16   ---   0.8 Broken Clouds/
22/02/2006 04:50      15.0   7.0  15.9   8.2  59  1015   ---    SW    18    18   ---   0.8 Broken Clouds/
22/02/2006 06:00       0.0   0.0   4.0 -12.4 100   ---   ---    SW   ---   ---   ---   --- /
22/02/2006 06:20      14.0   8.0  15.5  10.8  67  1016   ---   WSW     8     8   ---   0.8 Broken Clouds/
22/02/2006 08:00       0.0   0.0   4.0  -5.5 100   ---   ---   WSW   ---   ---   ---   --- /
22/02/2006 08:50      14.0   9.0  15.8   7.2  72  1017   ---     N    16    16   ---   0.4 Broken Clouds/
22/02/2006 10:50      15.0   9.0  16.5   8.2  67  1017   ---   ENE    18    18   ---   0.6 Broken Clouds/
22/02/2006 12:00       0.0   0.0   4.0 -12.4 100   ---   ---   ENE   ---   ---   ---   --- /
22/02/2006 12:50      16.0  10.0  17.5   8.7  68  1016   ---   ENE    21    21   ---   0.6 Scattered Clouds/
22/02/2006 13:50      15.0  10.0  16.8   6.4  72  1016   ---   ENE    26    26   ---   0.6 Scattered Clouds/
22/02/2006 14:20      15.0  10.0  16.8   6.4  72  1015   ---   ENE    26    26   ---   0.6 Broken Clouds/
22/02/2006 15:50      16.0   9.0  17.2   7.2  63  1015   ---   ENE    31    31   ---   0.6 Broken Clouds/
22/02/2006 16:20      16.0   9.0  17.2   7.6  63  1014   ---   ENE    27    27   ---   0.6 Scattered Clouds/
22/02/2006 18:00       0.0   0.0   4.0 -16.4 100   ---   ---   ENE   ---   ---   ---   --- /
22/02/2006 18:20      15.0   9.0  16.5  15.0  67  1013   ---     N     3     3   ---   --- /
22/02/2006 19:50      16.0   6.0  16.5   8.7  51  1013   ---     E    21    47   ---   --- /
22/02/2006 20:50      16.0   5.0  16.3   9.0  48  1012   ---   ENE    19    19   ---   --- /
22/02/2006 21:50      16.0   5.0  16.3   8.4  48  1012   ---   ENE    23    23   ---   0.7 Broken Clouds/
22/02/2006 22:50      14.0   9.0  15.8   4.6  72  1011   ---     E    27    27   ---   --- Overcast/ Rain
22/02/2006 23:50      14.0   9.0  15.8   4.1  72  1011   ---     E    31    31   ---   --- Overcast/ Light Rain
23/02/2006 00:50      14.0   9.0  15.8   4.4  72  1010   ---   ENE    29    29   ---   --- Overcast/ Light Rain
23/02/2006 01:50      14.0   8.0  15.5   4.6  67  1009   ---     E    27    27   ---   --- Overcast/ Light Rain
23/02/2006 02:50      14.0   8.0  15.5   3.2  67  1008   ---     E    40    40   ---   --- Overcast/ Light Rain
23/02/2006 03:50      14.0   8.0  15.5   3.9  67  1006   ---     E    32    32   ---   --- Overcast/ Light Rain
23/02/2006 04:50      14.0   9.0  15.8   3.8  72  1005   ---   ENE    34    34   ---   0.1 Broken Clouds/
23/02/2006 05:50      15.0   9.0  16.5   4.5  67  1004   ---     E    43    43   ---   0.5 Broken Clouds/
23/02/2006 06:20      15.0   9.0  16.5   4.4  67  1003   ---     E    45    45   ---   0.5 Broken Clouds/
23/02/2006 07:50      14.0   8.0  15.5   3.9  67  1003   ---   ENE    32    32   ---   0.3 Broken Clouds/
23/02/2006 08:50      15.0   9.0  16.5   5.9  67  1002   ---     E    29    29   ---   0.4 Broken Clouds/
23/02/2006 09:50      15.0  10.0  16.8   7.6  72  1001   ---     E    19    19   ---   0.4 Broken Clouds/
23/02/2006 10:50      16.0  10.0  17.5   8.4  68  1000   ---    NE    23    23   ---   0.4 Broken Clouds/
23/02/2006 11:50      17.0   9.0  18.0  12.5  59   999   ---     E    13    13   ---   0.4 Broken Clouds/
23/02/2006 12:50      17.0   9.0  18.0  12.5  59   997   ---     E    13    13   ---   0.4 Broken Clouds/
23/02/2006 13:50      18.0   9.0  18.8  12.6  56   996   ---     E    16    16   ---   0.4 Broken Clouds/
23/02/2006 14:50      18.0   8.0  18.6  16.6  52   995   ---     E     6     6   ---   --- Overcast/ Light Rain
23/02/2006 15:50      17.0   9.0  18.0  15.5  59   994   ---    NE     6     6   ---   0.7 Broken Clouds/
23/02/2006 16:20      16.0  10.0  17.5   9.9  68   994   ---     E    16    16   ---   0.7 Broken Clouds/
23/02/2006 17:50      15.0  10.0  16.8   6.4  72   993   ---   ENE    26    26   ---   --- Overcast/ Light Rain
23/02/2006 18:20      15.0   9.0  16.5   6.9  67   994   ---   ENE    23    23   ---   --- Overcast/ Light Rain
23/02/2006 19:50      14.0   8.0  15.5   5.5  67   993   ---    NE    23    23   ---   --- Overcast/ Rain
23/02/2006 20:50      13.0   8.0  14.8   3.1  72   993   ---   ENE    27    27   ---   --- Overcast/ Rain
23/02/2006 21:50      13.0   8.0  14.8   3.1  72   994   ---    NE    27    27   ---   --- Overcast/ Rain
23/02/2006 22:50      14.0   8.0  15.5   4.4  67   993   ---    NE    29    29   ---   --- Overcast/ Rain
23/02/2006 23:50      13.0   8.0  14.8   3.1  72   993   ---    NE    27    27   ---   --- Overcast/ Rain
24/02/2006 00:50      13.0   7.0  14.4   1.8  67   993   ---   NNE    37    37   ---   --- Overcast/ Rain
24/02/2006 01:50      13.0   7.0  14.4   1.6  67   994   ---   NNE    40    40   ---   --- Overcast/ Rain
24/02/2006 02:50      13.0   7.0  14.4   1.2  67   994   ---   NNE    45    45   ---   --- Overcast/ Rain
24/02/2006 03:50       0.0   0.0   4.0 -18.6 100   995   ---   NNE    39    39   ---   --- /
24/02/2006 04:50      13.0   7.0  14.4   2.4  67   996   ---     N    32    32   ---   --- Overcast/ Rain
24/02/2006 05:50      13.0   7.0  14.4   2.4  67   997   ---     N    32    32   ---   --- Overcast/ Light Rain
24/02/2006 06:50      13.0   7.0  14.4   3.4  67   997   ---     N    26    26   ---   --- Overcast/ Light Rain
24/02/2006 07:50      12.0   6.0  13.4   4.5  67   999   ---     N    16    16   ---   --- Overcast/ Light Rain
24/02/2006 08:50      12.0   6.0  13.4  12.0  67  1000   ---     N     5     5   ---   --- Overcast/ Light Rain
24/02/2006 09:50      12.0   6.0  13.4   6.2  67  1000   ---    SW    13    13   ---   --- Overcast/ Light Rain
24/02/2006 10:50      13.0   7.0  14.4   2.6  67  1001   ---   WNW    31    31   ---   --- Overcast/ Light Rain
24/02/2006 11:50      13.0   7.0  14.4   1.5  67  1002   ---   WNW    42    42   ---   --- Overcast/ Rain
24/02/2006 12:50      13.0   7.0  14.4   1.6  67  1003   ---   WNW    40    40   ---   --- Overcast/ Light Rain
24/02/2006 13:50      13.0   7.0  14.4   2.2  67  1003   ---   WNW    34    34   ---   0.4 Broken Clouds/
24/02/2006 14:50      14.0   7.0  15.2   4.1  63  1004   ---   WNW    31    31   ---   0.6 Scattered Clouds/
24/02/2006 15:50      14.0   7.0  15.2   5.8  63  1004   ---     W    21    21   ---   0.7 Scattered Clouds/
24/02/2006 16:50      13.0   7.0  14.4   5.8  67  1004   ---   WSW    16    16   ---   0.7 Broken Clouds/
24/02/2006 17:50      13.0   7.0  14.4   2.9  67  1005   ---     W    29    29   ---   0.7 Scattered Clouds/
24/02/2006 18:20      13.0   7.0  14.4   2.6  67  1005   ---     W    31    31   ---   0.6 Scattered Clouds/
24/02/2006 19:50      13.0   7.0  14.4   5.8  67  1006   ---   WSW    16    16   ---   0.6 Scattered Clouds/
24/02/2006 20:50      13.0   5.0  13.9   7.4  58  1007   ---   SSW    13    13   ---   0.6 Scattered Clouds/
24/02/2006 21:50      12.0   5.0  13.1   4.1  62  1007   ---   SSW    18    18   ---   0.6 Scattered Clouds/
24/02/2006 22:50      12.0   5.0  13.1   3.3  62  1007   ---   SSW    19    19   ---   0.7 Scattered Clouds/
24/02/2006 23:50      12.0   6.0  13.4   3.0  67  1007   ---   SSW    21    21   ---   0.7 Scattered Clouds/
25/02/2006 00:20      12.0   6.0  13.4   3.3  67  1008   ---   SSW    19    19   ---   0.7 Scattered Clouds/
25/02/2006 01:50      12.0   6.0  13.4   4.5  67  1008   ---   SSW    16    16   ---   0.7 Scattered Clouds/
25/02/2006 02:50      12.0   6.0  13.4   3.3  67  1008   ---   SSW    19    19   ---   0.7 Scattered Clouds/
25/02/2006 03:50      12.0   6.0  13.4   3.0  67  1007   ---   SSW    21    21   ---   0.7 Scattered Clouds/
25/02/2006 04:50      12.0   6.0  13.4   3.3  67  1007   ---   SSW    19    19   ---   0.7 Scattered Clouds/
25/02/2006 05:50      12.0   6.0  13.4   3.0  67  1007   ---   SSW    21    21   ---   0.7 Scattered Clouds/
25/02/2006 06:20      11.0   7.0  13.1  -0.1  76  1007   ---     W    29    29   ---   0.7 Scattered Clouds/
25/02/2006 07:50      11.0   6.0  12.7   3.1  71  1008   ---    SW    16    16   ---   --- Overcast/ Light Rain
25/02/2006 08:50      10.0   5.0  11.7   0.1  71  1008   ---   SSW    21    21   ---   --- Overcast/ Light Rain
25/02/2006 09:50      11.0   5.0  12.4   4.9  66  1008   ---     S    13    13   ---   --- Overcast/ Light Rain
25/02/2006 10:50      12.0   6.0  13.4   4.5  67  1009   ---   SSW    16    16   ---   0.6 Broken Clouds/
25/02/2006 11:50      13.0   6.0  14.2   5.5  62  1009   ---   SSW    18    18   ---   0.6 Broken Clouds/
25/02/2006 12:50      12.0   7.0  13.7   7.7  71  1009   ---    SW    10    10   ---   --- Overcast/ Light Rain
25/02/2006 13:50      13.0   5.0  13.9   4.8  58  1008   ---     W    19    19   ---   0.6 Broken Clouds/
25/02/2006 14:50      13.0   6.0  14.2   2.2  62  1008   ---     W    34    34   ---   0.6 Broken Clouds/
25/02/2006 15:50      13.0   7.0  14.4   1.8  67  1009   ---   WNW    39    39   ---   0.6 Broken Clouds/
25/02/2006 16:50      12.0   5.0  13.1   1.1  62  1009   ---     W    31    31   ---   0.6 Scattered Clouds/
25/02/2006 17:50      11.0   4.0  12.1   0.4  62  1009   ---   WNW    26    26   ---   0.6 Scattered Clouds/
25/02/2006 18:20      11.0   5.0  12.4   1.5  66  1009   ---     W    21    21   ---   0.6 Scattered Clouds/
25/02/2006 19:50      10.0   4.0  11.4   1.4  66  1010   ---    SW    18    18   ---   0.6 Scattered Clouds/
25/02/2006 20:50      10.0   5.0  11.7   2.7  71  1011   ---   SSW    14    14   ---   0.6 Scattered Clouds/
25/02/2006 21:50      10.0   4.0  11.4   3.6  66  1011   ---     S    13    13   ---   0.6 Scattered Clouds/
25/02/2006 22:20      10.0   5.0  11.7   2.7  71  1011   ---   SSW    14    14   ---   0.6 Scattered Clouds/
25/02/2006 23:50      11.0   5.0  12.4   1.9  66  1011   ---    SW    19    19   ---   0.6 Scattered Clouds/
26/02/2006 00:50      11.0   5.0  12.4   9.0  66  1012   ---    SW     6     6   ---   0.6 Scattered Clouds/
26/02/2006 01:50      11.0   5.0  12.4   4.9  66  1013   ---   WNW    13    13   ---   0.6 Scattered Clouds/
26/02/2006 03:50      10.0   4.0  11.4   0.5  66  1012   ---   WSW    19    19   ---   --- / Thunderstorm
26/02/2006 04:50      10.0   5.0  11.7   1.8  71  1012   ---    NW    16    16   ---   0.7 Scattered Clouds/
26/02/2006 05:50      10.0   5.0  11.7  -1.4  71  1012   ---    SW    27    27   ---   0.7 Scattered Clouds/
26/02/2006 06:20      10.0   5.0  11.7   1.8  71  1013   ---   SSW    16    16   ---   0.6 Broken Clouds/
26/02/2006 07:50      12.0   4.0  12.9   2.6  58  1014   ---     W    23    23   ---   0.5 Broken Clouds/
26/02/2006 08:50      11.0   5.0  12.4   4.9  66  1015   ---   WSW    13    13   ---   0.5 Broken Clouds/
26/02/2006 09:50      11.0   6.0  12.7   4.0  71  1015   ---    SW    14    14   ---   --- / Drizzle
26/02/2006 09:50      11.0   6.0  12.7   4.0  71  1015   ---    SW    14    14   ---   --- None reported/ Drizzle
26/02/2006 09:50      11.0   6.0  12.7   4.0  71  1015   ---    SW    14    14   ---   --- None reported/ Drizzle
26/02/2006 09:50      11.0   6.0  12.7   4.0  71  1015   ---    SW    14    14   ---   --- None reported/ Drizzle
26/02/2006 10:50      12.0   4.0  12.9   3.3  58  1015   ---     W    19    19   ---   0.5 Broken Clouds/
26/02/2006 10:50      12.0   4.0  12.9   3.3  58  1015   ---     W    19    19   ---   0.5 Broken Clouds/None reported
26/02/2006 10:50      12.0   4.0  12.9   3.3  58  1015   ---     W    19    19   ---   0.5 Broken Clouds/None reported
26/02/2006 10:50      12.0   4.0  12.9   3.3  58  1015   ---     W    19    19   ---   0.5 Broken Clouds/None reported
26/02/2006 10:50      12.0   4.0  12.9   3.3  58  1015   ---     W    19    19   ---   0.5 Broken Clouds/None reported
26/02/2006 10:50      12.0   4.0  12.9   3.3  58  1015   ---     W    19    19   ---   0.5 Broken Clouds/None reported
26/02/2006 10:50      12.0   4.0  12.9   3.3  58  1015   ---     W    19    19   ---   0.5 Broken Clouds/None reported
26/02/2006 12:50      14.0   2.0  14.2   8.7  44  1014   ---   WNW    13    13   ---   0.6 Few Clouds/
26/02/2006 13:50      14.0   1.0  14.0  10.8  41  1013   ---   WNW     8     8   ---   0.6 Few Clouds/
26/02/2006 14:50      14.0   1.0  14.0  12.3  41  1012   ---    NW     6     6   ---   0.6 Few Clouds/
26/02/2006 15:50      14.0   1.0  14.0  10.8  41  1012   ---   WNW     8     8   ---   0.6 Broken Clouds/
26/02/2006 16:20      13.0   1.0  13.1  13.0  44  1012   ---     N     5     5   ---   0.6 Broken Clouds/
26/02/2006 18:00       0.0   0.0   4.0   0.0 100   ---   ---     N   ---   ---   ---   --- /
26/02/2006 18:50      13.0   3.0  13.5   9.7  51  1012   ---   SSW     8     8   ---   0.6 Broken Clouds/
26/02/2006 19:50      12.0   4.0  12.9   4.1  58  1012   ---     S    18    18   ---   0.6 Broken Clouds/
26/02/2006 20:50      13.0   3.0  13.5   4.0  51  1012   ---     S    23    23   ---   0.6 Broken Clouds/
26/02/2006 22:50      13.0   1.0  13.1   4.8  44  1010   ---     S    19    19   ---   0.6 Broken Clouds/
26/02/2006 23:50      13.0   3.0  13.5   5.5  51  1010   ---     S    18    18   ---   0.6 Broken Clouds/
27/02/2006 00:50      13.0   5.0  13.9   2.6  58  1010   ---     S    31    31   ---   0.7 Broken Clouds/
27/02/2006 01:50      13.0   5.0  13.9   3.1  58  1010   ---     S    27    27   ---   0.7 Broken Clouds/
27/02/2006 02:50      13.0   5.0  13.9   4.4  58  1009   ---     S    21    21   ---   0.8 Broken Clouds/
27/02/2006 03:50      13.0   5.0  13.9   3.4  58  1007   ---     S    26    26   ---   0.8 Broken Clouds/
27/02/2006 04:50      14.0   4.0  14.5   4.1  51  1006   ---     S    31    31   ---   0.8 Broken Clouds/
27/02/2006 05:50      14.0   4.0  14.5   4.4  51  1006   ---     S    29    66   ---   0.8 Broken Clouds/
27/02/2006 06:20      14.0   4.0  14.5   4.4  51  1006   ---     S    29    29   ---   0.8 Broken Clouds/
27/02/2006 07:50      14.0   4.0  14.5   4.6  51  1006   ---   SSW    27    50   ---   0.8 Broken Clouds/
27/02/2006 08:50      14.0   5.0  14.7   4.1  55  1006   ---   SSW    31    31   ---   0.8 Broken Clouds/
27/02/2006 09:50      15.0   6.0  15.7   7.3  55  1006   ---   SSW    21    43   ---   0.8 Broken Clouds/
27/02/2006 10:50      14.0   6.0  14.9   4.9  59  1006   ---   SSW    26    26   ---   0.8 Broken Clouds/
27/02/2006 11:50      16.0   6.0  16.5   8.7  51  1005   ---   SSW    21    47   ---   0.8 Broken Clouds/
27/02/2006 12:50      15.0   7.0  15.9   6.9  59  1005   ---   SSW    23    23   ---   0.8 Broken Clouds/
27/02/2006 13:50      14.0   9.0  15.8   8.7  72  1004   ---   WSW    13    13   ---   0.6 Broken Clouds/
27/02/2006 14:50      15.0   9.0  16.5  15.0  67  1002   ---     N     3     3   ---   --- Overcast/ Light Rain
27/02/2006 15:50      13.0   7.0  14.4   8.9  67  1002   ---   NNE    10    10   ---   --- Overcast/ Light Rain
27/02/2006 16:20      13.0   8.0  14.8  13.0  72  1003   ---     N     5     5   ---   0.5 Overcast/
27/02/2006 17:50      11.0   6.0  12.7  11.0  71  1003   ---     N     3     3   ---   --- Overcast/ Rain
27/02/2006 17:50      11.0   6.0  12.7  11.0  71  1003   ---   ---     3     3   ---   --- Overcast/ Rain
27/02/2006 18:50      11.0   6.0  12.7  11.0  71  1003   ---     N     0     0   ---   --- Overcast/ Light Rain
27/02/2006 19:50      11.0   5.0  12.4   9.0  66  1002   ---     N     6     6   ---   0.6 Broken Clouds/
27/02/2006 20:50      11.0   6.0  12.7  11.0  71  1003   ---     N     5     5   ---   0.6 Broken Clouds/
27/02/2006 21:50      10.0   4.0  11.4   1.4  66  1004   ---     S    18    18   ---   0.6 Broken Clouds/
27/02/2006 22:50       9.0   4.0  10.7   5.0  71  1004   ---   SSW     8     8   ---   0.7 Broken Clouds/
27/02/2006 23:50      10.0   4.0  11.4   3.6  66  1004   ---     S    13    13   ---   0.7 Scattered Clouds/
28/02/2006 00:20      10.0   4.0  11.4   6.2  66  1004   ---   SSW     8     8   ---   0.7 Scattered Clouds/
28/02/2006 01:50      10.0   4.0  11.4   2.7  66  1003   ---   SSW    14    14   ---   0.7 Scattered Clouds/
28/02/2006 02:50      11.0   4.0  12.1   2.7  62  1003   ---    SW    18    37   ---   0.6 Scattered Clouds/
28/02/2006 03:50      11.0   4.0  12.1  -0.1  62  1003   ---     W    29    29   ---   0.6 Scattered Clouds/
28/02/2006 04:20      11.0   5.0  12.4  -0.1  66  1004   ---     W    29    29   ---   0.6 Scattered Clouds/
28/02/2006 05:50      12.0   5.0  13.1   0.8  62  1003   ---     W    32    32   ---   0.6 Scattered Clouds/
28/02/2006 06:50      11.0   5.0  12.4  -1.3  66  1004   ---     W    37    37   ---   0.6 Scattered Clouds/
28/02/2006 07:50      12.0   7.0  13.7   0.0  71  1005   ---     W    40    40   ---   0.6 Broken Clouds/
28/02/2006 08:50      12.0   7.0  13.7   0.0  71  1006   ---   NNW    40    40   ---   0.6 Broken Clouds/
28/02/2006 09:50      13.0   6.0  14.2   1.8  62  1007   ---   NNW    37    37   ---   0.6 Broken Clouds/
28/02/2006 10:50      13.0   6.0  14.2   2.4  62  1009   ---    NW    32    32   ---   0.6 Broken Clouds/
28/02/2006 11:50      13.0   6.0  14.2   2.2  62  1010   ---    NW    34    34   ---   0.6 Broken Clouds/
28/02/2006 12:20      14.0   4.0  14.5   4.4  51  1010   ---    NW    29    29   ---   0.6 Scattered Clouds/
28/02/2006 13:50      13.0   6.0  14.2   2.2  62  1010   ---    NW    34    34   ---   0.6 Scattered Clouds/
28/02/2006 14:50      14.0   5.0  14.7   4.4  55  1010   ---   WNW    29    29   ---   0.6 Scattered Clouds/
28/02/2006 15:50      14.0   5.0  14.7   4.9  55  1010   ---     W    26    26   ---   0.7 Scattered Clouds/
28/02/2006 18:00       0.0   0.0   4.0 -15.9 100   ---   ---     W   ---   ---   ---   --- /
28/02/2006 18:20      12.0   3.0  12.7   0.2  54  1012   ---     W    39    39   ---   0.6 Broken Clouds/
28/02/2006 19:50      12.0   3.0  12.7   1.1  54  1013   ---     W    31    31   ---   0.6 Broken Clouds/
28/02/2006 20:50      12.0   3.0  12.7   0.8  54  1014   ---     W    32    32   ---   0.7 Broken Clouds/
28/02/2006 21:20      12.0   3.0  12.7   0.7  54  1013   ---     W    34    34   ---   0.7 Broken Clouds/
28/02/2006 22:20       0.0   0.0   4.0 -17.7 100   ---   ---     W   ---   ---   ---   --- /
28/02/2006 23:50      12.0   3.0  12.7   1.6  54  1014   ---     W    27    27   ---   0.7 Broken Clouds/
01/03/2006 00:20      12.0   4.0  12.9   1.6  58  1014   ---   WSW    27    27   ---   0.7 Broken Clouds/
01/03/2006 01:50      12.0   3.0  12.7   1.4  54  1014   ---     W    29    29   ---   0.7 Broken Clouds/
01/03/2006 02:20      12.0   3.0  12.7   0.8  54  1014   ---     W    32    32   ---   0.7 Broken Clouds/
01/03/2006 03:50      11.0   5.0  12.4   4.0  66  1014   ---   WSW    14    14   ---   0.7 Broken Clouds/
01/03/2006 04:50      11.0   3.0  11.9   4.9  58  1014   ---   SSW    13    13   ---   0.7 Broken Clouds/
01/03/2006 05:50      11.0   4.0  12.1   4.0  62  1015   ---    SW    14    14   ---   0.7 Broken Clouds/
01/03/2006 06:50      11.0   4.0  12.1   2.7  62  1015   ---   SSW    18    18   ---   0.9 Scattered Clouds/
01/03/2006 07:50      12.0   6.0  13.4   3.3  67  1014   ---   SSW    19    19   ---   0.9 Scattered Clouds/
01/03/2006 08:50      13.0   6.0  14.2   4.4  62  1015   ---   SSW    21    21   ---   0.9 Scattered Clouds/
01/03/2006 09:20      13.0   7.0  14.4   4.0  67  1015   ---   SSW    23    23   ---   0.7 Scattered Clouds/
01/03/2006 10:50      15.0   6.0  15.7   7.6  55  1015   ---    SW    19    19   ---   0.7 Broken Clouds/
01/03/2006 11:50      15.0   6.0  15.7   8.6  55  1015   ---   WSW    16    16   ---   0.7 Broken Clouds/
01/03/2006 12:50      15.0   6.0  15.7   7.6  55  1015   ---    SW    19    19   ---   0.6 Broken Clouds/
01/03/2006 13:50      16.0   6.0  16.5   9.0  51  1014   ---   WSW    19    19   ---   0.6 Broken Clouds/
01/03/2006 14:20      16.0   6.0  16.5  10.6  51  1013   ---   WSW    14    14   ---   0.6 Broken Clouds/
01/03/2006 15:20      15.0   8.0  16.2  12.0  63  1013   ---   WNW     8     8   ---   0.6 Broken Clouds/
01/03/2006 16:20      16.0   6.0  16.5  10.6  51  1013   ---    SW    14    14   ---   0.6 Broken Clouds/
01/03/2006 17:50      15.0   8.0  16.2   8.6  63  1012   ---   SSW    16    16   ---   0.6 Broken Clouds/
01/03/2006 18:20      14.0   7.0  15.2  10.1  63  1012   ---   SSW    10    10   ---   0.6 Broken Clouds/
01/03/2006 19:50      14.0   8.0  15.5  14.0  67  1012   ---     N     3     3   ---   0.6 Broken Clouds/
01/03/2006 20:50      14.0   9.0  15.8  10.1  72  1013   ---     E    10    10   ---   0.6 Broken Clouds/
01/03/2006 21:50      14.0   9.0  15.8  14.0  72  1012   ---     N     2     2   ---   0.6 Broken Clouds/
01/03/2006 22:50      13.0   8.0  14.8  13.0  72  1012   ---     N     0     0   ---   0.6 Broken Clouds/
01/03/2006 23:50      13.0   8.0  14.8   9.7  72  1011   ---   SSW     8     8   ---   0.6 Broken Clouds/
02/03/2006 00:50      13.0   7.0  14.4   8.9  67  1010   ---   WSW    10    10   ---   0.6 Broken Clouds/
02/03/2006 01:50      13.0   7.0  14.4   5.5  67  1011   ---   WSW    18    18   ---   0.6 Broken Clouds/
02/03/2006 02:20      13.0   5.0  13.9   8.9  58  1011   ---    SW    10    10   ---   0.6 Broken Clouds/
02/03/2006 03:50      13.0   8.0  14.8  13.0  72  1009   ---     N     5     5   ---   0.7 Broken Clouds/
02/03/2006 04:20      13.0   8.0  14.8   8.9  72  1009   ---   ENE    10    10   ---   0.7 Broken Clouds/
02/03/2006 05:50      13.0   8.0  14.8   7.4  72  1008   ---   ENE    13    13   ---   --- Overcast/ Light Rain
02/03/2006 06:20      12.0   7.0  13.7   6.2  71  1008   ---   ENE    13    13   ---   --- Overcast/ Rain
02/03/2006 07:50      11.0   6.0  12.7  -0.1  71  1009   ---     N    29    29   ---   --- Overcast/ Rain
02/03/2006 08:50      11.0   6.0  12.7   6.5  71  1010   ---    NE    10    10   ---   --- Overcast/ Rain
02/03/2006 09:50      12.0   6.0  13.4  10.1  67  1011   ---     E     6     6   ---   --- Overcast/ Rain
02/03/2006 10:50      12.0   7.0  13.7  12.0  71  1011   ---     N     0     0   ---   0.5 Overcast/
02/03/2006 11:50      13.0   7.0  14.4  13.0  67  1012   ---   ---     5     5   ---   0.5 Overcast/
02/03/2006 12:20      13.0   7.0  14.4   9.7  67  1012   ---   NNW     8     8   ---   0.5 Overcast/
02/03/2006 13:50      13.0   6.0  14.2  13.0  62  1012   ---     N     5     5   ---   0.5 Broken Clouds/
02/03/2006 14:50      14.0   8.0  15.5  10.8  67  1012   ---    NW     8     8   ---   0.6 Scattered Clouds/
02/03/2006 15:50      14.0   6.0  14.9   8.0  59  1013   ---    NW    14    14   ---   0.6 Broken Clouds/
02/03/2006 16:20      14.0   5.0  14.7   6.2  55  1013   ---   NNW    19    19   ---   0.6 Scattered Clouds/
02/03/2006 17:50      13.0   5.0  13.9   4.4  58  1014   ---    NW    21    21   ---   0.6 Broken Clouds/
02/03/2006 18:50      12.0   4.0  12.9   4.1  58  1015   ---   WNW    18    18   ---   0.6 Broken Clouds/
02/03/2006 19:50      12.0   3.0  12.7   2.6  54  1016   ---   WNW    23    23   ---   0.6 Broken Clouds/
02/03/2006 20:50      12.0   3.0  12.7   4.1  54  1016   ---   WNW    18    18   ---   0.6 Broken Clouds/
02/03/2006 21:20      12.0   5.0  13.1   3.0  62  1017   ---     W    21    21   ---   0.6 Broken Clouds/
02/03/2006 22:50      12.0   7.0  13.7   1.4  71  1018   ---   WNW    29    29   ---   0.6 Broken Clouds/
02/03/2006 23:20      12.0   7.0  13.7   1.6  71  1018   ---     W    27    27   ---   0.6 Broken Clouds/
03/03/2006 01:20      12.0   4.0  12.9   1.6  58  1018   ---   WNW    27    27   ---   0.6 Scattered Clouds/
03/03/2006 01:50      12.0   5.0  13.1   1.9  62  1019   ---   WNW    26    26   ---   0.6 Scattered Clouds/
03/03/2006 02:50      12.0   5.0  13.1   3.3  62  1019   ---   WNW    19    19   ---   0.6 Scattered Clouds/
03/03/2006 03:50      12.0   4.0  12.9   1.9  58  1019   ---   WNW    26    26   ---   0.6 Scattered Clouds/
03/03/2006 04:50      11.0   5.0  12.4   2.7  66  1019   ---   WNW    18    18   ---   0.6 Scattered Clouds/
03/03/2006 06:20      11.0   5.0  12.4   4.0  66  1018   ---   WNW    14    14   ---   0.6 Scattered Clouds/
03/03/2006 07:50      11.0   5.0  12.4  11.0  66  1019   ---     N     5     5   ---   0.6 Scattered Clouds/
03/03/2006 08:50      13.0   5.0  13.9   9.7  58  1020   ---   SSW     8     8   ---   0.6 Scattered Clouds/
03/03/2006 09:50      13.0   4.0  13.7   8.9  54  1020   ---    SW    10    10   ---   0.6 Scattered Clouds/
03/03/2006 10:50      14.0   5.0  14.7  10.8  55  1021   ---    SW     8     8   ---   0.8 Few Clouds/
03/03/2006 11:50      15.0   4.0  15.3  12.0  48  1021   ---   WSW     8     8   ---   0.8 Few Clouds/
03/03/2006 13:50      15.0   5.0  15.5  10.0  51  1020   ---   WNW    13    13   ---   0.8 Few Clouds/
03/03/2006 14:50      15.0   6.0  15.7   9.3  55  1019   ---   WNW    14    14   ---   0.8 Few Clouds/
03/03/2006 15:50      15.0   6.0  15.7   9.3  55  1019   ---   WNW    14    14   ---   0.8 Few Clouds/
03/03/2006 16:50      15.0   5.0  15.5   6.4  51  1019   ---   WSW    26    26   ---   0.8 Scattered Clouds/
03/03/2006 17:20      15.0   5.0  15.5   6.4  51  1019   ---     W    26    26   ---   0.8 Scattered Clouds/
03/03/2006 18:20      13.0   6.0  14.2   3.4  62  1019   ---   WSW    26    26   ---   0.7 Scattered Clouds/
03/03/2006 19:20      13.0   6.0  14.2   5.5  62  1019   ---    SW    18    18   ---   0.7 Scattered Clouds/
03/03/2006 20:20      12.0   5.0  13.1   2.6  62  1019   ---   SSW    23    23   ---   0.7 Few Clouds/
03/03/2006 21:20      12.0   5.0  13.1   1.9  62  1019   ---   SSW    26    26   ---   0.7 Few Clouds/
03/03/2006 22:20      13.0   4.0  13.7   3.4  54  1019   ---   SSW    26    26   ---   0.7 Few Clouds/
03/03/2006 23:20      12.0   4.0  12.9   1.1  58  1019   ---   SSW    31    31   ---   0.7 Few Clouds/
04/03/2006 00:20      13.0   3.0  13.5   2.9  51  1019   ---   SSW    29    29   ---   0.7 Few Clouds/
04/03/2006 01:50      13.0   6.0  14.2   3.1  62  1018   ---   SSW    27    27   ---   0.7 Few Clouds/
04/03/2006 02:50      14.0   5.0  14.7   4.4  55  1018   ---   SSW    29    29   ---   0.7 Few Clouds/
04/03/2006 03:50      13.0   7.0  14.4   2.9  67  1017   ---   SSW    29    29   ---   0.7 Few Clouds/
04/03/2006 04:20      13.0   7.0  14.4   2.4  67  1017   ---   SSW    32    32   ---   0.7 Few Clouds/
04/03/2006 06:00       0.0   0.0   4.0 -17.5 100   ---   ---   SSW   ---   ---   ---   --- /
04/03/2006 06:50      14.0   7.0  15.2   3.8  63  1016   ---   SSW    34    34   ---   0.9 Scattered Clouds/
04/03/2006 07:50      13.0   8.0  14.8   2.9  72  1016   ---   SSW    29    29   ---   0.9 Scattered Clouds/
04/03/2006 08:50      14.0   8.0  15.5   4.9  67  1017   ---   SSW    26    26   ---   0.6 Few Clouds/
04/03/2006 08:50      14.0   8.0  15.5   4.9  67  1017   ---   SSW    26    26   ---   0.6 Few Clouds/None reported
04/03/2006 09:50      16.0   8.0  16.9   8.7  59  1018   ---    SW    21    21   ---   0.6 Few Clouds/
04/03/2006 10:50      16.0   9.0  17.2   7.4  63  1017   ---    SW    29    29   ---   0.6 Few Clouds/
04/03/2006 11:50      17.0  10.0  18.2   9.8  63  1018   ---   WSW    23    23   ---   0.6 Scattered Clouds/
04/03/2006 12:50      17.0   8.0  17.7   9.1  55  1017   ---   WSW    27    27   ---   0.7 Scattered Clouds/
04/03/2006 13:50      17.0  10.0  18.2   8.7  63  1016   ---   WSW    31    31   ---   0.7 Scattered Clouds/
04/03/2006 14:50      17.0  10.0  18.2   8.7  63  1016   ---   WSW    31    31   ---   0.7 Scattered Clouds/
04/03/2006 16:00       0.0   0.0   4.0 -17.1 100   ---   ---   WSW   ---   ---   ---   --- /
04/03/2006 17:00       0.0   0.0   4.0 -17.1 100   ---   ---   WSW   ---   ---   ---   --- /
04/03/2006 18:50      14.0   8.0  15.5   3.9  67  1014   ---    SW    32    32   ---   0.7 Few Clouds/
04/03/2006 19:20      14.0   7.0  15.2   4.4  63  1014   ---    SW    29    29   ---   0.7 Few Clouds/
04/03/2006 20:50      14.0   5.0  14.7   2.9  55  1013   ---   SSW    43    43   ---   0.7 Few Clouds/
04/03/2006 21:50      15.0   3.0  15.2   4.9  44  1012   ---   SSW    37    37   ---   0.7 Few Clouds/
04/03/2006 22:50      16.0   2.0  15.9   7.0  39  1013   ---   SSW    32    32   ---   0.7 Few Clouds/
04/03/2006 23:50      16.0   0.0  15.7   6.5  34  1012   ---   SSW    37    37   ---   0.7 Few Clouds/
05/03/2006 00:50      17.0   1.0  16.7   8.4  34  1010   ---   SSW    34    56   ---   0.7 Few Clouds/
05/03/2006 01:50      18.0   1.0  17.6   9.2  32  1010   ---     S    45    79   ---   0.7 Few Clouds/
05/03/2006 02:20      17.0   1.0  16.7   7.3  34  1009   ---   SSW    50    80   ---   0.7 Few Clouds/
05/03/2006 03:50      17.0   2.0  16.8   7.7  36  1009   ---   SSW    43    68   ---   0.7 Few Clouds/
05/03/2006 04:50      17.0   3.0  16.9  10.1  39  1008   ---    SW    21    50   ---   0.7 Few Clouds/
05/03/2006 05:50      17.0   3.0  16.9   8.1  39  1008   ---     S    37    55   ---   0.7 Few Clouds/
05/03/2006 06:50      17.0   3.0  16.9   7.9  39  1007   ---   SSW    40    64   ---   0.7 Few Clouds/
05/03/2006 07:50      17.0   4.0  17.1   7.2  42  1006   ---   SSW    51    77   ---   0.7 Scattered Clouds/
05/03/2006 08:50      18.0   4.0  17.9   9.2  39  1006   ---     S    45    64   ---   0.7 Scattered Clouds/
05/03/2006 09:50      20.0   2.0  19.6  13.1  30  1006   ---    SW    32    32   ---   6.0 Scattered Clouds/
05/03/2006 10:20      19.0   2.0  18.6  11.6  32  1006   ---   SSW    32    63   ---   6.0 Scattered Clouds/
05/03/2006 11:50      21.0   3.0  20.6  14.1  31  1005   ---   SSW    42    64   ---   6.0 Scattered Clouds/
05/03/2006 12:50      21.0   5.0  20.8  14.6  35  1005   ---   SSW    32    32   ---   6.0 Scattered Clouds/
05/03/2006 13:50      20.0   6.0  20.0  13.8  40  1005   ---    SW    26    26   ---   0.9 Few Clouds/
05/03/2006 14:50      20.0   7.0  20.1  14.2  43  1004   ---    SW    23    23   ---   0.9 Few Clouds/
05/03/2006 15:50      19.0   7.0  19.2  11.5  46  1004   ---    SW    34    34   ---   1.0 Broken Clouds/
05/03/2006 16:50      18.0   7.0  18.4  11.3  49  1003   ---   SSW    23    23   ---   1.0 Broken Clouds/
05/03/2006 17:50      18.0   7.0  18.4  10.8  49  1002   ---   SSW    26    26   ---   1.0 Broken Clouds/
05/03/2006 18:50      17.0   8.0  17.7  11.0  55  1002   ---    SW    18    18   ---   0.9 Scattered Clouds/
05/03/2006 19:50      16.0  10.0  17.5  11.3  68  1002   ---     W    13    13   ---   0.9 Scattered Clouds/
05/03/2006 20:20      16.0  10.0  17.5  13.2  68  1003   ---     W     8     8   ---   0.9 Scattered Clouds/
05/03/2006 21:50      14.0   9.0  15.8   2.9  72  1005   ---   WNW    43    43   ---   --- Overcast/ Light Rain
05/03/2006 22:50      12.0   7.0  13.7   3.0  71  1007   ---   WNW    21    21   ---   --- Overcast/ Light Rain
05/03/2006 23:50      12.0   7.0  13.7   4.1  71  1006   ---   WSW    18    18   ---   --- Overcast/ Light Rain
06/03/2006 00:50      12.0   6.0  13.4   8.5  67  1005   ---   SSW     8     8   ---   --- Overcast/ Light Rain
06/03/2006 01:50      12.0   6.0  13.4   4.1  67  1005   ---   SSW    18    18   ---   --- Overcast/ Light Rain
06/03/2006 02:50      12.0   5.0  13.1   1.9  62  1004   ---   SSW    26    26   ---   0.5 Broken Clouds/
06/03/2006 03:50      12.0   6.0  13.4   1.6  67  1003   ---   SSW    27    27   ---   0.5 Broken Clouds/
06/03/2006 04:50      12.0   6.0  13.4   0.8  67  1002   ---    SW    32    32   ---   --- / Drizzle
06/03/2006 05:50      11.0   5.0  12.4  -1.3  66  1002   ---   WSW    37    37   ---   0.5 Broken Clouds/
06/03/2006 06:50      10.0   5.0  11.7  -2.9  71  1003   ---   WSW    39    39   ---   --- Overcast/ Light Rain
06/03/2006 07:50      10.0   5.0  11.7  -2.4  71  1003   ---   WSW    34    63   ---   --- Overcast/ Light Rain
06/03/2006 08:50      10.0   5.0  11.7  -2.9  71  1003   ---   WSW    39    39   ---   --- Overcast/ Light Rain
06/03/2006 09:50      10.0   4.0  11.4  -3.4  66  1003   ---   WSW    43    43   ---   --- Overcast/ Heavy Rain
06/03/2006 10:50      10.0   5.0  11.7  -2.9  71  1002   ---   WSW    39    60   ---   --- Overcast/ Light Rain
06/03/2006 11:50      11.0   5.0  12.4  -1.3  66  1002   ---   WSW    37    37   ---   --- Overcast/ Light Rain
06/03/2006 12:50      11.0   6.0  12.7  -1.6  71  1002   ---     W    42    42   ---   --- Overcast/ Light Rain
06/03/2006 13:50      12.0   7.0  13.7  -0.5  71  1001   ---     W    47    47   ---   --- Overcast/ Light Rain
06/03/2006 14:50      12.0   7.0  13.7  -0.2  71  1001   ---   WNW    43    43   ---   --- Overcast/ Light Rain
06/03/2006 15:50      12.0   7.0  13.7   0.2  71  1002   ---    NW    39    39   ---   0.3 Broken Clouds/
06/03/2006 16:50      12.0   6.0  13.4  -0.1  67  1004   ---    NW    42    42   ---   0.3 Broken Clouds/
06/03/2006 17:50      12.0   6.0  13.4  -0.1  67  1005   ---    NW    42    42   ---   --- / Drizzle
06/03/2006 18:50      12.0   5.0  13.1   0.7  62  1006   ---   NNW    34    34   ---   0.6 Broken Clouds/
06/03/2006 19:50      11.0   4.0  12.1  -1.4  62  1007   ---   NNW    39    39   ---   0.6 Broken Clouds/
06/03/2006 20:50      11.0   3.0  11.9  -1.3  58  1008   ---    NW    37    37   ---   0.6 Broken Clouds/
06/03/2006 21:50      11.0   3.0  11.9  -0.7  58  1008   ---   NNW    32    32   ---   0.6 Broken Clouds/
06/03/2006 22:50      11.0   2.0  11.6  -0.7  54  1008   ---   NNW    32    32   ---   0.6 Broken Clouds/
06/03/2006 23:20      11.0   1.0  11.4  -0.7  50  1008   ---   NNW    32    32   ---   0.6 Broken Clouds/
07/03/2006 00:50      11.0   1.0  11.4  -0.7  50  1008   ---   NNW    32    32   ---   0.6 Broken Clouds/
07/03/2006 01:50      11.0   1.0  11.4  -0.7  50  1008   ---   NNW    32    32   ---   0.6 Broken Clouds/
07/03/2006 02:50      11.0   0.0  11.3  -1.4  47  1009   ---   NNW    39    39   ---   0.6 Broken Clouds/
07/03/2006 03:50      10.0  -2.0  10.1  -2.8  43  1009   ---   NNW    37    37   ---   0.6 Broken Clouds/
07/03/2006 04:50      10.0  -1.0  10.3  -2.8  46  1008   ---   NNW    37    37   ---   0.6 Broken Clouds/
07/03/2006 05:50      10.0  -1.0  10.3  -2.8  46  1008   ---   NNW    37    37   ---   0.6 Broken Clouds/
07/03/2006 06:20      10.0  -2.0  10.1  -3.2  43  1008   ---   NNW    42    42   ---   0.6 Broken Clouds/
07/03/2006 07:50      10.0  -2.0  10.1  -3.2  43  1009   ---   NNW    42    42   ---   0.6 Scattered Clouds/
07/03/2006 08:50      10.0  -1.0  10.3  -3.4  46  1010   ---     N    43    63   ---   0.6 Scattered Clouds/
07/03/2006 09:50      10.0  -2.0  10.1  -3.4  43  1010   ---     N    43    43   ---   0.6 Scattered Clouds/
07/03/2006 10:50      10.0  -3.0  10.0  -3.6  40  1010   ---     N    45    45   ---   0.6 Scattered Clouds/
07/03/2006 11:50      10.0  -1.0  10.3  -3.7  46  1011   ---     N    47    47   ---   0.6 Scattered Clouds/
07/03/2006 11:50      10.0  -1.0  10.3  -3.7  46  1011   ---     N    47    47   ---   0.6 Scattered Clouds/None reported
07/03/2006 12:50      11.0  -3.0  10.8  -2.3  37  1011   ---     N    50    50   ---   0.6 Scattered Clouds/
07/03/2006 13:20      10.0  -3.0  10.0  -3.6  40  1011   ---     N    45    45   ---   0.6 Broken Clouds/
07/03/2006 13:20      10.0  -3.0  10.0  -3.6  40  1011   ---     N    45    45   ---   0.6 Broken Clouds/None reported
07/03/2006 13:20      10.0  -3.0  10.0  -3.6  40  1011   ---     N    45    45   ---   0.6 Broken Clouds/None reported
07/03/2006 13:20      10.0  -3.0  10.0  -3.6  40  1011   ---     N    45    45   ---   0.6 Broken Clouds/None reported
07/03/2006 13:20      10.0  -3.0  10.0  -3.6  40  1011   ---     N    45    45   ---   0.6 Broken Clouds/None reported
07/03/2006 14:50      10.0  -5.0   9.7  -3.6  34  1010   ---     N    45    64   ---   0.6 Broken Clouds/
07/03/2006 15:20      10.0  -3.0  10.0  -3.4  40  1011   ---     N    43    43   ---   0.6 Broken Clouds/
07/03/2006 16:20       8.0   1.0   9.1  -6.3  61  1012   ---   NNE    40    40   ---   0.6 Broken Clouds/
07/03/2006 16:20       8.0   1.0   9.1  -6.3  61  1012   ---   NNE    40    40   ---   0.6 Broken Clouds/None reported
07/03/2006 17:20       8.0   0.0   8.8  -2.7  57  1012   ---   NNE    21    21   ---   0.6 Scattered Clouds/
07/03/2006 18:50       9.0  -1.0   9.4  -4.7  50  1012   ---   NNE    40    58   ---   --- Overcast/ Light Rain
07/03/2006 19:50      10.0  -5.0   9.7  -4.0  34  1013   ---   WSW    56    56   ---   0.6 Scattered Clouds/
07/03/2006 20:50       9.0  -3.0   9.1  -4.7  43  1013   ---   WNW    40    68   ---   --- Overcast/ Light Rain
07/03/2006 22:00       0.0   0.0   4.0 -18.8 100   ---   ---   WNW   ---   ---   ---   --- /
07/03/2006 23:00       0.0   0.0   4.0 -18.8 100   ---   ---   WNW   ---   ---   ---   --- /
07/03/2006 23:50      10.0   0.0  10.4  -4.0  50  1015   ---   NNE    58    77   ---   0.6 Scattered Clouds/
08/03/2006 01:00       0.0   0.0   4.0 -20.1 100   ---   ---   NNE   ---   ---   ---   --- /
08/03/2006 02:00       0.0   0.0   4.0 -20.1 100   ---   ---   NNE   ---   ---   ---   --- /
08/03/2006 02:50      10.0   0.0  10.4  -3.6  50  1016   ---     N    45    45   ---   0.6 Broken Clouds/
08/03/2006 03:20       0.0   0.0   4.0 -19.5 100   ---   ---     N   ---   ---   ---   --- /
08/03/2006 04:20      10.0   0.0  10.4  -3.1  50  1016   ---     N    40    40   ---   0.6 Broken Clouds/
08/03/2006 05:20      10.0   0.0  10.4  -3.1  50  1016   ---   NNW    40    40   ---   0.6 Scattered Clouds/
08/03/2006 06:20      10.0   0.0  10.4  -3.1  50  1017   ---     N    40    40   ---   0.6 Scattered Clouds/
08/03/2006 06:50      10.0   0.0  10.4  -3.1  50  1018   ---    NE    40    40   ---   0.6 Scattered Clouds/
08/03/2006 08:20      10.0   0.0  10.4  -2.2  50  1018   ---     N    32    32   ---   0.6 Scattered Clouds/
08/03/2006 09:20      11.0   0.0  11.3  -0.4  47  1018   ---     N    31    31   ---   0.7 Broken Clouds/
08/03/2006 10:20      11.0   0.0  11.3   0.1  47  1019   ---     N    27    27   ---   0.6 Scattered Clouds/
08/03/2006 11:20      12.0   0.0  12.1   1.6  44  1019   ---     N    27    27   ---   0.6 Scattered Clouds/
08/03/2006 12:20      12.0   0.0  12.1   2.6  44  1019   ---     N    23    23   ---   0.6 Scattered Clouds/
08/03/2006 13:20      12.0   0.0  12.1   3.3  44  1019   ---     N    19    19   ---   0.8 Few Clouds/
08/03/2006 14:20      12.0   0.0  12.1   6.2  44  1019   ---     N    13    13   ---   0.8 Few Clouds/
08/03/2006 15:20      12.0   0.0  12.1   5.3  44  1019   ---     N    14    14   ---   0.8 Few Clouds/
08/03/2006 16:20      12.0   0.0  12.1   7.7  44  1019   ---     N    10    10   ---   0.8 Few Clouds/
08/03/2006 17:50      11.0   0.0  11.3  11.0  47  1019   ---     N     5     5   ---   0.8 Few Clouds/
08/03/2006 18:50      10.0  -4.0   9.8  10.0  37  1019   ---     N     5     5   ---   --- /
08/03/2006 20:50       8.0  -1.0   8.6   8.0  53  1019   ---     N     5     5   ---   --- /
08/03/2006 21:50       8.0   0.0   8.8   3.8  57  1019   ---   SSE     8     8   ---   --- /
08/03/2006 22:50       8.0   0.0   8.8   2.9  57  1019   ---     S    10    10   ---   --- /
08/03/2006 23:50       8.0   1.0   9.1   3.8  61  1019   ---     S     8     8   ---   0.7 Scattered Clouds/
09/03/2006 00:50       9.0   0.0   9.6   6.8  53  1018   ---     S     6     6   ---   0.7 Scattered Clouds/
09/03/2006 01:50      10.0   1.0  10.6   1.4  54  1018   ---   SSW    18    18   ---   0.7 Scattered Clouds/
09/03/2006 02:50      11.0   2.0  11.6   3.1  54  1019   ---   SSW    16    16   ---   0.7 Scattered Clouds/
09/03/2006 03:50      12.0   5.0  13.1   6.2  62  1018   ---   SSW    13    13   ---   0.7 Scattered Clouds/
09/03/2006 04:20      12.0   5.0  13.1   2.6  62  1017   ---    SW    23    23   ---   0.7 Scattered Clouds/
09/03/2006 05:50      12.0   6.0  13.4   3.0  67  1018   ---   SSW    21    21   ---   0.7 Scattered Clouds/
09/03/2006 06:50      12.0   7.0  13.7   2.6  71  1017   ---     S    23    23   ---   0.6 Broken Clouds/
09/03/2006 07:50      13.0   7.0  14.4   3.4  67  1017   ---   SSW    26    26   ---   0.8 Broken Clouds/
09/03/2006 08:50      14.0   8.0  15.5   4.6  67  1017   ---   SSW    27    27   ---   0.8 Scattered Clouds/
09/03/2006 09:50      16.0   7.0  16.7   7.4  55  1017   ---   SSW    29    29   ---   0.8 Broken Clouds/
09/03/2006 10:50      17.0   7.0  17.5   8.4  52  1017   ---   SSW    34    34   ---   1.0 Scattered Clouds/
09/03/2006 11:50      17.0   7.0  17.5   8.1  52  1017   ---   SSW    37    37   ---   0.9 Few Clouds/
09/03/2006 12:50      19.0   9.0  19.6  11.9  52  1016   ---    SW    29    29   ---   0.7 Few Clouds/
09/03/2006 13:50      18.0  10.0  19.0   9.9  60  1016   ---   WSW    34    34   ---   0.7 Few Clouds/
09/03/2006 14:50      18.0  10.0  19.0   9.6  60  1015   ---   WSW    37    37   ---   0.7 Few Clouds/
09/03/2006 15:20      18.0   9.0  18.8   9.9  56  1016   ---   WSW    34    34   ---   0.7 Few Clouds/
09/03/2006 16:50      17.0   9.0  18.0   8.7  59  1016   ---    SW    31    31   ---   0.7 Few Clouds/
09/03/2006 17:50      17.0   8.0  17.7   8.7  55  1016   ---    SW    31    31   ---   0.7 Few Clouds/
09/03/2006 18:20      17.0   8.0  17.7   9.8  55  1016   ---    SW    23    23   ---   0.7 Few Clouds/
09/03/2006 19:50      16.0   8.0  16.9   7.2  59  1016   ---   SSW    31    31   ---   0.7 Few Clouds/
09/03/2006 20:50      16.0   8.0  16.9   6.9  59  1016   ---   SSW    34    34   ---   0.7 Few Clouds/
09/03/2006 21:50      16.0   8.0  16.9   7.0  59  1016   ---   SSW    32    32   ---   0.9 Few Clouds/
09/03/2006 22:20      16.0   8.0  16.9   7.2  59  1016   ---   SSW    31    31   ---   0.9 Few Clouds/
09/03/2006 23:50      16.0   7.0  16.7   7.2  55  1016   ---   SSW    31    31   ---   0.8 Few Clouds/
10/03/2006 00:20      16.0   8.0  16.9   7.4  59  1015   ---   SSW    29    29   ---   0.8 Few Clouds/
10/03/2006 01:50      16.0   8.0  16.9   7.4  59  1015   ---   SSW    29    29   ---   0.8 Few Clouds/
10/03/2006 02:50      15.0   8.0  16.2   5.3  63  1015   ---   SSW    34    34   ---   0.7 Few Clouds/
10/03/2006 03:50      15.0   9.0  16.5   4.9  67  1014   ---   SSW    39    39   ---   0.7 Few Clouds/
10/03/2006 04:50      15.0  10.0  16.8   5.3  72  1014   ---   SSW    34    34   ---   0.7 Few Clouds/
10/03/2006 05:50      15.0  10.0  16.8   5.4  72  1014   ---   SSW    32    32   ---   0.7 Broken Clouds/
10/03/2006 06:50      15.0   9.0  16.5   5.6  67  1014   ---   SSW    31    31   ---   0.6 Broken Clouds/
10/03/2006 07:50      15.0   9.0  16.5   5.6  67  1014   ---   SSW    31    31   ---   0.6 Broken Clouds/
10/03/2006 08:50      16.0   9.0  17.2   7.0  63  1014   ---    SW    32    32   ---   0.6 Scattered Clouds/
10/03/2006 09:50      16.0  11.0  17.8   7.4  72  1015   ---    SW    29    29   ---   0.7 Few Clouds/
10/03/2006 10:20      16.0  10.0  17.5   6.9  68  1014   ---    SW    34    34   ---   0.6 Scattered Clouds/
10/03/2006 11:50      17.0  10.0  18.2  11.0  63  1015   ---    SW    18    18   ---   0.7 Scattered Clouds/
10/03/2006 12:50      18.0  11.0  19.2   9.4  64  1014   ---   WSW    40    40   ---   0.7 Scattered Clouds/
10/03/2006 13:50      18.0  12.0  19.5   9.6  68  1013   ---   WSW    39    39   ---   0.7 Scattered Clouds/
10/03/2006 14:20      17.0  12.0  18.8   8.5  72  1013   ---     W    32    32   ---   0.7 Broken Clouds/
10/03/2006 15:50      16.0  10.0  17.5   9.0  68  1013   ---   WSW    19    19   ---   0.7 Broken Clouds/
10/03/2006 16:50      15.0   8.0  16.2   5.6  63  1014   ---     W    31    31   ---   0.7 Broken Clouds/
10/03/2006 17:50      14.0   9.0  15.8   4.9  72  1014   ---     W    26    26   ---   0.7 Broken Clouds/
10/03/2006 18:50      14.0   8.0  15.5   4.6  67  1014   ---     W    27    27   ---   --- Overcast/ Light Rain
10/03/2006 19:50      13.0   8.0  14.8   3.4  72  1015   ---     W    26    26   ---   --- Overcast/ Light Rain
10/03/2006 20:50      13.0   8.0  14.8   4.8  72  1015   ---     W    19    19   ---   0.7 Scattered Clouds/
10/03/2006 21:50      13.0   7.0  14.4   4.8  67  1015   ---     W    19    19   ---   0.7 Scattered Clouds/
10/03/2006 22:50      13.0   7.0  14.4   3.4  67  1014   ---   WNW    26    26   ---   0.7 Scattered Clouds/
10/03/2006 23:50      13.0   6.0  14.2   2.2  62  1015   ---   WNW    34    34   ---   0.7 Broken Clouds/
11/03/2006 00:50      13.0   6.0  14.2   2.9  62  1014   ---   WNW    29    29   ---   0.7 Broken Clouds/
11/03/2006 01:50      13.0   6.0  14.2   3.1  62  1014   ---   WNW    27    27   ---   0.7 Few Clouds/
11/03/2006 02:50      13.0   7.0  14.4   3.1  67  1013   ---     W    27    27   ---   0.7 Few Clouds/
11/03/2006 03:50      13.0   7.0  14.4   2.4  67  1012   ---     W    32    32   ---   0.7 Scattered Clouds/
11/03/2006 04:50      12.0   5.0  13.1   4.1  62  1010   ---    SW    18    18   ---   0.7 Scattered Clouds/
11/03/2006 05:50      12.0   5.0  13.1   2.6  62  1009   ---   SSW    23    23   ---   0.7 Scattered Clouds/
11/03/2006 06:50      12.0   6.0  13.4   1.9  67  1009   ---   WSW    26    26   ---   0.7 Broken Clouds/
11/03/2006 07:50      12.0   6.0  13.4   1.6  67  1009   ---    SW    27    27   ---   0.7 Broken Clouds/
11/03/2006 08:50      13.0   5.0  13.9   2.6  58  1008   ---   SSW    31    31   ---   0.7 Broken Clouds/
11/03/2006 09:50      14.0   6.0  14.9   3.9  59  1006   ---    SW    32    32   ---   0.7 Broken Clouds/
11/03/2006 10:20      13.0   8.0  14.8   1.8  72  1006   ---   WSW    37    37   ---   --- Overcast/ Light Rain
11/03/2006 11:50      13.0   4.0  13.7   1.4  54  1004   ---    SW    43    64   ---   0.7 Broken Clouds/
11/03/2006 12:50      12.0   5.0  13.1  -0.5  62  1002   ---   SSW    47    69   ---   --- Overcast/ Light Rain
11/03/2006 13:50      11.0   7.0  13.1  -2.0  76  1000   ---   SSW    45    68   ---   --- Overcast/ Light Rain
11/03/2006 14:50      11.0   7.0  13.1  -1.5  76   999   ---   SSW    40    66   ---   --- Overcast/ Rain
11/03/2006 15:50      13.0   7.0  14.4   1.4  67   999   ---     W    43    43   ---   --- Overcast/ Rain
11/03/2006 16:50      12.0   7.0  13.7   1.9  71   999   ---     W    26    26   ---   0.4 Scattered Clouds/
11/03/2006 17:50      10.0   4.0  11.4  -3.1  66  1000   ---     W    40    58   ---   --- Overcast/ Rain
11/03/2006 18:50      11.0   5.0  12.4  -1.6  66  1000   ---   WNW    42    63   ---   --- Overcast/ Rain
11/03/2006 19:50      11.0   4.0  12.1  -2.0  62  1001   ---    NW    45    64   ---   --- Overcast/ Light Rain
11/03/2006 20:50      10.0   5.0  11.7  -3.2  71  1001   ---    NW    42    42   ---   --- Overcast/ Light Rain
11/03/2006 21:50       9.0   4.0  10.7  -3.1  71  1002   ---   NNW    29    58   ---   --- Overcast/ Light Rain
11/03/2006 22:50      12.0   6.0  13.4  -0.1  67  1000   ---    NW    42    42   ---   0.6 Broken Clouds/
11/03/2006 23:50      11.0   4.0  12.1  -2.1  62  1001   ---    NW    47    68   ---   --- Overcast/ Light Rain
12/03/2006 00:50      12.0   2.0  12.5  -0.8  50  1002   ---   NNW    55    55   ---   0.7 Scattered Clouds/
12/03/2006 01:50      10.0   4.0  11.4  -4.0  66  1002   ---     N    60    82   ---   --- Overcast/ Light Rain
12/03/2006 02:50      12.0   2.0  12.5  -0.4  50  1002   ---   NNW    45    45   ---   0.6 Broken Clouds/
12/03/2006 03:50      12.0   1.0  12.3  -0.7  47  1002   ---   NNW    50    68   ---   0.7 Scattered Clouds/
12/03/2006 04:50      12.0   1.0  12.3  -0.4  47  1003   ---   NNW    45    45   ---   0.7 Scattered Clouds/
12/03/2006 05:50      12.0   2.0  12.5  -0.2  50  1003   ---   NNW    43    43   ---   0.7 Scattered Clouds/
12/03/2006 06:50      12.0   1.0  12.3  -0.8  47  1003   ---   NNW    51    51   ---   0.7 Broken Clouds/
12/03/2006 07:50      13.0   0.0  13.0   1.2  41  1003   ---   NNW    45    66   ---   0.6 Scattered Clouds/
12/03/2006 08:50      13.0   3.0  13.5   0.9  51  1003   ---   NNW    50    50   ---   0.6 Broken Clouds/
12/03/2006 09:50      14.0   4.0  14.5   3.2  51  1004   ---   NNW    40    63   ---   0.6 Broken Clouds/
12/03/2006 10:50      14.0   4.0  14.5   3.2  51  1004   ---    NW    40    40   ---   0.6 Scattered Clouds/
12/03/2006 11:50      13.0   3.0  13.5   1.6  51  1004   ---    NW    40    40   ---   0.8 Scattered Clouds/
12/03/2006 12:50      12.0   4.0  12.9   1.1  58  1004   ---   WNW    31    31   ---   0.8 Broken Clouds/
12/03/2006 13:50      12.0   4.0  12.9   0.2  58  1003   ---    NW    39    39   ---   0.7 Broken Clouds/
12/03/2006 14:50      12.0   4.0  12.9   2.6  58  1003   ---   WNW    23    23   ---   0.7 Broken Clouds/
12/03/2006 15:50      12.0   6.0  13.4   1.6  67  1002   ---    NW    27    27   ---   0.7 Broken Clouds/
12/03/2006 16:50      12.0   5.0  13.1   2.6  62  1001   ---   WNW    23    23   ---   0.7 Broken Clouds/
12/03/2006 17:50      11.0   3.0  11.9   0.4  58  1001   ---   WNW    26    26   ---   0.7 Broken Clouds/
12/03/2006 18:50      10.0   3.0  11.1  -3.6  62  1001   ---    NW    45    45   ---   --- Overcast/ Rain
12/03/2006 19:50      11.0   4.0  12.1  -0.7  62  1002   ---   NNW    32    32   ---   0.6 Broken Clouds/
12/03/2006 20:50      11.0   4.0  12.1  -1.3  62  1002   ---    NW    37    37   ---   0.6 Broken Clouds/
12/03/2006 21:50      11.0   2.0  11.6  -0.4  54  1002   ---   NNW    31    31   ---   0.6 Scattered Clouds/
12/03/2006 22:20      12.0   4.0  12.9   0.7  58  1003   ---   NNW    34    34   ---   0.6 Scattered Clouds/
12/03/2006 23:50      12.0  -1.0  12.0   0.3  41  1002   ---   NNW    37    37   ---   0.6 Broken Clouds/
13/03/2006 00:50      11.0  -2.0  11.0  -1.5  40  1002   ---   NNW    40    40   ---   0.6 Broken Clouds/
13/03/2006 01:50      10.0   4.0  11.4  -3.1  66  1002   ---   NNW    40    40   ---   0.6 Broken Clouds/
13/03/2006 02:20       9.0   4.0  10.7  -3.8  71  1002   ---    NW    32    32   ---   0.6 Broken Clouds/
13/03/2006 03:50      10.0   4.0  11.4  -1.1  66  1001   ---    NW    26    26   ---   0.6 Broken Clouds/
13/03/2006 04:50      10.0   2.0  10.9  -2.9  58  1001   ---     N    39    39   ---   0.6 Scattered Clouds/
13/03/2006 05:50      10.0   3.0  11.1  -3.2  62  1002   ---   NNW    42    42   ---   0.6 Broken Clouds/
13/03/2006 06:50      10.0   2.0  10.9  -1.4  58  1003   ---     N    27    27   ---   0.6 Broken Clouds/
13/03/2006 07:50      10.0   5.0  11.7  -3.1  71  1004   ---     N    40    40   ---   0.6 Broken Clouds/
13/03/2006 08:50       9.0   4.0  10.7  -4.8  71  1005   ---     N    42    42   ---   0.6 Broken Clouds/
13/03/2006 10:00       0.0   0.0   4.0 -18.9 100   ---   ---     N   ---   ---   ---   --- /
13/03/2006 10:50       8.0   3.0   9.7   8.0  71  1007   ---     N     3     3   ---   --- Overcast/ Light Rain
13/03/2006 11:20      10.0   4.0  11.4   0.5  66  1007   ---   NNE    19    19   ---   0.6 Broken Clouds/
13/03/2006 12:50      10.0   3.0  11.1  -2.2  62  1007   ---     N    32    32   ---   --- Overcast/ Light Rain
13/03/2006 13:50      11.0   3.0  11.9  -1.3  58  1007   ---     N    37    37   ---   0.5 Broken Clouds/
13/03/2006 14:50      11.0   3.0  11.9  -1.5  58  1008   ---   WNW    40    40   ---   0.6 Broken Clouds/
13/03/2006 15:50      11.0   3.0  11.9  -0.7  58  1008   ---     N    32    32   ---   0.6 Broken Clouds/
13/03/2006 16:50      11.0   2.0  11.6  -0.1  54  1009   ---   NNW    29    29   ---   0.6 Broken Clouds/
13/03/2006 17:50      11.0   3.0  11.9  -0.1  58  1009   ---     N    29    29   ---   0.6 Broken Clouds/
13/03/2006 18:50      10.0   4.0  11.4  -1.6  66  1010   ---   NNW    29    29   ---   0.6 Broken Clouds/
13/03/2006 19:50      10.0   4.0  11.4  -0.3  66  1011   ---     N    23    23   ---   --- Overcast/ Light Rain
13/03/2006 20:50       9.0   4.0  10.7   9.0  71  1011   ---     N     5     5   ---   --- Overcast/ Light Rain
13/03/2006 21:50       9.0   4.0  10.7   9.0  71  1012   ---     N     3     3   ---   0.6 Broken Clouds/
13/03/2006 22:50       9.0   4.0  10.7   9.0  71  1012   ---     N     5     5   ---   0.6 Broken Clouds/
14/03/2006 00:00       0.0   0.0   4.0   0.0 100   ---   ---     N   ---   ---   ---   --- /
14/03/2006 01:00       0.0   0.0   4.0   0.0 100   ---   ---     N   ---   ---   ---   --- /
14/03/2006 02:00       0.0   0.0   4.0   0.0 100   ---   ---     N   ---   ---   ---   --- /
14/03/2006 02:50      11.0   4.0  12.1   1.9  62  1013   ---   NNW    19    19   ---   0.6 Broken Clouds/
14/03/2006 03:50      11.0   2.0  11.6  -0.1  54  1013   ---   NNW    29    29   ---   0.6 Broken Clouds/
14/03/2006 04:20      11.0   2.0  11.6  -0.1  54  1014   ---   NNW    29    29   ---   0.6 Broken Clouds/
14/03/2006 05:50      10.0   2.0  10.9  -1.1  58  1014   ---    NW    26    26   ---   0.6 Broken Clouds/
14/03/2006 06:50      11.0   2.0  11.6   0.1  54  1015   ---   NNW    27    27   ---   0.6 Scattered Clouds/
14/03/2006 07:50      11.0   3.0  11.9  -0.1  58  1015   ---   NNW    29    29   ---   1.0 Scattered Clouds/
14/03/2006 08:50      11.0   2.0  11.6   1.5  54  1016   ---   NNW    21    21   ---   0.7 Scattered Clouds/
14/03/2006 09:50      11.0   3.0  11.9   1.1  58  1016   ---   NNW    23    23   ---   0.7 Scattered Clouds/
14/03/2006 10:50      12.0   2.0  12.5   4.1  50  1016   ---   NNW    18    18   ---   0.7 Scattered Clouds/
14/03/2006 11:50       0.0   0.0   4.0 -10.5 100     0   ---    NW    14    14   ---   0.7 Broken Clouds/
14/03/2006 12:50      13.0   3.0  13.5   4.4  51  1017   ---   NNW    21    21   ---   0.7 Scattered Clouds/
14/03/2006 13:50      13.0   3.0  13.5   5.5  51  1017   ---    NW    18    18   ---   0.7 Broken Clouds/
14/03/2006 14:50      13.0   3.0  13.5   4.0  51  1017   ---    NW    23    23   ---   0.7 Broken Clouds/
14/03/2006 15:50      12.0   2.0  12.5   4.1  50  1017   ---    NW    18    18   ---   0.7 Broken Clouds/
14/03/2006 16:20       0.0   0.0   4.0 -12.4 100   ---   ---    NW   ---   ---   ---   --- /
14/03/2006 17:50      12.0   2.0  12.5   4.5  50  1017   ---    NW    16    16   ---   0.7 Broken Clouds/
14/03/2006 18:50      12.0   3.0  12.7   4.1  54  1018   ---   NNW    18    18   ---   0.7 Broken Clouds/
14/03/2006 19:50      12.0   5.0  13.1   4.1  62  1017   ---    NW    18    18   ---   0.7 Broken Clouds/
14/03/2006 20:50      12.0   5.0  13.1   4.1  62  1018   ---    NW    18    18   ---   0.7 Scattered Clouds/
14/03/2006 21:50      12.0   3.0  12.7   2.6  54  1018   ---    NW    23    23   ---   0.7 Scattered Clouds/
14/03/2006 22:50      12.0   3.0  12.7   4.1  54  1018   ---   WNW    18    18   ---   0.7 Scattered Clouds/
14/03/2006 23:50      12.0   3.0  12.7   4.1  54  1018   ---    NW    18    18   ---   0.7 Scattered Clouds/
15/03/2006 00:50      12.0   3.0  12.7   4.5  54  1018   ---   WNW    16    16   ---   0.7 Scattered Clouds/
15/03/2006 01:50      11.0   3.0  11.9   3.1  58  1019   ---   WNW    16    16   ---   0.7 Scattered Clouds/
15/03/2006 02:50      11.0   4.0  12.1   6.5  62  1018   ---   SSW    10    10   ---   0.7 Scattered Clouds/
15/03/2006 03:50      11.0   3.0  11.9   7.3  58  1018   ---     S     8     8   ---   0.7 Scattered Clouds/
15/03/2006 04:50      11.0   3.0  11.9   7.3  58  1018   ---     S     8     8   ---   0.7 Scattered Clouds/
15/03/2006 05:50      10.0   3.0  11.1   5.3  62  1018   ---     S    10    10   ---   0.7 Broken Clouds/
15/03/2006 06:50      11.0   3.0  11.9   6.5  58  1018   ---     S    10    10   ---   0.8 Broken Clouds/
15/03/2006 07:50      12.0   3.0  12.7  10.1  54  1018   ---     S     6     6   ---   0.9 Broken Clouds/
15/03/2006 08:50      12.0   5.0  13.1   6.2  62  1019   ---    SW    13    13   ---   0.9 Broken Clouds/
15/03/2006 09:50      13.0   2.0  13.3   7.4  47  1019   ---    SW    13    13   ---   0.9 Broken Clouds/
15/03/2006 10:20      13.0   2.0  13.3   7.4  47  1019   ---   WSW    13    13   ---   0.7 Scattered Clouds/
15/03/2006 11:20      14.0   3.0  14.3  10.8  47  1019   ---     W     8     8   ---   0.7 Scattered Clouds/
15/03/2006 12:20      14.0   4.0  14.5  12.3  51  1019   ---   WSW     6     6   ---   0.7 Scattered Clouds/
15/03/2006 13:20      14.0   3.0  14.3  12.3  47  1019   ---     W     6     6   ---   0.7 Scattered Clouds/
15/03/2006 14:20      16.0   2.0  15.9  14.4  39  1018   ---     W     6     6   ---   0.7 Scattered Clouds/
15/03/2006 15:20      14.0   4.0  14.5   8.7  51  1018   ---    NW    13    13   ---   0.7 Scattered Clouds/
15/03/2006 16:20      13.0   4.0  13.7   6.6  54  1018   ---   WNW    14    14   ---   0.7 Scattered Clouds/
15/03/2006 17:50      13.0   5.0  13.9   9.7  58  1018   ---   WNW     8     8   ---   0.9 Scattered Clouds/
15/03/2006 18:50      12.0   6.0  13.4  12.0  67  1018   ---     N     2     2   ---   0.9 Scattered Clouds/
15/03/2006 19:50      11.0   5.0  12.4  11.0  66  1019   ---     N     2     2   ---   0.9 Scattered Clouds/
15/03/2006 20:50      11.0   5.0  12.4  11.0  66  1019   ---     N     2     2   ---   0.9 Scattered Clouds/
15/03/2006 21:50      10.0   5.0  11.7   7.9  71  1019   ---   SSE     6     6   ---   0.9 Scattered Clouds/
15/03/2006 22:20      10.0   4.0  11.4   6.2  66  1018   ---   SSE     8     8   ---   0.9 Scattered Clouds/
16/03/2006 00:00       0.0   0.0   4.0  -5.5 100   ---   ---   SSE   ---   ---   ---   --- /
16/03/2006 00:20       0.0   0.0   4.0  -5.5 100   ---   ---   SSE   ---   ---   ---   --- /
16/03/2006 01:20       0.0   0.0   4.0  -5.5 100   ---   ---   SSE   ---   ---   ---   --- /
16/03/2006 02:20       0.0   0.0   4.0  -5.5 100   ---   ---   SSE   ---   ---   ---   --- /
16/03/2006 02:50      11.0   4.0  12.1   7.3  62  1019   ---     S     8     8   ---   0.9 Broken Clouds/
16/03/2006 05:50      11.0   4.0  12.1   6.5  62  1017   ---     S    10    10   ---   0.8 Scattered Clouds/
16/03/2006 05:50      11.0   4.0  12.1   6.5  62  1017   ---     S    10    10   ---   0.8 Scattered Clouds/None reported
16/03/2006 07:20      12.0   4.0  12.9   7.7  58  1017   ---     S    10    10   ---   0.8 Few Clouds/
16/03/2006 08:50      14.0   4.0  14.5  12.3  51  1017   ---   ENE     6     6   ---   0.8 Few Clouds/
16/03/2006 09:50      14.0   3.0  14.3  12.3  47  1017   ---   ENE     6     6   ---   0.8 Few Clouds/
16/03/2006 10:50      15.0   4.0  15.3  10.0  48  1017   ---    NE    13    13   ---   0.8 Few Clouds/
16/03/2006 11:50      15.0   4.0  15.3   8.6  48  1017   ---    NE    16    16   ---   0.8 Few Clouds/
16/03/2006 12:50      16.0   5.0  16.3  10.6  48  1016   ---   ENE    14    14   ---   0.8 Few Clouds/
16/03/2006 13:50      16.0   8.0  16.9   9.6  59  1015   ---   ENE    18    18   ---   0.8 Few Clouds/
16/03/2006 14:50      16.0   7.0  16.7  13.2  55  1015   ---   NNE     8     8   ---   6.0 Scattered Clouds/
16/03/2006 15:50      16.0   8.0  16.9  10.6  59  1014   ---    NE    14    14   ---   6.0 Scattered Clouds/
16/03/2006 16:50      16.0   7.0  16.7  14.4  55  1014   ---    NE     6     6   ---   --- /
16/03/2006 17:50      15.0   8.0  16.2  12.0  63  1014   ---   ENE     8     8   ---   --- /
16/03/2006 18:50      14.0   9.0  15.8  10.8  72  1014   ---   ENE     8     8   ---   --- /
16/03/2006 19:50      13.0   8.0  14.8   9.7  72  1014   ---     E     8     8   ---   --- /
16/03/2006 20:50      12.0   7.0  13.7  12.0  71  1015   ---     N     0     0   ---   --- /
16/03/2006 22:00       0.0   0.0   4.0   0.0 100   ---   ---     N   ---   ---   ---   --- /
16/03/2006 23:00       0.0   0.0   4.0   0.0 100   ---   ---     N   ---   ---   ---   --- /
17/03/2006 00:00       0.0   0.0   4.0   0.0 100   ---   ---     N   ---   ---   ---   --- /
17/03/2006 00:50      12.0   7.0  13.7  10.1  71  1015   ---     E     6     6   ---   --- /
17/03/2006 01:50      10.0   4.0  11.4  10.0  66  1015   ---     N     2     2   ---   --- /
17/03/2006 02:50      11.0   3.0  11.9  11.0  58  1015   ---     N     5     5   ---   0.8 Few Clouds/
17/03/2006 03:50       9.0   3.0  10.4   9.0  66  1014   ---     N     5     5   ---   --- /
17/03/2006 04:50      10.0   4.0  11.4  10.0  66  1014   ---     N     2     2   ---   --- /
17/03/2006 05:50       9.0   3.0  10.4   9.0  66  1014   ---     N     3     3   ---   --- /
17/03/2006 06:50      10.0   4.0  11.4  10.0  66  1014   ---     N     0     0   ---   --- /
17/03/2006 07:50      11.0   6.0  12.7  11.0  71  1014   ---   ---     0     0   ---   --- /
17/03/2006 08:50      13.0   6.0  14.2  13.0  62  1015   ---   ---     2     2   ---   --- /
17/03/2006 09:50      14.0   5.0  14.7  14.0  55  1015   ---     N     3     3   ---   --- /
17/03/2006 10:50      15.0   7.0  15.9  12.0  59  1015   ---   NNE     8     8   ---   --- /
17/03/2006 11:50      16.0   7.0  16.7  11.3  55  1015   ---   NNE    13    13   ---   --- /
17/03/2006 12:50      16.0   7.0  16.7  10.6  55  1015   ---   NNE    14    14   ---   --- /
17/03/2006 13:50      16.0   8.0  16.9   9.6  59  1014   ---   NNE    18    18   ---   --- /
17/03/2006 14:50      16.0   5.0  16.3   9.9  48  1014   ---   NNE    16    16   ---   --- /
17/03/2006 15:20      16.0   5.0  16.3   9.9  48  1014   ---    NE    16    16   ---   --- /
17/03/2006 16:50      15.0   9.0  16.5   7.6  67  1014   ---    NE    19    19   ---   3.9 Broken Clouds/
17/03/2006 17:50      15.0   9.0  16.5   7.6  67  1014   ---    NE    19    19   ---   0.7 Broken Clouds/
17/03/2006 18:50      14.0   9.0  15.8   6.2  72  1014   ---    NE    19    19   ---   0.7 Broken Clouds/
17/03/2006 19:50      13.0   9.0  15.1   4.4  77  1014   ---   ENE    21    21   ---   0.7 Scattered Clouds/
17/03/2006 20:50      13.0   8.0  14.8   5.5  72  1014   ---   ENE    18    18   ---   0.7 Few Clouds/
17/03/2006 21:50      13.0   6.0  14.2   7.4  62  1014   ---   ENE    13    13   ---   --- /
17/03/2006 22:50      13.0   6.0  14.2   5.5  62  1014   ---   ENE    18    18   ---   --- /
17/03/2006 23:50      12.0   6.0  13.4  10.1  67  1014   ---     E     6     6   ---   --- /
18/03/2006 00:50      11.0   5.0  12.4  11.0  66  1014   ---     N     0     0   ---   --- /
18/03/2006 01:50      11.0   6.0  12.7  11.0  71  1014   ---   ---     3     3   ---   --- /
18/03/2006 02:50      10.0   5.0  11.7  10.0  71  1014   ---     N     3     3   ---   --- /
18/03/2006 03:50      10.0   5.0  11.7  10.0  71  1013   ---     N     5     5   ---   --- /
18/03/2006 04:50      10.0   5.0  11.7  10.0  71  1013   ---     N     5     5   ---   --- /
18/03/2006 05:50      11.0   5.0  12.4  11.0  66  1013   ---     N     2     2   ---   4.8 Broken Clouds/
18/03/2006 06:50      10.0   5.0  11.7  10.0  71  1013   ---     N     3     3   ---   5.4 Scattered Clouds/
18/03/2006 07:50      12.0   6.0  13.4  12.0  67  1013   ---     N     0     0   ---   5.4 Broken Clouds/
18/03/2006 08:50      14.0   6.0  14.9  14.0  59  1013   ---   ---     3     3   ---   1.8 Broken Clouds/
18/03/2006 08:50      14.0   6.0  14.9  14.0  59  1013   ---   ---     3     3   ---   1.8 Broken Clouds/None reported
18/03/2006 09:50      14.0   6.0  14.9  14.0  59  1013   ---     N     3     3   ---   1.8 Broken Clouds/
18/03/2006 09:50      14.0   6.0  14.9  14.0  59  1013   ---   ---     3     3   ---   1.8 Broken Clouds/None reported
18/03/2006 10:50      15.0   8.0  16.2  12.0  63  1014   ---    NE     8     8   ---   1.8 Broken Clouds/
18/03/2006 10:50      15.0   8.0  16.2  12.0  63  1014   ---    NE     8     8   ---   1.8 Broken Clouds/None reported
18/03/2006 11:50      16.0   7.0  16.7   9.9  55  1014   ---    NE    16    16   ---   5.4 Scattered Clouds/
18/03/2006 12:50      16.0   6.0  16.5   9.6  51  1013   ---    NE    18    18   ---   5.4 Scattered Clouds/
18/03/2006 13:50      16.0   9.0  17.2   9.6  63  1013   ---   ENE    18    18   ---   --- /
18/03/2006 14:50      15.0  10.0  16.8   6.1  72  1011   ---   ENE    27    27   ---   5.4 Broken Clouds/
18/03/2006 15:50      16.0  11.0  17.8   9.0  72  1011   ---     E    19    19   ---   4.8 Broken Clouds/
18/03/2006 16:20      16.0  10.0  17.5  13.2  68  1011   ---   ENE     8     8   ---   4.2 Broken Clouds/
18/03/2006 17:50      15.0   9.0  16.5  11.3  67  1011   ---     W    10    10   ---   4.2 Broken Clouds/
18/03/2006 18:50      14.0  10.0  16.1  14.0  77  1011   ---     N     3     3   ---   4.2 Broken Clouds/
18/03/2006 19:50      14.0   9.0  15.8  10.8  72  1011   ---   ENE     8     8   ---   4.2 Broken Clouds/
18/03/2006 20:50      14.0   8.0  15.5  10.1  67  1011   ---     E    10    10   ---   4.2 Broken Clouds/
18/03/2006 21:50      14.0   9.0  15.8  14.0  72  1010   ---     N     5     5   ---   5.4 Broken Clouds/
18/03/2006 22:50      14.0   9.0  15.8  10.8  72  1010   ---     W     8     8   ---   5.4 Broken Clouds/
18/03/2006 23:50      14.0   8.0  15.5  14.0  67  1009   ---     N     0     0   ---   5.4 Broken Clouds/
19/03/2006 00:50      13.0   8.0  14.8  13.0  72  1010   ---   ---     0     0   ---   --- /
19/03/2006 01:50      14.0   8.0  15.5  12.3  67  1010   ---   SSE     6     6   ---   --- /
19/03/2006 02:50      14.0   8.0  15.5   8.7  67  1010   ---   SSW    13    13   ---   --- /
19/03/2006 03:50      14.0   8.0  15.5  10.8  67  1009   ---    SW     8     8   ---   --- /
19/03/2006 04:50      14.0   8.0  15.5  10.8  67  1008   ---     S     8     8   ---   --- /
19/03/2006 05:50      14.0   8.0  15.5  14.0  67  1008   ---     N     2     2   ---   0.7 Broken Clouds/
19/03/2006 06:50      14.0   8.0  15.5  14.0  67  1009   ---     N     5     5   ---   --- / Mist
19/03/2006 07:50      14.0   8.0  15.5   8.0  67  1008   ---   WSW    14    14   ---   --- / Mist
19/03/2006 08:50      15.0   9.0  16.5  12.0  67  1010   ---   WSW     8     8   ---   --- / Mist
19/03/2006 09:50      15.0   9.0  16.5  11.3  67  1009   ---   WNW    10    10   ---   --- / Mist
19/03/2006 10:50      15.0   9.0  16.5  13.3  67  1009   ---    NW     6     6   ---   --- / Mist
19/03/2006 11:50      16.0   9.0  17.2  16.0  63  1009   ---     N     5     5   ---   --- / Mist
19/03/2006 12:20      16.0  10.0  17.5  16.0  68  1010   ---     N     2     2   ---   --- / Mist
19/03/2006 12:20      16.0  10.0  17.5  16.0  68  1010   ---   ---     2     2   ---   --- None reported/ Mist
19/03/2006 14:00       0.0   0.0   4.0   0.0 100   ---   ---   ---   ---   ---   ---   --- /
19/03/2006 15:00       0.0   0.0   4.0   0.0 100   ---   ---   ---   ---   ---   ---   --- /
19/03/2006 15:00      11.0   8.0  13.5  11.0  82   ---   ---         ---   ---   ---   --- None reported/None reported
19/03/2006 15:00      11.0   8.0  13.5  11.0  82   ---   ---         ---   ---   ---   --- None reported/None reported
19/03/2006 15:00      11.0   8.0  13.5  11.0  82   ---   ---         ---   ---   ---   --- None reported/None reported
19/03/2006 16:00       0.0   0.0   4.0   0.0 100   ---   ---         ---   ---   ---   --- /
19/03/2006 16:00      30.0  23.0  34.2  30.0  66   ---   ---         ---   ---   ---   --- None reported/None reported
19/03/2006 16:20       0.0   0.0   4.0   0.0 100   ---   ---         ---   ---   ---   --- /
19/03/2006 18:00       0.0   0.0   4.0   0.0 100   ---   ---         ---   ---   ---   --- /
19/03/2006 19:00       0.0   0.0   4.0   0.0 100   ---   ---         ---   ---   ---   --- /
19/03/2006 20:00       0.0   0.0   4.0   0.0 100   ---   ---         ---   ---   ---   --- /
19/03/2006 21:00       0.0   0.0   4.0   0.0 100   ---   ---         ---   ---   ---   --- /
19/03/2006 22:00       0.0   0.0   4.0   0.0 100   ---   ---         ---   ---   ---   --- /
19/03/2006 22:50      15.0   9.0  16.5  10.0  67  1012   ---   SSW    13    13   ---   0.7 Few Clouds/
19/03/2006 23:50      14.0   9.0  15.8  10.1  72  1012   ---   SSW    10    10   ---   0.7 Few Clouds/
20/03/2006 00:50      14.0   9.0  15.8   8.7  72  1012   ---    SW    13    13   ---   --- /
20/03/2006 01:50      14.0   9.0  15.8   6.9  72  1012   ---   SSW    18    18   ---   0.6 Scattered Clouds/
20/03/2006 02:50      15.0  10.0  16.8   8.2  72  1012   ---   SSW    18    18   ---   0.6 Scattered Clouds/
20/03/2006 03:50       0.0   0.0   4.0 -12.4 100  1012   ---   SSW    18    18   ---   --- /
20/03/2006 05:00       0.0   0.0   4.0 -12.4 100   ---   ---   SSW   ---   ---   ---   --- /
20/03/2006 05:50      15.0   9.0  16.5   9.3  67  1012   ---    SW    14    14   ---   0.7 Broken Clouds/
20/03/2006 06:50      15.0   9.0  16.5   9.3  67  1013   ---   SSW    14    14   ---   0.6 Broken Clouds/
20/03/2006 07:50      15.0  10.0  16.8  12.0  72  1013   ---   WSW     8     8   ---   0.7 Broken Clouds/
20/03/2006 08:50      17.0  10.0  18.2  11.9  63  1014   ---   SSW    14    14   ---   0.7 Broken Clouds/
20/03/2006 09:50      17.0  10.0  18.2  12.5  63  1014   ---   WSW    13    13   ---   0.7 Scattered Clouds/
20/03/2006 10:50      17.0   9.0  18.0  12.5  59  1015   ---     W    13    13   ---   0.7 Scattered Clouds/
20/03/2006 11:50      17.0  10.0  18.2  11.9  63  1015   ---   WNW    14    14   ---   0.7 Scattered Clouds/
20/03/2006 12:50      17.0  12.0  18.8  10.1  72  1015   ---   WNW    21    21   ---   0.5 Few Clouds/
20/03/2006 13:50      17.0  12.0  18.8  11.9  72  1015   ---   WNW    14    14   ---   0.5 Few Clouds/
20/03/2006 14:20      17.0  12.0  18.8  14.3  72  1014   ---   WNW     8     8   ---   0.5 Few Clouds/
20/03/2006 15:50      17.0  11.0  18.5  15.5  68  1014   ---   NNW     6     6   ---   0.5 Few Clouds/
20/03/2006 16:20      16.0  11.0  17.8  16.0  72  1014   ---     N     5     5   ---   0.5 Few Clouds/
20/03/2006 17:50      16.0  10.0  17.5  16.0  68  1014   ---     N     3     3   ---   0.5 Few Clouds/
20/03/2006 18:50      15.0  10.0  16.8  13.3  72  1014   ---   ENE     6     6   ---   --- /
20/03/2006 19:50      14.0   9.0  15.8  10.8  72  1015   ---     E     8     8   ---   --- /
20/03/2006 20:20      14.0   9.0  15.8   8.7  72  1014   ---   ENE    13    13   ---   --- /
20/03/2006 21:20      14.0   8.0  15.5   8.7  67  1015   ---     E    13    13   ---   --- /
20/03/2006 22:20      13.0   8.0  14.8  13.0  72  1014   ---     N     2     2   ---   --- /
20/03/2006 22:50      13.0   8.0  14.8  13.0  72  1015   ---     N     5     5   ---   --- /
21/03/2006 00:50      13.0   7.0  14.4  13.0  67  1014   ---     N     0     0   ---   --- /
21/03/2006 02:50      13.0   7.0  14.4  13.0  67  1013   ---   ---     5     5   ---   --- /
21/03/2006 03:50      12.0   7.0  13.7  12.0  71  1013   ---     N     3     3   ---   --- /
21/03/2006 04:50      12.0   6.0  13.4   8.5  67  1013   ---    NE     8     8   ---   --- /
21/03/2006 05:50      14.0   8.0  15.5  10.1  67  1011   ---    NE    10    10   ---   --- /
21/03/2006 06:50      13.0   7.0  14.4  13.0  67  1012   ---     N     3     3   ---   --- /
21/03/2006 07:50      14.0   8.0  15.5  14.0  67  1012   ---     N     0     0   ---   --- /
21/03/2006 08:50      16.0  10.0  17.5  16.0  68  1012   ---   ---     3     3   ---   1.2 Scattered Clouds/
21/03/2006 09:50      17.0  10.0  18.2  13.8  63  1012   ---    NE    10    10   ---   1.2 Scattered Clouds/
21/03/2006 10:50      18.0   9.0  18.8  16.6  56  1012   ---   NNE     6     6   ---   6.0 Broken Clouds/
21/03/2006 11:50      19.0   8.0  19.4  14.5  49  1011   ---    NE    14    14   ---   6.0 Broken Clouds/
21/03/2006 12:50      20.0   8.0  20.2  15.3  46  1010   ---   ENE    16    16   ---   6.0 Broken Clouds/
21/03/2006 13:20      18.0  12.0  19.5  12.6  68  1009   ---   ENE    16    16   ---   6.0 Broken Clouds/
21/03/2006 14:50      18.0  13.0  19.8  12.6  73  1009   ---    NE    16    16   ---   --- /
21/03/2006 15:50      17.0  12.0  18.8  11.3  72  1008   ---   NNE    16    16   ---   --- /
21/03/2006 16:50      17.0  11.0  18.5  11.3  68  1007   ---   ENE    16    16   ---   3.6 Broken Clouds/
21/03/2006 17:50      17.0  12.0  18.8  11.9  72  1006   ---    NE    14    14   ---   0.9 Few Clouds/
21/03/2006 18:50      16.0  10.0  17.5  16.0  68  1005   ---     N     2     2   ---   0.9 Few Clouds/
21/03/2006 19:50      16.0  10.0  17.5  16.0  68  1005   ---     N     5     5   ---   --- /
21/03/2006 20:50      17.0   8.0  17.7  17.0  55  1006   ---     N     5    23   ---   --- /
21/03/2006 21:50      16.0   9.0  17.2   9.9  63  1006   ---   ENE    16    16   ---   --- /
21/03/2006 22:50      16.0  10.0  17.5  11.3  68  1005   ---   ENE    13    13   ---   --- /
21/03/2006 23:20      15.0   9.0  16.5  15.0  67  1006   ---     N     5     5   ---   --- /
22/03/2006 00:50      16.0   9.0  17.2  14.4  63  1005   ---     N     6     6   ---   --- /
22/03/2006 01:50      15.0  10.0  16.8   9.3  72  1006   ---   ENE    14    14   ---   1.0 Few Clouds/
22/03/2006 02:50      15.0  10.0  16.8   6.4  72  1004   ---   ENE    26    26   ---   1.0 Broken Clouds/
22/03/2006 03:50      15.0  10.0  16.8   7.3  72  1003   ---     E    21    21   ---   0.9 Broken Clouds/
22/03/2006 04:20      15.0   9.0  16.5   8.2  67  1004   ---     E    18    18   ---   0.9 Broken Clouds/
22/03/2006 05:50      15.0   9.0  16.5  15.0  67  1003   ---     N     2     2   ---   1.0 Scattered Clouds/
22/03/2006 06:50      14.0   9.0  15.8  12.3  72  1003   ---   ENE     6     6   ---   1.0 Scattered Clouds/
22/03/2006 07:50      15.0   9.0  16.5   6.9  67  1002   ---   ENE    23    23   ---   0.9 Scattered Clouds/
22/03/2006 08:50      16.0  10.0  17.5  11.3  68  1003   ---   ENE    13    13   ---   0.5 Scattered Clouds/
22/03/2006 09:50      15.0  10.0  16.8   8.2  72  1003   ---     E    18    18   ---   --- Overcast/ Light Rain
22/03/2006 10:20      15.0  10.0  16.8   7.6  72  1002   ---     E    19    19   ---   --- Overcast/ Light Rain
22/03/2006 11:50      16.0  10.0  17.5  13.2  68  1002   ---     E     8     8   ---   --- / Drizzle
22/03/2006 12:50      15.0  10.0  16.8   8.6  72  1002   ---    SW    16    16   ---   0.3 Broken Clouds/
22/03/2006 13:50      14.0   9.0  15.8   5.8  72  1002   ---     W    21    21   ---   --- / Drizzle
22/03/2006 14:50      15.0   9.0  16.5   5.6  67  1002   ---     W    31    31   ---   0.3 Broken Clouds/
22/03/2006 15:50      14.0   8.0  15.5   4.6  67  1003   ---   WSW    27    27   ---   0.3 Broken Clouds/
22/03/2006 16:50      13.0   8.0  14.8   1.4  72  1004   ---     W    43    43   ---   --- Overcast/ Rain
22/03/2006 16:50      13.0   8.0  14.8   1.4  72  1004   ---     W    43    43   ---   --- Overcast/ Rain
22/03/2006 17:50      14.0   8.0  15.5   3.3  67  1004   ---     W    39    39   ---   --- Overcast/ Light Rain
22/03/2006 18:50      14.0   8.0  15.5   3.3  67  1004   ---     W    39    39   ---   0.4 Broken Clouds/
22/03/2006 19:50      14.0   8.0  15.5   3.4  67  1005   ---     W    37    37   ---   0.4 Broken Clouds/
22/03/2006 20:50      14.0   9.0  15.8   4.1  72  1005   ---     W    31    31   ---   0.4 Broken Clouds/
22/03/2006 21:50      14.0   9.0  15.8   3.8  72  1006   ---     W    34    34   ---   0.4 Broken Clouds/
22/03/2006 22:50      14.0   8.0  15.5   4.4  67  1007   ---     W    29    29   ---   --- / Drizzle
22/03/2006 23:50      14.0   8.0  15.5   4.6  67  1007   ---   WNW    27    27   ---   --- Overcast/ Rain
23/03/2006 00:50      14.0   8.0  15.5   3.8  67  1007   ---     W    34    34   ---   0.4 Broken Clouds/
23/03/2006 01:50      14.0   8.0  15.5   3.9  67  1008   ---     W    32    32   ---   0.4 Broken Clouds/
23/03/2006 02:50      14.0   8.0  15.5   3.3  67  1008   ---     W    39    39   ---   0.4 Broken Clouds/
23/03/2006 03:20      14.0   8.0  15.5   3.3  67  1007   ---     W    39    39   ---   0.5 Broken Clouds/
23/03/2006 04:50      14.0   8.0  15.5   3.9  67  1008   ---     W    32    32   ---   0.4 Broken Clouds/
23/03/2006 05:50      14.0   8.0  15.5   3.9  67  1008   ---     W    32    32   ---   0.5 Scattered Clouds/
23/03/2006 06:50      14.0   8.0  15.5   3.8  67  1009   ---     W    34    34   ---   0.5 Broken Clouds/
23/03/2006 07:50      14.0   8.0  15.5   4.1  67  1009   ---     W    31    31   ---   0.5 Broken Clouds/
23/03/2006 08:50      15.0   9.0  16.5   5.6  67  1010   ---     W    31    31   ---   0.5 Broken Clouds/
23/03/2006 09:50      14.0   9.0  15.8   4.1  72  1010   ---     W    31    31   ---   0.5 Broken Clouds/
23/03/2006 10:50      16.0   9.0  17.2   6.9  63  1011   ---     W    34    34   ---   0.5 Scattered Clouds/
23/03/2006 11:20      16.0   9.0  17.2   7.0  63  1011   ---     W    32    32   ---   0.5 Scattered Clouds/
23/03/2006 12:50      15.0   9.0  16.5   5.9  67  1011   ---     W    29    29   ---   0.5 Scattered Clouds/
23/03/2006 13:50      17.0  10.0  18.2   9.8  63  1011   ---     W    23    23   ---   0.5 Scattered Clouds/
23/03/2006 14:50      17.0   9.0  18.0   8.7  59  1011   ---     W    31    31   ---   0.6 Few Clouds/
23/03/2006 15:50      16.0  11.0  17.8   6.5  72  1011   ---     W    37    37   ---   0.5 Scattered Clouds/
23/03/2006 16:50      15.0  10.0  16.8   4.9  72  1011   ---     W    37    37   ---   0.5 Broken Clouds/
23/03/2006 17:50      15.0  10.0  16.8   5.4  72  1011   ---     W    32    32   ---   0.5 Broken Clouds/
23/03/2006 18:50      15.0   9.0  16.5   6.9  67  1012   ---     W    23    23   ---   0.5 Scattered Clouds/
23/03/2006 19:50      15.0   9.0  16.5   6.1  67  1013   ---     W    27    27   ---   0.6 Broken Clouds/
23/03/2006 20:50      15.0  10.0  16.8   6.9  72  1013   ---     W    23    23   ---   0.6 Broken Clouds/
23/03/2006 21:50      14.0   9.0  15.8   5.8  72  1014   ---   WSW    21    21   ---   0.6 Broken Clouds/
23/03/2006 22:50      14.0   8.0  15.5   5.8  67  1014   ---     W    21    21   ---   0.6 Broken Clouds/
23/03/2006 23:50      14.0   9.0  15.8   6.2  72  1014   ---     W    19    19   ---   0.6 Scattered Clouds/
24/03/2006 00:50      14.0   8.0  15.5   7.2  67  1014   ---     W    16    16   ---   0.6 Scattered Clouds/
24/03/2006 01:50      14.0   8.0  15.5   8.7  67  1014   ---   WSW    13    13   ---   0.6 Scattered Clouds/
24/03/2006 02:50      14.0   9.0  15.8   8.7  72  1014   ---   WSW    13    13   ---   0.3 Scattered Clouds/
24/03/2006 03:20      14.0   8.0  15.5   7.2  67  1014   ---   WSW    16    16   ---   0.3 Scattered Clouds/
24/03/2006 04:50      13.0   7.0  14.4  11.2  67  1014   ---   SSW     6     6   ---   0.7 Scattered Clouds/
24/03/2006 05:50      13.0   7.0  14.4   9.7  67  1014   ---     S     8     8   ---   0.9 Scattered Clouds/
24/03/2006 06:50      12.0   6.0  13.4   7.7  67  1014   ---   SSW    10    10   ---   0.9 Scattered Clouds/
24/03/2006 07:50      14.0   7.0  15.2   7.2  63  1014   ---    SW    16    16   ---   0.9 Scattered Clouds/
24/03/2006 08:50      16.0   8.0  16.9   8.7  59  1014   ---   SSW    21    21   ---   0.9 Broken Clouds/
24/03/2006 09:50      16.0   6.0  16.5   9.0  51  1014   ---   SSW    19    19   ---   0.9 Broken Clouds/
24/03/2006 10:50      17.0   8.0  17.7  10.4  55  1015   ---   SSW    19    19   ---   0.9 Broken Clouds/
24/03/2006 11:50      18.0   9.0  18.8  11.8  56  1015   ---   WSW    19    19   ---   0.9 Scattered Clouds/
24/03/2006 12:50      19.0   9.0  19.6  13.2  52  1014   ---    SW    19    19   ---   0.9 Scattered Clouds/
24/03/2006 13:50      20.0   8.0  20.2  14.6  46  1013   ---   WSW    19    19   ---   0.9 Scattered Clouds/
24/03/2006 14:50      20.0   6.0  20.0  13.5  40  1013   ---    SW    27    27   ---   4.8 Scattered Clouds/
24/03/2006 15:50      20.0   6.0  20.0  13.4  40  1012   ---   SSW    29    29   ---   4.8 Scattered Clouds/
24/03/2006 16:20      20.0   7.0  20.1  13.4  43  1012   ---   SSW    29    29   ---   4.8 Scattered Clouds/
24/03/2006 17:50      18.0   7.0  18.4   9.9  49  1012   ---   SSW    34    34   ---   0.9 Broken Clouds/
24/03/2006 18:50      18.0   7.0  18.4  10.2  49  1012   ---   SSW    31    31   ---   0.9 Broken Clouds/
24/03/2006 19:50      17.0   7.0  17.5   8.4  52  1013   ---   SSW    34    34   ---   0.9 Scattered Clouds/
24/03/2006 20:50      17.0   7.0  17.5   7.7  52  1013   ---     S    43    68   ---   --- /
24/03/2006 21:50      17.0   8.0  17.7   8.0  55  1013   ---   SSW    39    39   ---   0.9 Few Clouds/
24/03/2006 22:50      18.0   7.0  18.4  10.0  49  1013   ---   SSW    32    32   ---   0.9 Few Clouds/
24/03/2006 23:50      17.0   9.0  18.0   8.9  59  1013   ---    SW    29    29   ---   --- /
25/03/2006 00:50      16.0   9.0  17.2   7.6  63  1013   ---    SW    27    27   ---   --- /
25/03/2006 01:50      16.0  10.0  17.5   9.6  68  1014   ---    SW    18    18   ---   0.9 Few Clouds/
25/03/2006 02:50      16.0  10.0  17.5   9.0  68  1014   ---    SW    19    19   ---   0.7 Broken Clouds/
25/03/2006 03:50      15.0  10.0  16.8  10.0  72  1014   ---     W    13    13   ---   0.6 Broken Clouds/
25/03/2006 04:50      15.0  10.0  16.8   9.3  72  1014   ---    SW    14    14   ---   0.6 Broken Clouds/
25/03/2006 05:50      15.0   9.0  16.5  10.0  67  1014   ---    SW    13    13   ---   0.6 Scattered Clouds/
25/03/2006 06:50      14.0   9.0  15.8   7.2  72  1014   ---     W    16    16   ---   0.9 Few Clouds/
25/03/2006 07:50      15.0  10.0  16.8  13.3  72  1015   ---     W     6     6   ---   --- /
25/03/2006 08:50      16.0  10.0  17.5  12.5  68  1015   ---   WSW    10    10   ---   --- /
25/03/2006 08:50      16.0  10.0  17.5  12.5  68  1015   ---   WSW    10    10   ---   --- None reported/None reported
25/03/2006 09:20      17.0  11.0  18.5  11.9  68  1015   ---     W    14    14   ---   --- /
25/03/2006 10:20      17.0  11.0  18.5  13.8  68  1016   ---     W    10    10   ---   --- /
25/03/2006 11:20      17.0  11.0  18.5  13.8  68  1016   ---     W    10    10   ---   --- /
25/03/2006 13:50      17.0  12.0  18.8  11.3  72  1016   ---   WNW    16    16   ---   0.4 Scattered Clouds/
25/03/2006 14:50      17.0  12.0  18.8  10.4  72  1016   ---    NW    19    19   ---   0.5 Few Clouds/
25/03/2006 15:50      16.0  11.0  17.8   9.6  72  1016   ---   WNW    18    18   ---   0.5 Few Clouds/
25/03/2006 16:50      16.0  11.0  17.8   9.9  72  1017   ---    NW    16    16   ---   0.4 Scattered Clouds/
25/03/2006 17:50      15.0  10.0  16.8  15.0  72  1018   ---     N     2     2   ---   0.4 Broken Clouds/
25/03/2006 18:50      15.0  10.0  16.8  15.0  72  1018   ---     N     5     5   ---   0.3 Few Clouds/
25/03/2006 19:50      14.0   8.0  15.5  12.3  67  1019   ---     W     6     6   ---   0.3 Few Clouds/
25/03/2006 20:50      14.0   8.0  15.5  14.0  67  1019   ---     N     0     0   ---   --- /
25/03/2006 21:50      14.0   9.0  15.8  14.0  72  1019   ---   ---     5     5   ---   --- /
25/03/2006 22:50      14.0   9.0  15.8  14.0  72  1020   ---     N     0     0   ---   0.3 Scattered Clouds/
25/03/2006 23:50      14.0   9.0  15.8  14.0  72  1020   ---   ---     3     3   ---   0.3 Few Clouds/
26/03/2006 00:50      14.0   9.0  15.8  12.3  72  1020   ---   NNE     6     6   ---   --- /
26/03/2006 02:50      14.0   8.0  15.5  14.0  67  1020   ---     N     2     2   ---   0.4 Scattered Clouds/
26/03/2006 03:50      14.0   9.0  15.8  14.0  72  1020   ---     N     5     5   ---   0.4 Broken Clouds/
26/03/2006 04:50      14.0   8.0  15.5  12.3  67  1021   ---     N     6     6   ---   0.4 Scattered Clouds/
26/03/2006 05:50      14.0   8.0  15.5  10.8  67  1021   ---     N     8     8   ---   0.4 Scattered Clouds/
26/03/2006 06:20      14.0   8.0  15.5  14.0  67  1021   ---     N     5     5   ---   0.4 Scattered Clouds/
26/03/2006 07:50      14.0   8.0  15.5  14.0  67  1021   ---     N     0     0   ---   0.3 Broken Clouds/
26/03/2006 08:50      15.0   9.0  16.5  15.0  67  1022   ---   ---     0     0   ---   0.3 Broken Clouds/
26/03/2006 09:50      15.0   9.0  16.5  15.0  67  1023   ---   ---     2     2   ---   0.1 Broken Clouds/
26/03/2006 10:50      15.0   9.0  16.5  15.0  67  1023   ---     N     3     3   ---   0.1 Broken Clouds/
26/03/2006 11:50      15.0   9.0  16.5  13.3  67  1024   ---    NW     6     6   ---   0.1 Scattered Clouds/
26/03/2006 12:50      15.0   9.0  16.5  15.0  67  1024   ---     N     3     3   ---   0.1 Scattered Clouds/
26/03/2006 13:50      15.0  10.0  16.8  12.0  72  1024   ---     N     8     8   ---   0.3 Scattered Clouds/
26/03/2006 14:50      16.0  10.0  17.5  12.5  68  1023   ---     N    10    10   ---   0.3 Scattered Clouds/
26/03/2006 15:50      17.0  11.0  18.5  13.8  68  1023   ---   NNE    10    10   ---   0.3 Scattered Clouds/
26/03/2006 16:50      16.0  10.0  17.5   9.9  68  1023   ---    NE    16    16   ---   0.2 Scattered Clouds/
26/03/2006 17:50      16.0  10.0  17.5   9.9  68  1023   ---    NE    16    16   ---   0.2 Scattered Clouds/
26/03/2006 18:50      15.0  10.0  16.8   8.2  72  1023   ---    NE    18    18   ---   0.3 Broken Clouds/
26/03/2006 19:50      14.0   9.0  15.8   7.2  72  1023   ---    NE    16    16   ---   0.3 Few Clouds/
26/03/2006 20:50      14.0   9.0  15.8   8.0  72  1024   ---   ENE    14    14   ---   0.3 Few Clouds/
26/03/2006 21:50      14.0   9.0  15.8   8.7  72  1024   ---   ENE    13    13   ---   0.3 Few Clouds/
26/03/2006 22:50      13.0   8.0  14.8  13.0  72  1024   ---     N     3     3   ---   0.5 Few Clouds/
26/03/2006 23:50      13.0   7.0  14.4  13.0  67  1024   ---     N     0     0   ---   0.5 Few Clouds/
27/03/2006 00:50      13.0   7.0  14.4  13.0  67  1024   ---   ---     2     2   ---   0.5 Few Clouds/
27/03/2006 01:50      12.0   6.0  13.4  12.0  67  1024   ---     N     3     3   ---   0.5 Few Clouds/
27/03/2006 02:50      12.0   7.0  13.7  12.0  71  1023   ---     N     3     3   ---   0.5 Few Clouds/
27/03/2006 03:50      12.0   7.0  13.7  12.0  71  1023   ---     N     2     2   ---   0.5 Few Clouds/
27/03/2006 04:50      12.0   7.0  13.7  12.0  71  1023   ---     N     5     5   ---   0.5 Few Clouds/
27/03/2006 05:50      13.0   7.0  14.4  13.0  67  1022   ---     N     0     0   ---   0.5 Few Clouds/
27/03/2006 06:50      11.0   5.0  12.4  11.0  66  1022   ---   ---     3     3   ---   --- /
27/03/2006 07:50      11.0   6.0  12.7  11.0  71  1023   ---     N     2     2   ---   0.5 Scattered Clouds/
27/03/2006 08:50      14.0   8.0  15.5  14.0  67  1023   ---     N     0     0   ---   0.5 Scattered Clouds/
27/03/2006 09:50      14.0   8.0  15.5  14.0  67  1023   ---   ---     5     5   ---   0.5 Scattered Clouds/
27/03/2006 10:50      16.0  10.0  17.5  11.3  68  1023   ---   NNE    13    13   ---   0.5 Scattered Clouds/
27/03/2006 11:50      16.0  10.0  17.5  11.3  68  1023   ---    NE    13    13   ---   0.5 Scattered Clouds/
27/03/2006 12:50      18.0   9.0  18.8  12.6  56  1023   ---    NE    16    16   ---   6.0 Scattered Clouds/
27/03/2006 13:20      18.0   9.0  18.8  13.2  56  1023   ---    NE    14    14   ---   6.0 Scattered Clouds/
27/03/2006 14:50      18.0   7.0  18.4  12.4  49  1022   ---   ENE    18    18   ---   6.0 Scattered Clouds/
27/03/2006 15:50      19.0  10.0  19.8  16.2  56  1022   ---    NE    10    10   ---   6.0 Scattered Clouds/
27/03/2006 16:50      18.0  10.0  19.0  15.5  60  1022   ---    NE     8     8   ---   --- /
27/03/2006 17:50      18.0   9.0  18.8  18.0  56  1021   ---     N     5     5   ---   --- /
27/03/2006 18:50      17.0  11.0  18.5  15.5  68  1020   ---   WSW     6     6   ---   --- /
27/03/2006 19:50      15.0  10.0  16.8  15.0  72  1020   ---     N     5     5   ---   --- /
27/03/2006 20:50      14.0   9.0  15.8  14.0  72  1020   ---     N     2     2   ---   --- /
27/03/2006 21:50      14.0   9.0  15.8  14.0  72  1020   ---     N     2     2   ---   --- /
27/03/2006 22:50      14.0   8.0  15.5  14.0  67  1021   ---     N     2     2   ---   --- /
27/03/2006 23:50      13.0   7.0  14.4  13.0  67  1021   ---     N     0     0   ---   --- /
28/03/2006 00:50      14.0   8.0  15.5  14.0  67  1020   ---   ---     3     3   ---   --- /
28/03/2006 01:50      14.0   8.0  15.5  14.0  67  1019   ---     N     2     2   ---   --- /
28/03/2006 02:50      13.0   7.0  14.4  13.0  67  1018   ---     N     3     3   ---   --- /
28/03/2006 03:50      13.0   7.0  14.4   9.7  67  1018   ---     E     8     8   ---   --- /
28/03/2006 04:50      12.0   6.0  13.4  12.0  67  1018   ---     N     3     3   ---   --- /
28/03/2006 05:50      13.0   7.0  14.4  13.0  67  1017   ---     N     3     3   ---   --- /
28/03/2006 06:50      13.0   8.0  14.8  11.2  72  1017   ---   ENE     6     6   ---   --- /
28/03/2006 07:50      14.0   8.0  15.5  14.0  67  1016   ---     N     5     5   ---   --- /
28/03/2006 08:50      15.0   9.0  16.5  15.0  67  1016   ---     N     5     5   ---   --- /
28/03/2006 09:50      17.0  10.0  18.2  15.5  63  1016   ---    NE     6     6   ---   --- /
28/03/2006 10:50      19.0   8.0  19.4  16.7  49  1016   ---   NNE     8     8   ---   --- /
28/03/2006 11:50      21.0   9.0  21.3  18.6  46  1016   ---    NE    10    10   ---   --- /
28/03/2006 12:50      22.0   9.0  22.1  16.4  43  1015   ---   SSW    29    29   ---   6.0 Scattered Clouds/
28/03/2006 13:50      24.0  11.0  24.1  20.6  44  1014   ---   SSW    18    18   ---   6.0 Scattered Clouds/
28/03/2006 14:50      21.0  12.0  21.8  18.6  56  1014   ---   WSW    10    10   ---   6.0 Broken Clouds/
28/03/2006 15:50      20.0  13.0  21.3  15.9  64  1014   ---   NNE    14    14   ---   6.0 Broken Clouds/
28/03/2006 17:00       0.0   0.0   4.0 -10.5 100   ---   ---   NNE   ---   ---   ---   --- /
28/03/2006 17:50      19.0  13.0  20.5  15.1  68  1013   ---   SSW    13    13   ---   6.0 Broken Clouds/
28/03/2006 18:50      23.0   7.0  22.8  17.8  36  1012   ---   SSW    31    31   ---   4.5 Broken Clouds/
28/03/2006 19:50      22.0   9.0  22.1  15.9  43  1012   ---    SW    37    37   ---   4.5 Broken Clouds/
28/03/2006 20:50      21.0  10.0  21.4  14.5  49  1013   ---    SW    34    34   ---   3.6 Broken Clouds/
28/03/2006 21:50      21.0   8.0  21.1  14.6  43  1014   ---   SSW    32    32   ---   3.6 Broken Clouds/
28/03/2006 22:50      20.0   9.0  20.4  13.8  49  1015   ---    SW    26    26   ---   3.6 Broken Clouds/
28/03/2006 23:50      19.0  10.0  19.8  11.9  56  1016   ---   SSW    29    29   ---   --- /
29/03/2006 00:50      17.0  11.0  18.5  10.1  68  1018   ---     W    21    21   ---   3.6 Broken Clouds/
29/03/2006 01:50      16.0  11.0  17.8  11.3  72  1018   ---     W    13    13   ---   0.6 Scattered Clouds/
29/03/2006 02:50      15.0  10.0  16.8  11.3  72  1018   ---    SW    10    10   ---   0.6 Few Clouds/
29/03/2006 03:50      16.0   9.0  17.2  14.4  63  1017   ---     S     6     6   ---   0.6 Few Clouds/
29/03/2006 04:50      15.0   8.0  16.2  13.3  63  1018   ---   SSW     6     6   ---   --- /
29/03/2006 05:50      14.0   7.0  15.2  12.3  63  1018   ---   SSW     6     6   ---   --- /
29/03/2006 06:50      14.0   8.0  15.5  12.3  67  1018   ---     W     6     6   ---   --- /
29/03/2006 07:50      14.0   7.0  15.2  14.0  63  1018   ---     N     2     2   ---   --- /
29/03/2006 08:50      16.0   9.0  17.2  16.0  63  1019   ---     N     5     5   ---   --- /
29/03/2006 09:50      17.0   7.0  17.5  17.0  52  1019   ---     N     5     5   ---   --- /
29/03/2006 10:50      18.0   6.0  18.2  16.6  45  1019   ---     W     6     6   ---   --- /
29/03/2006 11:50      17.0  10.0  18.2  12.5  63  1020   ---   NNW    13    13   ---   --- /
29/03/2006 12:50      16.0  10.0  17.5  11.3  68  1020   ---   WNW    13    13   ---   --- /
29/03/2006 13:50      17.0  11.0  18.5  12.5  68  1020   ---   WNW    13    13   ---   --- /
29/03/2006 14:50      17.0  11.0  18.5  11.9  68  1019   ---   WNW    14    14   ---   --- /
29/03/2006 15:50      17.0  11.0  18.5  11.9  68  1020   ---    NW    14    14   ---   --- /
29/03/2006 16:50      17.0  10.0  18.2  15.5  63  1019   ---     N     6     6   ---   --- /
29/03/2006 17:50      17.0   9.0  18.0  13.8  59  1019   ---   NNE    10    10   ---   --- /
29/03/2006 18:50      17.0   3.0  16.9  11.9  39  1019   ---    NE    14    14   ---   --- /
29/03/2006 19:50      17.0   0.0  16.6  11.3  32  1019   ---   ENE    16    16   ---   --- /
29/03/2006 20:50      16.0   0.0  15.7  11.3  34  1019   ---     E    13    13   ---   5.4 Broken Clouds/
29/03/2006 21:50      17.0   0.0  16.6  14.3  32  1020   ---   ENE     8     8   ---   5.1 Scattered Clouds/
29/03/2006 22:50      17.0   0.0  16.6  17.0  32  1020   ---     N     5     5   ---   5.1 Scattered Clouds/
29/03/2006 23:50      14.0   0.0  13.9  14.0  38  1021   ---     N     0     0   ---   --- /
30/03/2006 00:50      14.0   6.0  14.9  12.3  59  1021   ---   SSE     6     6   ---   --- /
30/03/2006 01:50      14.0   7.0  15.2  14.0  63  1020   ---     N     3     3   ---   --- /
30/03/2006 02:50      13.0   7.0  14.4  13.0  67  1020   ---     N     2     2   ---   --- /
30/03/2006 03:50      13.0   6.0  14.2  13.0  62  1020   ---     N     5     5   ---   --- /
30/03/2006 04:50      12.0   7.0  13.7  12.0  71  1020   ---     N     5     5   ---   --- /
30/03/2006 05:50      12.0   7.0  13.7  12.0  71  1020   ---     N     5     5   ---   --- /
30/03/2006 06:50      11.0   4.0  12.1  11.0  62  1020   ---     N     2     2   ---   --- /
30/03/2006 06:50      11.0   4.0  12.1  11.0  62  1020   ---   ---     2     2   ---   --- None reported/None reported
30/03/2006 07:50      12.0   5.0  13.1  12.0  62  1021   ---     N     2     2   ---   --- /
30/03/2006 08:50      14.0   4.0  14.5  14.0  51  1022   ---     N     2     2   ---   --- /
30/03/2006 09:50      17.0   6.0  17.4  17.0  48  1022   ---     N     2     2   ---   --- /
30/03/2006 11:00       0.0   0.0   4.0   0.0 100   ---   ---     N   ---   ---   ---   --- /
30/03/2006 11:50      17.0   7.0  17.5  15.5  52  1023   ---   NNW     6     6   ---   --- /
30/03/2006 12:50      17.0  10.0  18.2  14.3  63  1023   ---     N     8     8   ---   --- /
30/03/2006 13:50      17.0  11.0  18.5  15.5  68  1023   ---   NNW     6     6   ---   --- /
30/03/2006 14:50      17.0  11.0  18.5  14.3  68  1022   ---   NNW     8     8   ---   --- /
30/03/2006 15:50      16.0  11.0  17.8  12.5  72  1022   ---   NNW    10    10   ---   --- /
30/03/2006 16:50      17.0  12.0  18.8  13.8  72  1022   ---   NNW    10    10   ---   --- /
30/03/2006 17:20      16.0  11.0  17.8  14.4  72  1022   ---   NNW     6     6   ---   0.7 Broken Clouds/
30/03/2006 18:50      16.0  10.0  17.5  16.0  68  1022   ---     N     5     5   ---   5.4 Broken Clouds/
30/03/2006 19:50      15.0  10.0  16.8  15.0  72  1022   ---     N     0     0   ---   5.4 Broken Clouds/
30/03/2006 20:50      14.0   9.0  15.8  14.0  72  1022   ---   ---     3     3   ---   --- /
30/03/2006 21:50      14.0   6.0  14.9  14.0  59  1021   ---     N     0     0   ---   --- /
30/03/2006 22:50      13.0   4.0  13.7  13.0  54  1022   ---   ---     2     2   ---   --- /
30/03/2006 23:20      13.0   6.0  14.2  13.0  62  1022   ---     N     3     3   ---   5.4 Scattered Clouds/
31/03/2006 00:50      12.0   6.0  13.4  10.1  67  1022   ---    SW     6     6   ---   --- /
31/03/2006 01:50      13.0   6.0  14.2  11.2  62  1021   ---   WSW     6     6   ---   --- /
31/03/2006 02:50      12.0   7.0  13.7  10.1  71  1022   ---   SSE     6     6   ---   --- /
31/03/2006 03:50      12.0   7.0  13.7  12.0  71  1022   ---     N     5     5   ---   --- /
31/03/2006 04:50      12.0   7.0  13.7  12.0  71  1021   ---     N     2     2   ---   --- /
31/03/2006 05:50      11.0   5.0  12.4   9.0  66  1022   ---   SSW     6     6   ---   --- /
31/03/2006 06:50      11.0   5.0  12.4   9.0  66  1021   ---   SSW     6     6   ---   --- /
31/03/2006 07:50      12.0   5.0  13.1  12.0  62  1022   ---     N     3     3   ---   --- /
31/03/2006 08:20      13.0   6.0  14.2  13.0  62  1021   ---     N     5     5   ---   --- /
31/03/2006 11:50      17.0   4.0  17.1  17.0  42  1022   ---     N     3     3   ---   --- /
31/03/2006 13:00       0.0   0.0   4.0   0.0 100   ---   ---     N   ---   ---   ---   --- /
31/03/2006 13:50      19.0   6.0  19.1  14.5  43  1022   ---    NE    14    14   ---   --- /
31/03/2006 14:50      20.0   6.0  20.0  16.4  40  1021   ---   NNE    13    13   ---   --- /
31/03/2006 15:50      19.0   4.0  18.8  16.7  37  1021   ---    NE     8     8   ---   --- /
31/03/2006 16:50      19.0   0.0  18.5  19.0  28  1021   ---     N     5     5   ---   --- /
31/03/2006 17:50      19.0   2.0  18.6  16.7  32  1020   ---    NE     8     8   ---   --- /
31/03/2006 18:50      18.0   3.0  17.8  16.6  37  1021   ---   ENE     6     6   ---   --- /
31/03/2006 19:50      17.0   5.0  17.2  14.3  45  1020   ---   ENE     8     8   ---   --- /
31/03/2006 21:00       0.0   0.0   4.0  -5.5 100   ---   ---   ENE   ---   ---   ---   --- /
31/03/2006 21:50      15.0   6.0  15.7  15.0  55  1020   ---     N     5     5   ---   --- /
31/03/2006 22:50      14.0   7.0  15.2  14.0  63  1020   ---     N     5     5   ---   --- /
31/03/2006 23:50      15.0   6.0  15.7  15.0  55  1021   ---     N     5     5   ---   --- /
01/04/2006 00:50      15.0   6.0  15.7  15.0  55  1020   ---     N     5     5   ---   --- /
01/04/2006 01:20      14.0   5.0  14.7  14.0  55  1020   ---     N     0     0   ---   --- /
01/04/2006 02:50      13.0   8.0  14.8  13.0  72  1019   ---   ---     2     2   ---   --- /
01/04/2006 03:50      14.0   9.0  15.8  14.0  72  1020   ---     N     2     2   ---   --- /
01/04/2006 05:00       0.0   0.0   4.0   0.0 100   ---   ---     N   ---   ---   ---   --- /
01/04/2006 05:50      13.0   6.0  14.2  13.0  62  1019   ---     N     2     2   ---   --- /
01/04/2006 06:50      13.0   6.0  14.2  13.0  62  1018   ---     N     3     3   ---   --- /
01/04/2006 07:50      13.0   5.0  13.9  13.0  58  1019   ---     N     2     2   ---   3.0 Few Clouds/
01/04/2006 08:50      15.0   9.0  16.5  15.0  67  1019   ---     N     5     5   ---   3.0 Few Clouds/
01/04/2006 09:50      18.0  10.0  19.0  18.0  60  1019   ---     N     5     5   ---   --- /
01/04/2006 10:50      21.0   3.0  20.6  21.0  31  1019   ---     N     3     3   ---   --- /
01/04/2006 10:50      21.0   3.0  20.6  21.0  31  1019   ---   ---     3     3   ---   --- None reported/None reported
01/04/2006 11:50      20.0   6.0  20.0  20.0  40  1019   ---     N     5     5   ---   --- /
01/04/2006 12:50      21.0   5.0  20.8  19.9  35  1019   ---   NNE     6     6   ---   --- /
01/04/2006 13:50      22.0   7.0  21.9  18.9  38  1018   ---   NNE    13    13   ---   --- /
01/04/2006 14:50      21.0  11.0  21.6  17.7  53  1018   ---    NE    13    13   ---   --- /
01/04/2006 15:50      20.0  12.0  21.0  16.4  60  1018   ---   NNE    13    13   ---   --- /
01/04/2006 16:50      20.0  13.0  21.3  17.8  64  1017   ---   ENE     8     8   ---   --- /
01/04/2006 17:50      22.0  10.0  22.3  22.0  46  1016   ---     N     5     5   ---   --- /
01/04/2006 18:50      20.0  11.0  20.8  20.0  56  1016   ---     N     2     2   ---   6.0 Scattered Clouds/
01/04/2006 19:50      19.0  10.0  19.8  19.0  56  1016   ---     N     0     0   ---   --- /
01/04/2006 20:50      18.0  10.0  19.0  18.0  60  1016   ---   ---     0     0   ---   --- /
01/04/2006 21:50      17.0  12.0  18.8  17.0  72  1016   ---   ---     3     3   ---   --- /
01/04/2006 22:50      18.0   9.0  18.8  16.6  56  1016   ---    NE     6     6   ---   --- /
01/04/2006 23:50      17.0   9.0  18.0  17.0  59  1016   ---     N     2     2   ---   --- /
02/04/2006 00:50      17.0  10.0  18.2  12.5  63  1016   ---    SW    13    13   ---   --- /
02/04/2006 01:50      16.0   9.0  17.2  16.0  63  1016   ---     N     3     3   ---   --- /
02/04/2006 02:50      15.0   8.0  16.2  15.0  63  1016   ---     N     2     2   ---   --- /
02/04/2006 03:50      15.0   8.0  16.2  15.0  63  1015   ---     N     5     5   ---   --- /
02/04/2006 04:50      15.0  10.0  16.8  15.0  72  1015   ---     N     5     5   ---   --- /
02/04/2006 05:50      15.0   9.0  16.5  15.0  67  1015   ---     N     2     2   ---   --- /
02/04/2006 06:50      15.0  10.0  16.8  13.3  72  1015   ---   ENE     6     6   ---   --- /
02/04/2006 07:50      15.0   9.0  16.5  15.0  67  1015   ---     N     5     5   ---   --- /
02/04/2006 08:50      18.0   9.0  18.8  18.0  56  1015   ---     N     5     5   ---   6.0 Scattered Clouds/
02/04/2006 09:50      20.0   7.0  20.1  20.0  43  1015   ---     N     3     3   ---   5.4 Scattered Clouds/
02/04/2006 10:50      20.0   8.0  20.2  20.0  46  1015   ---     N     5     5   ---   6.0 Scattered Clouds/
02/04/2006 11:50      23.0   7.0  22.8  20.2  36  1015   ---     W    13    13   ---   5.4 Scattered Clouds/
02/04/2006 12:50      23.0   5.0  22.6  21.0  31  1015   ---     W    10    10   ---   6.0 Scattered Clouds/
02/04/2006 14:00       0.0   0.0   4.0  -6.7 100   ---   ---     W   ---   ---   ---   --- /
02/04/2006 14:50      20.0  14.0  21.5  14.2  68  1015   ---   WNW    23    23   ---   --- /
02/04/2006 15:50      17.0  11.0  18.5  12.5  68  1015   ---    NW    13    13   ---   0.3 Scattered Clouds/
02/04/2006 16:50      16.0  11.0  17.8  16.0  72  1015   ---     N     5     5   ---   0.3 Scattered Clouds/
02/04/2006 17:20      16.0  11.0  17.8  14.4  72  1015   ---     W     6     6   ---   0.3 Scattered Clouds/
02/04/2006 18:50      15.0  10.0  16.8  12.0  72  1015   ---     W     8     8   ---   0.3 Scattered Clouds/
02/04/2006 19:50      15.0   9.0  16.5  13.3  67  1016   ---   WSW     6     6   ---   0.3 Scattered Clouds/
02/04/2006 20:50      14.0   9.0  15.8  10.8  72  1016   ---    SW     8     8   ---   0.3 Scattered Clouds/
02/04/2006 21:50      15.0   9.0  16.5  12.0  67  1017   ---   SSW     8     8   ---   0.3 Scattered Clouds/
02/04/2006 21:50      15.0   9.0  16.5  12.0  67  1017   ---   SSW     8     8   ---   0.3 Scattered Clouds/None reported
02/04/2006 22:50      15.0   8.0  16.2  13.3  63  1017   ---    SW     6     6   ---   --- /
02/04/2006 23:50      15.0   9.0  16.5  10.0  67  1016   ---     W    13    13   ---   --- /
03/04/2006 00:50      14.0   9.0  15.8  10.8  72  1017   ---     W     8     8   ---   --- /
03/04/2006 01:50      14.0   8.0  15.5  14.0  67  1017   ---     N     2     2   ---   --- /
03/04/2006 02:50      14.0   8.0  15.5  14.0  67  1017   ---     N     3     3   ---   --- /
03/04/2006 03:50      14.0   8.0  15.5  14.0  67  1017   ---     N     5     5   ---   --- /
03/04/2006 04:50      13.0   8.0  14.8  13.0  72  1017   ---     N     3     3   ---   --- /
03/04/2006 05:50      13.0   8.0  14.8  13.0  72  1017   ---     N     5     5   ---   --- /
03/04/2006 06:50      14.0   8.0  15.5   8.7  67  1016   ---     S    13    13   ---   --- /
03/04/2006 07:50      16.0   8.0  16.9  13.2  59  1017   ---    SW     8     8   ---   --- /
03/04/2006 08:50      17.0   9.0  18.0  14.3  59  1017   ---   SSW     8     8   ---   --- /
03/04/2006 09:50      17.0   8.0  17.7  17.0  55  1017   ---     N     3     3   ---   --- /
03/04/2006 10:50      18.0   8.0  18.6  18.0  52  1018   ---     N     5     5   ---   --- /
03/04/2006 11:50      19.0   9.0  19.6  17.7  52  1018   ---     W     6     6   ---   --- /
03/04/2006 12:50      19.0   9.0  19.6  19.0  52  1018   ---     N     5     5   ---   --- /
03/04/2006 13:50      20.0  10.0  20.6  17.8  53  1018   ---     W     8     8   ---   --- /
03/04/2006 14:50      20.0   8.0  20.2  20.0  46  1018   ---    SW     5     5   ---   --- /
03/04/2006 15:50      19.0  10.0  19.8  19.0  56  1017   ---     W     5     5   ---   --- /
03/04/2006 16:50      19.0   9.0  19.6  17.7  52  1017   ---     W     6     6   ---   --- /
03/04/2006 17:50      18.0  11.0  19.2  16.6  64  1017   ---     W     6     6   ---   --- /
03/04/2006 18:50      18.0  11.0  19.2  15.0  64  1017   ---   SSW    10    10   ---   --- /
03/04/2006 19:50      17.0   9.0  18.0  12.5  59  1017   ---   SSW    13    13   ---   6.0 Scattered Clouds/
03/04/2006 20:50      17.0   9.0  18.0  12.5  59  1016   ---     S    13    13   ---   --- /
03/04/2006 21:50      17.0   8.0  17.7  13.8  55  1016   ---     S    10    10   ---   --- /
03/04/2006 22:50      17.0   7.0  17.5  17.0  52  1017   ---     N     3     3   ---   --- /
03/04/2006 23:50      15.0   9.0  16.5  11.3  67  1016   ---    SW    10    10   ---   --- /
04/04/2006 00:50      15.0   8.0  16.2  15.0  63  1016   ---     N     3     3   ---   --- /
04/04/2006 01:50      14.0   8.0  15.5  12.3  67  1016   ---    SW     6     6   ---   --- /
04/04/2006 02:50      14.0   9.0  15.8   8.7  72  1016   ---   WSW    13    13   ---   --- /
04/04/2006 03:50      14.0   7.0  15.2  10.8  63  1015   ---   SSW     8     8   ---   --- /
04/04/2006 04:50      14.0   6.0  14.9  12.3  59  1015   ---    SW     6     6   ---   --- /
04/04/2006 05:50      14.0   7.0  15.2  14.0  63  1015   ---     N     3     3   ---   --- /
04/04/2006 06:50      14.0   8.0  15.5  12.3  67  1015   ---   SSW     6     6   ---   --- /
04/04/2006 07:50      15.0   9.0  16.5  15.0  67  1015   ---     N     2     2   ---   --- /
04/04/2006 08:50      15.0  10.0  16.8  15.0  72  1015   ---     N     5     5   ---   --- /
04/04/2006 09:50      17.0   6.0  17.4  17.0  48  1015   ---     N     3     3   ---   --- /
04/04/2006 10:50      18.0   8.0  18.6  16.6  52  1016   ---     W     6     6   ---   --- /
04/04/2006 11:50      17.0   8.0  17.7  12.5  55  1016   ---    NW    13    13   ---   --- /
04/04/2006 12:50      17.0  10.0  18.2  13.8  63  1016   ---   NNW    10    10   ---   --- /
04/04/2006 13:50      18.0  10.0  19.0  15.5  60  1016   ---   NNW     8     8   ---   --- /
04/04/2006 14:50      17.0  10.0  18.2  12.5  63  1016   ---   NNW    13    13   ---   --- /
04/04/2006 15:50      17.0  11.0  18.5  12.5  68  1016   ---     N    13    13   ---   --- /
04/04/2006 16:50      17.0  12.0  18.8  13.8  72  1015   ---     N    10    10   ---   --- /
04/04/2006 17:50      16.0  11.0  17.8  13.2  72  1015   ---     N     8     8   ---   --- /
04/04/2006 18:50      16.0  11.0  17.8  12.5  72  1015   ---   NNE    10    10   ---   --- /
04/04/2006 19:50      15.0  11.0  17.1  11.3  77  1015   ---    NE    10    10   ---   --- /
04/04/2006 20:50      14.0   9.0  15.8  10.8  72  1015   ---     E     8     8   ---   --- /
04/04/2006 21:50      14.0   9.0  15.8  14.0  72  1015   ---     N     5     5   ---   --- /
04/04/2006 22:50      14.0   9.0  15.8  14.0  72  1015   ---     N     2     2   ---   --- /
04/04/2006 23:50      14.0   8.0  15.5  14.0  67  1015   ---     N     0     0   ---   --- /
05/04/2006 00:50      13.0   7.0  14.4  13.0  67  1015   ---   ---     0     0   ---   --- /
05/04/2006 01:50      13.0   7.0  14.4  13.0  67  1015   ---   ---     2     2   ---   --- /
05/04/2006 02:50      12.0   7.0  13.7  10.1  71  1014   ---     S     6     6   ---   --- /
05/04/2006 03:50      12.0   7.0  13.7  12.0  71  1015   ---     N     3     3   ---   --- /
05/04/2006 04:50      13.0   7.0  14.4   9.7  67  1013   ---   ENE     8     8   ---   --- /
05/04/2006 05:50      13.0   7.0  14.4   9.7  67  1013   ---     E     8     8   ---   --- /
05/04/2006 06:50      11.0   5.0  12.4  11.0  66  1013   ---     N     2     2   ---   --- /
05/04/2006 07:50      12.0   6.0  13.4  12.0  67  1012   ---     N     0     0   ---   --- /
05/04/2006 08:50      15.0   8.0  16.2  13.3  63  1012   ---   NNE     6     6   ---   --- /
05/04/2006 09:50      17.0   9.0  18.0   8.9  59  1011   ---    SW    29    29   ---   --- /
05/04/2006 10:50      22.0   0.0  21.3  16.7  23  1011   ---   SSW    26    26   ---   --- /
05/04/2006 11:50      19.0   6.0  19.1  19.0  43  1011   ---     N     5     5   ---   --- /
05/04/2006 12:50      20.0   6.0  20.0  15.9  40  1012   ---   ENE    14    14   ---   --- /
05/04/2006 13:50      21.0   6.0  20.9  17.2  38  1011   ---    NE    14    14   ---   --- /
05/04/2006 14:50      21.0   6.0  20.9  17.2  38  1010   ---    NE    14    14   ---   5.4 Scattered Clouds/
05/04/2006 15:50      25.0   8.0  24.7  22.0  34  1009   ---    SW    18    18   ---   5.4 Broken Clouds/
05/04/2006 16:50      21.0   9.0  21.3  15.6  46  1008   ---     W    23    43   ---   3.0 Broken Clouds/
05/04/2006 17:50      23.0   6.0  22.7  18.0  33  1008   ---   WSW    29    29   ---   2.4 Broken Clouds/
05/04/2006 18:50      24.0   0.0  23.2  19.3  21  1008   ---   WSW    31    31   ---   0.8 Broken Clouds/
05/04/2006 20:00       0.0   0.0   4.0 -17.1 100   ---   ---   WSW   ---   ---   ---   --- /
05/04/2006 20:50      19.0  11.0  20.0  13.0  60  1008   ---     E    21    21   ---   0.8 Broken Clouds/
05/04/2006 21:50      20.0   4.0  19.7  13.4  35  1008   ---    SW    29    29   ---   0.8 Broken Clouds/
05/04/2006 22:50      23.0   0.0  22.3  18.2  22  1007   ---    SW    26    26   ---   0.8 Broken Clouds/
05/04/2006 23:20      21.0   0.0  20.4  14.6  25  1008   ---     W    32    32   ---   0.8 Broken Clouds/
06/04/2006 01:00       0.0   0.0   4.0 -17.5 100   ---   ---     W   ---   ---   ---   --- /
06/04/2006 01:50      24.0   0.0  23.2  19.5  21  1005   ---   SSW    27    53   ---   0.8 Broken Clouds/
06/04/2006 02:50      25.0   0.0  24.2  21.0  19  1005   ---   WSW    29    53   ---   0.8 Broken Clouds/
06/04/2006 03:50      21.0   0.0  20.4  15.6  25  1004   ---    NW    23    23   ---   0.8 Broken Clouds/
06/04/2006 04:50      21.0   6.0  20.9  14.8  38  1006   ---   WSW    31    31   ---   0.8 Broken Clouds/
06/04/2006 05:50      23.0   0.0  22.3  18.0  22  1006   ---    SW    27    27   ---   0.8 Broken Clouds/
06/04/2006 06:50      21.0   5.0  20.8  15.0  35  1006   ---   SSW    27    27   ---   2.4 Broken Clouds/
06/04/2006 07:50      25.0   0.0  24.2  20.4  19  1004   ---     S    40    40   ---   2.4 Broken Clouds/
06/04/2006 08:50      22.0   6.0  21.8  16.5  35  1004   ---     W    27    27   ---   2.4 Overcast/
06/04/2006 09:50      20.0  12.0  21.0  15.9  60  1006   ---    NE    14    14   ---   2.4 Overcast/
06/04/2006 10:50      18.0  12.0  19.5  11.3  68  1007   ---   NNE    23    23   ---   2.4 Overcast/
06/04/2006 11:50      18.0  13.0  19.8  13.2  73  1009   ---   NNE    14    14   ---   2.4 Overcast/
06/04/2006 12:50      19.0  13.0  20.5  14.5  68  1008   ---    NE    14    14   ---   2.4 Overcast/
06/04/2006 13:50      19.0  13.0  20.5  16.2  68  1008   ---    NW    10    10   ---   2.4 Overcast/
06/04/2006 14:50      21.0  13.0  22.0  21.0  60  1007   ---     N     5     5   ---   2.4 Overcast/
06/04/2006 15:50      23.0  12.0  23.4  23.0  50  1006   ---     N     0     0   ---   2.4 Overcast/
06/04/2006 16:50      20.0  14.0  21.5  15.9  68  1005   ---    NE    14    14   ---   0.8 Overcast/
06/04/2006 17:50      18.0  13.0  19.8  10.0  73  1005   ---    NW    32    32   ---   0.8 Overcast/
06/04/2006 18:50      17.0  12.0  18.8  12.5  72  1007   ---     N    13    13   ---   0.8 Overcast/
06/04/2006 19:50      17.0  11.0  18.5  15.5  68  1008   ---     E     6     6   ---   0.4 Overcast/
06/04/2006 20:50      16.0  10.0  17.5  16.0  68  1008   ---     N     0     0   ---   0.4 Scattered Clouds/
06/04/2006 21:50      15.0  10.0  16.8  15.0  72  1009   ---   ---     0     0   ---   0.4 Scattered Clouds/
06/04/2006 22:50      15.0   9.0  16.5  15.0  67  1009   ---   ---     5     5   ---   0.4 Scattered Clouds/
06/04/2006 23:50      15.0   9.0  16.5  13.3  67  1010   ---    NW     6     6   ---   0.4 Scattered Clouds/
07/04/2006 00:50      15.0   9.0  16.5  12.0  67  1010   ---   NNW     8     8   ---   0.4 Scattered Clouds/
07/04/2006 01:50      15.0   9.0  16.5  11.3  67  1010   ---     N    10    10   ---   0.4 Scattered Clouds/
07/04/2006 02:50      14.0   9.0  15.8   8.7  72  1010   ---   NNE    13    13   ---   0.6 Few Clouds/
07/04/2006 03:50      15.0   9.0  16.5  10.0  67  1010   ---   NNE    13    13   ---   --- /
07/04/2006 04:50      16.0   5.0  16.3  11.3  48  1010   ---   ENE    13    13   ---   --- /
07/04/2006 05:50      16.0   6.0  16.5   9.9  51  1010   ---     E    16    16   ---   --- /
07/04/2006 06:50      16.0   6.0  16.5   9.9  51  1010   ---     E    16    16   ---   --- /
07/04/2006 07:50      16.0   9.0  17.2  16.0  63  1010   ---     N     5     5   ---   --- /
07/04/2006 08:50      17.0   9.0  18.0  15.5  59  1011   ---   WSW     6     6   ---   --- /
07/04/2006 09:50      17.0  10.0  18.2  17.0  63  1011   ---     N     5     5   ---   --- /
07/04/2006 10:50      17.0  13.0  19.2  15.5  77  1012   ---   NNW     6     6   ---   --- /
07/04/2006 11:50      17.0  12.0  18.8  11.9  72  1013   ---   NNW    14    14   ---   --- /
07/04/2006 12:50      18.0  12.0  19.5  15.0  68  1013   ---    NW    10    10   ---   0.6 Few Clouds/
07/04/2006 13:50      18.0  11.0  19.2  15.5  64  1013   ---   NNW     8     8   ---   0.6 Few Clouds/
07/04/2006 14:50      18.0  11.0  19.2  16.6  64  1013   ---   WNW     6     6   ---   0.6 Few Clouds/
07/04/2006 15:50      18.0  12.0  19.5  15.5  68  1013   ---   NNW     8     8   ---   0.6 Few Clouds/
07/04/2006 16:50      18.0  13.0  19.8  13.8  73  1013   ---   NNW    13    13   ---   0.5 Few Clouds/
07/04/2006 17:50      16.0  11.0  17.8   9.9  72  1014   ---     N    16    16   ---   0.5 Few Clouds/
07/04/2006 18:50      16.0  10.0  17.5  12.5  68  1014   ---     N    10    10   ---   0.5 Few Clouds/
07/04/2006 19:50      15.0  10.0  16.8  11.3  72  1014   ---     N    10    10   ---   0.5 Few Clouds/
07/04/2006 20:50      15.0  10.0  16.8  15.0  72  1015   ---     N     3     3   ---   0.5 Few Clouds/
07/04/2006 21:50      14.0   9.0  15.8  14.0  72  1015   ---     N     0     0   ---   0.5 Few Clouds/
07/04/2006 22:50      13.0   8.0  14.8  13.0  72  1016   ---   ---     5     5   ---   --- /
07/04/2006 23:50      14.0   8.0  15.5  14.0  67  1016   ---     N     3     3   ---   --- /
08/04/2006 00:50      14.0   8.0  15.5  14.0  67  1016   ---     N     2     2   ---   --- /
08/04/2006 01:50      13.0   8.0  14.8  13.0  72  1017   ---     N     5     5   ---   --- /
08/04/2006 02:50      13.0   7.0  14.4  11.2  67  1017   ---     S     6     6   ---   --- /
08/04/2006 03:50      13.0   7.0  14.4  13.0  67  1017   ---     N     3     3   ---   --- /
08/04/2006 04:20      12.0   7.0  13.7  12.0  71  1016   ---     N     5     5   ---   --- /
08/04/2006 04:50      12.0   7.0  13.7  12.0  71  1016   ---     N     3     3   ---   --- /
08/04/2006 09:50      15.0  10.0  16.8  15.0  72  1018   ---     N     2     2   ---   0.5 Few Clouds/
08/04/2006 10:50      15.0   9.0  16.5  15.0  67  1018   ---     N     2     2   ---   0.6 Few Clouds/
08/04/2006 12:50      16.0   9.0  17.2  16.0  63  1018   ---     N     5     5   ---   0.6 Few Clouds/
08/04/2006 13:50      16.0   9.0  17.2  13.2  63  1018   ---     N     8     8   ---   0.6 Few Clouds/
08/04/2006 14:50      17.0   9.0  18.0  14.3  59  1018   ---   NNE     8     8   ---   0.6 Few Clouds/
08/04/2006 15:50      17.0  10.0  18.2  11.9  63  1018   ---   NNE    14    14   ---   --- /
08/04/2006 16:50      18.0  10.0  19.0  12.6  60  1018   ---    NE    16    16   ---   --- /
08/04/2006 17:50      17.0  11.0  18.5  11.3  68  1018   ---    NE    16    16   ---   --- /
08/04/2006 19:00       0.0   0.0   4.0 -11.8 100   ---   ---    NE   ---   ---   ---   --- /
08/04/2006 19:50      16.0  11.0  17.8   9.9  72  1018   ---   ENE    16    16   ---   --- /
08/04/2006 20:50      15.0  10.0  16.8  12.0  72  1018   ---   ENE     8     8   ---   --- /
08/04/2006 21:50      14.0   9.0  15.8  14.0  72  1018   ---     N     3     3   ---   --- /
08/04/2006 22:50      14.0   9.0  15.8  14.0  72  1017   ---     N     3     3   ---   --- /
08/04/2006 23:50      13.0   8.0  14.8  13.0  72  1018   ---     N     2     2   ---   --- /
09/04/2006 00:50      13.0   8.0  14.8  13.0  72  1018   ---     N     3     3   ---   --- /
09/04/2006 01:50      12.0   7.0  13.7  12.0  71  1018   ---     N     5     5   ---   --- /
09/04/2006 02:50      13.0   8.0  14.8  13.0  72  1018   ---     N     3     3   ---   --- /
09/04/2006 03:50      13.0   6.0  14.2   9.7  62  1017   ---     E     8     8   ---   --- /
09/04/2006 04:50      13.0   7.0  14.4  13.0  67  1017   ---     N     5     5   ---   --- /
09/04/2006 05:50      12.0   6.0  13.4  12.0  67  1018   ---     N     0     0   ---   --- /
09/04/2006 06:50      11.0   4.0  12.1  11.0  62  1017   ---   ---     2     2   ---   --- /
09/04/2006 07:50      14.0   8.0  15.5  14.0  67  1017   ---     N     0     0   ---   --- /
09/04/2006 08:50      15.0   8.0  16.2  11.3  63  1018   ---    SW    10    10   ---   --- /
09/04/2006 09:50      18.0   6.0  18.2  18.0  45  1018   ---     N     5     5   ---   --- /
09/04/2006 10:50      17.0   7.0  17.5  17.0  52  1018   ---     N     5     5   ---   --- /
09/04/2006 11:50      19.0   7.0  19.2  16.2  46  1018   ---   NNE    10    10   ---   --- /
09/04/2006 12:50      20.0   5.0  19.8  15.9  37  1018   ---   ENE    14    14   ---   --- /
09/04/2006 13:50      21.0   9.0  21.3  16.1  46  1017   ---   ENE    19    19   ---   --- /
09/04/2006 14:50      21.0   9.0  21.3  16.5  46  1017   ---   ENE    18    18   ---   --- /
09/04/2006 15:50      21.0   9.0  21.3  16.1  46  1016   ---   ENE    19    19   ---   --- /
09/04/2006 16:50      21.0  10.0  21.4  17.7  49  1015   ---   ENE    13    13   ---   --- /
09/04/2006 17:50      21.0   9.0  21.3  21.0  46  1015   ---     N     3     3   ---   --- /
09/04/2006 18:50      20.0   9.0  20.4  15.9  49  1015   ---    NE    14    14   ---   --- /
09/04/2006 19:50      19.0  11.0  20.0  16.7  60  1015   ---   NNE     8     8   ---   --- /
09/04/2006 20:50      17.0  11.0  18.5  17.0  68  1015   ---     N     2     2   ---   --- /
09/04/2006 21:50      17.0  10.0  18.2  17.0  63  1015   ---     N     3     3   ---   --- /
09/04/2006 22:50      17.0   9.0  18.0  15.5  59  1014   ---    NE     6     6   ---   --- /
09/04/2006 23:50      16.0  11.0  17.8  16.0  72  1014   ---     N     5     5   ---   --- /
10/04/2006 00:50      23.0   0.0  22.3  17.3  22  1013   ---     S    40    64   ---   --- /
10/04/2006 01:50      24.0   0.0  23.2  18.9  21  1012   ---     S    40    40   ---   --- /
10/04/2006 02:50      24.0   0.0  23.2  18.7  21  1012   ---   SSW    45    71   ---   --- /
10/04/2006 03:50      25.0   0.0  24.2  20.3  19  1011   ---   SSW    45    71   ---   3.6 Scattered Clouds/
10/04/2006 04:50      26.0   0.0  25.2  21.8  18  1010   ---     S    50    79   ---   --- /
10/04/2006 05:50      25.0   0.0  24.2  20.1  19  1010   ---     S    60    90   ---   --- /
10/04/2006 06:20      25.0   0.0  24.2  20.1  19  1010   ---     S    60    84   ---   --- /
10/04/2006 08:00       0.0   0.0   4.0 -20.1 100   ---   ---     S   ---   ---   ---   --- /
10/04/2006 08:50      26.0   0.0  25.2  21.7  18  1010   ---     S    51    74   ---   3.0 Broken Clouds/
10/04/2006 09:50      27.0   0.0  26.0  23.3  17  1011   ---   SSW    53    74   ---   3.0 Broken Clouds/
10/04/2006 10:50      27.0   0.0  26.0  23.5  17  1011   ---     S    45    68   ---   3.0 Broken Clouds/
10/04/2006 11:50      28.0   0.0  26.7  25.1  16  1011   ---   SSW    40    40   ---   3.0 Broken Clouds/
10/04/2006 12:50      29.0   0.0  27.4  27.1  15  1011   ---   SSW    26    26   ---   3.0 Broken Clouds/
10/04/2006 13:50      29.0   0.0  27.4  26.7  15  1011   ---   SSW    39    39   ---   3.0 Broken Clouds/
10/04/2006 14:50      29.0   0.0  27.4  26.9  15  1011   ---   SSW    32    32   ---   3.0 Broken Clouds/
10/04/2006 15:50      28.0   0.0  26.7  25.3  16  1010   ---   SSW    32    32   ---   3.0 Broken Clouds/
10/04/2006 16:50      28.0   0.0  26.7  25.2  16  1010   ---   SSW    37    37   ---   3.0 Broken Clouds/
10/04/2006 17:50      27.0   0.0  26.0  24.3  17  1011   ---    SW    23    23   ---   5.4 Broken Clouds/
10/04/2006 18:50      27.0   0.0  26.0  24.5  17  1010   ---   SSW    19    19   ---   5.4 Broken Clouds/
10/04/2006 19:50      27.0   0.0  26.0  24.3  17  1010   ---   SSW    23    23   ---   5.4 Broken Clouds/
10/04/2006 20:50      27.0   0.0  26.0  23.8  17  1010   ---   SSW    32    32   ---   5.4 Broken Clouds/
10/04/2006 21:50      28.0   0.0  26.7  25.4  16  1009   ---    SW    31    31   ---   5.4 Broken Clouds/
10/04/2006 22:50      29.0   0.0  27.4  26.9  15  1009   ---    SW    31    55   ---   5.4 Broken Clouds/
10/04/2006 23:50      28.0   0.0  26.7  25.1  16  1010   ---   SSW    42    71   ---   2.4 Broken Clouds/
11/04/2006 00:50      27.0   0.0  26.0  24.0  17  1011   ---    SW    29    29   ---   2.4 Broken Clouds/
11/04/2006 01:50      26.0   0.0  25.2  22.5  18  1011   ---   SSW    29    55   ---   2.4 Broken Clouds/
11/04/2006 02:50      25.0   0.0  24.2  20.7  19  1010   ---   SSW    32    32   ---   2.4 Broken Clouds/
11/04/2006 03:50      25.0   0.0  24.2  21.0  19  1010   ---   SSW    27    27   ---   3.9 Broken Clouds/
11/04/2006 04:50      25.0   6.0  24.5  22.0  30  1010   ---   WSW    18    18   ---   --- /
11/04/2006 05:50      18.0  12.0  19.5  10.6  68  1012   ---   WNW    27    27   ---   --- /
11/04/2006 06:50      18.0  12.0  19.5  16.6  68  1012   ---   WSW     6     6   ---   3.9 Broken Clouds/
11/04/2006 07:50      17.0  12.0  18.8  11.3  72  1013   ---     W    16    16   ---   0.5 Broken Clouds/
11/04/2006 08:50      17.0  12.0  18.8  17.0  72  1014   ---     N     5     5   ---   0.5 Broken Clouds/
11/04/2006 09:50      17.0  12.0  18.8  17.0  72  1013   ---     N     3     3   ---   0.3 Broken Clouds/
11/04/2006 09:50      17.0  12.0  18.8  17.0  72  1013   ---   ---     3     3   ---   0.3 Broken Clouds/None reported
11/04/2006 10:50      17.0  12.0  18.8  17.0  72  1012   ---     N     5     5   ---   0.3 Broken Clouds/
11/04/2006 11:50      17.0  11.0  18.5  14.3  68  1014   ---   NNW     8     8   ---   --- Overcast/ Light Rain
11/04/2006 12:50      18.0  12.0  19.5  11.6  68  1009   ---     N    21    21   ---   0.6 Broken Clouds/
11/04/2006 13:50      16.0  11.0  17.8   7.6  72  1014   ---   WNW    27    27   ---   --- Overcast/ Rain Mist
11/04/2006 14:50      16.0  10.0  17.5   8.7  68  1012   ---   WNW    21    21   ---   0.2 Broken Clouds/
11/04/2006 15:50      17.0  11.0  18.5  10.4  68  1012   ---     W    19    19   ---   0.4 Broken Clouds/
11/04/2006 16:50      18.0   7.0  18.4  13.2  49  1010   ---   WSW    14    14   ---   0.6 Broken Clouds/
11/04/2006 17:50      16.0  10.0  17.5   7.8  68  1012   ---     W    26    26   ---   --- Overcast/ Light Rain
11/04/2006 18:50      15.0  10.0  16.8   8.2  72  1011   ---   WSW    18    18   ---   0.6 Broken Clouds/
11/04/2006 19:50      16.0  10.0  17.5   8.4  68  1012   ---     W    23    23   ---   0.6 Broken Clouds/
11/04/2006 20:50      15.0   7.0  15.9   6.4  59  1013   ---   WSW    26    26   ---   0.6 Scattered Clouds/
11/04/2006 21:50      15.0   6.0  15.7   5.4  55  1013   ---   WNW    32    32   ---   0.6 Scattered Clouds/
11/04/2006 22:50      14.0   3.0  14.3   3.3  47  1014   ---   WNW    39    39   ---   0.7 Scattered Clouds/
11/04/2006 23:50      14.0   3.0  14.3   3.2  47  1014   ---   WNW    40    40   ---   0.7 Few Clouds/
12/04/2006 00:50      14.0   2.0  14.2   3.4  44  1013   ---   WNW    37    37   ---   0.7 Few Clouds/
12/04/2006 01:50      13.0   4.0  13.7   2.9  54  1013   ---   WNW    29    29   ---   0.7 Few Clouds/
12/04/2006 02:50      13.0   6.0  14.2   3.4  62  1013   ---   WNW    26    26   ---   0.7 Scattered Clouds/
12/04/2006 03:50      13.0   5.0  13.9   4.8  58  1013   ---   WNW    19    19   ---   0.7 Scattered Clouds/
12/04/2006 04:50      13.0   6.0  14.2   5.5  62  1013   ---   WNW    18    18   ---   0.7 Scattered Clouds/
12/04/2006 05:50      13.0   4.0  13.7   5.8  54  1012   ---   WNW    16    16   ---   0.7 Scattered Clouds/
12/04/2006 06:50      13.0   6.0  14.2   4.8  62  1012   ---   WNW    19    19   ---   0.7 Scattered Clouds/
12/04/2006 07:50      14.0   6.0  14.9   6.2  59  1013   ---     W    19    19   ---   0.7 Scattered Clouds/
12/04/2006 08:50      15.0   5.0  15.5   8.6  51  1013   ---   WNW    16    16   ---   0.7 Scattered Clouds/
12/04/2006 09:50      15.0   5.0  15.5   9.3  51  1014   ---    NW    14    14   ---   0.7 Scattered Clouds/
11/04/2006 10:20      17.0  12.0  18.8  17.0  72  1012   ---     N     2     2   ---   0.3 Broken Clouds/
11/04/2006 11:20      17.0  11.0  18.5  15.5  68  1012   ---     N     6     6   ---   0.3 Broken Clouds/
11/04/2006 11:20      17.0  11.0  18.5  15.5  68  1012   ---     N     6     6   ---   0.3 Broken Clouds/None reported
12/04/2006 13:20      17.0   5.0  17.2  12.5  45  1014   ---     W    13    13   ---   0.7 Few Clouds/
12/04/2006 14:20      17.0   5.0  17.2  12.5  45  1014   ---    NW    13    13   ---   0.7 Few Clouds/
12/04/2006 15:50      17.0   6.0  17.4  11.9  48  1013   ---   WNW    14    14   ---   0.7 Few Clouds/
12/04/2006 16:50      17.0   5.0  17.2  11.0  45  1013   ---   WNW    18    18   ---   0.7 Few Clouds/
12/04/2006 17:50      16.0   5.0  16.3   9.0  48  1012   ---   WNW    19    19   ---   0.7 Few Clouds/
12/04/2006 18:50      15.0   5.0  15.5   7.3  51  1012   ---   WNW    21    21   ---   0.7 Few Clouds/
12/04/2006 19:50      15.0   6.0  15.7   8.6  55  1012   ---   WSW    16    16   ---   0.7 Few Clouds/
12/04/2006 20:50      15.0   6.0  15.7   9.3  55  1013   ---   SSW    14    14   ---   0.7 Few Clouds/
12/04/2006 21:50      14.0   7.0  15.2   6.9  63  1012   ---    SW    18    18   ---   0.7 Few Clouds/
12/04/2006 22:50      14.0   8.0  15.5   6.2  67  1012   ---   SSW    19    19   ---   0.7 Few Clouds/
12/04/2006 23:50      15.0   9.0  16.5   8.2  67  1012   ---   WSW    18    18   ---   0.7 Few Clouds/
13/04/2006 00:50      15.0   9.0  16.5   7.3  67  1012   ---   WSW    21    21   ---   0.7 Scattered Clouds/
13/04/2006 01:50      14.0   8.0  15.5   4.6  67  1012   ---     W    27    27   ---   0.7 Scattered Clouds/
13/04/2006 02:50      14.0   8.0  15.5   4.9  67  1011   ---     W    26    26   ---   0.7 Scattered Clouds/
13/04/2006 03:50      14.0   9.0  15.8   4.4  72  1010   ---     W    29    29   ---   0.7 Scattered Clouds/
13/04/2006 04:50      14.0   9.0  15.8   8.0  72  1010   ---   WSW    14    14   ---   0.7 Scattered Clouds/
13/04/2006 06:00       0.0   0.0   4.0 -10.5 100   ---   ---   WSW   ---   ---   ---   --- /
13/04/2006 06:50      14.0   8.0  15.5   4.9  67  1010   ---   NNW    26    26   ---   0.6 Scattered Clouds/
13/04/2006 07:50      14.0   7.0  15.2   6.9  63  1010   ---    NW    18    18   ---   0.8 Scattered Clouds/
13/04/2006 08:50      15.0   7.0  15.9   8.2  59  1011   ---   NNW    18    18   ---   0.7 Scattered Clouds/
13/04/2006 09:50      15.0   9.0  16.5   6.4  67  1011   ---    NW    26    26   ---   0.7 Scattered Clouds/
13/04/2006 10:50      17.0   9.0  18.0   9.1  59  1012   ---    NW    27    27   ---   0.7 Scattered Clouds/
13/04/2006 11:50      17.0   9.0  18.0   9.8  59  1012   ---   NNW    23    23   ---   0.6 Scattered Clouds/
13/04/2006 11:50      17.0   9.0  18.0   9.8  59  1012   ---   NNW    23    23   ---   0.6 Scattered Clouds/None reported
13/04/2006 12:20      17.0  10.0  18.2   9.8  63  1012   ---   NNW    23    23   ---   0.6 Scattered Clouds/
13/04/2006 13:50      17.0  10.0  18.2  10.1  63  1012   ---     N    21    21   ---   0.7 Scattered Clouds/
13/04/2006 15:00       0.0   0.0   4.0 -14.2 100   ---   ---     N   ---   ---   ---   --- /
13/04/2006 15:50      17.0   7.0  17.5  10.4  52  1013   ---   NNW    19    19   ---   0.7 Scattered Clouds/
13/04/2006 16:50      16.0   8.0  16.9   7.8  59  1013   ---   NNW    26    26   ---   0.7 Scattered Clouds/
13/04/2006 17:50      16.0   7.0  16.7   7.4  55  1013   ---     N    29    29   ---   0.7 Scattered Clouds/
13/04/2006 18:50      15.0   7.0  15.9   5.4  59  1013   ---     N    32    32   ---   0.7 Scattered Clouds/
13/04/2006 19:50      15.0   6.0  15.7   6.1  55  1014   ---     N    27    27   ---   0.7 Scattered Clouds/
13/04/2006 20:50      15.0   7.0  15.9   6.9  59  1014   ---     N    23    23   ---   0.7 Scattered Clouds/
13/04/2006 21:50      14.0   7.0  15.2   5.5  63  1015   ---     N    23    23   ---   0.7 Scattered Clouds/
13/04/2006 22:50      14.0   7.0  15.2   5.8  63  1015   ---     N    21    21   ---   0.7 Scattered Clouds/
13/04/2006 23:50      14.0   6.0  14.9   6.9  59  1016   ---     N    18    18   ---   0.7 Scattered Clouds/
14/04/2006 00:50      14.0   6.0  14.9   7.2  59  1016   ---     N    16    16   ---   0.7 Scattered Clouds/
14/04/2006 01:50      14.0   8.0  15.5   8.0  67  1017   ---     N    14    14   ---   0.7 Scattered Clouds/
14/04/2006 02:50      14.0   9.0  15.8   8.7  72  1018   ---     N    13    13   ---   0.7 Few Clouds/
14/04/2006 03:50      14.0   8.0  15.5   8.0  67  1016   ---     N    14    14   ---   0.7 Few Clouds/
14/04/2006 04:50      14.0   8.0  15.5   7.2  67  1017   ---     N    16    16   ---   0.7 Few Clouds/
14/04/2006 05:50      14.0   8.0  15.5   8.0  67  1018   ---     N    14    14   ---   0.7 Few Clouds/
14/04/2006 06:50      14.0   9.0  15.8   8.7  72  1018   ---     N    13    13   ---   0.7 Few Clouds/
14/04/2006 07:50      15.0  10.0  16.8  11.3  72  1019   ---     N    10    10   ---   0.6 Few Clouds/
14/04/2006 08:50      15.0   9.0  16.5  13.3  67  1019   ---     N     6     6   ---   0.6 Few Clouds/
14/04/2006 09:50      16.0   9.0  17.2  16.0  63  1020   ---     N     3     3   ---   0.6 Few Clouds/
14/04/2006 10:50      16.0   9.0  17.2  16.0  63  1020   ---     N     5     5   ---   0.6 Few Clouds/
14/04/2006 11:50      17.0   9.0  18.0  15.5  59  1021   ---    NW     6     6   ---   0.6 Few Clouds/
14/04/2006 12:50      17.0   8.0  17.7  14.3  55  1021   ---   NNW     8     8   ---   0.6 Few Clouds/
14/04/2006 13:50      17.0   7.0  17.5  15.5  52  1021   ---   NNW     6     6   ---   --- /
14/04/2006 14:50      17.0   6.0  17.4  17.0  48  1021   ---     N     5     5   ---   --- /
14/04/2006 15:50      18.0   8.0  18.6  15.0  52  1021   ---   NNW    10    10   ---   --- /
14/04/2006 16:50      17.0   6.0  17.4  15.5  48  1021   ---   NNW     6     6   ---   --- /
14/04/2006 17:50      18.0   2.0  17.7  18.0  34  1021   ---     N     3     3   ---   --- /
14/04/2006 18:50      17.0   3.0  16.9  14.3  39  1021   ---   NNE     8     8   ---   --- /
14/04/2006 19:50      16.0   5.0  16.3  16.0  48  1021   ---     N     3     3   ---   --- /
14/04/2006 20:50      15.0   6.0  15.7  15.0  55  1021   ---     N     5     5   ---   --- /
14/04/2006 21:50      14.0   6.0  14.9  14.0  59  1021   ---     N     2     2   ---   --- /
14/04/2006 22:50      14.0   3.0  14.3  14.0  47  1022   ---     N     3     3   ---   --- /
14/04/2006 23:50      14.0   4.0  14.5  14.0  51  1023   ---     N     3     3   ---   --- /
15/04/2006 00:50      13.0   4.0  13.7  13.0  54  1022   ---     N     3     3   ---   --- /
15/04/2006 01:50      13.0   5.0  13.9  13.0  58  1022   ---     N     2     2   ---   --- /
15/04/2006 02:50      13.0   1.0  13.1  13.0  44  1022   ---     N     5     5   ---   --- /
15/04/2006 03:50      12.0   2.0  12.5  12.0  50  1022   ---     N     3     3   ---   --- /
15/04/2006 04:50      11.0   4.0  12.1   9.0  62  1021   ---   WSW     6     6   ---   --- /
15/04/2006 05:50      12.0   4.0  12.9  12.0  58  1021   ---     N     0     0   ---   --- /
15/04/2006 06:50      14.0   0.0  13.9  14.0  38  1021   ---   ---     3     3   ---   --- /
15/04/2006 07:50      14.0   5.0  14.7  14.0  55  1021   ---     N     3     3   ---   --- /
15/04/2006 08:50      16.0   4.0  16.2  16.0  45  1022   ---     N     2     2   ---   --- /
15/04/2006 09:50      19.0   1.0  18.5  19.0  30  1022   ---     N     3     3   ---   --- /
15/04/2006 10:50      20.0   3.0  19.6  14.6  32  1023   ---    SW    19    19   ---   --- /
15/04/2006 11:50      21.0   5.0  20.8  17.7  35  1023   ---   SSW    13    13   ---   --- /
15/04/2006 12:50      20.0   6.0  20.0  16.4  40  1023   ---    NE    13    13   ---   --- /
15/04/2006 13:50      20.0   4.0  19.7  15.9  35  1022   ---   ENE    14    14   ---   --- /
15/04/2006 14:50      22.0   0.0  21.3  18.5  23  1022   ---    NE    14    14   ---   --- /
15/04/2006 15:50      21.0   6.0  20.9  16.7  38  1022   ---    NE    16    16   ---   --- /
15/04/2006 16:50      21.0   7.0  21.0  18.6  40  1021   ---     E    10    10   ---   --- /
15/04/2006 17:50      22.0   0.0  21.3  18.9  23  1020   ---   SSW    13    13   ---   --- /
15/04/2006 18:50      20.0   6.0  20.0  16.4  40  1020   ---    NE    13    13   ---   --- /
15/04/2006 19:50      19.0   7.0  19.2  12.7  46  1020   ---    SW    23    23   ---   --- /
15/04/2006 20:50      21.0   0.0  20.4  16.7  25  1020   ---    SW    16    16   ---   --- /
15/04/2006 21:50      17.0  12.0  18.8   9.8  72  1021   ---    SW    23    23   ---   --- /
15/04/2006 22:50      17.0   8.0  17.7   9.8  55  1020   ---    SW    23    23   ---   --- /
15/04/2006 23:50      17.0   8.0  17.7  14.3  55  1020   ---     E     8     8   ---   --- /
16/04/2006 00:50      16.0   9.0  17.2  14.4  63  1020   ---     N     6     6   ---   --- /
16/04/2006 01:50      16.0  10.0  17.5   9.9  68  1019   ---    SW    16    16   ---   --- /
16/04/2006 02:50      23.0   0.0  22.3  17.4  22  1018   ---   SSW    37    55   ---   --- /
16/04/2006 03:50      23.0   0.0  22.3  17.3  22  1017   ---   SSW    40    60   ---   --- /
16/04/2006 04:50      23.0   0.0  22.3  17.2  22  1017   ---   SSW    43    74   ---   --- /
16/04/2006 05:50      23.0   0.0  22.3  17.3  22  1016   ---   SSW    40    77   ---   --- /
16/04/2006 06:50      23.0   0.0  22.3  17.8  22  1016   ---     S    31    53   ---   0.9 Broken Clouds/
16/04/2006 07:50      24.0   0.0  23.2  19.3  21  1017   ---   SSW    31    31   ---   0.9 Broken Clouds/
16/04/2006 08:50      24.0   0.0  23.2  19.3  21  1017   ---   SSW    31    50   ---   3.9 Scattered Clouds/
16/04/2006 09:50      23.0   0.0  22.3  19.8  22  1017   ---     S    14    14   ---   3.9 Scattered Clouds/
16/04/2006 10:50      24.0   0.0  23.2  21.5  21  1017   ---   SSE    13    13   ---   --- /
16/04/2006 11:50      23.0   0.0  22.3  21.0  22  1017   ---   ENE    10    10   ---   3.9 Scattered Clouds/
16/04/2006 12:50      24.0   0.0  23.2  23.2  21  1017   ---    NW     6     6   ---   3.6 Broken Clouds/
16/04/2006 13:50      24.0   0.0  23.2  24.0  21  1016   ---     N     5     5   ---   3.6 Broken Clouds/
16/04/2006 14:50      20.0  13.0  21.3  15.1  64  1017   ---   ENE    18    18   ---   --- /
16/04/2006 15:50      21.0  14.0  22.3  16.7  64  1017   ---    NE    16    16   ---   5.4 Broken Clouds/
16/04/2006 16:50      19.0  13.0  20.5  14.0  68  1016   ---   ENE    16    16   ---   --- /
16/04/2006 17:50      19.0  13.0  20.5  12.7  68  1015   ---   ENE    23    23   ---   --- /
16/04/2006 18:50      19.0  14.0  20.8  14.5  73  1015   ---   ENE    14    14   ---   --- /
16/04/2006 19:50      19.0  12.0  20.2  19.0  64  1014   ---     N     5     5   ---   --- /
16/04/2006 20:50      18.0  12.0  19.5  18.0  68  1014   ---     N     3     3   ---   --- /
16/04/2006 21:50      18.0  12.0  19.5  15.0  68  1015   ---   WSW    10    10   ---   --- /
16/04/2006 22:50      18.0  11.0  19.2  18.0  64  1015   ---     N     5     5   ---   --- /
16/04/2006 23:50      17.0  12.0  18.8  14.3  72  1015   ---    NE     8     8   ---   --- /
17/04/2006 00:50      17.0  12.0  18.8  17.0  72  1014   ---     N     0     0   ---   --- /
17/04/2006 01:50      17.0  12.0  18.8  17.0  72  1014   ---   ---     5     5   ---   --- /
17/04/2006 02:50      17.0  12.0  18.8  17.0  72  1013   ---     N     2     2   ---   5.4 Broken Clouds/
17/04/2006 03:50      16.0  12.0  18.1  14.4  77  1013   ---     E     6     6   ---   5.1 Broken Clouds/
17/04/2006 04:50      17.0  11.0  18.5  15.5  68  1014   ---   SSW     6     6   ---   --- /
17/04/2006 05:50      17.0  11.0  18.5  17.0  68  1011   ---     N     5     5   ---   --- /
17/04/2006 06:50      16.0  10.0  17.5  12.5  68  1010   ---   SSW    10    10   ---   --- /
17/04/2006 07:20      17.0  10.0  18.2  11.9  63  1010   ---    SW    14    14   ---   3.6 Scattered Clouds/
17/04/2006 07:20      17.0  10.0  18.2  11.9  63  1010   ---    SW    14    14   ---   3.6 Scattered Clouds/None reported
17/04/2006 08:50      19.0  10.0  19.8  19.0  56  1011   ---     N     5     5   ---   --- /
17/04/2006 09:50      19.0  13.0  20.5  19.0  68  1012   ---     N     5     5   ---   --- /
17/04/2006 10:20      19.0  14.0  20.8  19.0  73  1012   ---     N     2     2   ---   --- /
17/04/2006 11:50      21.0  11.0  21.6  17.2  53  1010   ---   ENE    14    14   ---   --- /
17/04/2006 12:50      21.0  12.0  21.8  21.0  56  1010   ---     N     2     2   ---   --- /
17/04/2006 13:20      21.0  11.0  21.6  21.0  53  1010   ---     N     2     2   ---   --- /
17/04/2006 14:50      20.0  13.0  21.3  17.4  64  1009   ---   ENE    10    10   ---   3.6 Overcast/
17/04/2006 15:50      20.0  14.0  21.5  20.0  68  1009   ---     N     3     3   ---   3.6 Overcast/
17/04/2006 16:50      20.0  12.0  21.0  17.8  60  1008   ---   WSW     8     8   ---   3.0 Overcast/
17/04/2006 17:50      20.0  12.0  21.0  20.0  60  1008   ---     N     2     2   ---   2.7 Overcast/
17/04/2006 18:50      20.0  13.0  21.3  17.8  64  1006   ---     E     8     8   ---   2.7 Overcast/
17/04/2006 19:50      21.0   8.0  21.1  15.2  43  1007   ---   ENE    26    26   ---   2.7 Overcast/
17/04/2006 20:50      20.0   9.0  20.4  13.1  49  1007   ---     E    32    32   ---   0.9 Overcast/
17/04/2006 21:50      22.0   9.0  22.1  19.8  43  1006   ---     E    10    10   ---   0.9 Overcast/
17/04/2006 22:50      23.0   6.0  22.7  23.0  33  1005   ---     N     3     3   ---   0.9 Overcast/
17/04/2006 23:50      23.0   5.0  22.6  21.0  31  1004   ---     N    10    10   ---   0.9 Overcast/
18/04/2006 00:50      22.0   8.0  22.0  20.2  41  1003   ---     W     8     8   ---   0.9 Overcast/
18/04/2006 01:50      20.0  10.0  20.6  16.4  53  1005   ---     W    13    13   ---   0.9 Overcast/
18/04/2006 02:50      19.0  12.0  20.2  17.7  64  1005   ---   SSW     6     6   ---   0.9 Overcast/
18/04/2006 03:50      18.0  13.0  19.8  16.6  73  1004   ---     N     6     6   ---   0.9 Overcast/
18/04/2006 04:50      18.0  12.0  19.5  15.0  68  1002   ---     E    10    10   ---   0.9 Overcast/
18/04/2006 05:50      18.0  11.0  19.2  11.3  64  1000   ---   ENE    23    23   ---   0.9 Overcast/
18/04/2006 06:50      17.0  12.0  18.8  14.3  72  1000   ---    NW     8     8   ---   0.9 Broken Clouds/
18/04/2006 07:20      17.0  12.0  18.8  17.0  72  1000   ---     N     3     3   ---   0.9 Broken Clouds/
18/04/2006 08:50      19.0  12.0  20.2  19.0  64  1000   ---     N     0     0   ---   4.8 Scattered Clouds/
18/04/2006 10:00       0.0   0.0   4.0   0.0 100   ---   ---     N   ---   ---   ---   --- /
18/04/2006 10:50      19.0  12.0  20.2  17.7  64  1000   ---     W     6     6   ---   --- /
18/04/2006 11:50      20.0  12.0  21.0  20.0  60  1000   ---     N     5     5   ---   --- /
18/04/2006 12:50      19.0  14.0  20.8  19.0  73  1000   ---     N     3     3   ---   0.6 Few Clouds/
18/04/2006 13:50      19.0  14.0  20.8  16.7  73  1000   ---     W     8     8   ---   0.6 Broken Clouds/
18/04/2006 14:50      18.0  14.0  20.2  11.6  77  1000   ---     W    21    21   ---   0.5 Broken Clouds/
18/04/2006 15:50      17.0  12.0  18.8   8.7  72  1001   ---   WNW    31    31   ---   0.3 Broken Clouds/
18/04/2006 16:50      17.0  11.0  18.5   8.5  68  1003   ---   WNW    32    32   ---   0.3 Broken Clouds/
18/04/2006 17:50      16.0  11.0  17.8   7.2  72  1003   ---   WNW    31    50   ---   0.3 Broken Clouds/
18/04/2006 18:50      16.0  11.0  17.8   7.8  72  1003   ---     W    26    26   ---   0.3 Broken Clouds/
18/04/2006 19:50      16.0  11.0  17.8   6.5  72  1004   ---     W    37    37   ---   0.3 Broken Clouds/
18/04/2006 20:50      16.0  10.0  17.5   7.0  68  1005   ---     W    32    32   ---   0.4 Broken Clouds/
18/04/2006 21:50      16.0  10.0  17.5   6.9  68  1006   ---     W    34    34   ---   0.4 Broken Clouds/
18/04/2006 22:50      16.0  10.0  17.5   7.2  68  1007   ---     W    31    31   ---   0.4 Broken Clouds/
18/04/2006 23:50      16.0  10.0  17.5   7.0  68  1007   ---     W    32    32   ---   0.4 Broken Clouds/
19/04/2006 00:50      16.0  11.0  17.8   7.4  72  1008   ---     W    29    29   ---   0.4 Broken Clouds/
19/04/2006 01:50      16.0  11.0  17.8   7.0  72  1007   ---     W    32    32   ---   0.4 Broken Clouds/
19/04/2006 02:50      16.0  11.0  17.8   7.6  72  1008   ---     W    27    27   ---   0.4 Broken Clouds/
19/04/2006 03:50      16.0  11.0  17.8   9.0  72  1008   ---     W    19    19   ---   0.4 Broken Clouds/
19/04/2006 04:50      16.0  10.0  17.5   9.0  68  1009   ---     W    19    19   ---   0.4 Broken Clouds/
19/04/2006 05:50      16.0  10.0  17.5   7.6  68  1009   ---     W    27    27   ---   0.4 Scattered Clouds/
19/04/2006 06:50      16.0  10.0  17.5   7.8  68  1010   ---     W    26    26   ---   0.4 Scattered Clouds/
19/04/2006 07:20      16.0  10.0  17.5   7.8  68  1010   ---     W    26    26   ---   0.4 Few Clouds/
19/04/2006 08:50      17.0  11.0  18.5   9.8  68  1012   ---     W    23    23   ---   0.4 Scattered Clouds/
19/04/2006 10:00       0.0   0.0   4.0 -14.8 100   ---   ---     W   ---   ---   ---   --- /
19/04/2006 10:20      18.0  12.0  19.5  11.6  68  1013   ---     W    21    21   ---   0.4 Few Clouds/
19/04/2006 11:50      18.0  13.0  19.8  11.6  73  1014   ---     W    21    21   ---   0.4 Few Clouds/
19/04/2006 12:50      20.0  13.0  21.3  15.1  64  1014   ---     W    18    18   ---   0.4 Few Clouds/
19/04/2006 13:20      19.0  12.0  20.2  13.7  64  1014   ---     W    18    18   ---   0.4 Few Clouds/
19/04/2006 14:50      19.0  12.0  20.2  14.0  64  1014   ---     W    16    16   ---   0.7 Few Clouds/
19/04/2006 15:50      18.0  12.0  19.5  12.6  68  1014   ---     W    16    16   ---   0.7 Few Clouds/
19/04/2006 16:50      19.0  12.0  20.2  15.1  64  1014   ---     W    13    13   ---   0.7 Few Clouds/
19/04/2006 17:50      18.0  12.0  19.5  15.0  68  1014   ---     W    10    10   ---   0.7 Few Clouds/
19/04/2006 18:50      18.0  12.0  19.5  16.6  68  1014   ---     W     6     6   ---   0.7 Few Clouds/
19/04/2006 19:50      17.0  12.0  18.8  12.5  72  1015   ---     W    13    13   ---   --- /
19/04/2006 20:50      16.0  11.0  17.8  16.0  72  1015   ---     N     5     5   ---   --- /
19/04/2006 21:50      16.0  10.0  17.5  16.0  68  1015   ---     N     5     5   ---   --- /
19/04/2006 22:50      15.0   9.0  16.5  15.0  67  1016   ---     N     3     3   ---   --- /
19/04/2006 23:50      15.0   9.0  16.5  11.3  67  1016   ---   WSW    10    10   ---   --- /
20/04/2006 00:50      15.0   8.0  16.2  11.3  63  1016   ---    SW    10    10   ---   --- /
20/04/2006 01:50      15.0   8.0  16.2  11.3  63  1016   ---    SW    10    10   ---   --- /
20/04/2006 02:50      15.0   9.0  16.5  15.0  67  1015   ---     N     5     5   ---   --- /
20/04/2006 03:50      15.0   9.0  16.5  15.0  67  1015   ---     N     5     5   ---   --- /
20/04/2006 04:50      14.0   8.0  15.5  14.0  67  1015   ---     N     5     5   ---   --- /
20/04/2006 05:50      13.0   8.0  14.8  13.0  72  1015   ---     N     0     0   ---   --- /
20/04/2006 06:50      13.0   8.0  14.8  13.0  72  1015   ---   ---     2     2   ---   --- /
20/04/2006 07:50      15.0   9.0  16.5  15.0  67  1015   ---     N     2     2   ---   0.6 Few Clouds/
20/04/2006 08:50      16.0   8.0  16.9  16.0  59  1016   ---     N     5     5   ---   0.6 Few Clouds/
20/04/2006 09:50      17.0   8.0  17.7  17.0  55  1016   ---     N     3     3   ---   0.6 Few Clouds/
20/04/2006 10:50      18.0   8.0  18.6  18.0  52  1016   ---     N     5     5   ---   0.6 Scattered Clouds/
20/04/2006 11:50      18.0   9.0  18.8  18.0  56  1017   ---     N     5     5   ---   0.6 Scattered Clouds/
20/04/2006 12:50      17.0   9.0  18.0  14.3  59  1016   ---     N     8     8   ---   0.6 Scattered Clouds/
20/04/2006 13:50      18.0  11.0  19.2  15.0  64  1016   ---   NNE    10    10   ---   1.0 Scattered Clouds/
20/04/2006 15:00       0.0   0.0   4.0  -6.7 100   ---   ---   NNE   ---   ---   ---   --- /
20/04/2006 16:00       0.0   0.0   4.0  -6.7 100   ---   ---   NNE   ---   ---   ---   --- /
20/04/2006 16:50      18.0  13.0  19.8  11.6  73  1015   ---    NE    21    21   ---   --- /
20/04/2006 17:50      17.0  13.0  19.2   9.1  77  1015   ---    NE    27    27   ---   --- /
20/04/2006 19:00       0.0   0.0   4.0 -16.4 100   ---   ---    NE   ---   ---   ---   --- /
20/04/2006 19:50      17.0  12.0  18.8  13.8  72  1014   ---   ENE    10    10   ---   --- /
20/04/2006 20:50      16.0  11.0  17.8  13.2  72  1015   ---    SW     8     8   ---   --- /
20/04/2006 21:50      16.0  11.0  17.8  13.2  72  1016   ---     W     8     8   ---   --- /
20/04/2006 22:50      16.0  10.0  17.5  13.2  68  1016   ---   WSW     8     8   ---   --- /
20/04/2006 23:50      15.0  10.0  16.8  12.0  72  1016   ---    SW     8     8   ---   --- /
21/04/2006 00:50      15.0   9.0  16.5  12.0  67  1015   ---     S     8     8   ---   --- /
21/04/2006 01:50      14.0   9.0  15.8  14.0  72  1015   ---     N     3     3   ---   --- /
21/04/2006 02:50      14.0   9.0  15.8  14.0  72  1015   ---     N     2     2   ---   --- /
21/04/2006 03:50      14.0   9.0  15.8  14.0  72  1015   ---     N     0     0   ---   --- /
21/04/2006 04:50      14.0   9.0  15.8  14.0  72  1014   ---   ---     2     2   ---   0.6 Broken Clouds/
21/04/2006 05:50      14.0   9.0  15.8  14.0  72  1015   ---     N     2     2   ---   0.5 Broken Clouds/
21/04/2006 06:50      14.0   9.0  15.8  12.3  72  1014   ---    SW     6     6   ---   0.3 Broken Clouds/
21/04/2006 07:20      14.0   9.0  15.8  12.3  72  1014   ---    SW     6     6   ---   0.2 Broken Clouds/
21/04/2006 08:50      16.0  10.0  17.5  13.2  68  1015   ---     W     8     8   ---   1.2 Scattered Clouds/
21/04/2006 09:50      16.0  10.0  17.5  16.0  68  1016   ---     N     5     5   ---   0.4 Scattered Clouds/
21/04/2006 10:50      16.0  11.0  17.8  16.0  72  1016   ---     N     5     5   ---   0.4 Scattered Clouds/
21/04/2006 11:50      18.0  12.0  19.5  11.3  68  1016   ---    NE    23    23   ---   0.4 Scattered Clouds/
21/04/2006 12:50      18.0  12.0  19.5  10.8  68  1016   ---    NE    26    26   ---   0.4 Scattered Clouds/
21/04/2006 13:20      18.0  12.0  19.5  11.6  68  1016   ---    NE    21    21   ---   0.4 Scattered Clouds/
21/04/2006 14:50      19.0  12.0  20.2  12.3  64  1016   ---    NE    26    26   ---   0.4 Broken Clouds/
21/04/2006 15:50      18.0  13.0  19.8  11.3  73  1016   ---    NE    23    23   ---   0.5 Scattered Clouds/
21/04/2006 16:50      18.0  13.0  19.8  11.3  73  1016   ---    NE    23    23   ---   0.5 Scattered Clouds/
21/04/2006 17:50      17.0  12.0  18.8  10.1  72  1016   ---    NE    21    21   ---   0.5 Scattered Clouds/
21/04/2006 18:50      17.0  12.0  18.8  11.3  72  1016   ---    NE    16    16   ---   0.5 Few Clouds/
21/04/2006 19:50      16.0  11.0  17.8   9.9  72  1016   ---    NE    16    16   ---   --- /
21/04/2006 20:50      16.0  10.0  17.5  12.5  68  1017   ---    NE    10    10   ---   0.4 Few Clouds/
21/04/2006 21:50      16.0  11.0  17.8  11.3  72  1018   ---   ENE    13    13   ---   0.4 Few Clouds/
21/04/2006 22:50      15.0  10.0  16.8  10.0  72  1018   ---    NE    13    13   ---   --- /
21/04/2006 23:50      15.0   9.0  16.5  15.0  67  1018   ---     N     3     3   ---   --- /
22/04/2006 00:50      14.0   9.0  15.8  14.0  72  1018   ---     N     3     3   ---   --- /
22/04/2006 01:50      14.0   8.0  15.5  14.0  67  1018   ---     N     3     3   ---   --- /
22/04/2006 02:50      14.0   8.0  15.5  14.0  67  1018   ---     N     2     2   ---   --- /
22/04/2006 03:50      14.0   8.0  15.5  14.0  67  1018   ---     N     3     3   ---   0.5 Few Clouds/
22/04/2006 04:50      14.0   8.0  15.5  14.0  67  1018   ---     N     5     5   ---   0.5 Scattered Clouds/
22/04/2006 05:50      14.0   8.0  15.5  14.0  67  1018   ---     N     2     2   ---   0.5 Scattered Clouds/
22/04/2006 06:50      14.0   8.0  15.5  14.0  67  1017   ---     N     0     0   ---   0.3 Few Clouds/
22/04/2006 07:20       0.0   0.0   4.0   0.0 100   ---   ---     N   ---   ---   ---   --- /
22/04/2006 08:50      16.0  10.0  17.5  16.0  68  1018   ---   ---     0     0   ---   0.3 Few Clouds/
22/04/2006 09:50      17.0  11.0  18.5  17.0  68  1018   ---   ---     5     5   ---   0.3 Few Clouds/
22/04/2006 10:50      17.0  11.0  18.5  17.0  68  1018   ---     N     5     5   ---   0.3 Few Clouds/
22/04/2006 11:50      17.0  12.0  18.8  15.5  72  1019   ---   NNW     6     6   ---   0.3 Few Clouds/
22/04/2006 12:50      19.0  12.0  20.2  14.5  64  1018   ---   NNE    14    14   ---   0.3 Few Clouds/
22/04/2006 13:50      18.0  12.0  19.5  13.2  68  1018   ---   NNE    14    14   ---   0.3 Few Clouds/
22/04/2006 14:50      19.0   9.0  19.6  14.0  52  1018   ---   NNE    16    16   ---   0.9 Few Clouds/
22/04/2006 15:50      19.0  12.0  20.2  13.7  64  1018   ---    NE    18    18   ---   0.9 Few Clouds/
22/04/2006 16:50      18.0  12.0  19.5  11.8  68  1017   ---    NE    19    19   ---   0.9 Few Clouds/
22/04/2006 17:50      19.0  12.0  20.2  13.7  64  1017   ---    NE    18    18   ---   --- /
22/04/2006 18:50      18.0  12.0  19.5  12.4  68  1017   ---    NE    18    18   ---   --- /
22/04/2006 19:50      17.0  12.0  18.8  11.3  72  1017   ---   ENE    16    16   ---   --- /
22/04/2006 20:50      16.0  11.0  17.8  10.6  72  1017   ---   ENE    14    14   ---   --- /
22/04/2006 21:50      16.0  11.0  17.8  13.2  72  1017   ---   ENE     8     8   ---   --- /
22/04/2006 22:50      16.0  10.0  17.5  16.0  68  1017   ---     N     5     5   ---   --- /
22/04/2006 23:50      15.0   9.0  16.5  15.0  67  1017   ---     N     0     0   ---   --- /
23/04/2006 00:50      14.0   9.0  15.8  14.0  72  1018   ---   ---     2     2   ---   --- /
23/04/2006 01:50      14.0   9.0  15.8  14.0  72  1017   ---     N     2     2   ---   --- /
23/04/2006 02:50      14.0   8.0  15.5  14.0  67  1018   ---     N     3     3   ---   --- /
23/04/2006 03:50      14.0   8.0  15.5  14.0  67  1017   ---     N     0     0   ---   --- /
23/04/2006 04:50      14.0   8.0  15.5  14.0  67  1017   ---   ---     0     0   ---   --- /
23/04/2006 05:50      13.0   8.0  14.8  13.0  72  1016   ---   ---     3     3   ---   --- /
23/04/2006 06:50      13.0   7.0  14.4  13.0  67  1017   ---     N     0     0   ---   --- /
23/04/2006 07:20      14.0   8.0  15.5  14.0  67  1016   ---   ---     0     0   ---   --- /
23/04/2006 08:50      17.0  11.0  18.5  17.0  68  1017   ---   ---     2     2   ---   --- /
23/04/2006 09:50      18.0  11.0  19.2  18.0  64  1017   ---     N     3     3   ---   --- /
23/04/2006 10:50      18.0  11.0  19.2  18.0  64  1017   ---     N     5     5   ---   --- /
23/04/2006 11:50      20.0  11.0  20.8  15.3  56  1017   ---   ENE    16    16   ---   --- /
23/04/2006 12:50      22.0  10.0  22.3  17.9  46  1017   ---   ENE    18    18   ---   --- /
23/04/2006 13:20      21.0  11.0  21.6  15.8  53  1016   ---   ENE    21    21   ---   --- /
23/04/2006 14:50      20.0  13.0  21.3  13.8  64  1016   ---   ENE    26    26   ---   --- /
23/04/2006 16:50      21.0  10.0  21.4  16.1  49  1015   ---   ENE    19    19   ---   --- /
23/04/2006 17:50      21.0  10.0  21.4  17.2  49  1014   ---   ENE    14    14   ---   --- /
23/04/2006 18:50      20.0  10.0  20.6  17.8  53  1014   ---   ENE     8     8   ---   --- /
23/04/2006 19:50      20.0  12.0  21.0  20.0  60  1015   ---     N     3     3   ---   --- /
23/04/2006 20:50      19.0   8.0  19.4  14.0  49  1015   ---    SW    16    16   ---   --- /
23/04/2006 21:50      18.0  12.0  19.5  13.2  68  1016   ---   WSW    14    14   ---   --- /
23/04/2006 22:50      17.0  12.0  18.8  17.0  72  1016   ---     N     5     5   ---   --- /
23/04/2006 23:50      17.0  12.0  18.8  14.3  72  1016   ---   ENE     8     8   ---   --- /
24/04/2006 00:50      16.0  10.0  17.5  16.0  68  1016   ---     N     2     2   ---   --- /
24/04/2006 01:50      16.0  10.0  17.5  13.2  68  1016   ---     E     8     8   ---   --- /
24/04/2006 02:50      16.0  10.0  17.5  13.2  68  1016   ---    SW     8     8   ---   --- /
24/04/2006 03:50      15.0   9.0  16.5  15.0  67  1015   ---     N     0     0   ---   --- /
24/04/2006 04:50      15.0   9.0  16.5  15.0  67  1014   ---   ---     3     3   ---   --- /
24/04/2006 05:50      14.0   9.0  15.8  14.0  72  1014   ---     N     2     2   ---   --- /
24/04/2006 06:50      14.0   9.0  15.8  14.0  72  1014   ---     N     2     2   ---   --- /
24/04/2006 07:50      16.0  10.0  17.5  16.0  68  1014   ---     N     3     3   ---   --- /
24/04/2006 08:50      18.0   8.0  18.6  18.0  52  1015   ---     N     2     2   ---   --- /
24/04/2006 08:50      18.0   8.0  18.6  18.0  52  1015   ---   ---     2     2   ---   --- None reported/None reported
24/04/2006 09:50      19.0   9.0  19.6  19.0  52  1016   ---     N     5     5   ---   --- /
24/04/2006 10:50      20.0  11.0  20.8  20.0  56  1016   ---     N     3     3   ---   --- /
24/04/2006 11:50      20.0  14.0  21.5  15.3  68  1016   ---    NE    16    16   ---   --- /
24/04/2006 12:50      22.0  11.0  22.4  17.5  50  1016   ---   ENE    19    19   ---   --- /
24/04/2006 13:50      21.0  14.0  22.3  15.6  64  1015   ---   ENE    23    23   ---   --- /
24/04/2006 14:50      22.0  13.0  22.8  17.5  57  1015   ---    NE    19    19   ---   --- /
24/04/2006 15:50      22.0  11.0  22.4  17.5  50  1015   ---   ENE    19    19   ---   --- /
24/04/2006 16:50      22.0  11.0  22.4  17.1  50  1014   ---   ENE    23    23   ---   --- /
24/04/2006 17:50      22.0  11.0  22.4  17.5  50  1014   ---     E    19    19   ---   --- /
24/04/2006 19:00       0.0   0.0   4.0 -13.6 100   ---   ---     E   ---   ---   ---   --- /
24/04/2006 19:50      20.0  14.0  21.5  17.4  68  1014   ---   WSW    10    10   ---   --- /
24/04/2006 20:50      20.0  13.0  21.3  20.0  64  1014   ---     N     3     3   ---   --- /
24/04/2006 21:50      18.0  13.0  19.8  18.0  73  1015   ---     N     2     2   ---   --- /
24/04/2006 22:50      17.0  13.0  19.2  13.8  77  1015   ---   SSW    10    10   ---   --- /
24/04/2006 23:50      17.0  13.0  19.2  17.0  77  1016   ---     N     5     5   ---   --- /
25/04/2006 00:50      17.0  12.0  18.8  17.0  72  1016   ---     N     3     3   ---   --- /
25/04/2006 01:50      17.0  12.0  18.8  17.0  72  1016   ---     N     0     0   ---   --- /
25/04/2006 02:50      15.0  10.0  16.8  13.3  72  1015   ---   ENE     6     6   ---   --- /
25/04/2006 03:50      16.0  11.0  17.8   7.8  72  1015   ---   ENE    26    26   ---   --- /
25/04/2006 04:50      17.0  10.0  18.2  14.3  63  1014   ---     E     8     8   ---   --- /
25/04/2006 05:50      17.0   7.0  17.5  15.5  52  1014   ---   SSW     6     6   ---   --- /
25/04/2006 07:00       0.0   0.0   4.0  -3.0 100   ---   ---   SSW   ---   ---   ---   --- /
25/04/2006 07:50      17.0   8.0  17.7  17.0  55  1015   ---     N     3     3   ---   0.5 Broken Clouds/
25/04/2006 08:50      19.0   9.0  19.6  19.0  52  1016   ---     N     2     2   ---   0.6 Broken Clouds/
25/04/2006 09:50      19.0   9.0  19.6  19.0  52  1016   ---     N     5     5   ---   0.6 Broken Clouds/
25/04/2006 10:50      21.0   5.0  20.8  21.0  35  1016   ---     N     5     5   ---   0.6 Broken Clouds/
25/04/2006 12:00       0.0   0.0   4.0   0.0 100   ---   ---     N   ---   ---   ---   --- /
25/04/2006 12:50      21.0  10.0  21.4  21.0  49  1016   ---     N     3     3   ---   0.6 Broken Clouds/
25/04/2006 13:50      20.0  14.0  21.5  15.9  68  1016   ---    NE    14    14   ---   0.7 Broken Clouds/
25/04/2006 14:50      20.0  10.0  20.6  14.2  53  1015   ---   ENE    23    23   ---   0.7 Broken Clouds/
25/04/2006 15:50      21.0   5.0  20.8  15.6  35  1015   ---     E    23    23   ---   0.7 Broken Clouds/
25/04/2006 16:50      22.0   6.0  21.8  16.5  35  1014   ---     E    27    27   ---   1.0 Scattered Clouds/
25/04/2006 17:50      21.0   5.0  20.8  15.8  35  1014   ---   ENE    21    21   ---   1.0 Broken Clouds/
25/04/2006 18:50      21.0  11.0  21.6  19.0  53  1014   ---   WSW     8     8   ---   1.0 Broken Clouds/
25/04/2006 19:50      19.0  11.0  20.0  16.7  60  1015   ---   WSW     8     8   ---   1.0 Scattered Clouds/
25/04/2006 20:50      19.0  11.0  20.0  16.2  60  1014   ---   ENE    10    10   ---   1.0 Scattered Clouds/
25/04/2006 21:50      19.0  10.0  19.8  19.0  56  1013   ---     N     3     3   ---   1.0 Scattered Clouds/
25/04/2006 22:50      19.0  12.0  20.2  14.0  64  1014   ---     W    16    16   ---   1.0 Scattered Clouds/
25/04/2006 23:50      18.0  11.0  19.2  18.0  64  1015   ---     N     2     2   ---   --- /
26/04/2006 00:50      17.0  11.0  18.5  17.0  68  1014   ---     N     0     0   ---   --- /
26/04/2006 01:50      19.0  10.0  19.8  19.0  56  1014   ---   ---     5     5   ---   --- /
26/04/2006 02:50      19.0   8.0  19.4  19.0  49  1013   ---     N     2     2   ---   --- /
26/04/2006 03:50      18.0  13.0  19.8  15.5  73  1013   ---   ENE     8     8   ---   2.4 Broken Clouds/
26/04/2006 04:50      18.0   8.0  18.6  15.5  52  1013   ---    SE     8     8   ---   --- /
26/04/2006 05:50      18.0  10.0  19.0  18.0  60  1013   ---     N     2     2   ---   0.9 Scattered Clouds/
26/04/2006 06:50      18.0   9.0  18.8  15.5  56  1013   ---   SSW     8     8   ---   0.9 Broken Clouds/
26/04/2006 07:20      19.0   8.0  19.4  19.0  49  1014   ---     N     5     5   ---   0.9 Broken Clouds/
26/04/2006 08:50      19.0  10.0  19.8  16.2  56  1014   ---    NE    10    10   ---   0.9 Broken Clouds/
26/04/2006 09:50      19.0  13.0  20.5  19.0  68  1015   ---     N     3     3   ---   --- Overcast/ Light Rain
26/04/2006 10:50      20.0  13.0  21.3  20.0  64  1014   ---     N     3     3   ---   0.9 Broken Clouds/
26/04/2006 11:50      23.0   6.0  22.7  18.5  33  1014   ---     E    23    23   ---   0.9 Broken Clouds/
26/04/2006 12:50      21.0   9.0  21.3  14.9  46  1014   ---   ENE    29    29   ---   1.2 Broken Clouds/
26/04/2006 13:50      21.0  10.0  21.4  15.6  49  1013   ---   ENE    23    23   ---   1.2 Broken Clouds/
26/04/2006 14:50      21.0  10.0  21.4  15.0  49  1013   ---   ENE    27    27   ---   1.2 Broken Clouds/
26/04/2006 15:50      21.0  11.0  21.6  15.6  53  1012   ---   ENE    23    23   ---   1.2 Broken Clouds/
26/04/2006 16:50      21.0  10.0  21.4  16.5  49  1012   ---    NE    18    18   ---   1.2 Broken Clouds/
26/04/2006 18:00       0.0   0.0   4.0 -12.4 100   ---   ---    NE   ---   ---   ---   --- /
26/04/2006 18:50      18.0  13.0  19.8  13.2  73  1013   ---     N    14    14   ---   --- Overcast/ Light Rain
26/04/2006 19:50      17.0  12.0  18.8  17.0  72  1014   ---     N     2     2   ---   0.1 Broken Clouds/
26/04/2006 20:50      17.0  12.0  18.8  17.0  72  1014   ---     N     2     2   ---   0.1 Broken Clouds/
26/04/2006 21:20      17.0  12.0  18.8  17.0  72  1014   ---     N     3     3   ---   0.1 Broken Clouds/
26/04/2006 22:50      16.0  11.0  17.8  13.2  72  1014   ---   NNE     8     8   ---   --- Overcast/ Light Rain
26/04/2006 23:50      16.0  10.0  17.5  11.3  68  1015   ---   ENE    13    13   ---   --- Overcast/ Light Rain
27/04/2006 00:50      16.0  10.0  17.5   9.6  68  1013   ---     E    18    18   ---   --- Overcast/ Light Rain
27/04/2006 01:50      16.0  10.0  17.5  14.4  68  1013   ---    SW     6     6   ---   --- Overcast/ Light Rain
27/04/2006 02:50      16.0  10.0  17.5  14.4  68  1014   ---    NE     6     6   ---   0.9 Broken Clouds/
27/04/2006 03:50      15.0   9.0  16.5  12.0  67  1013   ---   ENE     8     8   ---   --- Overcast/ Light Rain
27/04/2006 04:50      16.0  10.0  17.5  16.0  68  1012   ---     N     0     0   ---   --- Overcast/ Light Rain
27/04/2006 06:00       0.0   0.0   4.0   0.0 100   ---   ---     N   ---   ---   ---   --- /
27/04/2006 06:50      16.0  10.0  17.5  16.0  68  1012   ---   ---     0     0   ---   0.9 Broken Clouds/
27/04/2006 07:20      16.0  10.0  17.5  16.0  68  1011   ---   ---     0     0   ---   0.9 Broken Clouds/
27/04/2006 08:50      16.0  11.0  17.8  14.4  72  1012   ---     N     6     6   ---   --- / Drizzle
27/04/2006 09:50      16.0  11.0  17.8  11.3  72  1012   ---     E    13    13   ---   --- / Drizzle
27/04/2006 10:50      16.0  11.0  17.8  13.2  72  1012   ---     E     8     8   ---   --- Overcast/ Light Rain
27/04/2006 11:50      17.0  11.0  18.5  14.3  68  1012   ---     E     8     8   ---   --- Overcast/ Light Rain
27/04/2006 12:50      17.0  11.0  18.5  17.0  68  1012   ---     N     5     5   ---   --- / Drizzle
27/04/2006 13:50      17.0  11.0  18.5  17.0  68  1012   ---     N     2     2   ---   --- / Drizzle
27/04/2006 14:50      17.0  11.0  18.5  17.0  68  1012   ---     N     3     3   ---   0.1 Broken Clouds/
27/04/2006 15:50      17.0  11.0  18.5  14.3  68  1012   ---    NE     8     8   ---   0.1 Broken Clouds/
27/04/2006 16:50      16.0  11.0  17.8  11.3  72  1012   ---    NE    13    13   ---   0.3 Broken Clouds/
27/04/2006 17:50      16.0  11.0  17.8  10.6  72  1012   ---   ENE    14    14   ---   0.4 Broken Clouds/
27/04/2006 18:50      16.0  10.0  17.5  10.6  68  1011   ---   ENE    14    14   ---   0.4 Broken Clouds/
27/04/2006 18:50      16.0  10.0  17.5  10.6  68  1011   ---   ENE    14    14   ---   0.4 Broken Clouds/None reported
27/04/2006 19:50      16.0  10.0  17.5  13.2  68  1011   ---   ENE     8     8   ---   0.4 Broken Clouds/
27/04/2006 20:50      16.0  10.0  17.5  16.0  68  1011   ---     N     2     2   ---   0.4 Broken Clouds/
27/04/2006 21:50      15.0   9.0  16.5  15.0  67  1011   ---     N     2     2   ---   0.4 Broken Clouds/
27/04/2006 22:50      15.0   9.0  16.5  13.3  67  1012   ---    SW     6     6   ---   0.7 Broken Clouds/
27/04/2006 23:50      14.0   8.0  15.5  10.1  67  1012   ---    SW    10    10   ---   0.7 Broken Clouds/
28/04/2006 00:50      14.0   8.0  15.5  14.0  67  1011   ---     N     5     5   ---   0.7 Broken Clouds/
28/04/2006 01:50      14.0   8.0  15.5  14.0  67  1011   ---     N     5     5   ---   0.7 Broken Clouds/
28/04/2006 02:50      13.0   8.0  14.8  13.0  72  1010   ---     N     0     0   ---   0.8 Scattered Clouds/
28/04/2006 03:50      14.0   8.0  15.5  14.0  67  1009   ---   ---     3     3   ---   0.8 Scattered Clouds/
28/04/2006 04:50      14.0   8.0  15.5  14.0  67  1009   ---     N     0     0   ---   0.8 Scattered Clouds/
28/04/2006 05:50      13.0   7.0  14.4  13.0  67  1009   ---   ---     0     0   ---   0.8 Scattered Clouds/
28/04/2006 06:50      13.0   7.0  14.4  13.0  67  1008   ---   ---     0     0   ---   0.8 Scattered Clouds/
28/04/2006 07:50      15.0   9.0  16.5  15.0  67  1008   ---   ---     0     0   ---   --- /
28/04/2006 07:50      15.0   9.0  16.5  15.0  67  1008   ---   ---     0     0   ---   --- None reported/None reported
28/04/2006 08:50      17.0  11.0  18.5  17.0  68  1008   ---   ---     2     2   ---   0.6 Scattered Clouds/
28/04/2006 09:50      17.0  11.0  18.5  17.0  68  1008   ---     N     5     5   ---   0.6 Scattered Clouds/
28/04/2006 10:50      18.0  12.0  19.5  13.8  68  1008   ---    NE    13    13   ---   0.6 Few Clouds/
28/04/2006 11:50      18.0  12.0  19.5  15.0  68  1008   ---   NNE    10    10   ---   0.6 Few Clouds/
28/04/2006 12:50      18.0  12.0  19.5  15.5  68  1008   ---   NNE     8     8   ---   0.5 Scattered Clouds/
28/04/2006 13:50      18.0  13.0  19.8  15.0  73  1008   ---   NNE    10    10   ---   0.6 Few Clouds/
28/04/2006 14:50      18.0  13.0  19.8  15.0  73  1008   ---   NNE    10    10   ---   0.6 Few Clouds/
28/04/2006 15:50      19.0  12.0  20.2  14.5  64  1008   ---   NNE    14    14   ---   0.6 Few Clouds/
28/04/2006 17:00       0.0   0.0   4.0 -10.5 100   ---   ---   NNE   ---   ---   ---   --- /
28/04/2006 17:50      18.0  12.0  19.5  18.0  68  1008   ---     N     3     3   ---   0.6 Few Clouds/
28/04/2006 18:50      18.0  12.0  19.5  18.0  68  1007   ---     N     2     2   ---   0.6 Scattered Clouds/
28/04/2006 19:50      18.0  12.0  19.5  18.0  68  1008   ---     N     2     2   ---   0.6 Scattered Clouds/
28/04/2006 20:50      17.0  12.0  18.8  17.0  72  1008   ---     N     2     2   ---   0.6 Scattered Clouds/
28/04/2006 22:00       0.0   0.0   4.0   0.0 100   ---   ---     N   ---   ---   ---   --- /
28/04/2006 22:50      16.0  11.0  17.8  14.4  72  1008   ---   SSW     6     6   ---   0.6 Scattered Clouds/
28/04/2006 23:50      16.0  11.0  17.8  12.5  72  1008   ---     W    10    10   ---   0.5 Scattered Clouds/
29/04/2006 00:50      16.0  10.0  17.5  13.2  68  1008   ---   SSW     8     8   ---   0.5 Scattered Clouds/
29/04/2006 01:50      16.0  10.0  17.5  11.3  68  1008   ---    SW    13    13   ---   0.7 Scattered Clouds/
29/04/2006 02:50      16.0  10.0  17.5  10.6  68  1007   ---   SSW    14    14   ---   0.7 Scattered Clouds/
29/04/2006 03:50      16.0  10.0  17.5  10.6  68  1008   ---     S    14    14   ---   0.7 Scattered Clouds/
29/04/2006 04:50      16.0  10.0  17.5   9.9  68  1007   ---   SSW    16    16   ---   0.7 Scattered Clouds/
29/04/2006 05:50      16.0  10.0  17.5   9.0  68  1006   ---   SSW    19    19   ---   0.7 Scattered Clouds/
29/04/2006 06:50      16.0  10.0  17.5   9.6  68  1007   ---   SSW    18    18   ---   0.7 Scattered Clouds/
29/04/2006 07:20      16.0  10.0  17.5  10.6  68  1006   ---   SSW    14    14   ---   0.7 Scattered Clouds/
29/04/2006 07:20      16.0  10.0  17.5  10.6  68  1006   ---   SSW    14    14   ---   0.7 Scattered Clouds/None reported
29/04/2006 08:50      17.0  11.0  18.5  11.0  68  1006   ---   SSW    18    18   ---   0.7 Broken Clouds/
29/04/2006 09:50      18.0  10.0  19.0  12.4  60  1006   ---   SSW    18    18   ---   0.7 Scattered Clouds/
29/04/2006 10:50      19.0  11.0  20.0  13.7  60  1006   ---    SW    18    18   ---   0.7 Broken Clouds/
29/04/2006 11:50      19.0  13.0  20.5  13.7  68  1007   ---   WSW    18    18   ---   0.5 Scattered Clouds/
29/04/2006 12:50      19.0  12.0  20.2  16.2  64  1007   ---     W    10    10   ---   0.5 Scattered Clouds/
29/04/2006 13:50      19.0  14.0  20.8  13.2  73  1007   ---     W    19    19   ---   0.5 Scattered Clouds/
29/04/2006 14:50      19.0  14.0  20.8  13.7  73  1007   ---   WNW    18    18   ---   0.6 Scattered Clouds/
29/04/2006 14:50      19.0  14.0  20.8  13.7  73  1007   ---   WNW    18    18   ---   0.6 Scattered Clouds/None reported
29/04/2006 15:50      19.0  13.0  20.5  12.3  68  1007   ---   WNW    26    26   ---   0.5 Scattered Clouds/
29/04/2006 16:50      18.0  13.0  19.8  13.2  73  1006   ---   WNW    14    14   ---   0.5 Scattered Clouds/
29/04/2006 17:50      17.0  12.0  18.8  11.3  72  1007   ---    NW    16    16   ---   0.5 Scattered Clouds/
29/04/2006 19:00       0.0   0.0   4.0 -11.8 100   ---   ---    NW   ---   ---   ---   --- /
29/04/2006 20:00       0.0   0.0   4.0 -11.8 100   ---   ---    NW   ---   ---   ---   --- /
29/04/2006 21:00       0.0   0.0   4.0 -11.8 100   ---   ---    NW   ---   ---   ---   --- /
29/04/2006 22:00       0.0   0.0   4.0 -11.8 100   ---   ---    NW   ---   ---   ---   --- /
29/04/2006 23:00       0.0   0.0   4.0 -11.8 100   ---   ---    NW   ---   ---   ---   --- /
29/04/2006 23:50      16.0  11.0  17.8  11.3  72  1007   ---   SSW    13    13   ---   0.6 Scattered Clouds/
30/04/2006 00:50      16.0  10.0  17.5   9.6  68  1007   ---   SSW    18    18   ---   0.6 Scattered Clouds/
30/04/2006 01:50      16.0  11.0  17.8  10.6  72  1008   ---    SW    14    14   ---   0.7 Scattered Clouds/
30/04/2006 02:50      16.0  11.0  17.8   9.6  72  1007   ---   SSW    18    18   ---   0.7 Scattered Clouds/
30/04/2006 03:50      16.0  11.0  17.8   7.8  72  1007   ---     W    26    26   ---   0.7 Scattered Clouds/
30/04/2006 04:50      16.0  10.0  17.5   7.6  68  1007   ---   WNW    27    27   ---   0.7 Scattered Clouds/
30/04/2006 05:50      16.0  10.0  17.5   7.6  68  1007   ---   WNW    27    27   ---   0.7 Scattered Clouds/
30/04/2006 06:50      16.0  10.0  17.5   7.8  68  1007   ---     W    26    26   ---   0.7 Scattered Clouds/
30/04/2006 07:50      16.0  11.0  17.8  11.3  72  1008   ---     W    13    13   ---   0.6 Scattered Clouds/
30/04/2006 08:50      17.0  10.0  18.2  12.5  63  1008   ---   SSW    13    13   ---   0.6 Broken Clouds/
30/04/2006 09:50      17.0   9.0  18.0  11.9  59  1008   ---    SW    14    14   ---   0.6 Scattered Clouds/
30/04/2006 10:50      19.0  10.0  19.8  14.5  56  1009   ---    SW    14    14   ---   0.6 Few Clouds/
30/04/2006 11:50      19.0  11.0  20.0  15.1  60  1009   ---     W    13    13   ---   0.6 Few Clouds/
30/04/2006 12:50      20.0  12.0  21.0  14.4  60  1009   ---   WNW    21    21   ---   0.6 Few Clouds/
30/04/2006 13:50      19.0  11.0  20.0  11.9  60  1010   ---   WNW    29    29   ---   0.6 Few Clouds/
30/04/2006 14:50      19.0  11.0  20.0  12.3  60  1010   ---   WNW    26    26   ---   0.6 Few Clouds/
30/04/2006 15:50      19.0  12.0  20.2  11.7  64  1010   ---   WNW    31    31   ---   0.6 Few Clouds/
30/04/2006 16:50      18.0  10.0  19.0  10.2  60  1010   ---   WNW    31    31   ---   0.6 Scattered Clouds/
30/04/2006 17:50      18.0  11.0  19.2  10.8  64  1011   ---   WNW    26    26   ---   0.6 Scattered Clouds/
30/04/2006 18:20      18.0  11.0  19.2  11.3  64  1010   ---   WNW    23    23   ---   0.6 Scattered Clouds/
30/04/2006 19:20      18.0   9.0  18.8  12.6  56  1010   ---     W    16    16   ---   0.6 Few Clouds/
30/04/2006 21:00       0.0   0.0   4.0 -11.8 100   ---   ---     W   ---   ---   ---   --- /
30/04/2006 21:50      16.0  10.0  17.5   9.6  68  1012   ---    SW    18    18   ---   --- /
30/04/2006 22:50      16.0  10.0  17.5   9.6  68  1012   ---    SW    18    18   ---   --- /
30/04/2006 23:50      16.0  10.0  17.5   9.0  68  1013   ---   SSW    19    19   ---   --- /
01/05/2006 00:50      16.0  10.0  17.5   8.7  68  1012   ---   SSW    21    21   ---   --- /
01/05/2006 01:20      16.0  10.0  17.5   9.6  68  1012   ---   SSW    18    18   ---   --- /
01/05/2006 02:50       0.0   0.0   4.0 -10.5 100  1012   ---   SSW    14    14   ---   --- /
01/05/2006 04:00       0.0   0.0   4.0 -10.5 100   ---   ---   SSW   ---   ---   ---   --- /
01/05/2006 04:50      15.0   8.0  16.2   9.3  63  1012   ---    SW    14    14   ---   --- /
01/05/2006 05:50      15.0  10.0  16.8   6.4  72  1011   ---   SSW    26    26   ---   --- /
01/05/2006 06:50      15.0  10.0  16.8   6.4  72  1012   ---   SSW    26    26   ---   --- /
01/05/2006 09:00       0.0   0.0   4.0 -15.9 100   ---   ---   SSW   ---   ---   ---   --- /
01/05/2006 09:50      18.0  11.0  19.2  11.8  64  1014   ---   WSW    19    19   ---   0.6 Scattered Clouds/
01/05/2006 11:50      19.0  11.0  20.0  14.0  60  1014   ---   WNW    16    16   ---   0.6 Few Clouds/
01/05/2006 12:50      19.0  12.0  20.2  16.2  64  1014   ---   WNW    10    10   ---   0.6 Few Clouds/
01/05/2006 13:20      19.0  12.0  20.2  13.7  64  1014   ---    NW    18    18   ---   0.6 Few Clouds/
01/05/2006 14:50      18.0  11.0  19.2  13.8  64  1014   ---   NNW    13    13   ---   0.6 Few Clouds/
01/05/2006 15:50      18.0  10.0  19.0  16.6  60  1014   ---   NNW     6     6   ---   0.6 Few Clouds/
01/05/2006 16:50      19.0  12.0  20.2  17.7  64  1014   ---     N     6     6   ---   0.6 Few Clouds/
01/05/2006 17:50      18.0  13.0  19.8  18.0  73  1014   ---     N     5     5   ---   0.6 Few Clouds/
01/05/2006 18:50      18.0  13.0  19.8  18.0  73  1014   ---     N     5     5   ---   0.6 Few Clouds/
01/05/2006 20:00       0.0   0.0   4.0   0.0 100   ---   ---     N   ---   ---   ---   --- /
01/05/2006 20:50      17.0  12.0  18.8  14.3  72  1015   ---   ENE     8     8   ---   0.6 Few Clouds/
01/05/2006 21:50      16.0  12.0  18.1  14.4  77  1015   ---   ENE     6     6   ---   0.6 Few Clouds/
01/05/2006 22:50      16.0  11.0  17.8  14.4  72  1016   ---     E     6     6   ---   0.7 Few Clouds/
01/05/2006 23:50      16.0  11.0  17.8  14.4  72  1017   ---     E     6     6   ---   0.7 Few Clouds/
02/05/2006 00:50      16.0  10.0  17.5  16.0  68  1016   ---     N     5     5   ---   0.7 Few Clouds/
02/05/2006 01:50      15.0  10.0  16.8  15.0  72  1016   ---     N     2     2   ---   0.7 Few Clouds/
02/05/2006 02:50      14.0   9.0  15.8  14.0  72  1016   ---     N     2     2   ---   0.7 Few Clouds/
02/05/2006 03:50      14.0   9.0  15.8  14.0  72  1016   ---     N     0     0   ---   0.7 Few Clouds/
02/05/2006 04:50      14.0   9.0  15.8  14.0  72  1016   ---   ---     3     3   ---   0.7 Few Clouds/
02/05/2006 05:50      14.0   9.0  15.8  14.0  72  1016   ---     N     2     2   ---   0.7 Few Clouds/
02/05/2006 06:50      14.0   9.0  15.8  14.0  72  1016   ---     N     3     3   ---   --- /
02/05/2006 07:50      17.0   9.0  18.0  17.0  59  1016   ---     N     2     2   ---   0.7 Few Clouds/
02/05/2006 08:50      19.0  10.0  19.8  15.1  56  1016   ---   ENE    13    13   ---   0.7 Few Clouds/
02/05/2006 09:50      20.0  10.0  20.6  17.4  53  1017   ---    NE    10    10   ---   0.7 Few Clouds/
02/05/2006 10:20      20.0   8.0  20.2  16.4  46  1017   ---    NE    13    13   ---   0.7 Few Clouds/
02/05/2006 11:20      20.0  11.0  20.8  16.4  56  1017   ---   ENE    13    13   ---   0.7 Few Clouds/
02/05/2006 12:20      20.0  12.0  21.0  14.6  60  1017   ---   ENE    19    19   ---   0.7 Few Clouds/
02/05/2006 13:20      22.0  13.0  22.8  17.9  57  1017   ---   ENE    18    18   ---   0.7 Scattered Clouds/
02/05/2006 14:50      22.0  14.0  23.0  17.1  61  1016   ---   ENE    23    23   ---   0.7 Scattered Clouds/
02/05/2006 16:00       0.0   0.0   4.0 -14.8 100   ---   ---   ENE   ---   ---   ---   --- /
02/05/2006 16:50      22.0  14.0  23.0  17.3  61  1016   ---   ENE    21    21   ---   0.7 Scattered Clouds/
02/05/2006 17:20      21.0  14.0  22.3  16.5  64  1016   ---   ENE    18    18   ---   0.7 Scattered Clouds/
02/05/2006 18:50      21.0  14.0  22.3  16.7  64  1016   ---     E    16    16   ---   0.7 Scattered Clouds/
02/05/2006 19:50      21.0  14.0  22.3  18.6  64  1016   ---   NNE    10    10   ---   0.7 Scattered Clouds/
02/05/2006 20:50      20.0  14.0  21.5  20.0  68  1016   ---     N     2     2   ---   0.7 Scattered Clouds/
02/05/2006 21:50      19.0  14.0  20.8  17.7  73  1016   ---     N     6     6   ---   0.7 Scattered Clouds/
02/05/2006 22:50      18.0  12.0  19.5  18.0  68  1017   ---     N     3     3   ---   1.0 Few Clouds/
02/05/2006 23:50      17.0  11.0  18.5  17.0  68  1016   ---     N     3     3   ---   1.0 Few Clouds/
03/05/2006 00:50      17.0  12.0  18.8  17.0  72  1016   ---     N     5     5   ---   1.0 Few Clouds/
03/05/2006 02:00       0.0   0.0   4.0   0.0 100   ---   ---     N   ---   ---   ---   --- /
03/05/2006 02:50      16.0  11.0  17.8  16.0  72  1017   ---     N     5     5   ---   0.8 Few Clouds/
03/05/2006 03:50      16.0  11.0  17.8  16.0  72  1016   ---     N     0     0   ---   0.8 Few Clouds/
03/05/2006 04:50      16.0   8.0  16.9  16.0  59  1016   ---   ---     5     5   ---   1.0 Few Clouds/
03/05/2006 05:50      16.0   8.0  16.9  16.0  59  1016   ---     N     5     5   ---   1.0 Few Clouds/
03/05/2006 06:50      17.0   8.0  17.7  17.0  55  1015   ---     N     5     5   ---   1.2 Few Clouds/
03/05/2006 07:50      19.0   8.0  19.4  19.0  49  1016   ---     N     2     2   ---   1.2 Few Clouds/
03/05/2006 08:50      21.0   6.0  20.9  21.0  38  1016   ---     N     0     0   ---   1.2 Few Clouds/
03/05/2006 09:50      21.0   6.0  20.9  17.7  38  1016   ---    NE    13    13   ---   3.6 Scattered Clouds/
03/05/2006 10:50      22.0   8.0  22.0  18.5  41  1016   ---    NE    14    14   ---   3.6 Scattered Clouds/
03/05/2006 11:50      22.0   9.0  22.1  18.1  43  1016   ---    NE    16    16   ---   3.0 Few Clouds/
03/05/2006 12:20      23.0   6.0  22.7  19.4  33  1016   ---    NE    16    16   ---   3.0 Few Clouds/
03/05/2006 13:50      24.0   6.0  23.6  21.5  31  1016   ---    NE    13    13   ---   1.2 Scattered Clouds/
03/05/2006 14:50      23.0   7.0  22.8  19.8  36  1016   ---    NE    14    14   ---   1.2 Scattered Clouds/
03/05/2006 15:50      23.0  13.0  23.6  18.9  53  1016   ---     E    19    19   ---   1.2 Scattered Clouds/
03/05/2006 16:50      23.0  12.0  23.4  19.8  50  1016   ---     E    14    14   ---   1.2 Scattered Clouds/
03/05/2006 17:50      23.0  10.0  23.1  19.2  44  1015   ---   ENE    18    18   ---   1.2 Scattered Clouds/
03/05/2006 18:50      22.0  10.0  22.3  17.1  46  1015   ---   ENE    23    23   ---   1.2 Scattered Clouds/
03/05/2006 19:50      22.0  10.0  22.3  17.3  46  1014   ---   ENE    21    21   ---   0.9 Few Clouds/
03/05/2006 20:50      22.0   7.0  21.9  18.9  38  1014   ---     E    13    13   ---   0.9 Scattered Clouds/
03/05/2006 21:50      21.0  10.0  21.4  18.6  49  1014   ---   WSW    10    10   ---   0.9 Scattered Clouds/
03/05/2006 22:50      19.0  12.0  20.2  19.0  64  1015   ---     N     3     3   ---   0.9 Few Clouds/
03/05/2006 23:50      19.0  11.0  20.0  19.0  60  1014   ---     N     0     0   ---   0.9 Few Clouds/
04/05/2006 00:50      19.0  11.0  20.0  19.0  60  1015   ---   ---     2     2   ---   0.9 Few Clouds/
04/05/2006 01:50      18.0  11.0  19.2  18.0  64  1014   ---     N     0     0   ---   0.9 Few Clouds/
04/05/2006 02:50      17.0  11.0  18.5  17.0  68  1014   ---   ---     3     3   ---   0.9 Few Clouds/
04/05/2006 03:50      17.0  11.0  18.5  17.0  68  1014   ---     N     0     0   ---   1.0 Few Clouds/
04/05/2006 04:50      16.0  12.0  18.1  16.0  77  1013   ---   ---     5     5   ---   1.0 Few Clouds/
04/05/2006 05:50      17.0  12.0  18.8  13.8  72  1014   ---   ENE    10    10   ---   1.0 Scattered Clouds/
04/05/2006 06:50      17.0  11.0  18.5  17.0  68  1013   ---     N     2     2   ---   1.0 Scattered Clouds/
04/05/2006 07:50      18.0  12.0  19.5  15.0  68  1014   ---    SW    10    10   ---   1.0 Broken Clouds/
04/05/2006 08:50      19.0  10.0  19.8  14.5  56  1014   ---   WSW    14    14   ---   1.0 Broken Clouds/
04/05/2006 09:50      21.0  11.0  21.6  21.0  53  1014   ---     N     5     5   ---   1.0 Broken Clouds/
04/05/2006 10:50      21.0  12.0  21.8  15.8  56  1014   ---   ENE    21    21   ---   1.0 Scattered Clouds/
04/05/2006 11:50      22.0   9.0  22.1  18.1  43  1014   ---    NE    16    16   ---   1.0 Scattered Clouds/
04/05/2006 12:50      23.0  10.0  23.1  19.4  44  1014   ---   NNE    16    16   ---   0.9 Few Clouds/
04/05/2006 13:50      23.0  13.0  23.6  18.2  53  1013   ---   ENE    26    26   ---   0.9 Few Clouds/
04/05/2006 14:50      22.0  15.0  23.3  16.5  65  1013   ---   ENE    27    27   ---   0.9 Broken Clouds/
04/05/2006 15:50      22.0  15.0  23.3  17.5  65  1013   ---     E    19    19   ---   0.9 Broken Clouds/
04/05/2006 16:20      21.0  14.0  22.3  16.7  64  1013   ---     E    16    16   ---   0.9 Broken Clouds/
04/05/2006 17:50      22.0  13.0  22.8  18.9  57  1013   ---    SW    13    13   ---   0.9 Broken Clouds/
04/05/2006 18:50      20.0  15.0  21.8  18.8  73  1013   ---    SW     6     6   ---   0.9 Broken Clouds/
04/05/2006 19:50      19.0  14.0  20.8  16.7  73  1013   ---    SW     8     8   ---   0.9 Broken Clouds/
04/05/2006 20:50      18.0  13.0  19.8  18.0  73  1014   ---     N     5     5   ---   0.4 Scattered Clouds/
04/05/2006 21:50      18.0  13.0  19.8  18.0  73  1015   ---     N     5     5   ---   0.4 Scattered Clouds/
04/05/2006 22:50      18.0  12.0  19.5  16.6  68  1014   ---    SW     6     6   ---   0.4 Scattered Clouds/
04/05/2006 23:50      18.0  12.0  19.5  16.6  68  1015   ---   WSW     6     6   ---   0.4 Scattered Clouds/
05/05/2006 01:00       0.0   0.0   4.0  -3.0 100   ---   ---   WSW   ---   ---   ---   --- /
05/05/2006 01:50      17.0  12.0  18.8  17.0  72  1014   ---     N     5     5   ---   0.6 Few Clouds/
05/05/2006 03:00       0.0   0.0   4.0   0.0 100   ---   ---     N   ---   ---   ---   --- /
05/05/2006 03:50      18.0  12.0  19.5  18.0  68  1015   ---     N     2     2   ---   0.4 Broken Clouds/
05/05/2006 04:50      18.0  12.0  19.5  18.0  68  1015   ---     N     3     3   ---   0.4 Broken Clouds/
05/05/2006 05:50      17.0  12.0  18.8  17.0  72  1014   ---     N     5     5   ---   0.4 Broken Clouds/
05/05/2006 06:50      17.0  12.0  18.8  13.8  72  1015   ---    SW    10    10   ---   0.8 Scattered Clouds/
05/05/2006 07:50      19.0  13.0  20.5  16.7  68  1015   ---    SW     8     8   ---   0.8 Scattered Clouds/
05/05/2006 08:50      19.0  13.0  20.5  19.0  68  1015   ---     N     3     3   ---   --- /
05/05/2006 09:50      20.0  14.0  21.5  17.8  68  1016   ---   NNE     8     8   ---   0.3 Few Clouds/
05/05/2006 10:50      20.0  13.0  21.3  17.4  64  1016   ---   NNE    10    10   ---   0.6 Few Clouds/
05/05/2006 11:50      20.0  14.0  21.5  14.2  68  1016   ---    NE    23    23   ---   0.5 Few Clouds/
05/05/2006 12:20      20.0  14.0  21.5  14.2  68  1016   ---   ENE    23    23   ---   0.5 Few Clouds/
05/05/2006 13:50      21.0  13.0  22.0  16.1  60  1016   ---   ENE    19    19   ---   0.6 Few Clouds/
05/05/2006 14:50      20.0  14.0  21.5  14.6  68  1016   ---    NE    19    19   ---   0.6 Few Clouds/
05/05/2006 15:50      21.0  15.0  22.5  15.8  69  1015   ---    NE    21    21   ---   0.6 Few Clouds/
05/05/2006 16:50      21.0  13.0  22.0  15.8  60  1015   ---     E    21    21   ---   0.6 Scattered Clouds/
05/05/2006 17:50      20.0  13.0  21.3  14.4  64  1016   ---     E    21    21   ---   0.6 Scattered Clouds/
05/05/2006 18:50      19.0  13.0  20.5  13.7  68  1016   ---     E    18    18   ---   0.6 Broken Clouds/
05/05/2006 19:50      19.0  13.0  20.5  16.2  68  1016   ---    SW    10    10   ---   0.6 Scattered Clouds/
05/05/2006 20:50      18.0  13.0  19.8  16.6  73  1017   ---   WSW     6     6   ---   0.6 Scattered Clouds/
05/05/2006 21:50      18.0  13.0  19.8  16.6  73  1017   ---   WSW     6     6   ---   0.6 Scattered Clouds/
05/05/2006 22:50      17.0  12.0  18.8  17.0  72  1018   ---     N     3     3   ---   0.6 Scattered Clouds/
05/05/2006 23:50      17.0  12.0  18.8  15.5  72  1018   ---   SSW     6     6   ---   0.6 Scattered Clouds/
06/05/2006 00:50      17.0  12.0  18.8  14.3  72  1019   ---   SSW     8     8   ---   0.6 Scattered Clouds/
06/05/2006 01:50      16.0  11.0  17.8  14.4  72  1019   ---   SSW     6     6   ---   0.6 Scattered Clouds/
06/05/2006 02:50      16.0  10.0  17.5  12.5  68  1018   ---     S    10    10   ---   0.6 Few Clouds/
06/05/2006 03:50      16.0  10.0  17.5  16.0  68  1018   ---     N     5     5   ---   0.6 Few Clouds/
06/05/2006 04:50      16.0  11.0  17.8  16.0  72  1018   ---     N     5     5   ---   0.6 Few Clouds/
06/05/2006 05:50      16.0  11.0  17.8  16.0  72  1019   ---     N     2     2   ---   0.5 Scattered Clouds/
06/05/2006 06:50      17.0  12.0  18.8  17.0  72  1019   ---     N     5     5   ---   0.5 Broken Clouds/
06/05/2006 07:50      18.0  12.0  19.5  16.6  68  1018   ---   WNW     6     6   ---   0.3 Scattered Clouds/
06/05/2006 08:50      18.0  13.0  19.8  16.6  73  1019   ---     W     6     6   ---   0.4 Broken Clouds/
06/05/2006 09:50      18.0  13.0  19.8  16.6  73  1019   ---   WSW     6     6   ---   0.4 Broken Clouds/
06/05/2006 11:00       0.0   0.0   4.0  -3.0 100   ---   ---   WSW   ---   ---   ---   --- /
06/05/2006 11:20      19.0  13.0  20.5  17.7  68  1019   ---    NW     6     6   ---   0.4 Few Clouds/
06/05/2006 12:50      19.0  14.0  20.8  16.7  73  1019   ---   NNW     8     8   ---   0.5 Few Clouds/
06/05/2006 13:50      20.0  14.0  21.5  17.4  68  1019   ---     N    10    10   ---   0.4 Few Clouds/
06/05/2006 14:50      20.0  14.0  21.5  18.8  68  1019   ---     N     6     6   ---   0.4 Few Clouds/
06/05/2006 15:50      20.0  14.0  21.5  17.8  68  1019   ---     N     8     8   ---   0.4 Few Clouds/
06/05/2006 16:50      20.0  14.0  21.5  17.8  68  1019   ---    NW     8     8   ---   0.4 Scattered Clouds/
06/05/2006 17:50      20.0  14.0  21.5  17.4  68  1019   ---    NW    10    10   ---   0.4 Scattered Clouds/
06/05/2006 18:50      20.0  14.0  21.5  15.3  68  1019   ---   WNW    16    16   ---   0.4 Scattered Clouds/
06/05/2006 19:50      19.0  14.0  20.8  15.1  73  1019   ---   WNW    13    13   ---   0.4 Scattered Clouds/
06/05/2006 20:50      18.0  13.0  19.8  15.0  73  1019   ---    NW    10    10   ---   0.4 Scattered Clouds/
06/05/2006 21:50      18.0  13.0  19.8  15.0  73  1019   ---   WNW    10    10   ---   0.4 Scattered Clouds/
06/05/2006 22:50      17.0  13.0  19.2  17.0  77  1020   ---     N     2     2   ---   0.4 Scattered Clouds/
06/05/2006 23:50      17.0  12.0  18.8  17.0  72  1020   ---     N     2     2   ---   0.5 Scattered Clouds/
07/05/2006 00:50      17.0  12.0  18.8  15.5  72  1020   ---   SSE     6     6   ---   0.5 Scattered Clouds/
07/05/2006 01:50      16.0  11.0  17.8  16.0  72  1020   ---     N     3     3   ---   0.5 Scattered Clouds/
07/05/2006 02:50      15.0  10.0  16.8  13.3  72  1020   ---   SSE     6     6   ---   0.5 Few Clouds/
07/05/2006 04:00       0.0   0.0   4.0  -3.0 100   ---   ---   SSE   ---   ---   ---   --- /
07/05/2006 04:50      15.0  10.0  16.8  15.0  72  1019   ---     N     5     5   ---   0.4 Few Clouds/
07/05/2006 05:50      15.0  10.0  16.8  12.0  72  1020   ---     S     8     8   ---   0.4 Few Clouds/
07/05/2006 06:50      16.0  10.0  17.5  14.4  68  1019   ---     S     6     6   ---   0.4 Few Clouds/
07/05/2006 07:50      18.0  12.0  19.5  16.6  68  1019   ---   SSW     6     6   ---   --- /
07/05/2006 08:50      19.0  12.0  20.2  19.0  64  1019   ---     N     5     5   ---   0.7 Scattered Clouds/
07/05/2006 08:50      19.0  12.0  20.2  19.0  64  1019   ---   ---     5     5   ---   0.7 Scattered Clouds/None reported
07/05/2006 09:50      19.0  12.0  20.2  19.0  64  1020   ---     N     5     5   ---   0.7 Few Clouds/
07/05/2006 10:50      19.0  12.0  20.2  19.0  64  1020   ---     N     3     3   ---   0.7 Few Clouds/
07/05/2006 11:50      20.0  13.0  21.3  17.8  64  1020   ---    NW     8     8   ---   0.7 Few Clouds/
07/05/2006 12:50      19.0  14.0  20.8  16.2  73  1020   ---   NNW    10    10   ---   0.6 Scattered Clouds/
07/05/2006 13:50      19.0  14.0  20.8  15.1  73  1020   ---     N    13    13   ---   0.5 Scattered Clouds/
07/05/2006 14:50      20.0  14.0  21.5  16.4  68  1020   ---     N    13    13   ---   0.5 Scattered Clouds/
07/05/2006 15:50      19.0  14.0  20.8  16.7  73  1020   ---   NNW     8     8   ---   0.5 Few Clouds/
07/05/2006 16:50      19.0  14.0  20.8  16.7  73  1020   ---     N     8     8   ---   0.5 Few Clouds/
07/05/2006 17:50      19.0  14.0  20.8  16.7  73  1020   ---     N     8     8   ---   0.5 Few Clouds/
07/05/2006 18:50      19.0  14.0  20.8  17.7  73  1019   ---   NNE     6     6   ---   0.5 Few Clouds/
07/05/2006 19:50      18.0  14.0  20.2  15.5  77  1019   ---   NNE     8     8   ---   0.6 Few Clouds/
07/05/2006 20:50      18.0  13.0  19.8  18.0  73  1020   ---     N     2     2   ---   --- /
07/05/2006 21:50      17.0  12.0  18.8  17.0  72  1019   ---     N     2     2   ---   --- /
07/05/2006 22:50      17.0  12.0  18.8  17.0  72  1019   ---     N     2     2   ---   --- /
07/05/2006 23:50      16.0  11.0  17.8  16.0  72  1020   ---     N     3     3   ---   --- /
08/05/2006 00:50      16.0  11.0  17.8  16.0  72  1020   ---     N     0     0   ---   --- /
08/05/2006 01:50      16.0  11.0  17.8  16.0  72  1019   ---   ---     0     0   ---   --- /
08/05/2006 02:50      16.0  10.0  17.5  16.0  68  1018   ---   ---     0     0   ---   --- /
08/05/2006 03:50      15.0  10.0  16.8  15.0  72  1018   ---   ---     2     2   ---   --- /
08/05/2006 04:50      15.0  10.0  16.8  15.0  72  1018   ---     N     5     5   ---   --- /
08/05/2006 05:50      14.0   9.0  15.8  14.0  72  1018   ---     N     5     5   ---   --- /
08/05/2006 06:50      15.0   9.0  16.5  12.0  67  1018   ---    SW     8     8   ---   --- /
08/05/2006 07:50      17.0  11.0  18.5  14.3  68  1018   ---   WSW     8     8   ---   --- /
08/05/2006 08:50      19.0  11.0  20.0  17.7  60  1019   ---     W     6     6   ---   --- /
08/05/2006 09:50      20.0   7.0  20.1  17.8  43  1019   ---     W     8     8   ---   0.6 Few Clouds/
08/05/2006 10:50      20.0  10.0  20.6  18.8  53  1019   ---    NW     6     6   ---   0.7 Few Clouds/
08/05/2006 11:50      20.0   8.0  20.2  17.8  46  1019   ---   NNE     8     8   ---   0.7 Few Clouds/
08/05/2006 12:50      20.0  10.0  20.6  15.9  53  1018   ---    NE    14    14   ---   0.7 Few Clouds/
08/05/2006 13:50      21.0  12.0  21.8  16.5  56  1018   ---   ENE    18    18   ---   0.7 Broken Clouds/
08/05/2006 14:50      21.0  11.0  21.6  16.1  53  1018   ---    NE    19    19   ---   0.7 Broken Clouds/
08/05/2006 15:50      21.0  10.0  21.4  16.5  49  1018   ---    NE    18    18   ---   0.7 Broken Clouds/
08/05/2006 16:50      20.0  10.0  20.6  15.3  53  1018   ---    NE    16    16   ---   0.7 Broken Clouds/
08/05/2006 17:50      21.0   9.0  21.3  17.7  46  1017   ---    NE    13    13   ---   0.7 Few Clouds/
08/05/2006 18:50      20.0  13.0  21.3  15.9  64  1016   ---   ENE    14    14   ---   0.7 Few Clouds/
08/05/2006 19:50      20.0  11.0  20.8  16.4  56  1016   ---   ENE    13    13   ---   0.7 Few Clouds/
08/05/2006 20:50      19.0  13.0  20.5  16.7  68  1017   ---     E     8     8   ---   --- /
08/05/2006 21:50      18.0  11.0  19.2  18.0  64  1017   ---     N     5     5   ---   --- /
08/05/2006 22:50      17.0  10.0  18.2  13.8  63  1018   ---    SW    10    10   ---   --- /
08/05/2006 23:50      17.0  11.0  18.5  14.3  68  1017   ---    SW     8     8   ---   --- /
09/05/2006 00:50      17.0  10.0  18.2  17.0  63  1018   ---     N     5     5   ---   --- /
09/05/2006 01:50      16.0  11.0  17.8  16.0  72  1017   ---     N     3     3   ---   --- /
09/05/2006 02:50      16.0   9.0  17.2  11.3  63  1017   ---    SW    13    13   ---   --- /
09/05/2006 03:50      17.0   4.0  17.1  12.5  42  1017   ---    SW    13    13   ---   --- /
09/05/2006 04:50      16.0   7.0  16.7  10.6  55  1017   ---    SW    14    14   ---   --- /
09/05/2006 05:50      16.0   7.0  16.7  10.6  55  1017   ---    SW    14    14   ---   --- /
09/05/2006 06:50      15.0   8.0  16.2  13.3  63  1016   ---   SSW     6     6   ---   5.4 Broken Clouds/
09/05/2006 07:50      18.0  11.0  19.2  18.0  64  1016   ---     N     0     0   ---   5.4 Scattered Clouds/
09/05/2006 08:50      19.0  13.0  20.5  19.0  68  1016   ---   ---     5     5   ---   0.7 Few Clouds/
09/05/2006 09:50      22.0   9.0  22.1  17.3  43  1016   ---   SSW    21    21   ---   0.7 Few Clouds/
09/05/2006 10:50      23.0   0.0  22.3  18.2  22  1016   ---   SSW    26    26   ---   0.7 Scattered Clouds/
09/05/2006 11:50      24.0   6.0  23.6  19.5  31  1016   ---    SW    27    47   ---   0.7 Scattered Clouds/
09/05/2006 12:50      24.0   7.0  23.7  19.3  34  1015   ---   SSW    31    31   ---   0.7 Scattered Clouds/
09/05/2006 13:50      25.0   7.0  24.6  20.8  32  1015   ---    SW    31    31   ---   0.7 Broken Clouds/
09/05/2006 14:50      25.0   6.0  24.5  20.5  30  1014   ---    SW    37    37   ---   0.7 Broken Clouds/
09/05/2006 15:50      24.0   7.0  23.7  19.0  34  1014   ---    SW    37    37   ---   0.7 Broken Clouds/
09/05/2006 16:50      21.0  10.0  21.4  14.2  49  1014   ---    SW    40    40   ---   0.7 Broken Clouds/
09/05/2006 17:50      20.0  13.0  21.3  12.5  64  1013   ---   SSW    42    42   ---   0.7 Broken Clouds/
09/05/2006 18:50      21.0  14.0  22.3  14.9  64  1013   ---   SSW    29    29   ---   0.7 Broken Clouds/
09/05/2006 19:50      20.0  14.0  21.5  13.4  68  1013   ---   SSW    29    29   ---   0.7 Few Clouds/
09/05/2006 20:50      20.0  14.0  21.5  14.4  68  1013   ---   SSW    21    21   ---   0.7 Scattered Clouds/
09/05/2006 21:50      19.0  14.0  20.8  13.0  73  1014   ---    SW    21    21   ---   0.7 Scattered Clouds/
09/05/2006 22:50      19.0  14.0  20.8  12.3  73  1014   ---     S    26    26   ---   0.7 Broken Clouds/
09/05/2006 23:50      19.0  14.0  20.8  12.3  73  1014   ---   SSW    26    26   ---   0.7 Scattered Clouds/
10/05/2006 00:50      18.0  13.0  19.8  10.6  73  1014   ---     S    27    27   ---   0.7 Scattered Clouds/
10/05/2006 01:50      18.0  13.0  19.8  12.4  73  1014   ---   SSW    18    18   ---   0.7 Few Clouds/
10/05/2006 02:50      18.0  13.0  19.8  11.3  73  1014   ---    SW    23    23   ---   0.7 Few Clouds/
10/05/2006 03:50      17.0  12.0  18.8  11.0  72  1013   ---   SSW    18    18   ---   0.7 Few Clouds/
10/05/2006 04:50      17.0  12.0  18.8  10.4  72  1014   ---   SSW    19    19   ---   0.7 Few Clouds/
10/05/2006 05:50      17.0  11.0  18.5  11.3  68  1014   ---    SW    16    16   ---   0.7 Scattered Clouds/
10/05/2006 06:50      17.0  10.0  18.2  11.9  63  1013   ---    SW    14    14   ---   0.7 Scattered Clouds/
10/05/2006 07:50      18.0  10.0  19.0  13.2  60  1014   ---   SSW    14    14   ---   0.7 Scattered Clouds/
10/05/2006 08:50      18.0  10.0  19.0  15.0  60  1014   ---   WSW    10    10   ---   0.7 Broken Clouds/
10/05/2006 09:50      19.0  13.0  20.5  13.2  68  1014   ---     W    19    19   ---   0.6 Scattered Clouds/
10/05/2006 10:50      19.0  11.0  20.0  13.0  60  1015   ---   WNW    21    21   ---   0.6 Scattered Clouds/
10/05/2006 11:50       0.0   0.0   4.0 -14.2 100     0   ---   WNW    21    21   ---   0.6 Scattered Clouds/
10/05/2006 12:50      20.0  10.0  20.6  14.6  53  1015   ---   WNW    19    19   ---   0.7 Few Clouds/
10/05/2006 13:50      20.0  11.0  20.8  15.1  56  1015   ---   WNW    18    18   ---   0.7 Few Clouds/
10/05/2006 14:50      20.0  11.0  20.8  14.6  56  1015   ---   WNW    19    19   ---   0.7 Few Clouds/
10/05/2006 15:50      20.0   9.0  20.4  15.3  49  1014   ---    NW    16    16   ---   0.7 Few Clouds/
10/05/2006 16:50      19.0   8.0  19.4  16.2  49  1014   ---    NW    10    10   ---   --- /
10/05/2006 17:50      19.0   8.0  19.4  17.7  49  1014   ---   NNW     6     6   ---   --- /
10/05/2006 18:50      19.0   8.0  19.4  16.7  49  1014   ---   NNW     8     8   ---   --- /
10/05/2006 19:50      18.0   9.0  18.8  15.5  56  1014   ---    NW     8     8   ---   --- /
10/05/2006 19:50      18.0   9.0  18.8  15.5  56  1014   ---    NW     8     8   ---   --- None reported/None reported
10/05/2006 19:50      18.0   9.0  18.8  15.5  56  1014   ---    NW     8     8   ---   --- None reported/None reported
10/05/2006 20:50      17.0   9.0  18.0  17.0  59  1014   ---     N     0     0   ---   --- /
10/05/2006 20:50      17.0   9.0  18.0  17.0  59  1014   ---   ---     0     0   ---   --- None reported/None reported
10/05/2006 20:50      17.0   9.0  18.0  17.0  59  1014   ---   ---     0     0   ---   --- None reported/None reported
10/05/2006 20:50      17.0   9.0  18.0  17.0  59  1014   ---   ---     0     0   ---   --- None reported/None reported
10/05/2006 20:50      17.0   9.0  18.0  17.0  59  1014   ---   ---     0     0   ---   --- None reported/None reported
10/05/2006 20:50      17.0   9.0  18.0  17.0  59  1014   ---   ---     0     0   ---   --- None reported/None reported
10/05/2006 20:50      17.0   9.0  18.0  17.0  59  1014   ---   ---     0     0   ---   --- None reported/None reported
10/05/2006 20:50      17.0   9.0  18.0  17.0  59  1014   ---   ---     0     0   ---   --- None reported/None reported
10/05/2006 21:50      16.0  10.0  17.5  16.0  68  1015   ---   ---     3     3   ---   --- /
10/05/2006 21:50      16.0  10.0  17.5  16.0  68  1015   ---   ---     3     3   ---   --- None reported/None reported
10/05/2006 21:50      16.0  10.0  17.5  16.0  68  1015   ---   ---     3     3   ---   --- None reported/None reported
10/05/2006 21:50      16.0  10.0  17.5  16.0  68  1015   ---   ---     3     3   ---   --- None reported/None reported
10/05/2006 22:50      16.0  10.0  17.5  16.0  68  1015   ---     N     5     5   ---   --- /
10/05/2006 22:50      16.0  10.0  17.5  16.0  68  1015   ---   ---     5     5   ---   --- None reported/None reported
10/05/2006 22:50      16.0  10.0  17.5  16.0  68  1015   ---   ---     5     5   ---   --- None reported/None reported
10/05/2006 22:50      16.0  10.0  17.5  16.0  68  1015   ---   ---     5     5   ---   --- None reported/None reported
10/05/2006 22:50      16.0  10.0  17.5  16.0  68  1015   ---   ---     5     5   ---   --- None reported/None reported
10/05/2006 23:50      15.0  10.0  16.8  15.0  72  1015   ---     N     3     3   ---   --- /
11/05/2006 00:50      15.0  10.0  16.8  15.0  72  1015   ---     N     3     3   ---   3.6 Scattered Clouds/
11/05/2006 01:50      15.0   9.0  16.5  15.0  67  1015   ---     N     5     5   ---   3.6 Scattered Clouds/
11/05/2006 02:50      15.0  10.0  16.8  15.0  72  1015   ---     N     3     3   ---   0.9 Scattered Clouds/
11/05/2006 03:50      14.0   9.0  15.8  14.0  72  1013   ---     N     3     3   ---   0.9 Scattered Clouds/
11/05/2006 04:50      15.0  10.0  16.8  15.0  72  1014   ---     N     5     5   ---   --- /
11/05/2006 05:50      15.0  10.0  16.8  15.0  72  1014   ---     N     5     5   ---   --- /
11/05/2006 06:50      14.0  10.0  16.1  14.0  77  1014   ---     N     2     2   ---   --- /
11/05/2006 06:50      14.0  10.0  16.1  14.0  77  1014   ---   ---     2     2   ---   --- None reported/None reported
11/05/2006 07:50      17.0  10.0  18.2  17.0  63  1014   ---     N     0     0   ---   --- /
11/05/2006 08:50      19.0   9.0  19.6  16.2  52  1014   ---    NE    10    10   ---   --- /
11/05/2006 09:50      19.0   8.0  19.4  16.7  49  1014   ---   NNE     8     8   ---   --- /
11/05/2006 10:50      19.0   8.0  19.4  17.7  49  1014   ---   WNW     6     6   ---   --- /
11/05/2006 11:50      19.0  11.0  20.0  16.2  60  1015   ---   NNW    10    10   ---   --- /
11/05/2006 12:50      20.0  10.0  20.6  15.9  53  1015   ---   NNE    14    14   ---   --- /
11/05/2006 13:50      20.0   7.0  20.1  17.8  43  1015   ---   NNE     8     8   ---   --- /
11/05/2006 14:50      20.0   9.0  20.4  17.8  49  1015   ---   NNE     8     8   ---   --- /
11/05/2006 15:50      21.0  10.0  21.4  17.2  49  1015   ---    NE    14    14   ---   --- /
11/05/2006 16:50      21.0   6.0  20.9  17.2  38  1015   ---   ENE    14    14   ---   --- /
11/05/2006 17:50      20.0  10.0  20.6  14.6  53  1014   ---   ENE    19    19   ---   --- /
11/05/2006 18:50      20.0  12.0  21.0  14.4  60  1015   ---   ENE    21    21   ---   --- /
11/05/2006 19:50      19.0   9.0  19.6  13.2  52  1015   ---   ENE    19    19   ---   --- /
11/05/2006 20:50      18.0   9.0  18.8  12.6  56  1015   ---   ENE    16    16   ---   --- /
11/05/2006 21:50      18.0   9.0  18.8  12.4  56  1016   ---   ENE    18    18   ---   --- /
11/05/2006 22:50      17.0   8.0  17.7  11.3  55  1016   ---    NE    16    16   ---   --- /
11/05/2006 23:50      18.0   9.0  18.8  13.8  56  1016   ---     E    13    13   ---   --- /
12/05/2006 00:50      16.0   7.0  16.7  16.0  55  1016   ---     N     0     0   ---   --- /
12/05/2006 01:50      15.0   8.0  16.2  15.0  63  1017   ---   ---     0     0   ---   --- /
12/05/2006 02:50      16.0   9.0  17.2  11.3  63  1017   ---   ENE    13    13   ---   --- /
12/05/2006 03:50      17.0  11.0  18.5  11.0  68  1016   ---   ENE    18    18   ---   --- /
12/05/2006 04:50      17.0  11.0  18.5  11.3  68  1016   ---     E    16    16   ---   --- /
12/05/2006 05:50      17.0  12.0  18.8  11.0  72  1016   ---     E    18    18   ---   0.7 Scattered Clouds/
12/05/2006 06:50      17.0  12.0  18.8  11.0  72  1018   ---     E    18    18   ---   0.7 Scattered Clouds/
12/05/2006 07:50      19.0  12.0  20.2  14.0  64  1018   ---     E    16    16   ---   0.7 Few Clouds/
12/05/2006 08:50      19.0  11.0  20.0  13.0  60  1019   ---   ENE    21    21   ---   0.7 Few Clouds/
12/05/2006 09:50      20.0  13.0  21.3  14.2  64  1019   ---   ENE    23    23   ---   0.7 Few Clouds/
12/05/2006 10:50      21.0  12.0  21.8  15.2  56  1019   ---   ENE    26    26   ---   0.7 Few Clouds/
12/05/2006 11:50      21.0  13.0  22.0  14.9  60  1019   ---   ENE    29    29   ---   --- /
12/05/2006 12:50      21.0  14.0  22.3  14.6  64  1020   ---   ENE    32    32   ---   --- /
12/05/2006 13:50      21.0  14.0  22.3  14.8  64  1020   ---   ENE    31    31   ---   --- /
12/05/2006 14:50      21.0  14.0  22.3  14.5  64  1020   ---   ENE    34    34   ---   --- /
12/05/2006 15:50      21.0  14.0  22.3  14.5  64  1019   ---   ENE    34    34   ---   --- /
12/05/2006 16:50      21.0  14.0  22.3  14.6  64  1019   ---   ENE    32    32   ---   --- /
12/05/2006 17:50      21.0  14.0  22.3  15.0  64  1019   ---   ENE    27    27   ---   --- /
12/05/2006 18:50      21.0  14.0  22.3  16.5  64  1019   ---   ENE    18    18   ---   --- /
12/05/2006 19:50      20.0  15.0  21.8  20.0  73  1019   ---     N     3     3   ---   --- /
12/05/2006 20:50      19.0  14.0  20.8  19.0  73  1020   ---     N     3     3   ---   3.0 Scattered Clouds/
12/05/2006 21:50      19.0  14.0  20.8  14.0  73  1021   ---    SW    16    16   ---   3.0 Scattered Clouds/
12/05/2006 22:50      19.0  13.0  20.5  14.5  68  1022   ---    SW    14    14   ---   --- /
12/05/2006 23:50      18.0  13.0  19.8  16.6  73  1021   ---    SW     6     6   ---   --- /
13/05/2006 00:50      18.0  12.0  19.5  13.2  68  1022   ---    SW    14    14   ---   --- /
13/05/2006 01:50      18.0  14.0  20.2  15.5  77  1021   ---     E     8     8   ---   3.0 Scattered Clouds/
13/05/2006 02:50      18.0  14.0  20.2  15.5  77  1022   ---   ENE     8     8   ---   3.0 Scattered Clouds/
13/05/2006 03:50      17.0  12.0  18.8  15.5  72  1022   ---     E     6     6   ---   --- /
13/05/2006 04:50      17.0  12.0  18.8  15.5  72  1021   ---    NE     6     6   ---   --- /
13/05/2006 05:50      16.0  12.0  18.1  16.0  77  1022   ---     N     5     5   ---   --- /
13/05/2006 06:50      17.0  12.0  18.8  17.0  72  1022   ---     N     2     2   ---   --- /
13/05/2006 07:50      19.0  12.0  20.2  19.0  64  1022   ---     N     0     0   ---   --- /
13/05/2006 07:50      19.0  12.0  20.2  19.0  64  1022   ---   ---     0     0   ---   --- None reported/None reported
13/05/2006 07:50      19.0  12.0  20.2  19.0  64  1022   ---   ---     0     0   ---   --- None reported/None reported
13/05/2006 07:50      19.0  12.0  20.2  19.0  64  1022   ---   ---     0     0   ---   --- None reported/None reported
13/05/2006 09:50      20.0  12.0  21.0  15.3  60  1022   ---    NE    16    16   ---   --- /
13/05/2006 10:50      20.0  12.0  21.0  15.1  60  1023   ---   NNE    18    18   ---   --- /
13/05/2006 11:50      21.0  12.0  21.8  16.5  56  1023   ---    NE    18    18   ---   --- /
13/05/2006 12:50      22.0  11.0  22.4  17.5  50  1023   ---    NE    19    19   ---   --- /
13/05/2006 13:50      22.0  11.0  22.4  16.7  50  1023   ---   ENE    26    26   ---   0.8 Few Clouds/
13/05/2006 14:50      22.0  10.0  22.3  16.4  46  1022   ---   ENE    29    29   ---   0.8 Few Clouds/
13/05/2006 15:50      22.0   9.0  22.1  16.3  43  1021   ---   ENE    31    31   ---   0.8 Few Clouds/
13/05/2006 16:50      22.0   7.0  21.9  16.5  38  1021   ---    NE    27    27   ---   0.8 Few Clouds/
13/05/2006 17:50      22.0  10.0  22.3  16.7  46  1021   ---   ENE    26    26   ---   0.8 Few Clouds/
13/05/2006 18:50      21.0   8.0  21.1  15.2  43  1021   ---   ENE    26    26   ---   --- /
13/05/2006 19:50      21.0   8.0  21.1  15.8  43  1021   ---   ENE    21    21   ---   --- /
13/05/2006 20:50      20.0   8.0  20.2  17.8  46  1021   ---     E     8     8   ---   --- /
13/05/2006 21:50      19.0  11.0  20.0  15.1  60  1021   ---    SW    13    13   ---   --- /
13/05/2006 22:50      19.0   9.0  19.6  13.7  52  1021   ---    SW    18    18   ---   --- /
13/05/2006 23:50      19.0   8.0  19.4  14.5  49  1021   ---     S    14    14   ---   --- /
14/05/2006 00:50      19.0   7.0  19.2  15.1  46  1022   ---    SW    13    13   ---   --- /
14/05/2006 01:50      19.0   7.0  19.2  16.7  46  1021   ---     S     8     8   ---   --- /
14/05/2006 02:50      17.0  10.0  18.2  13.8  63  1020   ---    SW    10    10   ---   --- /
14/05/2006 03:50      16.0  10.0  17.5  16.0  68  1020   ---     N     5     5   ---   --- /
14/05/2006 04:50      15.0  10.0  16.8  12.0  72  1020   ---    SW     8     8   ---   --- /
14/05/2006 05:50      17.0  10.0  18.2  17.0  63  1020   ---     N     3     3   ---   --- /
14/05/2006 06:50      17.0  11.0  18.5  17.0  68  1020   ---     N     0     0   ---   --- /
14/05/2006 07:50      20.0  11.0  20.8  20.0  56  1020   ---   ---     3     3   ---   --- /
14/05/2006 08:50      21.0  10.0  21.4  17.7  49  1020   ---   ENE    13    13   ---   --- /
14/05/2006 09:50      21.0  10.0  21.4  16.5  49  1020   ---   ENE    18    18   ---   --- /
14/05/2006 10:20      22.0  11.0  22.4  18.9  50  1020   ---     E    13    13   ---   4.8 Broken Clouds/
14/05/2006 10:50      23.0  11.0  23.3  21.0  47  1020   ---    NE    10    10   ---   5.4 Broken Clouds/
14/05/2006 18:50      21.0  12.0  21.8  16.1  56  1018   ---    NE    19    19   ---   --- /
14/05/2006 20:50      20.0  14.0  21.5  16.4  68  1019   ---   ENE    13    13   ---   --- /
14/05/2006 21:50      20.0  13.0  21.3  17.4  64  1019   ---   ENE    10    10   ---   --- /
14/05/2006 22:50      19.0  14.0  20.8  17.7  73  1019   ---    NE     6     6   ---   --- /
14/05/2006 23:50      18.0  13.0  19.8  18.0  73  1019   ---     N     3     3   ---   --- /
15/05/2006 00:50      17.0  10.0  18.2  17.0  63  1019   ---     N     3     3   ---   --- /
15/05/2006 02:00       0.0   0.0   4.0   0.0 100   ---   ---     N   ---   ---   ---   --- /
15/05/2006 02:50      17.0  13.0  19.2  17.0  77  1019   ---     N     2     2   ---   --- /
15/05/2006 03:50      17.0  13.0  19.2  17.0  77  1019   ---     N     0     0   ---   --- /
15/05/2006 04:50      17.0  12.0  18.8  14.3  72  1018   ---   ENE     8     8   ---   0.6 Few Clouds/
15/05/2006 05:50      17.0   0.0  16.6  14.3  32  1018   ---     E     8     8   ---   0.6 Few Clouds/
15/05/2006 06:50      18.0   0.0  17.5  15.0  30  1019   ---   ENE    10    10   ---   0.6 Few Clouds/
15/05/2006 07:50      19.0   0.0  18.5  14.5  28  1019   ---   ENE    14    14   ---   0.6 Few Clouds/
15/05/2006 08:50      20.0   0.0  19.4  15.3  26  1019   ---   ENE    16    16   ---   0.6 Few Clouds/
15/05/2006 09:50      20.0   0.0  19.4  14.4  26  1019   ---    NE    21    21   ---   0.6 Few Clouds/
15/05/2006 10:50      20.0   0.0  19.4  14.4  26  1020   ---    NE    21    21   ---   --- /
15/05/2006 11:50      21.0   0.0  20.4  15.6  25  1020   ---    NE    23    23   ---   --- /
15/05/2006 12:50      21.0   0.0  20.4  15.8  25  1020   ---    NE    21    21   ---   0.8 Few Clouds/
15/05/2006 13:50      21.0   0.0  20.4  16.1  25  1020   ---   NNE    19    19   ---   0.8 Few Clouds/
15/05/2006 14:50      22.0   0.0  21.3  17.3  23  1020   ---    NE    21    21   ---   0.7 Few Clouds/
15/05/2006 15:50      21.0   0.0  20.4  15.2  25  1020   ---    NE    26    26   ---   0.7 Few Clouds/
15/05/2006 16:50      21.0   0.0  20.4  14.9  25  1019   ---    NE    29    29   ---   --- /
15/05/2006 17:50      21.0   0.0  20.4  14.6  25  1019   ---    NE    32    32   ---   --- /
15/05/2006 18:50      21.0   0.0  20.4  14.9  25  1019   ---   ENE    29    29   ---   0.7 Few Clouds/
15/05/2006 21:50      19.0   0.0  18.5  15.1  28  1020   ---   ENE    13    13   ---   0.7 Few Clouds/
15/05/2006 22:50      19.0   0.0  18.5  16.7  28  1021   ---   ENE     8     8   ---   0.7 Few Clouds/
15/05/2006 23:50      18.0   0.0  17.5  18.0  30  1021   ---     N     3     3   ---   0.7 Few Clouds/
16/05/2006 00:50      18.0   0.0  17.5  16.6  30  1020   ---    SE     6     6   ---   0.7 Few Clouds/
16/05/2006 01:50      17.0   0.0  16.6  17.0  32  1020   ---     N     2     2   ---   0.7 Few Clouds/
16/05/2006 02:50      17.0   0.0  16.6  17.0  32  1020   ---     N     3     3   ---   0.7 Few Clouds/
16/05/2006 03:50      16.0   0.0  15.7  16.0  34  1021   ---     N     2     2   ---   0.7 Few Clouds/
16/05/2006 04:50      16.0   0.0  15.7  16.0  34  1020   ---     N     0     0   ---   --- /
16/05/2006 05:50      16.0   0.0  15.7  16.0  34  1021   ---   ---     2     2   ---   --- /
16/05/2006 06:50      16.0   0.0  15.7  16.0  34  1022   ---     N     5     5   ---   --- /
16/05/2006 07:50      19.0   0.0  18.5  19.0  28  1021   ---     N     2     2   ---   --- /
16/05/2006 08:50      20.0   0.0  19.4  20.0  26  1021   ---     N     3     3   ---   --- /
16/05/2006 09:50      20.0   0.0  19.4  18.8  26  1022   ---     N     6     6   ---   --- /
16/05/2006 11:00       0.0   0.0   4.0  -3.0 100   ---   ---     N   ---   ---   ---   --- /
16/05/2006 11:50      22.0   0.0  21.3  21.0  23  1022   ---   NNE     6     6   ---   --- /
16/05/2006 12:50      22.0   0.0  21.3  18.9  23  1022   ---   NNE    13    13   ---   --- /
16/05/2006 13:50      22.0   0.0  21.3  18.1  23  1022   ---   NNE    16    16   ---   --- /
16/05/2006 14:50      22.0   0.0  21.3  17.1  23  1021   ---    NE    23    23   ---   --- /
16/05/2006 15:50      21.0   0.0  20.4  15.2  25  1021   ---    NE    26    26   ---   --- /
16/05/2006 16:50      22.0   0.0  21.3  16.4  23  1021   ---   ENE    29    29   ---   --- /
16/05/2006 16:50      22.0  17.0  23.9  16.4  73  1021   ---   ENE    29    29   ---   --- None reported/None reported
16/05/2006 17:50      21.0   0.0  20.4  14.9  25  1021   ---   ENE    29    29   ---   --- /
16/05/2006 17:50      21.0  16.0  22.9  14.9  73  1021   ---   ENE    29    29   ---   --- None reported/None reported
16/05/2006 17:50      21.0  16.0  22.9  14.9  73  1021   ---   ENE    29    29   ---   --- None reported/None reported
16/05/2006 17:50      21.0  16.0  22.9  14.9  73  1021   ---   ENE    29    29   ---   --- None reported/None reported
16/05/2006 17:50      21.0  16.0  22.9  14.9  73  1021   ---   ENE    29    29   ---   --- None reported/None reported
16/05/2006 17:50      21.0  16.0  22.9  14.9  73  1021   ---   ENE    29    29   ---   --- None reported/None reported
16/05/2006 18:50      22.0   0.0  21.3  17.5  23  1020   ---   ENE    19    19   ---   --- /
16/05/2006 19:50      21.0   0.0  20.4  17.7  25  1021   ---   ENE    13    13   ---   --- /
16/05/2006 20:50      20.0   0.0  19.4  17.4  26  1021   ---   ENE    10    10   ---   --- /
16/05/2006 21:50      19.0   0.0  18.5  16.7  28  1021   ---    SW     8     8   ---   --- /
16/05/2006 22:50      19.0   0.0  18.5  19.0  28  1021   ---     N     0     0   ---   --- /
16/05/2006 23:50      18.0   0.0  17.5  16.6  30  1022   ---    SW     6     6   ---   --- /
17/05/2006 00:50      18.0   0.0  17.5  18.0  30  1021   ---     N     3     3   ---   --- /
17/05/2006 01:50      18.0   0.0  17.5  18.0  30  1022   ---     N     0     0   ---   --- /
17/05/2006 02:50      17.0   0.0  16.6  17.0  32  1022   ---   ---     0     0   ---   --- /
17/05/2006 03:50      17.0   0.0  16.6  17.0  32  1021   ---   ---     2     2   ---   --- /
17/05/2006 04:50      17.0   0.0  16.6  17.0  32  1021   ---     N     2     2   ---   --- /
17/05/2006 05:50      17.0   0.0  16.6  17.0  32  1022   ---     N     2     2   ---   --- /
17/05/2006 06:50      17.0   0.0  16.6  17.0  32  1022   ---     N     5     5   ---   --- /
17/05/2006 07:50      20.0   0.0  19.4  20.0  26  1022   ---     N     2     2   ---   --- /
17/05/2006 08:50      21.0   0.0  20.4  21.0  25  1022   ---     N     3     3   ---   --- /
17/05/2006 09:50      21.0  15.0  22.5  21.0  69  1022   ---     N     5     5   ---   --- /
17/05/2006 10:50      22.0  15.0  23.3  22.0  65  1022   ---     N     5     5   ---   --- /
17/05/2006 11:50      22.0  15.0  23.3  21.0  65  1022   ---     N     6     6   ---   --- /
17/05/2006 12:50      22.0  15.0  23.3  19.8  65  1022   ---   NNE    10    10   ---   --- /
17/05/2006 13:50      23.0  17.0  24.6  19.4  69  1021   ---   NNE    16    16   ---   --- /
17/05/2006 14:50      23.0  17.0  24.6  19.4  69  1021   ---   NNE    16    16   ---   --- /
17/05/2006 15:50      23.0  18.0  24.9  19.8  73  1021   ---   NNE    14    14   ---   --- /
17/05/2006 16:50      23.0  18.0  24.9  21.0  73  1021   ---     N    10    10   ---   --- /
17/05/2006 17:50      21.0  15.0  22.5  19.0  69  1021   ---   NNE     8     8   ---   --- /
17/05/2006 18:50      22.0  16.0  23.6  22.0  69  1020   ---     N     5     5   ---   --- /
17/05/2006 19:50      22.0  16.0  23.6  22.0  69  1021   ---     N     3     3   ---   --- /
17/05/2006 20:50      21.0  16.0  22.9  21.0  73  1020   ---     N     5     5   ---   --- /
17/05/2006 21:50      20.0  18.0  23.0  17.8  88  1020   ---     E     8     8   ---   --- /
17/05/2006 22:50      20.0  18.0  23.0  20.0  88  1020   ---     N     5     5   ---   --- /
17/05/2006 23:50      19.0  17.0  22.0  19.0  88  1021   ---     N     5     5   ---   --- /
18/05/2006 00:50      19.0  17.0  22.0  19.0  88  1020   ---     N     0     0   ---   --- /
18/05/2006 01:50      19.0  17.0  22.0  19.0  88  1020   ---   ---     0     0   ---   --- /
18/05/2006 02:50      18.0  16.0  21.0  18.0  88  1020   ---   ---     0     0   ---   --- /
18/05/2006 03:50      18.0  14.0  20.2  18.0  77  1020   ---   ---     0     0   ---   --- /
18/05/2006 04:50      18.0  14.0  20.2  18.0  77  1020   ---   ---     0     0   ---   --- /
18/05/2006 05:50      18.0  15.0  20.5  18.0  83  1020   ---   ---     0     0   ---   --- /
18/05/2006 06:50      18.0  15.0  20.5  18.0  83  1020   ---   ---     2     2   ---   --- /
18/05/2006 07:50      20.0  15.0  21.8  20.0  73  1020   ---     N     2     2   ---   --- /
18/05/2006 08:50      23.0  15.0  24.1  20.2  61  1021   ---   ENE    13    13   ---   --- /
18/05/2006 09:50      22.0  15.0  23.3  19.8  65  1021   ---   NNE    10    10   ---   --- /
18/05/2006 10:50      22.0  13.0  22.8  20.2  57  1021   ---   NNE     8     8   ---   --- /
18/05/2006 12:00       0.0   0.0   4.0  -5.5 100   ---   ---   NNE   ---   ---   ---   --- /
18/05/2006 12:50      25.0  14.0  25.5  22.5  51  1020   ---   NNE    14    14   ---   --- /
18/05/2006 13:50      25.0  15.0  25.7  22.0  54  1020   ---   NNE    18    18   ---   --- /
18/05/2006 14:50      25.0  12.0  25.2  21.6  44  1020   ---   ENE    21    21   ---   --- /
18/05/2006 15:50      26.0  14.0  26.3  23.0  48  1019   ---   ENE    21    21   ---   --- /
18/05/2006 16:50      27.0  12.0  26.8  24.9  39  1019   ---   ENE    16    16   ---   --- /
18/05/2006 17:50      28.0   9.0  27.1  26.2  30  1019   ---   ENE    16    16   ---   --- /
18/05/2006 18:50      25.0  12.0  25.2  22.1  44  1019   ---   ENE    16    16   ---   --- /
18/05/2006 19:50      25.0  12.0  25.2  25.0  44  1018   ---     N     5     5   ---   --- /
18/05/2006 19:50      25.0  12.0  25.2  25.0  44  1018   ---   ---     5     5   ---   --- None reported/None reported
18/05/2006 19:50      25.0  12.0  25.2  25.0  44  1018   ---   ---     5     5   ---   --- None reported/None reported
18/05/2006 20:50      23.0  17.0  24.6  20.2  69  1019   ---    SW    13    13   ---   --- /
18/05/2006 21:50      23.0  16.0  24.3  22.1  65  1019   ---    SW     6     6   ---   --- /
18/05/2006 23:20      22.0  13.0  22.8  22.0  57  1019   ---     N     3     3   ---   --- /
19/05/2006 00:50      21.0  16.0  22.9  19.9  73  1018   ---   ENE     6     6   ---   --- /
19/05/2006 01:50      21.0  11.0  21.6  21.0  53  1018   ---     N     3     3   ---   --- /
19/05/2006 02:50      20.0  11.0  20.8  20.0  56  1018   ---     N     2     2   ---   --- /
19/05/2006 03:50      20.0  12.0  21.0  20.0  60  1017   ---     N     0     0   ---   --- /
19/05/2006 04:50      19.0  13.0  20.5  19.0  68  1017   ---   ---     3     3   ---   --- /
19/05/2006 05:20      20.0  13.0  21.3  20.0  64  1017   ---     N     2     2   ---   --- /
19/05/2006 06:50      19.0  11.0  20.0  19.0  60  1017   ---     N     0     0   ---   --- /
19/05/2006 06:50      19.0  11.0  20.0  19.0  60  1017   ---   ---     0     0   ---   --- None reported/None reported
19/05/2006 06:50      19.0  11.0  20.0  19.0  60  1017   ---   ---     0     0   ---   --- None reported/None reported
19/05/2006 06:50      19.0  11.0  20.0  19.0  60  1017   ---   ---     0     0   ---   --- None reported/None reported
19/05/2006 06:50      19.0  11.0  20.0  19.0  60  1017   ---   ---     0     0   ---   --- None reported/None reported
19/05/2006 07:50      23.0  12.0  23.4  23.0  50  1016   ---   ---     5     5   ---   --- /
19/05/2006 08:50      24.0  14.0  24.6  23.2  54  1016   ---     N     6     6   ---   --- /
19/05/2006 09:50      25.0  14.0  25.5  24.3  51  1017   ---    NE     6     6   ---   --- /
19/05/2006 11:50      31.0   0.0  28.9  31.0  14  1016   ---     N     5     5   ---   --- /
19/05/2006 12:50      29.0  10.0  27.9  28.6  31  1016   ---   NNE     6     6   ---   --- /
19/05/2006 13:50      30.0  11.0  28.8  29.7  31  1014   ---   NNE     6     6   ---   --- /
19/05/2006 15:50      30.0   0.0  28.1  30.0  14  1015   ---     N     5     5   ---   --- /
19/05/2006 16:50      30.0  11.0  28.8  29.7  31  1014   ---    NE     6     6   ---   --- /
19/05/2006 17:50      29.0  11.0  28.0  28.3  33  1014   ---   NNE     8     8   ---   4.2 Scattered Clouds/
19/05/2006 18:50      32.0   0.0  29.8  31.6  13  1013   ---    SW    23    23   ---   4.2 Scattered Clouds/
19/05/2006 18:50      32.0  14.0  31.3  31.6  34  1013   ---    SW    23    23   ---   4.2 Scattered Clouds/None reported
19/05/2006 18:50      32.0  14.0  31.3  31.6  34  1013   ---    SW    23    23   ---   4.2 Scattered Clouds/None reported
19/05/2006 18:50      32.0  14.0  31.3  31.6  34  1013   ---    SW    23    23   ---   4.2 Scattered Clouds/None reported
19/05/2006 20:50      28.0  10.0  27.2  26.1  33  1014   ---    SW    18    18   ---   4.2 Scattered Clouds/
19/05/2006 21:20      26.0  13.0  26.2  23.1  45  1014   ---   SSW    19    19   ---   4.2 Scattered Clouds/
19/05/2006 22:50      30.0   0.0  28.1  28.8  14  1013   ---   SSW    19    19   ---   --- /
19/05/2006 23:50      26.0  12.0  26.0  26.0  42  1013   ---     N     2     2   ---   --- /
20/05/2006 00:50      28.0  11.0  27.3  25.9  35  1013   ---    SW    19    19   ---   --- /
20/05/2006 01:50      28.0  11.0  27.3  26.2  35  1014   ---   SSW    16    16   ---   3.0 Scattered Clouds/
20/05/2006 02:50      27.0  10.0  26.6  24.4  34  1014   ---   SSW    21    40   ---   --- /
20/05/2006 03:50      28.0  11.0  27.3  25.9  35  1013   ---   SSW    19    19   ---   3.0 Scattered Clouds/
20/05/2006 04:50      29.0  12.0  28.2  28.2  35  1013   ---   SSW    10    10   ---   --- /
20/05/2006 05:50      27.0  13.0  27.0  25.8  42  1012   ---   SSW    10    10   ---   3.0 Broken Clouds/
20/05/2006 06:20      28.0  12.0  27.5  27.0  37  1012   ---    SW    10    10   ---   --- /
20/05/2006 07:50      29.0  12.0  28.2  28.3  35  1012   ---   WSW     8     8   ---   3.0 Scattered Clouds/
20/05/2006 08:50      23.0  19.0  25.2  23.0  78  1014   ---     N     0     0   ---   5.4 Scattered Clouds/
20/05/2006 09:50      22.0  18.0  24.2  22.0  78  1014   ---   ---     5     5   ---   3.9 Scattered Clouds/
20/05/2006 10:50      23.0  19.0  25.2  22.1  78  1014   ---    NW     6     6   ---   --- /
20/05/2006 11:50      24.0  19.0  25.9  21.1  74  1014   ---   NNW    14    14   ---   --- /
20/05/2006 12:50      23.0  20.0  25.6  21.0  83  1014   ---     N    10    10   ---   --- /
20/05/2006 13:50      22.0  20.0  25.0  19.8  88  1014   ---     N    10    10   ---   --- /
20/05/2006 14:50      23.0  19.0  25.2  19.8  78  1014   ---   NNE    14    14   ---   --- /
20/05/2006 15:50      24.0  18.0  25.6  21.1  69  1014   ---   NNE    14    14   ---   --- /
20/05/2006 16:50      25.0  17.0  26.1  23.4  61  1014   ---   NNE    10    10   ---   --- /
20/05/2006 17:50      24.0  17.0  25.3  22.2  65  1014   ---   NNE    10    10   ---   --- /
20/05/2006 19:50      23.0  18.0  24.9  19.2  73  1013   ---   ENE    18    18   ---   --- /
20/05/2006 20:50      22.0  18.0  24.2  20.2  78  1013   ---   ENE     8     8   ---   --- /
20/05/2006 21:50      21.0  20.0  24.5  21.0  94  1014   ---     N     0     0   ---   --- /
20/05/2006 22:20      22.0  20.0  25.0  22.0  88  1014   ---   ---     2     2   ---   --- /
20/05/2006 23:50      21.0  19.0  24.0  21.0  88  1014   ---     N     5     5   ---   --- /
21/05/2006 00:50      21.0  19.0  24.0  21.0  88  1014   ---     N     5     5   ---   --- /
21/05/2006 01:50      20.0  18.0  23.0  20.0  88  1013   ---     N     2     2   ---   --- /
21/05/2006 02:50      20.0  18.0  23.0  20.0  88  1013   ---     N     0     0   ---   --- /
21/05/2006 03:50      20.0  17.0  22.6  20.0  83  1013   ---   ---     2     2   ---   --- /
21/05/2006 04:50      19.0  18.0  22.5  19.0  94  1012   ---     N     0     0   ---   --- /
21/05/2006 05:20      20.0  18.0  23.0  20.0  88  1012   ---   ---     2     2   ---   --- /
21/05/2006 06:20       0.0   0.0   4.0   0.0 100   ---   ---   ---   ---   ---   ---   --- /
21/05/2006 07:50      21.0  18.0  23.6  21.0  83  1013   ---     N     3     3   ---   --- /
21/05/2006 08:50      22.0  19.0  24.6  21.0  83  1014   ---   NNE     6     6   ---   0.7 Scattered Clouds/
21/05/2006 09:50      23.0  18.0  24.9  19.8  73  1014   ---    NE    14    14   ---   --- /
21/05/2006 09:50      23.0  18.0  24.9  19.8  73  1014   ---    NE    14    14   ---   --- None reported/None reported
21/05/2006 09:50      23.0  18.0  24.9  19.8  73  1014   ---    NE    14    14   ---   --- None reported/None reported
21/05/2006 09:50      23.0  18.0  24.9  19.8  73  1014   ---    NE    14    14   ---   --- None reported/None reported
21/05/2006 10:50      24.0  17.0  25.3  20.3  65  1013   ---    NE    19    19   ---   4.2 Scattered Clouds/
21/05/2006 11:20      24.0  16.0  25.1  20.3  61  1013   ---    NE    19    19   ---   5.4 Scattered Clouds/
21/05/2006 12:50      25.0  19.0  26.6  21.7  69  1013   ---   ENE    19    19   ---   4.2 Scattered Clouds/
21/05/2006 13:50      26.0  19.0  27.3  23.0  65  1013   ---   ENE    21    21   ---   0.9 Broken Clouds/
21/05/2006 14:50      27.0  18.0  27.9  25.3  58  1013   ---    NE    13    13   ---   0.9 Broken Clouds/
21/05/2006 15:50      27.0  18.0  27.9  25.3  58  1012   ---    NE    13    13   ---   0.9 Broken Clouds/
21/05/2006 16:50      27.0  18.0  27.9  25.3  58  1012   ---   ENE    13    13   ---   --- /
21/05/2006 17:20      26.0  17.0  26.9  24.1  58  1012   ---    NE    13    13   ---   --- /
21/05/2006 18:20      24.0  18.0  25.6  22.2  69  1012   ---    NE    10    10   ---   --- /
21/05/2006 19:50      23.0  18.0  24.9  21.3  73  1012   ---   ENE     8     8   ---   --- /
21/05/2006 20:50      22.0  19.0  24.6  20.2  83  1012   ---    NW     8     8   ---   --- /
21/05/2006 21:50      22.0  20.0  25.0  19.8  88  1013   ---   WNW    10    10   ---   --- /
21/05/2006 22:50      22.0  20.0  25.0  20.2  88  1012   ---    SW     8     8   ---   --- /
21/05/2006 23:20      22.0  20.0  25.0  22.0  88  1013   ---     N     3     3   ---   --- /
22/05/2006 00:50      21.0  19.0  24.0  21.0  88  1013   ---     N     0     0   ---   --- /
22/05/2006 01:50      21.0  19.0  24.0  21.0  88  1013   ---   ---     3     3   ---   --- /
22/05/2006 02:50      21.0  19.0  24.0  19.9  88  1012   ---    SW     6     6   ---   --- /
22/05/2006 03:50      20.0  18.0  23.0  20.0  88  1012   ---     N     5     5   ---   --- /
22/05/2006 04:50      21.0  16.0  22.9  21.0  73  1012   ---     N     5     5   ---   --- /
22/05/2006 05:50      20.0  16.0  22.2  20.0  78  1012   ---     N     3     3   ---   --- /
22/05/2006 06:50      22.0  17.0  23.9  18.9  73  1012   ---     E    13    13   ---   --- /
22/05/2006 07:50      24.0  17.0  25.3  22.5  65  1012   ---   ENE     8     8   ---   --- /
22/05/2006 08:50      24.0  16.0  25.1  22.2  61  1012   ---   ENE    10    10   ---   --- /
22/05/2006 09:50      27.0  15.0  27.3  27.0  48  1012   ---     N     5     5   ---   --- /
22/05/2006 10:50      27.0  14.0  27.1  27.0  45  1012   ---     N     5     5   ---   --- /
22/05/2006 11:50      28.0  14.0  27.8  27.0  42  1012   ---    NE    10    10   ---   --- /
22/05/2006 12:50      29.0  15.0  28.9  27.9  43  1012   ---   ENE    13    13   ---   --- /
22/05/2006 13:50      30.0  16.0  30.0  29.0  43  1012   ---   NNE    14    14   ---   --- /
22/05/2006 14:50      30.0  15.0  29.7  29.4  40  1012   ---    NE    10    10   ---   --- /
22/05/2006 15:50      32.0  12.0  30.8  32.0  30  1012   ---     N     2     2   ---   --- /
22/05/2006 16:50      30.0  16.0  30.0  29.4  43  1012   ---     W    10    10   ---   --- /
22/05/2006 17:50      29.0  16.0  29.1  29.0  45  1012   ---     N     2     2   ---   --- /
22/05/2006 18:50      29.0  17.0  29.5  29.0  48  1012   ---     N     5     5   ---   --- /
22/05/2006 19:50      27.0  15.0  27.3  24.9  48  1012   ---   WSW    16    16   ---   --- /
22/05/2006 20:50      26.0  15.0  26.5  26.0  51  1012   ---     N     3     3   ---   --- /
22/05/2006 21:50      25.0  15.0  25.7  25.0  54  1013   ---     N     3     3   ---   --- /
22/05/2006 22:50      24.0  17.0  25.3  24.0  65  1014   ---     N     0     0   ---   --- /
22/05/2006 23:50      25.0  15.0  25.7  25.0  54  1014   ---   ---     3     3   ---   --- /
23/05/2006 00:50      25.0  15.0  25.7  24.3  54  1014   ---    SW     6     6   ---   --- /
23/05/2006 01:50      24.0  15.0  24.8  22.5  57  1014   ---   SSE     8     8   ---   --- /
23/05/2006 02:50      23.0  16.0  24.3  22.1  65  1014   ---    SW     6     6   ---   --- /
23/05/2006 03:50      23.0  16.0  24.3  23.0  65  1014   ---     N     0     0   ---   --- /
23/05/2006 04:50      23.0  16.0  24.3  21.0  65  1013   ---    SE    10    10   ---   --- /
23/05/2006 05:50      23.0  17.0  24.6  23.0  69  1013   ---     N     5     5   ---   --- /
23/05/2006 06:50      25.0  14.0  25.5  25.0  51  1013   ---     N     0     0   ---   --- /
23/05/2006 07:50      24.0  18.0  25.6  22.5  69  1013   ---     N     8     8   ---   3.6 Scattered Clouds/
23/05/2006 08:50      27.0  18.0  27.9  27.0  58  1014   ---     N     5     5   ---   --- /
23/05/2006 09:50      28.0  15.0  28.0  28.0  45  1014   ---     N     3     3   ---   --- /
23/05/2006 10:50      28.0  16.0  28.3  27.2  48  1014   ---   NNE     8     8   ---   --- /
23/05/2006 11:50      30.0  17.0  30.4  29.0  46  1014   ---    NE    14    14   ---   --- /
23/05/2006 12:50      31.0  17.0  31.4  30.1  43  1013   ---   ENE    21    21   ---   --- /
23/05/2006 13:50      32.0  17.0  32.4  31.7  41  1013   ---    NE    13    13   ---   --- /
23/05/2006 14:50      34.0  14.0  33.3  34.0  30  1012   ---   ENE    19    19   ---   --- /
23/05/2006 15:50      35.0   0.0  32.4  35.0  11  1012   ---   ENE    16    16   ---   --- /
23/05/2006 16:50      36.0   0.0  33.2  36.0  10  1012   ---   NNE     8     8   ---   --- /
23/05/2006 17:50      35.0   0.0  32.4  35.0  11  1011   ---    NE     8     8   ---   5.4 Scattered Clouds/
23/05/2006 18:50      33.0   0.0  30.6  33.0  12  1011   ---     N     0     0   ---   5.4 Scattered Clouds/
23/05/2006 19:50      31.0  15.0  30.6  31.0  38  1010   ---   ---     3     3   ---   5.4 Broken Clouds/
23/05/2006 19:50      31.0  15.0  30.6  31.0  38  1010   ---   ---     3     3   ---   5.4 Broken Clouds/None reported
23/05/2006 20:50      27.0  17.0  27.7  27.0  54  1010   ---     N     5     5   ---   4.8 Broken Clouds/
23/05/2006 21:50      28.0  16.0  28.3  27.0  48  1011   ---   WSW    10    10   ---   4.8 Broken Clouds/
23/05/2006 22:50      26.0  17.0  26.9  26.0  58  1011   ---     N     2     2   ---   4.8 Broken Clouds/
23/05/2006 23:50      26.0  17.0  26.9  24.8  58  1011   ---     E     8     8   ---   4.8 Broken Clouds/
24/05/2006 00:50      25.0  18.0  26.3  23.4  65  1010   ---    NE    10    10   ---   --- /
24/05/2006 01:50      25.0  19.0  26.6  25.0  69  1011   ---     N     3     3   ---   --- /
24/05/2006 02:50      24.0  20.0  26.2  24.0  78  1012   ---     N     2     2   ---   --- /
24/05/2006 03:50      24.0  18.0  25.6  24.0  69  1012   ---     N     0     0   ---   --- /
24/05/2006 04:50      23.0  18.0  24.9  23.0  73  1012   ---   ---     3     3   ---   --- /
24/05/2006 05:50      23.0  18.0  24.9  21.3  73  1011   ---   ESE     8     8   ---   --- /
24/05/2006 06:50      24.0  17.0  25.3  24.0  65  1012   ---     N     0     0   ---   --- /
24/05/2006 06:50      24.0  17.0  25.3  24.0  65  1012   ---   ---     0     0   ---   --- None reported/None reported
24/05/2006 07:50      24.0  18.0  25.6  23.2  69  1013   ---     N     6     6   ---   --- /
24/05/2006 08:50       0.0   0.0   4.0  -3.0 100   ---   ---     N   ---   ---   ---   --- /
24/05/2006 08:20      25.0  18.0  26.3  24.3  65  1013   ---   ESE     6     6   ---   --- /
24/05/2006 10:50      28.0  14.0  27.8  26.2  42  1014   ---    NE    16    16   ---   4.8 Scattered Clouds/
24/05/2006 11:50      27.0  14.0  27.1  24.7  45  1014   ---   NNE    18    18   ---   2.7 Few Clouds/
24/05/2006 12:50      25.0  20.0  26.9  22.1  74  1015   ---    NE    16    16   ---   3.3 Scattered Clouds/
24/05/2006 13:50      25.0  21.0  27.2  21.6  79  1015   ---    NE    21    21   ---   3.6 Broken Clouds/
24/05/2006 14:50      23.0  22.0  26.5  18.7  94  1016   ---   NNW    21    21   ---   0.1 Broken Clouds/
24/05/2006 15:50      23.0  21.0  26.0  19.4  89  1016   ---     N    16    16   ---   0.1 Broken Clouds/
24/05/2006 16:50      24.0  20.0  26.2  20.8  78  1017   ---   NNE    16    16   ---   0.4 Broken Clouds/
24/05/2006 16:50      24.0  20.0  26.2  20.8  78  1017   ---   NNE    16    16   ---   0.4 Broken Clouds/None reported
24/05/2006 16:50      24.0  20.0  26.2  20.8  78  1017   ---   NNE    16    16   ---   0.4 Broken Clouds/None reported
24/05/2006 16:50      24.0  20.0  26.2  20.8  78  1017   ---   NNE    16    16   ---   0.4 Broken Clouds/None reported
24/05/2006 16:50      24.0  20.0  26.2  20.8  78  1017   ---   NNE    16    16   ---   0.4 Broken Clouds/None reported
24/05/2006 16:50      24.0  20.0  26.2  20.8  78  1017   ---   NNE    16    16   ---   0.4 Broken Clouds/None reported
24/05/2006 16:50      24.0  20.0  26.2  20.8  78  1017   ---   NNE    16    16   ---   0.4 Broken Clouds/None reported
24/05/2006 17:50      24.0  19.0  25.9  21.1  74  1017   ---    NE    14    14   ---   0.4 Broken Clouds/
24/05/2006 18:50      24.0  19.0  25.9  20.3  74  1017   ---    NE    19    19   ---   0.5 Few Clouds/
24/05/2006 19:50      22.0  18.0  24.2  17.3  78  1017   ---   NNE    21    21   ---   0.5 Few Clouds/
24/05/2006 20:50      22.0  18.0  24.2  17.3  78  1018   ---     N    21    21   ---   0.5 Few Clouds/
24/05/2006 21:50      21.0  18.0  23.6  18.6  83  1020   ---    NE    10    10   ---   0.5 Few Clouds/
24/05/2006 22:50      21.0  14.0  22.3  18.6  64  1019   ---   ENE    10    10   ---   0.5 Few Clouds/
24/05/2006 23:50      22.0  12.0  22.6  17.9  53  1019   ---   ENE    18    18   ---   0.7 Few Clouds/
25/05/2006 00:50      21.0  14.0  22.3  15.6  64  1018   ---   ENE    23    23   ---   0.7 Few Clouds/
25/05/2006 01:50      21.0  16.0  22.9  16.1  73  1018   ---    NE    19    19   ---   0.7 Few Clouds/
25/05/2006 02:50      21.0  15.0  22.5  16.7  69  1018   ---   ENE    16    16   ---   0.7 Few Clouds/
25/05/2006 03:50      21.0  15.0  22.5  16.5  69  1018   ---    NE    18    18   ---   0.7 Few Clouds/
25/05/2006 04:50      20.0  14.0  21.5  15.9  68  1018   ---    NE    14    14   ---   --- /
25/05/2006 05:50      20.0  16.0  22.2  14.4  78  1019   ---     N    21    21   ---   --- /
25/05/2006 06:50      20.0  16.0  22.2  14.6  78  1019   ---   NNE    19    19   ---   --- /
25/05/2006 07:50      21.0  17.0  23.2  16.5  78  1020   ---   NNE    18    18   ---   0.5 Scattered Clouds/
25/05/2006 08:50      21.0  17.0  23.2  16.1  78  1020   ---   NNE    19    19   ---   0.5 Scattered Clouds/
25/05/2006 10:50      22.0  17.0  23.9  17.5  73  1020   ---   NNE    19    19   ---   0.5 Broken Clouds/
25/05/2006 11:50      21.0  17.0  23.2  16.7  78  1020   ---   NNE    16    16   ---   0.5 Broken Clouds/
25/05/2006 12:50      22.0  17.0  23.9  17.9  73  1021   ---   NNE    18    18   ---   0.5 Broken Clouds/
25/05/2006 13:50      22.0  17.0  23.9  17.9  73  1021   ---    NE    18    18   ---   0.5 Broken Clouds/
25/05/2006 14:50      22.0  17.0  23.9  18.1  73  1021   ---    NE    16    16   ---   0.5 Broken Clouds/
25/05/2006 15:50      22.0  17.0  23.9  18.5  73  1020   ---    NE    14    14   ---   0.6 Scattered Clouds/
25/05/2006 16:50      22.0  16.0  23.6  18.9  69  1020   ---    NE    13    13   ---   0.6 Scattered Clouds/
25/05/2006 17:50      23.0  17.0  24.6  19.8  69  1020   ---   NNE    14    14   ---   0.6 Scattered Clouds/
25/05/2006 18:50      22.0  16.0  23.6  19.8  69  1020   ---   NNE    10    10   ---   --- /
25/05/2006 18:50      22.0  16.0  23.6  19.8  69  1020   ---   NNE    10    10   ---   --- None reported/None reported
25/05/2006 18:50      22.0  16.0  23.6  19.8  69  1020   ---   NNE    10    10   ---   --- None reported/None reported
25/05/2006 18:50      22.0  16.0  23.6  19.8  69  1020   ---   NNE    10    10   ---   --- None reported/None reported
25/05/2006 20:50      20.0  17.0  22.6  17.8  83  1021   ---   NNE     8     8   ---   --- /
25/05/2006 20:50      20.0  17.0  22.6  17.8  83  1021   ---   NNE     8     8   ---   --- None reported/None reported
25/05/2006 21:50      20.0  17.0  22.6  20.0  83  1021   ---     N     5     5   ---   --- /
25/05/2006 22:50      19.0  17.0  22.0  19.0  88  1020   ---     N     5     5   ---   --- /
25/05/2006 23:50      19.0  18.0  22.5  17.7  94  1021   ---   ENE     6     6   ---   --- /
26/05/2006 00:50      18.0  15.0  20.5  15.0  83  1021   ---    NE    10    10   ---   --- /
26/05/2006 01:50      19.0  17.0  22.0  14.5  88  1021   ---   ENE    14    14   ---   --- /
26/05/2006 02:50      19.0  17.0  22.0  14.5  88  1020   ---   ENE    14    14   ---   --- /
26/05/2006 03:50      19.0  17.0  22.0  14.0  88  1019   ---   ENE    16    16   ---   --- /
26/05/2006 04:50      18.0  16.0  21.0  12.4  88  1020   ---   ENE    18    18   ---   --- /
26/05/2006 06:50      19.0  15.0  21.2  15.1  78  1020   ---    NE    13    13   ---   --- /
26/05/2006 07:50      21.0  15.0  22.5  17.7  69  1021   ---    NE    13    13   ---   --- /
26/05/2006 08:50      21.0  15.0  22.5  19.0  69  1021   ---    NE     8     8   ---   --- /
26/05/2006 09:50      21.0  15.0  22.5  18.6  69  1021   ---   NNE    10    10   ---   5.4 Scattered Clouds/
26/05/2006 10:20      22.0  13.0  22.8  19.8  57  1022   ---   NNE    10    10   ---   5.4 Scattered Clouds/
26/05/2006 11:50      23.0  15.0  24.1  19.4  61  1022   ---   NNE    16    16   ---   5.4 Scattered Clouds/
26/05/2006 12:50      23.0  15.0  24.1  20.2  61  1022   ---     N    13    13   ---   5.4 Scattered Clouds/
26/05/2006 13:50      24.0  15.0  24.8  21.1  57  1022   ---   NNE    14    14   ---   5.4 Scattered Clouds/
26/05/2006 14:50      23.0  15.0  24.1  19.8  61  1022   ---     N    14    14   ---   5.4 Scattered Clouds/
26/05/2006 15:50      24.0  15.0  24.8  20.6  57  1021   ---    NE    18    18   ---   5.4 Scattered Clouds/
26/05/2006 16:50      24.0  14.0  24.6  20.6  54  1021   ---   ENE    18    18   ---   --- /
26/05/2006 17:50      25.0  13.0  25.3  21.6  47  1020   ---   ENE    21    21   ---   --- /
26/05/2006 18:20      24.0  14.0  24.6  20.3  54  1020   ---   ENE    19    19   ---   5.4 Scattered Clouds/
26/05/2006 19:50      23.0  16.0  24.3  19.2  65  1020   ---    NE    18    18   ---   --- /
26/05/2006 20:50      22.0  16.0  23.6  17.9  69  1020   ---     N    18    18   ---   --- /
26/05/2006 21:50      21.0  16.0  22.9  18.6  73  1021   ---     N    10    10   ---   --- /
26/05/2006 22:50      21.0  17.0  23.2  18.6  78  1021   ---   NNE    10    10   ---   --- /
26/05/2006 23:50      20.0  17.0  22.6  20.0  83  1021   ---     N     3     3   ---   --- /
27/05/2006 00:50      20.0  17.0  22.6  18.8  83  1022   ---   SSW     6     6   ---   --- /
27/05/2006 01:50      20.0  17.0  22.6  17.8  83  1022   ---   SSW     8     8   ---   --- /
27/05/2006 02:50      19.0  17.0  22.0  19.0  88  1021   ---     N     5     5   ---   --- /
27/05/2006 03:50      19.0  17.0  22.0  19.0  88  1022   ---     N     3     3   ---   --- /
27/05/2006 04:50      19.0  18.0  22.5  19.0  94  1021   ---     N     0     0   ---   --- /
27/05/2006 05:50      19.0  17.0  22.0  19.0  88  1021   ---   ---     0     0   ---   --- /
27/05/2006 06:50      19.0  18.0  22.5  19.0  94  1021   ---   ---     2     2   ---   --- /
27/05/2006 07:50      21.0  18.0  23.6  21.0  83  1022   ---     N     5     5   ---   --- /
27/05/2006 08:50      22.0  17.0  23.9  22.0  73  1021   ---     N     5     5   ---   --- /
27/05/2006 08:50      22.0  17.0  23.9  22.0  73  1021   ---   ---     5     5   ---   --- None reported/None reported
27/05/2006 09:50      23.0  16.0  24.3  23.0  65  1021   ---     N     5     5   ---   --- /
27/05/2006 10:50      23.0  16.0  24.3  23.0  65  1021   ---     N     5     5   ---   --- /
27/05/2006 11:50      24.0  15.0  24.8  24.0  57  1022   ---     N     5     5   ---   --- /
27/05/2006 12:50      25.0  12.0  25.2  24.3  44  1022   ---     N     6     6   ---   --- /
27/05/2006 13:50      25.0  13.0  25.3  23.7  47  1021   ---     N     8     8   ---   --- /
27/05/2006 14:50      26.0   8.0  25.6  25.4  32  1021   ---   NNE     6     6   ---   --- /
27/05/2006 15:50      25.0   8.0  24.7  25.0  34  1021   ---     N     5     5   ---   --- /
27/05/2006 16:50      24.0  12.0  24.3  23.2  47  1021   ---     N     6     6   ---   --- /
27/05/2006 17:50      24.0  20.0  26.2  21.5  78  1020   ---    NW    13    13   ---   --- /
27/05/2006 18:50      23.0  19.0  25.2  21.3  78  1020   ---   NNW     8     8   ---   --- /
27/05/2006 19:50      22.0  20.0  25.0  18.9  88  1020   ---   NNW    13    13   ---   0.4 Few Clouds/
27/05/2006 20:50      22.0  20.0  25.0  18.5  88  1020   ---   NNW    14    14   ---   0.4 Scattered Clouds/
27/05/2006 21:50      21.0  20.0  24.5  17.7  94  1021   ---   NNW    13    13   ---   0.4 Scattered Clouds/
27/05/2006 22:50      21.0  20.0  24.5  19.0  94  1020   ---   NNW     8     8   ---   0.4 Broken Clouds/
27/05/2006 23:50      21.0  20.0  24.5  19.9  94  1021   ---   NNW     6     6   ---   0.4 Broken Clouds/
28/05/2006 00:50      21.0  19.0  24.0  21.0  88  1020   ---     N     3     3   ---   0.4 Broken Clouds/
28/05/2006 01:50      21.0  19.0  24.0  19.9  88  1020   ---    SW     6     6   ---   0.4 Scattered Clouds/
28/05/2006 02:50      20.0  19.0  23.5  18.8  94  1019   ---    SW     6     6   ---   0.4 Scattered Clouds/
28/05/2006 03:50      20.0  19.0  23.5  20.0  94  1020   ---     N     5     5   ---   0.4 Scattered Clouds/
28/05/2006 04:50      19.0  18.0  22.5  19.0  94  1020   ---     N     2     2   ---   0.4 Few Clouds/
28/05/2006 05:50      19.0  19.0  23.0  19.0 100  1019   ---     N     3     3   ---   0.4 Few Clouds/
28/05/2006 06:50      20.0  19.0  23.5  20.0  94  1020   ---     N     5     5   ---   0.4 Scattered Clouds/
28/05/2006 07:50      20.0  19.0  23.5  20.0  94  1019   ---     N     5     5   ---   0.4 Scattered Clouds/
28/05/2006 08:50      21.0  18.0  23.6  21.0  83  1019   ---     N     5     5   ---   0.4 Scattered Clouds/
28/05/2006 09:50      21.0  17.0  23.2  21.0  78  1019   ---     N     5     5   ---   0.4 Scattered Clouds/
28/05/2006 09:50      21.0  17.0  23.2  21.0  78  1019   ---   ---     5     5   ---   0.4 Scattered Clouds/None reported
28/05/2006 10:50      22.0  18.0  24.2  22.0  78  1019   ---     N     5     5   ---   0.4 Few Clouds/
28/05/2006 10:50      22.0  18.0  24.2  22.0  78  1019   ---   ---     5     5   ---   0.4 Few Clouds/None reported
28/05/2006 11:50      22.0  17.0  23.9  20.2  73  1018   ---     N     8     8   ---   --- /
28/05/2006 12:50      23.0  17.0  24.6  20.2  69  1018   ---     N    13    13   ---   --- /
28/05/2006 13:50      23.0  18.0  24.9  21.3  73  1018   ---   NNW     8     8   ---   0.5 Few Clouds/
28/05/2006 14:50      23.0  19.0  25.2  20.2  78  1018   ---    NW    13    13   ---   0.6 Few Clouds/
28/05/2006 15:50      24.0  19.0  25.9  19.7  74  1018   ---    NW    26    26   ---   0.6 Few Clouds/
28/05/2006 16:50      23.0  18.0  24.9  18.2  73  1017   ---   WNW    26    26   ---   0.6 Few Clouds/
28/05/2006 17:50      23.0  19.0  25.2  23.0  78  1017   ---     N     2     2   ---   0.5 Scattered Clouds/
28/05/2006 18:50      23.0  19.0  25.2  19.4  78  1016   ---    NW    16    16   ---   0.5 Scattered Clouds/
28/05/2006 19:50      22.0  19.0  24.6  18.1  83  1016   ---    NW    16    16   ---   0.3 Few Clouds/
28/05/2006 20:50      21.0  19.0  24.0  18.6  88  1017   ---    NW    10    10   ---   0.3 Few Clouds/
28/05/2006 21:50      21.0  19.0  24.0  19.0  88  1016   ---    NW     8     8   ---   0.3 Scattered Clouds/
28/05/2006 22:50      21.0  19.0  24.0  18.6  88  1016   ---   WNW    10    10   ---   0.3 Scattered Clouds/
28/05/2006 23:50      21.0  19.0  24.0  21.0  88  1016   ---     N     3     3   ---   0.3 Scattered Clouds/
29/05/2006 00:50      20.0  19.0  23.5  20.0  94  1016   ---     N     3     3   ---   0.3 Scattered Clouds/
29/05/2006 01:50      20.0  19.0  23.5  20.0  94  1015   ---     N     2     2   ---   0.3 Scattered Clouds/
29/05/2006 02:50      19.0  18.0  22.5  19.0  94  1015   ---     N     5     5   ---   0.7 Few Clouds/
29/05/2006 03:50      19.0  18.0  22.5  19.0  94  1014   ---     N     5     5   ---   0.7 Few Clouds/
29/05/2006 04:50      19.0  18.0  22.5  19.0  94  1014   ---     N     2     2   ---   0.7 Few Clouds/
29/05/2006 05:50      19.0  18.0  22.5  19.0  94  1013   ---     N     2     2   ---   --- /
29/05/2006 06:50      20.0  19.0  23.5  20.0  94  1013   ---     N     5     5   ---   --- /
29/05/2006 07:50      21.0  19.0  24.0  21.0  88  1013   ---     N     5     5   ---   --- /
29/05/2006 08:50      22.0  17.0  23.9  22.0  73  1013   ---     N     3     3   ---   --- /
29/05/2006 09:50      22.0  19.0  24.6  21.0  83  1013   ---     N     6     6   ---   --- /
29/05/2006 10:50      22.0  19.0  24.6  20.2  83  1013   ---     N     8     8   ---   --- /
29/05/2006 11:50      23.0  18.0  24.9  23.0  73  1013   ---     N     5     5   ---   --- /
29/05/2006 13:50      26.0  17.0  26.9  25.4  58  1012   ---   WNW     6     6   ---   --- /
29/05/2006 14:50      27.0  16.0  27.5  25.8  51  1011   ---    NW    10    10   ---   --- /
29/05/2006 15:50      27.0  13.0  27.0  26.4  42  1011   ---     W     6     6   ---   --- /
29/05/2006 16:50      27.0  13.0  27.0  27.0  42  1010   ---     N     3     3   ---   --- /
29/05/2006 17:50      26.0  15.0  26.5  26.0  51  1009   ---     N     2     2   ---   --- /
29/05/2006 18:50      26.0  13.0  26.2  26.0  45  1009   ---     N     0     0   ---   --- /
29/05/2006 19:50      26.0  11.0  25.9  26.0  39  1009   ---   ---     3     3   ---   --- /
29/05/2006 20:50      25.0  10.0  24.9  24.3  39  1009   ---   SSW     6     6   ---   --- /
29/05/2006 21:50      24.0  12.0  24.3  24.0  47  1009   ---     N     3     3   ---   --- /
29/05/2006 22:50      24.0  11.0  24.1  21.1  44  1008   ---    SW    14    14   ---   --- /
29/05/2006 23:50      26.0   8.0  25.6  24.1  32  1008   ---   SSW    13    13   ---   --- /
30/05/2006 00:50      27.0   0.0  26.0  24.3  17  1007   ---   SSW    23    23   ---   --- /
30/05/2006 01:50      26.0   8.0  25.6  23.4  32  1007   ---   SSW    18    18   ---   --- /
30/05/2006 02:50      26.0   8.0  25.6  22.6  32  1006   ---    SW    26    26   ---   --- /
30/05/2006 03:50      25.0   9.0  24.8  22.0  36  1007   ---    SW    18    18   ---   --- /
30/05/2006 04:50      25.0   9.0  24.8  21.7  36  1006   ---    SW    19    19   ---   --- /
30/05/2006 05:50      24.0  10.0  24.0  20.6  41  1005   ---    SW    18    18   ---   --- /
30/05/2006 06:50      24.0  10.0  24.0  22.2  41  1006   ---    SW    10    10   ---   4.5 Scattered Clouds/
30/05/2006 07:50      26.0  11.0  25.9  25.4  39  1006   ---   WSW     6     6   ---   --- /
30/05/2006 08:50      26.0  11.0  25.9  26.0  39  1006   ---     N     3     3   ---   --- /
30/05/2006 09:50      26.0  12.0  26.0  24.8  42  1006   ---    NW     8     8   ---   --- /
30/05/2006 10:50      26.0  13.0  26.2  25.4  45  1006   ---   NNW     6     6   ---   --- /
30/05/2006 11:50      25.0  14.0  25.5  23.7  51  1006   ---     N     8     8   ---   --- /
30/05/2006 12:50      25.0  17.0  26.1  22.0  61  1006   ---    NW    18    18   ---   3.6 Broken Clouds/
30/05/2006 13:50      25.0  16.0  25.9  24.3  57  1006   ---    NW     6     6   ---   3.6 Broken Clouds/
30/05/2006 14:50      25.0  16.0  25.9  22.0  57  1006   ---    NW    18    18   ---   --- /
30/05/2006 15:50      26.0  18.0  27.1  23.0  61  1006   ---   WNW    21    21   ---   --- /
30/05/2006 16:50      26.0  17.0  26.9  25.4  58  1006   ---   WSW     6     6   ---   --- /
30/05/2006 17:50      24.0  18.0  25.6  19.3  69  1006   ---    NW    31    31   ---   --- /
30/05/2006 18:50      23.0  18.0  24.9  17.8  73  1006   ---   WNW    31    31   ---   3.0 Broken Clouds/
30/05/2006 19:50      24.0  12.0  24.3  22.5  47  1006   ---   WSW     8     8   ---   1.0 Broken Clouds/
30/05/2006 20:50      24.0  12.0  24.3  20.6  47  1006   ---     W    18    18   ---   1.0 Broken Clouds/
30/05/2006 21:50      23.0  13.0  23.6  18.9  53  1008   ---   WSW    19    19   ---   1.0 Broken Clouds/
30/05/2006 22:50      23.0  13.0  23.6  18.5  53  1008   ---     W    23    23   ---   1.0 Broken Clouds/
30/05/2006 23:50      22.0  14.0  23.0  17.5  61  1008   ---     W    19    19   ---   1.0 Broken Clouds/
31/05/2006 00:50      22.0  15.0  23.3  16.7  65  1008   ---     W    26    26   ---   1.0 Broken Clouds/
31/05/2006 01:50      21.0  16.0  22.9  19.0  73  1008   ---     N     8     8   ---   3.0 Few Clouds/
31/05/2006 02:50      20.0  14.0  21.5  17.4  68  1007   ---     N    10    10   ---   3.0 Few Clouds/
31/05/2006 03:50      20.0  13.0  21.3  17.4  64  1008   ---   NNW    10    10   ---   3.0 Few Clouds/
31/05/2006 04:50      20.0  14.0  21.5  17.8  68  1008   ---     N     8     8   ---   --- /
31/05/2006 05:50      20.0  12.0  21.0  17.8  60  1007   ---     N     8     8   ---   3.6 Scattered Clouds/
31/05/2006 06:50      20.0  12.0  21.0  17.8  60  1008   ---     N     8     8   ---   3.6 Scattered Clouds/
31/05/2006 07:50      20.0  12.0  21.0  17.4  60  1008   ---     N    10    10   ---   3.6 Scattered Clouds/
31/05/2006 08:50      21.0  11.0  21.6  21.0  53  1009   ---     N     5     5   ---   0.9 Few Clouds/
31/05/2006 09:50      21.0  11.0  21.6  19.9  53  1009   ---     N     6     6   ---   0.9 Few Clouds/
31/05/2006 10:50      22.0  11.0  22.4  22.0  50  1009   ---     N     5     5   ---   0.9 Few Clouds/
31/05/2006 11:50      22.0  12.0  22.6  21.0  53  1009   ---     N     6     6   ---   0.9 Few Clouds/
31/05/2006 12:50      22.0  11.0  22.4  21.0  50  1010   ---    NW     6     6   ---   0.9 Broken Clouds/
31/05/2006 13:50      22.0  11.0  22.4  19.8  50  1009   ---    NW    10    10   ---   1.2 Broken Clouds/
31/05/2006 14:50      23.0  12.0  23.4  19.8  50  1009   ---    NW    14    14   ---   1.5 Broken Clouds/
31/05/2006 15:50      21.0  10.0  21.4  17.2  49  1009   ---    NW    14    14   ---   1.5 Broken Clouds/
31/05/2006 16:50      22.0  12.0  22.6  18.5  53  1009   ---    NW    14    14   ---   1.5 Scattered Clouds/
31/05/2006 17:50      21.0  12.0  21.8  16.5  56  1010   ---   WNW    18    18   ---   1.5 Broken Clouds/
31/05/2006 18:50      21.0  12.0  21.8  14.8  56  1010   ---   WNW    31    31   ---   0.7 Broken Clouds/
31/05/2006 19:50      21.0  12.0  21.8  14.8  56  1010   ---   WNW    31    31   ---   0.7 Broken Clouds/
31/05/2006 20:50      20.0  13.0  21.3  14.4  64  1011   ---   WNW    21    21   ---   0.7 Few Clouds/
31/05/2006 21:50      19.0  12.0  20.2  15.1  64  1011   ---     W    13    13   ---   0.7 Few Clouds/
31/05/2006 22:50      19.0  12.0  20.2  16.2  64  1010   ---   WSW    10    10   ---   0.7 Few Clouds/
31/05/2006 22:50      19.0  12.0  20.2  16.2  64  1010   ---   WSW    10    10   ---   0.7 Few Clouds/None reported
31/05/2006 23:50      18.0  11.0  19.2  12.6  64  1011   ---     W    16    16   ---   0.7 Few Clouds/
01/06/2006 00:50      19.0  10.0  19.8  19.0  56  1011   ---     N     5     5   ---   0.7 Few Clouds/
01/06/2006 01:20       0.0   0.0   4.0   0.0 100   ---   ---     N   ---   ---   ---   --- /
01/06/2006 03:00       0.0   0.0   4.0   0.0 100   ---   ---     N   ---   ---   ---   --- /
01/06/2006 03:50      20.0   9.0  20.4  15.9  49  1010   ---    SW    14    14   ---   0.7 Scattered Clouds/
01/06/2006 04:50      20.0  11.0  20.8  17.4  56  1010   ---    SW    10    10   ---   0.7 Scattered Clouds/
01/06/2006 05:50      20.0  12.0  21.0  16.4  60  1010   ---    SW    13    13   ---   0.7 Scattered Clouds/
01/06/2006 06:50      20.0  12.0  21.0  15.9  60  1011   ---   SSW    14    14   ---   0.7 Broken Clouds/
01/06/2006 07:50      18.0  14.0  20.2  10.4  77  1012   ---    NW    29    29   ---   0.5 Broken Clouds/
01/06/2006 08:50      18.0  13.0  19.8  10.2  73  1012   ---   WNW    31    31   ---   0.8 Broken Clouds/
01/06/2006 09:50      19.0  12.0  20.2  13.0  64  1012   ---   WSW    21    21   ---   0.8 Broken Clouds/
01/06/2006 10:50      20.0  10.0  20.6  14.4  53  1012   ---     W    21    21   ---   0.8 Broken Clouds/
01/06/2006 11:50      19.0  10.0  19.8  11.7  56  1013   ---     W    31    31   ---   0.7 Broken Clouds/
01/06/2006 12:20      19.0   9.0  19.6  11.6  52  1013   ---     W    32    32   ---   0.7 Broken Clouds/
01/06/2006 13:50      20.0   7.0  20.1  13.4  43  1013   ---     W    29    29   ---   0.7 Broken Clouds/
01/06/2006 14:50      20.0   9.0  20.4  13.1  49  1013   ---     W    32    32   ---   0.7 Broken Clouds/
01/06/2006 15:50      20.0   9.0  20.4  13.4  49  1013   ---     W    29    29   ---   0.7 Broken Clouds/
01/06/2006 15:50      20.0   9.0  20.4  13.4  49  1013   ---     W    29    29   ---   0.7 Broken Clouds/None reported
01/06/2006 15:50      20.0   9.0  20.4  13.4  49  1013   ---     W    29    29   ---   0.7 Broken Clouds/None reported
01/06/2006 17:20      19.0   9.0  19.6  12.3  52  1013   ---     W    26    26   ---   0.7 Scattered Clouds/
01/06/2006 18:50      20.0   9.0  20.4  13.8  49  1013   ---     W    26    26   ---   0.7 Scattered Clouds/
01/06/2006 19:50      19.0  10.0  19.8  11.9  56  1013   ---   WNW    29    29   ---   0.7 Scattered Clouds/
01/06/2006 20:50      18.0  11.0  19.2  11.8  64  1012   ---   WSW    19    19   ---   0.7 Scattered Clouds/
01/06/2006 21:50      19.0  11.0  20.0  11.6  60  1014   ---    NW    32    32   ---   0.7 Scattered Clouds/
01/06/2006 22:50      18.0   8.0  18.6  10.4  52  1014   ---    NW    29    29   ---   0.7 Scattered Clouds/
01/06/2006 23:50      18.0   9.0  18.8  10.8  56  1015   ---   WNW    26    26   ---   0.7 Scattered Clouds/
02/06/2006 00:20      18.0   9.0  18.8  10.6  56  1014   ---    NW    27    27   ---   0.7 Scattered Clouds/
02/06/2006 01:50      18.0  11.0  19.2  10.8  64  1014   ---    NW    26    26   ---   --- Overcast/ Light Rain
02/06/2006 02:50      18.0  11.0  19.2  10.6  64  1014   ---    NW    27    27   ---   0.6 Broken Clouds/
02/06/2006 03:20      19.0  11.0  20.0  12.3  60  1014   ---    NW    26    26   ---   0.6 Broken Clouds/
02/06/2006 04:20      18.0  11.0  19.2  10.2  64  1014   ---   WNW    31    31   ---   0.6 Broken Clouds/
02/06/2006 05:20      18.0  10.0  19.0   9.9  60  1014   ---   WNW    34    34   ---   0.8 Scattered Clouds/
02/06/2006 06:20      19.0  12.0  20.2  11.7  64  1014   ---   WNW    31    31   ---   0.8 Scattered Clouds/
02/06/2006 07:20      18.0  10.0  19.0  10.6  60  1014   ---   WNW    27    27   ---   0.8 Scattered Clouds/
02/06/2006 08:20      20.0  11.0  20.8  13.2  56  1014   ---   WNW    31    31   ---   0.8 Scattered Clouds/
02/06/2006 08:50      20.0  11.0  20.8  13.4  56  1014   ---     W    29    29   ---   0.8 Scattered Clouds/
02/06/2006 10:20      21.0  10.0  21.4  15.0  49  1014   ---     W    27    27   ---   0.8 Few Clouds/
02/06/2006 11:20      21.0   9.0  21.3  15.2  46  1013   ---     W    26    26   ---   0.7 Few Clouds/
02/06/2006 11:20      21.0   9.0  21.3  15.2  46  1013   ---     W    26    26   ---   0.7 Few Clouds/None reported
02/06/2006 12:20      22.0   9.0  22.1  16.5  43  1013   ---     W    27    27   ---   0.7 Scattered Clouds/
02/06/2006 13:20      17.0  13.0  19.2   7.6  77  1014   ---   WNW    45    45   ---   --- Overcast/ Light Rain
02/06/2006 13:50      18.0  13.0  19.8  10.4  73  1014   ---     W    29    29   ---   0.6 Broken Clouds/
02/06/2006 14:50      19.0  10.0  19.8  11.5  56  1012   ---    SW    34    34   ---   0.6 Broken Clouds/
02/06/2006 16:50      20.0  11.0  20.8  12.4  56  1011   ---   WSW    43    43   ---   0.6 Broken Clouds/
02/06/2006 17:50      19.0  12.0  20.2  11.0  64  1011   ---   WSW    42    42   ---   0.6 Broken Clouds/
02/06/2006 18:50      20.0  10.0  20.6  12.5  53  1011   ---     W    42    42   ---   0.6 Scattered Clouds/
02/06/2006 19:50      19.0  10.0  19.8  11.1  56  1011   ---   WSW    39    56   ---   0.6 Scattered Clouds/
02/06/2006 19:50      19.0  10.0  19.8  11.1  56  1011   ---   WSW    39    56   ---   0.6 Scattered Clouds/None reported
02/06/2006 20:50      18.0  10.0  19.0   9.6  60  1011   ---   WSW    39    39   ---   0.6 Broken Clouds/
02/06/2006 21:50      15.0  10.0  16.8   4.5  72  1011   ---   WNW    43    69   ---   0.6 Broken Clouds/
02/06/2006 22:50      16.0  12.0  18.1   6.2  77  1012   ---     W    42    42   ---   0.6 Broken Clouds/
02/06/2006 23:20      17.0  12.0  18.8   7.6  72  1012   ---   WNW    45    45   ---   0.6 Broken Clouds/
03/06/2006 00:20      16.0  12.0  18.1   6.0  77  1013   ---     W    45    45   ---   0.6 Broken Clouds/
03/06/2006 01:50      16.0  11.0  17.8   6.5  72  1012   ---     W    37    37   ---   0.7 Broken Clouds/
03/06/2006 02:50      16.0  11.0  17.8   6.5  72  1012   ---   WNW    37    37   ---   0.7 Scattered Clouds/
03/06/2006 03:50      15.0  14.0  18.4   4.9  94  1012   ---   WNW    37    37   ---   0.6 Broken Clouds/
03/06/2006 04:50      16.0  12.0  18.1   7.2  77  1012   ---   WNW    31    31   ---   0.6 Broken Clouds/
03/06/2006 05:20      16.0  12.0  18.1   6.9  77  1013   ---    NW    34    34   ---   0.6 Broken Clouds/
03/06/2006 06:50      15.0  13.0  18.0   8.2  88  1013   ---   NNW    18    18   ---   0.6 Broken Clouds/
03/06/2006 07:50      15.0  14.0  18.4  11.3  94  1013   ---   WNW    10    10   ---   0.6 Broken Clouds/
03/06/2006 08:50      14.0  13.0  17.4   6.9  94  1014   ---   WNW    18    18   ---   --- Overcast/ Rain
03/06/2006 09:50      15.0  14.0  18.4  13.3  94  1014   ---    SW     6     6   ---   --- Overcast/ Light Rain
03/06/2006 09:50      15.0  14.0  18.4  13.3  94  1014   ---    SW     6     6   ---   --- Overcast/ Light Rain
03/06/2006 09:50      15.0  14.0  18.4  13.3  94  1014   ---    SW     6     6   ---   --- Overcast/ Light Rain
03/06/2006 09:50      15.0  14.0  18.4  13.3  94  1014   ---    SW     6     6   ---   --- Overcast/ Light Rain
03/06/2006 09:50      15.0  14.0  18.4  13.3  94  1014   ---    SW     6     6   ---   --- Overcast/ Light Rain
03/06/2006 09:50      15.0  14.0  18.4  13.3  94  1014   ---    SW     6     6   ---   --- Overcast/ Light Rain
03/06/2006 09:50      15.0  14.0  18.4  13.3  94  1014   ---    SW     6     6   ---   --- Overcast/ Light Rain
03/06/2006 12:50      16.0  14.0  19.0  14.4  88  1016   ---   SSW     6     6   ---   0.7 Broken Clouds/
03/06/2006 13:50      17.0  11.0  18.5  12.5  68  1016   ---    SW    13    13   ---   0.7 Broken Clouds/
03/06/2006 14:20      18.0  11.0  19.2  15.0  64  1016   ---   WSW    10    10   ---   0.7 Broken Clouds/
03/06/2006 15:20      19.0  11.0  20.0  15.1  60  1016   ---   WSW    13    13   ---   0.7 Scattered Clouds/
03/06/2006 16:20      19.0  11.0  20.0  15.1  60  1016   ---     W    13    13   ---   0.7 Scattered Clouds/
03/06/2006 17:20      18.0  11.0  19.2  10.6  64  1016   ---    NW    27    27   ---   0.7 Broken Clouds/
03/06/2006 18:50      16.0  13.0  18.5   8.4  82  1016   ---     W    23    23   ---   0.5 Scattered Clouds/
03/06/2006 19:50      17.0  12.0  18.8  10.4  72  1017   ---   NNW    19    19   ---   0.6 Scattered Clouds/
03/06/2006 20:50      18.0  11.0  19.2  10.6  64  1016   ---   NNW    27    27   ---   0.6 Scattered Clouds/
03/06/2006 21:50      18.0   9.0  18.8  11.3  56  1018   ---    NW    23    23   ---   0.6 Scattered Clouds/
03/06/2006 22:50      17.0  13.0  19.2   8.7  77  1017   ---   WNW    31    31   ---   0.6 Scattered Clouds/
03/06/2006 23:50      17.0  11.0  18.5   8.4  68  1018   ---     N    34    34   ---   0.7 Scattered Clouds/
04/06/2006 00:50      16.0  11.0  17.8   9.0  72  1018   ---     N    19    19   ---   0.7 Scattered Clouds/
04/06/2006 01:50      16.0  10.0  17.5  16.0  68  1018   ---     N     5     5   ---   0.7 Few Clouds/
04/06/2006 02:50      17.0  10.0  18.2  10.4  63  1017   ---     W    19    19   ---   0.7 Few Clouds/
04/06/2006 03:50      17.0  10.0  18.2   8.9  63  1017   ---     W    29    29   ---   0.7 Few Clouds/
04/06/2006 04:50      17.0  10.0  18.2   8.9  63  1017   ---   WNW    29    29   ---   0.7 Few Clouds/
04/06/2006 05:50      15.0  12.0  17.5  11.3  82  1017   ---     N    10    10   ---   0.6 Broken Clouds/
04/06/2006 06:50      16.0  12.0  18.1  14.4  77  1017   ---     S     6     6   ---   0.7 Scattered Clouds/
04/06/2006 07:50      15.0  13.0  18.0   5.9  88  1017   ---   NNW    29    29   ---   --- Overcast/ Rain
04/06/2006 07:50      15.0  13.0  18.0   5.9  88  1017   ---   NNW    29    29   ---   --- Overcast/ Rain
04/06/2006 08:50      16.0  13.0  18.5   9.0  82  1017   ---   SSW    19    19   ---   0.7 Broken Clouds/
04/06/2006 09:50      18.0  10.0  19.0  12.6  60  1018   ---    SW    16    16   ---   0.7 Scattered Clouds/
04/06/2006 10:50      19.0  10.0  19.8  14.5  56  1017   ---    SW    14    14   ---   0.7 Scattered Clouds/
04/06/2006 11:50      18.0  13.0  19.8  11.3  73  1019   ---   WNW    23    23   ---   0.5 Scattered Clouds/
04/06/2006 12:50      20.0  12.0  21.0  14.4  60  1018   ---   WNW    21    21   ---   0.5 Scattered Clouds/
04/06/2006 13:50      19.0  13.0  20.5  12.3  68  1018   ---   WNW    26    26   ---   0.5 Broken Clouds/
04/06/2006 14:50      20.0  12.0  21.0  14.4  60  1018   ---     W    21    21   ---   0.5 Broken Clouds/
04/06/2006 15:50      18.0  15.0  20.5  15.0  83  1018   ---     S    10    10   ---   0.5 Broken Clouds/
04/06/2006 16:50      17.0  14.0  19.5  11.9  83  1018   ---    NW    14    14   ---   0.5 Broken Clouds/
04/06/2006 17:50      19.0  13.0  20.5  13.2  68  1018   ---    NW    19    19   ---   0.5 Broken Clouds/
04/06/2006 18:50      19.0  11.0  20.0  14.5  60  1018   ---   NNW    14    14   ---   0.5 Scattered Clouds/
04/06/2006 19:50      19.0  12.0  20.2  13.7  64  1018   ---   NNW    18    18   ---   0.5 Scattered Clouds/
04/06/2006 20:50      18.0  12.0  19.5  13.2  68  1019   ---   NNW    14    14   ---   0.7 Scattered Clouds/
04/06/2006 21:50      18.0  12.0  19.5  13.8  68  1020   ---     N    13    13   ---   0.7 Scattered Clouds/
04/06/2006 22:50      18.0  12.0  19.5  15.0  68  1019   ---    NW    10    10   ---   0.7 Scattered Clouds/
04/06/2006 23:50      18.0  14.0  20.2  12.4  77  1020   ---   WNW    18    18   ---   0.6 Scattered Clouds/
05/06/2006 00:50      17.0  13.0  19.2  15.5  77  1020   ---   SSW     6     6   ---   0.6 Scattered Clouds/
05/06/2006 01:50       0.0   0.0   4.0   0.0 100     0   ---     N     5     5   ---   0.6 Scattered Clouds/
05/06/2006 02:50       0.0   0.0   4.0  -5.5 100     0   ---    NW     8     8   ---   0.5 Broken Clouds/
05/06/2006 03:50       0.0   0.0   4.0  -5.5 100     0   ---     S     8     8   ---   0.5 Scattered Clouds/
05/06/2006 04:50      17.0  14.0  19.5  14.3  83  1021   ---     S     8     8   ---   0.7 Scattered Clouds/
05/06/2006 05:50      16.0  14.0  19.0  12.5  88  1020   ---     S    10    10   ---   0.6 Few Clouds/
05/06/2006 06:50      17.0  13.0  19.2  14.3  77  1020   ---     S     8     8   ---   0.6 Few Clouds/
05/06/2006 07:50      19.0  13.0  20.5  17.7  68  1020   ---   SSW     6     6   ---   0.6 Few Clouds/
05/06/2006 08:20      19.0  12.0  20.2  16.7  64  1021   ---    SW     8     8   ---   --- /
05/06/2006 09:50      20.0  13.0  21.3  15.9  64  1021   ---   WSW    14    14   ---   --- /
05/06/2006 10:50      21.0   8.0  21.1  18.6  43  1021   ---     W    10    10   ---   --- /
05/06/2006 12:00       0.0   0.0   4.0  -6.7 100   ---   ---     W   ---   ---   ---   --- /
05/06/2006 12:50      21.0  14.0  22.3  16.1  64  1022   ---    NW    19    19   ---   --- /
05/06/2006 14:00       0.0   0.0   4.0 -13.6 100   ---   ---    NW   ---   ---   ---   --- /
05/06/2006 14:50      21.0  14.0  22.3  16.5  64  1021   ---    NW    18    18   ---   0.7 Few Clouds/
05/06/2006 15:50      21.0  15.0  22.5  16.7  69  1021   ---    NW    16    16   ---   0.7 Few Clouds/
05/06/2006 16:50      21.0  15.0  22.5  17.2  69  1021   ---   NNW    14    14   ---   0.7 Few Clouds/
05/06/2006 17:50      21.0  14.0  22.3  17.2  64  1021   ---    NW    14    14   ---   0.7 Few Clouds/
05/06/2006 18:50      20.0  15.0  21.8  17.4  73  1021   ---   NNW    10    10   ---   0.7 Few Clouds/
05/06/2006 19:50      20.0  16.0  22.2  17.8  78  1021   ---   NNW     8     8   ---   0.5 Few Clouds/
05/06/2006 20:50      19.0  16.0  21.6  19.0  83  1020   ---     N     5     5   ---   0.5 Few Clouds/
05/06/2006 21:50      19.0  17.0  22.0  17.7  88  1021   ---    NE     6     6   ---   0.5 Few Clouds/
05/06/2006 22:50      18.0  16.0  21.0  18.0  88  1021   ---     N     3     3   ---   --- /
05/06/2006 23:50      18.0  17.0  21.5  18.0  94  1021   ---     N     5     5   ---   0.5 Few Clouds/
06/06/2006 00:50      17.0  13.0  19.2  15.5  77  1021   ---   SSW     6     6   ---   --- /
06/06/2006 01:50      17.0  11.0  18.5  13.8  68  1021   ---   SSW    10    10   ---   --- /
06/06/2006 02:50      18.0  10.0  19.0  13.2  60  1022   ---    SW    14    14   ---   --- /
06/06/2006 03:50      18.0  10.0  19.0  12.6  60  1021   ---   SSW    16    16   ---   --- /
06/06/2006 04:50      18.0  10.0  19.0  15.0  60  1021   ---   SSW    10    10   ---   --- /
06/06/2006 05:20      17.0  10.0  18.2  14.3  63  1020   ---   SSW     8     8   ---   --- /
06/06/2006 06:50      19.0  10.0  19.8  14.5  56  1020   ---   SSW    14    14   ---   --- /
06/06/2006 07:50      20.0  10.0  20.6  14.6  53  1020   ---   SSW    19    19   ---   --- /
06/06/2006 08:50      22.0   9.0  22.1  18.1  43  1021   ---   SSW    16    16   ---   --- /
06/06/2006 09:50      23.0   7.0  22.8  18.2  36  1021   ---    SW    26    26   ---   --- /
06/06/2006 10:50      24.0   7.0  23.7  19.7  34  1021   ---   SSW    26    26   ---   --- /
06/06/2006 11:50      25.0   9.0  24.8  21.6  36  1020   ---    SW    21    21   ---   --- /
06/06/2006 12:50      26.0   0.0  25.2  22.6  18  1020   ---    SW    26    26   ---   0.7 Few Clouds/
06/06/2006 13:50      27.0   0.0  26.0  24.1  17  1020   ---   WSW    26    26   ---   0.7 Few Clouds/
06/06/2006 14:50      26.0   0.0  25.2  22.5  18  1019   ---   WSW    27    27   ---   0.7 Few Clouds/
06/06/2006 15:50      26.0  10.0  25.8  22.6  37  1019   ---   WSW    26    26   ---   0.7 Few Clouds/
06/06/2006 16:50      23.0  13.0  23.6  18.9  53  1019   ---    SW    19    19   ---   0.7 Scattered Clouds/
06/06/2006 17:50      23.0  15.0  24.1  23.0  61  1019   ---     N     3     3   ---   0.7 Scattered Clouds/
06/06/2006 18:50      22.0  15.0  23.3  18.9  65  1019   ---    NE    13    13   ---   0.7 Few Clouds/
06/06/2006 19:50      22.0  16.0  23.6  18.5  69  1019   ---    NE    14    14   ---   0.7 Few Clouds/
06/06/2006 20:50      21.0  17.0  23.2  19.0  78  1019   ---    NE     8     8   ---   0.7 Few Clouds/
06/06/2006 21:50      21.0  17.0  23.2  21.0  78  1020   ---     N     3     3   ---   0.7 Few Clouds/
06/06/2006 22:50      20.0  17.0  22.6  17.8  83  1020   ---    SW     8     8   ---   0.7 Few Clouds/
06/06/2006 23:50      20.0  16.0  22.2  16.4  78  1020   ---   SSW    13    13   ---   0.7 Few Clouds/
07/06/2006 00:50      20.0  15.0  21.8  15.9  73  1020   ---    SW    14    14   ---   0.7 Few Clouds/
07/06/2006 01:50      19.0  15.0  21.2  15.1  78  1020   ---    SW    13    13   ---   --- /
07/06/2006 02:50      18.0  15.0  20.5  15.0  83  1020   ---   WSW    10    10   ---   --- /
07/06/2006 03:50      18.0  16.0  21.0  16.6  88  1020   ---   SSW     6     6   ---   0.7 Few Clouds/
07/06/2006 04:50      18.0  14.0  20.2  15.5  77  1019   ---    SW     8     8   ---   0.7 Few Clouds/
07/06/2006 05:50      17.0  14.0  19.5  15.5  83  1019   ---   SSW     6     6   ---   0.7 Few Clouds/
07/06/2006 06:50      18.0  13.0  19.8  18.0  73  1019   ---     N     3     3   ---   0.7 Few Clouds/
07/06/2006 07:50      21.0  14.0  22.3  21.0  64  1019   ---     N     3     3   ---   --- /
07/06/2006 08:20      21.0  13.0  22.0  21.0  60  1020   ---     N     5     5   ---   --- /
07/06/2006 09:20      21.0  15.0  22.5  19.9  69  1020   ---    NW     6     6   ---   --- /
07/06/2006 10:50      21.0  18.0  23.6  19.0  83  1021   ---   NNW     8     8   ---   0.5 Few Clouds/
07/06/2006 11:50      21.0  17.0  23.2  19.9  78  1021   ---     N     6     6   ---   0.5 Few Clouds/
07/06/2006 12:50      22.0  18.0  24.2  19.8  78  1021   ---     N    10    10   ---   0.5 Few Clouds/
07/06/2006 13:50      22.0  17.0  23.9  17.9  73  1021   ---   NNE    18    18   ---   0.5 Few Clouds/
07/06/2006 14:50      22.0  17.0  23.9  17.5  73  1020   ---   NNE    19    19   ---   0.5 Few Clouds/
07/06/2006 15:50      22.0  17.0  23.9  17.5  73  1020   ---    NE    19    19   ---   0.5 Few Clouds/
07/06/2006 16:50      22.0  17.0  23.9  17.5  73  1019   ---    NE    19    19   ---   0.5 Few Clouds/
07/06/2006 17:50      22.0  18.0  24.2  17.5  78  1019   ---    NE    19    19   ---   0.5 Few Clouds/
07/06/2006 18:50      21.0  18.0  23.6  16.1  83  1019   ---    NE    19    19   ---   0.5 Few Clouds/
07/06/2006 19:50      20.0  17.0  22.6  15.1  83  1019   ---    NE    18    18   ---   0.5 Few Clouds/
07/06/2006 20:50      20.0  17.0  22.6  15.3  83  1019   ---    NE    16    16   ---   0.5 Few Clouds/
07/06/2006 21:50      20.0  18.0  23.0  15.1  88  1019   ---    NE    18    18   ---   0.5 Few Clouds/
07/06/2006 22:50      19.0  18.0  22.5  14.5  94  1019   ---   ENE    14    14   ---   0.5 Few Clouds/
07/06/2006 23:50      19.0  18.0  22.5  13.7  94  1020   ---    NE    18    18   ---   0.5 Few Clouds/
08/06/2006 00:50      19.0  18.0  22.5  14.0  94  1020   ---    NE    16    16   ---   --- /
08/06/2006 01:50      19.0  17.0  22.0  14.5  88  1021   ---   ENE    14    14   ---   0.5 Few Clouds/
08/06/2006 02:50      19.0  16.0  21.6  15.1  83  1020   ---   ENE    13    13   ---   0.5 Few Clouds/
08/06/2006 03:50      18.0  16.0  21.0  16.6  88  1020   ---    NE     6     6   ---   0.5 Few Clouds/
08/06/2006 04:50      18.0  16.0  21.0  16.6  88  1020   ---     E     6     6   ---   0.5 Few Clouds/
08/06/2006 05:50      18.0  16.0  21.0  15.5  88  1019   ---   ENE     8     8   ---   0.5 Few Clouds/
08/06/2006 06:50      19.0  16.0  21.6  16.7  83  1020   ---     E     8     8   ---   0.5 Few Clouds/
08/06/2006 07:50      20.0  15.0  21.8  17.4  73  1020   ---    NE    10    10   ---   0.5 Few Clouds/
08/06/2006 08:20      20.0  14.0  21.5  17.4  68  1020   ---   NNE    10    10   ---   0.5 Few Clouds/
08/06/2006 09:50      21.0  15.0  22.5  17.7  69  1021   ---     N    13    13   ---   0.5 Few Clouds/
08/06/2006 10:50      21.0  14.0  22.3  18.6  64  1021   ---     N    10    10   ---   0.5 Few Clouds/
08/06/2006 11:50      21.0  15.0  22.5  21.0  69  1022   ---     N     5     5   ---   0.6 Few Clouds/
08/06/2006 12:50      21.0  14.0  22.3  19.0  64  1022   ---     N     8     8   ---   0.6 Few Clouds/
08/06/2006 13:50      22.0  13.0  22.8  18.9  57  1021   ---     N    13    13   ---   0.6 Few Clouds/
08/06/2006 14:50      22.0  10.0  22.3  18.9  46  1021   ---     N    13    13   ---   0.6 Few Clouds/
08/06/2006 15:50      21.0   8.0  21.1  17.7  43  1021   ---     N    13    13   ---   0.6 Few Clouds/
08/06/2006 16:50      22.0   8.0  22.0  18.5  41  1021   ---   NNE    14    14   ---   0.6 Few Clouds/
08/06/2006 17:50      22.0   9.0  22.1  18.5  43  1020   ---   NNE    14    14   ---   0.6 Few Clouds/
08/06/2006 18:50      21.0  13.0  22.0  15.8  60  1020   ---    NE    21    21   ---   0.6 Few Clouds/
08/06/2006 19:50      20.0  13.0  21.3  14.4  64  1020   ---   ENE    21    21   ---   0.6 Few Clouds/
08/06/2006 20:50      19.0  13.0  20.5  13.7  68  1020   ---   ENE    18    18   ---   0.6 Few Clouds/
08/06/2006 21:50      19.0  12.0  20.2  14.5  64  1020   ---   ENE    14    14   ---   0.6 Few Clouds/
08/06/2006 22:50      19.0  12.0  20.2  14.5  64  1021   ---     E    14    14   ---   0.6 Few Clouds/
08/06/2006 23:50      19.0  11.0  20.0  13.2  60  1020   ---   ENE    19    19   ---   0.6 Few Clouds/
09/06/2006 00:50      18.0  11.0  19.2  12.4  64  1021   ---     E    18    18   ---   0.6 Few Clouds/
09/06/2006 01:50      18.0  11.0  19.2  13.2  64  1021   ---     E    14    14   ---   0.6 Few Clouds/
09/06/2006 02:50      18.0  11.0  19.2  13.2  64  1020   ---     E    14    14   ---   0.6 Few Clouds/
09/06/2006 03:50      18.0  11.0  19.2  13.2  64  1020   ---     E    14    14   ---   0.6 Few Clouds/
09/06/2006 04:50      18.0  11.0  19.2  13.2  64  1020   ---     E    14    14   ---   0.6 Few Clouds/
09/06/2006 05:20      18.0  11.0  19.2  15.5  64  1019   ---     E     8     8   ---   0.6 Few Clouds/
09/06/2006 06:50      19.0  12.0  20.2  17.7  64  1020   ---     E     6     6   ---   0.6 Few Clouds/
09/06/2006 07:50      20.0  11.0  20.8  17.8  56  1020   ---   ENE     8     8   ---   0.6 Few Clouds/
09/06/2006 08:50      21.0  11.0  21.6  17.2  53  1020   ---   ENE    14    14   ---   --- /
09/06/2006 09:20      21.0  12.0  21.8  17.2  56  1020   ---    NE    14    14   ---   --- /
09/06/2006 10:50      21.0  13.0  22.0  16.7  60  1020   ---    NE    16    16   ---   0.9 Few Clouds/
09/06/2006 11:50      21.0  13.0  22.0  16.5  60  1020   ---   NNE    18    18   ---   0.9 Few Clouds/
09/06/2006 12:50      23.0  15.0  24.1  18.7  61  1020   ---    NE    21    21   ---   0.9 Few Clouds/
09/06/2006 13:50      22.0  14.0  23.0  16.7  61  1020   ---    NE    26    26   ---   0.9 Few Clouds/
09/06/2006 14:50      22.0  13.0  22.8  16.4  57  1019   ---    NE    29    29   ---   0.9 Few Clouds/
09/06/2006 15:50      23.0  12.0  23.4  17.8  50  1019   ---    NE    31    31   ---   --- /
09/06/2006 16:50      22.0  12.0  22.6  16.3  53  1018   ---   ENE    31    31   ---   --- /
09/06/2006 17:50      22.0  12.0  22.6  16.5  53  1018   ---   ENE    27    27   ---   --- /
09/06/2006 18:50      22.0  12.0  22.6  16.4  53  1018   ---   ENE    29    29   ---   1.8 Scattered Clouds/
09/06/2006 19:50      21.0  12.0  21.8  15.0  56  1018   ---   ENE    27    27   ---   1.8 Few Clouds/
09/06/2006 20:50      20.0  12.0  21.0  14.2  60  1018   ---   ENE    23    23   ---   1.8 Few Clouds/
09/06/2006 21:50      20.0  12.0  21.0  14.6  60  1019   ---     E    19    19   ---   1.8 Few Clouds/
09/06/2006 22:50      20.0  10.0  20.6  15.3  53  1018   ---     E    16    16   ---   1.3 Few Clouds/
09/06/2006 23:50      20.0  10.0  20.6  15.3  53  1019   ---     E    16    16   ---   1.3 Few Clouds/
10/06/2006 00:50      19.0  10.0  19.8  19.0  56  1019   ---     N     5     5   ---   --- /
10/06/2006 01:50      18.0  10.0  19.0  18.0  60  1020   ---     N     3     3   ---   --- /
10/06/2006 02:50      17.0  10.0  18.2  17.0  63  1020   ---     N     0     0   ---   --- /
10/06/2006 03:50      17.0  11.0  18.5  17.0  68  1019   ---   ---     2     2   ---   --- /
10/06/2006 04:50      19.0  10.0  19.8  16.7  56  1019   ---     E     8     8   ---   --- /
10/06/2006 05:50      17.0  11.0  18.5  17.0  68  1019   ---     N     3     3   ---   --- /
10/06/2006 06:50      18.0  12.0  19.5  18.0  68  1019   ---     N     0     0   ---   --- /
10/06/2006 07:50      20.0  11.0  20.8  20.0  56  1019   ---   ---     3     3   ---   --- /
10/06/2006 08:20      20.0  11.0  20.8  20.0  56  1020   ---     N     3     3   ---   --- /
10/06/2006 09:20      20.0  12.0  21.0  20.0  60  1019   ---     N     3     3   ---   --- /
10/06/2006 10:50      22.0  13.0  22.8  18.5  57  1020   ---   NNE    14    14   ---   --- /
10/06/2006 11:50      22.0  13.0  22.8  17.9  57  1020   ---    NE    18    18   ---   --- /
10/06/2006 12:50      22.0  12.0  22.6  17.3  53  1020   ---    NE    21    21   ---   --- /
10/06/2006 13:50      23.0  13.0  23.6  18.5  53  1020   ---    NE    23    23   ---   --- /
10/06/2006 14:50      23.0  14.0  23.8  18.2  57  1020   ---   ENE    26    26   ---   0.7 Few Clouds/
10/06/2006 15:50      22.0  12.0  22.6  16.7  53  1020   ---   ENE    26    26   ---   0.7 Few Clouds/
10/06/2006 16:50      22.0  12.0  22.6  16.5  53  1019   ---   ENE    27    27   ---   0.7 Few Clouds/
10/06/2006 17:50      22.0  13.0  22.8  16.7  57  1019   ---   ENE    26    26   ---   --- /
10/06/2006 18:50      21.0  14.0  22.3  15.6  64  1019   ---   ENE    23    23   ---   --- /
10/06/2006 19:50      21.0  14.0  22.3  15.6  64  1019   ---   ENE    23    23   ---   --- /
10/06/2006 20:50      20.0  14.0  21.5  13.8  68  1019   ---   ENE    26    26   ---   --- /
10/06/2006 21:50      20.0  13.0  21.3  14.6  64  1019   ---   ENE    19    19   ---   --- /
10/06/2006 22:50      20.0  12.0  21.0  17.8  60  1020   ---     E     8     8   ---   --- /
10/06/2006 23:50      19.0  11.0  20.0  19.0  60  1020   ---     N     3     3   ---   --- /
11/06/2006 00:50      18.0  11.0  19.2  18.0  64  1019   ---     N     5     5   ---   --- /
11/06/2006 01:50      17.0  12.0  18.8  17.0  72  1019   ---     N     2     2   ---   --- /
11/06/2006 02:50      18.0  12.0  19.5  18.0  68  1019   ---     N     0     0   ---   --- /
11/06/2006 03:50      18.0  13.0  19.8  18.0  73  1019   ---   ---     3     3   ---   --- /
11/06/2006 04:50      16.0  13.0  18.5  16.0  82  1019   ---     N     5     5   ---   --- /
11/06/2006 05:20      17.0  13.0  19.2  17.0  77  1019   ---     N     2     2   ---   --- /
11/06/2006 06:50      17.0  12.0  18.8  17.0  72  1020   ---     N     0     0   ---   --- /
11/06/2006 07:50      20.0  12.0  21.0  20.0  60  1020   ---   ---     0     0   ---   --- /
11/06/2006 08:50      21.0  12.0  21.8  21.0  56  1020   ---   ---     3     3   ---   --- /
11/06/2006 09:50      21.0  13.0  22.0  21.0  60  1020   ---     N     3     3   ---   --- /
11/06/2006 10:50      22.0  13.0  22.8  18.1  57  1020   ---    NE    16    16   ---   --- /
11/06/2006 11:20      23.0  14.0  23.8  19.4  57  1020   ---    NE    16    16   ---   --- /
11/06/2006 12:50      24.0  13.0  24.5  20.3  50  1020   ---   ENE    19    19   ---   0.6 Scattered Clouds/
11/06/2006 13:50      23.0  15.0  24.1  18.2  61  1020   ---    NE    26    26   ---   0.6 Scattered Clouds/
11/06/2006 14:50      22.0  16.0  23.6  16.7  69  1020   ---   ENE    26    26   ---   0.9 Scattered Clouds/
11/06/2006 15:50      21.0  16.0  22.9  15.6  73  1020   ---   ENE    23    23   ---   0.9 Broken Clouds/
11/06/2006 16:50      21.0  16.0  22.9  15.2  73  1020   ---    NE    26    26   ---   0.9 Broken Clouds/
11/06/2006 17:50      21.0  15.0  22.5  15.6  69  1020   ---   ENE    23    23   ---   0.9 Broken Clouds/
11/06/2006 18:50      21.0  14.0  22.3  16.5  64  1020   ---   ENE    18    18   ---   0.9 Broken Clouds/
11/06/2006 19:50      21.0  14.0  22.3  16.5  64  1021   ---   ENE    18    18   ---   0.9 Broken Clouds/
11/06/2006 20:50      20.0  15.0  21.8  16.4  73  1021   ---   ENE    13    13   ---   0.9 Few Clouds/
11/06/2006 21:50      20.0  15.0  21.8  17.4  73  1021   ---     E    10    10   ---   0.9 Few Clouds/
11/06/2006 22:50      20.0  14.0  21.5  17.4  68  1021   ---   ENE    10    10   ---   0.9 Few Clouds/
11/06/2006 23:50      19.0  14.0  20.8  17.7  73  1021   ---     E     6     6   ---   0.9 Few Clouds/
12/06/2006 00:50      19.0  13.0  20.5  19.0  68  1022   ---     N     3     3   ---   0.9 Few Clouds/
12/06/2006 01:50      18.0  13.0  19.8  18.0  73  1021   ---     N     2     2   ---   0.9 Few Clouds/
12/06/2006 02:50      18.0  14.0  20.2  18.0  77  1022   ---     N     0     0   ---   0.9 Few Clouds/
12/06/2006 04:00       0.0   0.0   4.0   0.0 100   ---   ---     N   ---   ---   ---   --- /
12/06/2006 05:00       0.0   0.0   4.0   0.0 100   ---   ---     N   ---   ---   ---   --- /
12/06/2006 05:20      19.0  16.0  21.6  16.2  83  1022   ---    NE    10    10   ---   0.9 Few Clouds/
12/06/2006 06:50      19.0  15.0  21.2  15.1  78  1021   ---    NE    13    13   ---   0.5 Scattered Clouds/
12/06/2006 07:50      20.0  11.0  20.8  15.9  56  1021   ---   ENE    14    14   ---   0.7 Few Clouds/
12/06/2006 08:50      21.0  10.0  21.4  16.1  49  1021   ---   ENE    19    19   ---   0.7 Few Clouds/
12/06/2006 09:50      21.0  11.0  21.6  16.1  53  1022   ---   ENE    19    19   ---   0.7 Few Clouds/
12/06/2006 10:50      21.0  11.0  21.6  16.1  53  1022   ---    NE    19    19   ---   0.7 Few Clouds/
12/06/2006 11:20      21.0  11.0  21.6  16.1  53  1022   ---    NE    19    19   ---   0.7 Few Clouds/
12/06/2006 12:20      22.0  11.0  22.4  17.1  50  1022   ---    NE    23    23   ---   0.7 Few Clouds/
12/06/2006 13:20      22.0  11.0  22.4  16.7  50  1022   ---    NE    26    26   ---   0.7 Few Clouds/
12/06/2006 14:50      21.0  11.0  21.6  15.2  53  1022   ---    NE    26    26   ---   0.7 Few Clouds/
12/06/2006 15:50      21.0  11.0  21.6  16.1  53  1022   ---   ENE    19    19   ---   0.7 Few Clouds/
12/06/2006 16:50      21.0  12.0  21.8  15.8  56  1022   ---    NE    21    21   ---   0.7 Scattered Clouds/
12/06/2006 17:50      21.0  13.0  22.0  16.5  60  1022   ---    NE    18    18   ---   0.6 Scattered Clouds/
12/06/2006 18:50      20.0  13.0  21.3  15.1  64  1022   ---   ENE    18    18   ---   0.6 Scattered Clouds/
12/06/2006 19:50      20.0  11.0  20.8  14.6  56  1021   ---    NE    19    19   ---   0.7 Scattered Clouds/
12/06/2006 20:50      19.0  11.0  20.0  14.0  60  1021   ---    NE    16    16   ---   0.7 Scattered Clouds/
12/06/2006 21:50      18.0  11.0  19.2  12.4  64  1022   ---    NE    18    18   ---   0.7 Scattered Clouds/
12/06/2006 22:50      18.0  12.0  19.5  12.4  68  1022   ---    NE    18    18   ---   0.7 Scattered Clouds/
12/06/2006 23:50      18.0  12.0  19.5  12.4  68  1023   ---    NE    18    18   ---   0.7 Scattered Clouds/
13/06/2006 00:50      18.0  12.0  19.5  13.2  68  1023   ---   ENE    14    14   ---   0.7 Scattered Clouds/
13/06/2006 01:50      18.0  13.0  19.8  15.0  73  1023   ---   ENE    10    10   ---   0.7 Scattered Clouds/
13/06/2006 02:50      17.0  12.0  18.8  11.9  72  1023   ---     E    14    14   ---   0.7 Scattered Clouds/
13/06/2006 03:50      18.0  12.0  19.5  13.8  68  1022   ---     E    13    13   ---   0.7 Scattered Clouds/
13/06/2006 04:50      18.0  12.0  19.5  13.8  68  1022   ---   ENE    13    13   ---   0.7 Scattered Clouds/
13/06/2006 05:50      18.0  13.0  19.8  13.2  73  1022   ---   ENE    14    14   ---   0.7 Few Clouds/
13/06/2006 06:50      19.0  14.0  20.8  14.5  73  1022   ---   ENE    14    14   ---   0.7 Few Clouds/
13/06/2006 07:50      20.0  14.0  21.5  15.9  68  1023   ---     E    14    14   ---   0.7 Few Clouds/
13/06/2006 08:50      21.0  14.0  22.3  17.2  64  1023   ---    NE    14    14   ---   0.7 Few Clouds/
13/06/2006 09:50      21.0  14.0  22.3  16.7  64  1023   ---   ENE    16    16   ---   0.7 Few Clouds/
13/06/2006 10:50      22.0  15.0  23.3  18.1  65  1023   ---   NNE    16    16   ---   0.7 Few Clouds/
13/06/2006 11:50      21.0  14.0  22.3  17.7  64  1023   ---   NNE    13    13   ---   0.7 Few Clouds/
13/06/2006 12:50      22.0  15.0  23.3  18.9  65  1024   ---   NNE    13    13   ---   0.7 Few Clouds/
13/06/2006 13:50      22.0  16.0  23.6  18.9  69  1023   ---   NNE    13    13   ---   0.7 Few Clouds/
13/06/2006 14:50      22.0  15.0  23.3  18.5  65  1023   ---   NNE    14    14   ---   0.7 Few Clouds/
13/06/2006 15:50      23.0  16.0  24.3  19.8  65  1022   ---   NNE    14    14   ---   0.7 Few Clouds/
13/06/2006 16:50      23.0  15.0  24.1  19.4  61  1022   ---    NE    16    16   ---   0.7 Few Clouds/
13/06/2006 17:50      22.0  16.0  23.6  17.3  69  1022   ---    NE    21    21   ---   0.7 Few Clouds/
13/06/2006 18:50      22.0  16.0  23.6  17.3  69  1021   ---    NE    21    21   ---   0.7 Few Clouds/
13/06/2006 19:50      22.0  16.0  23.6  17.9  69  1021   ---    NE    18    18   ---   0.7 Few Clouds/
13/06/2006 20:50      21.0  15.0  22.5  16.5  69  1021   ---    NE    18    18   ---   0.7 Few Clouds/
13/06/2006 21:50      20.0  15.0  21.8  15.1  73  1022   ---   ENE    18    18   ---   0.7 Few Clouds/
13/06/2006 22:50      20.0  15.0  21.8  17.8  73  1022   ---     E     8     8   ---   0.7 Few Clouds/
13/06/2006 23:50      20.0  14.0  21.5  20.0  68  1022   ---     N     5     5   ---   --- /
14/06/2006 00:50      19.0  14.0  20.8  19.0  73  1022   ---     N     0     0   ---   --- /
14/06/2006 01:50      19.0  15.0  21.2  19.0  78  1021   ---   ---     0     0   ---   --- /
14/06/2006 02:50      17.0  14.0  19.5  17.0  83  1021   ---   ---     2     2   ---   --- /
14/06/2006 03:50      17.0  14.0  19.5  15.5  83  1021   ---   SSW     6     6   ---   --- /
14/06/2006 04:50      17.0  13.0  19.2  17.0  77  1020   ---     N     3     3   ---   --- /
14/06/2006 05:50      17.0  13.0  19.2  17.0  77  1021   ---     N     0     0   ---   --- /
14/06/2006 06:50      19.0  14.0  20.8  19.0  73  1021   ---   ---     0     0   ---   --- /
14/06/2006 07:50      20.0  15.0  21.8  20.0  73  1021   ---   ---     0     0   ---   --- /
14/06/2006 08:50      21.0  14.0  22.3  21.0  64  1021   ---   ---     2     2   ---   --- /
14/06/2006 09:50      22.0  15.0  23.3  19.8  65  1021   ---     N    10    10   ---   --- /
14/06/2006 09:50      22.0  15.0  23.3  19.8  65  1021   ---     N    10    10   ---   --- None reported/None reported
14/06/2006 10:50      22.0  13.0  22.8  22.0  57  1021   ---     N     0     0   ---   --- /
14/06/2006 11:50      22.0  13.0  22.8  19.8  57  1021   ---   NNE    10    10   ---   --- /
14/06/2006 12:50      23.0  13.0  23.6  18.9  53  1020   ---    NE    19    19   ---   --- /
14/06/2006 13:50      24.0  14.0  24.6  20.1  54  1020   ---    NE    21    21   ---   --- /
14/06/2006 14:50      24.0   9.0  23.9  20.1  39  1020   ---   ENE    21    21   ---   0.8 Few Clouds/
14/06/2006 15:20      25.0  10.0  24.9  21.6  39  1020   ---    NE    21    21   ---   0.8 Few Clouds/
14/06/2006 16:50      24.0  13.0  24.5  20.1  50  1019   ---   ENE    21    21   ---   --- /
14/06/2006 17:50      23.0  14.0  23.8  18.9  57  1019   ---   ENE    19    19   ---   --- /
14/06/2006 18:50      23.0  15.0  24.1  19.4  61  1019   ---   ENE    16    16   ---   --- /
14/06/2006 19:50      23.0  16.0  24.3  21.0  65  1019   ---   ENE    10    10   ---   --- /
14/06/2006 20:50      22.0  17.0  23.9  21.0  73  1019   ---   ENE     6     6   ---   --- /
14/06/2006 21:50      21.0  17.0  23.2  19.9  78  1020   ---    SW     6     6   ---   --- /
14/06/2006 22:50      21.0  16.0  22.9  16.5  73  1019   ---    SW    18    18   ---   --- /
14/06/2006 23:50      20.0  17.0  22.6  15.9  83  1020   ---   WSW    14    14   ---   --- /
15/06/2006 00:50      20.0  15.0  21.8  18.8  73  1020   ---   WSW     6     6   ---   --- /
15/06/2006 01:50      20.0  16.0  22.2  20.0  78  1020   ---     N     2     2   ---   --- /
15/06/2006 02:50      19.0  16.0  21.6  19.0  83  1020   ---     N     3     3   ---   --- /
15/06/2006 03:50      20.0  17.0  22.6  17.8  83  1020   ---     E     8     8   ---   --- /
15/06/2006 04:50      18.0  16.0  21.0  16.6  88  1020   ---   SSW     6     6   ---   --- /
15/06/2006 05:50      18.0  15.0  20.5  18.0  83  1019   ---     N     5     5   ---   --- /
15/06/2006 06:50      19.0  15.0  21.2  19.0  78  1020   ---     N     3     3   ---   --- /
15/06/2006 07:50      21.0  15.0  22.5  21.0  69  1020   ---     N     5     5   ---   --- /
15/06/2006 08:50      22.0  14.0  23.0  22.0  61  1020   ---     N     3     3   ---   --- /
15/06/2006 10:50      22.0  15.0  23.3  21.0  65  1021   ---     N     6     6   ---   --- /
15/06/2006 12:50      26.0  13.0  26.2  24.6  45  1021   ---   NNE    10    10   ---   --- /
15/06/2006 13:50      26.0  17.0  26.9  23.0  58  1020   ---   ENE    21    21   ---   --- /
15/06/2006 14:50      26.0  16.0  26.7  23.0  54  1020   ---   ENE    21    21   ---   --- /
15/06/2006 15:50      25.0  16.0  25.9  22.5  57  1020   ---     N    14    14   ---   --- /
15/06/2006 16:50      24.0  19.0  25.9  22.2  74  1020   ---   NNE    10    10   ---   --- /
15/06/2006 17:50      24.0  19.0  25.9  22.2  74  1020   ---   NNE    10    10   ---   --- /
15/06/2006 18:50      23.0  19.0  25.2  19.4  78  1020   ---    NE    16    16   ---   --- /
15/06/2006 19:50      24.0  18.0  25.6  24.0  69  1020   ---     N     3     3   ---   --- /
15/06/2006 20:50      23.0  19.0  25.2  22.1  78  1020   ---    SW     6     6   ---   --- /
15/06/2006 21:50      22.0  21.0  25.5  18.9  94  1020   ---   WSW    13    13   ---   --- /
15/06/2006 22:50      21.0  20.0  24.5  17.2  94  1021   ---   WSW    14    14   ---   --- /
15/06/2006 23:50      21.0  20.0  24.5  21.0  94  1020   ---     N     3     3   ---   --- /
16/06/2006 00:50      21.0  18.0  23.6  21.0  83  1021   ---     N     2     2   ---   --- /
16/06/2006 01:50      21.0  20.0  24.5  18.6  94  1020   ---     E    10    10   ---   --- /
16/06/2006 02:50      20.0  18.0  23.0  20.0  88  1020   ---     N     3     3   ---   --- /
16/06/2006 03:50      19.0  17.0  22.0  19.0  88  1020   ---     N     0     0   ---   --- /
16/06/2006 04:50      19.0  18.0  22.5  19.0  94  1019   ---   ---     5     5   ---   --- /
16/06/2006 05:50      19.0  18.0  22.5  19.0  94  1019   ---     N     5     5   ---   --- /
16/06/2006 06:50      20.0  18.0  23.0  20.0  88  1020   ---     N     3     3   ---   --- /
16/06/2006 07:50      21.0  16.0  22.9  21.0  73  1021   ---     N     5     5   ---   --- /
16/06/2006 08:50      22.0  18.0  24.2  22.0  78  1021   ---     N     5     5   ---   --- /
16/06/2006 09:50      23.0  19.0  25.2  21.3  78  1021   ---     W     8     8   ---   --- /
16/06/2006 10:50      23.0  18.0  24.9  23.0  73  1021   ---     N     5     5   ---   --- /
16/06/2006 11:50      24.0  17.0  25.3  22.2  65  1021   ---   NNE    10    10   ---   --- /
16/06/2006 12:50      25.0  17.0  26.1  22.1  61  1021   ---   NNE    16    16   ---   --- /
16/06/2006 13:50      26.0  18.0  27.1  23.1  61  1020   ---    NE    19    19   ---   --- /
16/06/2006 14:50      28.0  14.0  27.8  26.1  42  1020   ---    NE    18    18   ---   --- /
16/06/2006 15:50      28.0  14.0  27.8  25.9  42  1020   ---   ENE    21    21   ---   --- /
16/06/2006 16:50      27.0  15.0  27.3  25.1  48  1020   ---   NNE    14    14   ---   --- /
16/06/2006 17:50      27.0  15.0  27.3  26.0  48  1020   ---    NE     8     8   ---   --- /
16/06/2006 18:50      26.0  19.0  27.3  23.8  65  1020   ---     W    14    14   ---   --- /
16/06/2006 19:50      24.0  20.0  26.2  22.5  78  1020   ---   WSW     8     8   ---   --- /
16/06/2006 20:50      23.0  21.0  26.0  21.0  89  1019   ---   WSW    10    10   ---   --- /
16/06/2006 21:50      23.0  16.0  24.3  21.3  65  1019   ---    SW     8     8   ---   --- /
16/06/2006 22:50      22.0  20.0  25.0  21.0  88  1020   ---    SW     6     6   ---   --- /
16/06/2006 23:50      22.0  19.0  24.6  22.0  83  1020   ---     N     2     2   ---   --- /
17/06/2006 00:50      21.0  18.0  23.6  21.0  83  1019   ---     N     2     2   ---   --- /
17/06/2006 01:50      21.0  18.0  23.6  21.0  83  1018   ---     N     2     2   ---   --- /
17/06/2006 02:50      21.0  18.0  23.6  21.0  83  1018   ---     N     3     3   ---   --- /
17/06/2006 03:50      21.0  20.0  24.5  21.0  94  1018   ---     N     5     5   ---   --- /
17/06/2006 05:20      20.0  16.0  22.2  20.0  78  1020   ---     N     3     3   ---   --- /
17/06/2006 05:50      20.0  19.0  23.5  20.0  94  1020   ---     N     0     0   ---   --- /
17/06/2006 06:50      21.0  14.0  22.3  21.0  64  1020   ---   ---     5     5   ---   --- /
17/06/2006 07:50      23.0  14.0  23.8  21.3  57  1020   ---    SE     8     8   ---   --- /
17/06/2006 08:50      25.0  13.0  25.3  22.1  47  1020   ---     S    16    16   ---   4.5 Broken Clouds/
17/06/2006 09:50      26.0  13.0  26.2  26.0  45  1019   ---     N     5     5   ---   4.5 Broken Clouds/
17/06/2006 10:50      27.0  12.0  26.8  26.4  39  1018   ---   WNW     6     6   ----3274-3274--- Broken Clouds/
17/06/2006 11:20      27.0  11.0  26.7  27.0  37  1018   ---     N     2     2   ---   3.6 Broken Clouds/
17/06/2006 12:50      29.0  11.0  28.0  29.0  33  1019   ---     N     3     3   ----3274-3274--- Broken Clouds/
17/06/2006 13:50      29.0   0.0  27.4  29.0  15  1019   ---     N     0     0   ----3274-3274--- Broken Clouds/
17/06/2006 14:50      28.0   0.0  26.7  28.0  16  1019   ---   ---     3     3   ---   4.5 Scattered Clouds/
17/06/2006 15:50      28.0  10.0  27.2  28.0  33  1019   ---     N     3     3   ---   4.5 Scattered Clouds/
17/06/2006 16:50      28.0  10.0  27.2  27.5  33  1019   ---   NNE     6     6   ---   --- /
17/06/2006 17:50      28.0  10.0  27.2  26.4  33  1019   ---    NE    14    14   ---   4.5 Few Clouds/
17/06/2006 18:50      27.0  10.0  26.6  24.7  34  1019   ---    NE    18    18   ---   --- /
17/06/2006 19:50      27.0  10.0  26.6  24.9  34  1019   ---   ENE    16    16   ---   --- /
17/06/2006 20:50      26.0   9.0  25.7  26.0  34  1019   ---     N     0     0   ---   --- /
17/06/2006 21:50      24.0  17.0  25.3  23.2  65  1020   ---    SW     6     6   ---   --- /
17/06/2006 22:50      24.0  16.0  25.1  24.0  61  1019   ---     N     0     0   ---   --- /
17/06/2006 23:50      23.0  16.0  24.3  23.0  65  1019   ---   ---     2     2   ---   --- /
18/06/2006 00:50      23.0  15.0  24.1  23.0  61  1019   ---     N     0     0   ---   --- /
18/06/2006 01:50      23.0  13.0  23.6  23.0  53  1019   ---   ---     2     2   ---   --- /
18/06/2006 02:50      24.0  10.0  24.0  24.0  41  1018   ---     N     0     0   ---   --- /
18/06/2006 03:50      22.0  12.0  22.6  22.0  53  1018   ---   ---     0     0   ---   --- /
18/06/2006 04:50      22.0  14.0  23.0  22.0  61  1018   ---   ---     2     2   ---   --- /
18/06/2006 05:50      21.0  11.0  21.6  21.0  53  1018   ---     N     3     3   ---   --- /
18/06/2006 06:50      24.0  10.0  24.0  24.0  41  1019   ---     N     2     2   ---   --- /
18/06/2006 07:50      25.0  10.0  24.9  25.0  39  1020   ---     N     3     3   ---   --- /
18/06/2006 08:50      28.0  12.0  27.5  28.0  37  1020   ---     N     2     2   ---   --- /
18/06/2006 09:50      30.0   0.0  28.1  29.2  14  1021   ---     W    13    13   ---   --- /
18/06/2006 10:50      31.0   0.0  28.9  31.0  14  1020   ---     N     5     5   ---   --- /
18/06/2006 11:50      32.0   0.0  29.8  31.8  13  1020   ---   NNE     8     8   ---   --- /
18/06/2006 12:50      32.0   0.0  29.8  31.7  13  1020   ---    NE    13    13   ---   --- /
18/06/2006 13:50      32.0   0.0  29.8  31.6  13  1019   ---    NE    16    16   ---   --- /
18/06/2006 14:50      32.0   0.0  29.8  31.6  13  1019   ---   ENE    18    18   ---   --- /
18/06/2006 15:50      31.0  14.0  30.3  30.4  36  1019   ---    NE    13    13   ---   --- /
18/06/2006 16:50      31.0  11.0  29.7  31.0  29  1019   ---     N     3     3   ---   --- /
18/06/2006 17:50      28.0  17.0  28.6  27.2  51  1019   ---   NNW     8     8   ---   --- /
18/06/2006 18:50      29.0  17.0  29.5  29.0  48  1019   ---     N     5     5   ---   --- /
18/06/2006 19:50      29.0  14.0  28.6  27.4  40  1020   ---   WSW    19    19   ---   --- /
18/06/2006 20:50      24.0  20.0  26.2  23.2  78  1020   ---   WSW     6     6   ---   --- /
18/06/2006 21:50      23.0  20.0  25.6  21.3  83  1020   ---   WSW     8     8   ---   --- /
18/06/2006 22:50      23.0  21.0  26.0  23.0  89  1021   ---     N     0     0   ---   --- /
18/06/2006 23:50      23.0  21.0  26.0  23.0  89  1021   ---   ---     5     5   ---   --- /
19/06/2006 00:50      22.0  19.0  24.6  22.0  83  1021   ---     N     0     0   ---   --- /
19/06/2006 01:50      23.0  18.0  24.9  23.0  73  1021   ---   ---     0     0   ---   --- /
19/06/2006 02:50      22.0  19.0  24.6  22.0  83  1021   ---   ---     2     2   ---   --- /
19/06/2006 03:50      23.0  19.0  25.2  23.0  78  1019   ---     N     3     3   ---   --- /
19/06/2006 04:50      21.0  16.0  22.9  21.0  73  1019   ---     N     0     0   ---   --- /
19/06/2006 05:50      21.0  17.0  23.2  21.0  78  1019   ---   ---     2     2   ---   --- /
19/06/2006 07:00       0.0   0.0   4.0   0.0 100   ---   ---   ---   ---   ---   ---   --- /
19/06/2006 07:50      26.0  13.0  26.2  26.0  45  1019   ---     N     3     3   ---   --- /
19/06/2006 08:20      27.0  15.0  27.3  27.0  48  1020   ---     N     3     3   ---   --- /
19/06/2006 09:50      29.0  17.0  29.5  29.0  48  1020   ---     N     5     5   ---   --- /
19/06/2006 10:50      30.0  15.0  29.7  29.2  40  1020   ---    NE    13    13   ---   --- /
19/06/2006 11:50      32.0  12.0  30.8  31.6  30  1020   ---   ENE    16    16   ---   --- /
19/06/2006 12:50      32.0   0.0  29.8  31.6  13  1019   ---   ENE    21    21   ---   --- /
19/06/2006 13:50      32.0   0.0  29.8  31.6  13  1019   ---   ENE    19    19   ---   --- /
19/06/2006 14:50      33.0   0.0  30.6  33.0  12  1019   ---   ENE    26    26   ---   --- /
19/06/2006 15:50      32.0   0.0  29.8  31.6  13  1019   ---   ENE    23    23   ---   --- /
19/06/2006 16:50      33.0   0.0  30.6  33.0  12  1019   ---   WSW    13    13   ---   --- /
19/06/2006 17:50      29.0  16.0  29.1  28.3  45  1019   ---     W     8     8   ---   --- /
19/06/2006 18:50      27.0  20.0  28.5  24.7  66  1019   ---   WSW    18    18   ---   --- /
19/06/2006 19:50      26.0  20.0  27.6  24.6  70  1019   ---     W    10    10   ---   --- /
19/06/2006 20:50      25.0  22.0  27.6  24.3  83  1019   ---   WSW     6     6   ---   --- /
19/06/2006 21:50      25.0  21.0  27.2  24.3  79  1019   ---    SW     6     6   ---   5.4 Scattered Clouds/
19/06/2006 22:50      24.0  22.0  27.0  22.5  89  1019   ---   WSW     8     8   ---   5.4 Scattered Clouds/
20/06/2006 00:00       0.0   0.0   4.0  -5.5 100   ---   ---   WSW   ---   ---   ---   --- /
19/06/2006 23:50      24.0  22.0  27.0  23.2  89  1020   ---   WSW     6     6   ---   --- /
20/06/2006 01:50      24.0  20.0  26.2  24.0  78  1019   ---     N     5     5   ---   6.0 Scattered Clouds/
20/06/2006 02:50      23.0  20.0  25.6  21.3  83  1018   ---    NE     8     8   ---   6.0 Scattered Clouds/
20/06/2006 03:50      23.0  20.0  25.6  23.0  83  1018   ---     N     5     5   ---   6.0 Scattered Clouds/
20/06/2006 04:50      24.0  17.0  25.3  24.0  65  1018   ---     N     0     0   ---   6.0 Scattered Clouds/
20/06/2006 05:50      23.0  16.0  24.3  21.3  65  1018   ---     E     8     8   ---   6.0 Scattered Clouds/
20/06/2006 07:50      26.0  13.0  26.2  23.4  45  1019   ---     E    18    18   ---   6.0 Scattered Clouds/
20/06/2006 08:50      27.0  14.0  27.1  26.4  45  1019   ---    SW     6     6   ---   6.0 Scattered Clouds/
20/06/2006 09:50      29.0  13.0  28.4  28.3  37  1019   ---     W     8     8   ---   --- /
20/06/2006 10:50      30.0  13.0  29.2  30.0  35  1019   ---     N     5     5   ---   --- /
20/06/2006 12:50      28.0  17.0  28.6  26.4  51  1019   ---     N    14    14   ---   --- /
20/06/2006 13:50      29.0  19.0  30.3  27.6  55  1019   ---   NNE    16    16   ---   --- /
20/06/2006 14:50      29.0  17.0  29.5  27.6  48  1019   ---   NNE    16    16   ---   --- /
20/06/2006 15:50      29.0  17.0  29.5  27.5  48  1019   ---   NNE    18    18   ---   --- /
20/06/2006 16:50      29.0  17.0  29.5  27.6  48  1019   ---   NNE    16    16   ---   --- /
20/06/2006 18:50      28.0  19.0  29.3  26.2  58  1018   ---    NE    16    16   ---   --- /
20/06/2006 19:50      27.0  21.0  28.8  25.8  70  1018   ---   NNE    10    10   ---   --- /
20/06/2006 20:50      27.0  22.0  29.2  27.0  74  1018   ---     N     2     2   ---   --- /
20/06/2006 21:50      25.0  24.0  28.5  23.7  94  1017   ---   WSW     8     8   ---   --- /
20/06/2006 22:50      25.0  23.0  28.0  24.3  89  1017   ---    SW     6     6   ---   --- /
20/06/2006 23:20      25.0  23.0  28.0  25.0  89  1018   ---     N     0     0   ---   --- /
21/06/2006 00:50      24.0  20.0  26.2  24.0  78  1017   ---   ---     2     2   ---   --- /
21/06/2006 01:50      25.0  17.0  26.1  25.0  61  1017   ---     N     2     2   ---   --- /
21/06/2006 03:00       0.0   0.0   4.0   0.0 100   ---   ---     N   ---   ---   ---   --- /
21/06/2006 03:50      24.0  15.0  24.8  24.0  57  1016   ---     N     5     5   ---   --- /
21/06/2006 04:50      25.0  13.0  25.3  25.0  47  1016   ---     N     3     3   ---   --- /
21/06/2006 05:20      25.0  14.0  25.5  25.0  51  1015   ---     N     2     2   ---   --- /
21/06/2006 06:50      25.0  15.0  25.7  25.0  54  1016   ---     N     0     0   ---   --- /
21/06/2006 07:50      26.0  17.0  26.9  26.0  58  1016   ---   ---     0     0   ---   --- /
21/06/2006 08:50      29.0  15.0  28.9  29.0  43  1016   ---   ---     2     2   ---   --- /
21/06/2006 10:00       0.0   0.0   4.0   0.0 100   ---   ---   ---   ---   ---   ---   --- /
21/06/2006 10:50      29.0  16.0  29.1  29.0  45  1016   ---     N     5     5   ---   --- /
21/06/2006 11:20      28.0  16.0  28.3  27.0  48  1017   ---     N    10    10   ---   --- /
21/06/2006 12:50      31.0  14.0  30.3  30.4  36  1017   ---   NNE    14    14   ---   --- /
21/06/2006 13:50      32.0  15.0  31.6  31.6  36  1016   ---    NE    16    16   ---   --- /
21/06/2006 14:50      30.0  15.0  29.7  29.4  40  1016   ---    NE    10    10   ---   --- /
21/06/2006 15:50      32.0  13.0  31.0  31.6  32  1016   ---   ENE    18    18   ---   --- /
21/06/2006 16:20      31.0  13.0  30.1  30.1  33  1015   ---     E    21    21   ---   --- /
21/06/2006 17:20      33.0  14.0  32.3  33.0  32  1015   ---   ENE    14    14   ---   --- /
21/06/2006 18:50      35.0   0.0  32.4  35.0  11  1014   ---    NE     6     6   ---   --- /
21/06/2006 19:50      32.0  15.0  31.6  32.0  36  1014   ---     N     5     5   ---   --- /
21/06/2006 21:00       0.0   0.0   4.0   0.0 100   ---   ---     N   ---   ---   ---   --- /
21/06/2006 21:50      28.0  16.0  28.3  26.6  48  1013   ---    SW    13    13   ---   --- /
21/06/2006 22:50      32.0   0.0  29.8  31.8  13  1013   ---    SW     8     8   ---   --- /
21/06/2006 23:20      28.0  14.0  27.8  28.0  42  1014   ---     N     5     5   ---   --- /
22/06/2006 00:20      32.0   0.0  29.8  31.7  13  1015   ---     S    14    14   ---   --- /
22/06/2006 01:50      33.0   0.0  30.6  33.0  12  1014   ---     S    19    19   ---   --- /
22/06/2006 02:50      33.0   0.0  30.6  33.0  12  1014   ---   SSW    14    34   ---   --- /
22/06/2006 03:50      31.0   0.0  28.9  30.3  14  1013   ---   SSW    16    16   ---   --- /
22/06/2006 04:50      32.0   0.0  29.8  32.0  13  1013   ---     N     2     2   ---   --- /
22/06/2006 05:20      29.0   0.0  27.4  29.0  15  1014   ---     N     3     3   ---   --- /
22/06/2006 06:50      27.0  18.0  27.9  27.0  58  1013   ---     N     5     5   ---   --- /
22/06/2006 07:50      34.0   0.0  31.5  34.0  12  1013   ---   SSW    27    27   ---   --- /
22/06/2006 08:50      34.0   0.0  31.5  34.0  12  1014   ---   SSW    32    32   ---   --- /
22/06/2006 09:50      35.0   0.0  32.4  35.0  11  1013   ---   SSW    34    34   ---   --- /
22/06/2006 10:50      36.0   0.0  33.2  36.0  10  1013   ---   SSW    34    34   ---   --- /
22/06/2006 11:50      38.0   0.0  35.0  38.0   9  1013   ---    SW    31    31   ---   --- /
22/06/2006 12:50      39.0   0.0  35.9  39.0   9  1013   ---    SW    27    27   ---   --- /
22/06/2006 13:50      34.0   0.0  31.5  34.0  12  1013   ---     E     8     8   ---   --- /
22/06/2006 14:50      34.0   0.0  31.5  34.0  12  1013   ---   ENE    18    18   ---   --- /
22/06/2006 15:50      29.0  21.0  31.4  27.2  62  1013   ---   NNE    23    23   ---   0.6 Scattered Clouds/
22/06/2006 16:50      34.0  15.0  33.7  34.0  32  1012   ---   ENE    10    10   ---   0.7 Few Clouds/
22/06/2006 17:50      29.0  23.0  32.8  27.9  70  1012   ---     W    13    13   ---   --- /
22/06/2006 18:50      31.0  20.0  33.0  31.0  52  1011   ---     N     5     5   ---   --- /
22/06/2006 19:50      32.0  17.0  32.4  31.6  41  1011   ---   WSW    16    16   ---   --- /
22/06/2006 20:50      29.0  19.0  30.3  27.5  55  1012   ---   WSW    18    18   ---   6.0 Scattered Clouds/
22/06/2006 21:50      33.0   0.0  30.6  33.0  12  1011   ---     W    21    21   ---   5.4 Scattered Clouds/
22/06/2006 22:50      34.0   0.0  31.5  34.0  12  1012   ---   SSW    26    26   ---   5.4 Scattered Clouds/
22/06/2006 23:20      34.0   0.0  31.5  34.0  12  1012   ---   SSW    29    29   ---   5.4 Scattered Clouds/
23/06/2006 00:50      34.0   0.0  31.5  34.0  12  1011   ---   SSW    29    29   ---   5.4 Scattered Clouds/
23/06/2006 01:50      34.0   0.0  31.5  34.0  12  1011   ---   SSW    23    23   ---   5.4 Scattered Clouds/
23/06/2006 02:50      34.0   0.0  31.5  34.0  12  1010   ---   SSW    29    29   ---   5.4 Scattered Clouds/
23/06/2006 03:50      34.0   0.0  31.5  34.0  12  1010   ---   SSW    27    27   ---   --- /
23/06/2006 04:50      27.0  19.0  28.2  24.3  62  1010   ---     W    23    23   ---   --- /
23/06/2006 05:20      31.0  15.0  30.6  30.1  38  1011   ---   WSW    21    21   ---   --- /
23/06/2006 06:20      32.0   0.0  29.8  31.6  13  1010   ---    SW    21    21   ---   --- /
23/06/2006 07:50      27.0  19.0  28.2  24.7  62  1012   ---   WNW    18    18   ---   --- /
23/06/2006 08:50      27.0  22.0  29.2  25.3  74  1012   ---     W    13    13   ---   --- /
23/06/2006 09:50      26.0  22.0  28.3  23.5  79  1012   ---   NNW    16    16   ---   --- /
23/06/2006 10:50      26.0  23.0  28.6  26.0  84  1013   ---     N     3     3   ---   --- /
23/06/2006 11:50      26.0  22.0  28.3  26.0  79  1013   ---     N     5     5   ---   --- /
23/06/2006 12:50      28.0  20.0  29.7  28.0  62  1013   ---     N     3     3   ---   --- /
23/06/2006 13:20      28.0  20.0  29.7  27.5  62  1013   ---   WNW     6     6   ---   --- /
23/06/2006 14:50      29.0  17.0  29.5  28.6  48  1013   ---   WNW     6     6   ---   --- /
23/06/2006 15:50      29.0  14.0  28.6  29.0  40  1013   ---     N     5     5   ---   --- /
23/06/2006 16:50      27.0  15.0  27.3  27.0  48  1013   ---     N     3     3   ---   --- /
23/06/2006 17:50      27.0  18.0  27.9  27.0  58  1013   ---     N     5     5   ---   --- /
23/06/2006 18:50      28.0  19.0  29.3  28.0  58  1013   ---     N     3     3   ---   --- /
23/06/2006 19:50      26.0  20.0  27.6  26.0  70  1013   ---     N     5     5   ---   --- /
23/06/2006 20:20      25.0  21.0  27.2  25.0  79  1013   ---     N     5     5   ---   --- /
23/06/2006 21:50      24.0  22.0  27.0  23.2  89  1012   ---   WSW     6     6   ---   --- /
23/06/2006 22:50      24.0  22.0  27.0  23.2  89  1013   ---    SW     6     6   ---   --- /
23/06/2006 23:20      24.0  21.0  26.6  24.0  83  1013   ---     N     5     5   ---   --- /
24/06/2006 00:50      23.0  21.0  26.0  23.0  89  1013   ---     N     0     0   ---   --- /
24/06/2006 01:50      23.0   0.0  22.3  23.0  22  1013   ---   ---     0     0   ---   --- /
24/06/2006 02:50      23.0   0.0  22.3  23.0  22  1014   ---   ---     0     0   ---   --- /
24/06/2006 03:50      23.0   0.0  22.3  23.0  22  1013   ---   ---     0     0   ---   --- /
24/06/2006 04:50      23.0  22.0  26.5  23.0  94  1013   ---   ---     0     0   ---   --- /
24/06/2006 05:20      23.0  22.0  26.5  23.0  94  1013   ---   ---     2     2   ---   --- /
24/06/2006 06:50      23.0  23.0  27.0  21.0 100  1013   ---   ENE    10    10   ---   --- /
24/06/2006 07:50      24.0  23.0  27.5  21.5  94  1013   ---   ENE    13    13   ---   --- /
24/06/2006 08:50      25.0  23.0  28.0  22.8  89  1013   ---   ENE    13    13   ---   --- /
24/06/2006 09:50      26.0  23.0  28.6  23.8  84  1013   ---    NE    14    14   ---   --- /
24/06/2006 10:50      27.0  23.0  29.6  24.9  79  1013   ---    NE    16    16   ---   --- /
24/06/2006 11:20      27.0  22.0  29.2  24.9  74  1013   ---    NE    16    16   ---   --- /
24/06/2006 12:20      28.0  21.0  30.1  26.4  66  1014   ---   NNE    14    14   ---   --- /
24/06/2006 13:50      28.0  22.0  30.7  25.9  70  1013   ---   ENE    21    21   ---   --- /
24/06/2006 13:50      28.0  22.0  30.7  25.9  70  1013   ---   ENE    21    21   ---   --- None reported/None reported
24/06/2006 14:50      30.0  17.0  30.4  28.7  46  1013   ---    NE    21    21   ---   --- /
24/06/2006 15:50      30.0  17.0  30.4  28.8  46  1013   ---    NE    19    19   ---   --- /
24/06/2006 16:50      30.0  17.0  30.4  28.9  46  1013   ---   ENE    18    18   ---   --- /
24/06/2006 17:20      30.0  18.0  30.8  28.7  49  1012   ---   ENE    23    23   ---   --- /
24/06/2006 18:50      29.0  19.0  30.3  27.3  55  1012   ---   ENE    21    21   ---   --- /
24/06/2006 19:20      28.0  21.0  30.1  25.6  66  1012   ---   ENE    26    26   ---   --- /
24/06/2006 20:50      26.0  22.0  28.3  24.1  79  1013   ---     W    13    13   ---   --- /
24/06/2006 21:50      25.0  23.0  28.0  24.3  89  1014   ---    NW     6     6   ---   --- /
24/06/2006 22:50      25.0  23.0  28.0  25.0  89  1013   ---     N     0     0   ---   --- /
24/06/2006 23:20      25.0  23.0  28.0  25.0  89  1013   ---   ---     0     0   ---   --- /
25/06/2006 00:50      25.0  23.0  28.0  25.0  89  1013   ---   ---     3     3   ---   --- /
25/06/2006 01:50      24.0  22.0  27.0  24.0  89  1013   ---     N     0     0   ---   --- /
25/06/2006 02:50      24.0  22.0  27.0  24.0  89  1013   ---   ---     2     2   ---   --- /
25/06/2006 03:50      24.0  21.0  26.6  24.0  83  1013   ---     N     2     2   ---   --- /
25/06/2006 04:50      24.0  20.0  26.2  23.2  78  1013   ---     E     6     6   ---   --- /
25/06/2006 05:20      24.0  18.0  25.6  23.2  69  1013   ---     E     6     6   ---   --- /
25/06/2006 06:50      25.0  19.0  26.6  23.4  69  1013   ---   SSW    10    10   ---   --- /
25/06/2006 07:50      26.0  19.0  27.3  26.0  65  1013   ---     N     5     5   ---   --- /
25/06/2006 08:50      28.0  15.0  28.0  28.0  45  1013   ---     N     2     2   ---   --- /
25/06/2006 09:50      29.0  15.0  28.9  29.0  43  1013   ---     N     3     3   ---   --- /
25/06/2006 10:20      29.0  15.0  28.9  29.0  43  1013   ---     N     3     3   ---   --- /
25/06/2006 11:20      29.0  16.0  29.1  29.0  45  1014   ---     N     5     5   ---   --- /
25/06/2006 12:50      31.0  15.0  30.6  30.7  38  1014   ---     W     8     8   ---   --- /
25/06/2006 13:50      33.0  14.0  32.3  33.0  32  1014   ---     W     8     8   ---   --- /
25/06/2006 14:50      32.0   0.0  29.8  32.0  13  1014   ---     N     5     5   ---   --- /
25/06/2006 15:50      32.0   0.0  29.8  32.0  13  1014   ---     N     3     3   ---   --- /
25/06/2006 16:50      33.0   0.0  30.6  33.0  12  1014   ---     N     5     5   ---   --- /
25/06/2006 17:20      33.0   0.0  30.6  33.0  12  1014   ---   NNE     8     8   ---   --- /
25/06/2006 18:50      33.0   0.0  30.6  33.0  12  1013   ---   ENE    13    13   ---   --- /
25/06/2006 19:50      32.0  15.0  31.6  31.9  36  1013   ---    NE     6     6   ---   --- /
25/06/2006 20:50      28.0  23.0  31.3  27.0  74  1013   ---   WSW    10    10   ---   --- /
25/06/2006 21:50      27.0  20.0  28.5  26.4  66  1014   ---   WSW     6     6   ---   --- /
25/06/2006 22:50      27.0  19.0  28.2  27.0  62  1015   ---     N     5     5   ---   --- /
25/06/2006 23:20      27.0  19.0  28.2  27.0  62  1014   ---     N     0     0   ---   --- /
26/06/2006 00:20      27.0  17.0  27.7  27.0  54  1015   ---   ---     2     2   ---   --- /
26/06/2006 01:50      27.0  17.0  27.7  27.0  54  1014   ---     N     3     3   ---   --- /
26/06/2006 02:50      26.0  18.0  27.1  26.0  61  1013   ---     N     2     2   ---   --- /
26/06/2006 03:50      26.0  16.0  26.7  26.0  54  1014   ---     N     2     2   ---   --- /
26/06/2006 04:50      26.0  16.0  26.7  25.4  54  1013   ---    SW     6     6   ---   --- /
26/06/2006 05:20      28.0  16.0  28.3  28.0  48  1014   ---     N     3     3   ---   --- /
26/06/2006 06:20      28.0  14.0  27.8  27.5  42  1014   ---    SW     6     6   ---   --- /
26/06/2006 07:50      27.0  21.0  28.8  27.0  70  1015   ---     N     2     2   ---   --- /
26/06/2006 08:50      28.0  20.0  29.7  26.2  62  1015   ---     E    16    16   ---   0.9 Scattered Clouds/
26/06/2006 10:50      29.0  18.0  29.9  28.6  52  1015   ---   NNE     6     6   ---   0.9 Scattered Clouds/
26/06/2006 12:50      33.0  16.0  33.0  33.0  36  1014   ---    NE    13    13   ---   --- /
26/06/2006 14:00       0.0   0.0   4.0  -9.2 100   ---   ---    NE   ---   ---   ---   --- /
26/06/2006 14:50      34.0   0.0  31.5  34.0  12  1014   ---   NNE     8     8   ---   --- /
26/06/2006 15:50      33.0  15.0  32.6  33.0  34  1014   ---     N    13    13   ---   --- /
26/06/2006 16:50      31.0  17.0  31.4  30.4  43  1015   ---     N    13    13   ---   1.2 Scattered Clouds/
26/06/2006 17:50      29.0  24.0  33.6  27.7  75  1015   ---    NE    14    14   ---   1.2 Scattered Clouds/
26/06/2006 18:50      29.0  25.0  34.5  27.5  79  1015   ---    NE    18    18   ---   1.2 Scattered Clouds/
26/06/2006 19:50      28.0  24.0  31.9  26.1  79  1015   ---   ENE    18    18   ---   1.2 Scattered Clouds/
26/06/2006 20:50      28.0  23.0  31.3  28.0  74  1015   ---     N     5     5   ---   1.2 Scattered Clouds/
26/06/2006 21:50      27.0  24.0  30.1  27.0  84  1015   ---     N     3     3   ---   1.2 Scattered Clouds/
26/06/2006 22:50      26.0  25.0  29.5  26.0  94  1015   ---     N     5     5   ---   1.0 Scattered Clouds/
26/06/2006 23:50      26.0  25.0  29.5  26.0  94  1016   ---     N     2     2   ---   1.0 Few Clouds/
27/06/2006 00:50      25.0  23.0  28.0  25.0  89  1016   ---     N     5     5   ---   1.0 Few Clouds/
27/06/2006 01:50      25.0  17.0  26.1  25.0  61  1015   ---     N     3     3   ---   1.0 Few Clouds/
27/06/2006 02:50      26.0  20.0  27.6  26.0  70  1015   ---     N     2     2   ---   --- /
27/06/2006 03:50      25.0  17.0  26.1  25.0  61  1015   ---     N     2     2   ---   --- /
27/06/2006 04:50      26.0  17.0  26.9  26.0  58  1015   ---     N     3     3   ---   --- /
27/06/2006 05:50      27.0  18.0  27.9  26.4  58  1015   ---   ENE     6     6   ---   1.0 Few Clouds/
27/06/2006 06:50      25.0  19.0  26.6  23.7  69  1015   ---   SSW     8     8   ---   1.0 Few Clouds/
27/06/2006 07:50      29.0  18.0  29.9  29.0  52  1016   ---     N     3     3   ---   --- /
27/06/2006 08:20      29.0  18.0  29.9  29.0  52  1016   ---     N     2     2   ---   --- /
27/06/2006 09:50      31.0  18.0  31.9  30.8  46  1016   ---   NNE     6     6   ---   --- /
27/06/2006 10:50      33.0  13.0  32.0  33.0  30  1016   ---    NE     8     8   ---   --- /
27/06/2006 11:50      33.0  14.0  32.3  33.0  32  1016   ---   ENE    18    18   ---   --- /
27/06/2006 12:50      31.0  19.0  32.4  30.2  49  1015   ---   ENE    19    19   ---   --- /
27/06/2006 13:50      32.0  21.0  34.9  31.6  52  1015   ---   ENE    19    19   ---   --- /
27/06/2006 14:50      33.0  20.0  35.3  33.0  47  1015   ---    NE    16    16   ---   --- /
27/06/2006 15:50      34.0  18.0  35.1  34.0  39  1015   ---    NE    13    13   ---   --- /
27/06/2006 16:50      34.0  16.0  34.1  34.0  34  1015   ---     N     3     3   ---   --- /
27/06/2006 17:50      31.0  20.0  33.0  30.4  52  1015   ---     W    13    13   ---   --- /
27/06/2006 18:50      29.0  21.0  31.4  28.6  62  1014   ---     W     6     6   ---   --- /
27/06/2006 19:50      29.0  22.0  32.0  29.0  66  1014   ---     N     5     5   ---   --- /
27/06/2006 20:50      28.0  22.0  30.7  28.0  70  1014   ---     N     0     0   ---   --- /
27/06/2006 21:50      28.0  23.0  31.3  28.0  74  1014   ---   ---     0     0   ---   --- /
27/06/2006 22:50      27.0  23.0  29.6  27.0  79  1014   ---   ---     0     0   ---   --- /
27/06/2006 23:20      27.0  23.0  29.6  27.0  79  1014   ---   ---     0     0   ---   --- /
28/06/2006 00:50      26.0  22.0  28.3  26.0  79  1014   ---   ---     3     3   ---   --- /
28/06/2006 01:50      26.0  18.0  27.1  25.4  61  1014   ---     W     6     6   ---   --- /
28/06/2006 02:50      26.0  21.0  27.9  26.0  74  1014   ---     N     5     5   ---   --- /
28/06/2006 03:50      26.0  19.0  27.3  26.0  65  1013   ---     N     0     0   ---   --- /
28/06/2006 04:50      25.0  16.0  25.9  23.7  57  1014   ---   ENE     8     8   ---   --- /
28/06/2006 05:20      28.0  15.0  28.0  26.2  45  1013   ---     E    16    16   ---   --- /
28/06/2006 06:50      26.0  16.0  26.7  26.0  54  1013   ---     N     2     2   ---   --- /
28/06/2006 07:50      28.0  18.0  28.9  28.0  55  1013   ---     N     5     5   ---   --- /
28/06/2006 08:50      30.0  15.0  29.7  30.0  40  1013   ---     N     3     3   ---   --- /
28/06/2006 09:20      31.0  17.0  31.4  31.0  43  1013   ---     N     5     5   ---   --- /
28/06/2006 10:50      31.0  16.0  31.0  31.0  41  1013   ---     N     3     3   ---   --- /
28/06/2006 11:50      33.0  16.0  33.0  33.0  36  1014   ---     N     5     5   ---   --- /
28/06/2006 12:20      35.0  16.0  35.2  35.0  32  1014   ---     N     5     5   ---   --- /
28/06/2006 13:50      35.0   0.0  32.4  35.0  11  1013   ---     N     3     3   ---   --- /
28/06/2006 14:50      34.0  20.0  36.5  34.0  44  1013   ---     W     8     8   ---   --- /
28/06/2006 15:50      33.0  21.0  36.1  33.0  49  1013   ---   WSW    14    14   ---   --- /
28/06/2006 16:50      33.0  19.0  34.6  33.0  44  1013   ---     W    14    14   ---   --- /
28/06/2006 17:50      31.0  25.0  37.8  31.0  71  1013   ---     N     5     5   ---   --- /
28/06/2006 18:50      30.0  24.0  35.1  30.0  70  1013   ---     N     2     2   ---   --- /
28/06/2006 19:50      29.0  24.0  33.6  29.0  75  1013   ---     N     3     3   ---   --- /
28/06/2006 20:50      28.0  25.0  32.7  28.0  84  1014   ---     N     2     2   ---   --- /
28/06/2006 21:50      27.0  25.0  30.6  27.0  89  1014   ---     N     5     5   ---   --- /
28/06/2006 22:50      27.0  26.0  31.2  27.0  94  1014   ---     N     5     5   ---   --- /
28/06/2006 23:50      26.0  26.0  30.0  26.0 100  1014   ---     N     0     0   ---   --- /
29/06/2006 00:50      26.0  23.0  28.6  26.0  84  1014   ---   ---     5     5   ---   --- /
29/06/2006 01:50      26.0  24.0  29.0  25.4  89  1015   ---   WSW     6     6   ---   --- /
29/06/2006 02:50      25.0  23.0  28.0  25.0  89  1014   ---     N     2     2   ---   --- /
29/06/2006 03:50      25.0  22.0  27.6  25.0  83  1014   ---     N     5     5   ---   --- /
29/06/2006 04:50      25.0  24.0  28.5  22.5  94  1014   ---   WNW    14    14   ---   --- /
29/06/2006 05:20      25.0  24.0  28.5  23.7  94  1014   ---    NW     8     8   ---   --- /
29/06/2006 06:50      24.0  23.0  27.5  22.5  94  1014   ---     N     8     8   ---   --- / Mist
29/06/2006 07:50      25.0  23.0  28.0  25.0  89  1014   ---     N     0     0   ---   0.2 Few Clouds/
29/06/2006 08:50      26.0  23.0  28.6  26.0  84  1014   ---   ---     3     3   ---   --- Clear/
29/06/2006 09:50      27.0  22.0  29.2  24.9  74  1015   ---   WNW    16    16   ---   --- Clear/
29/06/2006 10:50      26.0  23.0  28.6  23.8  84  1015   ---   NNW    14    14   ---   --- / Mist
29/06/2006 11:20      25.0  22.0  27.6  22.8  83  1015   ---   NNW    13    13   ---   --- / Mist
29/06/2006 12:50      26.0  22.0  28.3  24.6  79  1015   ---     N    10    10   ---   --- / Mist
29/06/2006 13:50      26.0  22.0  28.3  25.4  79  1015   ---   NNW     6     6   ---   --- / Mist
29/06/2006 14:50      27.0  22.0  29.2  26.0  74  1015   ---     N     8     8   ---   --- / Mist
29/06/2006 15:50      27.0  23.0  29.6  24.5  79  1015   ---    NW    19    19   ---   --- / Mist
29/06/2006 16:20      27.0  23.0  29.6  24.4  79  1014   ---    NW    21    21   ---   --- / Mist
29/06/2006 17:20      26.0  22.0  28.3  23.8  79  1015   ---    NW    14    14   ---   --- / Mist
29/06/2006 17:50      26.0  22.0  28.3  23.5  79  1015   ---    NW    16    16   ---   --- / Mist
29/06/2006 19:20      25.0  22.0  27.6  25.0  83  1015   ---     N     5     5   ---   --- / Mist
29/06/2006 20:50      26.0  23.0  28.6  26.0  84  1015   ---     N     3     3   ---   --- / Mist
29/06/2006 21:50      25.0  22.0  27.6  23.7  83  1015   ---   WNW     8     8   ---   --- / Mist
29/06/2006 22:50      24.0  23.0  27.5  21.5  94  1016   ---    NW    13    13   ---   --- / Mist
29/06/2006 23:50      24.0  22.0  27.0  22.2  89  1016   ---   WNW    10    10   ---   --- / Mist
30/06/2006 00:20      24.0  23.0  27.5  22.2  94  1016   ---   WNW    10    10   ---   --- / Mist
30/06/2006 01:50      24.0  22.0  27.0  20.1  89  1016   ---   WNW    21    21   ---   0.6 Few Clouds/
30/06/2006 02:50      24.0  22.0  27.0  20.6  89  1016   ---    NW    18    18   ---   0.6 Few Clouds/
30/06/2006 03:50      24.0  22.0  27.0  24.0  89  1016   ---     N     2     2   ---   0.6 Few Clouds/
30/06/2006 04:50      23.0  21.0  26.0  21.0  89  1014   ---    NE    10    10   ---   0.6 Few Clouds/
30/06/2006 05:20      23.0  22.0  26.5  21.3  94  1014   ---     E     8     8   ---   0.6 Few Clouds/
30/06/2006 06:50      24.0  22.0  27.0  23.2  89  1015   ---    NE     6     6   ---   0.6 Broken Clouds/
30/06/2006 07:50      24.0  22.0  27.0  24.0  89  1016   ---     N     5     5   ---   0.6 Scattered Clouds/
30/06/2006 08:50      25.0  22.0  27.6  22.8  83  1017   ---     W    13    13   ---   0.4 Scattered Clouds/
30/06/2006 09:50      25.0  21.0  27.2  24.3  79  1017   ---    NW     6     6   ---   0.3 Scattered Clouds/
30/06/2006 10:50      26.0  22.0  28.3  26.0  79  1017   ---     N     3     3   ---   --- / Mist
30/06/2006 11:20      27.0  20.0  28.5  26.0  66  1017   ---     W     8     8   ---   --- / Mist
30/06/2006 12:20      26.0  22.0  28.3  22.9  79  1017   ---    NW    23    23   ---   --- / Mist
30/06/2006 13:50      27.0  22.0  29.2  25.3  74  1016   ---   NNE    13    13   ---   --- / Mist
30/06/2006 14:50      27.0  23.0  29.6  24.1  79  1015   ---    NE    26    26   ---   --- / Mist
30/06/2006 16:00       0.0   0.0   4.0 -15.9 100   ---   ---    NE   ---   ---   ---   --- /
30/06/2006 16:50      27.0  22.0  29.2  24.1  74  1016   ---    NE    26    26   ---   --- / Mist
30/06/2006 17:50      27.0  23.0  29.6  24.1  79  1016   ---    NE    26    26   ---   0.4 Scattered Clouds/
30/06/2006 18:50      26.0  24.0  29.0  22.4  89  1015   ---   ENE    31    31   ---   0.4 Scattered Clouds/
30/06/2006 19:50      26.0  24.0  29.0  22.5  89  1015   ---   ENE    27    27   ---   0.4 Scattered Clouds/
30/06/2006 20:50      25.0  24.0  28.5  22.1  94  1015   ---   ENE    16    16   ---   0.6 Few Clouds/
30/06/2006 21:50      26.0  24.0  29.0  25.4  89  1015   ---     E     6     6   ---   0.6 Few Clouds/
30/06/2006 22:50      25.0  24.0  28.5  25.0  94  1016   ---     N     3     3   ---   0.6 Few Clouds/
30/06/2006 23:20      25.0  23.0  28.0  25.0  89  1017   ---     N     3     3   ---   0.6 Few Clouds/
01/07/2006 00:50      24.0  23.0  27.5  24.0  94  1016   ---     N     3     3   ---   0.6 Few Clouds/
01/07/2006 01:20      25.0  23.0  28.0  25.0  89  1016   ---     N     5     5   ---   0.6 Few Clouds/
01/07/2006 02:50      24.0  23.0  27.5  22.2  94  1016   ---    NE    10    10   ---   --- / Mist
01/07/2006 03:50      24.0  23.0  27.5  21.1  94  1015   ---   ENE    14    14   ---   --- / Mist
01/07/2006 04:50      25.0  23.0  28.0  22.1  89  1015   ---   ENE    16    16   ---   --- / Mist
01/07/2006 05:20      24.0  22.0  27.0  20.6  89  1016   ---   ENE    18    18   ---   --- / Mist
01/07/2006 06:50      25.0  22.0  27.6  21.6  83  1015   ---    NE    21    21   ---   --- / Mist
01/07/2006 07:50      25.0  22.0  27.6  22.0  83  1015   ---    NE    18    18   ---   --- / Mist
01/07/2006 08:50      26.0  22.0  28.3  23.1  79  1015   ---    NE    19    19   ---   --- / Mist
01/07/2006 09:50      26.0  21.0  27.9  23.0  74  1015   ---    NE    21    21   ---   0.3 Scattered Clouds/
01/07/2006 10:50      27.0  21.0  28.8  24.4  70  1015   ---    NE    21    21   ---   --- Clear/
01/07/2006 11:50      27.0  21.0  28.8  24.3  70  1015   ---    NE    23    23   ---   0.5 Few Clouds/
01/07/2006 12:50      28.0  21.0  30.1  25.6  66  1015   ---    NE    26    26   ---   0.5 Few Clouds/
01/07/2006 13:50      28.0  21.0  30.1  25.6  66  1015   ---    NE    26    26   ---   0.5 Few Clouds/
01/07/2006 14:50      28.0  22.0  30.7  25.8  70  1015   ---   NNE    23    23   ---   0.5 Few Clouds/
01/07/2006 15:50      28.0  21.0  30.1  25.9  66  1015   ---    NE    19    19   ---   0.4 Scattered Clouds/
01/07/2006 17:00       0.0   0.0   4.0 -13.6 100   ---   ---    NE   ---   ---   ---   --- /
01/07/2006 17:50      27.0  22.0  29.2  24.5  74  1014   ---   NNE    19    19   ---   0.4 Few Clouds/
01/07/2006 18:50      27.0  22.0  29.2  24.7  74  1014   ---    NE    18    18   ---   0.4 Scattered Clouds/
01/07/2006 19:50      26.0  21.0  27.9  23.4  74  1014   ---    NE    18    18   ---   0.4 Scattered Clouds/
01/07/2006 20:50      25.0  22.0  27.6  22.8  83  1014   ---    NE    13    13   ---   0.5 Few Clouds/
01/07/2006 21:50      25.0  23.0  28.0  22.8  89  1014   ---   ENE    13    13   ---   0.5 Few Clouds/
01/07/2006 22:50      25.0  23.0  28.0  22.8  89  1015   ---    NE    13    13   ---   0.5 Few Clouds/
01/07/2006 23:20      25.0  23.0  28.0  23.4  89  1014   ---    NE    10    10   ---   0.5 Few Clouds/
02/07/2006 00:50      24.0  22.0  27.0  22.5  89  1015   ---    NE     8     8   ---   --- Clear/
02/07/2006 01:50      24.0  22.0  27.0  24.0  89  1015   ---     N     2     2   ---   --- Clear/
02/07/2006 02:50      24.0  23.0  27.5  22.5  94  1015   ---     N     8     8   ---   --- Clear/
02/07/2006 03:50      24.0  23.0  27.5  22.2  94  1014   ---    NE    10    10   ---   0.4 Scattered Clouds/
02/07/2006 04:50      24.0  22.0  27.0  24.0  89  1014   ---     N     5     5   ---   --- Clear/
02/07/2006 05:20      24.0  22.0  27.0  24.0  89  1014   ---     N     3     3   ---   --- Clear/
02/07/2006 06:50      23.0  21.0  26.0  23.0  89  1014   ---     N     5     5   ---   --- Clear/
02/07/2006 07:50      25.0  22.0  27.6  25.0  83  1014   ---     N     3     3   ---   --- Clear/
02/07/2006 08:50      26.0  22.0  28.3  24.1  79  1014   ---     W    13    13   ---   --- Clear/
02/07/2006 09:50      26.0  21.0  27.9  25.4  74  1015   ---    NW     6     6   ---   --- Clear/
02/07/2006 10:50      26.0  22.0  28.3  26.0  79  1015   ---     N     5     5   ---   0.3 Few Clouds/
02/07/2006 11:50      26.0  22.0  28.3  24.6  79  1015   ---     N    10    10   ---   0.3 Few Clouds/
02/07/2006 12:50      26.0  22.0  28.3  24.1  79  1015   ---     N    13    13   ---   0.3 Few Clouds/
02/07/2006 13:50      27.0  22.0  29.2  24.9  74  1015   ---     N    16    16   ---   0.3 Few Clouds/
02/07/2006 14:50      28.0  20.0  29.7  27.0  62  1015   ---     N    10    10   ---   0.3 Few Clouds/
02/07/2006 15:50      27.0  20.0  28.5  25.3  66  1015   ---     N    13    13   ---   --- /
02/07/2006 16:50      27.0  18.0  27.9  26.0  58  1015   ---     N     8     8   ---   --- /
02/07/2006 17:50      26.0  20.0  27.6  24.1  70  1014   ---     N    13    13   ---   --- /
02/07/2006 18:50      26.0  22.0  28.3  25.4  79  1015   ---     N     6     6   ---   0.5 Few Clouds/
02/07/2006 19:50      26.0  22.0  28.3  26.0  79  1015   ---     N     5     5   ---   0.5 Few Clouds/
02/07/2006 20:50      26.0  23.0  28.6  26.0  84  1014   ---     N     2     2   ---   0.4 Few Clouds/
02/07/2006 21:50      25.0  23.0  28.0  25.0  89  1014   ---     N     0     0   ---   0.5 Few Clouds/
02/07/2006 22:50      25.0  23.0  28.0  25.0  89  1014   ---   ---     0     0   ---   0.5 Few Clouds/
02/07/2006 23:20      24.0  23.0  27.5  24.0  94  1014   ---   ---     0     0   ---   0.5 Few Clouds/
03/07/2006 00:20      24.0  22.0  27.0  24.0  89  1014   ---   ---     5     5   ---   0.5 Few Clouds/
03/07/2006 01:50      23.0  15.0  24.1  22.1  61  1014   ---     S     6     6   ---   0.6 Few Clouds/
03/07/2006 02:50      24.0  13.0  24.5  22.5  50  1014   ---   SSW     8     8   ---   --- /
03/07/2006 03:50      23.0  13.0  23.6  22.1  53  1014   ---     S     6     6   ---   --- /
03/07/2006 05:00       0.0   0.0   4.0  -3.0 100   ---   ---     S   ---   ---   ---   --- /
03/07/2006 05:20      24.0  13.0  24.5  24.0  50  1014   ---     N     3     3   ---   --- Clear/
03/07/2006 06:50      24.0  12.0  24.3  24.0  47  1013   ---     N     5     5   ---   --- /
03/07/2006 07:50      27.0  13.0  27.0  27.0  42  1013   ---     N     5     5   ---   --- /
03/07/2006 08:50      28.0  13.0  27.6  27.2  40  1014   ---    SW     8     8   ---   --- /
03/07/2006 09:50      28.0  12.0  27.5  26.6  37  1014   ---   WSW    13    13   ---   --- /
03/07/2006 10:50      29.0  12.0  28.2  28.2  35  1014   ---     W    10    10   ---   --- /
03/07/2006 12:20      29.0  14.0  28.6  28.3  40  1014   ---    NW     8     8   ---   --- /
03/07/2006 13:50      28.0  17.0  28.6  27.0  51  1014   ---   NNW    10    10   ---   --- /
03/07/2006 14:50      28.0  17.0  28.6  27.2  51  1014   ---    NW     8     8   ---   --- /
03/07/2006 15:50      29.0  17.0  29.5  29.0  48  1014   ---     N     5     5   ---   --- /
03/07/2006 16:50      28.0  17.0  28.6  27.5  51  1013   ---     N     6     6   ---   --- /
03/07/2006 17:20      28.0  15.0  28.0  27.5  45  1013   ---     N     6     6   ---   --- /
03/07/2006 18:50      28.0  17.0  28.6  28.0  51  1013   ---     N     3     3   ---   --- /
03/07/2006 19:50      28.0  15.0  28.0  28.0  45  1014   ---     N     5     5   ---   --- /
03/07/2006 20:50      27.0  17.0  27.7  27.0  54  1013   ---     N     3     3   ---   --- /
03/07/2006 21:50      26.0  15.0  26.5  26.0  51  1013   ---     N     5     5   ---   --- /
03/07/2006 22:50      26.0  16.0  26.7  25.4  54  1013   ---     E     6     6   ---   --- /
03/07/2006 23:20      26.0  17.0  26.9  26.0  58  1013   ---     N     5     5   ---   --- /
04/07/2006 00:20      25.0  16.0  25.9  25.0  57  1014   ---     N     5     5   ---   --- /
04/07/2006 01:50      24.0  16.0  25.1  24.0  61  1013   ---     N     3     3   ---   --- /
04/07/2006 02:50      24.0  16.0  25.1  24.0  61  1013   ---     N     0     0   ---   --- /
04/07/2006 03:50      25.0  14.0  25.5  25.0  51  1013   ---   ---     3     3   ---   --- /
04/07/2006 04:50      23.0  14.0  23.8  23.0  57  1014   ---     N     0     0   ---   --- /
04/07/2006 05:20      23.0  14.0  23.8  23.0  57  1013   ---   ---     3     3   ---   --- /
04/07/2006 06:50      24.0  16.0  25.1  24.0  61  1013   ---     N     2     2   ---   --- /
04/07/2006 07:50      25.0  18.0  26.3  25.0  65  1013   ---     N     5     5   ---   --- /
04/07/2006 08:50      27.0  19.0  28.2  27.0  62  1013   ---     N     3     3   ---   --- /
04/07/2006 09:50      26.0  20.0  27.6  26.0  70  1014   ---     N     5     5   ---   --- /
04/07/2006 10:50      27.0  21.0  28.8  26.4  70  1013   ---     N     6     6   ---   --- /
04/07/2006 11:50      27.0  22.0  29.2  25.3  74  1013   ---   NNE    13    13   ---   --- /
04/07/2006 12:50      28.0  21.0  30.1  26.4  66  1014   ---   NNE    14    14   ---   --- /
04/07/2006 13:20      27.0  22.0  29.2  25.1  74  1014   ---   NNE    14    14   ---   --- /
04/07/2006 14:50      29.0  21.0  31.4  27.7  62  1014   ---   NNE    14    14   ---   --- /
04/07/2006 15:50      29.0  22.0  32.0  27.7  66  1014   ---   NNE    14    14   ---   --- /
04/07/2006 16:50      28.0  21.0  30.1  26.4  66  1014   ---   NNE    14    14   ---   --- /
04/07/2006 17:20      28.0  22.0  30.7  26.4  70  1014   ---   NNE    14    14   ---   --- /
04/07/2006 18:50      28.0  22.0  30.7  26.2  70  1014   ---   NNE    16    16   ---   --- /
04/07/2006 19:50      27.0  23.0  29.6  24.9  79  1014   ---   NNE    16    16   ---   --- /
04/07/2006 20:50      26.0  23.0  28.6  24.6  84  1014   ---   ENE    10    10   ---   --- /
04/07/2006 21:50      26.0  22.0  28.3  25.4  79  1013   ---   NNE     6     6   ---   --- /
04/07/2006 22:50      26.0  23.0  28.6  24.8  84  1014   ---    NE     8     8   ---   --- /
04/07/2006 23:20      25.0  22.0  27.6  23.7  83  1015   ---   ENE     8     8   ---   --- /
04/07/2006 23:50      25.0  23.0  28.0  23.4  89  1015   ---   ENE    10    10   ---   --- /
05/07/2006 01:50      25.0  21.0  27.2  25.0  79  1015   ---     N     5     5   ---   --- /
05/07/2006 02:50      24.0  21.0  26.6  24.0  83  1015   ---     N     5     5   ---   --- /
05/07/2006 03:50      24.0  20.0  26.2  23.2  78  1014   ---     S     6     6   ---   --- /
05/07/2006 04:50      23.0  21.0  26.0  23.0  89  1014   ---     N     2     2   ---   --- /
05/07/2006 05:20      24.0  22.0  27.0  24.0  89  1015   ---     N     2     2   ---   0.3 Few Clouds/
05/07/2006 06:50      24.0  22.0  27.0  24.0  89  1015   ---     N     3     3   ---   0.2 Few Clouds/
05/07/2006 07:50      26.0  23.0  28.6  26.0  84  1016   ---     N     5     5   ---   0.5 Few Clouds/
05/07/2006 08:20      26.0  22.0  28.3  26.0  79  1016   ---     N     2     2   ---   0.5 Few Clouds/
05/07/2006 09:50      26.0  22.0  28.3  25.4  79  1017   ---    NW     6     6   ---   0.5 Few Clouds/
05/07/2006 10:50      27.0  22.0  29.2  26.0  74  1017   ---     N     8     8   ---   0.5 Few Clouds/
05/07/2006 11:20      27.0  23.0  29.6  25.1  79  1017   ---     N    14    14   ---   0.5 Few Clouds/
05/07/2006 12:20      28.0  23.0  31.3  26.1  74  1017   ---   NNE    18    18   ---   0.5 Few Clouds/
05/07/2006 13:50      29.0  22.0  32.0  27.1  66  1017   ---    NE    26    26   ---   0.5 Few Clouds/
05/07/2006 14:50      30.0  22.0  33.3  28.5  62  1017   ---    NE    27    27   ---   0.5 Scattered Clouds/
05/07/2006 15:50      28.0  22.0  30.7  25.5  70  1017   ---    NE    29    29   ---   5.4 Broken Clouds/
05/07/2006 16:50      29.0  22.0  32.0  26.9  66  1017   ---   ENE    31    31   ---   5.4 Broken Clouds/
05/07/2006 17:50      28.0  22.0  30.7  25.5  70  1016   ---   ENE    27    27   ---   5.4 Broken Clouds/
05/07/2006 18:50      28.0  23.0  31.3  25.5  74  1016   ---   ENE    27    27   ---   5.4 Scattered Clouds/
05/07/2006 19:50      28.0  23.0  31.3  25.6  74  1017   ---   ENE    26    26   ---   --- /
05/07/2006 20:50      27.0  23.0  29.6  24.4  79  1017   ---     E    21    21   ----3274--- Scattered Clouds/
05/07/2006 21:50      27.0  22.0  29.2  26.4  74  1017   ---    NW     6     6   ---   3.0 Scattered Clouds/
05/07/2006 22:50      26.0  23.0  28.6  24.8  84  1018   ---    SW     8     8   ---   --- /
05/07/2006 23:50      26.0  24.0  29.0  24.1  89  1018   ---   WSW    13    13   ---   --- /
06/07/2006 00:50      26.0  22.0  28.3  23.4  79  1019   ---    SW    18    18   ---   --- /
06/07/2006 01:50      25.0  22.0  27.6  22.5  83  1019   ---   SSW    14    14   ---   --- /
06/07/2006 02:50      25.0  22.0  27.6  23.7  83  1019   ---    SW     8     8   ---   --- /
06/07/2006 03:50      25.0  23.0  28.0  25.0  89  1018   ---     N     5     5   ---   --- /
06/07/2006 04:20      25.0  22.0  27.6  25.0  83  1019   ---     N     3     3   ---   --- /
06/07/2006 07:50      26.0  23.0  28.6  24.1  84  1019   ---   ENE    13    13   ---   --- /
06/07/2006 08:20      27.0  23.0  29.6  24.9  79  1019   ---     E    16    16   ---   --- /
06/07/2006 09:50      29.0  20.0  30.8  27.9  58  1019   ---   ENE    13    13   ---   --- /
06/07/2006 10:50      29.0  20.0  30.8  27.6  58  1019   ---     W    16    16   ---   --- /
06/07/2006 11:50      29.0  20.0  30.8  29.0  58  1019   ---     N     5     5   ---   --- /
06/07/2006 12:50      29.0  18.0  29.9  28.6  52  1019   ---   WNW     6     6   ---   --- /
06/07/2006 13:50      29.0  20.0  30.8  27.9  58  1019   ---     N    13    13   ---   --- /
06/07/2006 14:50      28.0  21.0  30.1  26.4  66  1018   ---   NNE    14    14   ---   --- /
06/07/2006 15:50      29.0  21.0  31.4  27.7  62  1019   ---   NNE    14    14   ---   --- /
06/07/2006 16:50      29.0  21.0  31.4  27.7  62  1019   ---    NE    14    14   ---   --- /
06/07/2006 17:50      29.0  22.0  32.0  27.6  66  1018   ---    NE    16    16   ---   1.0 Scattered Clouds/
06/07/2006 18:50      28.0  22.0  30.7  25.9  70  1018   ---   ENE    21    21   ---   1.0 Scattered Clouds/
06/07/2006 19:50      27.0  22.0  29.2  24.7  74  1018   ---     E    18    18   ---   1.0 Scattered Clouds/
06/07/2006 20:50      27.0  23.0  29.6  25.1  79  1018   ---     E    14    14   ---   --- /
06/07/2006 21:50      27.0  22.0  29.2  27.0  74  1018   ---     N     5     5   ---   --- /
06/07/2006 22:50      26.0  24.0  29.0  23.8  89  1019   ---   WNW    14    14   ---   --- /
06/07/2006 23:50      26.0  22.0  28.3  25.4  79  1018   ---    SW     6     6   ---   --- /
07/07/2006 00:50      26.0  20.0  27.6  22.9  70  1016   ---    SW    23    23   ---   --- /
07/07/2006 01:50      29.0  12.0  28.2  27.0  35  1015   ---    SW    27    27   ---   --- /
07/07/2006 02:50      28.0  16.0  28.3  25.9  48  1015   ---    SW    19    19   ---   --- /
07/07/2006 03:50      27.0  21.0  28.8  24.9  70  1016   ---    SW    16    16   ---   --- /
07/07/2006 04:50      26.0  25.0  29.5  22.2  94  1018   ---   NNE    34    34   ---   --- /
07/07/2006 05:20      26.0  24.0  29.0  23.0  89  1018   ---   ENE    21    21   ---   0.5 Scattered Clouds/
07/07/2006 06:50      27.0  21.0  28.8  27.0  70  1016   ---     N     3     3   ---   0.6 Broken Clouds/
07/07/2006 07:50      25.0  20.0  26.9  20.5  74  1015   ---     S    37    58   ---   0.6 Broken Clouds/
07/07/2006 09:50      28.0  18.0  28.9  25.1  55  1014   ---    SW    42    42   ---   0.6 Broken Clouds/
07/07/2006 10:50      31.0  16.0  31.0  29.9  41  1014   ---   SSW    34    56   ---   0.6 Scattered Clouds/
07/07/2006 11:50      32.0  17.0  32.4  31.5  41  1014   ---   SSW    32    32   ---   0.6 Scattered Clouds/
07/07/2006 12:50      29.0  18.0  29.9  26.8  52  1014   ---    SW    34    34   ---   0.6 Broken Clouds/
07/07/2006 13:50      32.0  17.0  32.4  31.4  41  1014   ---    SW    45    45   ---   0.6 Scattered Clouds/
07/07/2006 14:50      31.0  17.0  31.4  29.9  43  1014   ---   SSW    39    60   ---   1.0 Broken Clouds/
07/07/2006 15:50      31.0  17.0  31.4  29.9  43  1013   ---   SSW    42    42   ---   1.0 Broken Clouds/
07/07/2006 16:50      32.0  19.0  33.5  31.5  46  1013   ---    SW    32    51   ---   1.0 Scattered Clouds/
07/07/2006 17:50      31.0  19.0  32.4  30.0  49  1013   ---    SW    29    47   ---   1.0 Scattered Clouds/
07/07/2006 18:50      29.0  21.0  31.4  27.1  62  1013   ---   WSW    26    26   ---   0.9 Scattered Clouds/
07/07/2006 19:50      28.0  22.0  30.7  26.2  70  1014   ---    SW    16    16   ---   0.9 Scattered Clouds/
07/07/2006 20:50      28.0  22.0  30.7  25.8  70  1013   ---   SSW    23    23   ---   0.9 Few Clouds/
07/07/2006 21:50      27.0  22.0  29.2  24.7  74  1014   ---    SW    18    18   ---   0.9 Few Clouds/
07/07/2006 22:50      27.0  23.0  29.6  25.1  79  1014   ---   WSW    14    14   ---   0.9 Few Clouds/
07/07/2006 23:50      26.0  23.0  28.6  23.4  84  1014   ---    SW    18    18   ---   0.8 Scattered Clouds/
08/07/2006 00:50      26.0  23.0  28.6  23.4  84  1014   ---    SW    18    18   ---   0.8 Scattered Clouds/
08/07/2006 01:50      26.0  20.0  27.6  23.0  70  1013   ---   SSW    21    21   ---   0.7 Scattered Clouds/
08/07/2006 02:50      26.0  19.0  27.3  23.5  65  1013   ---    SW    16    16   ---   0.7 Scattered Clouds/
08/07/2006 03:50      24.0  23.0  27.5  20.8  94  1013   ---     W    16    16   ---   0.7 Few Clouds/
08/07/2006 04:50      24.0  23.0  27.5  21.5  94  1013   ---   WSW    13    13   ---   0.7 Few Clouds/
08/07/2006 05:50      24.0  22.0  27.0  23.2  89  1013   ---     S     6     6   ---   0.6 Few Clouds/
08/07/2006 06:50      24.0  21.0  26.6  23.2  83  1013   ---     S     6     6   ---   0.6 Few Clouds/
08/07/2006 07:50      25.0  22.0  27.6  25.0  83  1013   ---     N     5     5   ---   0.6 Few Clouds/
08/07/2006 08:20      26.0  21.0  27.9  25.4  74  1013   ---    SW     6     6   ---   0.6 Few Clouds/
08/07/2006 09:50      27.0  21.0  28.8  27.0  70  1014   ---     N     3     3   ---   0.6 Few Clouds/
08/07/2006 10:50      26.0  21.0  27.9  25.4  74  1014   ---   WNW     6     6   ---   0.6 Few Clouds/
08/07/2006 11:50      27.0  22.0  29.2  26.0  74  1014   ---    NW     8     8   ---   0.5 Few Clouds/
08/07/2006 12:50      27.0  21.0  28.8  24.7  70  1014   ---     N    18    18   ---   0.5 Scattered Clouds/
08/07/2006 13:50      28.0  21.0  30.1  26.2  66  1014   ---     N    16    16   ---   0.6 Scattered Clouds/
08/07/2006 14:50      28.0  20.0  29.7  26.2  62  1014   ---   NNE    16    16   ---   0.6 Scattered Clouds/
08/07/2006 15:50      27.0  20.0  28.5  24.9  66  1014   ---     N    16    16   ---   0.7 Scattered Clouds/
08/07/2006 17:00       0.0   0.0   4.0 -11.8 100   ---   ---     N   ---   ---   ---   --- /
08/07/2006 17:50      27.0  19.0  28.2  25.8  62  1014   ---     N    10    10   ---   0.7 Scattered Clouds/
08/07/2006 18:50      27.0  18.0  27.9  26.0  58  1014   ---     N     8     8   ---   0.7 Scattered Clouds/
08/07/2006 19:50      26.0  20.0  27.6  24.6  70  1014   ---     N    10    10   ---   0.7 Scattered Clouds/
08/07/2006 20:50      25.0  21.0  27.2  23.4  79  1014   ---   NNW    10    10   ---   0.6 Scattered Clouds/
08/07/2006 21:50      25.0  21.0  27.2  25.0  79  1014   ---     N     2     2   ---   0.6 Scattered Clouds/
08/07/2006 22:50      25.0  21.0  27.2  22.8  79  1015   ---     N    13    13   ---   0.6 Scattered Clouds/
08/07/2006 23:20      25.0  21.0  27.2  22.8  79  1015   ---     N    13    13   ---   0.6 Scattered Clouds/
09/07/2006 00:20      25.0  21.0  27.2  22.8  79  1015   ---     N    13    13   ---   0.6 Scattered Clouds/
09/07/2006 01:50      24.0  21.0  26.6  22.2  83  1015   ---     N    10    10   ---   0.6 Scattered Clouds/
09/07/2006 02:50      24.0  21.0  26.6  22.2  83  1015   ---   NNE    10    10   ---   0.6 Scattered Clouds/
09/07/2006 03:50      24.0  20.0  26.2  22.5  78  1015   ---    NE     8     8   ---   0.6 Scattered Clouds/
09/07/2006 04:50      24.0  21.0  26.6  24.0  83  1015   ---     N     5     5   ---   0.6 Scattered Clouds/
09/07/2006 05:50      24.0  21.0  26.6  24.0  83  1015   ---     N     5     5   ---   0.6 Scattered Clouds/
09/07/2006 06:50      24.0  21.0  26.6  22.5  83  1015   ---   NNE     8     8   ---   0.6 Scattered Clouds/
09/07/2006 07:50      26.0  20.0  27.6  25.4  70  1015   ---    NE     6     6   ---   0.6 Scattered Clouds/
09/07/2006 08:50      26.0  19.0  27.3  24.6  65  1016   ---   NNE    10    10   ---   0.6 Scattered Clouds/
09/07/2006 09:50      26.0  19.0  27.3  24.8  65  1016   ---     N     8     8   ---   0.6 Scattered Clouds/
09/07/2006 10:50      26.0  19.0  27.3  26.0  65  1016   ---     N     5     5   ---   0.7 Few Clouds/
09/07/2006 11:20      26.0  19.0  27.3  25.4  65  1016   ---   NNW     6     6   ---   0.7 Few Clouds/
09/07/2006 12:50      27.0  19.0  28.2  26.0  62  1017   ---     N     8     8   ---   0.7 Few Clouds/
09/07/2006 13:50      27.0  19.0  28.2  25.8  62  1017   ---     N    10    10   ---   0.6 Few Clouds/
09/07/2006 14:50      27.0  19.0  28.2  25.3  62  1017   ---     N    13    13   ---   0.7 Scattered Clouds/
09/07/2006 15:50      27.0  21.0  28.8  25.1  70  1017   ---     N    14    14   ---   0.7 Broken Clouds/
09/07/2006 16:50      27.0  21.0  28.8  24.9  70  1016   ---     N    16    16   ---   0.7 Broken Clouds/
09/07/2006 17:50      27.0  21.0  28.8  24.9  70  1017   ---     N    16    16   ---   0.7 Scattered Clouds/
09/07/2006 18:50      27.0  20.0  28.5  25.3  66  1016   ---     N    13    13   ---   0.7 Scattered Clouds/
09/07/2006 19:50      26.0  21.0  27.9  24.8  74  1016   ---     N     8     8   ---   0.6 Scattered Clouds/
09/07/2006 20:50      26.0  21.0  27.9  26.0  74  1016   ---     N     5     5   ---   0.6 Scattered Clouds/
09/07/2006 21:50      25.0  22.0  27.6  25.0  83  1017   ---     N     5     5   ---   0.6 Scattered Clouds/
09/07/2006 22:50      25.0  23.0  28.0  22.8  89  1017   ---   NNW    13    13   ---   0.6 Scattered Clouds/
09/07/2006 23:20      25.0  22.0  27.6  22.8  83  1017   ---     N    13    13   ---   0.5 Scattered Clouds/
10/07/2006 00:20      25.0  22.0  27.6  22.8  83  1017   ---     N    13    13   ---   0.5 Broken Clouds/
10/07/2006 01:50      25.0  23.0  28.0  21.6  89  1017   ---     N    21    21   ---   0.5 Scattered Clouds/
10/07/2006 02:50      25.0  22.0  27.6  22.1  83  1017   ---     N    16    16   ---   0.5 Scattered Clouds/
10/07/2006 03:50      25.0  22.0  27.6  22.0  83  1017   ---     N    18    18   ---   0.4 Scattered Clouds/
10/07/2006 04:50      25.0  22.0  27.6  22.5  83  1016   ---    NE    14    14   ---   0.5 Scattered Clouds/
10/07/2006 05:20      25.0  22.0  27.6  22.5  83  1016   ---   NNE    14    14   ---   0.5 Scattered Clouds/
10/07/2006 06:50      25.0  22.0  27.6  22.1  83  1016   ---   NNE    16    16   ---   0.5 Scattered Clouds/
10/07/2006 07:50      25.0  22.0  27.6  22.8  83  1017   ---    NE    13    13   ---   0.5 Scattered Clouds/
10/07/2006 08:20      26.0  22.0  28.3  23.8  79  1017   ---    NE    14    14   ---   0.5 Scattered Clouds/
10/07/2006 09:50      26.0  21.0  27.9  24.1  74  1017   ---   NNE    13    13   ---   0.4 Scattered Clouds/
10/07/2006 10:50      27.0  21.0  28.8  25.1  70  1017   ---   NNE    14    14   ---   0.4 Scattered Clouds/
10/07/2006 11:20      27.0  21.0  28.8  25.1  70  1017   ---   NNE    14    14   ---   0.6 Scattered Clouds/
10/07/2006 12:50      27.0  21.0  28.8  25.3  70  1018   ---   NNE    13    13   ---   0.6 Scattered Clouds/
10/07/2006 13:50      28.0  21.0  30.1  26.6  66  1018   ---   NNE    13    13   ---   0.6 Scattered Clouds/
10/07/2006 14:50      27.0  21.0  28.8  25.3  70  1018   ---   NNE    13    13   ---   0.6 Few Clouds/
10/07/2006 15:50      28.0  22.0  30.7  26.4  70  1017   ---   NNE    14    14   ---   0.6 Few Clouds/
10/07/2006 16:50      28.0  22.0  30.7  26.4  70  1017   ---   NNE    14    14   ---   0.6 Few Clouds/
10/07/2006 17:20      28.0  20.0  29.7  26.4  62  1017   ---   NNE    14    14   ---   0.6 Few Clouds/
10/07/2006 18:50      27.0  20.0  28.5  25.3  66  1017   ---    NE    13    13   ---   0.6 Few Clouds/
10/07/2006 19:50      27.0  20.0  28.5  25.3  66  1017   ---    NE    13    13   ---   0.6 Few Clouds/
10/07/2006 20:50      26.0  22.0  28.3  24.1  79  1017   ---   ENE    13    13   ---   0.6 Scattered Clouds/
10/07/2006 21:50      26.0  22.0  28.3  23.8  79  1017   ---   ENE    14    14   ---   0.6 Scattered Clouds/
10/07/2006 22:50      26.0  22.0  28.3  23.5  79  1018   ---   ENE    16    16   ---   0.6 Few Clouds/
10/07/2006 23:20      25.0  22.0  27.6  22.5  83  1018   ---   ENE    14    14   ---   0.6 Few Clouds/
11/07/2006 00:50      25.0  21.0  27.2  24.3  79  1018   ---     E     6     6   ---   0.6 Few Clouds/
11/07/2006 01:50      25.0  21.0  27.2  23.4  79  1018   ---     E    10    10   ---   0.6 Few Clouds/
11/07/2006 02:50      25.0  21.0  27.2  23.7  79  1018   ---     E     8     8   ---   0.6 Few Clouds/
11/07/2006 03:50      24.0  20.0  26.2  24.0  78  1017   ---     N     5     5   ---   0.6 Few Clouds/
11/07/2006 04:50      23.0  20.0  25.6  23.0  83  1018   ---     N     0     0   ---   0.6 Few Clouds/
11/07/2006 05:20      23.0  20.0  25.6  23.0  83  1018   ---   ---     0     0   ---   0.6 Few Clouds/
11/07/2006 06:50      23.0  20.0  25.6  23.0  83  1017   ---   ---     3     3   ---   --- /
11/07/2006 07:50      25.0  21.0  27.2  25.0  79  1017   ---     N     5     5   ---   --- /
11/07/2006 08:50      26.0  21.0  27.9  26.0  74  1018   ---     N     3     3   ---   --- /
11/07/2006 09:50      26.0  22.0  28.3  26.0  79  1018   ---     N     3     3   ---   --- /
11/07/2006 10:50      27.0  21.0  28.8  25.8  70  1018   ---     N    10    10   ---   --- /
11/07/2006 11:20      27.0  22.0  29.2  25.3  74  1018   ---     N    13    13   ---   0.7 Few Clouds/
11/07/2006 12:50      28.0  22.0  30.7  26.4  70  1018   ---     N    14    14   ---   0.7 Few Clouds/
11/07/2006 13:50      27.0  21.0  28.8  25.3  70  1017   ---     N    13    13   ---   0.7 Few Clouds/
11/07/2006 14:50      28.0  22.0  30.7  26.6  70  1017   ---     N    13    13   ---   0.7 Scattered Clouds/
11/07/2006 15:50      28.0  23.0  31.3  27.0  74  1017   ---     N    10    10   ---   0.7 Scattered Clouds/
11/07/2006 16:50      28.0  22.0  30.7  26.6  70  1017   ---   NNE    13    13   ---   0.6 Scattered Clouds/
11/07/2006 17:20      28.0  22.0  30.7  26.6  70  1017   ---     N    13    13   ---   0.6 Scattered Clouds/
11/07/2006 18:50      27.0  19.0  28.2  24.9  62  1017   ---    SW    16    16   ---   0.6 Few Clouds/
11/07/2006 19:50      27.0  21.0  28.8  26.0  70  1017   ---   NNE     8     8   ---   0.6 Few Clouds/
11/07/2006 20:50      26.0  21.0  27.9  25.4  74  1016   ---   NNE     6     6   ---   --- /
11/07/2006 21:50      26.0  21.0  27.9  23.8  74  1017   ---    NE    14    14   ---   --- /
11/07/2006 22:50      26.0  22.0  28.3  24.8  79  1017   ---     E     8     8   ---   --- /
11/07/2006 23:20      26.0  22.0  28.3  24.8  79  1017   ---     E     8     8   ---   --- /
12/07/2006 00:50      25.0  22.0  27.6  23.7  83  1017   ---   ENE     8     8   ---   --- /
12/07/2006 01:50      24.0  21.0  26.6  24.0  83  1017   ---     N     2     2   ---   --- /
12/07/2006 02:50      24.0  21.0  26.6  23.2  83  1016   ---   ENE     6     6   ---   --- /
12/07/2006 03:50      23.0  21.0  26.0  23.0  89  1017   ---     N     3     3   ---   --- /
12/07/2006 04:50      23.0  21.0  26.0  23.0  89  1016   ---     N     2     2   ---   --- /
12/07/2006 05:20      23.0  21.0  26.0  23.0  89  1016   ---     N     2     2   ---   --- /
12/07/2006 06:50      24.0  22.0  27.0  24.0  89  1016   ---     N     3     3   ---   --- /
12/07/2006 07:50      25.0  21.0  27.2  25.0  79  1016   ---     N     0     0   ---   --- /
12/07/2006 08:20      26.0  21.0  27.9  26.0  74  1016   ---   ---     3     3   ---   --- /
12/07/2006 09:50      26.0  22.0  28.3  25.4  79  1016   ---     W     6     6   ---   --- /
12/07/2006 10:50      28.0  23.0  31.3  28.0  74  1016   ---     N     5     5   ---   --- /
12/07/2006 11:20      27.0  23.0  29.6  26.4  79  1016   ---    NW     6     6   ---   --- /
12/07/2006 12:50      27.0  23.0  29.6  27.0  79  1016   ---     N     5     5   ---   --- /
12/07/2006 13:50      28.0  22.0  30.7  27.2  70  1016   ---     N     8     8   ---   --- /
12/07/2006 15:00       0.0   0.0   4.0  -5.5 100   ---   ---     N   ---   ---   ---   --- /
12/07/2006 15:50      29.0  22.0  32.0  28.3  66  1016   ---     N     8     8   ---   0.6 Few Clouds/
12/07/2006 16:50      27.0  21.0  28.8  25.8  70  1016   ---     N    10    10   ---   0.6 Few Clouds/
12/07/2006 17:20      28.0  21.0  30.1  27.2  66  1015   ---     N     8     8   ---   0.6 Few Clouds/
12/07/2006 18:50      27.0  22.0  29.2  26.4  74  1015   ---     N     6     6   ---   0.6 Few Clouds/
12/07/2006 19:50      27.0  22.0  29.2  27.0  74  1015   ---     N     5     5   ---   --- /
12/07/2006 20:50      26.0  22.0  28.3  25.4  79  1015   ---     N     6     6   ---   --- /
12/07/2006 21:50      26.0  24.0  29.0  26.0  89  1015   ---     N     0     0   ---   --- /
12/07/2006 22:50      25.0  23.0  28.0  25.0  89  1016   ---   ---     2     2   ---   --- /
12/07/2006 23:20      25.0  24.0  28.5  25.0  94  1016   ---     N     3     3   ---   --- /
13/07/2006 00:50      25.0  23.0  28.0  25.0  89  1016   ---     N     5     5   ---   --- /
13/07/2006 01:50      24.0  22.0  27.0  24.0  89  1016   ---     N     5     5   ---   --- /
13/07/2006 02:50      24.0  23.0  27.5  22.5  94  1015   ---     S     8     8   ---   --- /
13/07/2006 03:50      24.0  23.0  27.5  23.2  94  1015   ---     S     6     6   ---   --- /
13/07/2006 04:50      24.0  22.0  27.0  24.0  89  1015   ---     N     3     3   ---   --- /
13/07/2006 05:20      24.0  18.0  25.6  24.0  69  1015   ---     N     2     2   ---   --- /
13/07/2006 06:50      24.0  22.0  27.0  24.0  89  1014   ---     N     3     3   ---   --- /
13/07/2006 07:50      25.0  22.0  27.6  25.0  83  1015   ---     N     2     2   ---   --- /
13/07/2006 09:20      26.0  22.0  28.3  24.8  79  1015   ---     W     8     8   ---   0.3 Few Clouds/
13/07/2006 10:50      27.0  23.0  29.6  26.4  79  1016   ---     W     6     6   ---   0.3 Few Clouds/
13/07/2006 11:20      27.0  22.0  29.2  26.0  74  1016   ---   WNW     8     8   ---   0.3 Few Clouds/
13/07/2006 12:50      27.0  23.0  29.6  26.0  79  1016   ---     N     8     8   ---   0.4 Few Clouds/
13/07/2006 13:50      28.0  24.0  31.9  26.6  79  1016   ---     N    13    13   ---   0.4 Few Clouds/
13/07/2006 14:50      28.0  23.0  31.3  27.0  74  1016   ---     N    10    10   ---   0.4 Few Clouds/
13/07/2006 15:50      28.0  23.0  31.3  27.0  74  1016   ---   NNE    10    10   ---   0.4 Few Clouds/
13/07/2006 16:50      28.0  23.0  31.3  27.0  74  1015   ---   NNE    10    10   ---   0.4 Few Clouds/
13/07/2006 17:50      27.0  23.0  29.6  25.1  79  1015   ---   NNE    14    14   ---   0.4 Few Clouds/
13/07/2006 18:50      27.0  23.0  29.6  24.9  79  1015   ---   NNE    16    16   ---   0.4 Few Clouds/
13/07/2006 19:20      27.0  23.0  29.6  24.9  79  1015   ---    NE    16    16   ---   0.4 Few Clouds/
13/07/2006 20:50      26.0  23.0  28.6  24.1  84  1014   ---    NE    13    13   ---   0.4 Few Clouds/
13/07/2006 21:50      26.0  23.0  28.6  24.1  84  1015   ---   ENE    13    13   ---   --- Clear/
13/07/2006 22:50      26.0  23.0  28.6  26.0  84  1016   ---     N     2     2   ---   --- Clear/
13/07/2006 23:50      25.0  23.0  28.0  25.0  89  1015   ---     N     5     5   ---   --- Clear/
14/07/2006 00:50      24.0  23.0  27.5  24.0  94  1016   ---     N     3     3   ---   --- Clear/
14/07/2006 01:50      24.0  23.0  27.5  24.0  94  1015   ---     N     0     0   ---   --- Clear/
14/07/2006 02:50      24.0  22.0  27.0  24.0  89  1015   ---   ---     2     2   ---   --- Clear/
14/07/2006 03:50      24.0  23.0  27.5  24.0  94  1016   ---     N     3     3   ---   --- /
14/07/2006 04:50      24.0  21.0  26.6  24.0  83  1015   ---     N     0     0   ---   --- /
14/07/2006 05:50      24.0  20.0  26.2  24.0  78  1015   ---   ---     0     0   ---   --- /
14/07/2006 06:50      23.0  21.0  26.0  23.0  89  1015   ---   ---     2     2   ---   --- /
14/07/2006 07:50      26.0  20.0  27.6  26.0  70  1016   ---     N     0     0   ---   --- /
14/07/2006 08:50      27.0  18.0  27.9  27.0  58  1016   ---   ---     3     3   ---   --- /
14/07/2006 09:50      27.0  20.0  28.5  26.4  66  1016   ---     W     6     6   ---   --- /
14/07/2006 11:00       0.0   0.0   4.0  -3.0 100   ---   ---     W   ---   ---   ---   --- /
14/07/2006 11:50      27.0  23.0  29.6  26.0  79  1016   ---     N     8     8   ---   --- /
14/07/2006 12:50      27.0  23.0  29.6  25.8  79  1017   ---     N    10    10   ---   --- /
14/07/2006 13:50      28.0  23.0  31.3  27.2  74  1017   ---     N     8     8   ---   0.8 Few Clouds/
14/07/2006 14:50      28.0  23.0  31.3  26.6  74  1016   ---   NNE    13    13   ---   0.6 Few Clouds/
14/07/2006 15:50      28.0  23.0  31.3  26.2  74  1016   ---   NNE    16    16   ---   0.6 Few Clouds/
14/07/2006 16:50      28.0  22.0  30.7  26.1  70  1016   ---   NNE    18    18   ---   0.6 Few Clouds/
14/07/2006 17:50      28.0  21.0  30.1  26.2  66  1016   ---    NE    16    16   ---   0.6 Few Clouds/
14/07/2006 18:50      28.0  21.0  30.1  26.2  66  1015   ---    NE    16    16   ---   0.6 Few Clouds/
14/07/2006 19:50      27.0  22.0  29.2  25.1  74  1015   ---    NE    14    14   ---   --- /
14/07/2006 20:50      27.0  22.0  29.2  25.8  74  1015   ---   ENE    10    10   ---   --- /
14/07/2006 21:50      26.0  22.0  28.3  24.6  79  1015   ---   ENE    10    10   ---   --- /
14/07/2006 22:50      26.0  20.0  27.6  26.0  70  1016   ---     N     3     3   ---   --- /
14/07/2006 23:50      26.0  21.0  27.9  26.0  74  1016   ---     N     3     3   ---   --- /
15/07/2006 00:50      25.0  20.0  26.9  25.0  74  1016   ---     N     2     2   ---   --- /
15/07/2006 01:50      24.0  21.0  26.6  24.0  83  1016   ---     N     0     0   ---   --- /
15/07/2006 02:50      24.0  22.0  27.0  24.0  89  1015   ---   ---     3     3   ---   --- /
15/07/2006 03:50      25.0  21.0  27.2  24.3  79  1016   ---     E     6     6   ---   --- /
15/07/2006 04:50      24.0  20.0  26.2  24.0  78  1016   ---     N     0     0   ---   --- /
15/07/2006 05:50      24.0  22.0  27.0  24.0  89  1016   ---   ---     5     5   ---   --- /
15/07/2006 06:50      24.0  21.0  26.6  24.0  83  1016   ---     N     3     3   ---   --- /
15/07/2006 07:50      26.0  20.0  27.6  26.0  70  1016   ---     N     2     2   ---   --- /
15/07/2006 08:20      27.0  20.0  28.5  27.0  66  1016   ---     N     2     2   ---   --- /
15/07/2006 09:50      28.0  20.0  29.7  27.2  62  1017   ---   NNE     8     8   ---   --- /
15/07/2006 10:50      27.0  22.0  29.2  24.3  74  1017   ---    NE    23    23   ---   --- /
15/07/2006 11:50      28.0  21.0  30.1  25.9  66  1017   ---    NE    19    19   ---   --- /
15/07/2006 12:20      29.0  21.0  31.4  27.4  62  1017   ---    NE    19    19   ---   --- /
15/07/2006 13:20      28.0  21.0  30.1  25.8  66  1017   ---    NE    23    23   ---   --- /
15/07/2006 14:50      29.0  22.0  32.0  27.0  66  1016   ---   ENE    27    27   ---   --- /
15/07/2006 15:50      29.0  22.0  32.0  27.0  66  1017   ---    NE    27    27   ---   --- /
15/07/2006 16:50      29.0  21.0  31.4  27.0  62  1016   ---    NE    27    27   ---   --- /
15/07/2006 17:50      28.0  22.0  30.7  25.5  70  1016   ---   ENE    29    29   ---   --- /
15/07/2006 18:50      28.0  23.0  31.3  25.5  74  1015   ---   ENE    27    27   ---   --- /
15/07/2006 19:50      27.0  23.0  29.6  24.0  79  1015   ---   ENE    29    29   ---   --- /
15/07/2006 20:50      27.0  24.0  30.1  24.3  84  1015   ---   ENE    23    23   ---   --- /
15/07/2006 21:50      27.0  23.0  29.6  24.4  79  1016   ---   ENE    21    21   ---   --- /
15/07/2006 22:50      27.0  22.0  29.2  24.5  74  1016   ---   ENE    19    19   ---   --- /
15/07/2006 23:50      26.0  23.0  28.6  23.4  84  1016   ---   ENE    18    18   ---   --- /
16/07/2006 00:50      26.0  21.0  27.9  23.8  74  1016   ---   ENE    14    14   ---   --- /
16/07/2006 01:50      26.0  20.0  27.6  25.4  70  1016   ---   ESE     6     6   ---   --- /
16/07/2006 02:50      26.0  20.0  27.6  26.0  70  1016   ---     N     5     5   ---   --- /
16/07/2006 03:50      25.0  20.0  26.9  25.0  74  1016   ---     N     2     2   ---   --- /
16/07/2006 04:50      24.0  20.0  26.2  24.0  78  1016   ---     N     2     2   ---   --- /
16/07/2006 05:50      24.0  20.0  26.2  24.0  78  1016   ---     N     3     3   ---   --- /
16/07/2006 06:50      25.0  19.0  26.6  25.0  69  1016   ---     N     5     5   ---   --- /
16/07/2006 07:50      26.0  21.0  27.9  24.6  74  1016   ---     W    10    10   ---   --- /
16/07/2006 08:20      27.0  21.0  28.8  27.0  70  1016   ---     N     0     0   ---   --- /
16/07/2006 09:50      28.0  22.0  30.7  25.9  70  1016   ---   ENE    19    19   ---   --- /
16/07/2006 10:50      29.0  23.0  32.8  27.2  70  1016   ---    NE    23    23   ---   --- /
16/07/2006 11:50      28.0  23.0  31.3  25.9  74  1016   ---    NE    21    21   ---   --- /
16/07/2006 12:50      28.0  23.0  31.3  25.6  74  1016   ---    NE    26    26   ---   --- /
16/07/2006 13:50      29.0  24.0  33.6  27.1  75  1016   ---    NE    26    26   ---   0.7 Few Clouds/
16/07/2006 14:50      29.0  23.0  32.8  27.2  70  1016   ---    NE    23    23   ---   0.7 Few Clouds/
16/07/2006 15:50      29.0  23.0  32.8  27.1  70  1015   ---   ENE    26    26   ---   0.7 Few Clouds/
16/07/2006 16:50      29.0  24.0  33.6  27.0  75  1016   ---   ENE    29    29   ---   0.7 Few Clouds/
16/07/2006 17:50      29.0  24.0  33.6  27.0  75  1015   ---   ENE    27    27   ---   --- /
16/07/2006 18:50      28.0  24.0  31.9  25.5  79  1015   ---   ENE    27    27   ---   --- /
16/07/2006 19:50      28.0  24.0  31.9  25.6  79  1015   ---   ENE    26    26   ---   --- /
16/07/2006 20:50      27.0  23.0  29.6  24.3  79  1015   ---   ENE    23    23   ---   --- /
16/07/2006 21:50      27.0  23.0  29.6  24.7  79  1016   ---   ENE    18    18   ---   --- /
16/07/2006 22:50      27.0  23.0  29.6  24.7  79  1016   ---   ENE    18    18   ---   --- /
16/07/2006 23:50      27.0  22.0  29.2  26.4  74  1016   ---    SW     6     6   ---   --- /
17/07/2006 00:50      26.0  23.0  28.6  26.0  84  1017   ---     N     0     0   ---   --- /
17/07/2006 01:50      25.0  23.0  28.0  25.0  89  1016   ---   ---     0     0   ---   --- /
17/07/2006 02:50      25.0  22.0  27.6  23.7  83  1016   ---     E     8     8   ---   --- /
17/07/2006 03:50      26.0  22.0  28.3  23.8  79  1016   ---   ENE    14    14   ---   --- /
17/07/2006 05:00       0.0   0.0   4.0 -10.5 100   ---   ---   ENE   ---   ---   ---   --- /
17/07/2006 05:50      26.0  23.0  28.6  23.5  84  1016   ---     E    16    16   ---   0.7 Few Clouds/
17/07/2006 06:50      26.0  22.0  28.3  23.8  79  1017   ---   ENE    14    14   ---   --- /
17/07/2006 07:50      27.0  22.0  29.2  25.3  74  1017   ---   ENE    13    13   ---   --- /
17/07/2006 08:50      28.0  21.0  30.1  27.0  66  1017   ---    NE    10    10   ---   --- /
17/07/2006 09:50      29.0  20.0  30.8  27.7  58  1017   ---    NE    14    14   ---   --- /
17/07/2006 10:50      30.0  19.0  31.3  29.0  52  1017   ---   NNE    14    14   ---   --- /
17/07/2006 11:50      28.0  21.0  30.1  26.6  66  1017   ---   NNE    13    13   ---   0.7 Few Clouds/
17/07/2006 12:50      29.0  22.0  32.0  27.7  66  1017   ---   NNE    14    14   ---   0.7 Few Clouds/
17/07/2006 13:50      29.0  22.0  32.0  27.5  66  1017   ---    NE    18    18   ---   0.7 Few Clouds/
17/07/2006 14:50      29.0  22.0  32.0  27.3  66  1017   ---    NE    21    21   ---   0.7 Few Clouds/
17/07/2006 16:00       0.0   0.0   4.0 -14.2 100   ---   ---    NE   ---   ---   ---   --- /
17/07/2006 16:50      29.0  20.0  30.8  27.2  58  1017   ---   ENE    23    23   ---   --- /
17/07/2006 17:50      29.0  21.0  31.4  27.2  62  1016   ---   ENE    23    23   ---   --- /
17/07/2006 17:50      29.0  21.0  31.4  27.2  62  1016   ---   ENE    23    23   ---   --- None reported/None reported
17/07/2006 17:50      29.0  21.0  31.4  27.2  62  1016   ---   ENE    23    23   ---   --- None reported/None reported
17/07/2006 20:50      27.0  19.0  28.2  24.9  62  1016   ---    NE    16    16   ---   --- /
17/07/2006 21:50      27.0  18.0  27.9  24.9  58  1016   ---   ENE    16    16   ---   --- /
17/07/2006 22:50      26.0  17.0  26.9  23.8  58  1017   ---   ENE    14    14   ---   --- /
17/07/2006 23:20      26.0  16.0  26.7  23.5  54  1016   ---   ENE    16    16   ---   --- /
18/07/2006 00:50      25.0  17.0  26.1  22.8  61  1016   ---   ENE    13    13   ---   --- /
18/07/2006 01:50      25.0  17.0  26.1  22.5  61  1016   ---   ENE    14    14   ---   --- /
18/07/2006 02:50      25.0  17.0  26.1  23.4  61  1016   ---     E    10    10   ---   --- /
18/07/2006 03:50      26.0  17.0  26.9  23.8  58  1016   ---   ENE    14    14   ---   --- /
18/07/2006 04:50      25.0  18.0  26.3  22.5  65  1016   ---     E    14    14   ---   --- /
18/07/2006 05:50      25.0  19.0  26.6  22.5  69  1016   ---   ENE    14    14   ---   0.7 Few Clouds/
18/07/2006 06:50      25.0  18.0  26.3  22.1  65  1016   ---   ENE    16    16   ---   0.7 Few Clouds/
18/07/2006 07:50      27.0  18.0  27.9  25.8  58  1016   ---     E    10    10   ---   --- /
18/07/2006 08:20      27.0  17.0  27.7  25.3  54  1017   ---   ENE    13    13   ---   --- /
18/07/2006 09:50      28.0  17.0  28.6  26.2  51  1017   ---   NNE    16    16   ---   --- /
18/07/2006 11:00       0.0   0.0   4.0 -11.8 100   ---   ---   NNE   ---   ---   ---   --- /
18/07/2006 11:50      29.0  16.0  29.1  27.6  45  1017   ---    NE    16    16   ---   --- /
18/07/2006 13:00       0.0   0.0   4.0 -11.8 100   ---   ---    NE   ---   ---   ---   --- /
18/07/2006 13:50      30.0  16.0  30.0  28.7  43  1018   ---    NE    21    21   ---   --- /
18/07/2006 14:50      30.0  17.0  30.4  28.7  46  1018   ---    NE    21    21   ---   --- /
18/07/2006 15:50      30.0  17.0  30.4  28.7  46  1018   ---    NE    21    21   ---   --- /
18/07/2006 16:50      29.0  16.0  29.1  27.3  45  1018   ---   NNE    21    21   ---   --- /
18/07/2006 17:50      29.0  17.0  29.5  27.5  48  1018   ---    NE    18    18   ---   --- /
18/07/2006 18:50      28.0  17.0  28.6  26.1  51  1018   ---    NE    18    18   ---   --- /
18/07/2006 19:50      27.0  17.0  27.7  25.1  54  1018   ---    NE    14    14   ---   --- /
18/07/2006 20:50      26.0  18.0  27.1  24.1  61  1018   ---   ENE    13    13   ---   --- /
18/07/2006 21:50      25.0  18.0  26.3  22.5  65  1018   ---     E    14    14   ---   --- /
18/07/2006 22:50      25.0  17.0  26.1  22.1  61  1019   ---   ENE    16    16   ---   --- /
18/07/2006 23:50      25.0  16.0  25.9  22.8  57  1018   ---   ENE    13    13   ---   --- /
19/07/2006 00:50      25.0  15.0  25.7  25.0  54  1018   ---     N     5     5   ---   --- /
19/07/2006 01:50      23.0  14.0  23.8  23.0  57  1018   ---     N     3     3   ---   --- /
19/07/2006 02:50      22.0  15.0  23.3  22.0  65  1019   ---     N     0     0   ---   --- /
19/07/2006 03:50      22.0  16.0  23.6  22.0  69  1018   ---   ---     2     2   ---   --- /
19/07/2006 04:50      21.0  16.0  22.9  21.0  73  1018   ---     N     5     5   ---   --- /
19/07/2006 05:50      22.0  16.0  23.6  22.0  69  1019   ---     N     2     2   ---   --- /
19/07/2006 06:50      22.0  16.0  23.6  22.0  69  1019   ---     N     0     0   ---   --- /
19/07/2006 07:50      24.0  17.0  25.3  24.0  65  1019   ---   ---     3     3   ---   --- /
19/07/2006 09:50      26.0  19.0  27.3  26.0  65  1020   ---     N     5     5   ---   --- /
19/07/2006 10:50      28.0  19.0  29.3  27.2  58  1020   ---     N     8     8   ---   --- /
19/07/2006 11:50      28.0  19.0  29.3  26.6  58  1020   ---   NNE    13    13   ---   --- /
19/07/2006 12:50      28.0  18.0  28.9  26.1  55  1020   ---   NNE    18    18   ---   --- /
19/07/2006 13:50      29.0  18.0  29.9  27.4  52  1019   ---   NNE    19    19   ---   --- /
19/07/2006 14:50      29.0  18.0  29.9  27.1  52  1019   ---    NE    26    26   ---   --- /
19/07/2006 15:50      29.0  17.0  29.5  27.3  48  1019   ---    NE    21    21   ---   --- /
19/07/2006 16:50      29.0  18.0  29.9  27.2  52  1019   ---    NE    23    23   ---   --- /
19/07/2006 17:50      29.0  18.0  29.9  27.3  52  1019   ---    NE    21    21   ---   --- /
19/07/2006 18:50      28.0  18.0  28.9  25.9  55  1019   ---    NE    19    19   ---   --- /
19/07/2006 19:50      27.0  20.0  28.5  24.7  66  1019   ---    NE    18    18   ---   --- /
19/07/2006 20:50      26.0  20.0  27.6  23.5  70  1018   ---   ENE    16    16   ---   --- /
19/07/2006 21:50      26.0  19.0  27.3  24.8  65  1019   ---     E     8     8   ---   --- /
19/07/2006 22:50      26.0  19.0  27.3  25.4  65  1019   ---     E     6     6   ---   --- /
19/07/2006 23:20      25.0  19.0  26.6  24.3  69  1019   ---     E     6     6   ---   --- /
20/07/2006 00:50      25.0  19.0  26.6  25.0  69  1019   ---     N     5     5   ---   --- /
20/07/2006 01:50      25.0  19.0  26.6  25.0  69  1019   ---     N     0     0   ---   --- /
20/07/2006 02:50      23.0  18.0  24.9  23.0  73  1018   ---   ---     0     0   ---   --- /
20/07/2006 03:50      22.0  19.0  24.6  22.0  83  1018   ---   ---     0     0   ---   --- /
20/07/2006 04:50      22.0  19.0  24.6  22.0  83  1019   ---   ---     0     0   ---   --- /
20/07/2006 05:50      22.0  20.0  25.0  22.0  88  1018   ---   ---     0     0   ---   --- /
20/07/2006 06:50      22.0  20.0  25.0  22.0  88  1019   ---   ---     2     2   ---   --- /
20/07/2006 07:50      24.0  20.0  26.2  24.0  78  1019   ---     N     2     2   ---   --- /
20/07/2006 08:20      25.0  19.0  26.6  25.0  69  1019   ---     N     3     3   ---   --- /
20/07/2006 09:20      26.0  18.0  27.1  25.4  61  1019   ---     W     6     6   ---   --- /
20/07/2006 10:50      27.0  20.0  28.5  27.0  66  1019   ---     N     5     5   ---   --- /
20/07/2006 11:50      28.0  21.0  30.1  26.6  66  1019   ---   NNE    13    13   ---   --- /
20/07/2006 12:50      28.0  21.0  30.1  26.4  66  1019   ---   NNE    14    14   ---   --- /
20/07/2006 13:20      28.0  20.0  29.7  26.6  62  1019   ---   NNE    13    13   ---   --- /
20/07/2006 14:50      29.0  20.0  30.8  27.7  58  1019   ---   NNE    14    14   ---   --- /
20/07/2006 16:50      28.0  22.0  30.7  26.2  70  1018   ---   NNE    16    16   ---   0.7 Broken Clouds/
20/07/2006 17:20      28.0  22.0  30.7  26.2  70  1018   ---   NNE    16    16   ---   0.7 Scattered Clouds/
20/07/2006 18:20      28.0  22.0  30.7  26.2  70  1018   ---   NNE    16    16   ---   0.7 Scattered Clouds/
20/07/2006 19:50      28.0  20.0  29.7  26.1  62  1018   ---    NE    18    18   ---   0.7 Few Clouds/
20/07/2006 21:00       0.0   0.0   4.0 -12.4 100   ---   ---    NE   ---   ---   ---   --- /
20/07/2006 22:00       0.0   0.0   4.0 -12.4 100   ---   ---    NE   ---   ---   ---   --- /
20/07/2006 23:00       0.0   0.0   4.0 -12.4 100   ---   ---    NE   ---   ---   ---   --- /
20/07/2006 22:50      25.0  23.0  28.0  22.8  89  1019   ---    NE    13    13   ---   0.6 Few Clouds/
21/07/2006 01:00       0.0   0.0   4.0  -9.2 100   ---   ---    NE   ---   ---   ---   --- /
21/07/2006 02:00       0.0   0.0   4.0  -9.2 100   ---   ---    NE   ---   ---   ---   --- /
21/07/2006 03:00       0.0   0.0   4.0  -9.2 100   ---   ---    NE   ---   ---   ---   --- /
21/07/2006 03:50      23.0  21.0  26.0  23.0  89  1018   ---     N     0     0   ---   0.6 Few Clouds/
21/07/2006 04:50      22.0  20.0  25.0  22.0  88  1018   ---   ---     2     2   ---   0.6 Few Clouds/
21/07/2006 05:20      23.0  19.0  25.2  23.0  78  1018   ---     N     3     3   ---   --- /
21/07/2006 06:50      23.0  19.0  25.2  23.0  78  1018   ---     N     3     3   ---   --- /
21/07/2006 07:50      25.0  20.0  26.9  25.0  74  1018   ---     N     0     0   ---   --- /
21/07/2006 09:20      27.0  22.0  29.2  27.0  74  1019   ---   ---     5     5   ---   --- /
21/07/2006 10:50      27.0  23.0  29.6  27.0  79  1019   ---     N     5     5   ---   --- /
21/07/2006 11:20      27.0  24.0  30.1  27.0  84  1019   ---     N     5     5   ---   --- /
21/07/2006 12:50      28.0  23.0  31.3  27.2  74  1019   ---     N     8     8   ---   --- /
21/07/2006 13:50      28.0  24.0  31.9  27.2  79  1018   ---     N     8     8   ---   --- /
21/07/2006 14:50      29.0  24.0  33.6  27.9  75  1018   ---     N    13    13   ---   --- /
21/07/2006 15:50      28.0  23.0  31.3  27.0  74  1018   ---   NNE    10    10   ---   0.5 Few Clouds/
21/07/2006 16:50      28.0  23.0  31.3  27.0  74  1018   ---   NNE    10    10   ---   --- /
21/07/2006 17:20      29.0  24.0  33.6  28.2  75  1018   ---   NNE    10    10   ---   --- /
21/07/2006 18:50      28.0  23.0  31.3  27.2  74  1017   ---   NNE     8     8   ---   --- /
21/07/2006 19:50      27.0  23.0  29.6  26.4  79  1017   ---   NNE     6     6   ---   0.7 Few Clouds/
21/07/2006 20:50      27.0  24.0  30.1  26.4  84  1017   ---    NE     6     6   ---   0.7 Few Clouds/
21/07/2006 21:50      26.0  24.0  29.0  24.8  89  1017   ---    NE     8     8   ---   0.7 Few Clouds/
21/07/2006 22:50      25.0  23.0  28.0  23.7  89  1017   ---   NNE     8     8   ---   0.7 Few Clouds/
21/07/2006 23:20      25.0  23.0  28.0  25.0  89  1017   ---     N     2     2   ---   0.7 Few Clouds/
22/07/2006 00:50      25.0  24.0  28.5  24.3  94  1017   ---     E     6     6   ---   0.7 Few Clouds/
22/07/2006 01:50      25.0  24.0  28.5  23.7  94  1017   ---   ENE     8     8   ---   0.7 Few Clouds/
22/07/2006 02:50      25.0  24.0  28.5  23.7  94  1016   ---   ENE     8     8   ---   0.7 Few Clouds/
22/07/2006 03:50      24.0  23.0  27.5  24.0  94  1016   ---     N     0     0   ---   0.7 Few Clouds/
22/07/2006 04:50      24.0  23.0  27.5  24.0  94  1016   ---   ---     3     3   ---   --- /
22/07/2006 05:20      24.0  23.0  27.5  24.0  94  1017   ---     N     2     2   ---   --- /
22/07/2006 06:50      24.0  23.0  27.5  24.0  94  1016   ---     N     5     5   ---   --- /
22/07/2006 07:50      26.0  23.0  28.6  26.0  84  1016   ---     N     3     3   ---   0.3 Broken Clouds/
22/07/2006 08:50      27.0  24.0  30.1  27.0  84  1016   ---     N     2     2   ---   0.3 Few Clouds/
22/07/2006 09:50      27.0  24.0  30.1  27.0  84  1016   ---     N     3     3   ---   0.3 Few Clouds/
22/07/2006 10:50      28.0  24.0  31.9  28.0  79  1016   ---     N     5     5   ---   --- /
22/07/2006 11:20      27.0  23.0  29.6  27.0  79  1016   ---     N     5     5   ---   --- /
22/07/2006 12:50      29.0  24.0  33.6  28.6  75  1016   ---     N     6     6   ---   --- /
22/07/2006 13:50      29.0  23.0  32.8  27.9  70  1016   ---   NNE    13    13   ---   --- /
22/07/2006 14:50      28.0  23.0  31.3  26.1  74  1016   ---   NNE    18    18   ---   --- /
22/07/2006 15:50      30.0  25.0  36.2  28.9  75  1016   ---   NNE    16    16   ---   --- /
22/07/2006 16:50      29.0  24.0  33.6  27.6  75  1016   ---   NNE    16    16   ---   --- /
22/07/2006 17:50      29.0  24.0  33.6  27.7  75  1016   ---   NNE    14    14   ---   --- /
22/07/2006 18:50      29.0  23.0  32.8  27.6  70  1015   ---   NNE    16    16   ---   --- /
22/07/2006 19:50      28.0  24.0  31.9  26.2  79  1015   ---   NNE    16    16   ---   --- /
22/07/2006 20:50      26.0  25.0  29.5  23.8  94  1015   ---    NE    14    14   ---   --- /
22/07/2006 21:50      26.0  25.0  29.5  23.8  94  1015   ---    NE    14    14   ---   --- /
22/07/2006 22:50      26.0  25.0  29.5  24.1  94  1015   ---    NE    13    13   ---   --- /
22/07/2006 23:50      25.0  25.0  29.0  24.3 100  1015   ---     E     6     6   ---   --- /
23/07/2006 00:50      25.0  24.0  28.5  25.0  94  1016   ---     N     5     5   ---   --- /
23/07/2006 01:50      25.0  24.0  28.5  25.0  94  1016   ---     N     0     0   ---   --- /
23/07/2006 02:50      24.0  23.0  27.5  24.0  94  1015   ---   ---     0     0   ---   --- /
23/07/2006 03:50      23.0  23.0  27.0  23.0 100  1015   ---   ---     2     2   ---   --- /
23/07/2006 04:50      23.0  23.0  27.0  23.0 100  1015   ---     N     0     0   ---   --- /
23/07/2006 05:20      24.0  23.0  27.5  24.0  94  1015   ---   ---     0     0   ---   --- /
23/07/2006 06:50      24.0  23.0  27.5  24.0  94  1015   ---   ---     3     3   ---   0.6 Few Clouds/
23/07/2006 07:50      25.0  23.0  28.0  25.0  89  1015   ---     N     2     2   ---   --- /
23/07/2006 08:50      27.0  23.0  29.6  27.0  79  1015   ---     N     2     2   ---   --- /
23/07/2006 09:50      27.0  23.0  29.6  26.4  79  1015   ---     N     6     6   ---   --- /
23/07/2006 10:50      28.0  23.0  31.3  26.6  74  1015   ---   NNE    13    13   ---   --- /
23/07/2006 11:20      29.0  23.0  32.8  27.6  70  1015   ---   NNE    16    16   ---   --- /
23/07/2006 12:50      30.0  18.0  30.8  28.9  49  1015   ---   NNE    18    18   ---   --- /
23/07/2006 13:50      30.0  21.0  32.6  28.8  59  1015   ---   NNE    19    19   ---   --- /
23/07/2006 14:50      30.0  22.0  33.3  28.9  62  1015   ---   NNE    18    18   ---   --- /
23/07/2006 15:50      30.0  22.0  33.3  28.8  62  1015   ---   NNE    19    19   ---   --- /
23/07/2006 16:50      30.0  21.0  32.6  28.8  59  1015   ---    NE    19    19   ---   --- /
23/07/2006 17:50      30.0  22.0  33.3  28.8  62  1015   ---    NE    19    19   ---   --- /
23/07/2006 18:20      29.0  22.0  32.0  27.4  66  1015   ---    NE    19    19   ---   --- /
23/07/2006 19:50      28.0  22.0  30.7  25.9  70  1015   ---   ENE    21    21   ---   --- /
23/07/2006 20:50      27.0  23.0  29.6  24.7  79  1015   ---    NE    18    18   ---   --- /
23/07/2006 21:50      27.0  23.0  29.6  24.9  79  1015   ---   ENE    16    16   ---   --- /
23/07/2006 22:50      26.0  22.0  28.3  25.4  79  1015   ---     S     6     6   ---   --- /
23/07/2006 23:50      26.0  22.0  28.3  26.0  79  1015   ---     N     0     0   ---   --- /
24/07/2006 00:50      25.0  22.0  27.6  25.0  83  1015   ---   ---     0     0   ---   --- /
24/07/2006 01:50      24.0  21.0  26.6  24.0  83  1015   ---   ---     0     0   ---   --- /
24/07/2006 02:50      25.0  18.0  26.3  25.0  65  1014   ---   ---     0     0   ---   --- /
24/07/2006 03:50      24.0  16.0  25.1  24.0  61  1014   ---   ---     0     0   ---   --- /
24/07/2006 05:00       0.0   0.0   4.0   0.0 100   ---   ---   ---   ---   ---   ---   --- /
24/07/2006 05:20      24.0  19.0  25.9  24.0  74  1014   ---   ---     0     0   ---   --- /
24/07/2006 06:50      24.0  20.0  26.2  24.0  78  1014   ---   ---     2     2   ---   --- /
24/07/2006 07:50      27.0  20.0  28.5  27.0  66  1014   ---     N     0     0   ---   --- /
24/07/2006 08:50      28.0  21.0  30.1  28.0  66  1014   ---   ---     2     2   ---   --- /
24/07/2006 09:20      28.0  20.0  29.7  28.0  62  1014   ---     N     5     5   ---   --- /
24/07/2006 10:50      29.0  19.0  30.3  29.0  55  1014   ---     N     3     3   ---   0.7 Few Clouds/
24/07/2006 11:20      29.0  19.0  30.3  29.0  55  1015   ---     N     5     5   ---   0.7 Few Clouds/
24/07/2006 12:50      32.0  19.0  33.5  31.7  46  1015   ---   NNE    13    13   ---   0.7 Few Clouds/
24/07/2006 13:50      32.0  21.0  34.9  31.6  52  1015   ---   ENE    19    19   ---   0.7 Few Clouds/
24/07/2006 14:50      30.0  22.0  33.3  28.7  62  1014   ---   ENE    21    21   ---   --- /
24/07/2006 15:50      31.0  23.0  35.5  30.0  63  1014   ---   ENE    27    27   ---   --- /
24/07/2006 16:50      29.0  23.0  32.8  27.0  70  1013   ---   ENE    29    29   ---   --- /
24/07/2006 17:50      31.0  22.0  34.6  30.0  59  1013   ---    NE    26    26   ---   --- /
24/07/2006 18:50      30.0  20.0  31.9  28.9  55  1013   ---   ENE    16    16   ---   --- /
24/07/2006 20:50      27.0  24.0  30.1  25.3  84  1014   ---   ENE    13    13   ---   --- /
24/07/2006 21:50      28.0  24.0  31.9  27.0  79  1015   ---     E    10    10   ---   --- /
24/07/2006 22:50      27.0  24.0  30.1  25.8  84  1014   ---    SE    10    10   ---   --- /
24/07/2006 23:50      26.0  24.0  29.0  26.0  89  1015   ---     N     5     5   ---   --- /
25/07/2006 00:20      26.0  24.0  29.0  26.0  89  1015   ---     N     3     3   ---   --- /
25/07/2006 01:20      26.0  24.0  29.0  26.0  89  1015   ---     N     3     3   ---   --- /
25/07/2006 03:50      25.0  22.0  27.6  25.0  83  1014   ---     N     3     3   ---   --- /
25/07/2006 04:50      25.0  22.0  27.6  25.0  83  1014   ---     N     5     5   ---   --- /
25/07/2006 05:20      25.0  22.0  27.6  25.0  83  1014   ---     N     3     3   ---   --- /
25/07/2006 06:50      25.0  23.0  28.0  25.0  89  1014   ---     N     3     3   ---   0.6 Few Clouds/
25/07/2006 07:50      27.0  23.0  29.6  27.0  79  1014   ---     N     3     3   ---   0.6 Few Clouds/
25/07/2006 08:20       0.0   0.0   4.0   0.0 100   ---   ---     N   ---   ---   ---   --- /
25/07/2006 09:50      28.0  24.0  31.9  27.0  79  1015   ---   NNE    10    10   ---   0.4 Few Clouds/
25/07/2006 10:50      29.0  24.0  33.6  27.5  75  1015   ---   NNE    18    18   ---   0.4 Few Clouds/
25/07/2006 11:50      29.0  24.0  33.6  27.4  75  1015   ---    NE    19    19   ---   0.4 Few Clouds/
25/07/2006 12:50      30.0  24.0  35.1  28.7  70  1015   ---    NE    21    21   ---   0.6 Few Clouds/
25/07/2006 13:50      30.0  24.0  35.1  28.7  70  1015   ---   NNE    21    21   ---   0.5 Few Clouds/
25/07/2006 14:20      30.0  24.0  35.1  28.7  70  1014   ---   NNE    21    21   ---   0.5 Few Clouds/
25/07/2006 15:50      30.0  24.0  35.1  28.7  70  1014   ---    NE    23    23   ---   0.5 Scattered Clouds/
25/07/2006 16:50      29.0  24.0  33.6  27.3  75  1014   ---   NNE    21    21   ---   0.5 Scattered Clouds/
25/07/2006 17:50      28.0  22.0  30.7  26.6  70  1014   ---     N    13    13   ---   0.5 Scattered Clouds/
25/07/2006 18:50      28.0  22.0  30.7  27.0  70  1014   ---   NNE    10    10   ---   0.5 Few Clouds/
25/07/2006 19:50      28.0  23.0  31.3  26.4  74  1014   ---    NE    14    14   ---   --- /
25/07/2006 20:50      27.0  24.0  30.1  25.1  84  1014   ---    NE    14    14   ---   0.5 Few Clouds/
25/07/2006 21:50      27.0  24.0  30.1  26.0  84  1015   ---    NE     8     8   ---   0.5 Few Clouds/
25/07/2006 22:50      27.0  23.0  29.6  25.8  79  1015   ---   ENE    10    10   ---   --- /
25/07/2006 23:50      27.0  23.0  29.6  25.3  79  1015   ---   ENE    13    13   ---   --- /
26/07/2006 00:50      27.0  22.0  29.2  25.3  74  1015   ---   ENE    13    13   ---   --- /
26/07/2006 01:50      26.0  22.0  28.3  24.6  79  1015   ---   ENE    10    10   ---   --- /
26/07/2006 02:50      26.0  22.0  28.3  26.0  79  1015   ---     N     2     2   ---   --- /
26/07/2006 03:50      25.0  22.0  27.6  25.0  83  1014   ---     N     0     0   ---   --- /
26/07/2006 04:50      24.0  22.0  27.0  24.0  89  1015   ---   ---     0     0   ---   --- /
26/07/2006 05:20      24.0  22.0  27.0  24.0  89  1014   ---   ---     3     3   ---   --- /
26/07/2006 06:50      25.0  23.0  28.0  25.0  89  1015   ---     N     0     0   ---   --- /
26/07/2006 07:50      26.0  23.0  28.6  26.0  84  1015   ---   ---     2     2   ---   --- /
26/07/2006 08:50      28.0  23.0  31.3  28.0  74  1015   ---     N     2     2   ---   0.5 Few Clouds/
26/07/2006 09:50      28.0  23.0  31.3  27.0  74  1015   ---   NNE    10    10   ---   0.5 Few Clouds/
26/07/2006 10:50      28.0  22.0  30.7  26.4  70  1015   ---   NNE    14    14   ---   0.5 Few Clouds/
26/07/2006 11:20      29.0  23.0  32.8  27.6  70  1016   ---    NE    16    16   ---   0.5 Few Clouds/
26/07/2006 12:50      29.0  23.0  32.8  27.4  70  1016   ---    NE    19    19   ---   0.5 Few Clouds/
26/07/2006 13:50      29.0  23.0  32.8  27.4  70  1016   ---    NE    19    19   ---   0.6 Few Clouds/
26/07/2006 14:50      30.0  24.0  35.1  28.9  70  1016   ---    NE    18    18   ---   0.6 Few Clouds/
26/07/2006 15:50      29.0  23.0  32.8  27.5  70  1015   ---    NE    18    18   ---   0.7 Few Clouds/
26/07/2006 16:50      29.0  24.0  33.6  27.6  75  1015   ---   NNE    16    16   ---   0.7 Few Clouds/
26/07/2006 17:50      29.0  25.0  34.5  27.7  79  1015   ---   NNE    14    14   ---   0.6 Few Clouds/
26/07/2006 18:50      29.0  25.0  34.5  27.7  79  1015   ---    NE    14    14   ---   0.6 Few Clouds/
26/07/2006 19:50      28.0  25.0  32.7  26.4  84  1015   ---   ENE    14    14   ---   0.6 Few Clouds/
26/07/2006 20:50      27.0  24.0  30.1  25.8  84  1015   ---    NE    10    10   ---   --- /
26/07/2006 21:50      27.0  24.0  30.1  25.1  84  1015   ---   ENE    14    14   ---   --- /
26/07/2006 22:50      27.0  25.0  30.6  25.8  89  1015   ---    NE    10    10   ---   --- /
26/07/2006 23:50      26.0  25.0  29.5  25.4  94  1015   ---    NE     6     6   ---   --- /
27/07/2006 00:50      26.0  24.0  29.0  25.4  89  1015   ---     E     6     6   ---   --- /
27/07/2006 01:50      25.0  22.0  27.6  25.0  83  1015   ---     N     3     3   ---   --- /
27/07/2006 02:50      25.0  22.0  27.6  25.0  83  1016   ---     N     0     0   ---   --- /
27/07/2006 03:50      24.0  22.0  27.0  24.0  89  1016   ---   ---     2     2   ---   --- /
27/07/2006 04:50      24.0  22.0  27.0  24.0  89  1015   ---     N     3     3   ---   --- /
27/07/2006 05:50      24.0  22.0  27.0  24.0  89  1015   ---     N     0     0   ---   --- /
27/07/2006 06:50      24.0  23.0  27.5  24.0  94  1015   ---   ---     0     0   ---   --- /
27/07/2006 07:50      26.0  22.0  28.3  26.0  79  1015   ---   ---     2     2   ---   --- /
27/07/2006 08:20      26.0  23.0  28.6  26.0  84  1015   ---     N     2     2   ---   0.6 Few Clouds/
27/07/2006 09:50      28.0  24.0  31.9  27.0  79  1015   ---   NNE    10    10   ---   --- /
27/07/2006 10:50      29.0  24.0  33.6  27.6  75  1015   ---   NNE    16    16   ---   0.5 Few Clouds/
27/07/2006 11:20      29.0  24.0  33.6  27.4  75  1016   ---   NNE    19    19   ---   0.5 Few Clouds/
27/07/2006 12:50      29.0  24.0  33.6  27.2  75  1016   ---    NE    23    23   ---   0.5 Few Clouds/
27/07/2006 13:20      30.0  23.0  34.2  28.7  66  1016   ---   NNE    21    21   ---   0.5 Few Clouds/
27/07/2006 13:50      29.0  23.0  32.8  27.3  70  1016   ---    NE    21    21   ---   0.5 Few Clouds/
27/07/2006 15:50      30.0  23.0  34.2  28.8  66  1015   ---   NNE    19    19   ---   --- /
27/07/2006 16:50      29.0  24.0  33.6  27.5  75  1015   ---   NNE    18    18   ---   --- /
27/07/2006 17:20      29.0  23.0  32.8  27.5  70  1015   ---    NE    18    18   ---   --- /
27/07/2006 18:50      28.0  24.0  31.9  25.9  79  1014   ---    NE    19    19   ---   --- /
27/07/2006 19:50      28.0  25.0  32.7  26.4  84  1014   ---    NE    14    14   ---   --- /
27/07/2006 20:50      27.0  25.0  30.6  25.1  89  1014   ---    NE    14    14   ---   --- /
27/07/2006 21:50      27.0  25.0  30.6  25.3  89  1014   ---   ENE    13    13   ---   --- /
27/07/2006 22:50      27.0  25.0  30.6  24.9  89  1014   ---   ENE    16    16   ---   --- /
27/07/2006 23:50      27.0  25.0  30.6  25.8  89  1014   ---   ENE    10    10   ---   --- /
28/07/2006 00:50      26.0  25.0  29.5  24.8  94  1014   ---   ENE     8     8   ---   --- /
28/07/2006 01:50      26.0  24.0  29.0  26.0  89  1014   ---     N     5     5   ---   --- /
28/07/2006 03:50      25.0  24.0  28.5  25.0  94  1013   ---     N     0     0   ---   --- /
28/07/2006 04:50      25.0  23.0  28.0  25.0  89  1013   ---   ---     0     0   ---   --- /
28/07/2006 05:50      24.0  23.0  27.5  24.0  94  1012   ---   ---     0     0   ---   --- /
28/07/2006 06:50      25.0  23.0  28.0  25.0  89  1013   ---   ---     0     0   ---   --- /
28/07/2006 07:50      28.0  22.0  30.7  26.6  70  1013   ---     E    13    13   ---   --- /
28/07/2006 09:50      29.0  23.0  32.8  27.9  70  1013   ---   NNE    13    13   ---   --- Clear/
28/07/2006 10:50      30.0  22.0  33.3  28.9  62  1013   ---   NNE    18    18   ---   --- Clear/
28/07/2006 11:20       0.0   0.0   4.0 -12.4 100   ---   ---   NNE   ---   ---   ---   --- /
28/07/2006 12:50      30.0  24.0  35.1  28.8  70  1013   ---   NNE    19    19   ---   0.7 Few Clouds/
28/07/2006 13:50      30.0  24.0  35.1  28.8  70  1013   ---   NNE    19    19   ---   0.7 Few Clouds/
28/07/2006 14:50      30.0  24.0  35.1  28.8  70  1013   ---   NNE    19    19   ---   0.7 Few Clouds/
28/07/2006 15:50      30.0  27.0  38.9  28.9  84  1012   ---   NNE    16    16   ---   0.6 Few Clouds/
28/07/2006 16:50      30.0  26.0  37.5  29.0  79  1012   ---   NNE    14    14   ---   0.6 Few Clouds/
28/07/2006 19:00       0.0   0.0   4.0 -10.5 100   ---   ---   NNE   ---   ---   ---   --- /
28/07/2006 19:00      29.0  26.0  35.6  29.0  84   ---   ---         ---   ---   ---   --- None reported/None reported
28/07/2006 19:50      28.0  25.0  32.7  26.2  84  1011   ---    NE    16    16   ---   --- /
28/07/2006 19:50      28.0  25.0  32.7  26.2  84  1011   ---    NE    16    16   ---   --- None reported/None reported
28/07/2006 20:50      28.0  24.0  31.9  26.1  79  1011   ---   ENE    18    18   ---   --- /
28/07/2006 21:50      27.0  23.0  29.6  25.3  79  1011   ---     E    13    13   ---   --- /
28/07/2006 22:50      27.0  22.0  29.2  26.4  74  1011   ---    NW     6     6   ---   --- /
28/07/2006 23:20      27.0  22.0  29.2  27.0  74  1011   ---     N     3     3   ---   --- Clear/
29/07/2006 00:50      26.0  21.0  27.9  26.0  74  1011   ---     N     5     5   ---   --- Clear/
29/07/2006 01:50      26.0  22.0  28.3  26.0  79  1010   ---     N     2     2   ---   --- Clear/
29/07/2006 02:50      25.0  20.0  26.9  25.0  74  1009   ---     N     0     0   ---   --- Clear/
29/07/2006 03:50      24.0  20.0  26.2  24.0  78  1009   ---   ---     3     3   ---   --- Clear/
29/07/2006 04:50      25.0  20.0  26.9  25.0  74  1009   ---     N     0     0   ---   --- Clear/
29/07/2006 05:20      25.0  21.0  27.2  25.0  79  1009   ---   ---     2     2   ---   --- Clear/
29/07/2006 06:50      24.0  19.0  25.9  24.0  74  1009   ---     N     3     3   ---   --- /
29/07/2006 07:50      27.0  19.0  28.2  27.0  62  1009   ---     N     2     2   ---   --- /
29/07/2006 08:50      28.0  19.0  29.3  28.0  58  1009   ---     N     3     3   ---   --- /
29/07/2006 09:50      30.0  21.0  32.6  29.5  59  1009   ---    NE     8     8   ---   0.6 Few Clouds/
29/07/2006 10:50      30.0  20.0  31.9  30.0  55  1009   ---     N     5     5   ---   --- /
29/07/2006 11:20      32.0  16.0  32.0  32.0  38  1008   ---     N     5     5   ---   --- /
29/07/2006 12:50      31.0  18.0  31.9  30.7  46  1009   ---   NNE     8     8   ---   --- /
29/07/2006 13:50      32.0  21.0  34.9  31.8  52  1009   ---   NNE     8     8   ---   --- /
29/07/2006 14:50      34.0  21.0  37.4  34.0  47  1009   ---     N     5     5   ---   --- /
29/07/2006 15:50      35.0  16.0  35.2  35.0  32  1008   ---     W    10    10   ---   1.0 Few Clouds/
29/07/2006 16:50      31.0  26.0  39.1  30.0  75  1008   ---   WNW    27    27   ---   --- /
29/07/2006 17:50      31.0  26.0  39.1  30.0  75  1008   ---   WNW    26    26   ---   0.8 Few Clouds/
29/07/2006 18:50      31.0  22.0  34.6  30.7  59  1008   ---    SW     8     8   ---   0.7 Few Clouds/
29/07/2006 19:50      30.0  23.0  34.2  28.7  66  1008   ---   WNW    23    23   ---   --- /
29/07/2006 20:50      28.0  23.0  31.3  27.0  74  1008   ---   WSW    10    10   ---   --- /
29/07/2006 21:50      29.0  23.0  32.8  27.6  70  1009   ---    SW    16    16   ---   --- /
29/07/2006 22:50      28.0  24.0  31.9  26.2  79  1009   ---    SW    16    16   ---   --- /
29/07/2006 23:20      28.0  23.0  31.3  26.2  74  1010   ---   WSW    16    16   ---   --- /
30/07/2006 00:50      28.0  22.0  30.7  26.4  70  1010   ---    SW    14    14   ---   --- /
30/07/2006 01:50      28.0  22.0  30.7  27.2  70  1010   ---    SW     8     8   ---   --- /
30/07/2006 02:50      27.0  22.0  29.2  25.8  74  1010   ---     S    10    10   ---   --- /
30/07/2006 03:50      27.0  23.0  29.6  25.3  79  1009   ---   SSW    13    13   ---   --- /
30/07/2006 04:50      27.0  22.0  29.2  25.8  74  1010   ---    SW    10    10   ---   --- /
30/07/2006 05:20      26.0  21.0  27.9  24.6  74  1010   ---    SW    10    10   ---   --- /
30/07/2006 06:50      27.0  23.0  29.6  26.0  79  1009   ---    SW     8     8   ---   0.6 Few Clouds/
30/07/2006 07:50      28.0  24.0  31.9  27.0  79  1010   ---    SW    10    10   ---   0.6 Scattered Clouds/
30/07/2006 09:50      28.0  23.0  31.3  28.0  74  1010   ---     N     3     3   ---   0.5 Few Clouds/
30/07/2006 10:50      29.0  24.0  33.6  27.9  75  1011   ---     N    13    13   ---   0.6 Scattered Clouds/
30/07/2006 11:20      28.0  24.0  31.9  27.0  79  1011   ---     N    10    10   ---   0.6 Few Clouds/
30/07/2006 12:50      29.0  24.0  33.6  28.3  75  1011   ---     N     8     8   ---   0.7 Few Clouds/
30/07/2006 13:50      30.0  24.0  35.1  29.5  70  1012   ---     N     8     8   ---   0.7 Few Clouds/
30/07/2006 14:50      29.0  24.0  33.6  28.3  75  1012   ---   NNW     8     8   ---   0.7 Scattered Clouds/
30/07/2006 15:50      29.0  24.0  33.6  27.9  75  1011   ---   NNW    13    13   ---   0.7 Scattered Clouds/
30/07/2006 16:50      29.0  24.0  33.6  28.2  75  1012   ---   NNW    10    10   ---   0.7 Scattered Clouds/
30/07/2006 17:50      30.0  24.0  35.1  29.5  70  1012   ---   NNW     8     8   ---   0.7 Scattered Clouds/
30/07/2006 18:50      29.0  24.0  33.6  27.7  75  1012   ---   NNW    14    14   ---   0.7 Scattered Clouds/
30/07/2006 19:50      28.0  24.0  31.9  27.0  79  1012   ---   NNW    10    10   ---   0.7 Scattered Clouds/
30/07/2006 20:50      28.0  24.0  31.9  27.2  79  1012   ---   NNW     8     8   ---   0.7 Scattered Clouds/
30/07/2006 21:50      27.0  23.0  29.6  25.8  79  1012   ---   NNW    10    10   ---   0.7 Scattered Clouds/
30/07/2006 22:50      27.0  23.0  29.6  25.8  79  1012   ---    NW    10    10   ---   0.7 Scattered Clouds/
30/07/2006 23:20      27.0  23.0  29.6  25.8  79  1013   ---   NNW    10    10   ---   0.7 Scattered Clouds/
31/07/2006 00:50      27.0  22.0  29.2  26.0  74  1012   ---   NNW     8     8   ---   0.7 Scattered Clouds/
31/07/2006 01:50      27.0  22.0  29.2  26.0  74  1013   ---   NNW     8     8   ---   0.5 Scattered Clouds/
31/07/2006 02:50      27.0  22.0  29.2  26.0  74  1013   ---   NNW     8     8   ---   0.5 Scattered Clouds/
31/07/2006 03:50      27.0  22.0  29.2  26.0  74  1013   ---   NNW     8     8   ---   0.5 Scattered Clouds/
31/07/2006 04:50      26.0  22.0  28.3  24.8  79  1013   ---    NW     8     8   ---   0.7 Scattered Clouds/
31/07/2006 05:50      26.0  21.0  27.9  25.4  74  1013   ---   NNW     6     6   ---   0.7 Scattered Clouds/
31/07/2006 06:50      26.0  21.0  27.9  25.4  74  1012   ---    NW     6     6   ---   0.7 Scattered Clouds/
31/07/2006 07:50      27.0  22.0  29.2  27.0  74  1013   ---     N     5     5   ---   0.7 Scattered Clouds/
31/07/2006 08:50      28.0  22.0  30.7  28.0  70  1013   ---     N     3     3   ---   0.7 Scattered Clouds/
31/07/2006 09:50      28.0  23.0  31.3  27.5  74  1013   ---    NW     6     6   ---   0.7 Scattered Clouds/
31/07/2006 11:00       0.0   0.0   4.0  -3.0 100   ---   ---    NW   ---   ---   ---   --- /
31/07/2006 11:50      29.0  23.0  32.8  29.0  70  1013   ---     N     5     5   ---   0.7 Scattered Clouds/
31/07/2006 12:50      29.0  24.0  33.6  29.0  75  1014   ---     N     3     3   ---   0.7 Scattered Clouds/
31/07/2006 13:50      30.0  24.0  35.1  29.5  70  1014   ---     N     8     8   ---   0.7 Scattered Clouds/
31/07/2006 14:50      30.0  25.0  36.2  29.7  75  1014   ---   NNW     6     6   ---   0.7 Scattered Clouds/
31/07/2006 15:50      30.0  24.0  35.1  29.7  70  1013   ---   NNW     6     6   ---   0.7 Scattered Clouds/
31/07/2006 16:50      30.0  24.0  35.1  29.7  70  1013   ---    NW     6     6   ---   0.7 Scattered Clouds/
31/07/2006 17:50      29.0  25.0  34.5  28.6  79  1013   ---   NNW     6     6   ---   0.7 Scattered Clouds/
31/07/2006 18:50      29.0  24.0  33.6  29.0  75  1013   ---     N     5     5   ---   0.7 Scattered Clouds/
31/07/2006 19:50      28.0  24.0  31.9  28.0  79  1013   ---     N     5     5   ---   0.7 Scattered Clouds/
31/07/2006 20:50      28.0  24.0  31.9  28.0  79  1013   ---     N     3     3   ---   0.6 Scattered Clouds/
31/07/2006 21:50      28.0  24.0  31.9  28.0  79  1013   ---     N     2     2   ---   0.6 Scattered Clouds/
31/07/2006 22:50      27.0  23.0  29.6  27.0  79  1013   ---     N     0     0   ---   0.6 Scattered Clouds/
31/07/2006 23:50      27.0  22.0  29.2  27.0  74  1013   ---   ---     0     0   ---   0.6 Scattered Clouds/
01/08/2006 00:50      27.0  22.0  29.2  27.0  74  1013   ---   ---     3     3   ---   0.6 Scattered Clouds/
01/08/2006 02:50      26.0  22.0  28.3  26.0  79  1013   ---     N     5     5   ---   0.6 Few Clouds/
01/08/2006 03:50      27.0  22.0  29.2  26.4  74  1013   ---     N     6     6   ---   0.6 Few Clouds/
01/08/2006 04:50      27.0  22.0  29.2  27.0  74  1013   ---     N     5     5   ---   0.6 Few Clouds/
01/08/2006 05:50      26.0  21.0  27.9  26.0  74  1013   ---     N     3     3   ---   0.6 Few Clouds/
01/08/2006 06:50      26.0  21.0  27.9  26.0  74  1013   ---     N     5     5   ---   0.6 Few Clouds/
01/08/2006 07:50      27.0  23.0  29.6  27.0  79  1013   ---     N     5     5   ---   0.6 Few Clouds/
01/08/2006 08:50      28.0  23.0  31.3  28.0  74  1013   ---     N     3     3   ---   0.6 Few Clouds/
01/08/2006 09:50      29.0  24.0  33.6  29.0  75  1013   ---     N     5     5   ---   --- /
01/08/2006 10:50      29.0  24.0  33.6  28.3  75  1013   ---   WNW     8     8   ---   --- /
01/08/2006 11:50      30.0  20.0  31.9  29.5  55  1013   ---   WNW     8     8   ---   --- /
01/08/2006 12:50      30.0  19.0  31.3  29.7  52  1013   ---    NW     6     6   ---   --- /
01/08/2006 13:50      29.0  23.0  32.8  28.2  70  1013   ---   NNW    10    10   ---   --- /
01/08/2006 14:50      30.0  24.0  35.1  29.7  70  1013   ---     N     6     6   ---   --- /
01/08/2006 15:50      30.0  22.0  33.3  29.7  62  1012   ---   NNE     6     6   ---   --- /
01/08/2006 16:50      29.0  25.0  34.5  28.3  79  1012   ---   NNW     8     8   ---   --- /
01/08/2006 17:50      30.0  25.0  36.2  29.5  75  1012   ---   NNW     8     8   ---   --- /
01/08/2006 18:50      29.0  24.0  33.6  28.6  75  1011   ---    NW     6     6   ---   --- /
01/08/2006 19:50      29.0  25.0  34.5  28.6  79  1011   ---   NNW     6     6   ---   --- /
01/08/2006 20:50      28.0  23.0  31.3  28.0  74  1011   ---     N     2     2   ---   --- /
01/08/2006 21:50      28.0  22.0  30.7  28.0  70  1011   ---     N     2     2   ---   --- /
01/08/2006 22:50      27.0  20.0  28.5  27.0  66  1011   ---     N     2     2   ---   --- /
01/08/2006 23:20      27.0  19.0  28.2  27.0  62  1011   ---     N     2     2   ---   --- /
02/08/2006 00:50      26.0  19.0  27.3  26.0  65  1011   ---     N     2     2   ---   --- /
02/08/2006 01:50      25.0  20.0  26.9  25.0  74  1010   ---     N     3     3   ---   --- /
02/08/2006 02:50      25.0  20.0  26.9  25.0  74  1010   ---     N     3     3   ---   --- /
02/08/2006 03:50      29.0  12.0  28.2  27.9  35  1009   ---   SSW    13    13   ---   --- /
02/08/2006 04:50      30.0  11.0  28.8  29.4  31  1009   ---   SSW    10    10   ---   --- /
02/08/2006 05:50      30.0   0.0  28.1  28.9  14  1009   ---    SW    18    18   ---   --- /
02/08/2006 06:50      28.0  12.0  27.5  25.8  37  1009   ---    SW    23    23   ---   --- /
02/08/2006 07:50      30.0  13.0  29.2  28.7  35  1009   ---    SW    21    21   ---   --- /
02/08/2006 08:50      33.0  13.0  32.0  33.0  30  1009   ---    SW    23    23   ---   --- /
02/08/2006 09:50      32.0  15.0  31.6  31.6  36  1010   ---   WSW    18    18   ---   --- /
02/08/2006 11:00       0.0   0.0   4.0 -12.4 100   ---   ---   WSW   ---   ---   ---   --- /
02/08/2006 11:20       0.0   0.0   4.0 -12.4 100   ---   ---   WSW   ---   ---   ---   --- /
02/08/2006 12:50      31.0  26.0  39.1  30.2  75  1010   ---   WNW    18    18   ---   --- /
02/08/2006 13:20      31.0  26.0  39.1  30.2  75  1010   ---   WNW    19    19   ---   --- /
02/08/2006 15:00       0.0   0.0   4.0 -13.6 100   ---   ---   WNW   ---   ---   ---   --- /
02/08/2006 16:00       0.0   0.0   4.0 -13.6 100   ---   ---   WNW   ---   ---   ---   --- /
02/08/2006 16:50      31.0  23.0  35.5  30.1  63  1009   ---   WNW    21    21   ---   0.4 Few Clouds/
02/08/2006 17:50      30.0  25.0  36.2  28.9  75  1009   ---   WNW    18    18   ---   0.4 Few Clouds/
02/08/2006 19:00       0.0   0.0   4.0 -12.4 100   ---   ---   WNW   ---   ---   ---   --- /
02/08/2006 19:50      29.0  24.0  33.6  27.2  75  1009   ---   WNW    23    23   ---   0.6 Few Clouds/
02/08/2006 20:50      28.0  24.0  31.9  26.1  79  1009   ---   WNW    18    18   ---   --- /
02/08/2006 21:50      28.0  23.0  31.3  28.0  74  1009   ---     N     5     5   ---   --- /
02/08/2006 22:50      27.0  23.0  29.6  26.0  79  1009   ---    SW     8     8   ---   --- /
02/08/2006 23:20      27.0  23.0  29.6  26.4  79  1009   ---    SW     6     6   ---   --- /
03/08/2006 00:50      27.0  22.0  29.2  24.7  74  1009   ---   SSW    18    18   ---   --- /
03/08/2006 01:50      28.0  20.0  29.7  26.4  62  1008   ---   SSW    14    14   ---   --- /
03/08/2006 02:50      28.0  20.0  29.7  26.4  62  1007   ---   SSW    14    14   ---   --- /
03/08/2006 03:50      27.0  20.0  28.5  25.8  66  1007   ---     S    10    10   ---   --- /
03/08/2006 04:50      27.0  21.0  28.8  24.5  70  1007   ---   SSW    19    19   ---   --- /
03/08/2006 05:50      27.0  22.0  29.2  24.9  74  1007   ---   SSW    16    16   ---   --- /
03/08/2006 06:50      27.0  22.0  29.2  25.1  74  1007   ---     S    14    14   ---   0.7 Few Clouds/
03/08/2006 07:50      28.0  24.0  31.9  26.4  79  1007   ---   SSW    14    14   ---   0.7 Few Clouds/
03/08/2006 08:50      29.0  24.0  33.6  27.7  75  1007   ---    SW    14    14   ---   0.6 Few Clouds/
03/08/2006 08:50      29.0  24.0  33.6  27.7  75  1007   ---    SW    14    14   ---   0.6 Few Clouds/None reported
03/08/2006 09:50      29.0  25.0  34.5  27.5  79  1007   ---   WNW    18    18   ---   0.6 Few Clouds/
03/08/2006 10:50      29.0  24.0  33.6  27.6  75  1008   ---     W    16    16   ---   0.5 Few Clouds/
03/08/2006 11:20      30.0  24.0  35.1  29.0  70  1008   ---     W    14    14   ---   0.5 Few Clouds/
03/08/2006 12:50      29.0  24.0  33.6  27.4  75  1008   ---   WNW    19    19   ---   0.6 Few Clouds/
03/08/2006 13:50      29.0  23.0  32.8  27.4  70  1007   ---   WNW    19    19   ---   0.6 Few Clouds/
03/08/2006 14:50      29.0  24.0  33.6  27.0  75  1007   ---   WNW    27    27   ---   0.6 Few Clouds/
03/08/2006 15:50      30.0  23.0  34.2  28.7  66  1007   ---   WNW    21    21   ---   0.6 Few Clouds/
03/08/2006 16:50      29.0  23.0  32.8  27.7  70  1007   ---    NW    14    14   ---   0.6 Few Clouds/
03/08/2006 17:50      29.0  23.0  32.8  27.7  70  1006   ---    NW    14    14   ---   --- /
03/08/2006 18:50      28.0  24.0  31.9  26.4  79  1006   ---    NW    14    14   ---   --- /
03/08/2006 20:00       0.0   0.0   4.0 -10.5 100   ---   ---    NW   ---   ---   ---   --- /
03/08/2006 20:50      27.0  23.0  29.6  27.0  79  1006   ---     N     3     3   ---   0.6 Few Clouds/
03/08/2006 21:50      26.0  22.0  28.3  26.0  79  1007   ---     N     5     5   ---   0.6 Few Clouds/
03/08/2006 22:20      26.0  22.0  28.3  26.0  79  1007   ---     N     5     5   ---   0.6 Few Clouds/
03/08/2006 23:20      26.0  22.0  28.3  26.0  79  1007   ---     N     5     5   ---   0.6 Few Clouds/
04/08/2006 00:50      26.0  21.0  27.9  23.8  74  1006   ---    SW    14    14   ---   0.6 Few Clouds/
04/08/2006 01:50      28.0  13.0  27.6  26.6  40  1006   ---     S    13    13   ---   0.6 Few Clouds/
04/08/2006 02:50      27.0  15.0  27.3  25.1  48  1005   ---   WSW    14    14   ---   0.6 Few Clouds/
04/08/2006 03:50      27.0  19.0  28.2  24.9  62  1006   ---    SW    16    16   ---   0.6 Few Clouds/
04/08/2006 04:50      27.0  17.0  27.7  26.4  54  1006   ---   SSW     6     6   ---   0.6 Few Clouds/
04/08/2006 05:20      27.0  17.0  27.7  25.8  54  1006   ---    SW    10    10   ---   0.6 Few Clouds/
04/08/2006 06:50      27.0  19.0  28.2  25.3  62  1006   ---    SW    13    13   ---   0.7 Few Clouds/
04/08/2006 07:50      28.0  20.0  29.7  27.5  62  1006   ---   SSW     6     6   ---   --- /
04/08/2006 08:20      29.0  22.0  32.0  28.2  66  1006   ---   SSW    10    10   ---   --- /
04/08/2006 09:50      29.0  22.0  32.0  27.9  66  1007   ---    SW    13    13   ---   0.6 Few Clouds/
04/08/2006 10:50      30.0  22.0  33.3  29.4  62  1007   ---   WSW    10    10   ---   0.6 Few Clouds/
04/08/2006 11:20      30.0  22.0  33.3  29.4  62  1007   ---     W    10    10   ---   0.6 Scattered Clouds/
04/08/2006 12:50      30.0  25.0  36.2  28.7  75  1007   ---   WNW    23    23   ---   0.6 Scattered Clouds/
04/08/2006 13:20      30.0  22.0  33.3  28.5  62  1007   ---   WNW    27    27   ---   0.6 Scattered Clouds/
04/08/2006 14:50      29.0  24.0  33.6  27.6  75  1007   ---   WNW    16    16   ---   0.9 Scattered Clouds/
04/08/2006 15:50      29.0  22.0  32.0  27.2  66  1007   ---   WNW    23    23   ---   0.7 Scattered Clouds/
04/08/2006 16:50      29.0  21.0  31.4  27.4  62  1007   ---   WNW    19    19   ---   0.9 Scattered Clouds/
04/08/2006 17:20      28.0  19.0  29.3  25.5  58  1007   ---   WNW    29    29   ---   0.8 Scattered Clouds/
04/08/2006 18:50      27.0  20.0  28.5  24.0  66  1007   ---   WNW    29    29   ---   0.8 Scattered Clouds/
04/08/2006 19:50      26.0  22.0  28.3  22.4  79  1007   ---   WNW    31    31   ---   0.6 Scattered Clouds/
04/08/2006 20:50      26.0  21.0  27.9  23.0  74  1008   ---     W    21    21   ---   0.6 Broken Clouds/
04/08/2006 21:50      26.0  21.0  27.9  23.1  74  1008   ---     W    19    19   ---   0.6 Broken Clouds/
04/08/2006 22:50      26.0  20.0  27.6  23.0  70  1008   ---     W    21    21   ---   0.6 Scattered Clouds/
04/08/2006 23:20      25.0  20.0  26.9  21.6  74  1008   ---     W    21    21   ---   0.6 Scattered Clouds/
05/08/2006 00:50      26.0  20.0  27.6  23.1  70  1008   ---   WSW    19    19   ---   0.6 Scattered Clouds/
05/08/2006 01:50      26.0  20.0  27.6  22.9  70  1008   ---     W    23    23   ---   0.6 Scattered Clouds/
05/08/2006 02:50      26.0  20.0  27.6  22.5  70  1007   ---     W    27    27   ---   0.6 Scattered Clouds/
05/08/2006 03:50      25.0  19.0  26.6  20.8  69  1007   ---     W    31    31   ---   0.6 Scattered Clouds/
05/08/2006 04:50      25.0  20.0  26.9  21.0  74  1007   ---     W    27    27   ---   0.6 Scattered Clouds/
05/08/2006 05:20      25.0  19.0  26.6  20.8  69  1007   ---     W    31    31   ---   0.6 Scattered Clouds/
05/08/2006 06:50      25.0  19.0  26.6  21.4  69  1008   ---     W    23    23   ---   0.6 Scattered Clouds/
05/08/2006 07:50      25.0  18.0  26.3  22.0  65  1008   ---   SSW    18    18   ---   0.6 Scattered Clouds/
05/08/2006 08:50      26.0  19.0  27.3  22.9  65  1008   ---   WSW    23    23   ---   0.6 Few Clouds/
05/08/2006 09:50      26.0  18.0  27.1  22.6  61  1008   ---     W    26    26   ---   0.7 Scattered Clouds/
05/08/2006 10:50      27.0  19.0  28.2  24.3  62  1009   ---   WNW    23    23   ---   0.7 Scattered Clouds/
05/08/2006 11:20      27.0  19.0  28.2  24.4  62  1009   ---   WNW    21    21   ---   0.7 Scattered Clouds/
05/08/2006 12:50      28.0  19.0  29.3  26.2  58  1009   ---   WNW    16    16   ---   0.7 Scattered Clouds/
05/08/2006 13:50      28.0  19.0  29.3  26.6  58  1009   ---    NW    13    13   ---   0.7 Scattered Clouds/
05/08/2006 14:50      29.0  19.0  30.3  27.7  55  1009   ---   NNW    14    14   ---   0.7 Scattered Clouds/
05/08/2006 15:50      29.0  20.0  30.8  27.5  58  1009   ---   NNW    18    18   ---   0.7 Scattered Clouds/
05/08/2006 16:50      28.0  19.0  29.3  26.2  58  1010   ---   NNW    16    16   ---   0.7 Scattered Clouds/
05/08/2006 17:50      28.0  19.0  29.3  26.2  58  1010   ---    NW    16    16   ---   0.6 Scattered Clouds/
05/08/2006 18:50      28.0  19.0  29.3  27.0  58  1010   ---    NW    10    10   ---   0.6 Scattered Clouds/
05/08/2006 19:50      26.0  20.0  27.6  24.1  70  1010   ---    NW    13    13   ---   0.7 Scattered Clouds/
05/08/2006 20:50      26.0  20.0  27.6  23.5  70  1011   ---   WNW    16    16   ---   0.7 Scattered Clouds/
05/08/2006 21:50      25.0  19.0  26.6  22.5  69  1011   ---     W    14    14   ---   0.6 Scattered Clouds/
05/08/2006 22:20      25.0  19.0  26.6  22.8  69  1012   ---     W    13    13   ---   0.6 Scattered Clouds/
05/08/2006 23:20      25.0  20.0  26.9  22.5  74  1012   ---     W    14    14   ---   0.6 Few Clouds/
06/08/2006 00:50      24.0  20.0  26.2  22.2  78  1012   ---     W    10    10   ---   0.6 Few Clouds/
06/08/2006 01:50      24.0  20.0  26.2  21.1  78  1012   ---   SSW    14    14   ---   0.6 Few Clouds/
06/08/2006 02:50      23.0  19.0  25.2  21.3  78  1012   ---     S     8     8   ---   0.6 Few Clouds/
06/08/2006 03:50      23.0  19.0  25.2  21.3  78  1011   ---     S     8     8   ---   --- /
06/08/2006 04:50      23.0  18.0  24.9  20.2  73  1011   ---     S    13    13   ---   --- /
06/08/2006 05:20      23.0  17.0  24.6  21.0  69  1011   ---     S    10    10   ---   --- /
06/08/2006 06:50      24.0  18.0  25.6  21.5  69  1011   ---     S    13    13   ---   0.6 Few Clouds/
06/08/2006 07:50      25.0  19.0  26.6  22.0  69  1012   ---     S    18    18   ---   0.6 Scattered Clouds/
06/08/2006 08:20      25.0  19.0  26.6  21.6  69  1012   ---   SSW    21    21   ---   0.6 Scattered Clouds/
06/08/2006 09:50      27.0  19.0  28.2  24.3  62  1012   ---    SW    23    23   ---   0.6 Few Clouds/
06/08/2006 10:50      27.0  18.0  27.9  24.1  58  1012   ---   WSW    26    26   ---   0.6 Few Clouds/
06/08/2006 11:50      29.0  18.0  29.9  27.0  52  1012   ---     W    29    29   ---   0.6 Scattered Clouds/
06/08/2006 12:50      28.0  17.0  28.6  25.5  51  1012   ---     W    29    29   ---   0.6 Scattered Clouds/
06/08/2006 13:50      28.0  18.0  28.9  25.5  55  1013   ---     W    29    29   ---   0.6 Scattered Clouds/
06/08/2006 14:50      28.0  18.0  28.9  25.5  55  1012   ---     W    29    29   ---   0.6 Scattered Clouds/
06/08/2006 15:50      28.0  17.0  28.6  25.5  51  1012   ---     W    29    29   ---   0.6 Scattered Clouds/
06/08/2006 16:50      28.0  16.0  28.3  25.4  48  1012   ---     W    31    31   ---   0.6 Scattered Clouds/
06/08/2006 17:50      28.0  16.0  28.3  25.3  48  1012   ---     W    34    34   ---   0.6 Scattered Clouds/
06/08/2006 18:50      27.0  16.0  27.5  24.0  51  1012   ---     W    29    29   ---   0.6 Scattered Clouds/
06/08/2006 19:50      26.0  18.0  27.1  22.5  61  1012   ---     W    29    29   ---   0.6 Scattered Clouds/
06/08/2006 20:50      25.0  20.0  26.9  21.6  74  1012   ---     W    21    21   ---   0.6 Scattered Clouds/
06/08/2006 21:50      25.0  21.0  27.2  21.2  79  1012   ---     W    26    26   ---   0.6 Scattered Clouds/
06/08/2006 22:50      25.0  21.0  27.2  21.0  79  1012   ---     W    27    27   ---   0.6 Scattered Clouds/
06/08/2006 23:20      25.0  21.0  27.2  21.0  79  1013   ---     W    29    29   ---   0.6 Scattered Clouds/
07/08/2006 00:50      25.0  21.0  27.2  21.6  79  1012   ---     W    21    21   ---   0.6 Scattered Clouds/
07/08/2006 01:20      25.0  21.0  27.2  22.0  79  1012   ---     W    18    18   ---   0.6 Scattered Clouds/
07/08/2006 02:50      25.0  20.0  26.9  21.7  74  1012   ---     W    19    19   ---   0.6 Scattered Clouds/
07/08/2006 03:50      24.0  20.0  26.2  22.2  78  1012   ---     S    10    10   ---   0.7 Scattered Clouds/
07/08/2006 04:50      24.0  19.0  25.9  20.6  74  1011   ---   SSW    18    18   ---   0.7 Scattered Clouds/
07/08/2006 05:20      22.0  17.0  23.9  21.0  73  1011   ---   NNE     6     6   ---   0.4 Broken Clouds/
07/08/2006 06:50      20.0  15.0  21.8  15.9  73  1011   ---    SE    14    14   ---   0.4 Broken Clouds/
07/08/2006 07:50      21.0  15.0  22.5  21.0  69  1011   ---     N     5     5   ---   0.7 Broken Clouds/
07/08/2006 08:50      24.0  17.0  25.3  24.0  65  1011   ---     N     2     2   ---   0.7 Scattered Clouds/
07/08/2006 09:50      25.0  19.0  26.6  22.8  69  1011   ---   SSW    13    13   ---   0.7 Scattered Clouds/
07/08/2006 10:20      26.0  18.0  27.1  24.8  61  1011   ---    SW     8     8   ---   0.7 Scattered Clouds/
07/08/2006 11:20      27.0  18.0  27.9  26.0  58  1011   ---     W     8     8   ---   --- / Thunderstorm
07/08/2006 12:50      26.0  19.0  27.3  24.8  65  1011   ---    SW     8     8   ---   0.6 Broken Clouds/
07/08/2006 13:20      26.0  20.0  27.6  24.8  70  1011   ---     W     8     8   ---   0.6 Broken Clouds/
07/08/2006 14:50      26.0  20.0  27.6  24.1  70  1011   ---    NW    13    13   ---   0.6 Scattered Clouds/
07/08/2006 15:50      27.0  19.0  28.2  26.4  62  1011   ---   WNW     6     6   ---   0.6 Scattered Clouds/
07/08/2006 16:50      26.0  21.0  27.9  23.5  74  1011   ---   WNW    16    16   ---   0.6 Few Clouds/
07/08/2006 17:50      26.0  19.0  27.3  23.4  65  1010   ---    NW    18    18   ---   0.6 Few Clouds/
07/08/2006 17:50      26.0  19.0  27.3  23.4  65  1010   ---    NW    18    18   ---   0.6 Few Clouds/None reported
07/08/2006 18:50      26.0  20.0  27.6  23.8  70  1010   ---    NW    14    14   ---   0.6 Few Clouds/
07/08/2006 19:20      26.0  19.0  27.3  25.4  65  1010   ---    NW     6     6   ---   0.6 Few Clouds/
07/08/2006 20:50      25.0  20.0  26.9  24.3  74  1010   ---   NNW     6     6   ---   0.6 Few Clouds/
07/08/2006 21:50      24.0  20.0  26.2  22.2  78  1010   ---    NW    10    10   ---   0.6 Few Clouds/
07/08/2006 22:50      24.0  20.0  26.2  23.2  78  1011   ---    NW     6     6   ---   0.6 Scattered Clouds/
07/08/2006 23:20      24.0  20.0  26.2  24.0  78  1011   ---     N     2     2   ---   0.6 Scattered Clouds/
08/08/2006 00:50      23.0  20.0  25.6  22.1  83  1010   ---   SSE     6     6   ---   0.6 Scattered Clouds/
08/08/2006 01:50      23.0  19.0  25.2  21.3  78  1010   ---   SSW     8     8   ---   0.6 Scattered Clouds/
08/08/2006 02:50      22.0  18.0  24.2  21.0  78  1010   ---   SSW     6     6   ---   0.6 Scattered Clouds/
08/08/2006 03:50      22.0  18.0  24.2  20.2  78  1010   ---   SSW     8     8   ---   0.6 Few Clouds/
08/08/2006 04:50      22.0  17.0  23.9  20.2  73  1009   ---     S     8     8   ---   0.6 Few Clouds/
08/08/2006 05:20      22.0  17.0  23.9  19.8  73  1009   ---     S    10    10   ---   0.6 Few Clouds/
08/08/2006 06:50      22.0  17.0  23.9  18.9  73  1009   ---     S    13    13   ---   --- /
08/08/2006 07:50      23.0  17.0  24.6  23.0  69  1009   ---     N     5     5   ---   --- /
08/08/2006 08:20      24.0  17.0  25.3  24.0  65  1009   ---     N     2     2   ---   --- /
08/08/2006 09:50      26.0  17.0  26.9  24.8  58  1009   ---   WSW     8     8   ---   --- /
08/08/2006 10:50      26.0  17.0  26.9  25.4  58  1009   ---     W     6     6   ---   0.6 Few Clouds/
08/08/2006 11:20      26.0  17.0  26.9  24.8  58  1009   ---     W     8     8   ---   0.6 Few Clouds/
08/08/2006 12:50      26.0  17.0  26.9  24.8  58  1010   ---     N     8     8   ---   0.6 Few Clouds/
08/08/2006 13:50      27.0  17.0  27.7  26.0  54  1010   ---     N     8     8   ---   0.6 Few Clouds/
08/08/2006 14:50      27.0  18.0  27.9  26.0  58  1009   ---     N     8     8   ---   0.6 Few Clouds/
08/08/2006 15:50      27.0  18.0  27.9  26.4  58  1009   ---   NNE     6     6   ---   0.6 Few Clouds/
08/08/2006 16:50      27.0  21.0  28.8  26.4  70  1009   ---    NW     6     6   ---   0.6 Few Clouds/
08/08/2006 18:00       0.0   0.0   4.0  -3.0 100   ---   ---    NW   ---   ---   ---   --- /
08/08/2006 18:50      26.0  21.0  27.9  23.1  74  1008   ---   WNW    19    19   ---   0.6 Few Clouds/
08/08/2006 20:50      25.0  18.0  26.3  21.0  65  1009   ---     W    27    27   ---   0.6 Few Clouds/
08/08/2006 21:50      25.0  19.0  26.6  22.5  69  1009   ---     W    14    14   ---   0.6 Few Clouds/
08/08/2006 22:50      25.0  19.0  26.6  23.4  69  1008   ---     W    10    10   ---   0.6 Few Clouds/
08/08/2006 23:20      25.0  19.0  26.6  24.3  69  1008   ---     W     6     6   ---   0.6 Few Clouds/
09/08/2006 00:50      24.0  19.0  25.9  23.2  74  1008   ---   SSE     6     6   ---   0.6 Scattered Clouds/
09/08/2006 01:50      23.0  19.0  25.2  22.1  78  1008   ---     S     6     6   ---   0.7 Few Clouds/
09/08/2006 02:50      23.0  17.0  24.6  21.3  69  1008   ---     S     8     8   ---   0.7 Broken Clouds/
09/08/2006 03:50      24.0  18.0  25.6  20.8  69  1007   ---     S    16    16   ---   0.7 Broken Clouds/
09/08/2006 04:50      24.0  19.0  25.9  20.3  74  1006   ---     S    19    19   ---   0.7 Broken Clouds/
09/08/2006 05:20      24.0  19.0  25.9  19.7  74  1007   ---   SSW    26    26   ---   0.7 Broken Clouds/
09/08/2006 06:50      24.0  19.0  25.9  20.3  74  1006   ---   SSW    19    19   ---   0.7 Broken Clouds/
09/08/2006 07:20      24.0  19.0  25.9  20.0  74  1006   ---   SSW    23    23   ---   0.7 Broken Clouds/
09/08/2006 08:50      25.0  20.0  26.9  21.0  74  1007   ---   SSW    27    27   ---   0.6 Broken Clouds/
09/08/2006 09:50      25.0  20.0  26.9  21.4  74  1007   ---    SW    23    23   ---   0.6 Broken Clouds/
09/08/2006 10:50      27.0  20.0  28.5  24.0  66  1007   ---   SSW    27    27   ---   0.6 Broken Clouds/
09/08/2006 11:20      27.0  19.0  28.2  23.6  62  1007   ---   SSW    39    39   ---   0.6 Scattered Clouds/
09/08/2006 12:50      27.0  18.0  27.9  24.1  58  1007   ---   SSW    26    26   ---   0.7 Broken Clouds/
09/08/2006 13:20      27.0  18.0  27.9  23.8  58  1007   ---    SW    34    34   ---   0.7 Broken Clouds/
09/08/2006 14:50      26.0  18.0  27.1  22.4  61  1007   ---    SW    31    31   ---   0.7 Broken Clouds/
09/08/2006 15:50      26.0  19.0  27.3  22.5  65  1007   ---    SW    27    27   ---   0.7 Broken Clouds/
09/08/2006 16:50      26.0  20.0  27.6  22.5  70  1007   ---    SW    29    29   ---   0.7 Broken Clouds/
09/08/2006 17:50      26.0  20.0  27.6  22.5  70  1007   ---   SSW    27    27   ---   0.7 Broken Clouds/
09/08/2006 18:20      25.0  20.0  26.9  21.2  74  1007   ---   SSW    26    26   ---   0.7 Broken Clouds/
09/08/2006 19:50      24.0  19.0  25.9  19.5  74  1007   ---   SSW    27    27   ---   0.8 Scattered Clouds/
09/08/2006 20:50      24.0  19.0  25.9  20.0  74  1008   ---     S    23    23   ---   0.8 Scattered Clouds/
09/08/2006 21:50      23.0  19.0  25.2  18.0  78  1007   ---     S    27    27   ---   0.8 Scattered Clouds/
09/08/2006 22:50      24.0  19.0  25.9  20.3  74  1008   ---   SSW    19    19   ---   0.8 Scattered Clouds/
09/08/2006 23:20      24.0  19.0  25.9  20.8  74  1008   ---   SSW    16    16   ---   0.8 Scattered Clouds/
10/08/2006 00:20      24.0  20.0  26.2  20.8  78  1008   ---     S    16    16   ---   0.8 Scattered Clouds/
10/08/2006 02:00       0.0   0.0   4.0 -11.8 100   ---   ---     S   ---   ---   ---   --- /
10/08/2006 02:50      23.0  18.0  24.9  18.9  73  1008   ---   WNW    19    19   ---   0.6 Scattered Clouds/
10/08/2006 03:50      23.0  18.0  24.9  19.4  73  1008   ---    NW    16    16   ---   0.6 Scattered Clouds/
10/08/2006 04:50      23.0  18.0  24.9  19.2  73  1008   ---    NW    18    18   ---   0.6 Scattered Clouds/
10/08/2006 05:20      23.0  18.0  24.9  19.2  73  1008   ---    NW    18    18   ---   0.6 Scattered Clouds/
10/08/2006 06:20      23.0  18.0  24.9  19.4  73  1008   ---    NW    16    16   ---   0.6 Scattered Clouds/
10/08/2006 06:50      23.0  18.0  24.9  19.4  73  1008   ---   WNW    16    16   ---   0.6 Scattered Clouds/
10/08/2006 08:20      24.0  19.0  25.9  20.1  74  1008   ---     W    21    21   ---   0.6 Scattered Clouds/
10/08/2006 08:50      24.0  19.0  25.9  20.6  74  1008   ---   SSW    18    18   ---   --- / Thunderstorm
10/08/2006 09:50      22.0  18.0  24.2  18.5  78  1009   ---    SW    14    14   ---   0.6 Broken Clouds/
10/08/2006 11:20      25.0  20.0  26.9  21.7  74  1010   ---     W    19    19   ---   0.6 Scattered Clouds/
10/08/2006 12:20      26.0  21.0  27.9  23.1  74  1010   ---     W    19    19   ---   0.7 Scattered Clouds/
10/08/2006 13:20      27.0  20.0  28.5  24.7  66  1010   ---     W    18    18   ---   0.7 Scattered Clouds/
10/08/2006 14:20      27.0  19.0  28.2  24.7  62  1010   ---   WNW    18    18   ---   0.8 Scattered Clouds/
10/08/2006 15:50      27.0  19.0  28.2  24.3  62  1011   ---   WNW    23    23   ---   0.8 Few Clouds/
10/08/2006 16:50      27.0  20.0  28.5  24.5  66  1010   ---   WNW    19    19   ---   0.8 Few Clouds/
10/08/2006 17:20      27.0  22.0  29.2  24.1  74  1010   ---     W    26    26   ---   0.8 Scattered Clouds/
10/08/2006 17:50      27.0  21.0  28.8  24.1  70  1011   ---     W    26    26   ---   0.8 Scattered Clouds/
10/08/2006 19:20      26.0  21.0  27.9  23.5  74  1010   ---     W    16    16   ---   0.8 Few Clouds/
10/08/2006 20:50      25.0  20.0  26.9  21.2  74  1011   ---     W    26    26   ---   0.8 Few Clouds/
10/08/2006 21:50      24.0  20.0  26.2  19.7  78  1011   ---     W    26    26   ---   0.8 Few Clouds/
10/08/2006 22:50      24.0  19.0  25.9  20.8  74  1012   ---     W    16    16   ---   0.8 Few Clouds/
10/08/2006 23:20      24.0  19.0  25.9  21.1  74  1011   ---    SW    14    14   ---   0.8 Few Clouds/
11/08/2006 00:20      23.0  19.0  25.2  19.4  78  1012   ---   SSW    16    16   ---   0.8 Few Clouds/
11/08/2006 01:50      23.0  17.0  24.6  19.8  69  1011   ---   SSW    14    14   ---   --- /
11/08/2006 02:50      23.0  18.0  24.9  18.9  73  1011   ---   SSW    19    19   ---   --- /
11/08/2006 03:50      23.0  18.0  24.9  19.2  73  1012   ---     S    18    18   ---   --- /
11/08/2006 04:50      24.0  17.0  25.3  20.8  65  1011   ---     S    16    16   ---   --- /
11/08/2006 05:20      23.0  17.0  24.6  19.8  69  1011   ---   SSW    14    14   ---   --- /
11/08/2006 06:20      23.0  18.0  24.9  18.9  73  1011   ---   SSW    19    19   ---   --- /
11/08/2006 07:20      23.0  19.0  25.2  19.4  78  1011   ---     S    16    16   ---   --- /
11/08/2006 08:20      24.0  19.0  25.9  20.8  74  1011   ---     S    16    16   ---   --- /
11/08/2006 09:20      26.0  19.0  27.3  23.1  65  1011   ---   SSW    19    19   ---   --- /
11/08/2006 09:50      26.0  18.0  27.1  22.6  61  1011   ---   SSW    26    26   ---   0.7 Few Clouds/
11/08/2006 10:50      27.0  19.0  28.2  24.4  62  1012   ---   SSW    21    21   ---   0.7 Few Clouds/
11/08/2006 11:50      27.0  22.0  29.2  23.8  74  1012   ---     W    32    32   ---   0.7 Scattered Clouds/
11/08/2006 13:20      27.0  22.0  29.2  23.9  74  1012   ---     W    31    31   ---   0.7 Few Clouds/
11/08/2006 14:50      28.0  22.0  30.7  25.3  70  1012   ---   WNW    32    32   ---   0.7 Few Clouds/
11/08/2006 15:50      27.0  21.0  28.8  24.1  70  1012   ---   WNW    26    26   ---   0.7 Few Clouds/
11/08/2006 16:50      28.0  20.0  29.7  25.9  62  1012   ---     W    19    19   ---   0.7 Few Clouds/
11/08/2006 17:20      28.0  18.0  28.9  25.8  55  1012   ---     W    23    23   ---   --- /
11/08/2006 18:20      28.0  16.0  28.3  25.9  48  1012   ---     W    19    19   ---   --- /
11/08/2006 19:20      28.0  15.0  28.0  26.2  45  1011   ---   WSW    16    16   ---   --- /
11/08/2006 20:50      26.0  15.0  26.5  23.1  51  1011   ---    SW    19    19   ---   --- /
11/08/2006 21:50      25.0  18.0  26.3  21.7  65  1012   ---    SW    19    19   ---   --- /
11/08/2006 22:50      26.0  16.0  26.7  23.1  54  1012   ---   SSW    19    19   ---   --- /
11/08/2006 23:20      25.0  16.0  25.9  22.1  57  1012   ---   SSW    16    16   ---   --- /
12/08/2006 00:20      25.0  16.0  25.9  22.0  57  1012   ---   SSW    18    18   ---   --- /
12/08/2006 01:50      25.0  16.0  25.9  21.7  57  1012   ---   SSW    19    19   ---   --- /
12/08/2006 02:50      24.0  17.0  25.3  20.1  65  1012   ---   SSW    21    21   ---   --- /
12/08/2006 03:50      24.0  17.0  25.3  20.6  65  1012   ---   SSW    18    18   ---   --- /
12/08/2006 04:50      24.0  17.0  25.3  20.3  65  1012   ---   SSW    19    19   ---   --- /
12/08/2006 05:20      23.0  18.0  24.9  18.5  73  1011   ---   SSW    23    23   ---   --- /
12/08/2006 06:20      23.0  19.0  25.2  18.5  78  1011   ---   SSW    23    23   ---   0.6 Few Clouds/
12/08/2006 07:20      23.0  19.0  25.2  18.5  78  1011   ---   SSW    23    23   ---   0.6 Few Clouds/
12/08/2006 08:20      24.0  19.0  25.9  20.1  74  1011   ---   SSW    21    21   ---   0.6 Few Clouds/
12/08/2006 09:20      25.0  19.0  26.6  21.4  69  1011   ---   WSW    23    23   ---   0.6 Few Clouds/
12/08/2006 10:20      26.0  19.0  27.3  23.4  65  1011   ---   WSW    18    18   ---   0.6 Few Clouds/
12/08/2006 11:20      27.0  17.0  27.7  25.8  54  1012   ---     W    10    10   ---   0.6 Few Clouds/
12/08/2006 12:20      28.0  17.0  28.6  27.0  51  1012   ---   WNW    10    10   ---   0.6 Few Clouds/
12/08/2006 13:20      28.0  18.0  28.9  27.0  55  1012   ---     W    10    10   ---   0.6 Scattered Clouds/
12/08/2006 14:20      28.0  22.0  30.7  25.8  70  1011   ---   WNW    23    23   ---   0.6 Scattered Clouds/
12/08/2006 15:50      28.0  23.0  31.3  25.5  74  1011   ---   WNW    27    27   ---   0.6 Scattered Clouds/
12/08/2006 16:50      28.0  22.0  30.7  25.8  70  1010   ---   WNW    23    23   ---   0.6 Scattered Clouds/
12/08/2006 17:20      27.0  23.0  29.6  24.1  79  1010   ---   WNW    26    26   ---   0.6 Scattered Clouds/
12/08/2006 18:20      26.0  22.0  28.3  22.5  79  1010   ---   WNW    27    27   ---   0.6 Scattered Clouds/
12/08/2006 19:20      26.0  22.0  28.3  22.5  79  1010   ---   WNW    29    29   ---   0.6 Scattered Clouds/
12/08/2006 20:20      25.0  21.0  27.2  24.3  79  1010   ---    NW     6     6   ---   0.6 Scattered Clouds/
12/08/2006 21:50      24.0  20.0  26.2  24.0  78  1010   ---     N     5     5   ---   0.6 Scattered Clouds/
12/08/2006 22:50      24.0  20.0  26.2  24.0  78  1010   ---     N     2     2   ---   --- /
12/08/2006 23:20      24.0  20.0  26.2  24.0  78  1010   ---     N     3     3   ---   --- /
13/08/2006 00:20      23.0  19.0  25.2  23.0  78  1010   ---     N     5     5   ---   --- /
13/08/2006 01:50      23.0  18.0  24.9  23.0  73  1009   ---     N     3     3   ---   --- /
13/08/2006 02:50      22.0  18.0  24.2  22.0  78  1009   ---     N     5     5   ---   --- /
13/08/2006 03:50      22.0  18.0  24.2  22.0  78  1009   ---     N     0     0   ---   --- /
13/08/2006 04:50      23.0  15.0  24.1  21.3  61  1009   ---   SSW     8     8   ---   0.7 Few Clouds/
13/08/2006 05:20      24.0  13.0  24.5  21.5  50  1009   ---   SSW    13    13   ---   0.7 Few Clouds/
13/08/2006 06:20      25.0  13.0  25.3  22.8  47  1008   ---   SSW    13    13   ---   0.7 Scattered Clouds/
13/08/2006 07:20      25.0  17.0  26.1  21.7  61  1008   ---     E    19    19   ---   0.7 Scattered Clouds/
13/08/2006 08:20      24.0  20.0  26.2  21.1  78  1008   ---     E    14    14   ---   0.6 Broken Clouds/
13/08/2006 09:20      25.0  20.0  26.9  23.4  74  1009   ---   ENE    10    10   ---   0.9 Broken Clouds/
13/08/2006 10:50      26.0  20.0  27.6  24.6  70  1009   ---   NNE    10    10   ---   0.9 Scattered Clouds/
13/08/2006 11:20      26.0  19.0  27.3  24.6  65  1010   ---    NE    10    10   ---   0.9 Scattered Clouds/
13/08/2006 12:20      23.0  19.0  25.2  18.2  78  1011   ---     N    26    26   ---   --- Overcast/ Rain
13/08/2006 14:50      27.0  14.0  27.1  25.3  45  1012   ---     E    13    13   ---   0.7 Broken Clouds/
13/08/2006 16:00       0.0   0.0   4.0  -9.2 100   ---   ---     E   ---   ---   ---   --- /
13/08/2006 16:50      27.0  15.0  27.3  26.0  48  1012   ---   NNE     8     8   ---   --- /
13/08/2006 17:20      27.0  16.0  27.5  27.0  51  1012   ---     N     5     5   ---   --- /
13/08/2006 18:20      26.0  18.0  27.1  24.1  61  1012   ---   NNW    13    13   ---   --- /
13/08/2006 19:50      25.0  18.0  26.3  23.7  65  1012   ---     N     8     8   ---   --- /
13/08/2006 20:50      24.0  19.0  25.9  22.2  74  1012   ---     N    10    10   ---   --- /
13/08/2006 21:50      24.0  19.0  25.9  22.5  74  1012   ---     N     8     8   ---   --- /
13/08/2006 22:50      23.0  18.0  24.9  23.0  73  1012   ---     N     3     3   ---   --- /
13/08/2006 23:20      22.0  18.0  24.2  19.8  78  1012   ---     S    10    10   ---   --- /
14/08/2006 00:20      22.0  18.0  24.2  21.0  78  1012   ---   SSE     6     6   ---   --- /
14/08/2006 01:50      22.0  17.0  23.9  21.0  73  1013   ---     S     6     6   ---   0.6 Few Clouds/
14/08/2006 02:50      21.0  17.0  23.2  19.0  78  1013   ---     S     8     8   ---   0.6 Few Clouds/
14/08/2006 03:50      21.0  16.0  22.9  19.0  73  1012   ---     S     8     8   ---   --- /
14/08/2006 04:50      21.0  16.0  22.9  21.0  73  1013   ---     N     5     5   ---   --- /
14/08/2006 05:20      21.0  16.0  22.9  21.0  73  1013   ---     N     3     3   ---   --- /
14/08/2006 06:20      20.0  15.0  21.8  18.8  73  1013   ---     S     6     6   ---   --- /
14/08/2006 07:20      21.0  16.0  22.9  19.9  73  1013   ---   SSE     6     6   ---   --- /
14/08/2006 08:20      23.0  18.0  24.9  23.0  73  1013   ---     N     5     5   ---   --- /
14/08/2006 09:50      26.0  18.0  27.1  25.4  61  1013   ---     W     6     6   ---   --- /
14/08/2006 10:50      26.0  15.0  26.5  26.0  51  1014   ---     N     5     5   ---   0.6 Few Clouds/
14/08/2006 11:20      27.0  10.0  26.6  27.0  34  1015   ---     N     5     5   ---   0.6 Few Clouds/
14/08/2006 12:20      27.0  12.0  26.8  27.0  39  1015   ---     N     5     5   ---   --- /
14/08/2006 13:20      26.0  15.0  26.5  24.6  51  1015   ---     N    10    10   ---   --- /
14/08/2006 15:00       0.0   0.0   4.0  -6.7 100   ---   ---     N   ---   ---   ---   --- /
14/08/2006 15:50      27.0  15.0  27.3  25.3  48  1015   ---   NNE    13    13   ---   --- /
14/08/2006 16:50      27.0  15.0  27.3  24.9  48  1015   ---    NE    16    16   ---   --- /
14/08/2006 17:20      27.0  13.0  27.0  24.5  42  1015   ---    NE    19    19   ---   0.9 Few Clouds/
14/08/2006 18:20      26.0  15.0  26.5  23.0  51  1014   ---    NE    21    21   ---   1.0 Few Clouds/
14/08/2006 19:50      26.0  19.0  27.3  23.0  65  1014   ---   ENE    21    21   ---   3.6 Scattered Clouds/
14/08/2006 20:50      25.0  19.0  26.6  22.5  69  1014   ---     E    14    14   ---   --- /
14/08/2006 21:50      25.0  19.0  26.6  23.7  69  1014   ---     E     8     8   ---   --- /
14/08/2006 22:50      24.0  16.0  25.1  24.0  61  1014   ---     N     5     5   ---   --- /
14/08/2006 23:20      23.0  16.0  24.3  23.0  65  1014   ---     N     2     2   ---   --- /
15/08/2006 00:20      23.0  16.0  24.3  23.0  65  1014   ---     N     3     3   ---   --- /
15/08/2006 01:20      23.0  17.0  24.6  23.0  69  1014   ---     N     0     0   ---   --- /
15/08/2006 02:20      22.0  17.0  23.9  21.0  73  1014   ---     S     6     6   ---   --- /
15/08/2006 03:50      21.0  16.0  22.9  21.0  73  1014   ---     N     2     2   ---   --- /
15/08/2006 04:50      20.0  16.0  22.2  20.0  78  1014   ---     N     5     5   ---   --- /
15/08/2006 05:20      21.0  17.0  23.2  21.0  78  1015   ---     N     5     5   ---   --- /
15/08/2006 06:20      22.0  17.0  23.9  22.0  73  1015   ---     N     0     0   ---   --- /
15/08/2006 07:20      22.0  16.0  23.6  22.0  69  1015   ---   ---     5     5   ---   --- /
15/08/2006 08:20      24.0  18.0  25.6  24.0  69  1016   ---     N     5     5   ---   0.9 Few Clouds/
15/08/2006 09:20      26.0  18.0  27.1  26.0  61  1016   ---     N     3     3   ---   0.9 Few Clouds/
15/08/2006 10:20      27.0  20.0  28.5  24.1  66  1014   ---   ENE    26    26   ---   3.6 Scattered Clouds/
15/08/2006 10:50      29.0  17.0  29.5  27.4  48  1014   ---    NE    19    19   ---   3.6 Scattered Clouds/
15/08/2006 12:20      28.0  22.0  30.7  25.4  70  1014   ---   ENE    31    31   ---   3.6 Scattered Clouds/
15/08/2006 14:20      29.0  17.0  29.5  29.0  48  1015   ---     N     2     2   ---   0.7 Broken Clouds/
15/08/2006 15:50      29.0  21.0  31.4  26.9  62  1012   ---   ENE    32    32   ---   0.7 Broken Clouds/
15/08/2006 16:50      28.0  20.0  29.7  25.6  62  1012   ---   ENE    26    26   ---   0.8 Broken Clouds/
15/08/2006 17:20      28.0  20.0  29.7  25.6  62  1012   ---   ENE    26    26   ---   0.8 Broken Clouds/
15/08/2006 18:20      28.0  19.0  29.3  25.6  58  1011   ---   ENE    26    26   ---   0.8 Broken Clouds/
15/08/2006 19:50      26.0  21.0  27.9  22.5  74  1012   ---   ENE    27    27   ---   --- /
15/08/2006 20:50      26.0  19.0  27.3  25.4  65  1012   ---   NNE     6     6   ---   --- /
15/08/2006 21:50      26.0  20.0  27.6  26.0  70  1012   ---     N     3     3   ---   --- /
15/08/2006 22:50      25.0  20.0  26.9  22.5  74  1012   ---    SW    14    14   ---   --- /
15/08/2006 23:20      25.0  20.0  26.9  22.8  74  1012   ---    SW    13    13   ---   --- /
16/08/2006 00:20      24.0  20.0  26.2  24.0  78  1012   ---     N     5     5   ---   --- /
16/08/2006 01:50      24.0  21.0  26.6  22.5  83  1012   ---    NE     8     8   ---   --- /
16/08/2006 02:50      24.0  19.0  25.9  24.0  74  1012   ---     N     5     5   ---   --- /
16/08/2006 04:00       0.0   0.0   4.0   0.0 100   ---   ---     N   ---   ---   ---   --- /
16/08/2006 04:50      23.0  19.0  25.2  23.0  78  1011   ---     N     5     5   ---   --- /
16/08/2006 05:20      23.0  18.0  24.9  23.0  73  1011   ---     N     3     3   ---   --- /
16/08/2006 06:20      23.0  18.0  24.9  23.0  73  1010   ---     N     5     5   ---   3.6 Scattered Clouds/
16/08/2006 07:20      24.0  19.0  25.9  22.2  74  1011   ---   SSW    10    10   ---   3.6 Scattered Clouds/
16/08/2006 08:20      25.0  21.0  27.2  22.8  79  1012   ---   SSW    13    13   ---   --- /
16/08/2006 09:50      27.0  22.0  29.2  24.5  74  1012   ---   WSW    19    19   ---   3.0 Scattered Clouds/
16/08/2006 10:50      28.0  23.0  31.3  27.0  74  1012   ---   WSW    10    10   ---   3.0 Scattered Clouds/
16/08/2006 11:20      28.0  23.0  31.3  27.2  74  1012   ---     W     8     8   ---   3.0 Scattered Clouds/
16/08/2006 12:20      28.0  24.0  31.9  27.5  79  1012   ---   WNW     6     6   ---   3.0 Scattered Clouds/
16/08/2006 13:20      28.0  22.0  30.7  27.5  70  1012   ---    NW     6     6   ---   3.0 Scattered Clouds/
16/08/2006 14:50      29.0  24.0  33.6  27.5  75  1010   ---    NE    18    18   ---   --- /
16/08/2006 15:50      31.0  23.0  35.5  31.0  63  1010   ---     N     5     5   ---   --- /
16/08/2006 16:50      31.0  21.0  33.8  30.4  55  1009   ---    NE    13    13   ---   --- /
16/08/2006 17:20      32.0  21.0  34.9  31.8  52  1009   ---   NNE    10    10   ---   --- /
16/08/2006 18:50      28.0  23.0  31.3  25.9  74  1010   ---   NNW    21    21   ---   --- /
16/08/2006 19:20      27.0  22.0  29.2  24.7  74  1010   ---   NNW    18    18   ---   --- /
16/08/2006 20:50      26.0  21.0  27.9  26.0  74  1011   ---     N     5     5   ---   0.1 Few Clouds/
16/08/2006 21:50      26.0  21.0  27.9  26.0  74  1012   ---     N     2     2   ---   0.5 Few Clouds/
16/08/2006 22:50      25.0  20.0  26.9  25.0  74  1012   ---     N     2     2   ---   0.6 Few Clouds/
16/08/2006 23:20      25.0  20.0  26.9  25.0  74  1012   ---     N     2     2   ---   0.6 Few Clouds/
17/08/2006 00:50      24.0  20.0  26.2  24.0  78  1012   ---     N     2     2   ---   0.6 Few Clouds/
17/08/2006 01:50      25.0  20.0  26.9  25.0  74  1012   ---     N     3     3   ---   --- /
17/08/2006 02:50      24.0  20.0  26.2  24.0  78  1012   ---     N     3     3   ---   --- /
17/08/2006 03:50      24.0  19.0  25.9  24.0  74  1012   ---     N     0     0   ---   --- /
17/08/2006 04:50      24.0  19.0  25.9  24.0  74  1012   ---   ---     2     2   ---   --- /
17/08/2006 05:20      24.0  19.0  25.9  24.0  74  1012   ---     N     2     2   ---   --- /
17/08/2006 06:50      23.0  19.0  25.2  23.0  78  1012   ---     N     5     5   ---   --- /
17/08/2006 07:50      25.0  20.0  26.9  25.0  74  1012   ---     N     3     3   ---   --- /
17/08/2006 08:20      25.0  20.0  26.9  25.0  74  1012   ---     N     5     5   ---   --- /
17/08/2006 09:50      26.0  21.0  27.9  26.0  74  1013   ---     N     5     5   ---   5.4 Scattered Clouds/
17/08/2006 10:50      28.0  22.0  30.7  27.2  70  1012   ---     N     8     8   ---   5.4 Scattered Clouds/
17/08/2006 11:50      29.0  23.0  32.8  28.2  70  1012   ---     W    10    10   ---   5.4 Scattered Clouds/
17/08/2006 12:50      29.0  22.0  32.0  27.6  66  1012   ---   NNE    16    16   ---   --- /
17/08/2006 13:20       0.0   0.0   4.0 -11.8 100   ---   ---   NNE   ---   ---   ---   --- /
17/08/2006 14:50      29.0  22.0  32.0  27.1  66  1012   ---   ENE    26    26   ---   --- /
17/08/2006 15:50      28.0  24.0  31.9  25.5  79  1012   ---    NE    29    29   ---   --- /
17/08/2006 16:50      28.0  24.0  31.9  25.3  79  1012   ---   ENE    32    32   ---   --- /
17/08/2006 17:20      28.0  24.0  31.9  25.3  79  1012   ---   ENE    34    34   ---   --- /
17/08/2006 18:50      27.0  23.0  29.6  24.7  79  1011   ---   ENE    18    18   ---   --- /
17/08/2006 19:50      28.0  23.0  31.3  27.5  74  1011   ---   WNW     6     6   ---   --- /
17/08/2006 20:50      27.0  22.0  29.2  25.1  74  1011   ---    SW    14    14   ---   --- /
17/08/2006 21:50      26.0  22.0  28.3  24.6  79  1011   ---    SW    10    10   ---   --- /
17/08/2006 22:50      26.0  21.0  27.9  26.0  74  1011   ---     N     5     5   ---   --- /
17/08/2006 23:20      25.0  21.0  27.2  25.0  79  1011   ---     N     0     0   ---   --- /
18/08/2006 00:20      25.0  20.0  26.9  25.0  74  1012   ---   ---     2     2   ---   --- /
18/08/2006 01:50      25.0  20.0  26.9  25.0  74  1011   ---     N     5     5   ---   --- /
18/08/2006 02:50      25.0  20.0  26.9  23.7  74  1012   ---     E     8     8   ---   --- /
18/08/2006 03:50      25.0  20.0  26.9  23.4  74  1011   ---   ENE    10    10   ---   --- /
18/08/2006 04:50      25.0  19.0  26.6  22.8  69  1012   ---     E    13    13   ---   --- /
18/08/2006 05:20      25.0  20.0  26.9  24.3  74  1012   ---     E     6     6   ---   --- /
18/08/2006 06:20      24.0  17.0  25.3  24.0  65  1013   ---     N     2     2   ---   --- /
18/08/2006 07:20      26.0  21.0  27.9  23.5  74  1015   ---   ENE    16    16   ---   --- /
18/08/2006 08:20      27.0  22.0  29.2  24.3  74  1015   ---   ENE    23    23   ---   --- /
18/08/2006 09:50      28.0  22.0  30.7  25.5  70  1016   ---   ENE    27    27   ---   --- /
18/08/2006 11:00       0.0   0.0   4.0 -16.4 100   ---   ---   ENE   ---   ---   ---   --- /
18/08/2006 11:20      30.0  22.0  33.3  28.6  62  1016   ---   ENE    26    26   ---   --- /
18/08/2006 12:20      32.0  18.0  32.9  31.6  43  1015   ---   ENE    16    16   ---   --- /
18/08/2006 13:50      32.0  19.0  33.5  31.5  46  1014   ---   ENE    29    29   ---   --- /
18/08/2006 14:50      34.0  19.0  35.8  34.0  41  1013   ---   ENE    26    26   ---   --- /
18/08/2006 15:50      34.0  18.0  35.1  34.0  39  1013   ---   ENE    23    23   ---   --- /
18/08/2006 16:50      35.0  16.0  35.2  35.0  32  1013   ---    NE    13    13   ---   --- /
18/08/2006 17:20      34.0  17.0  34.6  34.0  36  1013   ---    NE    14    14   ---   --- /
18/08/2006 18:50      34.0  15.0  33.7  34.0  32  1013   ---   ENE     6     6   ---   --- /
18/08/2006 19:20      32.0  21.0  34.9  31.8  52  1013   ---    SW     8     8   ---   --- /
18/08/2006 20:50      29.0  22.0  32.0  28.2  66  1014   ---    SW    10    10   ---   --- /
18/08/2006 21:50      29.0  20.0  30.8  28.3  58  1014   ---   SSW     8     8   ---   --- /
18/08/2006 22:50      29.0  17.0  29.5  29.0  48  1015   ---     N     3     3   ---   --- /
18/08/2006 23:20      29.0  17.0  29.5  29.0  48  1014   ---     N     3     3   ---   --- /
19/08/2006 00:20      27.0  16.0  27.5  27.0  51  1014   ---     N     0     0   ---   --- /
19/08/2006 01:50      26.0  19.0  27.3  26.0  65  1014   ---   ---     2     2   ---   --- /
19/08/2006 02:50      25.0  19.0  26.6  25.0  69  1015   ---     N     2     2   ---   --- /
19/08/2006 03:50      26.0  19.0  27.3  26.0  65  1014   ---     N     3     3   ---   --- /
19/08/2006 04:50      25.0  17.0  26.1  25.0  61  1014   ---     N     3     3   ---   --- /
19/08/2006 05:20      25.0  16.0  25.9  25.0  57  1014   ---     N     3     3   ---   --- /
19/08/2006 06:50      26.0  22.0  28.3  24.8  79  1014   ---     E     8     8   ---   2.7 Few Clouds/
19/08/2006 07:20      26.0  20.0  27.6  26.0  70  1015   ---     N     5     5   ---   1.0 Scattered Clouds/
19/08/2006 07:50      27.0  17.0  27.7  27.0  54  1015   ---     N     0     0   ---   3.0 Few Clouds/
19/08/2006 09:50      31.0  14.0  30.3  30.8  36  1016   ---     W     6     6   ---   0.9 Scattered Clouds/
19/08/2006 10:50      31.0  17.0  31.4  30.7  43  1016   ---   NNE     8     8   ---   0.9 Broken Clouds/
19/08/2006 11:20      32.0  18.0  32.9  31.7  43  1016   ---   ENE    13    13   ---   0.9 Broken Clouds/
19/08/2006 13:00       0.0   0.0   4.0  -9.2 100   ---   ---   ENE   ---   ---   ---   --- /
19/08/2006 13:50      35.0   0.0  32.4  35.0  11  1016   ---   ENE    18    18   ---   0.9 Scattered Clouds/
19/08/2006 14:50      35.0   0.0  32.4  35.0  11  1016   ---    NE    18    18   ---   0.9 Scattered Clouds/
19/08/2006 15:50      34.0  15.0  33.7  34.0  32  1017   ---   ENE    21    21   ---   0.9 Scattered Clouds/
19/08/2006 16:50      35.0   0.0  32.4  35.0  11  1016   ---   ENE    23    23   ---   0.9 Scattered Clouds/
19/08/2006 17:20      35.0   0.0  32.4  35.0  11  1016   ---   ENE    21    21   ---   0.9 Scattered Clouds/
19/08/2006 18:50      34.0   0.0  31.5  34.0  12  1016   ---   ENE    14    14   ---   0.9 Scattered Clouds/
19/08/2006 19:50      31.0  19.0  32.4  31.0  49  1016   ---     N     5     5   ---   0.9 Scattered Clouds/
19/08/2006 20:50      30.0  19.0  31.3  30.0  52  1016   ---     N     3     3   ---   --- /
19/08/2006 21:50      30.0  16.0  30.0  30.0  43  1017   ---     N     2     2   ---   --- /
19/08/2006 22:50      28.0  20.0  29.7  28.0  62  1017   ---     N     0     0   ---   --- /
19/08/2006 23:20      28.0  18.0  28.9  28.0  55  1018   ---   ---     2     2   ---   --- /
20/08/2006 00:20      29.0  14.0  28.6  29.0  40  1017   ---     N     3     3   ---   --- /
20/08/2006 02:00       0.0   0.0   4.0   0.0 100   ---   ---     N   ---   ---   ---   --- /
20/08/2006 02:50      27.0  18.0  27.9  27.0  58  1018   ---     N     2     2   ---   --- /
20/08/2006 03:50      26.0  18.0  27.1  26.0  61  1018   ---     N     5     5   ---   --- /
20/08/2006 04:50      26.0  18.0  27.1  25.4  61  1018   ---     S     6     6   ---   --- /
20/08/2006 05:20      26.0  15.0  26.5  26.0  51  1017   ---     N     5     5   ---   --- /
20/08/2006 06:20      26.0  15.0  26.5  26.0  51  1018   ---     N     3     3   ---   --- /
20/08/2006 07:50      27.0  20.0  28.5  27.0  66  1018   ---     N     2     2   ---   --- /
20/08/2006 08:50      27.0  23.0  29.6  26.0  79  1018   ---    SW     8     8   ---   --- /
20/08/2006 09:50      30.0  20.0  31.9  29.7  55  1018   ---     W     6     6   ---   3.9 Scattered Clouds/
20/08/2006 10:50      31.0  22.0  34.6  31.0  59  1019   ---     N     3     3   ---   --- /
20/08/2006 11:20      32.0  19.0  33.5  32.0  46  1019   ---     N     3     3   ---   --- /
20/08/2006 12:20      31.0  22.0  34.6  30.6  59  1019   ---     N    10    10   ---   --- /
20/08/2006 13:50      35.0   0.0  32.4  35.0  11  1018   ---    NE    19    19   ---   --- /
20/08/2006 14:50      33.0  21.0  36.1  33.0  49  1018   ---   NNE    19    19   ---   6.0 Scattered Clouds/
20/08/2006 15:50      33.0  18.0  34.0  33.0  41  1018   ---    NE    21    21   ---   --- /
20/08/2006 16:50      32.0  26.0  40.7  31.6  71  1018   ---    NE    23    23   ---   --- /
20/08/2006 17:20      34.0  17.0  34.6  34.0  36  1018   ---   ENE    23    23   ---   --- /
20/08/2006 18:50      33.0  19.0  34.6  33.0  44  1017   ---   ENE    16    16   ---   --- /
20/08/2006 19:50      31.0  19.0  32.4  30.6  49  1017   ---   ENE    10    10   ---   --- /
20/08/2006 20:50      29.0  24.0  33.6  27.7  75  1017   ---     E    14    14   ---   --- /
20/08/2006 21:50      29.0  23.0  32.8  28.6  70  1017   ---   SSW     6     6   ---   --- /
20/08/2006 22:50      27.0  22.0  29.2  25.3  74  1017   ---    SW    13    13   ---   --- /
20/08/2006 23:20      28.0  22.0  30.7  27.5  70  1017   ---     S     6     6   ---   --- /
21/08/2006 00:20      28.0  17.0  28.6  28.0  51  1016   ---     N     0     0   ---   --- /
21/08/2006 01:50      27.0  16.0  27.5  27.0  51  1016   ---   ---     0     0   ---   --- /
21/08/2006 02:50      27.0  15.0  27.3  27.0  48  1015   ---   ---     3     3   ---   --- /
21/08/2006 03:50      27.0  19.0  28.2  25.1  62  1015   ---   SSW    14    14   ---   --- /
21/08/2006 04:50      27.0  23.0  29.6  26.4  79  1016   ---   SSW     6     6   ---   --- /
21/08/2006 05:20      27.0  23.0  29.6  27.0  79  1016   ---     N     5     5   ---   --- /
21/08/2006 06:20      26.0  22.0  28.3  26.0  79  1017   ---     N     2     2   ---   --- /
21/08/2006 07:50      26.0  22.0  28.3  24.1  79  1019   ---     N    13    13   ---   0.3 Scattered Clouds/
21/08/2006 08:50      27.0  22.0  29.2  25.3  74  1018   ---    NE    13    13   ---   0.5 Scattered Clouds/
21/08/2006 09:50      28.0  23.0  31.3  25.9  74  1018   ---    NE    19    19   ---   --- /
21/08/2006 10:50      32.0  20.0  34.2  31.5  49  1018   ---     E    27    27   ---   --- /
21/08/2006 11:20      31.0  25.0  37.8  30.1  71  1017   ---    SW    21    21   ---   --- /
21/08/2006 12:20      31.0  23.0  35.5  30.4  63  1016   ---   WSW    14    14   ---   --- /
21/08/2006 13:50      29.0  24.0  33.6  26.9  75  1017   ---   SSW    32    32   ---   0.7 Scattered Clouds/
21/08/2006 14:50      30.0  24.0  35.1  28.9  70  1018   ---   NNE    18    18   ---   0.5 Scattered Clouds/
21/08/2006 15:50      28.0  22.0  30.7  26.4  70  1018   ---   NNE    14    14   ---   0.5 Scattered Clouds/
21/08/2006 16:50      29.0  21.0  31.4  27.5  62  1018   ---   NNE    18    18   ---   --- /
21/08/2006 17:20      28.0  21.0  30.1  26.1  66  1018   ---    NE    18    18   ---   0.8 Few Clouds/
21/08/2006 18:50      28.0  21.0  30.1  25.8  66  1017   ---   ENE    23    23   ---   --- /
21/08/2006 19:50      27.0  17.0  27.7  24.4  54  1017   ---   ENE    21    21   ---   --- /
21/08/2006 20:50      26.0  22.0  28.3  22.5  79  1017   ---    NE    27    27   ---   --- /
21/08/2006 21:50      26.0  18.0  27.1  23.1  61  1017   ---   ENE    19    19   ---   --- /
21/08/2006 22:50      26.0  17.0  26.9  23.1  58  1017   ---   ENE    19    19   ---   --- /
21/08/2006 23:20      27.0  14.0  27.1  24.9  45  1017   ---   ENE    16    16   ---   --- /
22/08/2006 00:50      26.0  16.0  26.7  23.5  54  1016   ---    NE    16    16   ---   --- /
22/08/2006 01:50      26.0  13.0  26.2  23.8  45  1017   ---   ENE    14    14   ---   --- /
22/08/2006 02:50      26.0  15.0  26.5  23.8  51  1016   ---   ENE    14    14   ---   --- /
22/08/2006 03:50      25.0  17.0  26.1  22.5  61  1017   ---    NE    14    14   ---   --- /
22/08/2006 04:50      25.0  14.0  25.5  22.8  51  1016   ---   ENE    13    13   ---   --- /
22/08/2006 05:20      24.0  16.0  25.1  21.1  61  1016   ---    NE    14    14   ---   --- /
22/08/2006 06:20      25.0  16.0  25.9  22.5  57  1016   ---   ENE    14    14   ---   --- /
22/08/2006 07:50      26.0  16.0  26.7  23.8  54  1016   ---    NE    14    14   ---   --- /
22/08/2006 08:20      26.0  20.0  27.6  23.1  70  1015   ---    NE    19    19   ---   --- /
22/08/2006 08:20      26.0  20.0  27.6  23.1  70  1015   ---    NE    19    19   ---   --- None reported/None reported
23/08/2006 11:20      27.0  20.0  28.5  26.0  66  1014   ---   NNE     8     8   ---   --- /
23/08/2006 12:20      28.0  20.0  29.7  26.4  62  1014   ---    NE    14    14   ---   --- /
23/08/2006 13:50      28.0  20.0  29.7  26.2  62  1014   ---    NE    16    16   ---   --- /
23/08/2006 14:50      28.0  21.0  30.1  26.1  66  1014   ---   NNE    18    18   ---   --- /
23/08/2006 15:50      28.0  19.0  29.3  26.4  58  1013   ---   NNE    14    14   ---   --- /
23/08/2006 16:20      29.0  17.0  29.5  28.3  48  1014   ---   NNE     8     8   ---   --- /
23/08/2006 17:20      28.0  15.0  28.0  27.0  45  1014   ---    NE    10    10   ---   --- /
23/08/2006 18:20      28.0  15.0  28.0  26.6  45  1013   ---    NE    13    13   ---   --- /
23/08/2006 19:50      26.0  21.0  27.9  23.8  74  1013   ---   ENE    14    14   ---   --- /
23/08/2006 20:50      25.0  19.0  26.6  25.0  69  1013   ---     E     5     5   ---   --- /
23/08/2006 21:50      25.0  20.0  26.9  24.3  74  1013   ---   WSW     6     6   ---   --- /
23/08/2006 22:50      25.0  16.0  25.9  23.4  57  1013   ---   SSW    10    10   ---   --- /
23/08/2006 23:20      24.0  14.0  24.6  21.5  54  1013   ---    SW    13    13   ---   --- /
24/08/2006 00:20      24.0  19.0  25.9  22.2  74  1014   ---    SW    10    10   ---   --- /
24/08/2006 01:50      23.0  18.0  24.9  23.0  73  1014   ---     N     2     2   ---   --- /
24/08/2006 02:50      22.0  17.0  23.9  22.0  73  1013   ---     N     2     2   ---   --- /
24/08/2006 03:50      23.0  18.0  24.9  23.0  73  1013   ---     N     3     3   ---   --- /
24/08/2006 04:50      24.0  18.0  25.6  21.5  69  1012   ---   ENE    13    13   ---   --- /
24/08/2006 05:20      25.0  13.0  25.3  22.5  47  1012   ---    NE    14    14   ---   --- /
24/08/2006 06:20      23.0  16.0  24.3  23.0  65  1011   ---     N     2     2   ---   --- /
24/08/2006 07:20      22.0  16.0  23.6  21.0  69  1012   ---    SW     6     6   ---   --- /
24/08/2006 08:50      26.0  18.0  27.1  26.0  61  1013   ---     N     3     3   ---   --- /
24/08/2006 09:50      27.0  19.0  28.2  25.3  62  1013   ---     W    13    13   ---   --- /
24/08/2006 10:50      29.0  13.0  28.4  28.2  37  1013   ---     W    10    10   ---   --- /
24/08/2006 11:20      27.0  18.0  27.9  26.0  58  1013   ---   WNW     8     8   ---   --- /
24/08/2006 12:20      28.0  19.0  29.3  27.5  58  1014   ---     N     6     6   ---   --- /
24/08/2006 13:20      29.0  19.0  30.3  28.2  55  1014   ---   NNE    10    10   ---   --- /
24/08/2006 14:50      29.0  21.0  31.4  27.5  62  1013   ---    NE    18    18   ---   --- /
24/08/2006 15:50      29.0  21.0  31.4  27.3  62  1013   ---    NE    21    21   ---   --- /
24/08/2006 16:50      29.0  20.0  30.8  27.2  58  1012   ---   ENE    23    23   ---   --- /
24/08/2006 17:20      29.0  18.0  29.9  27.1  52  1012   ---    NE    26    26   ---   --- /
24/08/2006 18:20      28.0  19.0  29.3  25.9  58  1012   ---    NE    21    21   ---   --- /
24/08/2006 19:20      27.0  21.0  28.8  24.3  70  1011   ---   ENE    23    23   ---   --- /
24/08/2006 20:50      27.0  22.0  29.2  26.0  74  1011   ---     E     8     8   ---   --- /
24/08/2006 21:50      26.0  21.0  27.9  26.0  74  1011   ---     N     5     5   ---   --- /
24/08/2006 22:50      25.0  19.0  26.6  22.8  69  1011   ---   SSW    13    13   ---   --- /
24/08/2006 23:20      25.0  18.0  26.3  25.0  65  1012   ---     N     3     3   ---   --- /
24/08/2006 23:50      25.0  18.0  26.3  25.0  65  1011   ---     N     3     3   ---   --- /
25/08/2006 02:50      27.0  15.0  27.3  24.4  48  1010   ---    SW    21    21   ---   --- /
25/08/2006 03:50      26.0  21.0  27.9  26.0  74  1010   ---     N     5     5   ---   --- /
25/08/2006 04:50      25.0  21.0  27.2  24.3  79  1009   ---     E     6     6   ---   --- /
25/08/2006 05:20      24.0  20.0  26.2  22.5  78  1009   ---    NE     8     8   ---   --- /
25/08/2006 06:20      25.0  20.0  26.9  21.7  74  1009   ---    SW    19    19   ---   --- / Thunderstorm
25/08/2006 07:50      26.0  18.0  27.1  24.8  61  1009   ---    SW     8     8   ---   0.9 Scattered Clouds/
25/08/2006 08:50      28.0  17.0  28.6  25.9  51  1009   ---   WSW    19    19   ---   1.0 Scattered Clouds/
25/08/2006 09:50      30.0  16.0  30.0  28.9  43  1009   ---   WSW    16    16   ---   1.2 Scattered Clouds/
25/08/2006 10:50      31.0  16.0  31.0  30.0  41  1010   ---   SSW    26    26   ---   0.9 Scattered Clouds/
25/08/2006 11:20      32.0  17.0  32.4  31.5  41  1009   ---   SSW    26    26   ---   0.9 Scattered Clouds/
25/08/2006 12:20      32.0  21.0  34.9  31.6  52  1009   ---   WSW    21    21   ---   0.9 Scattered Clouds/
25/08/2006 13:20      30.0  24.0  35.1  29.2  70  1009   ---     W    13    13   ---   0.9 Scattered Clouds/
25/08/2006 14:50      28.0  24.0  31.9  25.1  79  1009   ---     W    40    40   ---   0.9 Scattered Clouds/
25/08/2006 15:50      28.0  22.0  30.7  25.2  70  1010   ---     W    39    39   ---   0.9 Scattered Clouds/
25/08/2006 16:50      28.0  22.0  30.7  25.9  70  1010   ---     W    21    21   ---   0.7 Few Clouds/
25/08/2006 17:20      28.0  22.0  30.7  25.5  70  1010   ---   WNW    27    27   ---   0.7 Few Clouds/
25/08/2006 18:20      27.0  23.0  29.6  24.4  79  1010   ---   WNW    21    21   ---   0.7 Few Clouds/
25/08/2006 19:20      26.0  22.0  28.3  23.1  79  1010   ---     W    19    19   ---   0.7 Scattered Clouds/
25/08/2006 20:50      25.0  21.0  27.2  22.0  79  1009   ---     W    18    18   ---   0.6 Scattered Clouds/
25/08/2006 21:50      25.0  21.0  27.2  23.4  79  1010   ---     W    10    10   ---   0.6 Scattered Clouds/
25/08/2006 22:50      25.0  21.0  27.2  24.3  79  1010   ---    NW     6     6   ---   0.6 Scattered Clouds/
25/08/2006 23:20      25.0  21.0  27.2  25.0  79  1010   ---     N     2     2   ---   0.6 Scattered Clouds/
26/08/2006 00:20      25.0  20.0  26.9  23.7  74  1011   ---   WSW     8     8   ---   0.6 Scattered Clouds/
26/08/2006 01:50      24.0  20.0  26.2  23.2  78  1011   ---   WNW     6     6   ---   0.6 Scattered Clouds/
26/08/2006 02:50      24.0  20.0  26.2  24.0  78  1010   ---     N     5     5   ---   1.0 Scattered Clouds/
26/08/2006 03:50      25.0  20.0  26.9  23.7  74  1010   ---   WNW     8     8   ---   0.9 Scattered Clouds/
26/08/2006 04:50      24.0  19.0  25.9  22.5  74  1010   ---     W     8     8   ---   0.9 Scattered Clouds/
26/08/2006 05:20      24.0  19.0  25.9  23.2  74  1010   ---     S     6     6   ---   0.9 Scattered Clouds/
26/08/2006 06:20      23.0  19.0  25.2  23.0  78  1010   ---     N     3     3   ---   0.6 Scattered Clouds/
26/08/2006 07:50      25.0  20.0  26.9  24.3  74  1011   ---     S     6     6   ---   0.7 Scattered Clouds/
26/08/2006 09:20      26.0  21.0  27.9  26.0  74  1011   ---     N     2     2   ---   0.7 Scattered Clouds/
26/08/2006 10:50      27.0  21.0  28.8  27.0  70  1012   ---     N     5     5   ---   0.7 Scattered Clouds/
26/08/2006 11:20      27.0  21.0  28.8  27.0  70  1012   ---     N     5     5   ---   0.7 Scattered Clouds/
26/08/2006 12:20      27.0  22.0  29.2  25.8  74  1012   ---   NNW    10    10   ---   0.7 Few Clouds/
26/08/2006 13:20      26.0  21.0  27.9  24.8  74  1012   ---   NNW     8     8   ---   0.7 Few Clouds/
26/08/2006 14:50      27.0  20.0  28.5  26.4  66  1012   ---     N     6     6   ---   0.7 Few Clouds/
26/08/2006 15:50      28.0  20.0  29.7  27.0  62  1012   ---    NW    10    10   ---   0.7 Few Clouds/
26/08/2006 16:50      27.0  20.0  28.5  26.4  66  1012   ---   NNW     6     6   ---   0.7 Few Clouds/
26/08/2006 17:20      28.0  20.0  29.7  27.5  62  1012   ---   NNW     6     6   ---   0.7 Scattered Clouds/
26/08/2006 18:50      27.0  19.0  28.2  26.4  62  1012   ---   NNW     6     6   ---   0.7 Scattered Clouds/
26/08/2006 19:20      26.0  19.0  27.3  26.0  65  1012   ---     N     5     5   ---   0.7 Scattered Clouds/
26/08/2006 20:50      25.0  19.0  26.6  25.0  69  1012   ---     N     5     5   ---   0.7 Scattered Clouds/
26/08/2006 21:50      25.0  21.0  27.2  21.6  79  1012   ---   WNW    21    21   ---   0.7 Scattered Clouds/
26/08/2006 22:50      25.0  20.0  26.9  23.4  74  1012   ---     W    10    10   ---   0.7 Scattered Clouds/
26/08/2006 23:20      25.0  20.0  26.9  23.7  74  1013   ---     W     8     8   ---   0.7 Scattered Clouds/
27/08/2006 00:20      24.0  20.0  26.2  24.0  78  1012   ---     N     3     3   ---   0.7 Few Clouds/
27/08/2006 01:50      24.0  19.0  25.9  23.2  74  1012   ---   SSE     6     6   ---   0.7 Few Clouds/
27/08/2006 02:50      23.0  19.0  25.2  23.0  78  1011   ---     N     5     5   ---   0.7 Few Clouds/
27/08/2006 03:50      23.0  18.0  24.9  23.0  73  1011   ---     N     5     5   ---   0.7 Scattered Clouds/
27/08/2006 04:50      22.0  17.0  23.9  20.2  73  1012   ---   SSW     8     8   ---   0.7 Scattered Clouds/
27/08/2006 05:20      22.0  18.0  24.2  21.0  78  1012   ---   SSW     6     6   ---   0.7 Scattered Clouds/
27/08/2006 06:20      22.0  18.0  24.2  20.2  78  1012   ---     S     8     8   ---   0.7 Scattered Clouds/
27/08/2006 07:50      23.0  18.0  24.9  23.0  73  1011   ---     N     3     3   ---   --- /
27/08/2006 08:50      26.0  16.0  26.7  23.8  54  1011   ---    SW    14    14   ---   --- /
27/08/2006 09:50      27.0  14.0  27.1  25.1  45  1012   ---    SW    14    14   ---   2.4 Broken Clouds/
27/08/2006 10:50      27.0  17.0  27.7  25.3  54  1012   ---     W    13    13   ---   3.6 Broken Clouds/
27/08/2006 11:20      28.0  17.0  28.6  27.0  51  1012   ---     W    10    10   ---   0.9 Broken Clouds/
27/08/2006 12:20      28.0  20.0  29.7  25.9  62  1012   ---     W    21    21   ---   0.7 Broken Clouds/
27/08/2006 13:20      28.0  19.0  29.3  25.4  58  1013   ---   WNW    31    31   ---   0.6 Scattered Clouds/
27/08/2006 14:50      28.0  17.0  28.6  25.3  51  1013   ---     W    32    32   ---   0.6 Scattered Clouds/
27/08/2006 15:50      27.0  17.0  27.7  23.9  54  1013   ---     W    31    31   ---   0.6 Scattered Clouds/
27/08/2006 16:50      26.0  15.0  26.5  22.4  51  1013   ---     W    31    31   ---   0.6 Scattered Clouds/
27/08/2006 17:20      27.0  16.0  27.5  23.8  51  1013   ---     W    32    32   ---   0.6 Scattered Clouds/
27/08/2006 18:20      26.0  18.0  27.1  22.4  61  1013   ---     W    31    31   ---   0.6 Scattered Clouds/
27/08/2006 19:50      25.0  18.0  26.3  21.0  65  1013   ---     W    29    29   ---   0.6 Scattered Clouds/
27/08/2006 20:50      25.0  17.0  26.1  21.0  61  1013   ---     W    29    29   ---   0.6 Scattered Clouds/
27/08/2006 21:50      24.0  19.0  25.9  19.5  74  1013   ---     W    29    29   ---   0.6 Scattered Clouds/
27/08/2006 22:50      24.0  18.0  25.6  19.3  69  1013   ---     W    31    31   ---   0.6 Scattered Clouds/
27/08/2006 23:20      24.0  18.0  25.6  20.1  69  1013   ---   WSW    21    21   ---   0.6 Scattered Clouds/
28/08/2006 00:20      24.0  17.0  25.3  20.1  65  1013   ---   WNW    21    21   ---   0.6 Scattered Clouds/
28/08/2006 01:50      25.0  20.0  26.9  22.8  74  1013   ---     W    13    13   ---   0.6 Scattered Clouds/
28/08/2006 02:50      25.0  15.0  25.7  21.6  54  1013   ---   NNW    21    21   ---   0.6 Scattered Clouds/
28/08/2006 03:50      24.0  17.0  25.3  21.5  65  1013   ---   NNW    13    13   ---   0.6 Scattered Clouds/
28/08/2006 04:50      24.0  17.0  25.3  20.6  65  1013   ---   NNW    18    18   ---   0.6 Scattered Clouds/
28/08/2006 05:20      24.0  17.0  25.3  20.3  65  1013   ---   NNW    19    19   ---   0.7 Scattered Clouds/
28/08/2006 06:20      24.0  19.0  25.9  20.3  74  1013   ---   NNW    19    19   ---   0.7 Scattered Clouds/
28/08/2006 07:50      24.0  20.0  26.2  20.6  78  1014   ---   NNW    18    18   ---   0.7 Broken Clouds/
28/08/2006 08:20      25.0  20.0  26.9  22.1  74  1014   ---   NNW    16    16   ---   0.7 Broken Clouds/
28/08/2006 09:50      26.0  20.0  27.6  23.5  70  1014   ---   NNW    16    16   ---   0.7 Scattered Clouds/
28/08/2006 10:50      25.0  19.0  26.6  23.4  69  1015   ---    NW    10    10   ---   0.7 Scattered Clouds/
28/08/2006 11:20      27.0  19.0  28.2  25.8  62  1015   ---    NW    10    10   ---   0.7 Scattered Clouds/
28/08/2006 12:20      26.0  19.0  27.3  24.6  65  1015   ---   WNW    10    10   ---   0.7 Scattered Clouds/
28/08/2006 13:50      26.0  19.0  27.3  24.6  65  1015   ---   NNW    10    10   ---   0.7 Scattered Clouds/
28/08/2006 14:50      26.0  19.0  27.3  24.8  65  1015   ---   NNW     8     8   ---   0.7 Scattered Clouds/
28/08/2006 15:50      27.0  19.0  28.2  26.0  62  1015   ---    NW     8     8   ---   0.7 Scattered Clouds/
28/08/2006 16:50      27.0  19.0  28.2  26.0  62  1015   ---   WNW     8     8   ---   0.7 Scattered Clouds/
28/08/2006 17:20      26.0  21.0  27.9  23.8  74  1014   ---   WNW    14    14   ---   0.7 Scattered Clouds/
28/08/2006 18:20      25.0  20.0  26.9  21.7  74  1015   ---   WNW    19    19   ---   0.5 Scattered Clouds/
28/08/2006 19:50      24.0  18.0  25.6  20.1  69  1014   ---   WNW    21    21   ---   0.7 Scattered Clouds/
28/08/2006 20:50      24.0  19.0  25.9  20.1  74  1014   ---     W    21    21   ---   0.7 Scattered Clouds/
28/08/2006 21:50      24.0  19.0  25.9  20.6  74  1014   ---   WNW    18    18   ---   0.7 Few Clouds/
28/08/2006 23:20      23.0  18.0  24.9  20.2  73  1014   ---     S    13    13   ---   0.7 Few Clouds/
29/08/2006 00:20      24.0  16.0  25.1  21.5  61  1014   ---   SSW    13    13   ---   0.7 Few Clouds/
29/08/2006 01:50      24.0  14.0  24.6  20.6  54  1013   ---     S    18    18   ---   0.7 Few Clouds/
29/08/2006 02:50      24.0  16.0  25.1  20.3  61  1013   ---     S    19    19   ---   0.7 Few Clouds/
29/08/2006 03:50      24.0  17.0  25.3  21.5  65  1012   ---     S    13    13   ---   0.7 Few Clouds/
29/08/2006 05:00       0.0   0.0   4.0  -9.2 100   ---   ---     S   ---   ---   ---   --- /
29/08/2006 05:20      24.0  18.0  25.6  20.8  69  1013   ---    SW    16    16   ---   0.7 Few Clouds/
29/08/2006 06:20      23.0  19.0  25.2  19.4  78  1012   ---   SSW    16    16   ---   0.6 Scattered Clouds/
29/08/2006 07:20      24.0  20.0  26.2  21.5  78  1013   ---    SW    13    13   ---   0.6 Broken Clouds/
29/08/2006 08:20      24.0  20.0  26.2  19.5  78  1013   ---     W    27    27   ---   0.6 Broken Clouds/
29/08/2006 09:50      25.0  21.0  27.2  21.4  79  1014   ---     W    23    23   ---   0.6 Scattered Clouds/
29/08/2006 10:50      26.0  20.0  27.6  22.6  70  1014   ---     W    26    26   ---   0.6 Scattered Clouds/
29/08/2006 11:20      26.0  21.0  27.9  22.5  74  1014   ---     W    29    29   ---   0.6 Scattered Clouds/
29/08/2006 12:20      27.0  21.0  28.8  24.0  70  1014   ---     W    29    29   ---   0.6 Scattered Clouds/
29/08/2006 13:20      27.0  22.0  29.2  23.8  74  1014   ---     W    32    32   ---   0.6 Scattered Clouds/
29/08/2006 14:50      27.0  21.0  28.8  23.8  70  1014   ---     W    34    34   ---   0.6 Scattered Clouds/
29/08/2006 16:00       0.0   0.0   4.0 -17.7 100   ---   ---     W   ---   ---   ---   --- /
29/08/2006 16:50      27.0  21.0  28.8  23.8  70  1013   ---     W    34    34   ---   0.8 Scattered Clouds/
29/08/2006 17:20      27.0  21.0  28.8  24.1  70  1013   ---     W    26    26   ---   0.8 Scattered Clouds/
29/08/2006 18:20      26.0  21.0  27.9  22.9  74  1013   ---     W    23    23   ---   0.8 Scattered Clouds/
29/08/2006 19:50      26.0  20.0  27.6  22.9  70  1013   ---   WSW    23    23   ---   0.7 Scattered Clouds/
29/08/2006 20:50      26.0  20.0  27.6  23.5  70  1013   ---   WSW    16    16   ---   0.7 Scattered Clouds/
29/08/2006 21:50      25.0  20.0  26.9  21.6  74  1013   ---   WSW    21    21   ---   0.7 Scattered Clouds/
29/08/2006 23:00       0.0   0.0   4.0 -14.2 100   ---   ---   WSW   ---   ---   ---   --- /
29/08/2006 23:20      25.0  21.0  27.2  21.7  79  1013   ---    SW    19    19   ---   0.7 Scattered Clouds/
30/08/2006 00:20      24.0  20.0  26.2  20.0  78  1013   ---    SW    23    23   ---   0.7 Scattered Clouds/
30/08/2006 01:50      24.0  19.0  25.9  20.0  74  1013   ---   SSW    23    23   ---   4.5 Scattered Clouds/
30/08/2006 02:50      24.0  20.0  26.2  20.3  78  1013   ---   SSW    19    19   ---   --- /
30/08/2006 03:50      24.0  20.0  26.2  20.8  78  1013   ---   SSW    16    16   ---   --- /
30/08/2006 04:50      24.0  20.0  26.2  20.3  78  1012   ---   SSW    19    19   ---   --- /
30/08/2006 05:20      24.0  20.0  26.2  20.0  78  1012   ---    SW    23    23   ---   0.6 Few Clouds/
30/08/2006 06:20      23.0  20.0  25.6  19.2  83  1012   ---    SW    18    18   ---   0.6 Few Clouds/
30/08/2006 07:20      24.0  19.0  25.9  20.8  74  1012   ---   WSW    16    16   ---   0.6 Few Clouds/
30/08/2006 08:20      25.0  20.0  26.9  22.8  74  1013   ---    SW    13    13   ---   0.6 Few Clouds/
30/08/2006 09:50      26.0  19.0  27.3  23.5  65  1013   ---    SW    16    16   ---   0.6 Few Clouds/
30/08/2006 10:50      28.0  17.0  28.6  25.9  51  1013   ---    SW    21    21   ---   0.6 Few Clouds/
30/08/2006 11:20      28.0  18.0  28.9  25.9  55  1014   ---    SW    19    19   ---   0.6 Few Clouds/
30/08/2006 12:20      28.0  21.0  30.1  25.5  66  1014   ---   WNW    27    27   ---   --- /
30/08/2006 13:50      28.0  21.0  30.1  25.5  66  1014   ---     W    27    27   ---   0.7 Few Clouds/
30/08/2006 14:50      28.0  20.0  29.7  25.6  62  1014   ---   WNW    26    26   ---   0.7 Few Clouds/
30/08/2006 15:50      29.0  21.0  31.4  27.0  62  1014   ---     W    27    27   ---   0.7 Few Clouds/
30/08/2006 16:50      27.0  21.0  28.8  23.6  70  1014   ---   WNW    39    39   ---   0.7 Few Clouds/
30/08/2006 17:20      27.0  22.0  29.2  23.6  74  1014   ---   WNW    37    37   ---   0.7 Few Clouds/
30/08/2006 18:20      27.0  22.0  29.2  24.4  74  1014   ---     W    21    21   ---   0.7 Few Clouds/
30/08/2006 19:50      25.0  21.0  27.2  21.0  79  1014   ---     W    27    27   ---   0.7 Few Clouds/
30/08/2006 19:50      25.0  21.0  27.2  21.0  79  1014   ---     W    27    27   ---   0.7 Few Clouds/None reported
30/08/2006 20:50      25.0  20.0  26.9  21.6  74  1015   ---     W    21    21   ---   0.5 Scattered Clouds/
30/08/2006 21:50      24.0  20.0  26.2  20.3  78  1015   ---   WNW    19    19   ---   0.5 Scattered Clouds/
30/08/2006 22:50      24.0  20.0  26.2  21.1  78  1015   ---     W    14    14   ---   0.5 Scattered Clouds/
30/08/2006 23:20      24.0  20.0  26.2  21.5  78  1015   ---     W    13    13   ---   0.5 Scattered Clouds/
31/08/2006 00:20      24.0  20.0  26.2  24.0  78  1015   ---     N     3     3   ---   0.5 Few Clouds/
31/08/2006 01:50      23.0  18.0  24.9  21.3  73  1016   ---    NW     8     8   ---   0.5 Few Clouds/
31/08/2006 02:50      24.0  14.0  24.6  20.6  54  1016   ---     N    18    18   ---   --- /
31/08/2006 03:50      23.0  17.0  24.6  19.4  69  1016   ---     N    16    16   ---   0.6 Few Clouds/
31/08/2006 04:50      22.0  16.0  23.6  19.8  69  1016   ---     N    10    10   ---   0.6 Few Clouds/
31/08/2006 05:20      23.0  15.0  24.1  20.2  61  1017   ---     N    13    13   ---   0.6 Few Clouds/
31/08/2006 06:20      22.0  16.0  23.6  18.9  69  1016   ---   NNW    13    13   ---   0.6 Few Clouds/
31/08/2006 07:50      24.0  15.0  24.8  22.2  57  1017   ---     N    10    10   ---   0.6 Few Clouds/
31/08/2006 08:20      24.0  15.0  24.8  21.1  57  1017   ---     N    14    14   ---   0.6 Few Clouds/
31/08/2006 09:50      25.0  14.0  25.5  22.5  51  1018   ---     N    14    14   ---   0.7 Few Clouds/
31/08/2006 10:50      26.0  13.0  26.2  24.6  45  1019   ---   NNW    10    10   ---   0.7 Few Clouds/
31/08/2006 11:20      26.0  13.0  26.2  24.1  45  1019   ---   NNW    13    13   ---   0.7 Few Clouds/
31/08/2006 12:20      26.0  14.0  26.3  24.1  48  1020   ---   NNW    13    13   ---   0.7 Few Clouds/
31/08/2006 13:50      26.0  11.0  25.9  24.8  39  1019   ---   NNW     8     8   ---   0.7 Few Clouds/
31/08/2006 14:50      26.0  14.0  26.3  24.6  48  1020   ---     N    10    10   ---   0.7 Scattered Clouds/
31/08/2006 15:50      26.0  14.0  26.3  22.6  48  1020   ---    NE    26    26   ---   0.7 Scattered Clouds/
31/08/2006 16:50      26.0  15.0  26.5  23.0  51  1020   ---    NE    21    21   ---   0.7 Few Clouds/
31/08/2006 17:20      25.0  14.0  25.5  22.0  51  1020   ---    NE    18    18   ---   0.7 Few Clouds/
31/08/2006 18:50      25.0  14.0  25.5  21.7  51  1020   ---    NE    19    19   ---   0.7 Few Clouds/
31/08/2006 19:50      24.0  14.0  24.6  20.3  54  1019   ---    NE    19    19   ---   0.7 Few Clouds/
31/08/2006 20:50      23.0  13.0  23.6  18.7  53  1020   ---    NE    21    21   ---   --- /
31/08/2006 21:50      23.0  11.0  23.3  18.7  47  1020   ---    NE    21    21   ---   --- /
31/08/2006 22:50      23.0  13.0  23.6  18.2  53  1020   ---    NE    26    26   ---   --- /
31/08/2006 23:20      23.0  13.0  23.6  18.2  53  1021   ---    NE    26    26   ---   --- /
01/09/2006 00:20      23.0  12.0  23.4  18.5  50  1020   ---   ENE    23    23   ---   --- /
01/09/2006 01:20      23.0  12.0  23.4  20.2  50  1020   ---     E    13    13   ---   --- /
01/09/2006 02:50      23.0  12.0  23.4  21.0  50  1020   ---     E    10    10   ---   --- /
01/09/2006 03:50      23.0  12.0  23.4  21.0  50  1020   ---     E    10    10   ---   --- /
01/09/2006 04:50      23.0  13.0  23.6  22.1  53  1020   ---   ESE     6     6   ---   --- /
01/09/2006 05:20      23.0  13.0  23.6  23.0  53  1020   ---     N     2     2   ---   --- /
01/09/2006 06:20      21.0  14.0  22.3  21.0  64  1020   ---     N     3     3   ---   --- /
01/09/2006 07:50      22.0  15.0  23.3  19.8  65  1020   ---    SW    10    10   ---   --- /
01/09/2006 08:20      22.0  14.0  23.0  19.8  61  1020   ---    SW    10    10   ---   --- /
01/09/2006 09:50      25.0  14.0  25.5  24.3  51  1020   ---     W     6     6   ---   --- /
01/09/2006 10:50      25.0  17.0  26.1  23.4  61  1021   ---   NNW    10    10   ---   --- /
01/09/2006 11:20      26.0  15.0  26.5  24.1  51  1021   ---     N    13    13   ---   --- /
01/09/2006 12:20      26.0  10.0  25.8  23.4  37  1021   ---   NNE    18    18   ---   --- /
01/09/2006 13:50      27.0  10.0  26.6  24.0  34  1021   ---    NE    27    27   ---   --- /
01/09/2006 14:50      27.0  11.0  26.7  24.0  37  1020   ---    NE    27    27   ---   --- /
01/09/2006 15:50      26.0  11.0  25.9  22.4  39  1020   ---   ENE    31    31   ---   --- /
01/09/2006 16:50      26.0  10.0  25.8  22.5  37  1019   ---   ENE    29    29   ---   --- /
01/09/2006 17:20      26.0   9.0  25.7  22.4  34  1019   ---   ENE    31    31   ---   --- /
01/09/2006 18:50      25.0   9.0  24.8  21.2  36  1019   ---    NE    26    26   ---   --- /
01/09/2006 19:50      24.0  10.0  24.0  20.1  41  1019   ---   ENE    21    21   ---   --- /
01/09/2006 20:50      24.0  10.0  24.0  20.6  41  1019   ---   ENE    18    18   ---   --- /
01/09/2006 21:50      24.0   9.0  23.9  21.5  39  1019   ---     E    13    13   ---   --- /
01/09/2006 22:50      23.0   8.0  22.9  20.2  38  1019   ---   ENE    13    13   ---   --- /
01/09/2006 23:20      23.0   9.0  23.0  20.2  41  1019   ---   ENE    13    13   ---   --- /
02/09/2006 00:20      23.0  11.0  23.3  21.0  47  1019   ---     E    10    10   ---   --- /
02/09/2006 01:50      23.0  12.0  23.4  21.3  50  1019   ---     E     8     8   ---   --- /
02/09/2006 02:50      23.0  13.0  23.6  22.1  53  1018   ---   ENE     6     6   ---   --- /
02/09/2006 03:50      23.0  14.0  23.8  21.3  57  1018   ---   ENE     8     8   ---   --- /
02/09/2006 04:50      22.0  14.0  23.0  22.0  61  1018   ---     N     3     3   ---   --- /
02/09/2006 05:20      22.0  15.0  23.3  22.0  65  1018   ---     N     5     5   ---   --- /
02/09/2006 07:50      22.0  16.0  23.6  22.0  69  1018   ---     N     3     3   ---   0.9 Scattered Clouds/
02/09/2006 08:50      23.0  16.0  24.3  23.0  65  1018   ---     N     5     5   ---   0.9 Scattered Clouds/
02/09/2006 09:50      24.0  16.0  25.1  24.0  61  1018   ---     N     3     3   ---   0.9 Few Clouds/
02/09/2006 09:50      24.0  16.0  25.1  24.0  61  1018   ---   ---     3     3   ---   0.9 Few Clouds/None reported
02/09/2006 09:50      24.0  16.0  25.1  24.0  61  1018   ---   ---     3     3   ---   0.9 Few Clouds/None reported
02/09/2006 10:50      25.0  16.0  25.9  23.7  57  1019   ---   NNE     8     8   ---   0.9 Few Clouds/
02/09/2006 11:20      25.0  16.0  25.9  22.8  57  1019   ---   NNE    13    13   ---   0.9 Few Clouds/
02/09/2006 12:20      25.0  16.0  25.9  22.5  57  1019   ---   NNE    14    14   ---   0.9 Few Clouds/
02/09/2006 13:20      26.0  17.0  26.9  23.8  58  1019   ---   NNE    14    14   ---   0.9 Few Clouds/
02/09/2006 14:50      26.0  17.0  26.9  23.5  58  1019   ---   SSE    16    16   ---   0.9 Few Clouds/
02/09/2006 15:50      27.0  16.0  27.5  24.4  51  1018   ---   NNE    21    21   ---   --- /
02/09/2006 16:50      26.0  17.0  26.9  23.1  58  1018   ---    NE    19    19   ---   --- /
02/09/2006 17:20      26.0  17.0  26.9  23.1  58  1018   ---    NE    19    19   ---   --- /
02/09/2006 18:20      25.0  16.0  25.9  21.7  57  1018   ---    NE    19    19   ---   --- /
02/09/2006 19:20      25.0  17.0  26.1  21.7  61  1018   ---    NE    19    19   ---   --- /
02/09/2006 20:50      24.0  18.0  25.6  20.8  69  1018   ---    NE    16    16   ---   --- /
02/09/2006 21:50      23.0  17.0  24.6  19.8  69  1019   ---    NE    14    14   ---   --- /
02/09/2006 22:50      23.0  18.0  24.9  20.2  73  1019   ---   ENE    13    13   ---   0.7 Few Clouds/
02/09/2006 23:20      23.0  18.0  24.9  20.2  73  1019   ---   ENE    13    13   ---   0.7 Few Clouds/
03/09/2006 01:50      22.0  18.0  24.2  20.2  78  1019   ---   ENE     8     8   ---   0.7 Few Clouds/
03/09/2006 02:50      23.0  18.0  24.9  21.3  73  1019   ---     E     8     8   ---   0.7 Few Clouds/
03/09/2006 03:50      22.0  17.0  23.9  21.0  73  1019   ---     E     6     6   ---   --- /
03/09/2006 04:50      22.0  17.0  23.9  22.0  73  1019   ---     N     5     5   ---   --- /
03/09/2006 05:20      22.0  17.0  23.9  22.0  73  1019   ---     N     5     5   ---   --- /
03/09/2006 06:20      22.0  17.0  23.9  22.0  73  1019   ---     N     3     3   ---   --- /
03/09/2006 07:50      22.0  18.0  24.2  22.0  78  1020   ---     N     3     3   ---   --- /
03/09/2006 08:50      23.0  18.0  24.9  23.0  73  1020   ---     N     3     3   ---   --- /
03/09/2006 09:50      25.0  17.0  26.1  23.7  61  1020   ---   NNE     8     8   ---   --- /
03/09/2006 09:50      25.0  17.0  26.1  23.7  61  1020   ---   NNE     8     8   ---   --- None reported/None reported
04/09/2006 00:20      23.0  17.0  24.6  23.0  69  1023   ---     N     3     3   ---   --- /
04/09/2006 01:50      21.0  15.0  22.5  21.0  69  1024   ---     N     5     5   ---   --- /
04/09/2006 02:50      21.0  16.0  22.9  21.0  73  1023   ---     N     3     3   ---   --- /
04/09/2006 03:50      20.0  15.0  21.8  20.0  73  1024   ---     N     5     5   ---   --- /
04/09/2006 04:50      20.0  15.0  21.8  20.0  73  1023   ---     N     3     3   ---   --- /
04/09/2006 05:20      20.0  15.0  21.8  20.0  73  1023   ---     N     0     0   ---   --- /
04/09/2006 06:20      20.0  15.0  21.8  20.0  73  1023   ---   ---     5     5   ---   --- /
04/09/2006 07:20      20.0  14.0  21.5  20.0  68  1024   ---     N     3     3   ---   --- /
04/09/2006 08:50      24.0  15.0  24.8  24.0  57  1024   ---     N     3     3   ---   --- /
04/09/2006 09:50      25.0  16.0  25.9  24.3  57  1025   ---     W     6     6   ---   --- /
04/09/2006 10:50      26.0  16.0  26.7  25.4  54  1025   ---     W     6     6   ---   --- /
04/09/2006 11:20      25.0  17.0  26.1  24.3  61  1025   ---    NW     6     6   ---   --- /
04/09/2006 12:20      26.0  19.0  27.3  24.8  65  1025   ---   NNW     8     8   ---   --- /
04/09/2006 13:50      26.0  20.0  27.6  22.9  70  1025   ---    NE    23    23   ---   --- /
04/09/2006 14:50      26.0  21.0  27.9  22.5  74  1025   ---    NE    29    29   ---   --- /
04/09/2006 15:50      26.0  21.0  27.9  22.5  74  1025   ---   ENE    29    29   ---   --- /
04/09/2006 16:50      26.0  20.0  27.6  22.6  70  1024   ---    NE    26    26   ---   --- /
04/09/2006 17:20      26.0  21.0  27.9  22.5  74  1025   ---    NE    27    27   ---   --- /
04/09/2006 18:50      25.0  20.0  26.9  21.0  74  1024   ---    NE    27    27   ---   --- /
04/09/2006 19:50      24.0  20.0  26.2  19.7  78  1024   ---   ENE    26    26   ---   --- /
04/09/2006 20:50      24.0  20.0  26.2  20.8  78  1024   ---   ENE    16    16   ---   --- /
04/09/2006 21:50      24.0  19.0  25.9  22.5  74  1024   ---   ENE     8     8   ---   --- /
04/09/2006 22:50      22.0  18.0  24.2  22.0  78  1024   ---     N     2     2   ---   --- /
04/09/2006 22:50      22.0  18.0  24.2  22.0  78  1024   ---   ---     2     2   ---   --- None reported/None reported
04/09/2006 22:50      22.0  18.0  24.2  22.0  78  1024   ---   ---     2     2   ---   --- None reported/None reported
05/09/2006 07:20      20.0  16.0  22.2  20.0  78  1022   ---     N     5     5   ---   --- /
05/09/2006 08:20      22.0  17.0  23.9  22.0  73  1022   ---     N     5     5   ---   --- /
05/09/2006 09:50      24.0  18.0  25.6  24.0  69  1022   ---     N     5     5   ---   --- /
05/09/2006 10:50      26.0  20.0  27.6  23.1  70  1022   ---   ENE    19    19   ---   --- /
05/09/2006 11:20      26.0  19.0  27.3  23.0  65  1022   ---   ENE    21    21   ---   --- /
05/09/2006 12:20      26.0  19.0  27.3  22.6  65  1022   ---    NE    26    26   ---   --- /
05/09/2006 13:20      26.0  18.0  27.1  22.5  61  1022   ---    NE    27    27   ---   --- /
05/09/2006 14:20      26.0  18.0  27.1  22.4  61  1021   ---    NE    31    31   ---   --- /
05/09/2006 15:20      27.0  19.0  28.2  23.8  62  1020   ---    NE    32    32   ---   --- /
05/09/2006 16:20      26.0  19.0  27.3  22.1  65  1020   ---    NE    37    37   ---   --- /
05/09/2006 17:20      26.0  17.0  26.9  22.1  58  1019   ---   ENE    39    39   ---   --- /
05/09/2006 17:50      26.0  18.0  27.1  22.3  61  1019   ---    NE    32    32   ---   --- /
05/09/2006 19:20      25.0  19.0  26.6  21.0  69  1018   ---   ENE    29    29   ---   --- /
05/09/2006 20:20      24.0  19.0  25.9  19.7  74  1018   ---   ENE    26    26   ---   --- /
05/09/2006 21:20      24.0  20.0  26.2  20.1  78  1019   ---   ENE    21    21   ---   --- /
05/09/2006 22:20      24.0  20.0  26.2  20.6  78  1019   ---   ENE    18    18   ---   --- /
05/09/2006 23:20      24.0  17.0  25.3  20.8  65  1019   ---   ENE    16    16   ---   --- /
06/09/2006 00:20      23.0  19.0  25.2  19.2  78  1019   ---   ENE    18    18   ---   --- /
06/09/2006 01:50      23.0  14.0  23.8  18.9  57  1018   ---   ENE    19    19   ---   --- /
06/09/2006 02:20      23.0  13.0  23.6  18.9  53  1018   ---   ENE    19    19   ---   --- /
06/09/2006 06:20      21.0  14.0  22.3  18.6  64  1016   ---     E    10    10   ---   --- /
06/09/2006 07:20      21.0  15.0  22.5  19.9  69  1017   ---   WSW     6     6   ---   --- /
06/09/2006 08:20      24.0  17.0  25.3  24.0  65  1017   ---     N     3     3   ---   --- /
06/09/2006 09:50      27.0  15.0  27.3  26.0  48  1018   ---   WSW     8     8   ---   --- /
06/09/2006 10:50      28.0  16.0  28.3  26.1  48  1018   ---    NE    18    18   ---   --- /
06/09/2006 11:20      26.0  21.0  27.9  23.0  74  1018   ---   ENE    21    21   ---   --- /
06/09/2006 12:20      27.0  21.0  28.8  24.5  70  1018   ---    NE    19    19   ---   --- /
06/09/2006 13:50      27.0  22.0  29.2  24.1  74  1017   ---   ENE    26    26   ---   --- /
06/09/2006 14:50      27.0  22.0  29.2  24.0  74  1016   ---   ENE    27    27   ---   --- /
06/09/2006 15:50      27.0  23.0  29.6  24.0  79  1016   ---    NE    27    27   ---   --- /
06/09/2006 16:50      27.0  23.0  29.6  24.0  79  1016   ---    NE    29    29   ---   --- /
06/09/2006 17:20      26.0  22.0  28.3  22.6  79  1016   ---   ENE    26    26   ---   --- /
06/09/2006 18:50      26.0  22.0  28.3  23.0  79  1016   ---   ENE    21    21   ---   --- /
06/09/2006 19:50      25.0  21.0  27.2  23.4  79  1016   ---   ENE    10    10   ---   --- /
06/09/2006 20:50       0.0   0.0   4.0  -6.7 100     0   ---   ENE    10    10   ---   --- /
06/09/2006 21:50      24.0  20.0  26.2  23.2  78  1016   ---    SW     6     6   ---   --- /
06/09/2006 23:00       0.0   0.0   4.0  -3.0 100   ---   ---    SW   ---   ---   ---   --- /
06/09/2006 23:20      23.0  19.0  25.2  23.0  78  1016   ---     N     3     3   ---   --- /
07/09/2006 00:20      23.0  19.0  25.2  22.1  78  1016   ---   SSW     6     6   ---   --- /
07/09/2006 01:50      23.0  18.0  24.9  23.0  73  1016   ---     N     2     2   ---   --- /
07/09/2006 02:50      23.0  18.0  24.9  23.0  73  1015   ---     N     5     5   ---   --- /
07/09/2006 03:50      22.0  18.0  24.2  22.0  78  1016   ---     N     5     5   ---   --- /
07/09/2006 04:50      22.0  17.0  23.9  22.0  73  1015   ---     N     5     5   ---   --- /
07/09/2006 05:20      23.0  18.0  24.9  23.0  73  1015   ---     N     3     3   ---   --- /
07/09/2006 06:20      22.0  17.0  23.9  22.0  73  1015   ---     N     5     5   ---   --- /
07/09/2006 07:50      23.0  18.0  24.9  22.1  73  1015   ---    SW     6     6   ---   --- /
07/09/2006 09:00       0.0   0.0   4.0  -3.0 100   ---   ---    SW   ---   ---   ---   --- /
07/09/2006 09:50      27.0  19.0  28.2  26.4  62  1015   ---   WSW     6     6   ---   --- /
07/09/2006 10:50      27.0  21.0  28.8  27.0  70  1016   ---     N     3     3   ---   --- /
07/09/2006 11:20      26.0  21.0  27.9  25.4  74  1016   ---   WNW     6     6   ---   --- /
07/09/2006 12:20      27.0  21.0  28.8  26.4  70  1016   ---   NNW     6     6   ---   --- /
07/09/2006 13:20      28.0  17.0  28.6  27.5  51  1016   ---     N     6     6   ---   --- /
07/09/2006 14:50      29.0  16.0  29.1  28.3  45  1016   ---    SE     8     8   ---   --- /
07/09/2006 15:50      30.0   0.0  28.1  30.0  14  1015   ---     N     5     5   ---   --- /
07/09/2006 16:50      30.0   0.0  28.1  29.7  14  1015   ---   NNE     6     6   ---   --- /
07/09/2006 17:20      30.0   0.0  28.1  29.7  14  1015   ---   NNE     6     6   ---   --- /
07/09/2006 18:20      29.0  10.0  27.9  28.3  31  1015   ---    NE     8     8   ---   --- /
07/09/2006 19:50      27.0  22.0  29.2  26.4  74  1015   ---   WSW     6     6   ---   --- /
07/09/2006 20:50      26.0  21.0  27.9  25.4  74  1015   ---   SSW     6     6   ---   --- /
07/09/2006 21:50      25.0  20.0  26.9  23.4  74  1015   ---   SSW    10    10   ---   --- /
07/09/2006 22:50      24.0  19.0  25.9  23.2  74  1015   ---    SW     6     6   ---   --- /
07/09/2006 23:20      24.0  19.0  25.9  24.0  74  1015   ---     N     5     5   ---   --- /
08/09/2006 00:20      25.0  17.0  26.1  25.0  61  1015   ---     N     3     3   ---   --- /
08/09/2006 01:50      24.0  15.0  24.8  24.0  57  1015   ---     N     3     3   ---   --- /
08/09/2006 02:50      24.0   9.0  23.9  24.0  39  1015   ---     N     3     3   ---   --- /
08/09/2006 03:50      24.0   9.0  23.9  24.0  39  1015   ---     N     3     3   ---   --- /
08/09/2006 04:50      23.0  13.0  23.6  23.0  53  1015   ---     N     3     3   ---   --- /
08/09/2006 05:20      23.0  14.0  23.8  23.0  57  1015   ---     N     2     2   ---   --- /
08/09/2006 06:20      23.0  17.0  24.6  23.0  69  1015   ---     N     3     3   ---   --- /
08/09/2006 06:20      23.0  17.0  24.6  23.0  69  1015   ---   ---     3     3   ---   --- None reported/None reported
08/09/2006 07:50      24.0  16.0  25.1  23.2  61  1015   ---   SSE     6     6   ---   --- /
08/09/2006 08:50       0.0   0.0   4.0   0.0 100     0   ---     N     2     2   ---   6.0 Broken Clouds/
08/09/2006 09:50       0.0   0.0   4.0   0.0 100     0   ---     N     2     2   ---   --- /
08/09/2006 10:50      28.0  15.0  28.0  28.0  45  1016   ---     N     3     3   ---   --- /
08/09/2006 11:20      28.0  13.0  27.6  28.0  40  1016   ---     N     3     3   ---   --- /
08/09/2006 12:20      28.0  12.0  27.5  27.5  37  1016   ---     N     6     6   ---   --- /
08/09/2006 13:20      28.0  14.0  27.8  27.0  42  1016   ---     N    10    10   ---   --- /
08/09/2006 14:50      30.0  12.0  29.0  28.9  33  1016   ---   NNE    16    16   ---   --- /
08/09/2006 15:50      29.0  12.0  28.2  27.7  35  1016   ---   NNE    14    14   ---   --- /
08/09/2006 16:50      28.0  21.0  30.1  27.0  66  1016   ---   NNE    10    10   ---   --- /
08/09/2006 17:20      27.0  22.0  29.2  25.8  74  1015   ---     N    10    10   ---   --- /
08/09/2006 18:20      27.0  22.0  29.2  25.8  74  1015   ---   NNE    10    10   ---   --- /
08/09/2006 19:50      26.0  22.0  28.3  25.4  79  1015   ---   NNE     6     6   ---   --- /
08/09/2006 20:50       0.0   0.0   4.0   0.0 100     0   ---     N     3     3   ---   --- /
08/09/2006 21:50      26.0  21.0  27.9  26.0  74  1016   ---     N     0     0   ---   --- /
08/09/2006 22:50      25.0  21.0  27.2  23.7  79  1016   ---   NNE     8     8   ---   --- /
08/09/2006 23:20      25.0  21.0  27.2  23.4  79  1016   ---   NNE    10    10   ---   --- /
09/09/2006 00:20      25.0  21.0  27.2  22.5  79  1016   ---   NNE    14    14   ---   --- /
09/09/2006 01:50      25.0  21.0  27.2  22.1  79  1016   ---    NE    16    16   ---   0.9 Broken Clouds/
09/09/2006 02:50      25.0  21.0  27.2  21.4  79  1015   ---   ENE    23    23   ---   0.5 Broken Clouds/
09/09/2006 03:50      24.0  21.0  26.6  21.1  83  1015   ---   ENE    14    14   ---   --- /
09/09/2006 04:50      24.0  20.0  26.2  23.2  78  1015   ---     E     6     6   ---   --- /
09/09/2006 05:20      25.0  21.0  27.2  23.4  79  1015   ---    NE    10    10   ---   0.5 Few Clouds/
09/09/2006 06:20      25.0  21.0  27.2  22.1  79  1015   ---    NE    16    16   ---   0.5 Scattered Clouds/
09/09/2006 07:20      25.0  21.0  27.2  22.5  79  1016   ---   ENE    14    14   ---   0.5 Broken Clouds/
09/09/2006 08:20      25.0  21.0  27.2  22.0  79  1016   ---   ENE    18    18   ---   0.5 Broken Clouds/
09/09/2006 09:50      26.0  21.0  27.9  24.1  74  1017   ---   ENE    13    13   ---   0.5 Scattered Clouds/
09/09/2006 10:50      26.0  21.0  27.9  23.4  74  1017   ---    NE    18    18   ---   0.5 Broken Clouds/
09/09/2006 11:20      26.0  21.0  27.9  22.9  74  1017   ---    NE    23    23   ---   0.5 Broken Clouds/
09/09/2006 12:20      27.0  21.0  28.8  24.1  70  1017   ---    NE    26    26   ---   0.5 Broken Clouds/
09/09/2006 13:20      28.0  22.0  30.7  25.4  70  1017   ---    NE    31    31   ---   0.5 Broken Clouds/
09/09/2006 14:50      27.0  23.0  29.6  23.9  79  1016   ---   ENE    31    31   ---   0.5 Broken Clouds/
09/09/2006 15:50      27.0  23.0  29.6  23.8  79  1016   ---    NE    32    32   ---   0.5 Broken Clouds/
09/09/2006 16:50      26.0  22.0  28.3  22.6  79  1016   ---    NE    26    26   ---   0.5 Broken Clouds/
09/09/2006 17:20      26.0  21.0  27.9  22.5  74  1016   ---   ENE    29    29   ---   0.3 Broken Clouds/
09/09/2006 18:20      27.0  22.0  29.2  24.0  74  1016   ---   ENE    27    27   ---   0.5 Broken Clouds/
09/09/2006 19:50      27.0  20.0  28.5  25.3  66  1016   ---   ENE    13    13   ---   0.5 Broken Clouds/
09/09/2006 20:50      26.0  21.0  27.9  24.1  74  1016   ---   WSW    13    13   ---   0.5 Broken Clouds/
09/09/2006 21:50      26.0  21.0  27.9  24.6  74  1017   ---    SW    10    10   ---   0.5 Broken Clouds/
09/09/2006 22:50      26.0  21.0  27.9  24.8  74  1017   ---    SW     8     8   ---   0.5 Broken Clouds/
09/09/2006 23:20      25.0  21.0  27.2  25.0  79  1017   ---     N     2     2   ---   0.5 Broken Clouds/
10/09/2006 00:20      25.0  21.0  27.2  24.3  79  1018   ---     E     6     6   ---   0.5 Broken Clouds/
10/09/2006 01:50      25.0  20.0  26.9  25.0  74  1018   ---     N     5     5   ---   0.5 Broken Clouds/
10/09/2006 02:50      24.0  20.0  26.2  24.0  78  1018   ---     N     0     0   ---   0.5 Broken Clouds/
10/09/2006 03:50      24.0  20.0  26.2  24.0  78  1018   ---   ---     3     3   ---   0.5 Broken Clouds/
10/09/2006 04:50      24.0  20.0  26.2  24.0  78  1018   ---     N     2     2   ---   0.5 Broken Clouds/
10/09/2006 05:20      24.0  19.0  25.9  24.0  74  1018   ---     N     2     2   ---   0.5 Broken Clouds/
10/09/2006 06:20      24.0  20.0  26.2  24.0  78  1018   ---     N     2     2   ---   0.5 Broken Clouds/
10/09/2006 07:50      24.0  20.0  26.2  22.5  78  1019   ---   SSW     8     8   ---   0.5 Broken Clouds/
10/09/2006 09:50      26.0  22.0  28.3  26.0  79  1020   ---     N     3     3   ---   0.5 Broken Clouds/
10/09/2006 10:50      27.0  22.0  29.2  27.0  74  1020   ---     N     5     5   ---   0.5 Broken Clouds/
10/09/2006 11:20      27.0  21.0  28.8  27.0  70  1020   ---     N     5     5   ---   0.5 Scattered Clouds/
10/09/2006 12:20      26.0  22.0  28.3  24.8  79  1020   ---     N     8     8   ---   0.5 Scattered Clouds/
10/09/2006 13:20      26.0  22.0  28.3  26.0  79  1021   ---     N     2     2   ---   0.5 Scattered Clouds/
10/09/2006 14:50      26.0  21.0  27.9  26.0  74  1021   ---     N     3     3   ---   0.5 Broken Clouds/
10/09/2006 15:50      25.0  20.0  26.9  23.7  74  1021   ---     S     8     8   ---   0.4 Broken Clouds/
10/09/2006 16:50      24.0  19.0  25.9  21.5  74  1021   ---     W    13    13   ---   --- Overcast/ Light Rain
10/09/2006 17:20      23.0  19.0  25.2  19.4  78  1021   ---   WNW    16    16   ---   0.4 Broken Clouds/
10/09/2006 18:20      23.0  19.0  25.2  23.0  78  1021   ---     N     3     3   ---   0.5 Broken Clouds/
10/09/2006 19:50      23.0  19.0  25.2  23.0  78  1021   ---     N     3     3   ---   0.5 Broken Clouds/
10/09/2006 20:50      23.0  18.0  24.9  23.0  73  1021   ---     N     2     2   ---   0.5 Broken Clouds/
10/09/2006 21:50      23.0  18.0  24.9  23.0  73  1022   ---     N     5     5   ---   0.6 Broken Clouds/
10/09/2006 22:50      22.0  18.0  24.2  22.0  78  1022   ---     N     2     2   ---   --- /
10/09/2006 23:20      22.0  18.0  24.2  22.0  78  1021   ---     N     5     5   ---   --- /
11/09/2006 00:20      22.0  17.0  23.9  22.0  73  1022   ---     N     0     0   ---   --- /
11/09/2006 01:50      22.0  17.0  23.9  22.0  73  1022   ---   ---     3     3   ---   --- /
11/09/2006 02:50      22.0  17.0  23.9  22.0  73  1022   ---     N     0     0   ---   --- /
11/09/2006 03:50      23.0  18.0  24.9  23.0  73  1022   ---   ---     2     2   ---   --- /
11/09/2006 04:50      21.0  17.0  23.2  21.0  78  1021   ---     N     0     0   ---   --- /
11/09/2006 05:20      21.0  16.0  22.9  21.0  73  1021   ---   ---     3     3   ---   --- /
11/09/2006 06:20      21.0  16.0  22.9  21.0  73  1021   ---     N     3     3   ---   --- /
11/09/2006 07:50      22.0  17.0  23.9  22.0  73  1021   ---     N     3     3   ---   --- /
11/09/2006 08:20      23.0  18.0  24.9  23.0  73  1021   ---     N     3     3   ---   --- /
11/09/2006 09:50      25.0  19.0  26.6  24.3  69  1021   ---   WSW     6     6   ---   0.7 Few Clouds/
11/09/2006 10:50      26.0  18.0  27.1  24.8  61  1022   ---     W     8     8   ---   0.7 Few Clouds/
11/09/2006 11:20      26.0  19.0  27.3  24.8  65  1022   ---   WNW     8     8   ---   0.7 Few Clouds/
11/09/2006 12:20      25.0  20.0  26.9  25.0  74  1022   ---     N     5     5   ---   0.9 Scattered Clouds/
11/09/2006 13:20      26.0  21.0  27.9  25.4  74  1022   ---     N     6     6   ---   0.9 Broken Clouds/
11/09/2006 14:50      25.0  20.0  26.9  25.0  74  1021   ---     N     5     5   ---   0.7 Broken Clouds/
11/09/2006 15:50      25.0  20.0  26.9  25.0  74  1020   ---     N     3     3   ---   0.7 Broken Clouds/
11/09/2006 16:50      26.0  21.0  27.9  26.0  74  1020   ---     N     5     5   ---   0.7 Broken Clouds/
11/09/2006 17:20      26.0  21.0  27.9  26.0  74  1020   ---     N     2     2   ---   0.7 Broken Clouds/
11/09/2006 18:20      25.0  21.0  27.2  25.0  79  1020   ---     N     3     3   ---   0.6 Broken Clouds/
11/09/2006 19:20      25.0  20.0  26.9  25.0  74  1020   ---     N     3     3   ---   0.6 Broken Clouds/
11/09/2006 20:50      21.0  17.0  23.2  19.0  78  1020   ---     W     8     8   ---   0.5 Broken Clouds/
11/09/2006 21:50      21.0  17.0  23.2  21.0  78  1021   ---     N     3     3   ---   0.7 Broken Clouds/
11/09/2006 22:50      21.0  16.0  22.9  21.0  73  1021   ---     N     2     2   ---   0.7 Broken Clouds/
11/09/2006 23:20      21.0  16.0  22.9  21.0  73  1020   ---     N     2     2   ---   0.7 Broken Clouds/
12/09/2006 00:20      21.0  16.0  22.9  21.0  73  1020   ---     N     3     3   ---   0.7 Broken Clouds/
12/09/2006 01:50      21.0  16.0  22.9  21.0  73  1019   ---     N     2     2   ---   0.8 Scattered Clouds/
12/09/2006 02:50      21.0  16.0  22.9  21.0  73  1019   ---     N     3     3   ---   0.8 Scattered Clouds/
12/09/2006 03:50      21.0  16.0  22.9  21.0  73  1019   ---     N     0     0   ---   0.8 Scattered Clouds/
12/09/2006 04:50      21.0  16.0  22.9  21.0  73  1018   ---   ---     2     2   ---   0.8 Scattered Clouds/
12/09/2006 05:20       0.0   0.0   4.0   0.0 100   ---   ---   ---   ---   ---   ---   --- /
12/09/2006 05:50      21.0  16.0  22.9  21.0  73  1019   ---     N     2     2   ---   0.8 Scattered Clouds/
12/09/2006 07:50      21.0  16.0  22.9  21.0  73  1018   ---     N     0     0   ---   0.8 Scattered Clouds/
12/09/2006 08:20      22.0  17.0  23.9  22.0  73  1018   ---   ---     3     3   ---   0.8 Scattered Clouds/
12/09/2006 09:50      24.0  19.0  25.9  24.0  74  1019   ---     N     3     3   ---   0.7 Scattered Clouds/
12/09/2006 10:50      25.0  20.0  26.9  25.0  74  1019   ---     N     3     3   ---   0.7 Scattered Clouds/
12/09/2006 11:20      25.0  20.0  26.9  24.3  74  1019   ---   WSW     6     6   ---   0.7 Scattered Clouds/
12/09/2006 12:20      25.0  20.0  26.9  24.3  74  1019   ---     W     6     6   ---   0.7 Scattered Clouds/
12/09/2006 13:20      27.0  20.0  28.5  26.0  66  1018   ---   ENE     8     8   ---   0.7 Broken Clouds/
12/09/2006 14:50      26.0  20.0  27.6  24.8  70  1018   ---     W     8     8   ---   0.7 Broken Clouds/
12/09/2006 15:50      26.0  16.0  26.7  24.6  54  1018   ---   WSW    10    10   ---   0.7 Broken Clouds/
12/09/2006 16:50      26.0  16.0  26.7  26.0  54  1017   ---     N     5     5   ---   0.7 Broken Clouds/
12/09/2006 17:20      26.0  18.0  27.1  23.4  61  1017   ---    SW    18    18   ---   0.7 Broken Clouds/
12/09/2006 17:20      26.0  18.0  27.1  23.4  61  1017   ---    SW    18    18   ---   0.7 Broken Clouds/None reported
12/09/2006 18:20      24.0  19.0  25.9  22.2  74  1017   ---   WSW    10    10   ---   0.7 Broken Clouds/
12/09/2006 18:50      25.0  19.0  26.6  25.0  69  1017   ---     N     5     5   ---   0.7 Broken Clouds/
12/09/2006 20:50      24.0  19.0  25.9  24.0  74  1017   ---     N     3     3   ---   0.7 Broken Clouds/
12/09/2006 21:50      24.0  19.0  25.9  23.2  74  1017   ---   NNW     6     6   ---   0.7 Broken Clouds/
12/09/2006 22:50      23.0  19.0  25.2  23.0  78  1018   ---     N     5     5   ---   0.7 Broken Clouds/
12/09/2006 23:20      23.0  18.0  24.9  23.0  73  1018   ---     N     5     5   ---   0.7 Broken Clouds/
13/09/2006 00:20      23.0  18.0  24.9  23.0  73  1018   ---     N     5     5   ---   0.7 Broken Clouds/
13/09/2006 01:50      22.0  17.0  23.9  22.0  73  1017   ---     N     5     5   ---   0.7 Few Clouds/
13/09/2006 02:50      21.0  17.0  23.2  21.0  78  1017   ---     N     5     5   ---   --- /
13/09/2006 03:50      21.0  16.0  22.9  19.0  73  1017   ---    SW     8     8   ---   --- /
13/09/2006 04:50      21.0  16.0  22.9  18.6  73  1017   ---   SSW    10    10   ---   --- /
13/09/2006 05:20      20.0  16.0  22.2  17.8  78  1017   ---    SW     8     8   ---   --- /
13/09/2006 06:20      20.0  16.0  22.2  20.0  78  1017   ---     N     5     5   ---   --- /
13/09/2006 07:20      20.0  16.0  22.2  20.0  78  1017   ---     N     0     0   ---   --- /
13/09/2006 08:50      23.0  17.0  24.6  23.0  69  1018   ---   ---     2     2   ---   0.9 Few Clouds/
13/09/2006 09:50      25.0  17.0  26.1  22.0  61  1018   ---   ENE    18    18   ---   --- /
13/09/2006 10:50      25.0  19.0  26.6  22.0  69  1018   ---    NE    18    18   ---   0.8 Few Clouds/
13/09/2006 11:20      26.0  19.0  27.3  23.1  65  1018   ---    NE    19    19   ---   0.8 Few Clouds/
13/09/2006 12:20      27.0  19.0  28.2  25.3  62  1018   ---   NNE    13    13   ---   0.8 Few Clouds/
13/09/2006 13:20      27.0  19.0  28.2  25.1  62  1018   ---    NE    14    14   ---   0.8 Few Clouds/
13/09/2006 14:50      27.0  20.0  28.5  24.5  66  1018   ---   ENE    19    19   ---   0.8 Scattered Clouds/
13/09/2006 15:50      27.0  21.0  28.8  24.7  70  1018   ---    NE    18    18   ---   0.8 Scattered Clouds/
13/09/2006 16:50      27.0  21.0  28.8  24.4  70  1017   ---   ENE    21    21   ---   0.8 Scattered Clouds/
13/09/2006 17:20      27.0  21.0  28.8  24.4  70  1017   ---   ENE    21    21   ---   0.8 Scattered Clouds/
13/09/2006 18:20      26.0  21.0  27.9  23.0  74  1016   ---   ENE    21    21   ---   0.8 Scattered Clouds/
13/09/2006 19:50      25.0  21.0  27.2  23.7  79  1017   ---     E     8     8   ---   0.7 Scattered Clouds/
13/09/2006 20:50      26.0  21.0  27.9  26.0  74  1017   ---     N     2     2   ---   0.7 Scattered Clouds/
13/09/2006 21:50      25.0  21.0  27.2  25.0  79  1017   ---     N     3     3   ---   0.7 Scattered Clouds/
13/09/2006 22:50      25.0  20.0  26.9  24.3  74  1017   ---   SSW     6     6   ---   0.7 Scattered Clouds/
13/09/2006 23:20      24.0  20.0  26.2  21.5  78  1017   ---    SW    13    13   ---   0.7 Scattered Clouds/
14/09/2006 00:20      24.0  20.0  26.2  22.5  78  1017   ---    SW     8     8   ---   0.7 Scattered Clouds/
14/09/2006 01:50      24.0  20.0  26.2  22.2  78  1017   ---     E    10    10   ---   0.8 Few Clouds/
14/09/2006 02:50      23.0  19.0  25.2  23.0  78  1016   ---     N     0     0   ---   0.8 Few Clouds/
14/09/2006 03:50      23.0  18.0  24.9  23.0  73  1016   ---   ---     5     5   ---   0.8 Few Clouds/
14/09/2006 04:50      23.0  18.0  24.9  23.0  73  1015   ---     N     2     2   ---   --- /
14/09/2006 05:20      22.0  18.0  24.2  22.0  78  1015   ---     N     3     3   ---   --- /
14/09/2006 06:20      22.0  18.0  24.2  22.0  78  1014   ---     N     0     0   ---   --- /
14/09/2006 07:20      22.0  18.0  24.2  21.0  78  1014   ---     S     6     6   ---   --- /
14/09/2006 08:50      25.0  20.0  26.9  25.0  74  1014   ---     N     2     2   ---   2.4 Scattered Clouds/
14/09/2006 09:50      26.0  20.0  27.6  24.6  70  1014   ---   ENE    10    10   ---   1.0 Broken Clouds/
14/09/2006 10:50      25.0  20.0  26.9  23.4  74  1013   ---   NNE    10    10   ---   1.0 Broken Clouds/
14/09/2006 11:20      25.0  21.0  27.2  24.3  79  1013   ---   NNE     6     6   ---   1.0 Broken Clouds/
14/09/2006 12:20      28.0  18.0  28.9  27.5  55  1013   ---   NNW     6     6   ---   1.0 Broken Clouds/
14/09/2006 13:50      29.0  19.0  30.3  27.7  55  1012   ---    NE    14    14   ---   1.0 Broken Clouds/
14/09/2006 14:50      29.0  18.0  29.9  28.2  52  1011   ---    NE    10    10   ---   1.0 Broken Clouds/
14/09/2006 15:50      28.0  22.0  30.7  28.0  70  1011   ---     N     2     2   ---   1.0 Overcast/
14/09/2006 16:50      28.0  21.0  30.1  26.2  66  1011   ---    SW    16    16   ---   0.9 Overcast/
14/09/2006 17:20      26.0  22.0  28.3  23.8  79  1011   ---     W    14    14   ---   0.9 Overcast/
14/09/2006 18:20      24.0  20.0  26.2  19.5  78  1012   ---   SSW    27    27   ---   0.5 Overcast/
14/09/2006 19:20      24.0  19.0  25.9  21.5  74  1010   ---     S    13    13   ---   0.7 Broken Clouds/
14/09/2006 20:50      29.0  15.0  28.9  27.6  43  1008   ---     S    16    16   ---   0.7 Broken Clouds/
14/09/2006 21:50      28.0  16.0  28.3  27.0  48  1008   ---     S    10    10   ---   0.7 Scattered Clouds/
14/09/2006 22:50      27.0  19.0  28.2  26.0  62  1008   ---   NNE     8     8   ---   0.7 Scattered Clouds/
14/09/2006 23:20      27.0  19.0  28.2  27.0  62  1008   ---     N     3     3   ---   0.6 Scattered Clouds/
15/09/2006 00:20      25.0  20.0  26.9  21.2  74  1008   ---    SW    26    26   ---   0.6 Scattered Clouds/
15/09/2006 01:50      26.0  20.0  27.6  23.0  70  1008   ---   SSW    21    21   ---   0.7 Broken Clouds/
15/09/2006 02:50      27.0  18.0  27.9  24.5  58  1008   ---    SW    19    19   ---   0.7 Broken Clouds/
15/09/2006 03:50      28.0  18.0  28.9  25.8  55  1008   ---    SW    23    23   ---   0.7 Broken Clouds/
15/09/2006 04:50      24.0  19.0  25.9  19.3  74  1007   ---   WSW    31    31   ---   --- Overcast/ Light Rain
15/09/2006 05:20      23.0  19.0  25.2  17.3  78  1008   ---   WSW    40    40   ---   --- Overcast/ Light Rain
15/09/2006 06:20      22.0  17.0  23.9  17.9  73  1009   ---   SSW    18    18   ---   --- Overcast/ Rain
15/09/2006 07:50      23.0  18.0  24.9  19.4  73  1009   ---   SSW    16    16   ---   0.7 Scattered Clouds/
15/09/2006 08:50      24.0  19.0  25.9  20.8  74  1009   ---     S    16    16   ---   0.7 Scattered Clouds/
15/09/2006 09:50      25.0  20.0  26.9  22.1  74  1010   ---   SSW    16    16   ---   0.7 Few Clouds/
15/09/2006 10:50      26.0  20.0  27.6  23.5  70  1011   ---    SW    16    16   ---   0.7 Few Clouds/
15/09/2006 11:20      26.0  20.0  27.6  23.8  70  1011   ---   WSW    14    14   ---   0.7 Few Clouds/
15/09/2006 12:20      28.0  21.0  30.1  27.2  66  1011   ---   WSW     8     8   ---   0.7 Few Clouds/
15/09/2006 13:50      26.0  21.0  27.9  22.6  74  1011   ---   WNW    26    26   ---   0.7 Few Clouds/
15/09/2006 14:50      26.0  22.0  28.3  23.5  79  1011   ---    NW    16    16   ---   0.7 Few Clouds/
15/09/2006 15:50      26.0  21.0  27.9  24.1  74  1010   ---    NW    13    13   ---   0.5 Few Clouds/
15/09/2006 16:50      26.0  19.0  27.3  24.8  65  1010   ---    NW     8     8   ---   0.5 Scattered Clouds/
15/09/2006 17:20      26.0  20.0  27.6  26.0  70  1010   ---     N     5     5   ---   0.5 Scattered Clouds/
15/09/2006 18:20      25.0  19.0  26.6  23.7  69  1010   ---     N     8     8   ---   0.8 Scattered Clouds/
15/09/2006 19:50      24.0  20.0  26.2  22.2  78  1010   ---    NE    10    10   ---   0.8 Broken Clouds/
15/09/2006 20:50      24.0  20.0  26.2  20.0  78  1011   ---     E    23    23   ---   0.8 Broken Clouds/
15/09/2006 21:50      24.0  20.0  26.2  24.0  78  1011   ---     N     2     2   ---   0.8 Broken Clouds/
15/09/2006 22:50      24.0  20.0  26.2  23.2  78  1011   ---   ENE     6     6   ---   0.8 Broken Clouds/
15/09/2006 23:20      23.0  20.0  25.6  23.0  83  1011   ---     N     3     3   ---   0.8 Broken Clouds/
15/09/2006 23:50      23.0  19.0  25.2  21.3  78  1010   ---     S     8     8   ---   0.7 Broken Clouds/
16/09/2006 01:50      22.0  17.0  23.9  20.2  73  1009   ---    SE     8     8   ---   0.6 Broken Clouds/
16/09/2006 02:50      23.0  18.0  24.9  19.8  73  1008   ---   NNE    14    14   ---   0.6 Scattered Clouds/
16/09/2006 03:50      23.0  18.0  24.9  21.3  73  1007   ---   SSE     8     8   ---   0.5 Broken Clouds/
16/09/2006 04:50      25.0  14.0  25.5  21.0  51  1007   ---   SSW    29    47   ---   --- Overcast/ Rain
16/09/2006 05:20      21.0  16.0  22.9  14.2  73  1008   ---     W    40    40   ---   0.5 Broken Clouds/
16/09/2006 06:20      20.0  15.0  21.8  13.4  73  1008   ---   NNW    29    29   ---   0.5 Broken Clouds/
16/09/2006 07:50      21.0  16.0  22.9  16.7  73  1009   ---   WSW    16    16   ---   0.9 Scattered Clouds/
16/09/2006 08:50      22.0  15.0  23.3  17.9  65  1010   ---   SSW    18    18   ---   0.9 Scattered Clouds/
16/09/2006 09:50      22.0  15.0  23.3  17.9  65  1010   ---   SSW    18    18   ---   0.9 Few Clouds/
16/09/2006 10:50      23.0  14.0  23.8  18.5  57  1010   ---    SW    23    23   ---   0.9 Few Clouds/
16/09/2006 12:20      25.0  14.0  25.5  21.2  51  1011   ---   WSW    26    26   ---   0.9 Few Clouds/
16/09/2006 13:20      25.0  16.0  25.9  20.8  57  1011   ---   WSW    31    31   ---   0.8 Few Clouds/
16/09/2006 14:50      26.0  13.0  26.2  22.2  45  1011   ---    SW    34    34   ---   0.8 Few Clouds/
16/09/2006 15:50      24.0  16.0  25.1  19.5  61  1011   ---    SW    29    29   ---   0.8 Broken Clouds/
16/09/2006 16:50      24.0  18.0  25.6  19.0  69  1011   ---    SW    37    37   ---   0.8 Broken Clouds/
16/09/2006 17:20      24.0  17.0  25.3  19.3  65  1011   ---   WSW    31    31   ---   0.8 Broken Clouds/
16/09/2006 18:20      24.0  16.0  25.1  19.5  61  1011   ---    SW    29    29   ---   0.8 Broken Clouds/
16/09/2006 19:50      23.0  17.0  24.6  18.2  69  1011   ---    SW    26    26   ---   0.8 Scattered Clouds/
16/09/2006 20:50      22.0  17.0  23.9  17.5  73  1012   ---   SSW    19    19   ---   0.8 Scattered Clouds/
16/09/2006 21:50      22.0  17.0  23.9  17.5  73  1012   ---     S    19    19   ---   0.8 Scattered Clouds/
16/09/2006 22:50      22.0  17.0  23.9  17.9  73  1012   ---   SSW    18    18   ---   0.8 Scattered Clouds/
16/09/2006 23:20      22.0  17.0  23.9  17.5  73  1013   ---   SSW    19    19   ---   0.8 Scattered Clouds/
17/09/2006 00:20      22.0  17.0  23.9  17.5  73  1012   ---     S    19    19   ---   0.8 Scattered Clouds/
17/09/2006 01:50      22.0  17.0  23.9  16.7  73  1012   ---     S    26    26   ---   0.5 Scattered Clouds/
17/09/2006 02:50      19.0  15.0  21.2  16.7  78  1013   ---   SSW     8     8   ---   --- / Thunderstorm
17/09/2006 03:50      19.0  14.0  20.8  11.1  73  1014   ---   WSW    39    39   ---   0.5 Broken Clouds/
17/09/2006 04:50      19.0  14.0  20.8  13.2  73  1014   ---     S    19    19   ---   0.7 Broken Clouds/
17/09/2006 05:20      19.0  14.0  20.8  12.7  73  1013   ---     S    23    23   ---   0.7 Scattered Clouds/
17/09/2006 06:20      20.0  14.0  21.5  14.2  68  1013   ---     S    23    23   ---   0.7 Few Clouds/
17/09/2006 07:20      20.0  14.0  21.5  14.2  68  1013   ---     S    23    23   ---   0.7 Scattered Clouds/
17/09/2006 08:50      21.0  16.0  22.9  15.6  73  1014   ---     S    23    23   ---   0.7 Scattered Clouds/
17/09/2006 09:50      23.0  16.0  24.3  18.2  65  1014   ---   SSW    26    26   ---   0.7 Scattered Clouds/
17/09/2006 10:50      23.0  17.0  24.6  18.9  69  1015   ---    SW    19    19   ---   0.7 Scattered Clouds/
17/09/2006 11:20      24.0  17.0  25.3  20.0  65  1015   ---    SW    23    23   ---   0.7 Scattered Clouds/
17/09/2006 12:20      25.0  17.0  26.1  22.1  61  1015   ---   WSW    16    16   ---   0.7 Scattered Clouds/
17/09/2006 13:20      25.0  16.0  25.9  21.2  57  1015   ---    SW    26    26   ---   0.7 Scattered Clouds/
17/09/2006 14:50      25.0  18.0  26.3  20.8  65  1015   ---   WSW    31    31   ---   0.7 Scattered Clouds/
17/09/2006 15:20      25.0  18.0  26.3  20.8  65  1014   ---   WSW    31    31   ---   0.7 Scattered Clouds/
17/09/2006 16:50      24.0  17.0  25.3  19.7  65  1014   ---   WSW    26    26   ---   0.7 Scattered Clouds/
17/09/2006 17:20      25.0  18.0  26.3  21.0  65  1014   ---   WSW    29    29   ---   0.7 Scattered Clouds/
17/09/2006 18:20      24.0  18.0  25.6  20.3  69  1014   ---   WSW    19    19   ---   0.7 Scattered Clouds/
17/09/2006 19:20      24.0  18.0  25.6  20.3  69  1014   ---     W    19    19   ---   0.7 Broken Clouds/
17/09/2006 20:50      23.0  18.0  24.9  19.4  73  1014   ---   WSW    16    16   ---   0.6 Scattered Clouds/
17/09/2006 21:50      22.0  18.0  24.2  18.1  78  1014   ---    SW    16    16   ---   0.6 Scattered Clouds/
17/09/2006 22:50      22.0  17.0  23.9  18.1  73  1014   ---   SSW    16    16   ---   0.6 Scattered Clouds/
17/09/2006 23:20      22.0  17.0  23.9  17.9  73  1014   ---   SSW    18    18   ---   0.7 Scattered Clouds/
18/09/2006 00:20      22.0  18.0  24.2  17.9  78  1014   ---   SSW    18    18   ---   0.7 Scattered Clouds/
18/09/2006 01:50      22.0  18.0  24.2  17.3  78  1014   ---   SSW    21    21   ---   --- / Thunderstorm
18/09/2006 02:50      22.0  17.0  23.9  18.1  73  1014   ---   SSW    16    16   ---   0.6 Scattered Clouds/
18/09/2006 03:50      21.0  17.0  23.2  16.1  78  1013   ---   SSW    19    19   ---   0.6 Scattered Clouds/
18/09/2006 04:50      21.0  17.0  23.2  15.8  78  1013   ---    SW    21    21   ---   0.6 Scattered Clouds/
18/09/2006 05:20      21.0  17.0  23.2  14.9  78  1013   ---     W    29    29   ---   0.6 Scattered Clouds/
18/09/2006 06:20      22.0  17.0  23.9  16.3  73  1013   ---   WNW    31    31   ---   0.7 Scattered Clouds/
18/09/2006 07:50      23.0  18.0  24.9  18.0  73  1013   ---     W    27    27   ---   0.6 Scattered Clouds/
18/09/2006 08:50      23.0  18.0  24.9  17.7  73  1013   ---     W    32    32   ---   0.6 Broken Clouds/
18/09/2006 09:50      23.0  18.0  24.9  18.0  73  1013   ---     W    29    29   ---   0.6 Broken Clouds/
18/09/2006 11:00       0.0   0.0   4.0 -16.7 100   ---   ---     W   ---   ---   ---   --- /
18/09/2006 11:20      24.0  18.0  25.6  19.2  69  1014   ---     W    34    34   ---   0.6 Broken Clouds/
18/09/2006 12:20      25.0  17.0  26.1  20.7  61  1013   ---     W    32    32   ---   0.6 Scattered Clouds/
18/09/2006 13:20       0.0   0.0   4.0 -17.5 100   ---   ---     W   ---   ---   ---   --- /
18/09/2006 14:50      25.0  18.0  26.3  21.0  65  1013   ---     W    29    29   ---   0.6 Scattered Clouds/
18/09/2006 15:50      24.0  17.0  25.3  19.3  65  1014   ---     W    31    31   ---   0.6 Scattered Clouds/
18/09/2006 16:50      24.0  17.0  25.3  19.2  65  1013   ---     W    34    34   ---   0.7 Scattered Clouds/
18/09/2006 17:20      24.0  17.0  25.3  19.3  65  1013   ---     W    31    31   ---   0.7 Scattered Clouds/
18/09/2006 17:50      23.0  18.0  24.9  17.6  73  1013   ---     W    34    34   ---   0.7 Scattered Clouds/
18/09/2006 19:50      23.0  17.0  24.6  18.0  69  1013   ---     W    27    27   ---   0.6 Scattered Clouds/
18/09/2006 20:50      23.0  18.0  24.9  18.0  73  1014   ---     W    29    29   ---   0.6 Scattered Clouds/
18/09/2006 21:50      23.0  18.0  24.9  18.0  73  1014   ---     W    27    27   ---   0.6 Scattered Clouds/
18/09/2006 22:50      24.0  18.0  25.6  19.2  69  1014   ---     W    32    32   ---   0.6 Scattered Clouds/
18/09/2006 23:50      24.0  17.0  25.3  19.5  65  1014   ---     W    27    27   ---   0.7 Scattered Clouds/
19/09/2006 02:00       0.0   0.0   4.0 -16.4 100   ---   ---     W   ---   ---   ---   --- /
19/09/2006 02:50      23.0  18.0  24.9  18.0  73  1013   ---     W    29    29   ---   0.7 Scattered Clouds/
19/09/2006 04:00       0.0   0.0   4.0 -16.7 100   ---   ---     W   ---   ---   ---   --- /
19/09/2006 04:50      23.0  17.0  24.6  18.2  69  1013   ---     W    26    26   ---   0.7 Scattered Clouds/
19/09/2006 05:20      23.0  17.0  24.6  19.4  69  1013   ---    SW    16    16   ---   0.7 Scattered Clouds/
19/09/2006 06:20      22.0  16.0  23.6  17.3  69  1013   ---     S    21    21   ---   0.7 Scattered Clouds/
19/09/2006 07:50      22.0  17.0  23.9  18.1  73  1014   ---    SW    16    16   ---   0.6 Broken Clouds/
19/09/2006 09:50      24.0  17.0  25.3  20.0  65  1014   ---     W    23    23   ---   0.6 Scattered Clouds/
19/09/2006 10:50      24.0  17.0  25.3  20.1  65  1015   ---     W    21    21   ---   0.6 Scattered Clouds/
19/09/2006 11:20      24.0  17.0  25.3  20.1  65  1015   ---   WSW    21    21   ---   0.6 Scattered Clouds/
19/09/2006 12:20      25.0  18.0  26.3  21.6  65  1015   ---     W    21    21   ---   0.6 Scattered Clouds/
19/09/2006 14:00       0.0   0.0   4.0 -14.2 100   ---   ---     W   ---   ---   ---   --- /
19/09/2006 14:00      24.0  19.0  25.9  24.0  74   ---   ---         ---   ---   ---   --- None reported/None reported
19/09/2006 14:00      24.0  19.0  25.9  24.0  74   ---   ---         ---   ---   ---   --- None reported/None reported
19/09/2006 14:00      24.0  19.0  25.9  24.0  74   ---   ---         ---   ---   ---   --- None reported/None reported
19/09/2006 14:00      24.0  19.0  25.9  24.0  74   ---   ---         ---   ---   ---   --- None reported/None reported
19/09/2006 16:50      24.0  20.0  26.2  19.3  78  1014   ---     W    31    31   ---   0.7 Scattered Clouds/
19/09/2006 17:20      24.0  18.0  25.6  19.5  69  1014   ---     W    29    29   ---   0.7 Scattered Clouds/
19/09/2006 17:50      24.0  18.0  25.6  19.5  69  1014   ---     W    29    29   ---   0.7 Scattered Clouds/
19/09/2006 19:20      24.0  17.0  25.3  19.5  65  1014   ---     W    27    27   ---   0.7 Scattered Clouds/
19/09/2006 20:50      24.0  17.0  25.3  20.3  65  1014   ---     W    19    19   ---   0.7 Scattered Clouds/
19/09/2006 21:50      24.0  18.0  25.6  20.3  69  1015   ---     W    19    19   ---   0.7 Scattered Clouds/
19/09/2006 22:50      24.0  18.0  25.6  20.6  69  1015   ---     W    18    18   ---   0.7 Scattered Clouds/
19/09/2006 23:20       0.0   0.0   4.0 -12.4 100   ---   ---     W   ---   ---   ---   --- /
20/09/2006 00:20      23.0  17.0  24.6  21.3  69  1015   ---    SW     8     8   ---   0.7 Scattered Clouds/
20/09/2006 01:50      23.0  17.0  24.6  19.8  69  1015   ---    SW    14    14   ---   0.7 Scattered Clouds/
20/09/2006 02:50      22.0  17.0  23.9  17.1  73  1014   ---    NW    23    23   ---   --- Overcast/ Light Rain
20/09/2006 03:50      23.0  18.0  24.9  23.0  73  1015   ---   SSW     5     5   ---   0.7 Scattered Clouds/
20/09/2006 04:50      22.0  18.0  24.2  21.0  78  1015   ---     S     6     6   ---   0.6 Scattered Clouds/
20/09/2006 05:20      22.0  18.0  24.2  21.0  78  1015   ---     S     6     6   ---   0.7 Scattered Clouds/
20/09/2006 06:20      21.0  18.0  23.6  19.9  83  1015   ---   SSE     6     6   ---   0.6 Scattered Clouds/
20/09/2006 07:20       0.0   0.0   4.0  -3.0 100   ---   ---   SSE   ---   ---   ---   --- /
20/09/2006 08:50      23.0  17.0  24.6  22.1  69  1017   ---   SSW     6     6   ---   0.7 Scattered Clouds/
20/09/2006 09:50      23.0  17.0  24.6  23.0  69  1017   ---   WNW     5     5   ---   0.7 Scattered Clouds/
20/09/2006 10:50      24.0  18.0  25.6  24.0  69  1018   ---    NW     5     5   ---   0.7 Broken Clouds/
20/09/2006 11:20      24.0  18.0  25.6  22.5  69  1018   ---   NNW     8     8   ---   0.7 Broken Clouds/
20/09/2006 12:20      24.0  17.0  25.3  23.2  65  1018   ---   NNE     6     6   ---   0.7 Scattered Clouds/
20/09/2006 13:20      25.0  18.0  26.3  23.4  65  1018   ---   NNE    10    10   ---   0.7 Scattered Clouds/
20/09/2006 14:50      25.0  18.0  26.3  23.7  65  1018   ---     N     8     8   ---   0.7 Scattered Clouds/
20/09/2006 15:50      25.0  18.0  26.3  23.7  65  1017   ---     N     8     8   ---   0.7 Few Clouds/
20/09/2006 16:50      25.0  18.0  26.3  22.8  65  1018   ---   NNE    13    13   ---   0.7 Few Clouds/
20/09/2006 17:20      25.0  18.0  26.3  22.8  65  1018   ---   NNE    13    13   ---   0.7 Few Clouds/
20/09/2006 18:20      24.0  18.0  25.6  21.1  69  1017   ---   NNE    14    14   ---   0.7 Few Clouds/
20/09/2006 19:50      24.0  18.0  25.6  21.1  69  1017   ---    NE    14    14   ---   0.6 Scattered Clouds/
20/09/2006 21:00       0.0   0.0   4.0 -10.5 100   ---   ---    NE   ---   ---   ---   --- /
20/09/2006 21:50      23.0  18.0  24.9  20.2  73  1018   ---   ENE    13    13   ---   0.6 Scattered Clouds/
20/09/2006 22:50      23.0  18.0  24.9  19.8  73  1018   ---   ENE    14    14   ---   0.6 Scattered Clouds/
20/09/2006 23:20      22.0  18.0  24.2  19.8  78  1018   ---   ENE    10    10   ---   0.6 Scattered Clouds/
21/09/2006 00:20      22.0  18.0  24.2  18.9  78  1018   ---   ENE    13    13   ---   0.6 Scattered Clouds/
21/09/2006 01:50      21.0  17.0  23.2  19.0  78  1018   ---   ENE     8     8   ---   0.6 Scattered Clouds/
21/09/2006 02:50      21.0  17.0  23.2  18.6  78  1018   ---   ENE    10    10   ---   0.7 Scattered Clouds/
21/09/2006 03:50      21.0  17.0  23.2  17.7  78  1017   ---   ENE    13    13   ---   0.7 Few Clouds/
21/09/2006 04:50      21.0  17.0  23.2  18.6  78  1017   ---     E    10    10   ---   --- /
21/09/2006 05:20      22.0  17.0  23.9  17.9  73  1017   ---     E    18    18   ---   --- /
21/09/2006 06:50      21.0  17.0  23.2  21.0  78  1017   ---     E     5     5   ---   0.7 Scattered Clouds/
21/09/2006 07:50      21.0  17.0  23.2  19.9  78  1018   ---     S     6     6   ---   0.7 Few Clouds/
21/09/2006 09:00       0.0   0.0   4.0  -3.0 100   ---   ---     S   ---   ---   ---   --- /
21/09/2006 09:50      23.0  17.0  24.6  23.0  69  1018   ---    SW     5     5   ---   --- /
21/09/2006 10:50      24.0  18.0  25.6  24.0  69  1019   ---    SW     5     5   ---   0.6 Few Clouds/
21/09/2006 11:20      24.0  18.0  25.6  24.0  69  1019   ---    SW     5     5   ---   0.6 Few Clouds/
21/09/2006 12:20      25.0  19.0  26.6  22.0  69  1018   ---    NE    18    18   ---   0.6 Few Clouds/
21/09/2006 13:20      25.0  19.0  26.6  22.0  69  1018   ---    NE    18    18   ---   0.6 Few Clouds/
21/09/2006 15:50      25.0  20.0  26.9  21.0  74  1016   ---   ENE    27    27   ---   0.6 Few Clouds/
21/09/2006 16:50      25.0  20.0  26.9  21.0  74  1016   ---   ENE    29    29   ---   0.6 Few Clouds/
21/09/2006 17:20      25.0  20.0  26.9  21.0  74  1016   ---   ENE    29    29   ---   0.6 Few Clouds/
21/09/2006 18:50      24.0  20.0  26.2  19.5  78  1015   ---   ENE    29    29   ---   0.6 Few Clouds/
21/09/2006 19:50      24.0  19.0  25.9  19.5  74  1015   ---   ENE    27    27   ---   0.6 Few Clouds/
21/09/2006 20:20      24.0  17.0  25.3  20.6  65  1015   ---   ENE    18    18   ---   0.6 Few Clouds/
21/09/2006 21:50      23.0  14.0  23.8  20.2  57  1016   ---   ENE    13    13   ---   0.6 Few Clouds/
21/09/2006 22:50      22.0  14.0  23.0  22.0  61  1016   ---     N     5     5   ---   0.6 Few Clouds/
21/09/2006 23:20      22.0  17.0  23.9  22.0  73  1016   ---     N     2     2   ---   0.6 Few Clouds/
22/09/2006 00:20      21.0  16.0  22.9  21.0  73  1016   ---     N     5     5   ---   --- /
22/09/2006 01:50      21.0  17.0  23.2  21.0  78  1016   ---     N     3     3   ---   --- /
22/09/2006 02:50      20.0  16.0  22.2  20.0  78  1016   ---     N     3     3   ---   --- /
22/09/2006 03:50      19.0  15.0  21.2  19.0  78  1016   ---     N     5     5   ---   --- /
22/09/2006 04:50      19.0  14.0  20.8  19.0  73  1016   ---     N     3     3   ---   --- /
22/09/2006 05:20      19.0  14.0  20.8  19.0  73  1015   ---     N     2     2   ---   --- /
22/09/2006 06:20      20.0  13.0  21.3  20.0  64  1015   ---     N     3     3   ---   --- /
22/09/2006 07:50      19.0  14.0  20.8  19.0  73  1015   ---     N     3     3   ---   --- /
22/09/2006 08:20      20.0  14.0  21.5  20.0  68  1016   ---     N     5     5   ---   --- /
22/09/2006 09:50      24.0  14.0  24.6  23.2  54  1016   ---     N     6     6   ---   --- /
22/09/2006 10:50      25.0  16.0  25.9  22.5  57  1017   ---   NNE    14    14   ---   --- /
22/09/2006 11:20      25.0  16.0  25.9  22.1  57  1017   ---   NNE    16    16   ---   --- /
22/09/2006 12:20      25.0  17.0  26.1  22.1  61  1016   ---    NE    16    16   ---   0.8 Few Clouds/
22/09/2006 13:20      25.0  17.0  26.1  22.1  61  1016   ---   NNE    16    16   ---   0.8 Few Clouds/
22/09/2006 14:50      26.0  16.0  26.7  23.5  54  1016   ---    NE    16    16   ---   --- /
22/09/2006 15:50      25.0  15.0  25.7  22.1  54  1015   ---    NE    16    16   ---   --- /
22/09/2006 15:50      25.0  15.0  25.7  22.1  54  1015   ---    NE    16    16   ---   --- None reported/None reported
22/09/2006 16:50      25.0  18.0  26.3  21.7  65  1015   ---    NE    19    19   ---   --- /
22/09/2006 17:20      25.0  17.0  26.1  21.6  61  1015   ---   ENE    21    21   ---   --- /
22/09/2006 18:20      25.0  18.0  26.3  21.2  65  1015   ---   ENE    26    26   ---   --- /
22/09/2006 18:20      25.0  18.0  26.3  21.2  65  1015   ---   ENE    26    26   ---   --- None reported/None reported
22/09/2006 19:50      24.0  18.0  25.6  20.1  69  1014   ---   ENE    21    21   ---   --- /
22/09/2006 20:50      23.0  18.0  24.9  19.8  73  1015   ---   ENE    14    14   ---   --- /
22/09/2006 21:50      23.0  16.0  24.3  19.4  65  1015   ---     E    16    16   ---   --- /
22/09/2006 22:50      23.0  15.0  24.1  21.0  61  1015   ---     E    10    10   ---   --- /
22/09/2006 23:20      22.0  15.0  23.3  22.0  65  1015   ---     N     2     2   ---   --- /
23/09/2006 00:20      21.0  17.0  23.2  21.0  78  1015   ---     N     5     5   ---   --- /
23/09/2006 01:20      20.0  16.0  22.2  18.8  78  1015   ---     S     6     6   ---   --- /
23/09/2006 02:50      19.0  15.0  21.2  19.0  78  1014   ---     N     5     5   ---   --- /
23/09/2006 03:50      19.0  14.0  20.8  19.0  73  1014   ---     N     3     3   ---   --- /
23/09/2006 04:50      21.0  13.0  22.0  21.0  60  1014   ---     N     5     5   ---   --- /
23/09/2006 05:20      20.0  16.0  22.2  20.0  78  1013   ---     N     5     5   ---   --- /
23/09/2006 06:20      20.0  15.0  21.8  20.0  73  1014   ---     N     2     2   ---   --- /
23/09/2006 07:20      19.0  15.0  21.2  19.0  78  1013   ---     N     2     2   ---   --- /
23/09/2006 08:50      21.0  15.0  22.5  21.0  69  1014   ---     N     2     2   ---   --- /
23/09/2006 09:50      24.0  16.0  25.1  24.0  61  1014   ---     N     3     3   ---   --- /
23/09/2006 09:50      24.0  16.0  25.1  24.0  61  1014   ---   ---     3     3   ---   --- None reported/None reported
23/09/2006 09:50      24.0  16.0  25.1  24.0  61  1014   ---   ---     3     3   ---   --- None reported/None reported
23/09/2006 11:20      25.0  14.0  25.5  23.4  51  1014   ---   NNE    10    10   ---   --- /
23/09/2006 12:20      25.0  15.0  25.7  22.5  54  1014   ---    NE    14    14   ---   --- /
23/09/2006 12:50      26.0  17.0  26.9  23.4  58  1014   ---    NE    18    18   ---   --- /
23/09/2006 14:50      26.0  19.0  27.3  23.0  65  1013   ---    NE    21    21   ---   --- /
23/09/2006 15:50      25.0  17.0  26.1  21.6  61  1013   ---    NE    21    21   ---   --- /
23/09/2006 16:50      25.0  16.0  25.9  21.6  57  1013   ---    NE    21    21   ---   --- /
23/09/2006 17:20      25.0  17.0  26.1  21.2  61  1012   ---    NE    26    26   ---   --- /
23/09/2006 18:20      24.0  17.0  25.3  19.7  65  1012   ---   ENE    26    26   ---   --- /
23/09/2006 19:20      23.0  18.0  24.9  18.5  73  1012   ---   ENE    23    23   ---   --- /
23/09/2006 20:50      23.0  18.0  24.9  18.9  73  1012   ---   ENE    19    19   ---   --- /
23/09/2006 21:50      23.0  17.0  24.6  18.9  69  1012   ---   ENE    19    19   ---   --- /
23/09/2006 22:50      22.0  16.0  23.6  18.1  69  1012   ---   ENE    16    16   ---   --- /
23/09/2006 23:20      21.0  16.0  22.9  16.5  73  1013   ---   ENE    18    18   ---   --- /
24/09/2006 00:20      21.0  16.0  22.9  19.0  73  1013   ---   SSE     8     8   ---   --- /
24/09/2006 01:50      20.0  16.0  22.2  20.0  78  1013   ---     N     3     3   ---   --- /
24/09/2006 02:50      21.0  16.0  22.9  21.0  73  1013   ---     N     3     3   ---   --- /
24/09/2006 03:50      19.0  15.0  21.2  19.0  78  1013   ---     N     3     3   ---   --- /
24/09/2006 04:50      19.0  15.0  21.2  19.0  78  1013   ---     N     5     5   ---   --- /
24/09/2006 05:20      19.0  15.0  21.2  19.0  78  1013   ---     N     3     3   ---   --- /
24/09/2006 06:20      18.0  14.0  20.2  18.0  77  1013   ---     N     3     3   ---   --- /
24/09/2006 07:20      19.0  14.0  20.8  19.0  73  1013   ---     N     5     5   ---   --- /
24/09/2006 08:20      21.0  15.0  22.5  21.0  69  1013   ---     N     3     3   ---   --- /
24/09/2006 09:50      24.0  13.0  24.5  23.2  50  1014   ---    SW     6     6   ---   --- /
24/09/2006 10:50      24.0  15.0  24.8  24.0  57  1014   ---     N     5     5   ---   --- /
24/09/2006 11:20      25.0  15.0  25.7  23.7  54  1014   ---   NNE     8     8   ---   --- /
24/09/2006 12:20      26.0  15.0  26.5  24.1  51  1015   ---   NNE    13    13   ---   --- /
24/09/2006 13:50      26.0  16.0  26.7  23.1  54  1015   ---    NE    19    19   ---   --- /
24/09/2006 13:50      26.0  16.0  26.7  23.1  54  1015   ---    NE    19    19   ---   --- None reported/None reported
24/09/2006 14:50      25.0  17.0  26.1  21.2  61  1014   ---    NE    26    26   ---   --- /
24/09/2006 15:50      25.0  20.0  26.9  21.2  74  1014   ---   ENE    26    26   ---   --- /
24/09/2006 16:50      26.0  20.0  27.6  23.4  70  1013   ---   ENE    18    18   ---   --- /
24/09/2006 17:20      25.0  20.0  26.9  22.5  74  1013   ---   ENE    14    14   ---   --- /
24/09/2006 18:20      25.0  21.0  27.2  22.5  79  1014   ---     E    14    14   ---   --- /
24/09/2006 19:50      24.0  20.0  26.2  24.0  78  1013   ---     N     3     3   ---   --- /
24/09/2006 20:50      23.0  18.0  24.9  21.3  73  1014   ---    SW     8     8   ---   --- /
24/09/2006 21:50      23.0  18.0  24.9  23.0  73  1014   ---     N     3     3   ---   --- /
24/09/2006 22:50      23.0  18.0  24.9  23.0  73  1013   ---     N     2     2   ---   0.8 Few Clouds/
24/09/2006 23:20      22.0  18.0  24.2  20.2  78  1014   ---   SSW     8     8   ---   --- /
25/09/2006 00:20      22.0  18.0  24.2  22.0  78  1014   ---     N     5     5   ---   --- /
25/09/2006 01:50      21.0  17.0  23.2  19.0  78  1014   ---   SSW     8     8   ---   --- /
25/09/2006 02:50      21.0  17.0  23.2  21.0  78  1013   ---     N     3     3   ---   --- /
25/09/2006 03:50      20.0  16.0  22.2  20.0  78  1013   ---     N     3     3   ---   --- /
25/09/2006 04:50      20.0  16.0  22.2  20.0  78  1011   ---     N     5     5   ---   --- /
25/09/2006 05:20      23.0  17.0  24.6  21.0  69  1011   ---     E    10    10   ---   --- /
25/09/2006 06:20      22.0  17.0  23.9  18.9  73  1011   ---   SSE    13    13   ---   --- /
25/09/2006 07:50      23.0  17.0  24.6  21.3  69  1012   ---     S     8     8   ---   0.7 Scattered Clouds/
25/09/2006 08:20      23.0  17.0  24.6  21.3  69  1012   ---     S     8     8   ---   0.7 Scattered Clouds/
25/09/2006 09:50      23.0  17.0  24.6  23.0  69  1013   ---     N     5     5   ---   0.6 Broken Clouds/
25/09/2006 10:50      24.0  16.0  25.1  20.1  61  1011   ---   ESE    21    21   ---   0.6 Broken Clouds/
25/09/2006 11:20       0.0   0.0   4.0 -14.2 100   ---   ---   ESE   ---   ---   ---   --- /
25/09/2006 12:20      21.0  17.0  23.2  17.2  78  1013   ---   NNE    14    14   ---   0.5 Broken Clouds/
25/09/2006 13:50      21.0  16.0  22.9  17.2  73  1011   ---    NE    14    14   ---   0.7 Broken Clouds/
25/09/2006 14:50      23.0  18.0  24.9  19.4  73  1010   ---   SSW    16    16   ---   0.7 Broken Clouds/
25/09/2006 15:50      23.0  18.0  24.9  19.4  73  1009   ---   WSW    16    16   ---   0.7 Scattered Clouds/
25/09/2006 16:50      25.0  19.0  26.6  22.1  69  1009   ---    SW    16    16   ---   0.7 Broken Clouds/
25/09/2006 17:20      24.0  19.0  25.9  21.1  74  1009   ---     W    14    14   ---   0.7 Broken Clouds/
25/09/2006 18:50      24.0  19.0  25.9  24.0  74  1009   ---     N     5     5   ---   0.7 Broken Clouds/
25/09/2006 19:50      24.0  19.0  25.9  22.5  74  1009   ---   SSW     8     8   ---   0.7 Broken Clouds/
25/09/2006 20:50      24.0  19.0  25.9  21.1  74  1009   ---   WSW    14    14   ---   0.7 Broken Clouds/
25/09/2006 21:50      22.0  17.0  23.9  17.5  73  1009   ---    SW    19    19   ---   0.6 Scattered Clouds/
25/09/2006 22:50      23.0  18.0  24.9  19.2  73  1009   ---   WSW    18    18   ---   0.6 Scattered Clouds/
25/09/2006 23:20      22.0  18.0  24.2  17.9  78  1009   ---    SW    18    18   ---   0.6 Scattered Clouds/
26/09/2006 00:50      21.0  16.0  22.9  15.2  73  1008   ---   SSW    26    26   ---   0.6 Scattered Clouds/
26/09/2006 01:50      22.0  17.0  23.9  15.7  73  1008   ---     W    42    42   ---   0.6 Scattered Clouds/
26/09/2006 02:50      22.0  17.0  23.9  15.8  73  1008   ---     W    39    39   ---   0.6 Scattered Clouds/
26/09/2006 03:50      22.0  17.0  23.9  15.7  73  1007   ---     W    42    42   ---   0.7 Scattered Clouds/
26/09/2006 04:50      21.0  15.0  22.5  14.3  69  1008   ---     W    39    39   ---   0.7 Scattered Clouds/
26/09/2006 05:20      21.0  15.0  22.5  14.2  69  1007   ---     W    40    40   ---   0.7 Scattered Clouds/
26/09/2006 06:20      21.0  15.0  22.5  14.1  69  1007   ---     W    42    42   ---   0.7 Scattered Clouds/
26/09/2006 07:50      22.0  15.0  23.3  15.8  65  1006   ---     W    39    39   ---   0.7 Broken Clouds/
26/09/2006 08:20      22.0  16.0  23.6  15.8  69  1006   ---     W    39    39   ---   --- Overcast/ Rain Showers
26/09/2006 09:50      22.0  15.0  23.3  15.5  65  1006   ---     W    45    45   ---   0.6 Broken Clouds/
26/09/2006 10:50      22.0  16.0  23.6  15.3  69  1005   ---     W    50    50   ---   --- Overcast/ Light Rain
26/09/2006 11:20      22.0  16.0  23.6  15.5  69  1005   ---     W    45    45   ---   --- Overcast/ Light Rain
26/09/2006 12:50      22.0  17.0  23.9  15.8  73  1005   ---     W    39    39   ---   --- Overcast/ Light Rain
26/09/2006 13:50      22.0  17.0  23.9  15.7  73  1004   ---     W    42    42   ---   0.4 Broken Clouds/
26/09/2006 14:50      22.0  17.0  23.9  15.7  73  1004   ---     W    40    40   ---   0.4 Broken Clouds/
26/09/2006 15:50      22.0  17.0  23.9  15.7  73  1004   ---     W    42    42   ---   0.4 Broken Clouds/
26/09/2006 16:50      22.0  17.0  23.9  15.7  73  1004   ---     W    40    40   ---   0.4 Broken Clouds/
26/09/2006 17:20      22.0  17.0  23.9  15.7  73  1004   ---     W    42    42   ---   0.4 Broken Clouds/
26/09/2006 18:50      20.0  15.0  21.8  13.0  73  1004   ---    NW    34    34   ---   0.3 Broken Clouds/
26/09/2006 19:50      19.0  14.0  20.8  15.1  73  1004   ---     W    13    13   ---   --- Overcast/ Rain
26/09/2006 20:50      20.0  15.0  21.8  13.5  73  1005   ---    NW    27    27   ---   0.4 Broken Clouds/
26/09/2006 21:50      21.0  16.0  22.9  14.3  73  1005   ---   WNW    37    37   ---   0.4 Broken Clouds/
26/09/2006 22:50      20.0  15.0  21.8  13.0  73  1004   ---     W    34    34   ---   --- Overcast/ Light Rain
26/09/2006 23:20      20.0  15.0  21.8  12.7  73  1004   ---   WNW    37    37   ---   --- Overcast/ Light Rain
27/09/2006 00:50      21.0  16.0  22.9  14.3  73  1005   ---   WNW    37    37   ---   --- Overcast/ Light Rain
27/09/2006 01:50      21.0  16.0  22.9  15.0  73  1004   ---     W    27    27   ---   0.4 Broken Clouds/
27/09/2006 02:50      21.0  16.0  22.9  19.9  73  1004   ---   WSW     6     6   ---   --- Overcast/ Light Rain
27/09/2006 03:50      21.0  16.0  22.9  15.6  73  1003   ---    NW    23    23   ---   --- Overcast/ Light Rain
27/09/2006 04:50      22.0  16.0  23.6  17.1  69  1003   ---    NW    23    23   ---   0.7 Scattered Clouds/
27/09/2006 05:20      21.0  16.0  22.9  15.8  73  1003   ---    NW    21    21   ---   0.7 Scattered Clouds/
27/09/2006 06:20      22.0  16.0  23.6  18.1  69  1004   ---    NW    16    16   ---   0.7 Scattered Clouds/
27/09/2006 07:20      22.0  17.0  23.9  17.9  73  1003   ---   WNW    18    18   ---   0.7 Scattered Clouds/
27/09/2006 08:50      22.0  17.0  23.9  17.3  73  1003   ---   NNW    21    21   ---   0.7 Broken Clouds/
27/09/2006 09:50      23.0  18.0  24.9  18.7  73  1004   ---    NW    21    21   ---   0.6 Scattered Clouds/
27/09/2006 10:50      23.0  18.0  24.9  18.5  73  1005   ---     E    23    23   ---   0.6 Scattered Clouds/
27/09/2006 11:20      23.0  17.0  24.6  18.9  69  1005   ---   WSW    19    19   ---   0.6 Scattered Clouds/
27/09/2006 12:50      24.0  17.0  25.3  20.8  65  1005   ---   WNW    16    16   ---   0.6 Scattered Clouds/
27/09/2006 13:50      24.0  17.0  25.3  20.1  65  1006   ---     N    21    21   ---   0.6 Scattered Clouds/
27/09/2006 14:50      24.0  17.0  25.3  20.3  65  1006   ---   NNW    19    19   ---   0.6 Broken Clouds/
27/09/2006 15:50      24.0  17.0  25.3  19.5  65  1006   ---     N    27    27   ---   0.5 Scattered Clouds/
27/09/2006 16:50      23.0  18.0  24.9  19.2  73  1007   ---     N    18    18   ---   0.5 Scattered Clouds/
27/09/2006 16:50      23.0  18.0  24.9  19.2  73  1007   ---     N    18    18   ---   0.5 Scattered Clouds/None reported
27/09/2006 16:50      23.0  18.0  24.9  19.2  73  1007   ---     N    18    18   ---   0.5 Scattered Clouds/None reported
27/09/2006 16:50      23.0  18.0  24.9  19.2  73  1007   ---     N    18    18   ---   0.5 Scattered Clouds/None reported
27/09/2006 17:20      24.0  17.0  25.3  19.5  65  1006   ---   NNE    27    27   ---   0.5 Scattered Clouds/
27/09/2006 17:20      24.0  17.0  25.3  19.5  65  1006   ---   NNE    27    27   ---   0.5 Scattered Clouds/None reported
27/09/2006 18:50      23.0  18.0  24.9  18.0  73  1007   ---   NNW    27    27   ---   0.5 Scattered Clouds/
27/09/2006 18:50      23.0  18.0  24.9  18.0  73  1007   ---   NNW    27    27   ---   0.5 Scattered Clouds/None reported
27/09/2006 18:50      23.0  18.0  24.9  18.0  73  1007   ---   NNW    27    27   ---   0.5 Scattered Clouds/None reported
27/09/2006 18:50      23.0  18.0  24.9  18.0  73  1007   ---   NNW    27    27   ---   0.5 Scattered Clouds/None reported
27/09/2006 19:50      23.0  18.0  24.9  18.2  73  1007   ---   NNW    26    26   ---   0.5 Broken Clouds/
27/09/2006 20:50      23.0  17.0  24.6  18.7  69  1008   ---   NNW    21    21   ---   0.5 Scattered Clouds/
27/09/2006 21:50      23.0  19.0  25.2  18.7  78  1008   ---   NNW    21    21   ---   0.5 Scattered Clouds/
27/09/2006 22:50      23.0  18.0  24.9  18.7  73  1009   ---   NNW    21    21   ---   0.5 Few Clouds/
27/09/2006 23:20      23.0  18.0  24.9  19.4  73  1009   ---     N    16    16   ---   0.5 Few Clouds/
28/09/2006 00:20      22.0  18.0  24.2  18.5  78  1009   ---   NNW    14    14   ---   0.5 Few Clouds/
28/09/2006 01:50      22.0  17.0  23.9  19.8  73  1009   ---    NW    10    10   ---   0.5 Few Clouds/
28/09/2006 02:50      22.0  17.0  23.9  22.0  73  1009   ---     N     5     5   ---   0.5 Few Clouds/
28/09/2006 03:50      22.0  17.0  23.9  21.0  73  1009   ---     S     6     6   ---   0.5 Few Clouds/
28/09/2006 04:50      22.0  17.0  23.9  22.0  73  1009   ---     N     3     3   ---   0.5 Scattered Clouds/
28/09/2006 05:20      22.0  17.0  23.9  22.0  73  1009   ---     N     5     5   ---   0.5 Scattered Clouds/
28/09/2006 06:50      22.0  17.0  23.9  18.9  73  1010   ---   WSW    13    13   ---   0.7 Scattered Clouds/
28/09/2006 07:50      22.0  17.0  23.9  18.1  73  1010   ---   WNW    16    16   ---   0.5 Broken Clouds/
28/09/2006 08:20      22.0  17.0  23.9  18.9  73  1010   ---   WNW    13    13   ---   0.5 Broken Clouds/
28/09/2006 08:20      22.0  17.0  23.9  18.9  73  1010   ---   WNW    13    13   ---   0.5 Broken Clouds/None reported
28/09/2006 08:20      22.0  17.0  23.9  18.9  73  1010   ---   WNW    13    13   ---   0.5 Broken Clouds/None reported
28/09/2006 09:50      23.0  19.0  25.2  19.4  78  1011   ---    NW    16    16   ---   0.5 Scattered Clouds/
28/09/2006 10:50      24.0  19.0  25.9  20.8  74  1011   ---    NW    16    16   ---   0.5 Scattered Clouds/
28/09/2006 11:20      24.0  19.0  25.9  20.8  74  1012   ---    NW    16    16   ---   0.5 Scattered Clouds/
28/09/2006 12:50      24.0  19.0  25.9  21.5  74  1012   ---    NW    13    13   ---   0.5 Scattered Clouds/
28/09/2006 13:50      25.0  19.0  26.6  22.8  69  1012   ---   WNW    13    13   ---   0.5 Scattered Clouds/
28/09/2006 14:50      24.0  19.0  25.9  21.1  74  1012   ---   WNW    14    14   ---   0.5 Scattered Clouds/
28/09/2006 15:50      25.0  19.0  26.6  22.8  69  1012   ---   WNW    13    13   ---   0.6 Scattered Clouds/
28/09/2006 16:50      24.0  19.0  25.9  21.5  74  1012   ---   WNW    13    13   ---   0.6 Scattered Clouds/
28/09/2006 17:20      25.0  19.0  26.6  23.4  69  1012   ---   WNW    10    10   ---   0.6 Scattered Clouds/
28/09/2006 18:50      23.0  19.0  25.2  20.2  78  1013   ---   WNW    13    13   ---   0.6 Scattered Clouds/
28/09/2006 19:20      23.0  18.0  24.9  21.0  73  1013   ---     W    10    10   ---   0.6 Scattered Clouds/
28/09/2006 20:50      22.0  18.0  24.2  20.2  78  1013   ---     W     8     8   ---   0.6 Scattered Clouds/
28/09/2006 21:50      22.0  17.0  23.9  20.2  73  1013   ---     W     8     8   ---   0.6 Scattered Clouds/
28/09/2006 23:00       0.0   0.0   4.0  -5.5 100   ---   ---     W   ---   ---   ---   --- /
28/09/2006 23:20      21.0  17.0  23.2  21.0  78  1014   ---     N     3     3   ---   0.6 Scattered Clouds/
29/09/2006 00:20      21.0  16.0  22.9  21.0  73  1014   ---     N     5     5   ---   0.6 Scattered Clouds/
29/09/2006 01:50      20.0  15.0  21.8  18.8  73  1014   ---     S     6     6   ---   0.6 Few Clouds/
29/09/2006 03:00       0.0   0.0   4.0  -3.0 100   ---   ---     S   ---   ---   ---   --- /
29/09/2006 04:00       0.0   0.0   4.0  -3.0 100   ---   ---     S   ---   ---   ---   --- /
29/09/2006 04:50      19.0  14.0  20.8  16.2  73  1014   ---     S    10    10   ---   0.6 Few Clouds/
29/09/2006 05:20      19.0  14.0  20.8  17.7  73  1014   ---     S     6     6   ---   0.6 Few Clouds/
29/09/2006 06:50      20.0  15.0  21.8  15.9  73  1014   ---     S    14    14   ---   --- /
29/09/2006 07:20      20.0  15.0  21.8  16.4  73  1014   ---   SSW    13    13   ---   --- /
29/09/2006 08:20      20.0  15.0  21.8  16.4  73  1015   ---   SSW    13    13   ---   --- /
29/09/2006 09:50      23.0  16.0  24.3  20.2  65  1016   ---    SW    13    13   ---   0.7 Few Clouds/
29/09/2006 10:50      24.0  16.0  25.1  21.1  61  1016   ---   SSW    14    14   ---   0.7 Few Clouds/
29/09/2006 11:20      24.0  16.0  25.1  21.5  61  1016   ---    SW    13    13   ---   0.7 Scattered Clouds/
29/09/2006 12:20      24.0  15.0  24.8  22.2  57  1016   ---    SW    10    10   ---   0.7 Scattered Clouds/
29/09/2006 13:20      24.0  17.0  25.3  22.5  65  1017   ---     W     8     8   ---   0.7 Scattered Clouds/
29/09/2006 14:50      24.0  19.0  25.9  22.2  74  1016   ---   WNW    10    10   ---   0.7 Scattered Clouds/
29/09/2006 15:50      25.0  19.0  26.6  22.8  69  1016   ---    NW    13    13   ---   0.7 Few Clouds/
29/09/2006 16:50      24.0  19.0  25.9  21.5  74  1016   ---   WNW    13    13   ---   0.7 Few Clouds/
29/09/2006 17:20      24.0  19.0  25.9  21.1  74  1016   ---    NW    14    14   ---   0.7 Few Clouds/
29/09/2006 18:50      23.0  18.0  24.9  22.1  73  1016   ---    NW     6     6   ---   0.6 Scattered Clouds/
29/09/2006 19:50      23.0  18.0  24.9  23.0  73  1016   ---     N     3     3   ---   0.6 Scattered Clouds/
29/09/2006 20:50      22.0  18.0  24.2  21.0  78  1016   ---     N     6     6   ---   0.7 Scattered Clouds/
29/09/2006 21:50      22.0  17.0  23.9  22.0  73  1017   ---     N     5     5   ---   0.6 Scattered Clouds/
29/09/2006 22:50      21.0  17.0  23.2  21.0  78  1017   ---     N     3     3   ---   0.6 Broken Clouds/
29/09/2006 23:20      21.0  17.0  23.2  21.0  78  1017   ---     N     5     5   ---   0.6 Broken Clouds/
30/09/2006 00:50      20.0  16.0  22.2  18.8  78  1017   ---   SSE     6     6   ---   0.6 Few Clouds/
30/09/2006 01:50      20.0  15.0  21.8  18.8  73  1017   ---   SSE     6     6   ---   0.6 Few Clouds/
30/09/2006 02:50      20.0  15.0  21.8  17.8  73  1017   ---   SSE     8     8   ---   --- /
30/09/2006 03:50      19.0  14.0  20.8  19.0  73  1017   ---     N     3     3   ---   --- /
30/09/2006 04:50      19.0  14.0  20.8  17.7  73  1017   ---     S     6     6   ---   --- /
30/09/2006 05:20      19.0  14.0  20.8  17.7  73  1017   ---     S     6     6   ---   --- /
30/09/2006 06:50      19.0  14.0  20.8  19.0  73  1018   ---     N     3     3   ---   --- /
30/09/2006 07:50      19.0  14.0  20.8  17.7  73  1018   ---     S     6     6   ---   --- /
30/09/2006 08:50      21.0  16.0  22.9  21.0  73  1018   ---     N     3     3   ---   --- /
30/09/2006 09:50      23.0  18.0  24.9  23.0  73  1019   ---     N     3     3   ---   0.7 Few Clouds/
30/09/2006 10:50      23.0  17.0  24.6  23.0  69  1019   ---     N     3     3   ---   0.7 Few Clouds/
30/09/2006 11:20       0.0   0.0   4.0   0.0 100   ---   ---     N   ---   ---   ---   --- /
30/09/2006 11:50      23.0  18.0  24.9  23.0  73  1019   ---     N     5     5   ---   0.7 Few Clouds/
30/09/2006 14:50      24.0  19.0  25.9  20.3  74  1019   ---    NE    19    19   ---   0.7 Few Clouds/
30/09/2006 15:50      24.0  19.0  25.9  20.1  74  1018   ---    NE    21    21   ---   0.7 Few Clouds/
30/09/2006 16:50      24.0  19.0  25.9  20.0  74  1018   ---   ENE    23    23   ---   --- /
30/09/2006 17:20      24.0  19.0  25.9  20.0  74  1018   ---   ENE    23    23   ---   --- /
30/09/2006 18:50      23.0  19.0  25.2  19.2  78  1018   ---   ENE    18    18   ---   --- /
30/09/2006 19:20      23.0  18.0  24.9  19.2  73  1018   ---   ENE    18    18   ---   --- /
30/09/2006 20:50      22.0  18.0  24.2  22.0  78  1019   ---     N     3     3   ---   --- /
30/09/2006 21:50      21.0  17.0  23.2  21.0  78  1019   ---     N     2     2   ---   --- /
30/09/2006 22:50      21.0  17.0  23.2  21.0  78  1019   ---     N     2     2   ---   --- /
30/09/2006 23:20      22.0  17.0  23.9  22.0  73  1019   ---     N     0     0   ---   --- /
01/10/2006 00:50      20.0  16.0  22.2  20.0  78  1019   ---   ---     3     3   ---   --- /
01/10/2006 01:20      21.0  16.0  22.9  21.0  73  1019   ---     N     2     2   ---   --- /
01/10/2006 03:00       0.0   0.0   4.0   0.0 100   ---   ---     N   ---   ---   ---   --- /
01/10/2006 04:00       0.0   0.0   4.0   0.0 100   ---   ---     N   ---   ---   ---   --- /
01/10/2006 04:50      19.0  14.0  20.8  19.0  73  1019   ---     N     3     3   ---   --- /
01/10/2006 05:20      20.0  15.0  21.8  20.0  73  1019   ---     N     3     3   ---   --- /
01/10/2006 06:50      19.0  14.0  20.8  19.0  73  1019   ---     N     5     5   ---   --- /
01/10/2006 07:20      19.0  15.0  21.2  19.0  78  1019   ---     N     5     5   ---   --- /
01/10/2006 08:50      20.0  14.0  21.5  20.0  68  1019   ---     N     2     2   ---   --- /
01/10/2006 10:00       0.0   0.0   4.0   0.0 100   ---   ---     N   ---   ---   ---   --- /
01/10/2006 10:50      24.0  18.0  25.6  24.0  69  1020   ---     N     5     5   ---   --- /
01/10/2006 11:20      24.0  19.0  25.9  24.0  74  1020   ---     N     5     5   ---   --- /
01/10/2006 12:20      25.0  18.0  26.3  25.0  65  1020   ---     N     5     5   ---   --- /
01/10/2006 13:20      25.0  17.0  26.1  24.3  61  1020   ---   NNW     6     6   ---   --- /
01/10/2006 14:50      27.0  12.0  26.8  26.0  39  1020   ---   NNE     8     8   ---   --- /
01/10/2006 15:50      27.0  14.0  27.1  26.0  45  1019   ---    NE     8     8   ---   --- /
01/10/2006 16:50      27.0  17.0  27.7  25.3  54  1019   ---   ENE    13    13   ---   --- /
01/10/2006 17:20      26.0  17.0  26.9  24.6  58  1019   ---    NE    10    10   ---   --- /
01/10/2006 18:50      25.0  18.0  26.3  23.4  65  1019   ---   SSW    10    10   ---   --- /
01/10/2006 19:50      23.0  19.0  25.2  20.2  78  1018   ---    SW    13    13   ---   --- /
01/10/2006 20:50      23.0  19.0  25.2  19.8  78  1019   ---    SW    14    14   ---   --- /
01/10/2006 21:20      22.0  17.0  23.9  18.9  73  1019   ---    SW    13    13   ---   --- /
01/10/2006 22:50      22.0  16.0  23.6  22.0  69  1019   ---     N     3     3   ---   --- /
01/10/2006 23:20      21.0  16.0  22.9  21.0  73  1019   ---     N     2     2   ---   --- /
02/10/2006 00:50      21.0  17.0  23.2  21.0  78  1020   ---     N     2     2   ---   --- /
02/10/2006 01:50      21.0  16.0  22.9  21.0  73  1020   ---     N     2     2   ---   --- /
02/10/2006 02:50      20.0  16.0  22.2  20.0  78  1019   ---     N     5     5   ---   --- /
02/10/2006 04:00       0.0   0.0   4.0   0.0 100   ---   ---     N   ---   ---   ---   --- /
02/10/2006 04:50      20.0  15.0  21.8  20.0  73  1020   ---     N     2     2   ---   --- /
02/10/2006 05:20      19.0  15.0  21.2  19.0  78  1020   ---     N     2     2   ---   --- /
02/10/2006 05:50      19.0  15.0  21.2  19.0  78  1019   ---     N     5     5   ---   --- /
02/10/2006 07:50      19.0  15.0  21.2  19.0  78  1020   ---     N     2     2   ---   --- /
02/10/2006 08:50      22.0  18.0  24.2  22.0  78  1020   ---     N     0     0   ---   --- /
02/10/2006 08:50      22.0  18.0  24.2  22.0  78  1020   ---   ---     0     0   ---   --- None reported/None reported
02/10/2006 08:50      22.0  18.0  24.2  22.0  78  1020   ---   ---     0     0   ---   --- None reported/None reported
03/10/2006 07:50      19.0  14.0  20.8  19.0  73  1017   ---   ---     3     3   ---   --- /
03/10/2006 09:50      25.0  16.0  25.9  25.0  57  1017   ---     N     2     2   ---   --- /
03/10/2006 10:50      26.0  17.0  26.9  24.8  58  1017   ---   NNE     8     8   ---   --- /
03/10/2006 11:20      26.0  16.0  26.7  24.8  54  1017   ---   NNE     8     8   ---   --- /
03/10/2006 12:20      27.0  14.0  27.1  25.8  45  1017   ---    NE    10    10   ---   --- /
03/10/2006 13:50      28.0  14.0  27.8  27.5  42  1016   ---    NE     6     6   ---   4.8 Scattered Clouds/
03/10/2006 14:50      28.0  17.0  28.6  26.6  51  1015   ---   NNE    13    13   ---   1.0 Few Clouds/
03/10/2006 15:50      29.0  20.0  30.8  27.7  58  1014   ---   NNE    14    14   ---   1.0 Few Clouds/
03/10/2006 16:50      29.0  20.0  30.8  28.6  58  1014   ---   NNE     6     6   ---   1.0 Few Clouds/
03/10/2006 17:20      28.0  21.0  30.1  27.5  66  1014   ---    NE     6     6   ---   1.0 Few Clouds/
03/10/2006 18:50      27.0  21.0  28.8  27.0  70  1013   ---     N     3     3   ---   1.0 Few Clouds/
03/10/2006 19:50      31.0   0.0  28.9  30.1  14  1013   ---    SW    21    21   ---   --- /
03/10/2006 20:50      26.0  20.0  27.6  23.5  70  1014   ---    SW    16    16   ---   --- /
03/10/2006 21:50      31.0   0.0  28.9  30.3  14  1014   ---    SW    16    16   ---   --- /
03/10/2006 22:50      31.0   0.0  28.9  30.0  14  1014   ---   SSW    26    26   ---   --- /
03/10/2006 23:20      30.0   0.0  28.1  28.6  14  1014   ---   SSW    26    26   ---   --- /
04/10/2006 00:50      30.0   0.0  28.1  28.6  14  1014   ---   SSW    26    26   ---   --- /
04/10/2006 01:50      30.0   0.0  28.1  28.5  14  1014   ---    SW    27    27   ---   --- /
04/10/2006 02:50      29.0   0.0  27.4  26.6  15  1014   ---   SSW    45    64   ---   --- /
04/10/2006 03:50      29.0   0.0  27.4  26.8  15  1014   ---   SSW    34    55   ---   --- /
04/10/2006 04:50      29.0   0.0  27.4  26.8  15  1013   ---     S    34    53   ---   --- /
04/10/2006 05:20      30.0   0.0  28.1  28.4  14  1013   ---     S    34    34   ---   --- /
04/10/2006 06:50      30.0   0.0  28.1  28.9  14  1012   ---    SW    18    18   ---   4.8 Scattered Clouds/
04/10/2006 07:50      28.0   9.0  27.1  26.1  30  1012   ---   SSW    18    18   ---   4.8 Scattered Clouds/
04/10/2006 08:20      28.0  10.0  27.2  26.4  33  1012   ---    SW    14    14   ---   4.8 Scattered Clouds/
04/10/2006 09:50      27.0  15.0  27.3  24.5  48  1013   ---    SW    19    19   ---   0.7 Scattered Clouds/
04/10/2006 10:50      29.0  17.0  29.5  27.4  48  1013   ---     W    19    19   ---   0.7 Scattered Clouds/
04/10/2006 12:20      30.0  16.0  30.0  28.9  43  1014   ---     S    18    18   ---   0.7 Scattered Clouds/
04/10/2006 13:50      28.0  21.0  30.1  26.4  66  1013   ---    NE    14    14   ---   0.7 Scattered Clouds/
04/10/2006 14:50      27.0  22.0  29.2  26.4  74  1013   ---    NE     6     6   ---   0.7 Scattered Clouds/
04/10/2006 15:50      28.0  21.0  30.1  27.0  66  1013   ---     N    10    10   ---   0.7 Scattered Clouds/
04/10/2006 16:50      27.0  21.0  28.8  26.0  70  1013   ---   NNE     8     8   ---   0.7 Broken Clouds/
04/10/2006 17:20      26.0  22.0  28.3  26.0  79  1014   ---     N     5     5   ---   0.7 Broken Clouds/
04/10/2006 18:50      25.0  20.0  26.9  25.0  74  1014   ---     N     5     5   ---   0.9 Scattered Clouds/
04/10/2006 19:50      25.0  18.0  26.3  25.0  65  1014   ---     N     5     5   ---   0.9 Scattered Clouds/
04/10/2006 21:00       0.0   0.0   4.0   0.0 100   ---   ---     N   ---   ---   ---   --- /
04/10/2006 21:50      24.0  20.0  26.2  24.0  78  1016   ---     N     2     2   ---   0.9 Scattered Clouds/
04/10/2006 22:50      24.0  20.0  26.2  23.2  78  1016   ---    NW     6     6   ---   0.4 Scattered Clouds/
04/10/2006 23:20      24.0  19.0  25.9  22.2  74  1016   ---   WNW    10    10   ---   0.4 Scattered Clouds/
05/10/2006 00:20      24.0  19.0  25.9  24.0  74  1015   ---     N     5     5   ---   0.4 Broken Clouds/
05/10/2006 01:50      24.0  19.0  25.9  23.2  74  1015   ---   NNW     6     6   ---   0.4 Broken Clouds/
05/10/2006 02:50      23.0  18.0  24.9  22.1  73  1016   ---     N     6     6   ---   --- Overcast/ Light Rain
05/10/2006 03:50      23.0  18.0  24.9  19.2  73  1016   ---   NNW    18    18   ---   --- Overcast/ Light Rain
05/10/2006 04:50      22.0  16.0  23.6  18.5  69  1017   ---    NW    14    14   ---   0.5 Broken Clouds/
05/10/2006 05:20      22.0  16.0  23.6  20.2  69  1016   ---    NW     8     8   ---   0.5 Broken Clouds/
05/10/2006 06:20      21.0  16.0  22.9  21.0  73  1015   ---     N     3     3   ---   0.5 Broken Clouds/
05/10/2006 07:50      21.0  17.0  23.2  16.7  78  1017   ---   WNW    16    16   ---   --- Overcast/ Rain
05/10/2006 08:20      21.0  16.0  22.9  21.0  73  1017   ---     N     5     5   ---   --- Overcast/ Light Rain
05/10/2006 09:50      21.0  16.0  22.9  21.0  73  1017   ---     N     5     5   ---   0.8 Broken Clouds/
05/10/2006 10:50      22.0  15.0  23.3  20.2  65  1018   ---     S     8     8   ---   0.8 Broken Clouds/
05/10/2006 11:20      23.0  13.0  23.6  23.0  53  1018   ---     N     5     5   ---   0.8 Broken Clouds/
05/10/2006 12:20      23.0  14.0  23.8  23.0  57  1019   ---     N     5     5   ---   1.0 Broken Clouds/
05/10/2006 13:50      22.0  16.0  23.6  22.0  69  1018   ---     N     5     5   ---   0.8 Broken Clouds/
05/10/2006 14:50      23.0  17.0  24.6  23.0  69  1018   ---     N     3     3   ---   0.7 Broken Clouds/
05/10/2006 15:50      23.0  18.0  24.9  23.0  73  1018   ---     N     3     3   ---   0.5 Broken Clouds/
05/10/2006 16:50      23.0  18.0  24.9  22.1  73  1018   ---   NNE     6     6   ---   0.5 Broken Clouds/
05/10/2006 17:20      23.0  18.0  24.9  19.2  73  1018   ---     N    18    18   ---   0.5 Broken Clouds/
05/10/2006 18:50      22.0  16.0  23.6  18.5  69  1018   ---     N    14    14   ---   0.6 Scattered Clouds/
05/10/2006 19:50      22.0  16.0  23.6  18.9  69  1019   ---   NNE    13    13   ---   0.6 Scattered Clouds/
05/10/2006 20:50      22.0  16.0  23.6  18.9  69  1019   ---   NNE    13    13   ---   0.6 Scattered Clouds/
05/10/2006 21:50      21.0  16.0  22.9  17.2  73  1018   ---   NNE    14    14   ---   0.6 Scattered Clouds/
05/10/2006 22:50      21.0  16.0  22.9  17.7  73  1019   ---   NNE    13    13   ---   0.6 Scattered Clouds/
05/10/2006 23:20      21.0  15.0  22.5  17.7  69  1019   ---   NNE    13    13   ---   0.6 Scattered Clouds/
06/10/2006 00:20      21.0  15.0  22.5  18.6  69  1019   ---    NE    10    10   ---   0.7 Broken Clouds/
06/10/2006 01:50      21.0  16.0  22.9  18.6  73  1019   ---   ENE    10    10   ---   0.7 Broken Clouds/
06/10/2006 02:50      21.0  15.0  22.5  17.2  69  1019   ---    NE    14    14   ---   0.7 Scattered Clouds/
06/10/2006 03:50      21.0  15.0  22.5  18.6  69  1018   ---   ENE    10    10   ---   0.7 Scattered Clouds/
06/10/2006 04:20      21.0  15.0  22.5  19.0  69  1018   ---   ENE     8     8   ---   0.7 Scattered Clouds/
06/10/2006 05:20      21.0  15.0  22.5  17.7  69  1018   ---   ENE    13    13   ---   0.7 Scattered Clouds/
06/10/2006 06:50      20.0  15.0  21.8  17.4  73  1018   ---   ENE    10    10   ---   0.7 Scattered Clouds/
06/10/2006 07:50      20.0  15.0  21.8  17.8  73  1018   ---   ENE     8     8   ---   0.7 Scattered Clouds/
06/10/2006 08:50      21.0  15.0  22.5  16.7  69  1018   ---    NE    16    16   ---   0.7 Scattered Clouds/
06/10/2006 09:20      22.0  15.0  23.3  18.1  65  1018   ---    NE    16    16   ---   0.7 Scattered Clouds/
06/10/2006 10:50      23.0  15.0  24.1  18.9  61  1018   ---    NE    19    19   ---   0.7 Broken Clouds/
06/10/2006 11:20      23.0  15.0  24.1  19.2  61  1019   ---   ENE    18    18   ---   0.7 Broken Clouds/
06/10/2006 11:50      22.0  15.0  23.3  17.9  65  1019   ---    NE    18    18   ---   0.7 Broken Clouds/
06/10/2006 13:50      23.0  15.0  24.1  18.7  61  1019   ---    NE    21    21   ---   0.7 Broken Clouds/
06/10/2006 14:50      24.0  15.0  24.8  20.0  57  1018   ---   ENE    23    23   ---   0.7 Scattered Clouds/
06/10/2006 14:50      24.0  15.0  24.8  20.0  57  1018   ---   ENE    23    23   ---   0.7 Scattered Clouds/None reported
06/10/2006 15:50      23.0  14.0  23.8  18.7  57  1018   ---   ENE    21    21   ---   0.7 Scattered Clouds/
06/10/2006 16:50      23.0  15.0  24.1  18.5  61  1017   ---    NE    23    23   ---   0.7 Scattered Clouds/
06/10/2006 17:20      23.0  15.0  24.1  18.2  61  1017   ---   ENE    26    26   ---   0.7 Scattered Clouds/
06/10/2006 17:20      23.0  15.0  24.1  18.2  61  1017   ---   ENE    26    26   ---   0.7 Scattered Clouds/None reported
06/10/2006 19:00       0.0   0.0   4.0 -15.9 100   ---   ---   ENE   ---   ---   ---   --- /
06/10/2006 19:50      21.0  15.0  22.5  17.2  69  1017   ---   ENE    14    14   ---   0.6 Scattered Clouds/
06/10/2006 20:50      21.0  16.0  22.9  18.6  73  1017   ---   ENE    10    10   ---   0.6 Few Clouds/
06/10/2006 21:50      21.0  16.0  22.9  18.6  73  1017   ---   NNE    10    10   ---   0.7 Few Clouds/
06/10/2006 22:50      21.0  16.0  22.9  18.6  73  1017   ---   NNE    10    10   ---   0.7 Few Clouds/
06/10/2006 23:20      21.0  15.0  22.5  19.9  69  1018   ---   NNE     6     6   ---   0.7 Scattered Clouds/
07/10/2006 00:20      20.0  16.0  22.2  18.8  78  1017   ---   NNW     6     6   ---   0.7 Scattered Clouds/
07/10/2006 01:50      19.0  15.0  21.2  16.2  78  1018   ---    NW    10    10   ---   0.7 Scattered Clouds/
07/10/2006 02:50      18.0  14.0  20.2  16.6  77  1017   ---   NNW     6     6   ---   0.7 Scattered Clouds/
07/10/2006 03:50      18.0  15.0  20.5  18.0  83  1017   ---     N     5     5   ---   0.7 Scattered Clouds/
07/10/2006 04:50      19.0  15.0  21.2  19.0  78  1017   ---     N     5     5   ---   0.7 Scattered Clouds/
07/10/2006 05:20      19.0  15.0  21.2  19.0  78  1017   ---     N     5     5   ---   0.7 Scattered Clouds/
07/10/2006 06:50      19.0  14.0  20.8  19.0  73  1017   ---     N     2     2   ---   0.7 Scattered Clouds/
07/10/2006 07:50      19.0  14.0  20.8  19.0  73  1017   ---     N     5     5   ---   0.7 Scattered Clouds/
07/10/2006 08:50      19.0  15.0  21.2  17.7  78  1017   ---     S     6     6   ---   0.7 Scattered Clouds/
07/10/2006 09:50      22.0  15.0  23.3  21.0  65  1017   ---   SSE     6     6   ---   0.7 Scattered Clouds/
07/10/2006 10:50      23.0  15.0  24.1  23.0  61  1017   ---     N     3     3   ---   0.7 Scattered Clouds/
07/10/2006 11:20      23.0  15.0  24.1  23.0  61  1017   ---     N     5     5   ---   0.7 Scattered Clouds/
07/10/2006 12:20      23.0  15.0  24.1  21.3  61  1017   ---   NNW     8     8   ---   0.7 Scattered Clouds/
07/10/2006 13:50      24.0  15.0  24.8  22.2  57  1017   ---    NW    10    10   ---   0.6 Scattered Clouds/
07/10/2006 14:50      24.0  15.0  24.8  21.5  57  1016   ---    NW    13    13   ---   0.7 Broken Clouds/
07/10/2006 15:50      23.0  14.0  23.8  21.0  57  1016   ---    NW    10    10   ---   0.7 Scattered Clouds/
07/10/2006 16:50      23.0  13.0  23.6  21.3  53  1016   ---   NNW     8     8   ---   0.7 Few Clouds/
07/10/2006 17:20      23.0  15.0  24.1  21.3  61  1016   ---   NNW     8     8   ---   0.7 Few Clouds/
07/10/2006 18:50      22.0  15.0  23.3  22.0  65  1016   ---     N     5     5   ---   0.7 Few Clouds/
07/10/2006 19:50      21.0  15.0  22.5  19.9  69  1016   ---   NNW     6     6   ---   0.7 Scattered Clouds/
07/10/2006 20:50      21.0  16.0  22.9  19.9  73  1016   ---    NW     6     6   ---   0.7 Scattered Clouds/
07/10/2006 21:50      21.0  16.0  22.9  18.6  73  1016   ---    NW    10    10   ---   0.7 Scattered Clouds/
07/10/2006 22:50      21.0  14.0  22.3  19.9  64  1017   ---   NNW     6     6   ---   0.7 Scattered Clouds/
07/10/2006 23:20      20.0  15.0  21.8  18.8  73  1017   ---   NNW     6     6   ---   0.7 Scattered Clouds/
08/10/2006 00:50      19.0  15.0  21.2  16.7  78  1017   ---   SSE     8     8   ---   0.7 Scattered Clouds/
08/10/2006 01:50      19.0  15.0  21.2  15.1  78  1017   ---     S    13    13   ---   1.0 Few Clouds/
08/10/2006 02:50      19.0  15.0  21.2  16.2  78  1016   ---     S    10    10   ---   1.0 Few Clouds/
08/10/2006 03:50      19.0  15.0  21.2  15.1  78  1016   ---     S    13    13   ---   --- /
08/10/2006 04:50      20.0  15.0  21.8  16.4  73  1016   ---     S    13    13   ---   --- /
08/10/2006 05:20      20.0  15.0  21.8  17.8  73  1016   ---   SSW     8     8   ---   0.7 Scattered Clouds/
08/10/2006 06:50      20.0  11.0  20.8  17.4  56  1015   ---     S    10    10   ---   0.7 Scattered Clouds/
08/10/2006 07:50      20.0  12.0  21.0  20.0  60  1015   ---     N     5     5   ---   0.7 Scattered Clouds/
08/10/2006 08:20      21.0  13.0  22.0  17.2  60  1015   ---     S    14    14   ---   0.7 Scattered Clouds/
08/10/2006 09:50      18.0  13.0  19.8  15.5  73  1016   ---     E     8     8   ---   --- / Thunderstorm
08/10/2006 10:50      22.0  16.0  23.6  22.0  69  1016   ---     N     3     3   ---   0.7 Scattered Clouds/
08/10/2006 11:20      22.0  15.0  23.3  22.0  65  1016   ---     N     2     2   ---   0.7 Scattered Clouds/
08/10/2006 12:20      23.0  14.0  23.8  21.0  57  1016   ---     W    10    10   ---   0.7 Scattered Clouds/
08/10/2006 13:50      22.0  15.0  23.3  22.0  65  1016   ---     N     5     5   ---   0.7 Scattered Clouds/
08/10/2006 15:00       0.0   0.0   4.0   0.0 100   ---   ---     N   ---   ---   ---   --- /
08/10/2006 15:50      22.0  14.0  23.0  22.0  61  1015   ---     N     2     2   ---   0.7 Few Clouds/
08/10/2006 16:50      22.0  15.0  23.3  20.2  65  1015   ---   NNE     8     8   ---   0.7 Few Clouds/
08/10/2006 17:20      22.0  16.0  23.6  19.8  69  1015   ---    NE    10    10   ---   0.7 Few Clouds/
08/10/2006 18:50      21.0  16.0  22.9  16.1  73  1015   ---   ENE    19    19   ---   0.7 Few Clouds/
08/10/2006 19:50      20.0  14.0  21.5  15.1  68  1016   ---    NE    18    18   ---   0.7 Few Clouds/
08/10/2006 20:50      20.0  16.0  22.2  15.3  78  1016   ---    NE    16    16   ---   0.7 Few Clouds/
08/10/2006 21:50      20.0  15.0  21.8  14.6  73  1017   ---    NE    19    19   ---   0.7 Few Clouds/
08/10/2006 22:50      21.0  16.0  22.9  16.7  73  1017   ---   ENE    16    16   ---   0.7 Scattered Clouds/
08/10/2006 23:20      21.0  15.0  22.5  16.1  69  1016   ---    NE    19    19   ---   0.7 Scattered Clouds/
09/10/2006 00:20      21.0  15.0  22.5  16.5  69  1017   ---   ENE    18    18   ---   0.7 Scattered Clouds/
09/10/2006 01:50      21.0  16.0  22.9  17.2  73  1016   ---     N    14    14   ---   0.7 Scattered Clouds/
09/10/2006 02:50      21.0  16.0  22.9  15.8  73  1016   ---    NE    21    21   ---   0.6 Broken Clouds/
09/10/2006 03:50      21.0  15.0  22.5  15.8  69  1016   ---    NE    21    21   ---   0.6 Scattered Clouds/
09/10/2006 04:50      21.0  14.0  22.3  16.5  64  1016   ---    NE    18    18   ---   0.7 Scattered Clouds/
09/10/2006 05:20      20.0  15.0  21.8  15.1  73  1016   ---    NE    18    18   ---   0.7 Scattered Clouds/
09/10/2006 06:50      20.0  14.0  21.5  16.4  68  1016   ---    NE    13    13   ---   0.7 Scattered Clouds/
09/10/2006 07:50      21.0  13.0  22.0  15.6  60  1016   ---   NNE    23    23   ---   0.7 Scattered Clouds/
09/10/2006 08:20      21.0  13.0  22.0  16.1  60  1017   ---    NE    19    19   ---   0.7 Scattered Clouds/
09/10/2006 09:50      22.0  14.0  23.0  17.5  61  1017   ---    NE    19    19   ---   0.7 Scattered Clouds/
09/10/2006 10:50      23.0  13.0  23.6  19.4  53  1018   ---    NE    16    16   ---   0.7 Few Clouds/
09/10/2006 11:20      22.0  13.0  22.8  18.5  57  1018   ---    NE    14    14   ---   0.7 Few Clouds/
09/10/2006 12:20      22.0  13.0  22.8  18.5  57  1018   ---    NE    14    14   ---   0.7 Few Clouds/
09/10/2006 13:50      23.0  14.0  23.8  19.8  57  1018   ---   NNE    14    14   ---   0.7 Scattered Clouds/
09/10/2006 14:50      23.0  13.0  23.6  19.8  53  1018   ---   NNE    14    14   ---   0.7 Scattered Clouds/
09/10/2006 15:50      23.0  14.0  23.8  19.2  57  1018   ---   NNE    18    18   ---   0.7 Scattered Clouds/
09/10/2006 16:50      22.0  14.0  23.0  17.9  61  1018   ---   NNE    18    18   ---   0.7 Scattered Clouds/
09/10/2006 17:20      22.0  13.0  22.8  17.5  57  1018   ---   NNE    19    19   ---   0.7 Scattered Clouds/
09/10/2006 18:50      21.0  15.0  22.5  16.1  69  1018   ---    NE    19    19   ---   0.5 Scattered Clouds/
09/10/2006 18:50      21.0  15.0  22.5  16.1  69  1018   ---    NE    19    19   ---   0.5 Scattered Clouds/None reported
09/10/2006 19:50      21.0  15.0  22.5  15.8  69  1018   ---    NE    21    21   ---   0.5 Scattered Clouds/
09/10/2006 20:50      21.0  15.0  22.5  15.8  69  1018   ---   NNE    21    21   ---   0.7 Scattered Clouds/
09/10/2006 21:50      21.0  15.0  22.5  16.1  69  1018   ---    NE    19    19   ---   0.7 Scattered Clouds/
09/10/2006 22:50      21.0  15.0  22.5  16.1  69  1018   ---    NE    19    19   ---   0.7 Scattered Clouds/
09/10/2006 23:20      21.0  16.0  22.9  16.5  73  1018   ---    NE    18    18   ---   0.7 Scattered Clouds/
10/10/2006 00:20      20.0  15.0  21.8  15.3  73  1018   ---   ENE    16    16   ---   0.7 Scattered Clouds/
10/10/2006 01:50      20.0  15.0  21.8  16.4  73  1018   ---   ENE    13    13   ---   0.7 Scattered Clouds/
10/10/2006 02:50      20.0  15.0  21.8  17.8  73  1018   ---     E     8     8   ---   0.7 Scattered Clouds/
10/10/2006 03:50      20.0  14.0  21.5  17.8  68  1017   ---     E     8     8   ---   0.7 Few Clouds/
10/10/2006 04:50      20.0  14.0  21.5  17.8  68  1018   ---     E     8     8   ---   0.7 Few Clouds/
10/10/2006 05:20      20.0  14.0  21.5  17.8  68  1018   ---   ENE     8     8   ---   0.7 Few Clouds/
10/10/2006 06:50      20.0  14.0  21.5  18.8  68  1018   ---    SE     6     6   ---   0.7 Few Clouds/
10/10/2006 07:50      20.0  15.0  21.8  20.0  73  1018   ---     N     2     2   ---   0.7 Scattered Clouds/
10/10/2006 08:20      21.0  15.0  22.5  21.0  69  1018   ---     N     0     0   ---   0.7 Scattered Clouds/
10/10/2006 09:50      21.0  16.0  22.9  21.0  73  1018   ---   ---     5     5   ---   0.7 Scattered Clouds/
10/10/2006 10:50      22.0  16.0  23.6  20.2  69  1019   ---   ENE     8     8   ---   0.7 Scattered Clouds/
10/10/2006 11:20      23.0  16.0  24.3  20.2  65  1018   ---    NE    13    13   ---   0.7 Scattered Clouds/
10/10/2006 12:20      23.0  15.0  24.1  19.8  61  1019   ---    NE    14    14   ---   0.7 Few Clouds/
10/10/2006 13:20      24.0  14.0  24.6  21.5  54  1019   ---    NE    13    13   ---   0.7 Few Clouds/
10/10/2006 14:50      23.0  16.0  24.3  19.8  65  1018   ---    NE    14    14   ---   0.7 Scattered Clouds/
10/10/2006 15:50      23.0  17.0  24.6  19.8  69  1018   ---    NE    14    14   ---   0.7 Scattered Clouds/
10/10/2006 16:50      23.0  16.0  24.3  19.4  65  1017   ---   NNE    16    16   ---   0.7 Scattered Clouds/
10/10/2006 17:20      23.0  16.0  24.3  19.8  65  1017   ---    NE    14    14   ---   0.7 Scattered Clouds/
10/10/2006 18:50      22.0  16.0  23.6  18.5  69  1017   ---   NNE    14    14   ---   0.7 Scattered Clouds/
10/10/2006 19:50      21.0  16.0  22.9  17.2  73  1017   ---   NNE    14    14   ---   0.7 Scattered Clouds/
10/10/2006 20:50      21.0  16.0  22.9  18.6  73  1017   ---   NNE    10    10   ---   0.7 Scattered Clouds/
10/10/2006 21:50      20.0  16.0  22.2  18.8  78  1018   ---   NNE     6     6   ---   0.7 Scattered Clouds/
10/10/2006 22:50      20.0  16.0  22.2  20.0  78  1017   ---     N     3     3   ---   0.7 Scattered Clouds/
10/10/2006 23:20      19.0  15.0  21.2  19.0  78  1017   ---     N     3     3   ---   0.7 Scattered Clouds/
11/10/2006 00:20      19.0  15.0  21.2  19.0  78  1018   ---     N     3     3   ---   0.7 Few Clouds/
11/10/2006 01:50      20.0  16.0  22.2  20.0  78  1018   ---     N     3     3   ---   0.7 Few Clouds/
11/10/2006 02:50      20.0  16.0  22.2  20.0  78  1018   ---     N     3     3   ---   0.7 Few Clouds/
11/10/2006 03:50      18.0  15.0  20.5  18.0  83  1018   ---     N     3     3   ---   0.7 Few Clouds/
11/10/2006 04:50      18.0  15.0  20.5  16.6  83  1017   ---   SSE     6     6   ---   0.7 Few Clouds/
11/10/2006 05:20      18.0  14.0  20.2  18.0  77  1017   ---     N     3     3   ---   0.7 Few Clouds/
11/10/2006 06:50      18.0  13.0  19.8  18.0  73  1017   ---     N     3     3   ---   0.7 Few Clouds/
11/10/2006 07:50      18.0  13.0  19.8  18.0  73  1016   ---     N     5     5   ---   0.7 Few Clouds/
11/10/2006 08:20      17.0  13.0  19.2  17.0  77  1016   ---     N     5     5   ---   0.7 Few Clouds/
11/10/2006 09:50      21.0  15.0  22.5  21.0  69  1017   ---     N     2     2   ---   0.7 Few Clouds/
11/10/2006 10:50      22.0  15.0  23.3  20.2  65  1017   ---     W     8     8   ---   0.7 Few Clouds/
11/10/2006 11:20      22.0  16.0  23.6  22.0  69  1017   ---     N     5     5   ---   0.7 Few Clouds/
11/10/2006 12:20      22.0  16.0  23.6  21.0  69  1016   ---     N     6     6   ---   0.7 Few Clouds/
11/10/2006 13:20      23.0  17.0  24.6  22.1  69  1017   ---     N     6     6   ---   0.7 Few Clouds/
11/10/2006 15:00       0.0   0.0   4.0  -3.0 100   ---   ---     N   ---   ---   ---   --- /
11/10/2006 15:50      23.0  17.0  24.6  19.4  69  1016   ---    NE    16    16   ---   0.7 Few Clouds/
11/10/2006 16:50      22.0  16.0  23.6  17.5  69  1015   ---   ENE    19    19   ---   0.7 Few Clouds/
11/10/2006 17:20      22.0  16.0  23.6  17.5  69  1016   ---    NE    19    19   ---   0.7 Few Clouds/
11/10/2006 20:50      21.0  16.0  22.9  16.7  73  1016   ---   ENE    16    16   ---   0.7 Few Clouds/
11/10/2006 21:50      20.0  16.0  22.2  20.0  78  1016   ---     N     5     5   ---   0.7 Few Clouds/
11/10/2006 22:50      19.0  15.0  21.2  19.0  78  1017   ---     N     5     5   ---   --- /
11/10/2006 23:20      19.0  15.0  21.2  19.0  78  1017   ---     N     5     5   ---   --- /
12/10/2006 00:20      19.0  14.0  20.8  19.0  73  1017   ---     N     2     2   ---   --- /
12/10/2006 01:50      19.0  14.0  20.8  19.0  73  1016   ---     N     5     5   ---   1.0 Few Clouds/
12/10/2006 02:50      19.0  14.0  20.8  19.0  73  1017   ---     N     3     3   ---   --- /
12/10/2006 03:50      19.0  14.0  20.8  19.0  73  1017   ---     N     2     2   ---   --- /
12/10/2006 04:50      18.0  13.0  19.8  18.0  73  1017   ---     N     5     5   ---   --- /
12/10/2006 05:20      18.0  13.0  19.8  18.0  73  1017   ---     N     3     3   ---   --- /
12/10/2006 06:20      18.0  13.0  19.8  18.0  73  1017   ---     N     5     5   ---   --- /
12/10/2006 07:50      18.0  13.0  19.8  18.0  73  1017   ---     N     5     5   ---   --- /
12/10/2006 08:20      18.0  13.0  19.8  18.0  73  1018   ---     N     3     3   ---   --- /
12/10/2006 09:50      21.0  16.0  22.9  21.0  73  1018   ---     N     5     5   ---   0.6 Few Clouds/
12/10/2006 10:50      23.0  17.0  24.6  23.0  69  1019   ---     N     3     3   ---   0.6 Few Clouds/
12/10/2006 11:20      22.0  17.0  23.9  22.0  73  1019   ---     N     2     2   ---   0.6 Few Clouds/
12/10/2006 13:20      23.0  17.0  24.6  21.0  69  1019   ---   NNE    10    10   ---   0.6 Few Clouds/
12/10/2006 14:50      24.0  18.0  25.6  20.6  69  1019   ---    NE    18    18   ---   0.6 Scattered Clouds/
12/10/2006 15:50      23.0  17.0  24.6  18.9  69  1019   ---   ENE    19    19   ---   0.6 Scattered Clouds/
12/10/2006 16:50      23.0  19.0  25.2  19.2  78  1019   ---     E    18    18   ---   0.6 Scattered Clouds/
12/10/2006 17:20      23.0  18.0  24.9  19.8  73  1019   ---    NE    14    14   ---   0.6 Scattered Clouds/
12/10/2006 18:50      22.0  18.0  24.2  19.8  78  1020   ---    NE    10    10   ---   0.8 Broken Clouds/
12/10/2006 19:50      21.0  17.0  23.2  19.9  78  1020   ---   ENE     6     6   ---   0.7 Broken Clouds/
12/10/2006 20:50      21.0  17.0  23.2  21.0  78  1021   ---     N     5     5   ---   0.7 Broken Clouds/
12/10/2006 21:50      20.0  15.0  21.8  18.8  73  1021   ---   SSE     6     6   ---   0.7 Broken Clouds/
12/10/2006 22:50      20.0  15.0  21.8  17.8  73  1021   ---   SSE     8     8   ---   0.7 Broken Clouds/
12/10/2006 23:20      20.0  15.0  21.8  17.8  73  1021   ---   SSE     8     8   ---   0.7 Broken Clouds/
13/10/2006 00:20      20.0  15.0  21.8  20.0  73  1021   ---     N     3     3   ---   0.7 Broken Clouds/
13/10/2006 01:50      18.0  14.0  20.2  16.6  77  1021   ---     S     6     6   ---   0.7 Scattered Clouds/
13/10/2006 02:50      19.0  14.0  20.8  17.7  73  1022   ---     S     6     6   ---   0.7 Few Clouds/
13/10/2006 03:50      18.0  14.0  20.2  16.6  77  1021   ---     S     6     6   ---   0.7 Few Clouds/
13/10/2006 04:50      19.0  14.0  20.8  19.0  73  1022   ---     N     3     3   ---   0.7 Few Clouds/
13/10/2006 05:20      19.0  14.0  20.8  19.0  73  1021   ---     N     3     3   ---   0.7 Few Clouds/
13/10/2006 06:20      18.0  13.0  19.8  16.6  73  1021   ---     S     6     6   ---   0.7 Few Clouds/
13/10/2006 07:50      18.0  13.0  19.8  18.0  73  1021   ---     N     2     2   ---   0.7 Few Clouds/
13/10/2006 08:50      18.0  13.0  19.8  18.0  73  1021   ---     N     0     0   ---   0.7 Few Clouds/
13/10/2006 09:50      21.0  16.0  22.9  19.0  73  1022   ---    SW     8     8   ---   0.7 Few Clouds/
13/10/2006 10:50      22.0  17.0  23.9  22.0  73  1022   ---     N     5     5   ---   0.7 Few Clouds/
13/10/2006 11:20      23.0  16.0  24.3  23.0  65  1022   ---     N     5     5   ---   0.7 Few Clouds/
13/10/2006 12:20      23.0  16.0  24.3  23.0  65  1022   ---     N     5     5   ---   0.7 Few Clouds/
13/10/2006 13:20      23.0  17.0  24.6  22.1  69  1022   ---   NNW     6     6   ---   0.7 Few Clouds/
13/10/2006 14:50      23.0  18.0  24.9  19.4  73  1021   ---    NE    16    16   ---   0.7 Few Clouds/
13/10/2006 15:50      23.0  19.0  25.2  18.9  78  1021   ---   ENE    19    19   ---   0.7 Few Clouds/
13/10/2006 16:50      23.0  18.0  24.9  19.4  73  1021   ---   ENE    16    16   ---   0.7 Scattered Clouds/
13/10/2006 17:20      23.0  18.0  24.9  19.4  73  1020   ---   ENE    16    16   ---   0.6 Scattered Clouds/
13/10/2006 18:50      23.0  18.0  24.9  23.0  73  1021   ---     N     2     2   ---   0.6 Broken Clouds/
13/10/2006 19:50      22.0  17.0  23.9  21.0  73  1020   ---   SSW     6     6   ---   0.6 Broken Clouds/
13/10/2006 20:50      21.0  17.0  23.2  21.0  78  1021   ---     N     2     2   ---   0.6 Broken Clouds/
13/10/2006 21:50      21.0  17.0  23.2  21.0  78  1021   ---     N     5     5   ---   0.6 Broken Clouds/
13/10/2006 22:50      21.0  17.0  23.2  21.0  78  1021   ---     N     3     3   ---   0.6 Broken Clouds/
13/10/2006 23:20      20.0  16.0  22.2  20.0  78  1021   ---     N     2     2   ---   0.6 Broken Clouds/
14/10/2006 00:20      20.0  16.0  22.2  20.0  78  1021   ---     N     0     0   ---   0.6 Broken Clouds/
14/10/2006 01:50      20.0  15.0  21.8  20.0  73  1020   ---   ---     0     0   ---   0.6 Broken Clouds/
14/10/2006 02:50      20.0  15.0  21.8  18.8  73  1020   ---    SE     6     6   ---   0.6 Broken Clouds/
14/10/2006 03:50      20.0  15.0  21.8  20.0  73  1020   ---     N     2     2   ---   0.6 Broken Clouds/
14/10/2006 04:50      20.0  15.0  21.8  16.4  73  1019   ---    SW    13    13   ---   0.6 Broken Clouds/
14/10/2006 05:20      20.0  16.0  22.2  16.4  78  1019   ---    SW    13    13   ---   0.6 Broken Clouds/
14/10/2006 07:00       0.0   0.0   4.0  -9.2 100   ---   ---    SW   ---   ---   ---   --- /
14/10/2006 07:50      20.0  15.0  21.8  20.0  73  1019   ---     N     5     5   ---   0.7 Broken Clouds/
14/10/2006 08:20      20.0  15.0  21.8  20.0  73  1019   ---     N     5     5   ---   0.7 Broken Clouds/
14/10/2006 09:50      22.0  16.0  23.6  22.0  69  1019   ---     N     3     3   ---   0.7 Broken Clouds/
14/10/2006 10:50      22.0  16.0  23.6  21.0  69  1019   ---   NNE     6     6   ---   0.7 Broken Clouds/
14/10/2006 11:20       0.0   0.0   4.0  -3.0 100   ---   ---   NNE   ---   ---   ---   --- /
14/10/2006 12:20      23.0  16.0  24.3  21.0  65  1020   ---   WSW    10    10   ---   0.7 Broken Clouds/
14/10/2006 13:50      23.0  17.0  24.6  19.8  69  1019   ---   WSW    14    14   ---   0.7 Broken Clouds/
14/10/2006 14:50      23.0  17.0  24.6  19.8  69  1019   ---     W    14    14   ---   0.7 Broken Clouds/
14/10/2006 15:50      22.0  17.0  23.9  16.5  73  1018   ---   WNW    27    27   ---   0.7 Overcast/
14/10/2006 16:50      21.0  17.0  23.2  15.8  78  1019   ---     W    21    21   ---   0.4 Overcast/
14/10/2006 17:20      21.0  16.0  22.9  19.0  73  1018   ---   SSW     8     8   ---   0.4 Overcast/
14/10/2006 18:50      21.0  15.0  22.5  21.0  69  1018   ---     N     2     2   ---   0.7 Overcast/
14/10/2006 18:50      21.0  15.0  22.5  21.0  69  1018   ---   ---     2     2   ---   0.7 Overcast/None reported
14/10/2006 19:50      21.0  16.0  22.9  21.0  73  1018   ---     N     0     0   ---   0.7 Overcast/
14/10/2006 20:50      20.0  16.0  22.2  20.0  78  1017   ---   ---     5     5   ---   --- Overcast/ Light Rain
14/10/2006 21:50      20.0  16.0  22.2  20.0  78  1017   ---     N     5     5   ---   0.7 Broken Clouds/
14/10/2006 22:50      20.0  15.0  21.8  18.8  73  1017   ---    SW     6     6   ---   0.7 Broken Clouds/
14/10/2006 23:20      21.0  15.0  22.5  16.1  69  1017   ---     S    19    19   ---   0.7 Broken Clouds/
15/10/2006 00:20      21.0  15.0  22.5  19.9  69  1017   ---     S     6     6   ---   0.7 Broken Clouds/
15/10/2006 01:50      20.0  15.0  21.8  20.0  73  1016   ---     N     5     5   ---   0.7 Broken Clouds/
15/10/2006 02:50      20.0  15.0  21.8  15.9  73  1016   ---   SSW    14    14   ---   0.7 Broken Clouds/
15/10/2006 03:50      20.0  14.0  21.5  15.9  68  1016   ---   SSW    14    14   ---   0.7 Broken Clouds/
15/10/2006 04:50      19.0  14.0  20.8  16.7  73  1015   ---    SW     8     8   ---   0.7 Broken Clouds/
15/10/2006 05:20      19.0  14.0  20.8  17.7  73  1015   ---     E     6     6   ---   0.7 Broken Clouds/
15/10/2006 06:20      19.0  14.0  20.8  19.0  73  1015   ---     N     2     2   ---   0.7 Broken Clouds/
15/10/2006 07:50      19.0  14.0  20.8  19.0  73  1015   ---     N     3     3   ---   0.7 Broken Clouds/
15/10/2006 08:50      19.0  15.0  21.2  19.0  78  1015   ---     N     2     2   ---   --- Overcast/ Light Rain
15/10/2006 09:50      20.0  16.0  22.2  20.0  78  1015   ---     N     2     2   ---   --- / Drizzle
15/10/2006 10:50      21.0  14.0  22.3  19.0  64  1015   ---   ENE     8     8   ---   0.7 Overcast/
15/10/2006 11:20      21.0  15.0  22.5  19.0  69  1015   ---     E     8     8   ---   0.7 Overcast/
15/10/2006 12:20      22.0  15.0  23.3  18.5  65  1015   ---   ENE    14    14   ---   0.7 Overcast/
15/10/2006 13:20      22.0  15.0  23.3  18.5  65  1015   ---   ENE    14    14   ---   0.7 Overcast/
15/10/2006 14:50      23.0  15.0  24.1  19.2  61  1014   ---    NE    18    18   ---   0.7 Broken Clouds/
15/10/2006 15:50      22.0  17.0  23.9  17.5  73  1014   ---    NE    19    19   ---   0.6 Broken Clouds/
15/10/2006 16:50      23.0  18.0  24.9  18.9  73  1014   ---    NE    19    19   ---   0.5 Broken Clouds/
15/10/2006 17:20      21.0  17.0  23.2  17.7  78  1014   ---   ENE    13    13   ---   0.5 Broken Clouds/
15/10/2006 18:20      20.0  16.0  22.2  15.3  78  1014   ---     E    16    16   ---   0.5 Broken Clouds/
15/10/2006 19:50      19.0  14.0  20.8  19.0  73  1015   ---     N     3     3   ---   0.5 Broken Clouds/
15/10/2006 20:50      19.0  14.0  20.8  19.0  73  1015   ---     N     5     5   ---   --- Overcast/ Light Rain
15/10/2006 21:50      19.0  14.0  20.8  19.0  73  1015   ---     N     0     0   ---   --- Overcast/ Light Rain
15/10/2006 22:50      18.0  13.0  19.8  18.0  73  1015   ---   ---     5     5   ---   --- Overcast/ Light Rain
15/10/2006 23:20      18.0  13.0  19.8  18.0  73  1015   ---     N     3     3   ---   0.6 Broken Clouds/
16/10/2006 00:20      18.0  13.0  19.8  18.0  73  1015   ---     N     5     5   ---   0.6 Broken Clouds/
16/10/2006 01:50      18.0  13.0  19.8  18.0  73  1015   ---     N     3     3   ---   0.6 Broken Clouds/
16/10/2006 02:50      18.0  13.0  19.8  18.0  73  1014   ---     N     5     5   ---   0.6 Scattered Clouds/
16/10/2006 03:50      18.0  13.0  19.8  18.0  73  1014   ---     N     2     2   ---   0.7 Scattered Clouds/
16/10/2006 05:00       0.0   0.0   4.0   0.0 100   ---   ---     N   ---   ---   ---   --- /
16/10/2006 05:20      19.0  14.0  20.8  13.7  73  1013   ---     E    18    18   ---   0.7 Scattered Clouds/
16/10/2006 06:20      18.0  13.0  19.8  18.0  73  1013   ---     N     5     5   ---   0.7 Scattered Clouds/
16/10/2006 07:50      19.0  13.0  20.5  19.0  68  1013   ---     N     3     3   ---   0.6 Scattered Clouds/
16/10/2006 08:20      19.0  14.0  20.8  19.0  73  1013   ---     N     5     5   ---   0.6 Broken Clouds/
16/10/2006 09:50      21.0  16.0  22.9  21.0  73  1014   ---     N     5     5   ---   0.6 Broken Clouds/
16/10/2006 10:50      22.0  16.0  23.6  18.1  69  1014   ---     E    16    16   ---   0.6 Broken Clouds/
16/10/2006 11:20      22.0  15.0  23.3  17.3  65  1014   ---   ENE    21    21   ---   0.6 Broken Clouds/
16/10/2006 12:20      22.0  16.0  23.6  17.3  69  1014   ---     E    21    21   ---   0.6 Broken Clouds/
16/10/2006 13:20      22.0  15.0  23.3  16.7  65  1014   ---   ENE    26    26   ---   0.7 Scattered Clouds/
16/10/2006 14:50      22.0  15.0  23.3  16.5  65  1014   ---   ENE    27    27   ---   0.7 Scattered Clouds/
16/10/2006 15:50      22.0  15.0  23.3  17.3  65  1014   ---   ENE    21    21   ---   --- Overcast/ Light Rain
16/10/2006 16:50      22.0  14.0  23.0  17.9  61  1014   ---    NE    18    18   ---   0.7 Broken Clouds/
16/10/2006 17:20      22.0  15.0  23.3  17.9  65  1014   ---    NE    18    18   ---   0.7 Scattered Clouds/
16/10/2006 18:20      21.0  15.0  22.5  16.5  69  1014   ---    NE    18    18   ---   0.7 Scattered Clouds/
16/10/2006 19:50      21.0  14.0  22.3  17.7  64  1015   ---    NE    13    13   ---   0.7 Scattered Clouds/
16/10/2006 20:50      21.0  13.0  22.0  15.6  60  1015   ---   NNE    23    23   ---   0.7 Scattered Clouds/
16/10/2006 21:50      21.0  12.0  21.8  16.1  56  1015   ---   NNE    19    19   ---   0.7 Scattered Clouds/
16/10/2006 22:50      20.0  15.0  21.8  15.9  73  1016   ---     E    14    14   ---   0.7 Few Clouds/
16/10/2006 23:20      20.0  13.0  21.3  17.4  64  1015   ---   ENE    10    10   ---   0.7 Scattered Clouds/
17/10/2006 00:20      20.0  14.0  21.5  17.8  68  1016   ---   ENE     8     8   ---   0.7 Scattered Clouds/
17/10/2006 01:20      20.0  13.0  21.3  15.1  64  1016   ---    NE    18    18   ---   0.7 Scattered Clouds/
17/10/2006 02:50      20.0  11.0  20.8  15.3  56  1016   ---   NNE    16    16   ---   0.7 Scattered Clouds/
17/10/2006 03:50      20.0  14.0  21.5  13.5  68  1016   ---    NE    27    27   ---   0.7 Few Clouds/
17/10/2006 04:50      20.0  12.0  21.0  13.8  60  1016   ---   ENE    26    26   ---   0.7 Few Clouds/
17/10/2006 05:20      20.0  12.0  21.0  14.4  60  1016   ---   ENE    21    21   ---   0.7 Few Clouds/
17/10/2006 06:20      20.0  12.0  21.0  15.1  60  1016   ---    NE    18    18   ---   0.7 Few Clouds/
17/10/2006 07:20      19.0  11.0  20.0  13.0  60  1017   ---    NE    21    21   ---   0.7 Few Clouds/
17/10/2006 08:20      20.0  11.0  20.8  14.6  56  1016   ---   ENE    19    19   ---   0.7 Few Clouds/
17/10/2006 09:50      21.0  11.0  21.6  15.8  53  1017   ---   ENE    21    21   ---   0.7 Few Clouds/
17/10/2006 10:50      21.0  12.0  21.8  15.8  56  1018   ---   ENE    21    21   ---   0.7 Few Clouds/
17/10/2006 11:20      21.0  11.0  21.6  16.1  53  1018   ---   ENE    19    19   ---   0.7 Few Clouds/
17/10/2006 12:20      22.0  11.0  22.4  17.5  50  1018   ---   ENE    19    19   ---   0.7 Few Clouds/
17/10/2006 13:20      22.0  11.0  22.4  17.1  50  1018   ---   ENE    23    23   ---   0.7 Few Clouds/
17/10/2006 14:50      21.0  10.0  21.4  16.1  49  1018   ---   ENE    19    19   ---   --- /
17/10/2006 15:50      21.0  10.0  21.4  16.1  49  1018   ---   ENE    19    19   ---   --- /
17/10/2006 16:50      21.0   9.0  21.3  16.5  46  1018   ---    NE    18    18   ---   --- /
17/10/2006 17:20      21.0   9.0  21.3  16.7  46  1017   ---    NE    16    16   ---   --- /
17/10/2006 18:20      20.0   8.0  20.2  15.1  46  1018   ---    NE    18    18   ---   --- /
17/10/2006 19:50      19.0   9.0  19.6  16.2  52  1017   ---   ENE    10    10   ---   --- /
17/10/2006 20:50      18.0   9.0  18.8  16.6  56  1018   ---     E     6     6   ---   --- /
17/10/2006 21:50      18.0   9.0  18.8  15.0  56  1018   ---     E    10    10   ---   --- /
17/10/2006 22:50      18.0   8.0  18.6  16.6  52  1018   ---   ESE     6     6   ---   --- /
17/10/2006 23:20      18.0   8.0  18.6  13.8  52  1018   ---     E    13    13   ---   --- /
18/10/2006 00:20      18.0   7.0  18.4  11.8  49  1019   ---     E    19    19   ---   --- /
18/10/2006 01:50      16.0   6.0  16.5  16.0  51  1018   ---     N     5     5   ---   --- /
18/10/2006 02:50      15.0   8.0  16.2  13.3  63  1018   ---    SE     6     6   ---   --- /
18/10/2006 03:50      15.0   6.0  15.7  15.0  55  1018   ---     N     0     0   ---   --- /
18/10/2006 04:50      15.0   7.0  15.9  15.0  59  1017   ---   ---     2     2   ---   --- /
18/10/2006 05:20      14.0   7.0  15.2  12.3  63  1017   ---   SSE     6     6   ---   --- /
18/10/2006 06:20      14.0   7.0  15.2  14.0  63  1018   ---     N     3     3   ---   --- /
18/10/2006 07:50      13.0   9.0  15.1  11.2  77  1018   ---   SSW     6     6   ---   --- /
18/10/2006 08:50      14.0   9.0  15.8  14.0  72  1018   ---     N     5     5   ---   --- /
18/10/2006 09:50      18.0   9.0  18.8  18.0  56  1018   ---     N     2     2   ---   --- /
18/10/2006 10:50      20.0   7.0  20.1  18.8  43  1018   ---   NNE     6     6   ---   --- /
18/10/2006 11:20      20.0   7.0  20.1  17.8  43  1018   ---    NE     8     8   ---   --- /
18/10/2006 12:20      21.0   6.0  20.9  18.6  38  1018   ---   NNE    10    10   ---   --- /
18/10/2006 13:20      21.0   8.0  21.1  19.9  43  1017   ---    NE     6     6   ---   0.9 Few Clouds/
18/10/2006 14:50      22.0  10.0  22.3  18.5  46  1016   ---    NE    14    14   ---   0.9 Few Clouds/
18/10/2006 15:50      22.0  12.0  22.6  17.9  53  1015   ---   ENE    18    18   ---   0.9 Few Clouds/
18/10/2006 16:50      22.0  13.0  22.8  17.5  57  1015   ---   ENE    19    19   ---   0.9 Few Clouds/
18/10/2006 17:20      22.0  12.0  22.6  19.8  53  1015   ---   ENE    10    10   ---   0.9 Few Clouds/
18/10/2006 18:50      20.0  12.0  21.0  20.0  60  1015   ---     N     3     3   ---   0.9 Scattered Clouds/
18/10/2006 18:50      20.0  12.0  21.0  20.0  60  1015   ---   ---     3     3   ---   0.9 Scattered Clouds/None reported
18/10/2006 19:50      20.0  13.0  21.3  15.3  64  1015   ---    SW    16    16   ---   0.9 Scattered Clouds/
18/10/2006 20:50      19.0  13.0  20.5  19.0  68  1016   ---     N     3     3   ---   0.9 Scattered Clouds/
18/10/2006 21:50      18.0  13.0  19.8  18.0  73  1016   ---     N     5     5   ---   0.9 Scattered Clouds/
18/10/2006 22:50      18.0  14.0  20.2  18.0  77  1016   ---     N     2     2   ---   0.9 Few Clouds/
18/10/2006 23:20      17.0  13.0  19.2  17.0  77  1015   ---     N     3     3   ---   0.9 Few Clouds/
19/10/2006 00:20      16.0  13.0  18.5  16.0  82  1015   ---     N     5     5   ---   --- /
19/10/2006 01:50      18.0  12.0  19.5  18.0  68  1015   ---     N     2     2   ---   --- /
19/10/2006 02:50      17.0  12.0  18.8  17.0  72  1015   ---     N     2     2   ---   3.0 Scattered Clouds/
19/10/2006 03:50      17.0  12.0  18.8  17.0  72  1014   ---     N     2     2   ---   5.4 Scattered Clouds/
19/10/2006 04:50      17.0  12.0  18.8  17.0  72  1014   ---     N     2     2   ---   --- /
19/10/2006 05:20      17.0  13.0  19.2  17.0  77  1014   ---     N     2     2   ---   --- /
19/10/2006 06:20      17.0  13.0  19.2  17.0  77  1013   ---     N     5     5   ---   0.8 Few Clouds/
19/10/2006 07:50      19.0  14.0  20.8  17.7  73  1013   ---     E     6     6   ---   0.8 Broken Clouds/
19/10/2006 08:20      20.0  14.0  21.5  20.0  68  1013   ---     N     5     5   ---   0.8 Broken Clouds/
19/10/2006 09:50      20.0  14.0  21.5  20.0  68  1013   ---     N     3     3   ---   0.8 Broken Clouds/
19/10/2006 10:50      21.0  15.0  22.5  21.0  69  1013   ---     N     3     3   ---   0.8 Broken Clouds/
19/10/2006 11:20      21.0  15.0  22.5  21.0  69  1013   ---     N     2     2   ---   0.8 Broken Clouds/
19/10/2006 12:20      22.0  16.0  23.6  22.0  69  1013   ---     N     2     2   ---   --- / Drizzle
19/10/2006 13:20      20.0  16.0  22.2  18.8  78  1012   ---   ENE     6     6   ---   --- Overcast/ Light Rain
19/10/2006 14:50      19.0  14.0  20.8  13.7  73  1011   ---   ENE    18    18   ---   --- Overcast/ Light Rain
19/10/2006 15:50      20.0  15.0  21.8  20.0  73  1010   ---     N     2     2   ---   --- Overcast/ Light Rain
19/10/2006 16:50      20.0  14.0  21.5  17.8  68  1009   ---   NNE     8     8   ---   --- Overcast/ Light Rain
19/10/2006 17:20      20.0  14.0  21.5  18.8  68  1009   ---   ENE     6     6   ---   --- Overcast/ Light Rain
19/10/2006 18:20      20.0  15.0  21.8  17.4  73  1008   ---     W    10    10   ---   --- Overcast/ Light Rain
19/10/2006 19:50      22.0  15.0  23.3  18.1  65  1008   ---    SW    16    16   ---   --- Overcast/ Light Rain
19/10/2006 20:50      22.0  15.0  23.3  17.9  65  1008   ---   SSW    18    18   ---   0.6 Broken Clouds/
19/10/2006 21:50      21.0  16.0  22.9  21.0  73  1009   ---     N     5     5   ---   0.6 Broken Clouds/
19/10/2006 22:50      22.0  16.0  23.6  16.3  69  1009   ---     S    31    31   ---   0.6 Broken Clouds/
19/10/2006 23:20      22.0  17.0  23.9  16.3  73  1009   ---   SSW    31    31   ---   0.6 Broken Clouds/
20/10/2006 00:20      21.0  16.0  22.9  15.0  73  1009   ---   SSW    27    27   ---   0.6 Broken Clouds/
20/10/2006 01:20      21.0  16.0  22.9  14.9  73  1009   ---     S    29    29   ---   0.6 Broken Clouds/
20/10/2006 02:20      21.0  17.0  23.2  15.6  78  1009   ---   SSW    23    23   ---   0.6 Broken Clouds/
20/10/2006 03:50      21.0  17.0  23.2  15.8  78  1009   ---   SSW    21    21   ---   0.6 Broken Clouds/
20/10/2006 04:50      21.0  16.0  22.9  16.1  73  1009   ---   SSW    19    19   ---   0.6 Broken Clouds/
20/10/2006 05:20      21.0  17.0  23.2  16.5  78  1009   ---   SSW    18    18   ---   0.6 Broken Clouds/
20/10/2006 06:20      21.0  17.0  23.2  17.7  78  1009   ---   SSW    13    13   ---   0.6 Scattered Clouds/
20/10/2006 07:20      21.0  16.0  22.9  17.2  73  1009   ---   SSW    14    14   ---   0.6 Broken Clouds/
20/10/2006 08:20      21.0  17.0  23.2  18.6  78  1009   ---    SW    10    10   ---   0.5 Broken Clouds/
20/10/2006 09:20      21.0  17.0  23.2  16.7  78  1010   ---    SW    16    16   ---   0.5 Broken Clouds/
20/10/2006 10:50      22.0  17.0  23.9  17.3  73  1011   ---     W    21    21   ---   0.5 Scattered Clouds/
20/10/2006 11:20      22.0  18.0  24.2  17.1  78  1011   ---     W    23    23   ---   0.5 Scattered Clouds/
20/10/2006 12:20      23.0  18.0  24.9  18.5  73  1011   ---     W    23    23   ---   0.5 Scattered Clouds/
20/10/2006 13:20      23.0  18.0  24.9  18.7  73  1011   ---     W    21    21   ---   0.5 Scattered Clouds/
20/10/2006 14:50      23.0  19.0  25.2  19.4  78  1011   ---     W    16    16   ---   0.5 Scattered Clouds/
20/10/2006 15:50      23.0  18.0  24.9  18.5  73  1010   ---     W    23    23   ---   0.4 Broken Clouds/
20/10/2006 16:50      21.0  17.0  23.2  16.5  78  1011   ---   WSW    18    18   ---   0.4 Broken Clouds/
20/10/2006 17:20      19.0  14.0  20.8  11.7  73  1011   ---   WSW    31    31   ---   0.4 Broken Clouds/
20/10/2006 18:20      18.0  13.0  19.8  11.8  73  1011   ---   SSE    19    19   ---   0.4 Broken Clouds/
20/10/2006 19:50      20.0  15.0  21.8  17.4  73  1011   ---     S    10    10   ---   0.6 Broken Clouds/
20/10/2006 20:50      20.0  15.0  21.8  17.8  73  1012   ---    SW     8     8   ---   0.6 Broken Clouds/
20/10/2006 21:50      21.0  15.0  22.5  19.0  69  1012   ---    SW     8    29   ---   0.6 Broken Clouds/
20/10/2006 22:50      20.0  15.0  21.8  16.4  73  1013   ---     S    13    13   ---   0.6 Broken Clouds/
20/10/2006 23:20      20.0  16.0  22.2  16.4  78  1013   ---     S    13    13   ---   0.6 Broken Clouds/
21/10/2006 00:20      20.0  15.0  21.8  15.3  73  1013   ---   SSW    16    16   ---   0.6 Broken Clouds/
21/10/2006 01:50      20.0  15.0  21.8  17.4  73  1013   ---     S    10    10   ---   0.6 Broken Clouds/
21/10/2006 02:50      20.0  15.0  21.8  15.3  73  1013   ---   SSW    16    16   ---   0.6 Scattered Clouds/
21/10/2006 03:50      20.0  15.0  21.8  15.1  73  1013   ---   SSW    18    18   ---   0.7 Scattered Clouds/
21/10/2006 04:50      20.0  15.0  21.8  14.4  73  1012   ---   SSW    21    21   ---   0.7 Few Clouds/
21/10/2006 05:20      20.0  15.0  21.8  14.6  73  1012   ---   SSW    19    19   ---   0.7 Few Clouds/
21/10/2006 06:20      20.0  16.0  22.2  14.6  78  1012   ---   SSW    19    19   ---   0.7 Few Clouds/
21/10/2006 07:20      20.0  15.0  21.8  14.6  73  1012   ---   SSW    19    19   ---   0.7 Scattered Clouds/
21/10/2006 07:50      20.0  15.0  21.8  15.3  73  1012   ---   SSW    16    16   ---   0.7 Scattered Clouds/
21/10/2006 09:50      22.0  17.0  23.9  17.5  73  1014   ---   SSW    19    19   ---   0.7 Scattered Clouds/
21/10/2006 10:50      23.0  17.0  24.6  18.7  69  1014   ---     S    21    21   ---   0.7 Broken Clouds/
21/10/2006 12:20      24.0  18.0  25.6  20.1  69  1014   ---    SW    21    21   ---   0.7 Broken Clouds/
21/10/2006 12:50      25.0  18.0  26.3  21.6  65  1014   ---    SW    21    21   ---   0.7 Scattered Clouds/
21/10/2006 14:50      25.0  18.0  26.3  21.4  65  1013   ---   SSW    23    23   ---   0.7 Scattered Clouds/
21/10/2006 15:50      24.0  18.0  25.6  20.0  69  1013   ---   SSW    23    23   ---   0.7 Scattered Clouds/
21/10/2006 16:50      24.0  19.0  25.9  19.7  74  1013   ---   SSW    26    26   ---   0.7 Scattered Clouds/
21/10/2006 17:20      23.0  19.0  25.2  18.0  78  1013   ---   SSW    27    51   ---   0.7 Scattered Clouds/
21/10/2006 18:50      23.0  19.0  25.2  18.2  78  1013   ---   SSW    26    26   ---   0.7 Scattered Clouds/
21/10/2006 19:50      23.0  18.0  24.9  17.8  73  1013   ---   SSW    31    31   ---   0.7 Scattered Clouds/
21/10/2006 20:50      23.0  18.0  24.9  17.8  73  1014   ---     S    31    31   ---   0.7 Scattered Clouds/
21/10/2006 21:50      22.0  18.0  24.2  16.7  78  1014   ---   SSW    26    26   ---   0.7 Scattered Clouds/
21/10/2006 22:50      23.0  17.0  24.6  18.5  69  1014   ---     S    23    23   ---   0.7 Scattered Clouds/
21/10/2006 23:20       0.0   0.0   4.0 -14.8 100   ---   ---     S   ---   ---   ---   --- /
22/10/2006 00:20      23.0  16.0  24.3  18.0  65  1014   ---     S    29    29   ---   0.7 Scattered Clouds/
22/10/2006 01:50      23.0  17.0  24.6  17.8  69  1014   ---   SSW    31    31   ---   0.7 Few Clouds/
22/10/2006 02:50      22.0  17.0  23.9  16.4  73  1014   ---   SSW    29    29   ---   0.7 Few Clouds/
22/10/2006 03:50      22.0  16.0  23.6  17.3  69  1015   ---   SSW    21    21   ---   0.7 Few Clouds/
22/10/2006 04:50      22.0  17.0  23.9  16.4  73  1015   ---     S    29    29   ---   0.7 Few Clouds/
22/10/2006 05:20      22.0  17.0  23.9  16.4  73  1014   ---     S    29    29   ---   0.7 Few Clouds/
22/10/2006 06:20      22.0  17.0  23.9  16.7  73  1015   ---   SSW    26    26   ---   0.7 Few Clouds/
22/10/2006 07:50      22.0  17.0  23.9  17.5  73  1015   ---   SSW    19    19   ---   0.7 Scattered Clouds/
22/10/2006 08:50      22.0  17.0  23.9  17.3  73  1015   ---   SSW    21    21   ---   0.7 Scattered Clouds/
22/10/2006 09:50      23.0  17.0  24.6  18.9  69  1016   ---   SSW    19    19   ---   0.7 Scattered Clouds/
22/10/2006 10:50      24.0  17.0  25.3  20.0  65  1016   ---     S    23    23   ---   0.7 Scattered Clouds/
22/10/2006 11:20      25.0  17.0  26.1  21.2  61  1016   ---   SSW    26    26   ---   0.7 Scattered Clouds/
22/10/2006 12:20      26.0  18.0  27.1  23.1  61  1017   ---   SSW    19    19   ---   0.8 Scattered Clouds/
22/10/2006 13:20      27.0  17.0  27.7  24.4  54  1016   ---    SW    21    21   ---   0.8 Scattered Clouds/
22/10/2006 14:50      27.0  17.0  27.7  24.9  54  1016   ---   WSW    16    16   ---   0.8 Scattered Clouds/
22/10/2006 15:50      27.0  18.0  27.9  25.1  58  1016   ---   WSW    14    14   ---   0.8 Scattered Clouds/
22/10/2006 16:50      26.0  16.0  26.7  23.8  54  1015   ---    SW    14    14   ---   0.8 Scattered Clouds/
22/10/2006 17:20      27.0  15.0  27.3  25.8  48  1015   ---    SW    10    10   ---   0.9 Scattered Clouds/
22/10/2006 18:20      24.0  19.0  25.9  21.5  74  1015   ---   ENE    13    13   ---   0.9 Scattered Clouds/
22/10/2006 19:50      22.0  17.0  23.9  21.0  73  1016   ---     E     6     6   ---   0.9 Scattered Clouds/
22/10/2006 20:50      21.0  17.0  23.2  19.9  78  1016   ---     W     6     6   ---   0.9 Scattered Clouds/
22/10/2006 21:50      21.0  16.0  22.9  19.9  73  1016   ---   WSW     6     6   ---   0.9 Scattered Clouds/
22/10/2006 22:50      22.0  14.0  23.0  18.9  61  1017   ---    SW    13    13   ---   0.9 Scattered Clouds/
22/10/2006 23:20      22.0  16.0  23.6  22.0  69  1016   ---     N     5     5   ---   0.9 Scattered Clouds/
23/10/2006 00:20      22.0  16.0  23.6  20.2  69  1016   ---   SSW     8     8   ---   0.9 Scattered Clouds/
23/10/2006 01:50      22.0  16.0  23.6  19.8  69  1016   ---     S    10    10   ---   4.8 Scattered Clouds/
23/10/2006 02:50      21.0  16.0  22.9  21.0  73  1017   ---     N     5     5   ---   4.8 Scattered Clouds/
23/10/2006 03:50      20.0  16.0  22.2  18.8  78  1016   ---     E     6     6   ---   --- /
23/10/2006 04:50      21.0  16.0  22.9  21.0  73  1016   ---     N     2     2   ---   --- /
23/10/2006 05:20      20.0  15.0  21.8  20.0  73  1016   ---     N     0     0   ---   --- /
23/10/2006 06:20      20.0  15.0  21.8  18.8  73  1016   ---   ENE     6     6   ---   --- /
23/10/2006 07:50      20.0  15.0  21.8  20.0  73  1016   ---     N     5     5   ---   0.8 Scattered Clouds/
23/10/2006 08:20      19.0  15.0  21.2  19.0  78  1016   ---     N     3     3   ---   0.8 Scattered Clouds/
23/10/2006 09:50      22.0  17.0  23.9  22.0  73  1016   ---     N     5     5   ---   --- /
23/10/2006 10:50      24.0  18.0  25.6  24.0  69  1016   ---     N     3     3   ---   --- /
23/10/2006 11:20      24.0  17.0  25.3  24.0  65  1016   ---     N     3     3   ---   --- /
23/10/2006 12:20      24.0  17.0  25.3  24.0  65  1016   ---     N     3     3   ---   --- /
23/10/2006 13:50      25.0  19.0  26.6  24.3  69  1016   ---     N     6     6   ---   --- /
23/10/2006 14:50      27.0  13.0  27.0  27.0  42  1015   ---     N     5     5   ---   --- /
23/10/2006 15:50      26.0  17.0  26.9  25.4  58  1015   ---   NNE     6     6   ---   --- /
23/10/2006 16:50      26.0  17.0  26.9  24.8  58  1015   ---    NE     8     8   ---   --- /
23/10/2006 17:20      26.0  19.0  27.3  24.8  65  1015   ---   ENE     8     8   ---   --- /
23/10/2006 18:20      23.0  19.0  25.2  21.0  78  1015   ---    SW    10    10   ---   --- /
23/10/2006 19:50      22.0  17.0  23.9  18.9  73  1015   ---   SSW    13    13   ---   --- /
23/10/2006 20:50      21.0  17.0  23.2  16.7  78  1016   ---    SW    16    16   ---   --- /
23/10/2006 21:50      21.0  16.0  22.9  21.0  73  1016   ---     N     0     0   ---   --- /
23/10/2006 22:50      21.0  16.0  22.9  21.0  73  1015   ---   ---     5     5   ---   --- /
23/10/2006 23:20      21.0  15.0  22.5  21.0  69  1015   ---     N     3     3   ---   --- /
24/10/2006 00:20      20.0  16.0  22.2  20.0  78  1015   ---     N     2     2   ---   --- /
24/10/2006 01:50      20.0  15.0  21.8  20.0  73  1015   ---     N     2     2   ---   --- /
24/10/2006 02:50      20.0  15.0  21.8  20.0  73  1015   ---     N     5     5   ---   --- /
24/10/2006 03:50      21.0  16.0  22.9  21.0  73  1014   ---     N     5     5   ---   --- /
24/10/2006 04:50      20.0  15.0  21.8  20.0  73  1014   ---     N     2     2   ---   --- /
24/10/2006 05:20      20.0  15.0  21.8  20.0  73  1014   ---     N     0     0   ---   --- /
24/10/2006 06:50      27.0   0.0  26.0  24.9  17  1014   ---    SW    16    16   ---   --- /
24/10/2006 07:50      25.0   0.0  24.2  21.7  19  1014   ---   SSW    19    19   ---   --- /
24/10/2006 08:50      23.0   9.0  23.0  19.2  41  1014   ---    SW    18    18   ---   --- /
24/10/2006 09:50      28.0  10.0  27.2  26.1  33  1014   ---    SW    18    18   ---   --- /
24/10/2006 10:50      30.0   0.0  28.1  28.5  14  1015   ---    SW    27    27   ---   --- /
24/10/2006 11:20      30.0   0.0  28.1  28.7  14  1015   ---   SSW    23    23   ---   --- /
24/10/2006 12:20      30.0   0.0  28.1  28.4  14  1014   ---     S    32    55   ---   --- /
24/10/2006 13:50      30.0  11.0  28.8  28.6  31  1014   ---   SSW    26    43   ---   --- /
24/10/2006 14:50      30.0  12.0  29.0  28.7  33  1014   ---   SSW    21    21   ---   --- /
24/10/2006 15:50      29.0  12.0  28.2  27.0  35  1014   ---    SW    27    27   ---   --- /
24/10/2006 16:50      28.0  13.0  27.6  25.5  40  1014   ---    SW    29    29   ---   0.7 Broken Clouds/
24/10/2006 17:20      28.0  14.0  27.8  25.6  42  1014   ---   SSW    26    26   ---   0.7 Broken Clouds/
24/10/2006 18:50      26.0  16.0  26.7  22.9  54  1014   ---   SSW    23    23   ---   1.2 Scattered Clouds/
24/10/2006 19:50      26.0  14.0  26.3  22.5  48  1014   ---   SSW    27    27   ---   1.2 Scattered Clouds/
24/10/2006 20:50      26.0  13.0  26.2  22.5  45  1015   ---   SSW    29    29   ---   1.2 Few Clouds/
24/10/2006 21:50      26.0  12.0  26.0  23.1  42  1015   ---    SW    19    19   ---   1.2 Few Clouds/
24/10/2006 22:20      26.0  12.0  26.0  23.5  42  1016   ---     S    16    16   ---   1.2 Few Clouds/
24/10/2006 23:20      25.0  11.0  25.0  22.1  41  1016   ---    SW    16    16   ---   1.2 Few Clouds/
25/10/2006 00:20      25.0  11.0  25.0  21.7  41  1016   ---   SSW    19    19   ---   1.2 Few Clouds/
25/10/2006 01:50      25.0  12.0  25.2  22.0  44  1016   ---   SSW    18    18   ---   1.2 Few Clouds/
25/10/2006 02:50      25.0  11.0  25.0  22.8  41  1016   ---     S    13    13   ---   1.2 Few Clouds/
25/10/2006 03:50      24.0  11.0  24.1  22.5  44  1016   ---    SW     8     8   ---   1.2 Few Clouds/
25/10/2006 04:50      21.0  16.0  22.9  18.6  73  1016   ---    SW    10    10   ---   --- /
25/10/2006 05:20      21.0  14.0  22.3  17.7  64  1016   ---    SW    13    13   ---   --- /
25/10/2006 06:50      25.0  10.0  24.9  22.1  39  1015   ---   SSW    16    16   ---   --- /
25/10/2006 07:50      23.0  15.0  24.1  23.0  61  1016   ---     N     5     5   ---   --- /
25/10/2006 08:20      22.0  17.0  23.9  21.0  73  1016   ---   ENE     6     6   ---   0.9 Scattered Clouds/
25/10/2006 09:20      22.0  18.0  24.2  17.9  78  1017   ---   ENE    18    18   ---   0.9 Scattered Clouds/
25/10/2006 10:20      23.0  18.0  24.9  21.0  73  1017   ---    NE    10    10   ---   0.9 Scattered Clouds/
25/10/2006 11:20      23.0  18.0  24.9  23.0  73  1018   ---     N     5     5   ---   0.9 Scattered Clouds/
25/10/2006 12:20      25.0  17.0  26.1  25.0  61  1018   ---     N     3     3   ---   0.9 Scattered Clouds/
25/10/2006 13:20      26.0  19.0  27.3  26.0  65  1018   ---     N     3     3   ---   0.9 Scattered Clouds/
25/10/2006 14:50      26.0  16.0  26.7  25.4  54  1017   ---   NNE     6     6   ---   --- /
25/10/2006 14:50      26.0  16.0  26.7  25.4  54  1017   ---   NNE     6     6   ---   --- None reported/None reported
25/10/2006 14:50      26.0  16.0  26.7  25.4  54  1017   ---   NNE     6     6   ---   --- None reported/None reported
25/10/2006 16:50      25.0  20.0  26.9  22.5  74  1017   ---   ENE    14    14   ---   --- /
25/10/2006 17:20      25.0  18.0  26.3  22.8  65  1017   ---   ENE    13    13   ---   --- /
25/10/2006 18:20      24.0  20.0  26.2  24.0  78  1017   ---     N     5     5   ---   --- /
25/10/2006 19:50      22.0  17.0  23.9  22.0  73  1017   ---     N     3     3   ---   --- /
25/10/2006 20:50      21.0  16.0  22.9  21.0  73  1017   ---     N     2     2   ---   --- /
25/10/2006 21:50      21.0  16.0  22.9  21.0  73  1018   ---     N     2     2   ---   --- /
25/10/2006 22:50      22.0  16.0  23.6  22.0  69  1018   ---     N     2     2   ---   --- /
25/10/2006 23:20      20.0  14.0  21.5  20.0  68  1018   ---     N     0     0   ---   --- /
26/10/2006 00:20      20.0  15.0  21.8  20.0  73  1018   ---   ---     2     2   ---   --- /
26/10/2006 01:50      21.0  16.0  22.9  21.0  73  1018   ---     N     3     3   ---   --- /
26/10/2006 02:50      20.0  14.0  21.5  20.0  68  1018   ---     N     2     2   ---   --- /
26/10/2006 03:20      21.0  15.0  22.5  21.0  69  1018   ---     N     3     3   ---   --- /
26/10/2006 04:50      19.0  13.0  20.5  17.7  68  1018   ---   SSW     6     6   ---   --- /
26/10/2006 05:50      20.0  13.0  21.3  17.8  64  1018   ---   ENE     8     8   ---   --- /
26/10/2006 06:20      20.0  13.0  21.3  17.8  64  1018   ---    NE     8     8   ---   --- /
26/10/2006 07:20      19.0  11.0  20.0  17.7  60  1018   ---     S     6     6   ---   --- /
26/10/2006 08:20      20.0  15.0  21.8  18.8  73  1019   ---     S     6     6   ---   --- /
26/10/2006 09:20      21.0  13.0  22.0  21.0  60  1019   ---     N     5     5   ---   --- /
26/10/2006 10:20      25.0  16.0  25.9  25.0  57  1019   ---     N     0     0   ---   --- /
26/10/2006 11:20      26.0  16.0  26.7  26.0  54  1020   ---   ---     3     3   ---   --- /
26/10/2006 12:20      26.0  18.0  27.1  25.4  61  1020   ---   NNE     6     6   ---   --- /
26/10/2006 13:20      27.0  14.0  27.1  26.0  45  1019   ---   NNE     8     8   ---   --- /
26/10/2006 14:50      27.0  17.0  27.7  25.1  54  1019   ---   ENE    14    14   ---   --- /
26/10/2006 15:50      26.0  20.0  27.6  23.5  70  1019   ---   ENE    16    16   ---   --- /
26/10/2006 16:50      26.0  18.0  27.1  23.8  61  1019   ---   ENE    14    14   ---   --- /
26/10/2006 17:20      26.0  18.0  27.1  23.4  61  1019   ---   ENE    18    18   ---   --- /
26/10/2006 18:20      25.0  17.0  26.1  23.7  61  1019   ---   WSW     8     8   ---   --- /
26/10/2006 18:20      25.0  17.0  26.1  23.7  61  1019   ---   WSW     8     8   ---   --- None reported/None reported
26/10/2006 19:50      23.0  16.0  24.3  23.0  65  1019   ---     N     2     2   ---   --- /
26/10/2006 20:50      22.0  18.0  24.2  22.0  78  1019   ---     N     2     2   ---   --- /
26/10/2006 21:50      22.0  16.0  23.6  22.0  69  1020   ---     N     3     3   ---   --- /
26/10/2006 22:50      21.0  14.0  22.3  21.0  64  1021   ---     N     0     0   ---   --- /
26/10/2006 23:20      20.0  14.0  21.5  20.0  68  1020   ---   ---     2     2   ---   --- /
27/10/2006 00:20      21.0  16.0  22.9  21.0  73  1021   ---     N     2     2   ---   --- /
27/10/2006 01:50      20.0  14.0  21.5  20.0  68  1021   ---     N     2     2   ---   --- /
27/10/2006 02:50      20.0  13.0  21.3  20.0  64  1021   ---     N     3     3   ---   --- /
27/10/2006 03:50      19.0  12.0  20.2  19.0  64  1021   ---     N     3     3   ---   --- /
27/10/2006 05:20      20.0  15.0  21.8  20.0  73  1021   ---     N     2     2   ---   --- /
27/10/2006 06:20      18.0  12.0  19.5  18.0  68  1021   ---     N     2     2   ---   --- /
27/10/2006 07:20      18.0  13.0  19.8  18.0  73  1021   ---     N     2     2   ---   --- /
27/10/2006 08:20      19.0  13.0  20.5  19.0  68  1022   ---     N     0     0   ---   --- /
27/10/2006 09:20      20.0  14.0  21.5  20.0  68  1023   ---   ---     2     2   ---   --- /
27/10/2006 10:20      23.0  19.0  25.2  23.0  78  1023   ---     N     3     3   ---   --- /
27/10/2006 11:20      23.0  17.0  24.6  23.0  69  1023   ---     N     3     3   ---   --- /
27/10/2006 12:20      25.0  12.0  25.2  25.0  44  1023   ---     N     3     3   ---   --- /
27/10/2006 13:20      25.0  15.0  25.7  25.0  54  1023   ---     N     3     3   ---   --- /
27/10/2006 14:20      26.0  13.0  26.2  26.0  45  1023   ---     N     3     3   ---   --- /
27/10/2006 15:20      26.0  15.0  26.5  26.0  51  1023   ---     N     3     3   ---   --- /
27/10/2006 16:20      25.0  18.0  26.3  22.5  65  1023   ---    NE    14    14   ---   --- /
27/10/2006 17:20      24.0  20.0  26.2  20.3  78  1023   ---    NE    19    19   ---   --- /
27/10/2006 19:50      22.0  17.0  23.9  22.0  73  1024   ---     N     3     3   ---   --- /
27/10/2006 20:50      21.0  16.0  22.9  21.0  73  1024   ---     N     2     2   ---   --- /
27/10/2006 21:50      21.0  16.0  22.9  21.0  73  1024   ---     N     5     5   ---   --- /
27/10/2006 22:50      20.0  15.0  21.8  20.0  73  1025   ---     N     2     2   ---   --- /
27/10/2006 23:20      20.0  15.0  21.8  20.0  73  1024   ---     N     3     3   ---   --- /
28/10/2006 00:20      19.0  14.0  20.8  19.0  73  1024   ---     N     2     2   ---   --- /
28/10/2006 01:50      19.0  14.0  20.8  19.0  73  1024   ---     N     2     2   ---   --- /
28/10/2006 02:50      19.0  14.0  20.8  16.7  73  1024   ---    SW     8     8   ---   --- /
28/10/2006 03:20      19.0  13.0  20.5  17.7  68  1024   ---     S     6     6   ---   --- /
28/10/2006 04:20      19.0  14.0  20.8  19.0  73  1024   ---     N     2     2   ---   --- /
28/10/2006 05:20      18.0  13.0  19.8  18.0  73  1024   ---     N     3     3   ---   --- /
28/10/2006 06:20      18.0  13.0  19.8  18.0  73  1024   ---     N     3     3   ---   --- /
28/10/2006 07:20      18.0  13.0  19.8  18.0  73  1024   ---     N     5     5   ---   --- /
28/10/2006 08:50      18.0  13.0  19.8  18.0  73  1024   ---     N     0     0   ---   0.2 Few Clouds/
28/10/2006 09:50      20.0  15.0  21.8  20.0  73  1024   ---   ---     0     0   ---   0.2 Few Clouds/
28/10/2006 10:50      22.0  17.0  23.9  21.0  73  1025   ---     N     6     6   ---   --- Clear/
28/10/2006 11:20      23.0  18.0  24.9  23.0  73  1025   ---     N     5     5   ---   --- /
28/10/2006 12:20      23.0  18.0  24.9  23.0  73  1025   ---     N     3     3   ---   --- /
28/10/2006 12:20      23.0  18.0  24.9  23.0  73  1025   ---   ---     3     3   ---   --- None reported/None reported
28/10/2006 12:20      23.0  18.0  24.9  23.0  73  1025   ---   ---     3     3   ---   --- None reported/None reported
28/10/2006 13:20      23.0  18.0  24.9  23.0  73  1024   ---     N     5     5   ---   --- /
28/10/2006 13:20      23.0  18.0  24.9  23.0  73  1024   ---   ---     5     5   ---   --- None reported/None reported
28/10/2006 19:50      21.0  15.0  22.5  21.0  69  1022   ---     N     5     5   ---   --- /
28/10/2006 20:50      20.0  13.0  21.3  20.0  64  1022   ---     N     3     3   ---   --- /
28/10/2006 21:50      20.0  11.0  20.8  18.8  56  1021   ---     S     6     6   ---   --- /
28/10/2006 22:50      20.0  12.0  21.0  17.8  60  1022   ---     S     8     8   ---   --- /
28/10/2006 23:20      20.0  13.0  21.3  17.8  64  1021   ---     S     8     8   ---   --- /
29/10/2006 00:20      20.0  13.0  21.3  18.8  64  1020   ---   SSW     6     6   ---   --- /
29/10/2006 01:20      20.0  11.0  20.8  17.4  56  1020   ---     S    10    10   ---   --- /
29/10/2006 02:20      20.0   9.0  20.4  17.8  49  1019   ---     S     8     8   ---   --- /
29/10/2006 03:20      19.0  11.0  20.0  19.0  60  1018   ---     N     0     0   ---   --- /
29/10/2006 04:20      21.0  14.0  22.3  21.0  64  1017   ---   ---     2     2   ---   --- /
29/10/2006 05:20      20.0  14.0  21.5  18.8  68  1017   ---   WSW     6     6   ---   --- /
29/10/2006 06:50      18.0  14.0  20.2  18.0  77  1016   ---     N     5     5   ---   --- /
29/10/2006 07:50      19.0  15.0  21.2  19.0  78  1017   ---     N     2     2   ---   0.7 Few Clouds/
29/10/2006 08:20      19.0  15.0  21.2  19.0  78  1016   ---     N     5     5   ---   0.7 Few Clouds/
29/10/2006 09:50      22.0  18.0  24.2  22.0  78  1017   ---     N     5     5   ---   0.5 Scattered Clouds/
29/10/2006 10:50      23.0  18.0  24.9  23.0  73  1017   ---     N     5     5   ---   0.5 Scattered Clouds/
29/10/2006 11:50      22.0  17.0  23.9  22.0  73  1016   ---     N     5     5   ---   0.5 Scattered Clouds/
29/10/2006 12:20      23.0  18.0  24.9  22.1  73  1015   ---     N     6     6   ---   0.5 Few Clouds/
29/10/2006 13:50      23.0  18.0  24.9  21.3  73  1015   ---     N     8     8   ---   0.5 Scattered Clouds/
29/10/2006 15:50      23.0  18.0  24.9  23.0  73  1014   ---     N     5     5   ---   0.5 Scattered Clouds/
29/10/2006 15:50      23.0  18.0  24.9  23.0  73  1014   ---   ---     5     5   ---   0.5 Scattered Clouds/None reported
29/10/2006 17:20      21.0  17.0  23.2  21.0  78  1014   ---     N     3     3   ---   0.5 Scattered Clouds/
29/10/2006 18:50      20.0  16.0  22.2  20.0  78  1014   ---     N     2     2   ---   0.5 Scattered Clouds/
29/10/2006 19:50      20.0  16.0  22.2  18.8  78  1013   ---     S     6     6   ---   0.6 Scattered Clouds/
29/10/2006 20:50      21.0  16.0  22.9  21.0  73  1013   ---     N     2     2   ---   0.6 Scattered Clouds/
29/10/2006 21:50      21.0  16.0  22.9  21.0  73  1013   ---     N     3     3   ---   0.6 Scattered Clouds/
29/10/2006 22:20      20.0  16.0  22.2  20.0  78  1013   ---     N     0     0   ---   0.6 Scattered Clouds/
29/10/2006 22:50      20.0  15.0  21.8  20.0  73  1013   ---   ---     3     3   ---   0.6 Scattered Clouds/
30/10/2006 00:20      19.0  14.0  20.8  19.0  73  1013   ---     N     5     5   ---   0.6 Scattered Clouds/
30/10/2006 01:50      20.0  15.0  21.8  20.0  73  1012   ---     N     5     5   ---   0.6 Scattered Clouds/
30/10/2006 02:20      20.0  15.0  21.8  18.8  73  1012   ---     S     6     6   ---   0.6 Scattered Clouds/
30/10/2006 03:50      20.0  15.0  21.8  18.8  73  1011   ---     S     6     6   ---   0.5 Scattered Clouds/
30/10/2006 04:20      20.0  15.0  21.8  20.0  73  1011   ---     N     2     2   ---   0.5 Scattered Clouds/
30/10/2006 05:20      20.0  15.0  21.8  20.0  73  1011   ---     N     2     2   ---   0.5 Scattered Clouds/
30/10/2006 06:50      20.0  15.0  21.8  18.8  73  1011   ---   NNW     6     6   ---   0.6 Scattered Clouds/
30/10/2006 07:50      20.0  15.0  21.8  20.0  73  1011   ---     N     3     3   ---   0.6 Scattered Clouds/
30/10/2006 08:20      20.0  15.0  21.8  20.0  73  1011   ---     N     3     3   ---   0.6 Scattered Clouds/
30/10/2006 09:50      22.0  16.0  23.6  21.0  69  1012   ---     N     6     6   ---   0.6 Scattered Clouds/
30/10/2006 10:50      22.0  16.0  23.6  18.5  69  1012   ---    NE    14    14   ---   0.6 Broken Clouds/
30/10/2006 11:20      22.0  16.0  23.6  17.9  69  1012   ---   ENE    18    18   ---   0.6 Broken Clouds/
30/10/2006 12:20      24.0  17.0  25.3  20.8  65  1011   ---   ENE    16    16   ---   0.6 Broken Clouds/
30/10/2006 13:20      24.0  17.0  25.3  20.3  65  1011   ---   ENE    19    19   ---   0.6 Scattered Clouds/
30/10/2006 14:20      23.0  16.0  24.3  18.9  65  1011   ---   ENE    19    19   ---   0.7 Few Clouds/
30/10/2006 15:50      22.0  17.0  23.9  17.1  73  1011   ---   ENE    23    23   ---   0.7 Few Clouds/
30/10/2006 16:20      22.0  17.0  23.9  17.3  73  1011   ---   ENE    21    21   ---   0.7 Few Clouds/
30/10/2006 17:20      21.0  17.0  23.2  15.6  78  1012   ---   ENE    23    23   ---   0.6 Scattered Clouds/
30/10/2006 18:50      21.0  16.0  22.9  15.8  73  1012   ---   ENE    21    21   ---   0.6 Scattered Clouds/
30/10/2006 19:50      21.0  12.0  21.8  14.8  56  1013   ---   ENE    31    31   ---   0.6 Scattered Clouds/
30/10/2006 20:50      21.0  12.0  21.8  14.6  56  1013   ---   ENE    32    32   ---   0.6 Few Clouds/
30/10/2006 21:50      21.0  12.0  21.8  14.9  56  1014   ---   ENE    29    29   ---   0.7 Few Clouds/
30/10/2006 22:20      21.0  10.0  21.4  15.0  49  1014   ---   ENE    27    27   ---   0.7 Few Clouds/
30/10/2006 23:20      20.0  10.0  20.6  13.1  53  1014   ---   ENE    32    32   ---   0.7 Few Clouds/
31/10/2006 00:50      20.0   9.0  20.4  13.4  49  1014   ---   ENE    29    29   ---   0.7 Few Clouds/
31/10/2006 01:50      20.0   8.0  20.2  13.5  46  1015   ---   ENE    27    27   ---   0.7 Few Clouds/
31/10/2006 02:20      20.0   8.0  20.2  13.8  46  1014   ---   ENE    26    26   ---   0.7 Few Clouds/
31/10/2006 03:50      19.0   8.0  19.4  11.7  49  1014   ---   ENE    31    31   ---   0.7 Few Clouds/
31/10/2006 04:20      19.0   8.0  19.4  12.3  49  1015   ---   ENE    26    26   ---   0.7 Few Clouds/
31/10/2006 05:20      19.0   7.0  19.2  12.0  46  1015   ---   ENE    27    27   ---   0.7 Few Clouds/
31/10/2006 06:50      19.0   6.0  19.1  13.0  43  1015   ---   ENE    21    21   ---   --- /
31/10/2006 07:50      19.0   8.0  19.4  13.2  49  1016   ---   ENE    19    19   ---   --- /
31/10/2006 08:20      19.0   8.0  19.4  12.7  49  1016   ---   ENE    23    23   ---   --- /
31/10/2006 09:50      20.0   7.0  20.1  14.2  43  1017   ---   ENE    23    23   ---   --- /
31/10/2006 10:20      21.0   6.0  20.9  15.8  38  1017   ---   ENE    21    21   ---   --- /
31/10/2006 11:20      21.0   6.0  20.9  15.8  38  1017   ---   ENE    21    21   ---   --- /
31/10/2006 12:20      21.0   6.0  20.9  15.6  38  1016   ---   ENE    23    23   ---   --- /
31/10/2006 13:50      21.0   5.0  20.8  15.2  35  1016   ---   ENE    26    26   ---   --- /
31/10/2006 14:20      21.0   3.0  20.6  15.8  31  1016   ---   ENE    21    21   ---   --- /
31/10/2006 15:50      21.0   3.0  20.6  16.1  31  1015   ---    NE    19    19   ---   --- /
31/10/2006 16:20      20.0   4.0  19.7  15.9  35  1015   ---    NE    14    14   ---   --- /
31/10/2006 17:20      19.0   5.0  18.9  14.5  40  1015   ---    NE    14    14   ---   --- /
31/10/2006 18:50      18.0   6.0  18.2  15.0  45  1016   ---     E    10    10   ---   --- /
31/10/2006 19:50      19.0   4.0  18.8  15.1  37  1015   ---     E    13    13   ---   --- /
31/10/2006 19:50      19.0   4.0  18.8  15.1  37  1015   ---     E    13    13   ---   --- None reported/None reported
31/10/2006 20:50      19.0   0.0  18.5  19.0  28  1015   ---     N     3     3   ---   --- /
31/10/2006 21:50      18.0   3.0  17.8  13.2  37  1016   ---   ENE    14    14   ---   --- /
31/10/2006 22:20      18.0   5.0  18.1  16.6  42  1016   ---     E     6     6   ---   --- /
31/10/2006 23:20      17.0   5.0  17.2  12.5  45  1016   ---     E    13    13   ---   --- /
01/11/2006 00:20      17.0   3.0  16.9  15.5  39  1016   ---   ESE     6     6   ---   --- /
01/11/2006 01:50      15.0   3.0  15.2  15.0  44  1015   ---     N     3     3   ---   --- /
01/11/2006 02:20      14.0   4.0  14.5  12.3  51  1016   ---     S     6     6   ---   --- /
01/11/2006 03:50      14.0   2.0  14.2  12.3  44  1015   ---   SSE     6     6   ---   --- /
01/11/2006 05:20       0.0   0.0   4.0  -3.0 100   ---   ---   SSE   ---   ---   ---   --- /
01/11/2006 06:50      13.0   2.0  13.3  11.2  47  1014   ---   SSW     6     6   ---   --- /
01/11/2006 07:50      15.0   1.0  14.9  15.0  39  1014   ---     N     5     5   ---   --- /
01/11/2006 08:20      15.0   2.0  15.0  15.0  41  1014   ---     N     5     5   ---   --- /
01/11/2006 09:50      21.0   0.0  20.4  18.6  25  1014   ---    SW    10    10   ---   --- /
01/11/2006 10:20      22.0   0.0  21.3  19.8  23  1014   ---    SW    10    10   ---   --- /
01/11/2006 10:50      23.0   0.0  22.3  20.2  22  1014   ---   WSW    13    13   ---   --- /
01/11/2006 11:50      23.0   5.0  22.6  21.0  31  1014   ---     W    10    10   ---   --- /
01/11/2006 13:50      24.0   6.0  23.6  21.1  31  1013   ---   SSW    14    14   ---   5.4 Scattered Clouds/
01/11/2006 14:20      23.0   6.0  22.7  21.3  33  1012   ---   WSW     8     8   ---   6.0 Broken Clouds/
01/11/2006 15:50      23.0   8.0  22.9  19.2  38  1011   ---    SW    18    18   ---   6.0 Broken Clouds/
01/11/2006 16:20      23.0   9.0  23.0  18.7  41  1011   ---    SW    21    21   ---   --- /
01/11/2006 17:20      22.0   8.0  22.0  18.5  41  1011   ---   SSW    14    14   ---   --- /
01/11/2006 18:50      21.0  13.0  22.0  16.5  60  1012   ---   SSW    18    18   ---   --- /
01/11/2006 19:50      21.0  15.0  22.5  16.1  69  1012   ---   SSW    19    19   ---   --- /
01/11/2006 20:50      21.0  16.0  22.9  15.8  73  1012   ---     S    21    21   ---   --- /
01/11/2006 21:50      21.0  16.0  22.9  16.5  73  1012   ---   SSW    18    18   ---   0.6 Broken Clouds/
01/11/2006 22:20      21.0  17.0  23.2  16.5  78  1012   ---   SSW    18    18   ---   0.6 Broken Clouds/
01/11/2006 23:20      21.0  17.0  23.2  15.8  78  1012   ---   SSW    21    21   ---   0.6 Broken Clouds/
02/11/2006 00:50      21.0  16.0  22.9  15.0  73  1011   ---    SW    27    27   ---   0.6 Scattered Clouds/
02/11/2006 01:50      20.0  16.0  22.2  13.8  78  1010   ---    SW    26    26   ---   0.6 Scattered Clouds/
02/11/2006 02:20      21.0  16.0  22.9  15.2  73  1010   ---   WSW    26    26   ---   0.6 Scattered Clouds/
02/11/2006 03:50      21.0  15.0  22.5  14.5  69  1010   ---     W    34    34   ---   0.7 Few Clouds/
02/11/2006 04:20      21.0  15.0  22.5  14.5  69  1010   ---     W    34    34   ---   0.7 Few Clouds/
02/11/2006 05:20      21.0  15.0  22.5  14.3  69  1010   ---     W    37    37   ---   0.7 Few Clouds/
02/11/2006 06:20      21.0  16.0  22.9  15.2  73  1011   ---     W    26    26   ---   0.5 Scattered Clouds/
02/11/2006 07:50      21.0  15.0  22.5  14.5  69  1010   ---     W    34    34   ---   0.5 Scattered Clouds/
02/11/2006 08:20      21.0  14.0  22.3  14.3  64  1010   ---     W    39    39   ---   0.7 Broken Clouds/
02/11/2006 09:20      21.0  12.0  21.8  14.9  56  1010   ---     W    29    29   ---   0.7 Scattered Clouds/
02/11/2006 10:20      21.0  13.0  22.0  15.0  60  1011   ---     W    27    27   ---   0.7 Scattered Clouds/
02/11/2006 11:20       0.0   0.0   4.0 -16.4 100   ---   ---     W   ---   ---   ---   --- /
02/11/2006 12:00       0.0   0.0   4.0 -16.4 100   ---   ---     W   ---   ---   ---   --- /
02/11/2006 14:00       0.0   0.0   4.0 -16.4 100   ---   ---     W   ---   ---   ---   --- /
02/11/2006 14:20       0.0   0.0   4.0 -16.4 100   ---   ---     W   ---   ---   ---   --- /
02/11/2006 16:00       0.0   0.0   4.0 -16.4 100   ---   ---     W   ---   ---   ---   --- /
02/11/2006 16:20       0.0   0.0   4.0 -16.4 100   ---   ---     W   ---   ---   ---   --- /
02/11/2006 17:20       0.0   0.0   4.0 -16.4 100   ---   ---     W   ---   ---   ---   --- /
02/11/2006 18:50      18.0  13.0  19.8  10.2  73  1013   ---   NNE    31    31   ---   0.6 Broken Clouds/
02/11/2006 19:50      18.0  11.0  19.2  10.0  64  1014   ---   NNE    32    32   ---   0.6 Broken Clouds/
02/11/2006 20:50      18.0  11.0  19.2  10.4  64  1014   ---    NE    29    29   ---   0.7 Broken Clouds/
02/11/2006 21:50      17.0   9.0  18.0   9.8  59  1015   ---    NE    23    23   ---   0.7 Broken Clouds/
02/11/2006 22:20      17.0   9.0  18.0   9.3  59  1015   ---   ENE    26    26   ---   0.7 Broken Clouds/
02/11/2006 23:20      17.0   8.0  17.7   8.9  55  1015   ---   ENE    29    29   ---   0.7 Broken Clouds/
03/11/2006 00:20      17.0   7.0  17.5   8.7  52  1016   ---    NE    31    31   ---   0.7 Broken Clouds/
03/11/2006 01:50       0.0   0.0   4.0 -18.4 100  1016   ---   ENE    37    37   ---   --- /
03/11/2006 02:20       0.0   0.0   4.0 -17.7 100  1016   ---    NE    34    34   ---   --- /
03/11/2006 03:50       0.0   0.0   4.0 -17.7 100  1017   ---   ENE    34    34   ---   --- /
03/11/2006 04:20      15.0   6.0  15.7   5.3  55  1017   ---    NE    34    34   ---   0.7 Broken Clouds/
03/11/2006 05:20      15.0   5.0  15.5   5.4  51  1018   ---    NE    32    32   ---   0.7 Broken Clouds/
03/11/2006 06:50      15.0   4.0  15.3   5.6  48  1019   ---   ENE    31    31   ---   0.7 Broken Clouds/
03/11/2006 07:50      15.0   3.0  15.2   5.6  44  1020   ---   ENE    31    31   ---   0.7 Broken Clouds/
03/11/2006 08:20      14.0   3.0  14.3   3.9  47  1020   ---   ENE    32    32   ---   0.7 Broken Clouds/
03/11/2006 09:50      14.0   3.0  14.3   4.1  47  1021   ---   ENE    31    53   ---   0.7 Scattered Clouds/
03/11/2006 10:20      15.0   1.0  14.9   4.9  39  1021   ---   ENE    37    37   ---   0.7 Scattered Clouds/
03/11/2006 11:20      16.0   0.0  15.7   7.0  34  1021   ---   ENE    32    32   ---   0.7 Few Clouds/
03/11/2006 11:50      16.0  -2.0  15.5   7.0  29  1021   ---   ENE    32    32   ---   0.7 Few Clouds/
03/11/2006 13:50      16.0   0.0  15.7   7.4  34  1022   ---   ENE    29    29   ---   --- /
03/11/2006 14:20      15.0   0.0  14.8   5.9  36  1022   ---     E    29    29   ---   --- /
03/11/2006 15:50      15.0   0.0  14.8   6.1  36  1021   ---   ENE    27    27   ---   --- /
03/11/2006 16:20      15.0   0.0  14.8   6.9  36  1021   ---     E    23    23   ---   --- /
03/11/2006 16:20      15.0   2.0  15.0   6.9  41  1021   ---     E    23    23   ---   --- None reported/None reported
03/11/2006 17:20      13.0   0.0  13.0   6.6  41  1022   ---     E    14    14   ---   --- /
03/11/2006 18:20      13.0   0.0  13.0   9.7  41  1022   ---     E     8     8   ---   --- /
03/11/2006 19:50      13.0   0.0  13.0   7.4  41  1023   ---     E    13    13   ---   --- /
03/11/2006 20:50      13.0   0.0  13.0   8.9  41  1024   ---     E    10    10   ---   --- /
03/11/2006 21:50      12.0   0.0  12.1   8.5  44  1025   ---     E     8     8   ---   --- /
03/11/2006 22:20      12.0  -5.0  11.6  12.0  30  1024   ---     N     5     5   ---   --- /
03/11/2006 22:50      12.0  -4.0  11.6  12.0  32  1024   ---     N     3     3   ---   --- /
04/11/2006 00:50      13.0  -3.0  12.7   9.7  33  1025   ---     E     8     8   ---   0.9 Few Clouds/
04/11/2006 01:50      13.0  -3.0  12.7  13.0  33  1025   ---     N     5     5   ---   0.9 Few Clouds/
04/11/2006 02:50      13.0  -2.0  12.8  13.0  35  1025   ---     N     5     5   ---   0.9 Scattered Clouds/
04/11/2006 03:20      13.0  -2.0  12.8  13.0  35  1025   ---     N     5     5   ---   0.9 Scattered Clouds/
04/11/2006 04:20       0.0   0.0   4.0   0.0 100   ---   ---     N   ---   ---   ---   --- /
04/11/2006 05:20      12.0  -1.0  12.0  10.1  41  1025   ---    SE     6     6   ---   0.9 Scattered Clouds/
04/11/2006 06:20      12.0  -2.0  11.9  10.1  38  1026   ---   ESE     6     6   ---   0.9 Few Clouds/
04/11/2006 07:50      13.0  -2.0  12.8  11.2  35  1027   ---   ESE     6     6   ---   0.7 Few Clouds/
04/11/2006 08:20      13.0  -2.0  12.8  13.0  35  1027   ---     N     3     3   ---   0.7 Few Clouds/
04/11/2006 09:50      16.0  -1.0  15.6  10.6  31  1028   ---     E    14    14   ---   0.7 Few Clouds/
04/11/2006 10:20      16.0   0.0  15.7   9.6  34  1028   ---   ENE    18    18   ---   0.7 Scattered Clouds/
04/11/2006 11:20      17.0   0.0  16.6  10.4  32  1028   ---   ENE    19    19   ---   0.7 Scattered Clouds/
04/11/2006 12:20      16.0   6.0  16.5   8.7  51  1028   ---   ESE    21    40   ---   0.7 Broken Clouds/
04/11/2006 13:50      16.0   1.0  15.8   8.4  36  1028   ---     E    23    23   ---   0.7 Scattered Clouds/
04/11/2006 14:20      16.0   2.0  15.9   8.7  39  1028   ---     E    21    21   ---   0.7 Scattered Clouds/
04/11/2006 15:50      16.0   2.0  15.9   9.0  39  1029   ---     E    19    19   ---   0.7 Scattered Clouds/
04/11/2006 16:20      15.0   2.0  15.0   7.6  41  1029   ---     E    19    19   ---   0.7 Scattered Clouds/
04/11/2006 16:20      15.0   2.0  15.0   7.6  41  1029   ---     E    19    19   ---   0.7 Scattered Clouds/None reported
04/11/2006 17:20      14.0   2.0  14.2   6.2  44  1029   ---     E    19    19   ---   0.7 Scattered Clouds/
04/11/2006 18:50      14.0   1.0  14.0   8.0  41  1030   ---     E    14    14   ---   0.7 Scattered Clouds/
04/11/2006 19:50      14.0   1.0  14.0  10.1  41  1031   ---   ESE    10    10   ---   0.7 Scattered Clouds/
04/11/2006 20:50      14.0   1.0  14.0  10.8  41  1031   ---     E     8     8   ---   0.7 Few Clouds/
04/11/2006 21:50      13.0  -1.0  12.9   9.7  38  1031   ---   ESE     8     8   ---   0.7 Few Clouds/
04/11/2006 22:20      14.0   0.0  13.9  12.3  38  1031   ---     E     6     6   ---   0.7 Scattered Clouds/
04/11/2006 23:20      14.0   0.0  13.9  10.8  38  1032   ---    SE     8     8   ---   0.7 Scattered Clouds/
05/11/2006 00:50      13.0   1.0  13.1  11.2  44  1032   ---    SE     6     6   ---   0.8 Few Clouds/
05/11/2006 01:50      12.0   1.0  12.3  10.1  47  1032   ---    SE     6     6   ---   0.8 Few Clouds/
05/11/2006 02:20      12.0   2.0  12.5  12.0  50  1031   ---     N     5     5   ---   0.8 Few Clouds/
05/11/2006 03:50      12.0   1.0  12.3  12.0  47  1031   ---     N     5     5   ---   --- /
05/11/2006 04:20      13.0   1.0  13.1  13.0  44  1031   ---     N     5     5   ---   --- /
05/11/2006 05:20      11.0   1.0  11.4  11.0  50  1032   ---     N     3     3   ---   --- /
05/11/2006 06:50      10.0   1.0  10.6   7.9  54  1031   ---     S     6     6   ---   0.6 Few Clouds/
05/11/2006 07:50      10.0   2.0  10.9  10.0  58  1032   ---     N     5     5   ---   0.6 Few Clouds/
05/11/2006 08:20      10.0   3.0  11.1  10.0  62  1032   ---     N     5     5   ---   0.6 Few Clouds/
05/11/2006 09:50      16.0   2.0  15.9  14.4  39  1033   ---    SW     6     6   ---   0.6 Few Clouds/
05/11/2006 10:20      16.0   1.0  15.8  13.2  36  1033   ---   WSW     8     8   ---   0.6 Few Clouds/
05/11/2006 11:20      17.0   0.0  16.6  17.0  32  1033   ---     N     5     5   ---   0.6 Few Clouds/
05/11/2006 11:50      16.0  -1.0  15.6  16.0  31  1033   ---     N     3     3   ---   0.6 Few Clouds/
05/11/2006 13:50      17.0   0.0  16.6  17.0  32  1032   ---     N     5     5   ---   --- /
05/11/2006 14:50      17.0  -1.0  16.5  15.5  29  1031   ---     N     6     6   ---   --- /
05/11/2006 16:20      17.0   0.0  16.6  15.5  32  1031   ---    NE     6     6   ---   --- /
05/11/2006 17:20      15.0   1.0  14.9  15.0  39  1030   ---     N     5     5   ---   --- /
05/11/2006 18:50      13.0   3.0  13.5  13.0  51  1031   ---     N     5     5   ---   --- /
05/11/2006 19:50      12.0   2.0  12.5  10.1  50  1030   ---    SE     6     6   ---   --- /
05/11/2006 20:50      11.0   3.0  11.9   7.3  58  1030   ---   SSE     8     8   ---   --- /
05/11/2006 21:20      12.0   3.0  12.7   8.5  54  1030   ---    SE     8     8   ---   --- /
05/11/2006 22:20      12.0   1.0  12.3  10.1  47  1031   ---   SSE     6     6   ---   --- /
05/11/2006 23:20      11.0   1.0  11.4   7.3  50  1030   ---   SSE     8     8   ---   --- /
06/11/2006 00:20      11.0   1.0  11.4   6.5  50  1029   ---   SSE    10    10   ---   0.9 Few Clouds/
06/11/2006 01:50      12.0   0.0  12.1  10.1  44  1029   ---     E     6     6   ---   0.9 Few Clouds/
06/11/2006 02:50      12.0   0.0  12.1  12.0  44  1028   ---     N     5     5   ---   0.9 Few Clouds/
06/11/2006 03:20      13.0  -1.0  12.9   9.7  38  1028   ---     S     8     8   ---   0.9 Few Clouds/
06/11/2006 04:20       0.0   0.0   4.0  -5.5 100   ---   ---     S   ---   ---   ---   --- /
06/11/2006 05:20      14.0  -1.0  13.8  12.3  36  1027   ---     E     6     6   ---   0.9 Scattered Clouds/
06/11/2006 06:50      13.0   1.0  13.1   8.9  44  1027   ---   SSE    10    10   ---   0.9 Scattered Clouds/
06/11/2006 07:50      14.0   3.0  14.3   8.7  47  1027   ---     S    13    13   ---   0.9 Scattered Clouds/
06/11/2006 08:20      14.0   3.0  14.3  14.0  47  1027   ---     N     5     5   ---   1.2 Scattered Clouds/
06/11/2006 09:20      18.0   5.0  18.1  18.0  42  1027   ---     N     2     2   ---   1.2 Scattered Clouds/
06/11/2006 10:20      19.0   3.0  18.7  17.7  35  1027   ---     W     6     6   ---   1.2 Scattered Clouds/
06/11/2006 11:20      19.0   4.0  18.8  19.0  37  1027   ---     N     3     3   ---   1.0 Scattered Clouds/
06/11/2006 11:50      19.0   4.0  18.8  19.0  37  1027   ---     N     3     3   ---   1.0 Broken Clouds/
06/11/2006 13:50      19.0   6.0  19.1  19.0  43  1026   ---     N     3     3   ---   1.0 Broken Clouds/
06/11/2006 14:50       0.0   0.0   4.0   0.0 100     0   ---     N     3     3   ---   --- /
06/11/2006 15:50      19.0   9.0  19.6  17.7  52  1026   ---   ENE     6     6   ---   0.9 Broken Clouds/
06/11/2006 16:20      19.0   9.0  19.6  19.0  52  1026   ---     N     3     3   ---   0.9 Broken Clouds/
06/11/2006 17:20      18.0  10.0  19.0  18.0  60  1026   ---     N     5     5   ---   0.7 Scattered Clouds/
06/11/2006 18:50      16.0  10.0  17.5  13.2  68  1026   ---     E     8     8   ---   --- /
06/11/2006 19:20      17.0  10.0  18.2  15.5  63  1026   ---     E     6     6   ---   --- /
06/11/2006 20:20      16.0  10.0  17.5  16.0  68  1026   ---     N     3     3   ---   0.7 Few Clouds/
06/11/2006 21:50      15.0  10.0  16.8  15.0  72  1026   ---     N     3     3   ---   0.7 Few Clouds/
06/11/2006 22:20       0.0   0.0   4.0   0.0 100   ---   ---     N   ---   ---   ---   --- /
06/11/2006 22:50      15.0  10.0  16.8  15.0  72  1026   ---     N     3     3   ---   0.9 Scattered Clouds/
06/11/2006 23:20      15.0  10.0  16.8  15.0  72  1027   ---     N     5     5   ---   0.9 Scattered Clouds/
07/11/2006 01:50      15.0  10.0  16.8  15.0  72  1027   ---     N     3     3   ---   0.9 Scattered Clouds/
07/11/2006 02:20      14.0   9.0  15.8  14.0  72  1027   ---     N     2     2   ---   --- /
07/11/2006 03:50      14.0   9.0  15.8  14.0  72  1027   ---     N     3     3   ---   --- /
07/11/2006 04:20      14.0   9.0  15.8  14.0  72  1027   ---     N     3     3   ---   --- /
07/11/2006 05:20      14.0  10.0  16.1  14.0  77  1027   ---     N     5     5   ---   0.8 Scattered Clouds/
07/11/2006 06:50      13.0   8.0  14.8  13.0  72  1027   ---     N     3     3   ---   0.7 Few Clouds/
07/11/2006 07:50      15.0  10.0  16.8  15.0  72  1028   ---     N     2     2   ---   0.7 Few Clouds/
07/11/2006 08:20      15.0  10.0  16.8  15.0  72  1028   ---     N     2     2   ---   0.7 Few Clouds/
07/11/2006 09:20      18.0  10.0  19.0  13.2  60  1028   ---     E    14    14   ---   0.7 Few Clouds/
07/11/2006 10:50      20.0  10.0  20.6  16.4  53  1028   ---    NE    13    13   ---   --- /
07/11/2006 11:20      20.0  10.0  20.6  15.3  53  1028   ---    NE    16    16   ---   --- /
07/11/2006 12:20      20.0  11.0  20.8  15.9  56  1028   ---    NE    14    14   ---   --- /
07/11/2006 12:50      20.0  11.0  20.8  15.3  56  1028   ---    NE    16    16   ---   --- /
07/11/2006 14:20      20.0  12.0  21.0  15.3  60  1027   ---    NE    16    16   ---   --- /
07/11/2006 15:20      20.0  12.0  21.0  14.6  60  1027   ---   ENE    19    19   ---   --- /
07/11/2006 16:20      19.0  13.0  20.5  12.7  68  1027   ---   ENE    23    23   ---   --- /
07/11/2006 16:50      18.0  13.0  19.8  11.8  73  1027   ---   ENE    19    19   ---   --- /
07/11/2006 17:50      18.0  13.0  19.8  11.8  73  1027   ---   ENE    19    19   ---   --- /
07/11/2006 17:50      18.0  13.0  19.8  11.8  73  1027   ---   ENE    19    19   ---   --- None reported/None reported
07/11/2006 18:50      18.0  12.0  19.5  12.6  68  1027   ---   ENE    16    16   ---   --- /
07/11/2006 19:20      17.0  12.0  18.8  11.9  72  1028   ---   ENE    14    14   ---   --- /
07/11/2006 21:20      15.0  11.0  17.1  15.0  77  1028   ---     N     0     0   ---   --- /
07/11/2006 22:20      15.0  11.0  17.1  15.0  77  1028   ---   ---     3     3   ---   --- /
07/11/2006 23:20      14.0  10.0  16.1  12.3  77  1029   ---     S     6     6   ---   --- /
08/11/2006 00:50      15.0  10.0  16.8  15.0  72  1029   ---     N     3     3   ---   --- /
08/11/2006 01:50      14.0   9.0  15.8  14.0  72  1029   ---     N     3     3   ---   --- /
08/11/2006 02:50      13.0   8.0  14.8  13.0  72  1029   ---     N     2     2   ---   --- /
08/11/2006 03:20      14.0   9.0  15.8  14.0  72  1029   ---     N     5     5   ---   --- /
08/11/2006 05:20      14.0   9.0  15.8  14.0  72  1030   ---     N     5     5   ---   --- /
08/11/2006 07:20      13.0   8.0  14.8  11.2  72  1031   ---     S     6     6   ---   --- /
08/11/2006 08:20      14.0   9.0  15.8  14.0  72  1031   ---     N     5     5   ---   --- /
08/11/2006 09:20      18.0  12.0  19.5  18.0  68  1031   ---     N     2     2   ---   --- /
08/11/2006 09:50      20.0  13.0  21.3  20.0  64  1032   ---     N     2     2   ---   --- /
08/11/2006 11:20      19.0  12.0  20.2  19.0  64  1031   ---     N     3     3   ---   --- /
08/11/2006 12:20      20.0  12.0  21.0  20.0  60  1031   ---     N     5     5   ---   --- /
08/11/2006 13:50      20.0  12.0  21.0  17.8  60  1031   ---   NNE     8     8   ---   --- /
08/11/2006 14:50      20.0  13.0  21.3  16.4  64  1031   ---    NE    13    13   ---   --- /
08/11/2006 15:50      20.0  12.0  21.0  15.3  60  1030   ---    NE    16    16   ---   --- /
08/11/2006 16:50      19.0  13.0  20.5  14.0  68  1030   ---   ENE    16    16   ---   --- /
08/11/2006 17:20      18.0  13.0  19.8  13.2  73  1030   ---   ENE    14    14   ---   --- /
08/11/2006 18:50      16.0   7.0  16.7  14.4  55  1031   ---     E     6     6   ---   --- /
08/11/2006 19:50      16.0   7.0  16.7  16.0  55  1031   ---     N     3     3   ---   --- /
08/11/2006 20:50      15.0   8.0  16.2  12.0  63  1031   ---     S     8     8   ---   --- /
08/11/2006 21:50      15.0   7.0  15.9  12.0  59  1031   ---     S     8     8   ---   --- /
08/11/2006 22:20      16.0  11.0  17.8  12.5  72  1031   ---     S    10    10   ---   --- /
08/11/2006 23:20      15.0  10.0  16.8  11.3  72  1031   ---   SSE    10    10   ---   --- /
08/11/2006 23:50      15.0  10.0  16.8  13.3  72  1031   ---     S     6     6   ---   --- /
09/11/2006 01:50      14.0  10.0  16.1  14.0  77  1031   ---     N     2     2   ---   --- /
09/11/2006 02:50       0.0   0.0   4.0   0.0 100  1031   ---     N     2     2   ---   --- /
09/11/2006 03:50       0.0   0.0   4.0   0.0 100  1031   ---     N     3     3   ---   --- /
09/11/2006 04:20       0.0   0.0   4.0   0.0 100  1031   ---     N     2     2   ---   --- /
09/11/2006 05:20      14.0   9.0  15.8  12.3  72  1031   ---   SSE     6     6   ---   --- /
09/11/2006 06:20      13.0   8.0  14.8  13.0  72  1031   ---     N     3     3   ---   --- /
09/11/2006 07:50      13.0   8.0  14.8  13.0  72  1031   ---     N     5     5   ---   --- /
09/11/2006 09:20      18.0   9.0  18.8  18.0  56  1031   ---     N     5     5   ---   --- /
09/11/2006 10:20      20.0   6.0  20.0  16.4  40  1031   ---   WSW    13    13   ---   --- /
09/11/2006 11:20      22.0   0.0  21.3  21.0  23  1030   ---     W     6     6   ---   --- /
09/11/2006 12:20      20.0   9.0  20.4  18.8  49  1029   ---     W     6     6   ---   --- /
09/11/2006 13:50      21.0  10.0  21.4  21.0  49  1029   ---     N     5     5   ---   --- /
09/11/2006 14:50      21.0  11.0  21.6  19.9  53  1029   ---   NNE     6     6   ---   --- /
09/11/2006 15:50      20.0  12.0  21.0  18.8  60  1028   ---   NNE     6     6   ---   --- /
09/11/2006 16:20       0.0   0.0   4.0  -3.0 100   ---   ---   NNE   ---   ---   ---   --- /
09/11/2006 16:50      19.0  11.0  20.0  16.7  60  1028   ---    NE     8     8   ---   --- /
09/11/2006 16:50      19.0  11.0  20.0  16.7  60  1028   ---    NE     8     8   ---   --- None reported/None reported
09/11/2006 18:20      17.0  11.0  18.5  17.0  68  1028   ---     N     5     5   ---   --- /
09/11/2006 19:50      16.0   8.0  16.9  12.5  59  1028   ---     S    10    10   ---   --- /
09/11/2006 20:50      17.0   7.0  17.5  13.8  52  1028   ---   SSW    10    10   ---   --- /
09/11/2006 21:50      16.0   7.0  16.7  11.3  55  1027   ---   SSW    13    13   ---   --- /
09/11/2006 22:20      16.0   7.0  16.7  13.2  55  1027   ---   SSW     8     8   ---   --- /
09/11/2006 23:20      15.0   7.0  15.9  15.0  59  1028   ---     N     5     5   ---   --- /
10/11/2006 00:50      15.0   8.0  16.2  15.0  63  1027   ---     N     2     2   ---   --- /
10/11/2006 01:50      15.0   9.0  16.5  13.3  67  1027   ---     S     6     6   ---   --- /
10/11/2006 02:20      14.0  10.0  16.1  10.8  77  1027   ---    SW     8     8   ---   --- /
10/11/2006 03:50      16.0  10.0  17.5  11.3  68  1026   ---     S    13    13   ---   --- /
10/11/2006 04:20      17.0  10.0  18.2  13.8  63  1025   ---     S    10    10   ---   --- /
10/11/2006 05:20      17.0  12.0  18.8  14.3  72  1025   ---   SSW     8     8   ---   --- /
10/11/2006 06:50      17.0  13.0  19.2  14.3  77  1025   ---     S     8     8   ---   0.8 Few Clouds/
10/11/2006 07:50      18.0  13.0  19.8  15.0  73  1025   ---     S    10    10   ---   0.9 Scattered Clouds/
10/11/2006 08:20      18.0  13.0  19.8  15.5  73  1025   ---     S     8     8   ---   0.9 Scattered Clouds/
10/11/2006 09:50      20.0  14.0  21.5  16.4  68  1026   ---    SW    13    13   ---   0.9 Scattered Clouds/
10/11/2006 10:20      21.0  14.0  22.3  18.6  64  1026   ---   SSW    10    10   ---   0.9 Scattered Clouds/
10/11/2006 11:20      21.0  13.0  22.0  21.0  60  1025   ---     N     5     5   ---   0.9 Few Clouds/
10/11/2006 12:20      22.0  14.0  23.0  22.0  61  1025   ---     N     3     3   ---   0.9 Few Clouds/
10/11/2006 13:50      21.0  13.0  22.0  19.9  60  1024   ---   NNW     6     6   ---   0.9 Few Clouds/
10/11/2006 14:20      21.0  14.0  22.3  21.0  64  1023   ---     N     5     5   ---   0.9 Few Clouds/
10/11/2006 15:50      20.0  14.0  21.5  18.8  68  1023   ---     N     6     6   ---   0.9 Few Clouds/
10/11/2006 16:20      20.0  14.0  21.5  17.8  68  1023   ---     N     8     8   ---   0.9 Few Clouds/
10/11/2006 17:20      20.0  15.0  21.8  17.8  73  1024   ---     N     8     8   ---   0.9 Scattered Clouds/
10/11/2006 18:50      19.0  14.0  20.8  14.0  73  1024   ---   NNE    16    16   ---   1.0 Broken Clouds/
10/11/2006 19:50      19.0  14.0  20.8  13.2  73  1024   ---   NNE    19    19   ---   0.6 Scattered Clouds/
10/11/2006 20:50      19.0  15.0  21.2  13.2  78  1025   ---   NNE    19    19   ---   0.6 Scattered Clouds/
10/11/2006 21:50      19.0  14.0  20.8  12.7  73  1025   ---     N    23    23   ---   0.6 Scattered Clouds/
10/11/2006 22:20      19.0  14.0  20.8  12.7  73  1026   ---     N    23    23   ---   0.6 Scattered Clouds/
10/11/2006 23:20      19.0  13.0  20.5  12.0  68  1026   ---   NNE    27    27   ---   0.6 Scattered Clouds/
11/11/2006 00:50      18.0  14.0  20.2  10.4  77  1025   ---     E    29    29   ---   0.5 Scattered Clouds/
11/11/2006 01:50      18.0  13.0  19.8  13.2  73  1026   ---   ENE    14    14   ---   0.6 Scattered Clouds/
11/11/2006 02:20      18.0  12.0  19.5  10.0  68  1025   ---   ENE    32    32   ---   0.6 Scattered Clouds/
11/11/2006 03:50      17.0  11.0  18.5   9.1  68  1025   ---   ENE    27    27   ---   0.6 Scattered Clouds/
11/11/2006 04:20      17.0  10.0  18.2   9.1  63  1026   ---   ENE    27    27   ---   0.6 Scattered Clouds/
11/11/2006 05:20      17.0   7.0  17.5   9.1  52  1026   ---    NE    27    27   ---   0.6 Scattered Clouds/
11/11/2006 06:20      17.0   7.0  17.5   8.7  52  1026   ---    NE    31    31   ---   0.6 Scattered Clouds/
11/11/2006 07:50      16.0   5.0  16.3   7.4  48  1027   ---   ENE    29    29   ---   --- /
11/11/2006 08:20      16.0   5.0  16.3   7.2  48  1027   ---   ENE    31    31   ---   0.7 Few Clouds/
11/11/2006 09:50      17.0   5.0  17.2   8.9  45  1028   ---   ENE    29    29   ---   0.7 Few Clouds/
11/11/2006 10:20      17.0   5.0  17.2   9.1  45  1028   ---   ENE    27    27   ---   0.7 Few Clouds/
11/11/2006 10:20      17.0   5.0  17.2   9.1  45  1028   ---   ENE    27    27   ---   0.7 Few Clouds/None reported
11/11/2006 11:50      18.0   5.0  18.1  11.3  42  1028   ---   ENE    23    23   ---   0.7 Few Clouds/
11/11/2006 13:50      18.0   2.0  17.7  10.6  34  1026   ---   ENE    27    27   ---   0.7 Few Clouds/
11/11/2006 16:20      17.0   3.0  16.9  10.4  39  1027   ---    NE    19    19   ---   --- /
11/11/2006 17:20      16.0   4.0  16.2  10.6  45  1027   ---   ENE    14    14   ---   --- /
11/11/2006 18:20      15.0   4.0  15.3  10.0  48  1027   ---   ENE    13    13   ---   --- /
11/11/2006 19:50      15.0   4.0  15.3  12.0  48  1027   ---     E     8     8   ---   --- /
11/11/2006 20:50      15.0   5.0  15.5  11.3  51  1027   ---   ENE    10    10   ---   0.8 Few Clouds/
11/11/2006 21:50      14.0   5.0  14.7  14.0  55  1027   ---     N     5     5   ---   0.8 Few Clouds/
11/11/2006 22:20      13.0   4.0  13.7  11.2  54  1027   ---    SE     6     6   ---   0.8 Few Clouds/
11/11/2006 23:20      12.0   5.0  13.1  10.1  62  1026   ---   SSE     6     6   ---   0.8 Few Clouds/
12/11/2006 00:50      12.0   5.0  13.1   8.5  62  1026   ---     S     8     8   ---   --- /
12/11/2006 01:50      11.0   3.0  11.9   6.5  58  1025   ---     S    10    10   ---   --- /
12/11/2006 02:20      11.0   0.0  11.3   9.0  47  1025   ---   SSW     6     6   ---   --- /
12/11/2006 03:50      11.0   0.0  11.3   9.0  47  1025   ---     S     6     6   ---   --- /
12/11/2006 07:50      14.0   6.0  14.9   8.7  59  1022   ---     S    13    13   ---   --- /
12/11/2006 08:20      15.0   7.0  15.9  11.3  59  1022   ---     S    10    10   ---   --- /
12/11/2006 09:50      18.0   9.0  18.8  11.8  56  1021   ---   SSW    19    19   ---   --- /
12/11/2006 10:20      19.0   9.0  19.6  13.0  52  1020   ---     S    21    21   ---   --- /
12/11/2006 11:20      20.0   9.0  20.4  13.5  49  1019   ---   SSW    27    27   ---   --- /
12/11/2006 12:20      20.0  10.0  20.6  13.5  53  1018   ---   SSW    27    27   ---   0.9 Broken Clouds/
12/11/2006 13:50      20.0  12.0  21.0  13.8  60  1017   ---    SW    26    26   ---   0.9 Broken Clouds/
12/11/2006 14:20      20.0  14.0  21.5  13.8  68  1016   ---    SW    26    26   ---   0.9 Broken Clouds/
12/11/2006 16:20      20.0  14.0  21.5  14.2  68  1016   ---    SW    23    23   ---   0.9 Broken Clouds/
12/11/2006 19:50      20.0  15.0  21.8  12.7  73  1014   ---     W    39    39   ---   0.9 Broken Clouds/
12/11/2006 20:50      19.0  13.0  20.5  11.0  68  1014   ---     W    40    40   ---   0.6 Broken Clouds/
12/11/2006 21:50      19.0  13.0  20.5  11.5  68  1014   ---   WNW    34    34   ---   0.6 Broken Clouds/
12/11/2006 22:20      19.0  13.0  20.5  11.6  68  1014   ---     W    32    32   ---   0.6 Broken Clouds/
12/11/2006 23:20      19.0  13.0  20.5  11.2  68  1014   ---     W    37    37   ---   0.6 Broken Clouds/
13/11/2006 00:50      19.0  12.0  20.2  11.9  64  1013   ---     W    29    29   ---   0.6 Broken Clouds/
13/11/2006 02:00       0.0   0.0   4.0 -16.7 100   ---   ---     W   ---   ---   ---   --- /
13/11/2006 02:20      18.0  14.0  20.2   9.9  77  1012   ---   WNW    34    34   ---   0.6 Broken Clouds/
13/11/2006 03:50      18.0  13.0  19.8  10.6  73  1012   ---     W    27    27   ---   0.6 Broken Clouds/
13/11/2006 04:20       0.0   0.0   4.0 -16.4 100   ---   ---     W   ---   ---   ---   --- /
13/11/2006 05:20      18.0  12.0  19.5  13.2  68  1012   ---     W    14    14   ---   0.6 Scattered Clouds/
13/11/2006 06:20      18.0  13.0  19.8  15.0  73  1012   ---   WNW    10    10   ---   0.6 Scattered Clouds/
13/11/2006 07:50      18.0  13.0  19.8  15.5  73  1012   ---   SSE     8     8   ---   0.6 Broken Clouds/
13/11/2006 08:20      18.0  14.0  20.2  16.6  77  1013   ---     S     6     6   ---   0.6 Broken Clouds/
13/11/2006 09:20      19.0  13.0  20.5  19.0  68  1013   ---     N     5     5   ---   0.6 Broken Clouds/
13/11/2006 10:20      19.0  13.0  20.5  17.7  68  1014   ---   SSW     6     6   ---   0.6 Scattered Clouds/
13/11/2006 11:20      19.0  12.0  20.2  19.0  64  1013   ---     N     5     5   ---   0.6 Scattered Clouds/
13/11/2006 11:50      20.0  13.0  21.3  20.0  64  1014   ---     N     5     5   ---   0.6 Scattered Clouds/
13/11/2006 13:50      20.0  13.0  21.3  17.8  64  1014   ---   WNW     8     8   ---   0.6 Scattered Clouds/
13/11/2006 14:20      20.0  14.0  21.5  18.8  68  1014   ---    NW     6     6   ---   0.6 Scattered Clouds/
13/11/2006 15:50      21.0  14.0  22.3  21.0  64  1014   ---     N     2     2   ---   0.6 Few Clouds/
13/11/2006 16:50      19.0  14.0  20.8  19.0  73  1014   ---     N     2     2   ---   0.6 Few Clouds/
13/11/2006 17:50      18.0  13.0  19.8  18.0  73  1015   ---     N     5     5   ---   0.6 Few Clouds/
13/11/2006 22:20      16.0  11.0  17.8  16.0  72  1017   ---     N     3     3   ---   0.6 Scattered Clouds/
13/11/2006 22:50      16.0  12.0  18.1  16.0  77  1018   ---     N     2     2   ---   0.6 Scattered Clouds/
14/11/2006 00:50      15.0  10.0  16.8  15.0  72  1018   ---     N     5     5   ---   0.6 Few Clouds/
14/11/2006 01:50      15.0  10.0  16.8  15.0  72  1018   ---     N     5     5   ---   0.6 Few Clouds/
14/11/2006 02:20      14.0  10.0  16.1  14.0  77  1018   ---     N     3     3   ---   0.6 Few Clouds/
14/11/2006 03:50      16.0  11.0  17.8  13.2  72  1019   ---     S     8     8   ---   0.7 Few Clouds/
14/11/2006 04:20      15.0  10.0  16.8  12.0  72  1019   ---     S     8     8   ---   0.7 Few Clouds/
14/11/2006 04:50      16.0  11.0  17.8  13.2  72  1019   ---     S     8     8   ---   0.7 Few Clouds/
14/11/2006 06:20      14.0   9.0  15.8  12.3  72  1020   ---   SSW     6     6   ---   --- /
14/11/2006 07:50      14.0   9.0  15.8  12.3  72  1020   ---   SSW     6     6   ---   --- /
14/11/2006 08:20      15.0  10.0  16.8  10.0  72  1021   ---   WSW    13    13   ---   --- /
14/11/2006 09:20      18.0  11.0  19.2  13.8  64  1022   ---    SW    13    13   ---   --- /
14/11/2006 10:20      20.0   9.0  20.4  16.4  49  1022   ---    SW    13    13   ---   --- /
14/11/2006 11:20      21.0   8.0  21.1  18.6  43  1022   ---     W    10    10   ---   --- /
14/11/2006 12:20      22.0   8.0  22.0  20.2  41  1022   ---     W     8     8   ---   --- /
14/11/2006 13:20      21.0   8.0  21.1  19.9  43  1022   ---   WNW     6     6   ---   --- /
14/11/2006 14:20      20.0  10.0  20.6  18.8  53  1022   ---     N     6     6   ---   0.7 Few Clouds/
14/11/2006 15:20      20.0  11.0  20.8  17.8  56  1022   ---   NNE     8     8   ---   0.7 Few Clouds/
14/11/2006 16:20      20.0  12.0  21.0  17.4  60  1022   ---   NNE    10    10   ---   0.7 Few Clouds/
14/11/2006 17:20      18.0  12.0  19.5  15.0  68  1023   ---   ENE    10    10   ---   --- /
14/11/2006 18:50      17.0  12.0  18.8  15.5  72  1024   ---   ENE     6     6   ---   --- /
14/11/2006 21:50      15.0  11.0  17.1  15.0  77  1025   ---     N     5     5   ---   --- /
14/11/2006 22:20      15.0  10.0  16.8  13.3  72  1025   ---   SSE     6     6   ---   --- /
14/11/2006 23:20      15.0  10.0  16.8  15.0  72  1025   ---     N     5     5   ---   --- /
15/11/2006 00:20      15.0  10.0  16.8  15.0  72  1025   ---     N     3     3   ---   --- /
15/11/2006 01:50      15.0  10.0  16.8  15.0  72  1025   ---     N     5     5   ---   --- /
15/11/2006 02:20      14.0  10.0  16.1  14.0  77  1025   ---     N     3     3   ---   --- /
15/11/2006 03:20      13.0   9.0  15.1  11.2  77  1025   ---   SSW     6     6   ---   --- /
15/11/2006 04:20      13.0   9.0  15.1  13.0  77  1025   ---     N     2     2   ---   --- /
15/11/2006 05:20      13.0   9.0  15.1  13.0  77  1025   ---     N     3     3   ---   --- /
15/11/2006 06:20      14.0   9.0  15.8  14.0  72  1025   ---     N     3     3   ---   --- /
15/11/2006 07:50      14.0   9.0  15.8  14.0  72  1026   ---     N     0     0   ---   --- /
15/11/2006 08:20      14.0   9.0  15.8  14.0  72  1026   ---   ---     0     0   ---   --- /
15/11/2006 09:20      18.0  13.0  19.8  18.0  73  1026   ---   ---     0     0   ---   --- /
15/11/2006 10:20      19.0  13.0  20.5  19.0  68  1026   ---   ---     3     3   ---   --- /
15/11/2006 11:20      20.0  13.0  21.3  17.4  64  1026   ---   WSW    10    10   ---   --- /
15/11/2006 12:20      20.0  11.0  20.8  20.0  56  1026   ---     N     5     5   ---   --- /
15/11/2006 13:50      21.0  12.0  21.8  17.7  56  1025   ---   NNE    13    13   ---   0.6 Few Clouds/
15/11/2006 14:50      20.0  15.0  21.8  15.9  73  1024   ---    NE    14    14   ---   --- /
15/11/2006 15:20      20.0  14.0  21.5  15.9  68  1024   ---    NE    14    14   ---   --- /
15/11/2006 16:50      19.0  14.0  20.8  15.1  73  1024   ---   ENE    13    13   ---   0.7 Few Clouds/
15/11/2006 18:20      18.0  12.0  19.5  16.6  68  1024   ---    SW     6     6   ---   0.7 Scattered Clouds/
15/11/2006 18:50      18.0  12.0  19.5  18.0  68  1024   ---     N     2     2   ---   0.7 Scattered Clouds/
15/11/2006 21:20      17.0  12.0  18.8  17.0  72  1025   ---     N     5     5   ---   --- /
15/11/2006 21:50      16.0  12.0  18.1  16.0  77  1025   ---     N     3     3   ---   --- /
15/11/2006 22:50      16.0  12.0  18.1  16.0  77  1025   ---     N     5     5   ---   --- /
16/11/2006 00:20      16.0  11.0  17.8  16.0  72  1025   ---     N     3     3   ---   --- /
16/11/2006 01:20      15.0  11.0  17.1  13.3  77  1025   ---     W     6     6   ---   --- /
16/11/2006 02:20      16.0  12.0  18.1  16.0  77  1025   ---     N     3     3   ---   --- /
16/11/2006 03:20      16.0  12.0  18.1  16.0  77  1024   ---     N     3     3   ---   --- /
16/11/2006 04:20      15.0  11.0  17.1  15.0  77  1024   ---     N     2     2   ---   --- /
16/11/2006 04:50      15.0  11.0  17.1  15.0  77  1025   ---     N     2     2   ---   --- /
16/11/2006 06:20      18.0  12.0  19.5  13.8  68  1024   ---   SSE    13    13   ---   --- /
16/11/2006 07:50      19.0  12.0  20.2  13.7  64  1024   ---   SSE    18    18   ---   0.7 Few Clouds/
16/11/2006 08:20      19.0  13.0  20.5  13.7  68  1024   ---   SSE    18    18   ---   0.7 Few Clouds/
16/11/2006 09:50      21.0  12.0  21.8  16.7  56  1024   ---     S    16    16   ---   0.7 Few Clouds/
16/11/2006 10:20      22.0  12.0  22.6  17.9  53  1025   ---     S    18    18   ---   0.7 Few Clouds/
16/11/2006 11:20      23.0  11.0  23.3  18.7  47  1025   ---   SSW    21    21   ---   0.7 Few Clouds/
16/11/2006 11:50      23.0  11.0  23.3  18.7  47  1025   ---   SSW    21    21   ---   0.7 Few Clouds/
16/11/2006 13:50      22.0  12.0  22.6  20.2  53  1023   ---    NE     8     8   ---   0.9 Scattered Clouds/
16/11/2006 15:20      21.0  14.0  22.3  17.2  64  1023   ---   ENE    14    14   ---   0.6 Scattered Clouds/
16/11/2006 16:20      21.0  14.0  22.3  17.7  64  1023   ---   ENE    13    13   ---   0.6 Few Clouds/
16/11/2006 19:50      17.0  11.0  18.5  17.0  68  1023   ---     N     5     5   ---   --- /
16/11/2006 20:20      17.0  12.0  18.8  17.0  72  1023   ---     N     2     2   ---   --- /
16/11/2006 21:50      16.0  11.0  17.8  16.0  72  1024   ---     N     3     3   ---   --- /
16/11/2006 22:20      15.0  11.0  17.1  15.0  77  1023   ---     N     2     2   ---   --- /
16/11/2006 23:20      15.0  11.0  17.1  15.0  77  1023   ---     N     5     5   ---   --- /
17/11/2006 00:20      17.0  12.0  18.8  17.0  72  1023   ---     N     3     3   ---   --- /
17/11/2006 01:50      16.0  12.0  18.1  16.0  77  1022   ---     N     5     5   ---   --- /
17/11/2006 02:20      17.0  12.0  18.8  17.0  72  1022   ---     N     5     5   ---   --- /
17/11/2006 03:50      18.0  13.0  19.8  16.6  73  1022   ---     S     6     6   ---   --- /
17/11/2006 04:20      16.0  10.0  17.5  16.0  68  1022   ---     N     3     3   ---   --- /
17/11/2006 05:20      18.0  11.0  19.2  18.0  64  1021   ---     N     2     2   ---   --- /
17/11/2006 06:20      21.0   0.0  20.4  15.6  25  1021   ---     S    23    23   ---   --- /
17/11/2006 07:50      21.0   0.0  20.4  15.0  25  1022   ---     S    27    27   ---   --- /
17/11/2006 08:20      21.0   3.0  20.6  14.9  31  1021   ---     S    29    29   ---   --- /
17/11/2006 09:50      23.0   5.0  22.6  18.2  31  1022   ---     S    26    26   ---   --- /
17/11/2006 10:20      23.0   5.0  22.6  18.0  31  1022   ---     S    27    27   ---   --- /
17/11/2006 11:20      24.0   7.0  23.7  19.2  34  1022   ---     S    34    53   ---   --- /
17/11/2006 11:50      24.0   7.0  23.7  19.2  34  1022   ---     S    34    34   ---   --- /
17/11/2006 13:50      25.0   7.0  24.6  21.4  32  1020   ---     S    23    51   ---   0.7 Few Clouds/
17/11/2006 14:20      25.0   7.0  24.6  21.0  32  1020   ---     S    29    29   ---   0.7 Few Clouds/
17/11/2006 15:50      24.0   7.0  23.7  20.0  34  1020   ---     S    23    23   ---   1.0 Few Clouds/
17/11/2006 22:20      21.0  12.0  21.8  16.5  56  1020   ---     S    18    39   ---   --- /
17/11/2006 23:20      21.0  13.0  22.0  16.7  60  1021   ---     S    16    34   ---   --- /
18/11/2006 00:50      20.0  13.0  21.3  16.4  64  1021   ---   SSW    13    13   ---   0.7 Scattered Clouds/
18/11/2006 01:50      20.0  14.0  21.5  16.4  68  1020   ---    SW    13    13   ---   0.7 Scattered Clouds/
18/11/2006 02:20      20.0  14.0  21.5  16.4  68  1020   ---    SW    13    13   ---   0.7 Scattered Clouds/
18/11/2006 03:50      20.0  13.0  21.3  16.4  64  1021   ---   SSW    13    13   ---   0.7 Few Clouds/
18/11/2006 04:50      20.0  11.0  20.8  15.3  56  1020   ---   SSW    16    16   ---   0.7 Few Clouds/
18/11/2006 05:50      20.0  11.0  20.8  14.4  56  1020   ---     S    21    43   ---   0.7 Few Clouds/
18/11/2006 06:20      20.0  12.0  21.0  14.2  60  1020   ---     S    23    23   ---   0.7 Few Clouds/
18/11/2006 07:50      20.0  13.0  21.3  14.4  64  1021   ---   SSW    21    21   ---   1.0 Scattered Clouds/
18/11/2006 09:50      22.0  12.0  22.6  17.1  53  1023   ---   SSW    23    23   ---   1.0 Scattered Clouds/
18/11/2006 10:50      22.0  12.0  22.6  17.5  53  1023   ---    SW    19    19   ---   1.0 Scattered Clouds/
18/11/2006 11:50      23.0  12.0  23.4  19.2  50  1023   ---   WSW    18    18   ---   1.0 Scattered Clouds/
18/11/2006 12:20      22.0  15.0  23.3  18.5  65  1023   ---   WSW    14    14   ---   1.0 Scattered Clouds/
18/11/2006 16:20      21.0  16.0  22.9  17.7  73  1023   ---     W    13    13   ---   0.7 Scattered Clouds/
18/11/2006 20:50      19.0  13.0  20.5  13.7  68  1025   ---     W    18    18   ---   0.9 Scattered Clouds/
18/11/2006 21:50      18.0  13.0  19.8  15.0  73  1025   ---   WSW    10    10   ---   0.9 Scattered Clouds/
18/11/2006 22:20      18.0  13.0  19.8  11.6  73  1026   ---     W    21    21   ---   0.9 Scattered Clouds/
18/11/2006 23:20      18.0  13.0  19.8  16.6  73  1026   ---    SW     6     6   ---   0.9 Scattered Clouds/
19/11/2006 00:50      18.0  13.0  19.8  15.5  73  1026   ---     S     8     8   ---   0.7 Scattered Clouds/
19/11/2006 01:50      18.0  13.0  19.8  15.5  73  1026   ---     S     8     8   ---   0.7 Scattered Clouds/
19/11/2006 02:20      18.0  13.0  19.8  15.5  73  1026   ---     S     8     8   ---   0.7 Scattered Clouds/
19/11/2006 03:50      18.0  13.0  19.8  15.0  73  1025   ---     S    10    10   ---   0.7 Scattered Clouds/
19/11/2006 04:20      17.0  13.0  19.2  14.3  77  1026   ---     S     8     8   ---   0.7 Scattered Clouds/
19/11/2006 05:50      17.0  12.0  18.8  13.8  72  1026   ---     S    10    10   ---   --- /
19/11/2006 06:50      17.0  12.0  18.8  14.3  72  1026   ---     S     8     8   ---   0.7 Scattered Clouds/
19/11/2006 07:50      17.0  13.0  19.2  14.3  77  1026   ---     S     8     8   ---   0.6 Scattered Clouds/
19/11/2006 08:20      18.0  13.0  19.8  16.6  73  1027   ---     S     6     6   ---   0.6 Scattered Clouds/
19/11/2006 09:50      19.0  14.0  20.8  19.0  73  1027   ---     N     5     5   ---   0.6 Scattered Clouds/
19/11/2006 10:50      19.0  13.0  20.5  16.2  68  1027   ---    NW    10    10   ---   0.7 Broken Clouds/
19/11/2006 11:20      19.0  13.0  20.5  15.1  68  1027   ---    NW    13    13   ---   0.7 Broken Clouds/
19/11/2006 13:20      20.0  12.0  21.0  16.4  60  1027   ---   WNW    13    13   ---   0.6 Scattered Clouds/
19/11/2006 15:20      20.0  11.0  20.8  17.8  56  1026   ---   NNW     8     8   ---   0.7 Scattered Clouds/
19/11/2006 21:20      15.0  11.0  17.1  12.0  77  1025   ---     S     8     8   ---   0.7 Scattered Clouds/
20/11/2006 01:00       0.0   0.0   4.0  -5.5 100   ---   ---     S   ---   ---   ---   --- /
20/11/2006 02:00       0.0   0.0   4.0  -5.5 100   ---   ---     S   ---   ---   ---   --- /
20/11/2006 02:20      15.0  10.0  16.8  12.0  72  1025   ---     S     8     8   ---   0.7 Few Clouds/
20/11/2006 03:50      14.0   9.0  15.8  10.1  72  1024   ---   SSE    10    10   ---   0.7 Few Clouds/
20/11/2006 04:20      14.0   9.0  15.8  10.1  72  1024   ---   SSE    10    10   ---   0.7 Few Clouds/
20/11/2006 05:50      14.0   9.0  15.8  10.1  72  1024   ---   SSE    10    10   ---   0.7 Few Clouds/
20/11/2006 06:50      14.0   9.0  15.8  10.8  72  1024   ---   SSE     8     8   ---   0.7 Few Clouds/
20/11/2006 07:50      14.0   9.0  15.8  10.8  72  1024   ---   SSE     8     8   ---   0.7 Few Clouds/
20/11/2006 08:20      14.0   9.0  15.8  10.8  72  1024   ---   SSE     8     8   ---   0.7 Few Clouds/
20/11/2006 09:50      19.0  12.0  20.2  19.0  64  1024   ---     N     5     5   ---   0.7 Few Clouds/
20/11/2006 10:20      19.0  11.0  20.0  16.7  60  1024   ---   SSW     8     8   ---   0.7 Few Clouds/
20/11/2006 11:20      21.0  10.0  21.4  19.9  49  1024   ---   WSW     6     6   ---   --- /
20/11/2006 12:50      20.0  11.0  20.8  20.0  56  1023   ---     N     5     5   ---   --- /
20/11/2006 13:50      21.0  10.0  21.4  19.9  49  1022   ---     W     6     6   ---   0.7 Few Clouds/
20/11/2006 14:50      20.0  10.0  20.6  20.0  53  1022   ---     N     5     5   ---   0.7 Few Clouds/
20/11/2006 15:50      20.0  11.0  20.8  20.0  56  1022   ---     N     2     2   ---   0.7 Few Clouds/
20/11/2006 16:50      19.0  12.0  20.2  19.0  64  1021   ---     N     2     2   ---   0.7 Few Clouds/
20/11/2006 17:50      18.0  12.0  19.5  16.6  68  1021   ---   SSE     6     6   ---   0.7 Few Clouds/
20/11/2006 18:50      17.0  11.0  18.5  17.0  68  1021   ---     N     3     3   ---   0.7 Few Clouds/
20/11/2006 19:50      17.0  12.0  18.8  14.3  72  1021   ---   SSW     8     8   ---   0.7 Few Clouds/
20/11/2006 20:50      17.0  12.0  18.8  11.9  72  1021   ---    SW    14    14   ---   0.7 Few Clouds/
20/11/2006 21:50      17.0  13.0  19.2  13.8  77  1021   ---   SSW    10    10   ---   0.7 Few Clouds/
20/11/2006 22:20       0.0   0.0   4.0  -6.7 100   ---   ---   SSW   ---   ---   ---   --- /
20/11/2006 23:20      17.0  12.0  18.8  13.8  72  1020   ---   SSE    10    10   ---   0.7 Few Clouds/
21/11/2006 00:50      17.0  12.0  18.8  13.8  72  1020   ---     S    10    10   ---   0.7 Few Clouds/
21/11/2006 01:50      17.0  12.0  18.8  13.8  72  1019   ---     S    10    10   ---   0.7 Few Clouds/
21/11/2006 02:20      17.0  12.0  18.8  12.5  72  1019   ---     S    13    13   ---   0.7 Few Clouds/
21/11/2006 03:50      17.0  12.0  18.8  11.0  72  1018   ---     S    18    18   ---   0.7 Few Clouds/
21/11/2006 04:20       0.0   0.0   4.0 -12.4 100   ---   ---     S   ---   ---   ---   --- /
21/11/2006 05:50      17.0  13.0  19.2  11.9  77  1017   ---     S    14    14   ---   0.8 Scattered Clouds/
21/11/2006 07:00       0.0   0.0   4.0 -10.5 100   ---   ---     S   ---   ---   ---   --- /
21/11/2006 07:50      17.0  13.0  19.2  11.3  77  1017   ---     S    16    16   ---   0.8 Scattered Clouds/
21/11/2006 08:20      18.0  13.0  19.8  12.6  73  1017   ---     S    16    16   ---   0.5 Scattered Clouds/
21/11/2006 08:50      18.0  13.0  19.8  12.6  73  1017   ---   SSW    16    16   ---   0.5 Scattered Clouds/
21/11/2006 09:50      19.0  13.0  20.5  12.7  68  1017   ---   SSW    23    23   ---   0.5 Broken Clouds/
21/11/2006 10:50      20.0  13.0  21.3  14.6  64  1017   ---   SSW    19    19   ---   0.5 Broken Clouds/
21/11/2006 12:20      20.0  14.0  21.5  14.4  68  1015   ---    SW    21    21   ---   0.5 Scattered Clouds/
21/11/2006 13:50      18.0  13.0  19.8  11.6  73  1014   ---    SW    21    21   ---   0.5 Broken Clouds/
21/11/2006 14:20      17.0  12.0  18.8  10.4  72  1014   ---    SW    19    19   ---   --- Overcast/ Light Rain
21/11/2006 15:50      17.0  12.0  18.8   9.3  72  1014   ---     W    26    26   ---   0.5 Broken Clouds/
21/11/2006 16:20      18.0  13.0  19.8  10.8  73  1014   ---     W    26    26   ---   0.5 Broken Clouds/
21/11/2006 17:50      18.0  12.0  19.5  10.6  68  1014   ---   WNW    27    27   ---   0.5 Broken Clouds/
21/11/2006 18:50      17.0  12.0  18.8   8.9  72  1014   ---     W    29    29   ---   0.6 Scattered Clouds/
21/11/2006 19:50      17.0  11.0  18.5   9.3  68  1013   ---     W    26    26   ---   0.6 Scattered Clouds/
21/11/2006 20:50      17.0  12.0  18.8  11.3  72  1013   ---   SSW    16    16   ---   0.6 Scattered Clouds/
21/11/2006 21:50      16.0  11.0  17.8   9.0  72  1012   ---     S    19    19   ---   0.6 Scattered Clouds/
21/11/2006 22:20      16.0  11.0  17.8   9.9  72  1012   ---     S    16    16   ---   0.6 Scattered Clouds/
21/11/2006 23:20      17.0  11.0  18.5  11.3  68  1012   ---     S    16    16   ---   0.7 Scattered Clouds/
22/11/2006 00:50      17.0  12.0  18.8  11.9  72  1010   ---   SSW    14    14   ---   0.5 Broken Clouds/
22/11/2006 01:50      16.0  11.0  17.8   8.7  72  1009   ---     S    21    21   ---   --- Overcast/ Light Rain
22/11/2006 02:20      16.0  11.0  17.8   9.0  72  1009   ---     S    19    19   ---   0.7 Broken Clouds/
22/11/2006 03:50      17.0  12.0  18.8  10.4  72  1008   ---   SSW    19    19   ---   0.7 Scattered Clouds/
22/11/2006 04:20      17.0  12.0  18.8   9.8  72  1007   ---   SSW    23    23   ---   0.7 Scattered Clouds/
22/11/2006 05:50      17.0  12.0  18.8  10.1  72  1006   ---   SSW    21    40   ---   0.7 Scattered Clouds/
22/11/2006 06:50      17.0  12.0  18.8   9.3  72  1005   ---   SSW    26    26   ---   0.6 Scattered Clouds/
22/11/2006 07:50      16.0  12.0  18.1   6.9  77  1005   ---    SW    34    34   ---   0.6 Broken Clouds/
22/11/2006 08:20      17.0  12.0  18.8   8.7  72  1005   ---   SSW    31    31   ---   0.6 Broken Clouds/
22/11/2006 09:50      17.0  12.0  18.8   8.4  72  1003   ---     S    34    34   ---   --- Overcast/ Light Rain
22/11/2006 10:20      17.0  12.0  18.8   9.1  72  1003   ---   SSW    27    45   ---   0.5 Broken Clouds/
22/11/2006 11:20      17.0  12.0  18.8   8.0  72  1004   ---   WSW    39    39   ---   0.4 Broken Clouds/
22/11/2006 12:50      18.0  13.0  19.8   9.6  73  1003   ---   WSW    39    39   ---   0.5 Broken Clouds/
22/11/2006 13:50      19.0  13.0  20.5  11.2  68  1002   ---     W    37    37   ---   0.6 Scattered Clouds/
22/11/2006 14:20      18.0  12.0  19.5   9.4  68  1002   ---     W    40    40   ---   0.7 Scattered Clouds/
22/11/2006 15:50      18.0  11.0  19.2   9.9  64  1002   ---   WSW    34    34   ---   0.7 Scattered Clouds/
22/11/2006 16:20      18.0  12.0  19.5  10.2  68  1002   ---   WSW    31    31   ---   0.7 Scattered Clouds/
22/11/2006 17:50      18.0  10.0  19.0   9.4  60  1003   ---     W    40    40   ---   --- Overcast/ Light Rain
22/11/2006 18:50      16.0  12.0  18.1   5.6  77  1003   ---   WNW    51    69   ---   --- Overcast/ Rain
22/11/2006 19:50      17.0   9.0  18.0   7.3  59  1004   ---     W    50    50   ---   --- Overcast/ Light Rain
22/11/2006 20:50      17.0   8.0  17.7   7.9  55  1004   ---     W    40    40   ---   0.6 Broken Clouds/
22/11/2006 21:50      17.0   9.0  18.0   8.1  59  1004   ---     W    37    37   ---   0.6 Broken Clouds/
22/11/2006 22:20      17.0   8.0  17.7   8.5  55  1004   ---     W    32    32   ---   0.6 Broken Clouds/
22/11/2006 23:20      17.0  10.0  18.2   8.5  63  1005   ---     W    32    32   ---   0.7 Broken Clouds/
23/11/2006 00:50      16.0  11.0  17.8   7.8  72  1005   ---    NW    26    26   ---   0.6 Broken Clouds/
23/11/2006 01:50      16.0   9.0  17.2   7.4  63  1006   ---    NW    29    29   ---   0.6 Broken Clouds/
23/11/2006 02:20      16.0   9.0  17.2   7.2  63  1006   ---    NW    31    31   ---   0.6 Broken Clouds/
23/11/2006 03:50      16.0   9.0  17.2   7.6  63  1006   ---   NNW    27    27   ---   0.6 Broken Clouds/
23/11/2006 04:20      16.0   9.0  17.2   9.0  63  1006   ---   NNW    19    19   ---   0.6 Broken Clouds/
23/11/2006 05:50      16.0  11.0  17.8   9.0  72  1007   ---   NNE    19    19   ---   0.6 Broken Clouds/
23/11/2006 06:50      16.0   9.0  17.2   8.7  63  1008   ---   NNW    21    21   ---   0.6 Scattered Clouds/
23/11/2006 07:50      16.0   9.0  17.2   9.0  63  1009   ---   NNW    19    19   ---   0.6 Scattered Clouds/
23/11/2006 08:20      16.0  10.0  17.5   9.9  68  1009   ---   NNW    16    16   ---   0.6 Scattered Clouds/
23/11/2006 08:20      16.0  10.0  17.5   9.9  68  1009   ---   NNW    16    16   ---   0.6 Scattered Clouds/None reported
23/11/2006 13:50      19.0  10.0  19.8  14.5  56  1011   ---     W    14    14   ---   0.8 Few Clouds/
23/11/2006 15:50      19.0  11.0  20.0  14.5  60  1011   ---     W    14    14   ---   0.7 Few Clouds/
23/11/2006 16:20      18.0  11.0  19.2  13.2  64  1011   ---     W    14    14   ---   0.7 Few Clouds/
23/11/2006 17:50      18.0  12.0  19.5  15.5  68  1012   ---     W     8     8   ---   0.7 Broken Clouds/
23/11/2006 18:50      18.0  12.0  19.5  15.5  68  1012   ---     S     8     8   ---   0.7 Broken Clouds/
23/11/2006 19:50      18.0  12.0  19.5  13.8  68  1013   ---     S    13    13   ---   0.7 Broken Clouds/
23/11/2006 20:50      18.0  13.0  19.8  13.8  73  1013   ---     S    13    13   ---   0.7 Broken Clouds/
23/11/2006 21:50      18.0  12.0  19.5  15.5  68  1014   ---   SSW     8     8   ---   0.7 Broken Clouds/
23/11/2006 22:20      18.0  12.0  19.5  12.6  68  1014   ---   SSW    16    16   ---   0.8 Broken Clouds/
23/11/2006 23:20      18.0  13.0  19.8  13.2  73  1014   ---     S    14    14   ---   0.8 Broken Clouds/
24/11/2006 00:50      18.0  13.0  19.8  13.8  73  1015   ---     S    13    13   ---   0.8 Broken Clouds/
24/11/2006 01:50      18.0  13.0  19.8  15.5  73  1014   ---     S     8     8   ---   0.9 Few Clouds/
24/11/2006 02:20      18.0  13.0  19.8  15.5  73  1015   ---     S     8     8   ---   0.9 Few Clouds/
24/11/2006 03:50      18.0  14.0  20.2  13.2  77  1015   ---     S    14    14   ---   0.9 Few Clouds/
24/11/2006 04:20      18.0  13.0  19.8  15.0  73  1015   ---     S    10    10   ---   0.9 Few Clouds/
24/11/2006 05:50      18.0  14.0  20.2  13.8  77  1015   ---   SSW    13    13   ---   0.9 Scattered Clouds/
24/11/2006 06:50      18.0  13.0  19.8  15.0  73  1016   ---   SSW    10    10   ---   0.8 Scattered Clouds/
24/11/2006 07:50      18.0  13.0  19.8  15.5  73  1017   ---     S     8     8   ---   0.8 Scattered Clouds/
24/11/2006 08:20      18.0  13.0  19.8  15.0  73  1017   ---   SSW    10    10   ---   0.8 Scattered Clouds/
24/11/2006 09:50      20.0  15.0  21.8  17.4  73  1018   ---   SSW    10    10   ---   0.6 Scattered Clouds/
24/11/2006 10:20      20.0  14.0  21.5  17.8  68  1018   ---   SSW     8     8   ---   0.7 Scattered Clouds/
24/11/2006 11:20      20.0  15.0  21.8  17.8  73  1018   ---    SW     8     8   ---   0.7 Scattered Clouds/
24/11/2006 12:50      22.0  15.0  23.3  19.8  65  1018   ---     W    10    10   ---   0.7 Scattered Clouds/
24/11/2006 13:50      20.0  15.0  21.8  20.0  73  1018   ---     N     5     5   ---   0.7 Scattered Clouds/
24/11/2006 14:20      20.0  15.0  21.8  18.8  73  1018   ---    NW     6     6   ---   0.7 Scattered Clouds/
24/11/2006 15:50      20.0  16.0  22.2  18.8  78  1018   ---   WNW     6     6   ---   0.6 Scattered Clouds/
24/11/2006 16:20      20.0  15.0  21.8  18.8  73  1018   ---    NW     6     6   ---   0.6 Scattered Clouds/
24/11/2006 17:50      18.0  13.0  19.8  18.0  73  1019   ---     N     3     3   ---   0.6 Few Clouds/
24/11/2006 18:50      18.0  13.0  19.8  18.0  73  1019   ---     N     3     3   ---   0.6 Few Clouds/
24/11/2006 19:50      17.0  13.0  19.2  15.5  77  1020   ---    SE     6     6   ---   0.6 Few Clouds/
24/11/2006 20:50      17.0  12.0  18.8  17.0  72  1020   ---     N     3     3   ---   0.6 Few Clouds/
24/11/2006 21:50      16.0  11.0  17.8  16.0  72  1020   ---     N     0     0   ---   0.7 Few Clouds/
24/11/2006 22:20      16.0  12.0  18.1  16.0  77  1020   ---   ---     0     0   ---   0.7 Few Clouds/
24/11/2006 23:20      16.0  11.0  17.8  16.0  72  1020   ---   ---     2     2   ---   0.7 Few Clouds/
25/11/2006 00:50      15.0  10.0  16.8  15.0  72  1021   ---     N     5     5   ---   0.7 Few Clouds/
25/11/2006 01:50      16.0  10.0  17.5  16.0  68  1020   ---     N     3     3   ---   0.7 Few Clouds/
25/11/2006 02:20      16.0  11.0  17.8  16.0  72  1020   ---     N     3     3   ---   0.7 Few Clouds/
25/11/2006 03:50      15.0  10.0  16.8  15.0  72  1021   ---     N     3     3   ---   0.7 Few Clouds/
25/11/2006 04:20      15.0  10.0  16.8  15.0  72  1020   ---     N     5     5   ---   0.7 Few Clouds/
25/11/2006 05:50      15.0  10.0  16.8  15.0  72  1021   ---     N     5     5   ---   0.7 Few Clouds/
25/11/2006 06:50      15.0  10.0  16.8  15.0  72  1021   ---     N     2     2   ---   --- /
25/11/2006 07:50      15.0  10.0  16.8  15.0  72  1021   ---     N     3     3   ---   --- /
25/11/2006 09:50      19.0  13.0  20.5  19.0  68  1022   ---     N     3     3   ---   --- /
25/11/2006 10:20      19.0  13.0  20.5  19.0  68  1022   ---     N     5     5   ---   --- /
25/11/2006 11:20      20.0  14.0  21.5  20.0  68  1022   ---     N     5     5   ---   --- /
25/11/2006 12:50      21.0  14.0  22.3  18.6  64  1022   ---    NE    10    10   ---   --- /
25/11/2006 12:50      21.0  14.0  22.3  18.6  64  1022   ---    NE    10    10   ---   --- None reported/None reported
25/11/2006 13:50      21.0  13.0  22.0  17.7  60  1022   ---   ENE    13    13   ---   --- /
25/11/2006 14:50      20.0  14.0  21.5  15.9  68  1021   ---   ENE    14    14   ---   --- /
25/11/2006 15:50      20.0  14.0  21.5  17.4  68  1021   ---   ENE    10    10   ---   --- /
25/11/2006 16:20      20.0  14.0  21.5  15.9  68  1021   ---     E    14    14   ---   --- /
25/11/2006 17:50      18.0  13.0  19.8  18.0  73  1021   ---     N     0     0   ---   --- /
25/11/2006 18:50      17.0  13.0  19.2  17.0  77  1022   ---   ---     2     2   ---   --- /
25/11/2006 19:50      17.0  13.0  19.2  17.0  77  1022   ---     N     0     0   ---   --- /
25/11/2006 20:50      17.0  12.0  18.8  17.0  72  1022   ---   ---     5     5   ---   --- /
25/11/2006 21:50      16.0  11.0  17.8  16.0  72  1022   ---     N     2     2   ---   --- /
25/11/2006 22:50      16.0  11.0  17.8  16.0  72  1022   ---     N     2     2   ---   --- /
25/11/2006 23:20      16.0  11.0  17.8  16.0  72  1023   ---     N     3     3   ---   --- /
26/11/2006 00:50      15.0  10.0  16.8  15.0  72  1023   ---     N     5     5   ---   --- /
26/11/2006 01:50      15.0  10.0  16.8  15.0  72  1023   ---     N     3     3   ---   --- /
26/11/2006 02:20      16.0  11.0  17.8  16.0  72  1023   ---     N     0     0   ---   --- /
26/11/2006 03:50      15.0  10.0  16.8  15.0  72  1023   ---   ---     3     3   ---   --- /
26/11/2006 04:20      15.0  10.0  16.8  15.0  72  1023   ---     N     3     3   ---   --- /
26/11/2006 05:50      15.0  10.0  16.8  15.0  72  1023   ---     N     3     3   ---   --- /
26/11/2006 06:50      15.0   9.0  16.5  13.3  67  1023   ---   SSW     6     6   ---   --- /
26/11/2006 07:50      15.0   9.0  16.5  15.0  67  1023   ---     N     3     3   ---   --- /
26/11/2006 08:20      15.0  10.0  16.8  15.0  72  1023   ---     N     3     3   ---   --- /
26/11/2006 09:50      19.0  13.0  20.5  19.0  68  1024   ---     N     3     3   ---   --- /
26/11/2006 10:20      21.0  15.0  22.5  21.0  69  1024   ---     N     3     3   ---   --- /
26/11/2006 11:20      20.0  15.0  21.8  15.3  73  1024   ---     E    16    16   ---   --- /
26/11/2006 12:50      20.0  15.0  21.8  15.9  73  1024   ---   ENE    14    14   ---   --- /
26/11/2006 13:50      20.0  15.0  21.8  15.9  73  1023   ---    NE    14    14   ---   --- /
26/11/2006 14:20      20.0  16.0  22.2  15.3  78  1023   ---   ENE    16    16   ---   --- /
26/11/2006 15:50      19.0  15.0  21.2  13.0  78  1023   ---   ENE    21    21   ---   --- /
26/11/2006 16:20      19.0  14.0  20.8  13.7  73  1023   ---   ENE    18    18   ---   --- /
26/11/2006 17:50      18.0  13.0  19.8  12.4  73  1023   ---   ENE    18    18   ---   --- /
26/11/2006 18:50      18.0  13.0  19.8  18.0  73  1023   ---     N     2     2   ---   --- /
26/11/2006 19:50      16.0  12.0  18.1  16.0  77  1023   ---     N     5     5   ---   --- /
26/11/2006 20:50      16.0  12.0  18.1  16.0  77  1023   ---     N     5     5   ---   --- /
26/11/2006 21:50      16.0  11.0  17.8  16.0  72  1024   ---     N     0     0   ---   --- /
26/11/2006 22:20      16.0  11.0  17.8  16.0  72  1024   ---   ---     3     3   ---   --- /
26/11/2006 23:20      16.0  11.0  17.8  16.0  72  1023   ---     N     2     2   ---   --- /
27/11/2006 00:50      15.0  10.0  16.8  13.3  72  1024   ---   SSW     6     6   ---   --- /
27/11/2006 01:50      15.0  10.0  16.8  13.3  72  1023   ---     S     6     6   ---   --- /
27/11/2006 02:20      14.0   9.0  15.8  14.0  72  1024   ---     N     5     5   ---   --- /
27/11/2006 03:50      14.0   9.0  15.8  14.0  72  1024   ---     N     2     2   ---   --- /
27/11/2006 04:20      15.0  10.0  16.8  13.3  72  1024   ---   ENE     6     6   ---   --- /
27/11/2006 05:50      16.0  11.0  17.8  16.0  72  1024   ---     N     2     2   ---   --- /
27/11/2006 06:50      15.0   9.0  16.5  15.0  67  1024   ---     N     3     3   ---   --- /
27/11/2006 07:50      14.0   9.0  15.8  14.0  72  1024   ---     N     5     5   ---   0.7 Few Clouds/
27/11/2006 09:50      19.0  13.0  20.5  19.0  68  1025   ---     N     5     5   ---   0.7 Few Clouds/
27/11/2006 10:50      19.0  13.0  20.5  17.7  68  1025   ---     W     6     6   ---   0.7 Few Clouds/
27/11/2006 11:20      19.0  13.0  20.5  19.0  68  1025   ---     N     5     5   ---   0.7 Few Clouds/
27/11/2006 12:20      19.0  13.0  20.5  19.0  68  1025   ---     N     3     3   ---   0.7 Few Clouds/
27/11/2006 13:50      19.0  14.0  20.8  17.7  73  1024   ---    NE     6     6   ---   0.7 Few Clouds/
27/11/2006 14:20      19.0  14.0  20.8  16.7  73  1024   ---   NNE     8     8   ---   0.7 Few Clouds/
27/11/2006 15:50      18.0  14.0  20.2  12.6  77  1024   ---   ENE    16    16   ---   0.7 Few Clouds/
27/11/2006 16:20      18.0  13.0  19.8  12.4  73  1024   ---     E    18    18   ---   0.7 Few Clouds/
27/11/2006 17:20      18.0  12.0  19.5  12.4  68  1024   ---   ENE    18    18   ---   0.7 Few Clouds/
27/11/2006 18:20      17.0  12.0  18.8  14.3  72  1024   ---     E     8     8   ---   0.7 Scattered Clouds/
27/11/2006 19:50      17.0  12.0  18.8  17.0  72  1024   ---     N     3     3   ---   0.7 Scattered Clouds/
27/11/2006 20:50      15.0  11.0  17.1  12.0  77  1024   ---   SSW     8     8   ---   0.7 Scattered Clouds/
27/11/2006 21:50      15.0  11.0  17.1  12.0  77  1024   ---     S     8     8   ---   0.7 Scattered Clouds/
27/11/2006 22:20       0.0   0.0   4.0  -5.5 100   ---   ---     S   ---   ---   ---   --- /
27/11/2006 23:20      15.0  10.0  16.8  15.0  72  1024   ---     N     2     2   ---   0.7 Scattered Clouds/
28/11/2006 00:50      16.0  11.0  17.8  16.0  72  1024   ---     N     0     0   ---   0.7 Scattered Clouds/
28/11/2006 01:50      15.0  10.0  16.8  15.0  72  1024   ---   ---     3     3   ---   0.7 Scattered Clouds/
28/11/2006 02:20      16.0  11.0  17.8  16.0  72  1024   ---     N     3     3   ---   0.7 Scattered Clouds/
28/11/2006 03:20      15.0  10.0  16.8  15.0  72  1023   ---     N     5     5   ---   0.7 Scattered Clouds/
28/11/2006 04:20      15.0  10.0  16.8  15.0  72  1024   ---     N     3     3   ---   0.7 Scattered Clouds/
28/11/2006 05:20      15.0  10.0  16.8  15.0  72  1023   ---     N     5     5   ---   0.7 Scattered Clouds/
28/11/2006 06:50      15.0  10.0  16.8  15.0  72  1023   ---     N     2     2   ---   0.7 Scattered Clouds/
28/11/2006 07:50      16.0  10.0  17.5   9.6  68  1023   ---   ENE    18    18   ---   0.8 Scattered Clouds/
28/11/2006 08:20      16.0  11.0  17.8   9.9  72  1023   ---   ENE    16    16   ---   1.0 Scattered Clouds/
28/11/2006 09:20      17.0  11.0  18.5  14.3  68  1023   ---     E     8     8   ---   1.0 Scattered Clouds/
28/11/2006 09:20      17.0  11.0  18.5  14.3  68  1023   ---     E     8     8   ---   1.0 Scattered Clouds/None reported
28/11/2006 17:50      17.0  12.0  18.8  17.0  72  1022   ---     N     5     5   ---   --- Overcast/ Light Rain
28/11/2006 18:50      17.0  11.0  18.5  15.5  68  1023   ---   ENE     6     6   ---   0.8 Broken Clouds/
28/11/2006 19:50      18.0  11.0  19.2  13.8  64  1023   ---   ENE    13    13   ---   0.8 Broken Clouds/
28/11/2006 21:00       0.0   0.0   4.0  -9.2 100   ---   ---   ENE   ---   ---   ---   --- /
28/11/2006 21:50      18.0  13.0  19.8  18.0  73  1023   ---     N     3     3   ---   0.9 Broken Clouds/
28/11/2006 22:20      18.0  13.0  19.8  18.0  73  1023   ---     N     2     2   ---   0.9 Broken Clouds/
28/11/2006 23:20      17.0  13.0  19.2  17.0  77  1023   ---     N     5     5   ---   0.8 Broken Clouds/
29/11/2006 00:50      17.0  12.0  18.8  15.5  72  1023   ---     S     6     6   ---   0.8 Broken Clouds/
29/11/2006 01:50      16.0  12.0  18.1  16.0  77  1023   ---     N     2     2   ---   0.8 Broken Clouds/
29/11/2006 02:20      16.0  11.0  17.8  16.0  72  1023   ---     N     3     3   ---   0.8 Broken Clouds/
29/11/2006 03:50      16.0  11.0  17.8  16.0  72  1023   ---     N     2     2   ---   0.8 Scattered Clouds/
29/11/2006 04:20      16.0  12.0  18.1  16.0  77  1023   ---     N     5     5   ---   0.8 Scattered Clouds/
29/11/2006 05:50      16.0  11.0  17.8  16.0  72  1023   ---     N     2     2   ---   0.9 Scattered Clouds/
29/11/2006 06:50      17.0  12.0  18.8  11.9  72  1023   ---     E    14    14   ---   0.7 Scattered Clouds/
29/11/2006 08:00       0.0   0.0   4.0 -10.5 100   ---   ---     E   ---   ---   ---   --- /
29/11/2006 08:20      17.0  12.0  18.8  13.8  72  1023   ---   ENE    10    10   ---   0.6 Scattered Clouds/
29/11/2006 09:50      18.0  12.0  19.5  13.8  68  1024   ---   ENE    13    13   ---   0.6 Scattered Clouds/
29/11/2006 10:20      19.0  13.0  20.5  14.0  68  1024   ---   ENE    16    16   ---   0.6 Scattered Clouds/
29/11/2006 11:20      19.0  14.0  20.8  14.0  73  1024   ---   ENE    16    16   ---   0.9 Few Clouds/
29/11/2006 12:20      19.0  14.0  20.8  13.7  73  1024   ---   ENE    18    18   ---   0.9 Few Clouds/
29/11/2006 13:50      19.0  12.0  20.2  14.0  64  1024   ---   ENE    16    16   ---   0.9 Few Clouds/
29/11/2006 14:20      19.0  13.0  20.5  13.7  68  1024   ---   ENE    18    18   ---   0.9 Few Clouds/
29/11/2006 15:50      19.0  13.0  20.5  13.2  68  1024   ---   ENE    19    19   ---   0.9 Few Clouds/
29/11/2006 16:20      18.0  13.0  19.8  11.8  73  1024   ---    NE    19    19   ---   0.9 Few Clouds/
29/11/2006 17:50      17.0  12.0  18.8  11.9  72  1025   ---   ENE    14    14   ---   0.9 Few Clouds/
29/11/2006 18:50      17.0  11.0  18.5  11.9  68  1025   ---     E    14    14   ---   0.9 Few Clouds/
29/11/2006 19:50      17.0  11.0  18.5  15.5  68  1026   ---     E     6     6   ---   0.9 Few Clouds/
29/11/2006 20:50      16.0  11.0  17.8  14.4  72  1026   ---     E     6     6   ---   0.9 Few Clouds/
29/11/2006 21:50      16.0  11.0  17.8  16.0  72  1026   ---     N     3     3   ---   0.9 Few Clouds/
29/11/2006 22:20      15.0  11.0  17.1  15.0  77  1027   ---     N     2     2   ---   0.9 Few Clouds/
29/11/2006 23:20      14.0   9.0  15.8  14.0  72  1027   ---     N     3     3   ---   --- /
30/11/2006 00:50      14.0  10.0  16.1  14.0  77  1027   ---     N     5     5   ---   --- /
30/11/2006 01:50      13.0   9.0  15.1  13.0  77  1027   ---     N     3     3   ---   --- /
30/11/2006 02:20      14.0   9.0  15.8  14.0  72  1027   ---     N     2     2   ---   --- /
30/11/2006 03:20      13.0   9.0  15.1  13.0  77  1027   ---     N     3     3   ---   --- /
30/11/2006 04:20      13.0   8.0  14.8  13.0  72  1027   ---     N     2     2   ---   --- /
30/11/2006 05:20      13.0   8.0  14.8  13.0  72  1027   ---     N     5     5   ---   --- /
30/11/2006 06:20      13.0   8.0  14.8  13.0  72  1027   ---     N     3     3   ---   --- /
30/11/2006 07:50      13.0   8.0  14.8  13.0  72  1028   ---     N     5     5   ---   0.6 Few Clouds/
30/11/2006 09:50      16.0  11.0  17.8  16.0  72  1029   ---     N     0     0   ---   0.6 Scattered Clouds/
30/11/2006 10:20      18.0  13.0  19.8  18.0  73  1029   ---   ---     0     0   ---   0.6 Scattered Clouds/
30/11/2006 11:20      19.0  12.0  20.2  17.7  64  1029   ---   NNE     6     6   ---   0.6 Scattered Clouds/
30/11/2006 12:20      19.0  12.0  20.2  16.2  64  1028   ---    NE    10    10   ---   0.6 Few Clouds/
30/11/2006 13:50      19.0  12.0  20.2  16.7  64  1028   ---   NNE     8     8   ---   0.6 Scattered Clouds/
30/11/2006 14:20      19.0  12.0  20.2  16.2  64  1028   ---   NNE    10    10   ---   0.6 Scattered Clouds/
30/11/2006 15:20      19.0  12.0  20.2  16.2  64  1028   ---   NNE    10    10   ---   0.6 Scattered Clouds/
30/11/2006 16:20      18.0  13.0  19.8  13.2  73  1028   ---    NE    14    14   ---   0.6 Scattered Clouds/
30/11/2006 17:20      17.0  12.0  18.8  14.3  72  1028   ---   ENE     8     8   ---   0.6 Scattered Clouds/
30/11/2006 18:20      16.0  11.0  17.8  14.4  72  1029   ---   ENE     6     6   ---   0.6 Scattered Clouds/
30/11/2006 19:50      15.0  11.0  17.1  13.3  77  1029   ---     E     6     6   ---   0.6 Scattered Clouds/
30/11/2006 20:50      15.0  10.0  16.8  13.3  72  1029   ---    SE     6     6   ---   0.6 Few Clouds/
30/11/2006 21:50      14.0  10.0  16.1  14.0  77  1030   ---     N     5     5   ---   0.6 Few Clouds/
30/11/2006 22:20      15.0  10.0  16.8  15.0  72  1029   ---     N     5     5   ---   0.6 Few Clouds/
30/11/2006 23:20      14.0   9.0  15.8  14.0  72  1030   ---     N     3     3   ---   0.6 Few Clouds/
01/12/2006 00:00       0.0   0.0   4.0   0.0 100   ---   ---     N   ---   ---   ---   --- /
01/12/2006 01:50      13.0   8.0  14.8  11.2  72  1030   ---   SSE     6     6   ---   0.6 Few Clouds/
01/12/2006 02:20      13.0   8.0  14.8  11.2  72  1030   ---     S     6     6   ---   0.6 Few Clouds/
01/12/2006 03:20      13.0   8.0  14.8  11.2  72  1030   ---     S     6     6   ---   0.6 Few Clouds/
01/12/2006 04:20      12.0   7.0  13.7  12.0  71  1030   ---     N     5     5   ---   0.6 Few Clouds/
01/12/2006 05:50      12.0   7.0  13.7  12.0  71  1030   ---     N     5     5   ---   0.6 Few Clouds/
01/12/2006 06:20      12.0   7.0  13.7  10.1  71  1030   ---     S     6     6   ---   0.6 Few Clouds/
01/12/2006 07:50      12.0   7.0  13.7   8.5  71  1031   ---   SSE     8     8   ---   0.6 Few Clouds/
01/12/2006 08:20      12.0   7.0  13.7   8.5  71  1031   ---   SSE     8     8   ---   --- /
01/12/2006 09:50      17.0  12.0  18.8  17.0  72  1031   ---     N     3     3   ---   --- /
01/12/2006 10:20      18.0  11.0  19.2  18.0  64  1031   ---     N     2     2   ---   0.7 Few Clouds/
01/12/2006 11:20      19.0  11.0  20.0  19.0  60  1031   ---     N     5     5   ---   0.7 Few Clouds/
01/12/2006 12:20      19.0  10.0  19.8  19.0  56  1031   ---     N     5     5   ---   0.7 Few Clouds/
01/12/2006 13:50      18.0  11.0  19.2  18.0  64  1030   ---     N     3     3   ---   0.7 Few Clouds/
01/12/2006 14:20      19.0  12.0  20.2  19.0  64  1030   ---     N     3     3   ---   0.7 Few Clouds/
01/12/2006 15:20      18.0  12.0  19.5  18.0  68  1030   ---     N     3     3   ---   --- /
01/12/2006 16:20      17.0  12.0  18.8  17.0  72  1030   ---     N     5     5   ---   --- /
01/12/2006 17:20      16.0  11.0  17.8  14.4  72  1029   ---     E     6     6   ---   0.7 Scattered Clouds/
01/12/2006 18:20      15.0  11.0  17.1  13.3  77  1030   ---     E     6     6   ---   0.7 Scattered Clouds/
01/12/2006 19:50      14.0   9.0  15.8  12.3  72  1030   ---   SSE     6     6   ---   0.7 Scattered Clouds/
01/12/2006 20:50      14.0   9.0  15.8  10.1  72  1030   ---   SSE    10    10   ---   0.8 Scattered Clouds/
01/12/2006 21:50      14.0   9.0  15.8  10.1  72  1030   ---   SSE    10    10   ---   0.8 Scattered Clouds/
01/12/2006 22:20      14.0   9.0  15.8  10.8  72  1030   ---   SSE     8     8   ---   0.8 Scattered Clouds/
01/12/2006 23:20      13.0   8.0  14.8   9.7  72  1030   ---     S     8     8   ---   0.7 Scattered Clouds/
02/12/2006 00:50      13.0   8.0  14.8   9.7  72  1030   ---    SW     8     8   ---   0.7 Broken Clouds/
02/12/2006 01:50      13.0   8.0  14.8  11.2  72  1029   ---    SW     6     6   ---   0.7 Broken Clouds/
02/12/2006 02:20      13.0   8.0  14.8   9.7  72  1030   ---    SW     8     8   ---   0.7 Broken Clouds/
02/12/2006 03:20      12.0   7.0  13.7   8.5  71  1029   ---   SSW     8     8   ---   0.8 Few Clouds/
02/12/2006 04:20      13.0   8.0  14.8   9.7  72  1029   ---     S     8     8   ---   0.8 Few Clouds/
02/12/2006 05:50      12.0   7.0  13.7  12.0  71  1029   ---     N     5     5   ---   0.7 Few Clouds/
02/12/2006 06:50      12.0   7.0  13.7   7.7  71  1028   ---     S    10    10   ---   0.7 Few Clouds/
02/12/2006 07:50      13.0   8.0  14.8  11.2  72  1028   ---     S     6     6   ---   0.7 Few Clouds/
02/12/2006 08:20      13.0   8.0  14.8  11.2  72  1029   ---   SSW     6     6   ---   0.7 Few Clouds/
02/12/2006 10:00       0.0   0.0   4.0  -3.0 100   ---   ---   SSW   ---   ---   ---   --- /
02/12/2006 10:20      18.0  10.0  19.0  15.0  60  1029   ---    SW    10    10   ---   0.7 Few Clouds/
02/12/2006 11:20      19.0   9.0  19.6  14.5  52  1028   ---    SW    14    14   ---   0.7 Few Clouds/
02/12/2006 12:20      19.0   8.0  19.4  16.2  49  1028   ---    SW    10    10   ---   0.7 Broken Clouds/
02/12/2006 13:50      20.0  10.0  20.6  18.8  53  1027   ---     W     6     6   ---   0.7 Broken Clouds/
02/12/2006 14:20      20.0   9.0  20.4  18.8  49  1027   ---    NW     6     6   ---   0.7 Broken Clouds/
02/12/2006 15:50      18.0  11.0  19.2  15.0  64  1027   ---   NNE    10    10   ---   0.7 Scattered Clouds/
02/12/2006 16:50      17.0  12.0  18.8  14.3  72  1026   ---   ENE     8     8   ---   0.7 Scattered Clouds/
02/12/2006 17:50      16.0  11.0  17.8  11.3  72  1026   ---   ENE    13    13   ---   0.7 Few Clouds/
02/12/2006 18:50      15.0  11.0  17.1  15.0  77  1027   ---     N     5     5   ---   0.7 Few Clouds/
02/12/2006 19:50      15.0  10.0  16.8  15.0  72  1027   ---     N     5     5   ---   0.7 Few Clouds/
02/12/2006 20:50      14.0   9.0  15.8  14.0  72  1027   ---     N     5     5   ---   0.7 Few Clouds/
02/12/2006 21:50      13.0   9.0  15.1  11.2  77  1026   ---     S     6     6   ---   0.7 Few Clouds/
02/12/2006 22:20      13.0   9.0  15.1  13.0  77  1026   ---     N     5     5   ---   0.7 Few Clouds/
02/12/2006 23:20      13.0   8.0  14.8  13.0  72  1027   ---     N     5     5   ---   0.7 Few Clouds/
03/12/2006 00:50      13.0   8.0  14.8  13.0  72  1026   ---     N     3     3   ---   0.7 Few Clouds/
03/12/2006 01:50      13.0   8.0  14.8  13.0  72  1026   ---     N     3     3   ---   0.7 Few Clouds/
03/12/2006 02:20      12.0   7.0  13.7  12.0  71  1026   ---     N     5     5   ---   0.7 Few Clouds/
03/12/2006 03:50      12.0   7.0  13.7  12.0  71  1026   ---     N     5     5   ---   0.7 Few Clouds/
03/12/2006 05:50      12.0   6.0  13.4  12.0  67  1025   ---     N     2     2   ---   0.7 Few Clouds/
03/12/2006 06:50      12.0   6.0  13.4  12.0  67  1026   ---     N     5     5   ---   0.7 Few Clouds/
03/12/2006 07:50      12.0   6.0  13.4  12.0  67  1025   ---     N     3     3   ---   0.7 Few Clouds/
03/12/2006 09:50      17.0   9.0  18.0  17.0  59  1025   ---     N     0     0   ---   --- /
03/12/2006 10:20      18.0   8.0  18.6  18.0  52  1025   ---   ---     2     2   ---   --- /
03/12/2006 11:20      20.0   7.0  20.1  20.0  43  1025   ---     N     5     5   ---   --- /
03/12/2006 13:00       0.0   0.0   4.0   0.0 100   ---   ---     N   ---   ---   ---   --- /
03/12/2006 13:50      20.0   8.0  20.2  17.4  46  1024   ---   ENE    10    10   ---   0.7 Few Clouds/
03/12/2006 14:20      19.0   8.0  19.4  16.2  49  1024   ---   ENE    10    10   ---   0.7 Few Clouds/
03/12/2006 15:50      19.0   8.0  19.4  16.7  49  1024   ---   ENE     8     8   ---   0.7 Few Clouds/
03/12/2006 16:20      18.0   8.0  18.6  18.0  52  1024   ---     N     5     5   ---   0.7 Few Clouds/
03/12/2006 17:50      17.0  11.0  18.5  17.0  68  1024   ---     N     5     5   ---   0.7 Few Clouds/
03/12/2006 18:50      16.0  11.0  17.8  12.5  72  1023   ---     S    10    10   ---   0.7 Few Clouds/
03/12/2006 19:50      16.0  11.0  17.8  11.3  72  1023   ---     S    13    13   ---   0.7 Few Clouds/
03/12/2006 20:50      17.0  11.0  18.5  14.3  68  1024   ---     S     8     8   ---   0.7 Few Clouds/
03/12/2006 21:50      17.0  10.0  18.2  14.3  63  1024   ---     S     8     8   ---   0.7 Few Clouds/
03/12/2006 22:50      16.0   9.0  17.2  13.2  63  1023   ---     S     8     8   ---   0.7 Few Clouds/
03/12/2006 23:20      15.0   9.0  16.5  12.0  67  1023   ---   SSW     8     8   ---   0.7 Few Clouds/
04/12/2006 00:50      16.0  10.0  17.5  11.3  68  1024   ---   SSW    13    13   ---   0.7 Few Clouds/
04/12/2006 01:50      16.0  10.0  17.5  11.3  68  1023   ---   SSW    13    13   ---   0.7 Few Clouds/
04/12/2006 02:20      16.0   9.0  17.2   9.9  63  1024   ---    SW    16    16   ---   0.7 Few Clouds/
04/12/2006 03:50      16.0   8.0  16.9   9.0  59  1023   ---   SSW    19    19   ---   0.7 Few Clouds/
04/12/2006 04:20      16.0   8.0  16.9   9.0  59  1023   ---   SSW    19    19   ---   0.7 Few Clouds/
04/12/2006 05:50      17.0   6.0  17.4   9.8  48  1023   ---   SSW    23    23   ---   0.7 Few Clouds/
04/12/2006 06:50      17.0   8.0  17.7  10.1  55  1022   ---     S    21    21   ---   0.7 Few Clouds/
04/12/2006 07:50      17.0  10.0  18.2  10.1  63  1023   ---     S    21    21   ---   0.7 Few Clouds/
04/12/2006 08:20      17.0  11.0  18.5  10.1  68  1022   ---   SSW    21    21   ---   0.7 Few Clouds/
04/12/2006 09:50      18.0  12.0  19.5  11.6  68  1023   ---   SSW    21    21   ---   0.7 Broken Clouds/
04/12/2006 10:20      18.0  12.0  19.5  11.3  68  1023   ---     S    23    23   ---   0.7 Scattered Clouds/
04/12/2006 11:20      20.0  13.0  21.3  14.2  64  1023   ---   SSW    23    23   ---   0.7 Few Clouds/
04/12/2006 12:20      20.0  13.0  21.3  13.8  64  1023   ---   SSW    26    26   ---   0.7 Few Clouds/
04/12/2006 13:50      20.0  12.0  21.0  14.6  60  1023   ---    SW    19    19   ---   0.9 Few Clouds/
04/12/2006 14:20      20.0  12.0  21.0  15.3  60  1022   ---    SW    16    16   ---   0.9 Few Clouds/
04/12/2006 15:50      20.0  12.0  21.0  15.9  60  1023   ---     W    14    14   ---   0.9 Few Clouds/
04/12/2006 16:20      19.0  12.0  20.2  14.0  64  1022   ---     W    16    16   ---   0.9 Few Clouds/
04/12/2006 17:50      17.0  13.0  19.2  11.9  77  1022   ---     W    14    14   ---   0.9 Few Clouds/
04/12/2006 18:50      17.0  12.0  18.8  13.8  72  1023   ---   SSW    10    10   ---   0.9 Few Clouds/
04/12/2006 19:50      17.0  12.0  18.8  11.9  72  1022   ---   SSW    14    14   ---   0.9 Few Clouds/
04/12/2006 20:50      17.0  12.0  18.8  11.3  72  1022   ---     S    16    16   ---   0.9 Few Clouds/
04/12/2006 21:50      17.0  11.0  18.5  11.9  68  1023   ---   SSW    14    14   ---   --- /
04/12/2006 22:20      17.0  11.0  18.5  11.0  68  1023   ---     S    18    18   ---   0.7 Scattered Clouds/
04/12/2006 23:20      17.0  12.0  18.8  11.9  72  1023   ---   SSW    14    14   ---   0.7 Scattered Clouds/
05/12/2006 00:50      17.0  12.0  18.8  12.5  72  1022   ---   SSW    13    13   ---   0.6 Scattered Clouds/
05/12/2006 01:50      17.0  12.0  18.8  11.9  72  1022   ---   SSW    14    14   ---   0.6 Scattered Clouds/
05/12/2006 02:20      17.0  12.0  18.8  11.3  72  1022   ---   SSW    16    16   ---   0.6 Scattered Clouds/
05/12/2006 03:50      17.0  13.0  19.2  11.3  77  1022   ---    SW    16    16   ---   0.6 Scattered Clouds/
05/12/2006 04:50      17.0  13.0  19.2  14.3  77  1022   ---     S     8     8   ---   0.6 Broken Clouds/
05/12/2006 05:50      17.0  13.0  19.2  13.8  77  1022   ---   SSW    10    10   ---   0.6 Scattered Clouds/
05/12/2006 06:50      17.0  13.0  19.2  11.9  77  1022   ---   WSW    14    14   ---   0.6 Scattered Clouds/
05/12/2006 07:50      17.0  13.0  19.2  11.9  77  1022   ---     S    14    14   ---   0.6 Few Clouds/
05/12/2006 08:20      18.0  13.0  19.8  15.0  73  1022   ---     S    10    10   ---   0.6 Scattered Clouds/
05/12/2006 09:50      19.0  13.0  20.5  16.2  68  1023   ---     S    10    10   ---   0.7 Broken Clouds/
05/12/2006 10:50      20.0  12.0  21.0  18.8  60  1023   ---    SW     6     6   ---   0.7 Broken Clouds/
05/12/2006 11:20      20.0  12.0  21.0  17.8  60  1023   ---   SSW     8     8   ---   0.7 Broken Clouds/
05/12/2006 12:50      20.0  12.0  21.0  16.4  60  1022   ---     W    13    13   ---   0.7 Scattered Clouds/
05/12/2006 13:50      21.0  16.0  22.9  17.2  73  1022   ---     W    14    14   ---   0.7 Scattered Clouds/
05/12/2006 14:20      20.0  15.0  21.8  15.9  73  1022   ---     W    14    14   ---   0.7 Scattered Clouds/
05/12/2006 15:50      19.0  15.0  21.2  14.0  78  1022   ---     W    16    16   ---   0.5 Broken Clouds/
05/12/2006 16:50      19.0  14.0  20.8  16.7  73  1022   ---    SW     8     8   ---   0.5 Broken Clouds/
05/12/2006 17:50      18.0  13.0  19.8  15.5  73  1022   ---     S     8     8   ---   0.5 Broken Clouds/
05/12/2006 18:50      18.0  13.0  19.8  15.0  73  1022   ---     S    10    10   ---   0.5 Broken Clouds/
05/12/2006 19:50      18.0  12.0  19.5  15.0  68  1022   ---     S    10    10   ---   0.5 Broken Clouds/
05/12/2006 20:50      18.0  12.0  19.5  12.6  68  1022   ---   SSW    16    16   ---   0.6 Few Clouds/
05/12/2006 21:50      18.0  13.0  19.8  13.2  73  1021   ---     S    14    14   ---   0.6 Few Clouds/
05/12/2006 22:20      17.0  12.0  18.8  13.8  72  1022   ---     S    10    10   ---   0.6 Few Clouds/
05/12/2006 23:20      17.0  12.0  18.8  13.8  72  1021   ---     S    10    10   ---   0.7 Few Clouds/
06/12/2006 00:50      17.0  12.0  18.8  11.9  72  1022   ---     S    14    14   ---   0.7 Few Clouds/
06/12/2006 01:50      17.0  12.0  18.8  12.5  72  1021   ---     S    13    13   ---   0.7 Few Clouds/
06/12/2006 02:20      17.0  12.0  18.8  12.5  72  1021   ---     S    13    13   ---   0.7 Few Clouds/
06/12/2006 03:50      16.0  11.0  17.8  11.3  72  1020   ---     S    13    13   ---   0.7 Few Clouds/
06/12/2006 04:20      16.0  11.0  17.8  13.2  72  1020   ---     S     8     8   ---   0.7 Few Clouds/
06/12/2006 05:50      16.0  11.0  17.8  11.3  72  1019   ---     S    13    13   ---   --- /
06/12/2006 06:50      17.0  11.0  18.5  12.5  68  1019   ---   SSW    13    13   ---   --- /
06/12/2006 07:50      17.0  11.0  18.5  11.3  68  1019   ---     S    16    16   ---   --- /
06/12/2006 09:50      19.0  12.0  20.2  13.0  64  1019   ---     S    21    21   ---   --- /
06/12/2006 10:20      20.0  11.0  20.8  14.6  56  1019   ---     S    19    19   ---   --- /
06/12/2006 11:20      21.0  10.0  21.4  15.0  49  1018   ---     S    27    27   ---   --- /
06/12/2006 12:50      22.0  10.0  22.3  17.3  46  1017   ---   SSW    21    21   ---   --- /
06/12/2006 13:50      22.0   9.0  22.1  18.1  43  1015   ---     S    16    16   ---   0.6 Few Clouds/
06/12/2006 14:20      23.0  12.0  23.4  19.4  50  1015   ---     S    16    16   ---   0.6 Few Clouds/
06/12/2006 16:00       0.0   0.0   4.0 -11.8 100   ---   ---     S   ---   ---   ---   --- /
06/12/2006 17:00       0.0   0.0   4.0 -11.8 100   ---   ---     S   ---   ---   ---   --- /
06/12/2006 18:00       0.0   0.0   4.0 -11.8 100   ---   ---     S   ---   ---   ---   --- /
06/12/2006 18:20      19.0   7.0  19.2  15.1  46  1014   ---   SSE    13    13   ---   0.7 Scattered Clouds/
06/12/2006 20:00       0.0   0.0   4.0  -9.2 100   ---   ---   SSE   ---   ---   ---   --- /
06/12/2006 20:50      18.0   7.0  18.4  10.6  49  1014   ---     S    27    45   ---   0.7 Scattered Clouds/
06/12/2006 21:50      18.0   9.0  18.8  11.6  56  1014   ---     S    21    42   ---   0.8 Scattered Clouds/
06/12/2006 22:20      18.0   8.0  18.6   9.6  52  1013   ---     S    37    55   ---   0.8 Scattered Clouds/
06/12/2006 23:20      18.0  12.0  19.5  12.6  68  1014   ---     S    16    34   ---   0.8 Scattered Clouds/
07/12/2006 00:50      18.0  11.0  19.2  13.8  64  1013   ---   SSW    13    13   ---   0.8 Scattered Clouds/
07/12/2006 01:50      18.0  12.0  19.5  11.6  68  1013   ---     S    21    21   ---   0.8 Scattered Clouds/
07/12/2006 02:20      17.0  12.0  18.8  11.0  72  1013   ---     S    18    18   ---   0.8 Scattered Clouds/
07/12/2006 03:50      16.0  12.0  18.1   7.8  77  1013   ---    NW    26    26   ---   0.6 Broken Clouds/
07/12/2006 04:20      16.0  11.0  17.8   9.9  72  1013   ---   WNW    16    16   ---   0.6 Broken Clouds/
07/12/2006 05:50      15.0  11.0  17.1  15.0  77  1013   ---     N     5     5   ---   0.6 Broken Clouds/
07/12/2006 06:50      15.0  10.0  16.8  15.0  72  1013   ---     N     5     5   ---   0.6 Broken Clouds/
07/12/2006 07:50      15.0  10.0  16.8  15.0  72  1013   ---     N     5     5   ---   0.7 Broken Clouds/
07/12/2006 08:20      15.0  11.0  17.1  15.0  77  1013   ---     N     3     3   ---   0.7 Broken Clouds/
07/12/2006 09:50      17.0  12.0  18.8  14.3  72  1013   ---   ENE     8     8   ---   0.7 Broken Clouds/
07/12/2006 10:20      17.0  12.0  18.8  12.5  72  1014   ---   ENE    13    13   ---   0.7 Broken Clouds/
07/12/2006 11:20      17.0  12.0  18.8  15.5  72  1014   ---   ENE     6     6   ---   --- Overcast/ Light Rain
07/12/2006 12:50      17.0  12.0  18.8  17.0  72  1013   ---     N     2     2   ---   0.3 Broken Clouds/
07/12/2006 13:50      17.0  12.0  18.8  14.3  72  1013   ---    NE     8     8   ---   0.7 Broken Clouds/
07/12/2006 14:20      18.0  13.0  19.8  13.8  73  1013   ---     E    13    13   ---   0.4 Scattered Clouds/
07/12/2006 15:50      18.0  12.0  19.5  13.2  68  1013   ---   ENE    14    14   ---   0.4 Scattered Clouds/
07/12/2006 16:20      18.0  12.0  19.5  13.2  68  1013   ---   ENE    14    14   ---   0.7 Scattered Clouds/
07/12/2006 17:50      16.0  10.0  17.5  13.2  68  1013   ---     S     8     8   ---   0.7 Scattered Clouds/
07/12/2006 18:50      16.0   9.0  17.2  12.5  63  1014   ---   SSE    10    10   ---   0.7 Scattered Clouds/
07/12/2006 19:50      16.0   4.0  16.2  14.4  45  1014   ---   SSW     6     6   ---   0.7 Scattered Clouds/
07/12/2006 20:50      16.0   7.0  16.7  10.6  55  1015   ---   SSE    14    14   ---   0.7 Scattered Clouds/
07/12/2006 21:50      15.0   7.0  15.9  13.3  59  1015   ---    SE     6     6   ---   0.7 Scattered Clouds/
07/12/2006 22:20      15.0   8.0  16.2  15.0  63  1015   ---     N     3     3   ---   0.7 Scattered Clouds/
07/12/2006 23:20      13.0   7.0  14.4  11.2  67  1015   ---   ESE     6     6   ---   0.7 Scattered Clouds/
08/12/2006 00:50      13.0   8.0  14.8  13.0  72  1015   ---     N     5     5   ---   0.7 Scattered Clouds/
08/12/2006 01:50      13.0   8.0  14.8  13.0  72  1015   ---     N     3     3   ---   0.7 Scattered Clouds/
08/12/2006 02:20      12.0   7.0  13.7  12.0  71  1016   ---     N     5     5   ---   0.7 Few Clouds/
08/12/2006 03:50      12.0   7.0  13.7  12.0  71  1015   ---     N     3     3   ---   0.9 Few Clouds/
08/12/2006 04:20      12.0   6.0  13.4  12.0  67  1015   ---     N     3     3   ---   0.9 Few Clouds/
08/12/2006 05:50      13.0   7.0  14.4  13.0  67  1015   ---     N     2     2   ---   0.9 Few Clouds/
08/12/2006 06:50      12.0   7.0  13.7  10.1  71  1016   ---     S     6     6   ---   0.9 Few Clouds/
08/12/2006 07:50      13.0   8.0  14.8   9.7  72  1016   ---    SW     8     8   ---   0.9 Few Clouds/
08/12/2006 08:20      13.0   7.0  14.4  13.0  67  1017   ---     N     5     5   ---   0.9 Few Clouds/
08/12/2006 10:00       0.0   0.0   4.0   0.0 100   ---   ---     N   ---   ---   ---   --- /
08/12/2006 10:20      18.0   9.0  18.8  18.0  56  1017   ---     N     3     3   ---   0.9 Few Clouds/
08/12/2006 11:20      18.0   9.0  18.8  18.0  56  1017   ---     N     5     5   ---   0.8 Few Clouds/
08/12/2006 12:50      20.0   9.0  20.4  17.4  49  1017   ---    SW    10    10   ---   0.7 Few Clouds/
08/12/2006 13:50      20.0  10.0  20.6  17.4  53  1016   ---   SSW    10    10   ---   0.7 Few Clouds/
08/12/2006 15:50      20.0   7.0  20.1  15.9  43  1016   ---   SSW    14    14   ---   0.7 Few Clouds/
08/12/2006 16:20      18.0   7.0  18.4  18.0  49  1016   ---     N     5     5   ---   0.7 Few Clouds/
08/12/2006 17:20      17.0   8.0  17.7  13.8  55  1016   ---   SSW    10    10   ---   0.7 Few Clouds/
08/12/2006 18:50      16.0   8.0  16.9  16.0  59  1016   ---     N     5     5   ---   0.7 Few Clouds/
08/12/2006 19:50      16.0  10.0  17.5  10.6  68  1017   ---    SW    14    14   ---   0.7 Few Clouds/
08/12/2006 20:50      17.0   8.0  17.7  11.0  55  1017   ---     S    18    18   ---   0.7 Few Clouds/
08/12/2006 21:50      17.0   9.0  18.0  12.5  59  1017   ---    SW    13    13   ---   0.7 Few Clouds/
08/12/2006 22:20      17.0  10.0  18.2  10.4  63  1017   ---    SW    19    19   ---   0.7 Few Clouds/
08/12/2006 23:20      16.0  11.0  17.8  11.3  72  1017   ---    SW    13    13   ---   0.7 Few Clouds/
09/12/2006 00:50      17.0  11.0  18.5   9.8  68  1016   ---     S    23    23   ---   0.7 Few Clouds/
09/12/2006 02:00       0.0   0.0   4.0 -14.8 100   ---   ---     S   ---   ---   ---   --- /
09/12/2006 02:20      17.0  11.0  18.5  10.1  68  1016   ---   SSW    21    21   ---   0.7 Few Clouds/
09/12/2006 04:00       0.0   0.0   4.0 -14.2 100   ---   ---   SSW   ---   ---   ---   --- /
09/12/2006 04:20       0.0   0.0   4.0 -14.2 100   ---   ---   SSW   ---   ---   ---   --- /
09/12/2006 05:20      16.0  11.0  17.8   7.0  72  1015   ---   SSW    32    32   ---   0.7 Scattered Clouds/
09/12/2006 06:50      16.0  11.0  17.8   7.4  72  1016   ---   SSW    29    29   ---   0.7 Scattered Clouds/
09/12/2006 07:50      17.0  11.0  18.5   8.7  68  1016   ---     S    31    55   ---   0.7 Broken Clouds/
09/12/2006 08:20      17.0  11.0  18.5   8.9  68  1016   ---   SSW    29    29   ---   0.7 Broken Clouds/
09/12/2006 09:50      18.0   9.0  18.8  10.2  56  1017   ---   SSW    31    58   ---   0.7 Broken Clouds/
09/12/2006 10:20      18.0   9.0  18.8  10.0  56  1017   ---   SSW    32    51   ---   0.7 Broken Clouds/
09/12/2006 11:20      16.0  11.0  17.8   7.8  72  1018   ---   SSW    26    26   ---   --- Overcast/ Light Rain
09/12/2006 12:50      17.0   9.0  18.0  10.1  59  1018   ---   SSW    21    21   ---   0.7 Broken Clouds/
09/12/2006 13:50      13.0   8.0  14.8   4.8  72  1019   ---   SSE    19    19   ---   --- Overcast/ Rain
09/12/2006 14:20      14.0   9.0  15.8   6.2  72  1019   ---     S    19    19   ---   --- Overcast/ Light Rain
09/12/2006 15:50      15.0  10.0  16.8  12.0  72  1019   ---    SW     8     8   ---   0.6 Broken Clouds/
09/12/2006 16:50      15.0  10.0  16.8  10.0  72  1020   ---     S    13    13   ---   0.7 Broken Clouds/
09/12/2006 17:20      15.0   9.0  16.5  11.3  67  1020   ---   SSW    10    10   ---   0.7 Broken Clouds/
09/12/2006 18:50      15.0   9.0  16.5  10.0  67  1020   ---     S    13    13   ---   0.7 Scattered Clouds/
09/12/2006 19:50      15.0   9.0  16.5  10.0  67  1021   ---     S    13    13   ---   0.7 Scattered Clouds/
09/12/2006 20:50      15.0   8.0  16.2   9.3  63  1022   ---   SSW    14    14   ---   0.7 Scattered Clouds/
09/12/2006 21:50      14.0   8.0  15.5   8.0  67  1022   ---     S    14    14   ---   0.7 Few Clouds/
09/12/2006 23:20      14.0   8.0  15.5   7.2  67  1023   ---     S    16    16   ---   0.7 Few Clouds/
10/12/2006 00:50      15.0   8.0  16.2  12.0  63  1023   ---     S     8     8   ---   0.7 Few Clouds/
10/12/2006 02:00       0.0   0.0   4.0  -5.5 100   ---   ---     S   ---   ---   ---   --- /
10/12/2006 02:20      15.0   8.0  16.2  10.0  63  1025   ---     S    13    13   ---   0.7 Few Clouds/
10/12/2006 03:50      14.0   9.0  15.8  10.1  72  1025   ---   SSE    10    10   ---   0.7 Few Clouds/
10/12/2006 04:20      14.0   8.0  15.5   8.7  67  1025   ---     S    13    13   ---   0.7 Few Clouds/
10/12/2006 05:20      14.0   8.0  15.5   8.7  67  1025   ---   SSE    13    13   ---   0.7 Few Clouds/
10/12/2006 06:50      14.0   8.0  15.5   8.7  67  1026   ---     S    13    13   ---   0.7 Few Clouds/
10/12/2006 07:50      15.0   9.0  16.5  11.3  67  1027   ---     S    10    10   ---   0.7 Few Clouds/
10/12/2006 08:20      15.0   9.0  16.5  11.3  67  1027   ---     S    10    10   ---   0.7 Broken Clouds/
10/12/2006 09:50      17.0   9.0  18.0  11.9  59  1028   ---   SSW    14    14   ---   0.7 Few Clouds/
10/12/2006 10:20      17.0   9.0  18.0  11.0  59  1029   ---   SSW    18    18   ---   0.7 Few Clouds/
10/12/2006 11:20      18.0   9.0  18.8  12.6  56  1029   ---   SSW    16    16   ---   0.7 Few Clouds/
10/12/2006 12:50      18.0   9.0  18.8  15.0  56  1029   ---   SSW    10    10   ---   0.7 Few Clouds/
10/12/2006 13:50      19.0   9.0  19.6  15.1  52  1029   ---    SW    13    13   ---   0.7 Scattered Clouds/
10/12/2006 14:20      19.0   9.0  19.6  16.7  52  1029   ---   WSW     8     8   ---   0.9 Scattered Clouds/
10/12/2006 15:50      18.0   9.0  18.8  15.5  56  1029   ---   WSW     8     8   ---   0.9 Broken Clouds/
10/12/2006 16:20      17.0   9.0  18.0  17.0  59  1029   ---     N     3     3   ---   0.9 Broken Clouds/
10/12/2006 17:20       0.0   0.0   4.0   0.0 100   ---   ---     N   ---   ---   ---   --- /
10/12/2006 18:50      16.0   9.0  17.2  13.2  63  1030   ---     S     8     8   ---   0.7 Broken Clouds/
10/12/2006 19:50      16.0  10.0  17.5  12.5  68  1031   ---   SSE    10    10   ---   0.7 Broken Clouds/
10/12/2006 20:50      16.0  11.0  17.8  14.4  72  1031   ---     S     6     6   ---   --- / Drizzle
10/12/2006 21:50      16.0  11.0  17.8  16.0  72  1031   ---     N     5     5   ---   0.7 Broken Clouds/
10/12/2006 22:20      16.0  11.0  17.8  16.0  72  1031   ---     N     5     5   ---   0.7 Broken Clouds/
10/12/2006 23:20      15.0  10.0  16.8  13.3  72  1031   ---     S     6     6   ---   0.7 Broken Clouds/
11/12/2006 00:50      15.0  10.0  16.8  15.0  72  1031   ---     N     3     3   ---   0.7 Broken Clouds/
11/12/2006 01:50      14.0  10.0  16.1  14.0  77  1031   ---     N     3     3   ---   0.7 Broken Clouds/
11/12/2006 02:20      14.0  10.0  16.1  14.0  77  1031   ---     N     3     3   ---   --- Overcast/ Light Rain
11/12/2006 03:50      14.0   9.0  15.8  14.0  72  1030   ---     N     2     2   ---   0.7 Broken Clouds/
11/12/2006 04:20      14.0   9.0  15.8  14.0  72  1030   ---     N     3     3   ---   0.7 Broken Clouds/
11/12/2006 05:20      14.0   9.0  15.8  14.0  72  1030   ---     N     2     2   ---   0.7 Broken Clouds/
11/12/2006 06:50      15.0   8.0  16.2  10.0  63  1029   ---   SSW    13    13   ---   0.7 Broken Clouds/
11/12/2006 07:50      15.0   7.0  15.9  12.0  59  1030   ---    SW     8     8   ---   0.6 Overcast/
11/12/2006 09:50      14.0   9.0  15.8  12.3  72  1030   ---     S     6     6   ---   --- Overcast/ Light Rain
11/12/2006 10:20      14.0   9.0  15.8  12.3  72  1030   ---     S     6     6   ---   --- Overcast/ Light Rain
11/12/2006 11:20      14.0   9.0  15.8   7.2  72  1030   ---    SW    16    16   ---   --- Overcast/ Rain
11/12/2006 12:50      15.0  10.0  16.8   9.3  72  1028   ---   WSW    14    14   ---   --- / Drizzle
11/12/2006 13:50      16.0  10.0  17.5  11.3  68  1027   ---     S    13    13   ---   --- / Drizzle
11/12/2006 14:20      16.0  10.0  17.5  10.6  68  1027   ---    SW    14    14   ---   --- / Drizzle
11/12/2006 15:50      14.0   9.0  15.8  14.0  72  1027   ---     N     5     5   ---   --- Overcast/ Light Rain
11/12/2006 16:20      14.0   9.0  15.8   8.7  72  1027   ---   SSE    13    13   ---   --- Overcast/ Light Rain
11/12/2006 17:20      14.0   8.0  15.5  10.1  67  1027   ---     S    10    10   ---   0.4 Broken Clouds/
11/12/2006 18:50      14.0   8.0  15.5   5.8  67  1026   ---   NNE    21    21   ---   --- Overcast/ Light Rain
11/12/2006 19:50      14.0   8.0  15.5   6.2  67  1027   ---   NNE    19    19   ---   --- Overcast/ Light Rain
11/12/2006 20:50      13.0   7.0  14.4   7.4  67  1027   ---   ENE    13    13   ---   --- Overcast/ Light Rain
11/12/2006 21:50      13.0   7.0  14.4  11.2  67  1027   ---    NE     6     6   ---   0.7 Broken Clouds/
11/12/2006 22:20      14.0   7.0  15.2  12.3  63  1027   ---   ENE     6     6   ---   0.7 Broken Clouds/
11/12/2006 23:20      13.0   7.0  14.4  11.2  67  1027   ---     E     6     6   ---   0.7 Broken Clouds/
12/12/2006 00:50      13.0   8.0  14.8   6.6  72  1026   ---   NNE    14    14   ---   0.7 Scattered Clouds/
12/12/2006 01:50      13.0   8.0  14.8   6.6  72  1027   ---   NNE    14    14   ---   0.7 Scattered Clouds/
12/12/2006 02:20      14.0   8.0  15.5   7.2  67  1026   ---   NNE    16    16   ---   0.7 Scattered Clouds/
12/12/2006 03:50      13.0   8.0  14.8   6.6  72  1026   ---     N    14    14   ---   0.7 Scattered Clouds/
12/12/2006 04:20      13.0   8.0  14.8   7.4  72  1026   ---     N    13    13   ---   0.7 Scattered Clouds/
12/12/2006 05:20       0.0   0.0   4.0  -9.2 100   ---   ---     N   ---   ---   ---   --- /
12/12/2006 06:50      14.0   7.0  15.2   6.2  63  1025   ---    NW    19    19   ---   0.7 Scattered Clouds/
12/12/2006 07:50      14.0   7.0  15.2   8.0  63  1026   ---   NNE    14    14   ---   0.7 Scattered Clouds/
12/12/2006 09:50      15.0   8.0  16.2   6.1  63  1026   ---    NE    27    27   ---   0.7 Scattered Clouds/
12/12/2006 10:20      16.0   8.0  16.9   9.0  59  1026   ---   ENE    19    19   ---   0.7 Scattered Clouds/
12/12/2006 11:20      15.0   8.0  16.2  10.0  63  1026   ---    NE    13    13   ---   0.7 Scattered Clouds/
12/12/2006 11:50      16.0   7.0  16.7  10.6  55  1026   ---   NNE    14    14   ---   0.7 Scattered Clouds/
12/12/2006 13:50      17.0   7.0  17.5  11.9  52  1025   ---    NE    14    14   ---   0.7 Broken Clouds/
12/12/2006 15:50      16.0   6.0  16.5   9.9  51  1024   ---   NNE    16    16   ---   0.7 Scattered Clouds/
12/12/2006 16:20      16.0   5.0  16.3  11.3  48  1025   ---    NE    13    13   ---   0.7 Scattered Clouds/
12/12/2006 17:20      14.0   5.0  14.7  10.8  55  1025   ---   ENE     8     8   ---   0.7 Scattered Clouds/
12/12/2006 18:50      13.0   6.0  14.2  13.0  62  1025   ---     N     5     5   ---   0.7 Scattered Clouds/
12/12/2006 19:50      14.0   7.0  15.2  14.0  63  1025   ---     N     5     5   ---   0.7 Scattered Clouds/
12/12/2006 20:50      14.0   7.0  15.2   8.7  63  1025   ---     E    13    13   ---   0.7 Scattered Clouds/
12/12/2006 21:50      14.0   6.0  14.9  12.3  59  1025   ---    SE     6     6   ---   0.7 Few Clouds/
12/12/2006 22:20      13.0   6.0  14.2  11.2  62  1025   ---    SE     6     6   ---   0.7 Few Clouds/
12/12/2006 23:20      13.0   6.0  14.2  13.0  62  1025   ---     N     5     5   ---   0.7 Few Clouds/
13/12/2006 00:50      13.0   5.0  13.9  13.0  58  1025   ---     N     3     3   ---   --- /
13/12/2006 01:50      12.0   5.0  13.1  12.0  62  1025   ---     N     3     3   ---   --- /
13/12/2006 02:20      11.0   5.0  12.4   9.0  66  1025   ---     S     6     6   ---   --- /
13/12/2006 03:50      10.0   5.0  11.7  10.0  71  1025   ---     N     3     3   ---   --- /
13/12/2006 04:20      10.0   5.0  11.7  10.0  71  1025   ---     N     3     3   ---   --- /
13/12/2006 05:20       9.0   5.0  11.1   9.0  76  1025   ---     N     2     2   ---   --- /
13/12/2006 06:50      10.0   5.0  11.7  10.0  71  1025   ---     N     2     2   ---   --- /
13/12/2006 07:50      10.0   5.0  11.7  10.0  71  1025   ---     N     3     3   ---   0.7 Few Clouds/
13/12/2006 09:50      12.0   8.0  14.1  12.0  77  1026   ---     N     3     3   ---   0.7 Broken Clouds/
13/12/2006 10:20      13.0   8.0  14.8  13.0  72  1026   ---     N     2     2   ---   0.7 Broken Clouds/
13/12/2006 11:20      13.0   8.0  14.8  13.0  72  1025   ---     N     3     3   ---   0.7 Broken Clouds/
13/12/2006 12:20      14.0   9.0  15.8  14.0  72  1025   ---     N     2     2   ---   0.7 Broken Clouds/
13/12/2006 13:50      15.0   8.0  16.2  15.0  63  1024   ---     N     2     2   ---   0.7 Broken Clouds/
13/12/2006 14:20      16.0   7.0  16.7  16.0  55  1023   ---     N     0     0   ---   0.7 Broken Clouds/
13/12/2006 15:50      15.0   7.0  15.9   7.6  59  1023   ---     E    19    19   ---   0.7 Broken Clouds/
13/12/2006 16:20      15.0   7.0  15.9  11.3  59  1023   ---     E    10    10   ---   0.7 Broken Clouds/
13/12/2006 17:20      15.0   6.0  15.7   7.6  55  1023   ---     E    19    19   ---   0.7 Broken Clouds/
13/12/2006 18:50      15.0   8.0  16.2   6.9  63  1023   ---     E    23    23   ---   0.7 Broken Clouds/
13/12/2006 19:50      15.0   8.0  16.2   8.2  63  1024   ---     E    18    18   ---   0.7 Scattered Clouds/
13/12/2006 20:50      16.0   8.0  16.9  13.2  59  1025   ---    SE     8     8   ---   0.7 Scattered Clouds/
13/12/2006 21:50      13.0   8.0  14.8  13.0  72  1025   ---     N     0     0   ---   0.7 Scattered Clouds/
13/12/2006 22:20      13.0   6.0  14.2  13.0  62  1025   ---   ---     5     5   ---   0.7 Few Clouds/
13/12/2006 23:20      14.0   8.0  15.5  10.1  67  1025   ---   SSE    10    10   ---   0.7 Few Clouds/
14/12/2006 00:50      13.0   7.0  14.4  13.0  67  1024   ---     N     3     3   ---   0.7 Scattered Clouds/
14/12/2006 01:50      13.0   7.0  14.4  13.0  67  1024   ---     N     3     3   ---   0.7 Scattered Clouds/
14/12/2006 02:20      14.0   6.0  14.9  10.8  59  1023   ---   ESE     8     8   ---   0.7 Scattered Clouds/
14/12/2006 03:50      14.0   7.0  15.2  14.0  63  1024   ---     N     5     5   ---   0.7 Scattered Clouds/
14/12/2006 04:20      14.0   9.0  15.8  14.0  72  1023   ---     N     2     2   ---   0.7 Broken Clouds/
14/12/2006 05:20      16.0   8.0  16.9   9.0  59  1022   ---   ENE    19    39   ---   0.7 Broken Clouds/
14/12/2006 06:50      16.0  10.0  17.5  13.2  68  1023   ---     E     8     8   ---   0.7 Broken Clouds/
14/12/2006 07:50      15.0  10.0  16.8  15.0  72  1024   ---     N     2     2   ---   0.9 Broken Clouds/
14/12/2006 08:50      16.0  11.0  17.8  16.0  72  1024   ---     N     5     5   ---   0.9 Broken Clouds/
14/12/2006 09:50      16.0  11.0  17.8  16.0  72  1025   ---     N     5     5   ---   0.9 Broken Clouds/
14/12/2006 10:50      17.0  11.0  18.5  17.0  68  1025   ---     N     3     3   ---   0.9 Broken Clouds/
14/12/2006 11:20      17.0  11.0  18.5  17.0  68  1026   ---     N     2     2   ---   0.9 Broken Clouds/
14/12/2006 12:20      18.0  12.0  19.5  15.5  68  1025   ---     E     8     8   ---   0.9 Broken Clouds/
14/12/2006 13:50      19.0  11.0  20.0  14.5  60  1025   ---     E    14    14   ---   --- Overcast/ Light Rain
14/12/2006 14:20      19.0  13.0  20.5  13.0  68  1025   ---   ENE    21    21   ---   --- Overcast/ Light Rain
14/12/2006 15:50      18.0  14.0  20.2  13.8  77  1025   ---   ENE    13    13   ---   --- Overcast/ Light Rain
14/12/2006 17:00       0.0   0.0   4.0  -9.2 100   ---   ---   ENE   ---   ---   ---   --- /
14/12/2006 17:20      18.0  13.0  19.8  16.6  73  1026   ---     E     6     6   ---   0.9 Broken Clouds/
14/12/2006 18:50      17.0  12.0  18.8  15.5  72  1026   ---   SSW     6     6   ---   0.9 Broken Clouds/
14/12/2006 19:50      16.0  12.0  18.1  16.0  77  1027   ---     N     2     2   ---   0.7 Broken Clouds/
14/12/2006 21:00       0.0   0.0   4.0   0.0 100   ---   ---     N   ---   ---   ---   --- /
14/12/2006 21:50      17.0  12.0  18.8  17.0  72  1028   ---     N     2     2   ---   0.7 Broken Clouds/
14/12/2006 22:20      17.0  12.0  18.8  17.0  72  1029   ---     N     3     3   ---   0.7 Broken Clouds/
14/12/2006 23:20      16.0  12.0  18.1  16.0  77  1029   ---     N     5     5   ---   --- Overcast/ Rain
15/12/2006 00:50      16.0  11.0  17.8  16.0  72  1029   ---     N     3     3   ---   0.6 Broken Clouds/
15/12/2006 01:50      15.0  11.0  17.1  15.0  77  1029   ---     N     5     5   ---   0.6 Broken Clouds/
15/12/2006 02:20      16.0  11.0  17.8  16.0  72  1029   ---     N     2     2   ---   0.6 Broken Clouds/
15/12/2006 03:50      16.0  11.0  17.8  14.4  72  1029   ---    NW     6     6   ---   0.6 Scattered Clouds/
15/12/2006 04:20      15.0  10.0  16.8  13.3  72  1029   ---   SSE     6     6   ---   0.6 Scattered Clouds/
15/12/2006 05:20      15.0  10.0  16.8  15.0  72  1029   ---     N     5     5   ---   0.6 Scattered Clouds/
15/12/2006 07:00       0.0   0.0   4.0   0.0 100   ---   ---     N   ---   ---   ---   --- /
15/12/2006 07:50      16.0  11.0  17.8  13.2  72  1030   ---   SSE     8     8   ---   0.6 Few Clouds/
15/12/2006 09:50      19.0  13.0  20.5  19.0  68  1031   ---     N     5     5   ---   0.6 Few Clouds/
15/12/2006 10:20      19.0  14.0  20.8  19.0  73  1032   ---     N     5     5   ---   0.6 Few Clouds/
15/12/2006 11:20      20.0  14.0  21.5  20.0  68  1031   ---     N     3     3   ---   0.6 Few Clouds/
15/12/2006 12:20      20.0  13.0  21.3  20.0  64  1031   ---     N     2     2   ---   1.2 Few Clouds/
15/12/2006 13:50      19.0  12.0  20.2  16.7  64  1030   ---    NE     8     8   ---   1.2 Few Clouds/
15/12/2006 14:20      19.0  12.0  20.2  14.5  64  1029   ---    NE    14    14   ---   1.2 Few Clouds/
15/12/2006 15:50      20.0  12.0  21.0  17.8  60  1029   ---   ENE     8     8   ---   1.0 Broken Clouds/
15/12/2006 16:20      19.0  14.0  20.8  16.7  73  1029   ---   ENE     8     8   ---   1.0 Broken Clouds/
15/12/2006 17:20      18.0  13.0  19.8  16.6  73  1029   ---     N     6     6   ---   1.0 Broken Clouds/
15/12/2006 18:20      17.0  12.0  18.8  13.8  72  1030   ---   SSW    10    10   ---   1.0 Broken Clouds/
15/12/2006 19:50      18.0  13.0  19.8  15.5  73  1029   ---     E     8     8   ---   --- Overcast/ Light Rain
15/12/2006 20:50      17.0  12.0  18.8  17.0  72  1030   ---     N     5     5   ---   0.9 Broken Clouds/
15/12/2006 21:50      16.0  12.0  18.1  14.4  77  1030   ---     S     6     6   ---   0.9 Broken Clouds/
15/12/2006 22:20      16.0  11.0  17.8  14.4  72  1030   ---     S     6     6   ---   0.9 Broken Clouds/
15/12/2006 23:20      15.0  11.0  17.1  13.3  77  1030   ---     S     6     6   ---   0.9 Broken Clouds/
16/12/2006 00:50      15.0  10.0  16.8  11.3  72  1030   ---   WSW    10    10   ---   0.9 Broken Clouds/
16/12/2006 01:50      15.0  10.0  16.8   8.6  72  1030   ---    SW    16    16   ---   0.9 Broken Clouds/
16/12/2006 02:20      15.0  10.0  16.8  10.0  72  1029   ---     W    13    13   ---   0.9 Broken Clouds/
16/12/2006 03:50      14.0   9.0  15.8  10.1  72  1029   ---   SSW    10    10   ---   0.9 Broken Clouds/
16/12/2006 04:20      15.0  10.0  16.8  15.0  72  1028   ---     N     5     5   ---   0.9 Broken Clouds/
16/12/2006 05:20      14.0   9.0  15.8  14.0  72  1028   ---     N     3     3   ---   0.9 Broken Clouds/
16/12/2006 06:20      15.0  11.0  17.1  15.0  77  1028   ---     N     5     5   ---   0.9 Broken Clouds/
16/12/2006 07:50      16.0  10.0  17.5  13.2  68  1028   ---    SE     8     8   ---   0.9 Scattered Clouds/
16/12/2006 09:50      17.0  12.0  18.8  17.0  72  1028   ---     N     5     5   ---   1.2 Broken Clouds/
16/12/2006 10:20      18.0  13.0  19.8  18.0  73  1029   ---     N     3     3   ---   1.2 Broken Clouds/
16/12/2006 11:20      19.0  12.0  20.2  19.0  64  1029   ---     N     3     3   ---   1.2 Broken Clouds/
16/12/2006 12:20      20.0  12.0  21.0  20.0  60  1028   ---     N     3     3   ---   1.2 Broken Clouds/
16/12/2006 13:50      19.0  13.0  20.5  14.5  68  1026   ---   ENE    14    14   ---   1.0 Scattered Clouds/
16/12/2006 14:20      19.0  14.0  20.8  15.1  73  1026   ---   ENE    13    13   ---   1.0 Scattered Clouds/
16/12/2006 15:20      19.0  14.0  20.8  16.7  73  1026   ---    NE     8     8   ---   1.0 Broken Clouds/
16/12/2006 16:50      18.0  13.0  19.8  18.0  73  1026   ---     N     3     3   ---   1.0 Broken Clouds/
16/12/2006 17:20      17.0  13.0  19.2  17.0  77  1026   ---     N     2     2   ---   1.0 Broken Clouds/
16/12/2006 18:50      17.0  12.0  18.8  17.0  72  1026   ---     N     3     3   ---   1.0 Broken Clouds/
16/12/2006 19:50      18.0  11.0  19.2  18.0  64  1025   ---     N     2     2   ---   1.0 Broken Clouds/
16/12/2006 20:50      16.0  11.0  17.8  16.0  72  1026   ---     N     5     5   ---   1.0 Broken Clouds/
16/12/2006 21:50      17.0  12.0  18.8  17.0  72  1025   ---     N     3     3   ---   1.0 Broken Clouds/
16/12/2006 22:20      16.0  11.0  17.8  16.0  72  1025   ---     N     2     2   ---   1.0 Broken Clouds/
16/12/2006 23:20      16.0  11.0  17.8  16.0  72  1025   ---     N     3     3   ---   1.0 Broken Clouds/
17/12/2006 00:50      16.0  12.0  18.1  12.5  77  1025   ---     E    10    10   ---   0.9 Broken Clouds/
17/12/2006 01:50      16.0  11.0  17.8  11.3  72  1025   ---    SW    13    13   ---   0.9 Broken Clouds/
17/12/2006 02:20      15.0  11.0  17.1  12.0  77  1025   ---   SSW     8     8   ---   --- Overcast/ Light Rain
17/12/2006 03:50      15.0  10.0  16.8  11.3  72  1024   ---   ENE    10    10   ---   0.6 Broken Clouds/
17/12/2006 04:20      15.0  10.0  16.8  10.0  72  1023   ---   ENE    13    13   ---   0.6 Broken Clouds/
17/12/2006 05:20      15.0  10.0  16.8  15.0  72  1022   ---     N     3     3   ---   --- Overcast/ Light Rain
17/12/2006 06:20      15.0  10.0  16.8  13.3  72  1022   ---   SSE     6     6   ---   --- Overcast/ Light Rain
17/12/2006 07:50      15.0  10.0  16.8  15.0  72  1022   ---     N     3     3   ---   --- Overcast/ Light Rain
17/12/2006 09:50      15.0  10.0  16.8  15.0  72  1023   ---     N     2     2   ---   --- Overcast/ Light Rain
17/12/2006 10:20      15.0  10.0  16.8  15.0  72  1023   ---     N     2     2   ---   --- Overcast/ Light Rain
17/12/2006 11:20      17.0  12.0  18.8  15.5  72  1022   ---    SW     6     6   ---   0.6 Broken Clouds/
17/12/2006 12:20      17.0  12.0  18.8  15.5  72  1021   ---     W     6     6   ---   0.5 Broken Clouds/
17/12/2006 13:50      17.0  12.0  18.8  14.3  72  1021   ---   ENE     8     8   ---   0.6 Broken Clouds/
17/12/2006 14:20      17.0  12.0  18.8  14.3  72  1020   ---   ENE     8     8   ---   0.6 Broken Clouds/
17/12/2006 15:50      17.0  12.0  18.8  12.5  72  1020   ---   SSW    13    13   ---   0.6 Broken Clouds/
17/12/2006 16:20      17.0  12.0  18.8  12.5  72  1020   ---    SW    13    13   ---   0.6 Broken Clouds/
17/12/2006 17:20      17.0  12.0  18.8  12.5  72  1019   ---   SSW    13    13   ---   0.6 Broken Clouds/
17/12/2006 18:50      17.0  12.0  18.8  11.0  72  1020   ---    SW    18    18   ---   0.6 Broken Clouds/
17/12/2006 19:50      17.0  12.0  18.8  11.9  72  1019   ---   SSW    14    14   ---   0.6 Broken Clouds/
17/12/2006 20:50      17.0  12.0  18.8  11.3  72  1019   ---   SSW    16    16   ---   0.6 Broken Clouds/
17/12/2006 21:50      17.0  12.0  18.8  11.3  72  1019   ---     S    16    16   ---   0.5 Broken Clouds/
17/12/2006 22:20      16.0  11.0  17.8  12.5  72  1020   ---     S    10    10   ---   0.5 Broken Clouds/
17/12/2006 23:20      17.0  12.0  18.8  11.0  72  1019   ---     S    18    18   ---   0.5 Broken Clouds/
18/12/2006 00:50      17.0  12.0  18.8  15.5  72  1018   ---   SSW     6     6   ---   0.5 Broken Clouds/
18/12/2006 01:50      16.0  12.0  18.1   9.6  77  1018   ---   SSW    18    18   ---   0.5 Broken Clouds/
18/12/2006 02:20      17.0  12.0  18.8  11.3  72  1018   ---   SSW    16    16   ---   0.5 Broken Clouds/
18/12/2006 03:50      16.0  11.0  17.8  11.3  72  1016   ---     S    13    13   ---   0.5 Broken Clouds/
18/12/2006 04:20      16.0  11.0  17.8  14.4  72  1016   ---   SSW     6     6   ---   0.5 Broken Clouds/
18/12/2006 05:20      16.0  11.0  17.8  13.2  72  1015   ---     S     8     8   ---   0.5 Broken Clouds/
18/12/2006 07:00       0.0   0.0   4.0  -5.5 100   ---   ---     S   ---   ---   ---   --- /
18/12/2006 07:50      16.0  11.0  17.8  13.2  72  1016   ---     S     8     8   ---   0.5 Broken Clouds/
18/12/2006 08:20      16.0  11.0  17.8  13.2  72  1016   ---   WSW     8     8   ---   --- / Drizzle
18/12/2006 09:50      17.0  12.0  18.8  11.3  72  1016   ---   SSW    16    16   ---   0.5 Broken Clouds/
18/12/2006 10:20      17.0  12.0  18.8  11.9  72  1016   ---    SW    14    14   ---   0.5 Broken Clouds/
18/12/2006 12:20      19.0  13.0  20.5  14.5  68  1014   ---   SSW    14    14   ---   0.6 Scattered Clouds/
18/12/2006 13:50      18.0  13.0  19.8  16.6  73  1013   ---   WSW     6     6   ---   --- Overcast/ Rain
18/12/2006 14:20      17.0  13.0  19.2  14.3  77  1013   ---    SW     8     8   ---   --- Overcast/ Light Rain
18/12/2006 15:50      17.0  12.0  18.8  11.0  72  1013   ---     W    18    18   ---   --- Overcast/ Rain
18/12/2006 16:20      16.0  11.0  17.8  11.3  72  1012   ---   SSW    13    13   ---   --- Overcast/ Light Rain
18/12/2006 17:20      16.0  11.0  17.8  10.6  72  1012   ---     N    14    14   ---   --- Overcast/ Light Rain
19/12/2006 02:20      14.0   9.0  15.8  10.8  72  1013   ---     S     8     8   ---   0.6 Scattered Clouds/
19/12/2006 03:50      14.0   8.0  15.5  10.8  67  1012   ---     S     8     8   ---   0.6 Scattered Clouds/
19/12/2006 04:20      14.0   9.0  15.8  10.1  72  1013   ---     S    10    10   ---   0.6 Scattered Clouds/
19/12/2006 05:20      13.0   8.0  14.8   9.7  72  1013   ---     S     8     8   ---   --- Overcast/ Rain
19/12/2006 06:20      13.0   8.0  14.8   8.9  72  1014   ---   SSW    10    10   ---   0.7 Broken Clouds/
19/12/2006 07:50      13.0   8.0  14.8   5.8  72  1013   ---   SSW    16    16   ---   0.7 Broken Clouds/
19/12/2006 09:50      13.0   8.0  14.8   4.4  72  1014   ---   SSW    21    21   ---   0.6 Broken Clouds/
19/12/2006 10:20      14.0   8.0  15.5   4.4  67  1014   ---     S    29    29   ---   0.6 Broken Clouds/
19/12/2006 12:20      15.0  10.0  16.8   9.3  72  1014   ---   SSW    14    14   ---   0.6 Broken Clouds/
19/12/2006 14:50      16.0   8.0  16.9   7.4  59  1014   ---     W    29    29   ---   0.6 Scattered Clouds/
19/12/2006 16:20      16.0   9.0  17.2   7.4  63  1015   ---     W    29    29   ---   --- Overcast/ Light Rain
19/12/2006 17:20      13.0   8.0  14.8   4.8  72  1015   ---   SSE    19    19   ---   0.6 Broken Clouds/
19/12/2006 18:20      14.0   8.0  15.5   6.9  67  1016   ---     S    18    18   ---   0.6 Broken Clouds/
19/12/2006 21:50      14.0   8.0  15.5   5.8  67  1018   ---   SSW    21    21   ---   0.7 Scattered Clouds/
19/12/2006 22:20      14.0   7.0  15.2   5.8  63  1018   ---   SSW    21    21   ---   0.7 Scattered Clouds/
19/12/2006 23:20      14.0   7.0  15.2   5.5  63  1018   ---     S    23    23   ---   0.7 Scattered Clouds/
20/12/2006 00:50      13.0   8.0  14.8   3.1  72  1018   ---   SSW    27    27   ---   0.7 Few Clouds/
20/12/2006 01:50      14.0   8.0  15.5   5.8  67  1018   ---     S    21    21   ---   0.7 Few Clouds/
20/12/2006 02:20      14.0   8.0  15.5   6.2  67  1019   ---     S    19    19   ---   0.7 Few Clouds/
20/12/2006 03:50      14.0   8.0  15.5   6.2  67  1020   ---   SSW    19    19   ---   0.7 Few Clouds/
20/12/2006 04:50      14.0   8.0  15.5   6.2  67  1019   ---     S    19    19   ---   0.7 Few Clouds/
20/12/2006 05:50      14.0   9.0  15.8   5.8  72  1019   ---     S    21    21   ---   0.7 Scattered Clouds/
20/12/2006 06:20      14.0   9.0  15.8   6.2  72  1020   ---     S    19    19   ---   0.7 Scattered Clouds/
20/12/2006 07:50      15.0   9.0  16.5   7.3  67  1021   ---   SSW    21    21   ---   0.6 Broken Clouds/
20/12/2006 09:50      16.0  10.0  17.5   7.8  68  1022   ---     S    26    26   ---   0.6 Broken Clouds/
20/12/2006 11:20      17.0   9.0  18.0   8.9  59  1023   ---   SSW    29    29   ---   0.6 Broken Clouds/
20/12/2006 12:20      16.0   9.0  17.2   7.6  63  1022   ---     S    27    50   ---   0.6 Broken Clouds/
20/12/2006 13:50      17.0   6.0  17.4   8.9  48  1022   ---   SSW    29    29   ---   0.6 Broken Clouds/
20/12/2006 14:20      18.0   7.0  18.4  10.4  49  1022   ---   SSW    29    29   ---   0.7 Scattered Clouds/
20/12/2006 15:50      16.0   7.0  16.7   9.0  55  1023   ---   SSW    19    19   ---   0.7 Broken Clouds/
20/12/2006 16:20      16.0   7.0  16.7  10.6  55  1023   ---   SSW    14    14   ---   0.7 Broken Clouds/
20/12/2006 17:50      16.0   8.0  16.9   9.9  59  1023   ---     S    16    16   ---   0.7 Broken Clouds/
20/12/2006 18:20      15.0   8.0  16.2  10.0  63  1023   ---     S    13    13   ---   0.7 Broken Clouds/
20/12/2006 19:20      16.0   8.0  16.9  13.2  59  1023   ---     S     8     8   ---   0.7 Broken Clouds/
20/12/2006 20:20      16.0   7.0  16.7  13.2  55  1023   ---     S     8     8   ---   0.7 Broken Clouds/
20/12/2006 21:20      16.0   8.0  16.9  13.2  59  1023   ---     S     8     8   ---   0.7 Broken Clouds/
20/12/2006 22:20      15.0   9.0  16.5  13.3  67  1024   ---     S     6    26   ---   --- / Drizzle
20/12/2006 23:20      15.0  10.0  16.8  15.0  72  1023   ---     N     5     5   ---   0.7 Broken Clouds/
21/12/2006 00:50      15.0  10.0  16.8  15.0  72  1022   ---     N     2     2   ---   0.7 Broken Clouds/
21/12/2006 01:50      15.0   9.0  16.5  15.0  67  1022   ---     N     3     3   ---   0.7 Broken Clouds/
21/12/2006 02:20      15.0   9.0  16.5  15.0  67  1022   ---     N     0     0   ---   0.7 Broken Clouds/
21/12/2006 03:50      15.0  10.0  16.8   8.2  72  1022   ---   NNE    18    18   ---   0.7 Broken Clouds/
21/12/2006 04:20      14.0   9.0  15.8   8.0  72  1022   ---   NNE    14    14   ---   0.7 Broken Clouds/
21/12/2006 05:20      14.0   9.0  15.8   8.0  72  1021   ---   ENE    14    14   ---   0.7 Broken Clouds/
21/12/2006 06:20      15.0  10.0  16.8  10.0  72  1021   ---     E    13    13   ---   0.7 Broken Clouds/
21/12/2006 07:50      14.0   9.0  15.8  14.0  72  1021   ---     N     0     0   ---   0.7 Broken Clouds/
21/12/2006 09:50      14.0   9.0  15.8   7.2  72  1022   ---   NNW    16    16   ---   --- Overcast/ Light Rain
21/12/2006 11:20      14.0   9.0  15.8   8.0  72  1022   ---    NE    14    14   ---   --- Overcast/ Light Rain
21/12/2006 12:20      14.0   9.0  15.8   8.0  72  1020   ---     E    14    14   ---   0.7 Broken Clouds/
21/12/2006 13:50      16.0  10.0  17.5  13.2  68  1019   ---   ENE     8     8   ---   0.7 Scattered Clouds/
21/12/2006 14:20      16.0  10.0  17.5  14.4  68  1018   ---     E     6     6   ---   0.7 Scattered Clouds/
21/12/2006 15:20       0.0   0.0   4.0  -3.0 100   ---   ---     E   ---   ---   ---   --- /
21/12/2006 16:20      15.0  10.0  16.8  15.0  72  1018   ---     N     5     5   ---   0.7 Scattered Clouds/
21/12/2006 17:20      14.0   9.0  15.8  14.0  72  1018   ---     N     3     3   ---   0.7 Scattered Clouds/
21/12/2006 18:20      13.0   8.0  14.8  13.0  72  1018   ---     N     2     2   ---   0.7 Scattered Clouds/
21/12/2006 19:50      13.0   8.0  14.8   9.7  72  1019   ---   SSE     8     8   ---   0.7 Scattered Clouds/
21/12/2006 20:50      14.0   9.0  15.8   8.0  72  1019   ---     S    14    14   ---   0.7 Few Clouds/
21/12/2006 21:50      14.0   9.0  15.8  10.1  72  1019   ---   SSE    10    10   ---   0.7 Few Clouds/
21/12/2006 22:20      14.0   8.0  15.5   8.0  67  1019   ---     S    14    14   ---   0.7 Few Clouds/
21/12/2006 23:20      15.0   9.0  16.5   8.2  67  1019   ---     S    18    18   ---   0.7 Few Clouds/
22/12/2006 00:50      15.0   8.0  16.2   8.2  63  1019   ---     S    18    18   ---   0.7 Few Clouds/
22/12/2006 01:50      14.0   8.0  15.5   8.7  67  1019   ---     S    13    13   ---   0.7 Few Clouds/
22/12/2006 02:20      14.0   8.0  15.5  10.8  67  1019   ---   SSE     8     8   ---   0.7 Few Clouds/
22/12/2006 03:20      14.0   9.0  15.8  10.1  72  1019   ---     S    10    10   ---   0.7 Few Clouds/
22/12/2006 04:20      14.0   8.0  15.5   8.7  67  1019   ---   SSE    13    13   ---   0.7 Few Clouds/
22/12/2006 05:20      14.0   9.0  15.8   8.7  72  1019   ---     S    13    13   ---   0.7 Few Clouds/
22/12/2006 06:20      13.0   8.0  14.8   7.4  72  1019   ---     S    13    13   ---   0.7 Few Clouds/
22/12/2006 07:50      13.0   8.0  14.8  11.2  72  1020   ---     S     6     6   ---   0.5 Scattered Clouds/
22/12/2006 09:50      13.0   8.0  14.8  13.0  72  1021   ---     N     3     3   ---   0.7 Scattered Clouds/
22/12/2006 10:20      15.0  10.0  16.8  15.0  72  1021   ---     N     3     3   ---   0.6 Scattered Clouds/
22/12/2006 11:20      16.0  10.0  17.5  16.0  68  1021   ---     N     5     5   ---   0.6 Scattered Clouds/
22/12/2006 11:50      16.0  10.0  17.5  16.0  68  1021   ---     N     5     5   ---   0.6 Scattered Clouds/
22/12/2006 13:50      16.0  10.0  17.5  16.0  68  1020   ---     N     5     5   ---   0.6 Scattered Clouds/
22/12/2006 14:20      16.0  10.0  17.5  16.0  68  1020   ---     N     5     5   ---   0.6 Scattered Clouds/
22/12/2006 15:20      16.0   9.0  17.2  11.3  63  1020   ---   NNE    13    13   ---   0.7 Broken Clouds/
22/12/2006 16:20      15.0  10.0  16.8   7.6  72  1021   ---   ENE    19    19   ---   0.7 Broken Clouds/
22/12/2006 17:20      14.0  10.0  16.1   8.7  77  1021   ---     E    13    13   ---   --- Overcast/ Light Rain
22/12/2006 18:20      14.0   9.0  15.8   8.0  72  1022   ---     E    14    14   ---   --- Overcast/ Rain
22/12/2006 19:50      13.0   8.0  14.8   3.4  72  1023   ---   ENE    26    26   ---   --- Overcast/ Light Rain
22/12/2006 20:50      13.0   8.0  14.8   5.8  72  1023   ---     E    16    16   ---   --- Overcast/ Light Rain
22/12/2006 20:50      13.0   8.0  14.8   5.8  72  1023   ---     E    16    16   ---   --- Overcast/ Light Rain
22/12/2006 21:50      14.0   8.0  15.5   8.0  67  1023   ---     E    14    14   ---   0.6 Scattered Clouds/
22/12/2006 22:20      14.0   8.0  15.5  10.8  67  1023   ---   ESE     8     8   ---   0.6 Scattered Clouds/
22/12/2006 23:20      13.0   8.0  14.8  13.0  72  1023   ---     N     5     5   ---   0.6 Scattered Clouds/
23/12/2006 00:50      13.0   8.0  14.8  13.0  72  1023   ---     N     2     2   ---   --- / Drizzle
23/12/2006 01:50      12.0   7.0  13.7  12.0  71  1023   ---     N     2     2   ---   0.6 Scattered Clouds/
23/12/2006 02:20      11.0   6.0  12.7   9.0  71  1023   ---     S     6     6   ---   0.7 Scattered Clouds/
23/12/2006 03:20      11.0   6.0  12.7  11.0  71  1023   ---     N     3     3   ---   0.7 Few Clouds/
23/12/2006 04:20      11.0   6.0  12.7  11.0  71  1024   ---     N     5     5   ---   0.7 Few Clouds/
23/12/2006 05:20      11.0   6.0  12.7  11.0  71  1024   ---     N     3     3   ---   0.7 Few Clouds/
23/12/2006 06:20      11.0   5.0  12.4  11.0  66  1024   ---     N     5     5   ---   0.7 Few Clouds/
23/12/2006 07:50      11.0   5.0  12.4   9.0  66  1025   ---     S     6     6   ---   0.6 Few Clouds/
23/12/2006 09:50      14.0   9.0  15.8  14.0  72  1026   ---     N     3     3   ---   0.7 Few Clouds/
23/12/2006 10:20      16.0   9.0  17.2  16.0  63  1027   ---     N     2     2   ---   0.7 Few Clouds/
23/12/2006 11:20      17.0   9.0  18.0  17.0  59  1027   ---     N     2     2   ---   0.7 Few Clouds/
23/12/2006 12:20      18.0   9.0  18.8  18.0  56  1026   ---     N     5     5   ---   0.7 Few Clouds/
23/12/2006 13:50      18.0   7.0  18.4  18.0  49  1025   ---     N     2     2   ---   0.7 Few Clouds/
23/12/2006 14:20      19.0   8.0  19.4  16.7  49  1025   ---     E     8     8   ---   0.7 Few Clouds/
23/12/2006 15:50      16.0   8.0  16.9  14.4  59  1025   ---     E     6     6   ---   0.8 Scattered Clouds/
23/12/2006 16:20      16.0   9.0  17.2  13.2  63  1025   ---   ESE     8     8   ---   0.8 Scattered Clouds/
23/12/2006 17:20      16.0   9.0  17.2  16.0  63  1024   ---     N     5     5   ---   0.8 Broken Clouds/
23/12/2006 18:20      16.0   9.0  17.2  16.0  63  1025   ---     N     3     3   ---   0.8 Broken Clouds/
23/12/2006 19:50      15.0   8.0  16.2  15.0  63  1026   ---     N     3     3   ---   0.7 Broken Clouds/
23/12/2006 20:50      15.0   9.0  16.5  15.0  67  1026   ---     N     5     5   ---   0.7 Scattered Clouds/
23/12/2006 21:50      15.0  10.0  16.8   8.6  72  1025   ---     E    16    16   ---   0.7 Scattered Clouds/
23/12/2006 22:20      14.0   9.0  15.8   8.7  72  1025   ---     E    13    13   ---   0.7 Scattered Clouds/
23/12/2006 23:20      13.0   8.0  14.8  13.0  72  1026   ---     N     3     3   ---   0.7 Scattered Clouds/
24/12/2006 00:50      14.0   7.0  15.2  14.0  63  1025   ---     N     5     5   ---   0.7 Scattered Clouds/
24/12/2006 01:50      13.0   8.0  14.8  13.0  72  1024   ---     N     5     5   ---   0.7 Scattered Clouds/
24/12/2006 02:20      14.0   8.0  15.5  10.8  67  1025   ---   ENE     8     8   ---   0.7 Scattered Clouds/
24/12/2006 03:20      15.0   8.0  16.2  15.0  63  1024   ---     N     3     3   ---   0.7 Scattered Clouds/
24/12/2006 04:20      14.0   8.0  15.5  12.3  67  1024   ---   ESE     6     6   ---   0.7 Scattered Clouds/
24/12/2006 05:20      15.0   8.0  16.2  15.0  63  1023   ---     N     2     2   ---   0.7 Scattered Clouds/
24/12/2006 06:20      14.0   9.0  15.8  14.0  72  1023   ---     N     3     3   ---   0.7 Scattered Clouds/
24/12/2006 07:50      14.0   8.0  15.5  14.0  67  1023   ---     N     2     2   ---   0.7 Scattered Clouds/
24/12/2006 09:50      15.0   8.0  16.2  11.3  63  1023   ---   ENE    10    10   ---   0.7 Broken Clouds/
24/12/2006 10:20      16.0   8.0  16.9  11.3  59  1023   ---     E    13    13   ---   0.7 Broken Clouds/
24/12/2006 11:20      16.0   9.0  17.2   9.9  63  1022   ---     E    16    16   ---   0.7 Scattered Clouds/
24/12/2006 12:20      17.0  10.0  18.2   9.8  63  1020   ---     E    23    23   ---   0.7 Scattered Clouds/
24/12/2006 13:50      17.0  10.0  18.2  10.4  63  1018   ---     E    19    42   ---   0.7 Broken Clouds/
24/12/2006 14:20      17.0   8.0  17.7   9.3  55  1019   ---     E    26    50   ---   0.7 Overcast/
24/12/2006 15:50      16.0   8.0  16.9   9.6  59  1018   ---     E    18    18   ---   --- Overcast/ Light Rain
24/12/2006 16:20      16.0   9.0  17.2   6.5  63  1018   ---     E    37    37   ---   --- Overcast/ Light Rain
24/12/2006 17:20      15.0  10.0  16.8   7.3  72  1019   ---   ESE    21    21   ---   0.6 Overcast/
24/12/2006 18:50      15.0  10.0  16.8   5.4  72  1018   ---     E    32    32   ---   --- Overcast/ Light Rain
24/12/2006 19:50      15.0  10.0  16.8   4.9  72  1017   ---     E    37    37   ---   --- Overcast/ Light Rain
24/12/2006 20:50      15.0  10.0  16.8   6.9  72  1018   ---   ESE    23    23   ---   0.6 Overcast/
24/12/2006 21:50      13.0   8.0  14.8   3.4  72  1019   ---     S    26    26   ---   --- Overcast/ Rain
24/12/2006 22:20      13.0   8.0  14.8   5.5  72  1018   ---   SSE    18    18   ---   --- Overcast/ Light Rain
24/12/2006 23:20      14.0   5.0  14.7   4.1  55  1018   ---    SE    31    51   ---   --- Overcast/ Rain
25/12/2006 00:50      13.0   7.0  14.4   2.9  67  1016   ---     E    29    29   ---   0.6 Overcast/
25/12/2006 01:50      13.0   6.0  14.2   8.9  62  1016   ---   ENE    10    10   ---   0.6 Overcast/
25/12/2006 02:20      13.0   7.0  14.4   5.5  67  1017   ---     E    18    18   ---   0.6 Overcast/
25/12/2006 03:50      15.0   4.0  15.3   7.6  48  1016   ---     E    19    19   ---   0.6 Overcast/
25/12/2006 04:20      14.0   5.0  14.7  14.0  55  1016   ---     E     2     2   ---   0.6 Overcast/
25/12/2006 05:20      14.0   7.0  15.2   4.4  63  1016   ---     E    29    29   ---   0.7 Broken Clouds/
25/12/2006 06:20      14.0   8.0  15.5   5.5  67  1016   ---     E    23    42   ---   0.7 Broken Clouds/
25/12/2006 07:50      14.0   8.0  15.5   5.5  67  1017   ---     E    23    23   ---   0.7 Scattered Clouds/
25/12/2006 08:20      14.0   6.0  14.9   8.0  59  1017   ---     E    14    14   ---   0.7 Scattered Clouds/
25/12/2006 10:00       0.0   0.0   4.0 -10.5 100   ---   ---     E   ---   ---   ---   --- /
25/12/2006 10:20       0.0   0.0   4.0 -10.5 100   ---   ---     E   ---   ---   ---   --- /
25/12/2006 11:20      15.0  10.0  16.8  12.0  72  1019   ---     E     8     8   ---   0.7 Broken Clouds/
25/12/2006 12:20      16.0  10.0  17.5  10.6  68  1018   ---     E    14    14   ---   0.7 Broken Clouds/
25/12/2006 13:50      16.0   9.0  17.2   8.7  63  1018   ---     E    21    21   ---   0.7 Broken Clouds/
25/12/2006 14:20      15.0   9.0  16.5   7.6  67  1018   ---     E    19    19   ---   0.7 Broken Clouds/
25/12/2006 15:50      15.0  10.0  16.8   8.6  72  1018   ---     E    16    16   ---   0.6 Broken Clouds/
25/12/2006 16:20      15.0   9.0  16.5   7.6  67  1019   ---     E    19    19   ---   0.6 Broken Clouds/
25/12/2006 17:20      14.0  10.0  16.1   6.2  77  1020   ---     E    19    19   ---   --- Overcast/ Rain
25/12/2006 18:20      15.0  10.0  16.8   6.1  72  1020   ---   ENE    27    27   ---   0.6 Broken Clouds/
25/12/2006 19:50      14.0   9.0  15.8   5.5  72  1021   ---   ENE    23    23   ---   0.6 Broken Clouds/
25/12/2006 20:50      15.0   8.0  16.2   8.2  63  1022   ---   ENE    18    18   ---   0.6 Broken Clouds/
25/12/2006 21:50      15.0   8.0  16.2   8.6  63  1022   ---   ENE    16    16   ---   0.6 Broken Clouds/
25/12/2006 22:20      14.0   8.0  15.5   6.2  67  1022   ---   ENE    19    19   ---   0.6 Broken Clouds/
25/12/2006 23:20      14.0   7.0  15.2   6.2  63  1023   ---    NE    19    19   ---   0.6 Broken Clouds/
25/12/2006 23:50      14.0   7.0  15.2   5.8  63  1023   ---    NE    21    21   ---   0.6 Scattered Clouds/
26/12/2006 01:50      15.0   8.0  16.2   8.6  63  1023   ---   NNE    16    16   ---   0.6 Scattered Clouds/
26/12/2006 02:20      14.0   8.0  15.5   7.2  67  1023   ---     N    16    16   ---   0.6 Scattered Clouds/
26/12/2006 03:20      12.0   6.0  13.4  12.0  67  1023   ---   ESE     2     2   ---   0.6 Scattered Clouds/
26/12/2006 03:50      12.0   7.0  13.7  12.0  71  1024   ---     N     2     2   ---   --- /
26/12/2006 05:20      13.0   8.0  14.8  13.0  72  1024   ---   ENE     5     5   ---   --- /
26/12/2006 06:20      13.0   8.0  14.8  13.0  72  1025   ---     N     5     5   ---   --- /
26/12/2006 07:50      13.0   7.0  14.4   9.7  67  1025   ---     E     8     8   ---   0.7 Broken Clouds/
26/12/2006 09:50      15.0   8.0  16.2  12.0  63  1027   ---   ENE     8     8   ---   0.7 Scattered Clouds/
26/12/2006 10:20      16.0   9.0  17.2  12.5  63  1027   ---     E    10    10   ---   0.7 Scattered Clouds/
26/12/2006 11:20      16.0   8.0  16.9  12.5  59  1027   ---    NE    10    10   ---   0.7 Few Clouds/
26/12/2006 12:20      17.0   8.0  17.7  13.8  55  1027   ---    NE    10    10   ---   0.7 Few Clouds/
26/12/2006 13:50      16.0   8.0  16.9  10.6  59  1027   ---   NNE    14    14   ---   0.7 Few Clouds/
26/12/2006 14:20      16.0   8.0  16.9  12.5  59  1027   ---    NE    10    10   ---   0.7 Few Clouds/
26/12/2006 15:50      16.0   8.0  16.9  10.6  59  1028   ---    NE    14    14   ---   0.7 Scattered Clouds/
26/12/2006 16:50      15.0   8.0  16.2   8.2  63  1029   ---   NNE    18    18   ---   0.7 Scattered Clouds/
26/12/2006 17:20      14.0   8.0  15.5   8.0  67  1029   ---    NE    14    14   ---   0.7 Scattered Clouds/
26/12/2006 18:50      14.0   9.0  15.8  10.1  72  1030   ---    NE    10    10   ---   0.7 Scattered Clouds/
26/12/2006 19:50      13.0   8.0  14.8  11.2  72  1030   ---     E     6     6   ---   0.7 Scattered Clouds/
26/12/2006 20:50      13.0   8.0  14.8  13.0  72  1030   ---     N     3     3   ---   0.7 Scattered Clouds/
26/12/2006 21:50      12.0   7.0  13.7  10.1  71  1031   ---     S     6     6   ---   0.7 Scattered Clouds/
26/12/2006 22:20      11.0   7.0  13.1   7.3  76  1031   ---   SSE     8     8   ---   0.7 Scattered Clouds/
26/12/2006 23:20      12.0   7.0  13.7   8.5  71  1032   ---   SSE     8     8   ---   0.7 Scattered Clouds/
27/12/2006 00:50      11.0   7.0  13.1   7.3  76  1032   ---   SSE     8     8   ---   0.7 Scattered Clouds/
27/12/2006 01:50      11.0   6.0  12.7   7.3  71  1032   ---   SSE     8     8   ---   0.7 Few Clouds/
27/12/2006 02:20      10.0   6.0  12.1   6.2  76  1032   ---   SSE     8     8   ---   0.7 Few Clouds/
27/12/2006 03:50      10.0   5.0  11.7   6.2  71  1032   ---     S     8     8   ---   0.7 Few Clouds/
27/12/2006 04:50      10.0   5.0  11.7   6.2  71  1032   ---     S     8     8   ---   0.7 Few Clouds/
27/12/2006 05:20      10.0   5.0  11.7   5.3  71  1032   ---   SSE    10    10   ---   0.7 Few Clouds/
27/12/2006 06:50      10.0   5.0  11.7  10.0  71  1032   ---     N     3     3   ---   0.7 Few Clouds/
27/12/2006 07:50      10.0   4.0  11.4  10.0  66  1033   ---     N     5     5   ---   0.7 Few Clouds/
27/12/2006 09:50      13.0   8.0  14.8  13.0  72  1034   ---     N     3     3   ---   0.7 Few Clouds/
27/12/2006 10:50      16.0   7.0  16.7  16.0  55  1034   ---     N     2     2   ---   0.7 Few Clouds/
27/12/2006 11:20      15.0   5.0  15.5  15.0  51  1034   ---     N     2     2   ---   0.7 Few Clouds/
27/12/2006 12:20      17.0   6.0  17.4  17.0  48  1033   ---     N     5     5   ---   0.7 Few Clouds/
27/12/2006 13:50      16.0   6.0  16.5  16.0  51  1032   ---     N     3     3   ---   0.7 Few Clouds/
27/12/2006 14:20      17.0   6.0  17.4  17.0  48  1032   ---     N     5     5   ---   0.7 Few Clouds/
27/12/2006 15:50      17.0   6.0  17.4  17.0  48  1032   ---     N     3     3   ---   --- /
27/12/2006 16:50      16.0   7.0  16.7  16.0  55  1032   ---     N     0     0   ---   0.7 Few Clouds/
27/12/2006 17:20      14.0   7.0  15.2  14.0  63  1032   ---   ---     3     3   ---   0.7 Few Clouds/
27/12/2006 18:50      12.0   7.0  13.7  10.1  71  1033   ---    SE     6     6   ---   0.7 Few Clouds/
27/12/2006 19:50      11.0   6.0  12.7   7.3  71  1032   ---    SE     8     8   ---   0.7 Few Clouds/
27/12/2006 20:50      11.0   6.0  12.7   7.3  71  1033   ---    SE     8     8   ---   0.7 Few Clouds/
27/12/2006 21:50      10.0   6.0  12.1   6.2  76  1033   ---   SSE     8     8   ---   0.7 Few Clouds/
27/12/2006 22:20      10.0   5.0  11.7   6.2  71  1033   ---    SE     8     8   ---   0.7 Few Clouds/
27/12/2006 23:20      10.0   5.0  11.7   6.2  71  1033   ---   SSE     8     8   ---   0.7 Few Clouds/
28/12/2006 00:50      10.0   5.0  11.7   6.2  71  1033   ---   SSW     8     8   ---   0.7 Few Clouds/
28/12/2006 01:50      10.0   5.0  11.7   7.9  71  1033   ---     S     6     6   ---   0.7 Few Clouds/
28/12/2006 02:20      10.0   5.0  11.7   6.2  71  1033   ---   SSE     8     8   ---   0.7 Few Clouds/
28/12/2006 03:50       9.0   4.0  10.7   5.0  71  1032   ---     S     8     8   ---   0.7 Few Clouds/
28/12/2006 04:50      10.0   5.0  11.7   5.3  71  1033   ---     S    10    10   ---   0.7 Few Clouds/
28/12/2006 05:20      10.0   5.0  11.7   6.2  71  1032   ---   SSE     8     8   ---   0.7 Few Clouds/
28/12/2006 06:20      11.0   6.0  12.7   7.3  71  1032   ---     S     8     8   ---   0.7 Few Clouds/
28/12/2006 07:50      10.0   6.0  12.1   5.3  76  1032   ---   SSE    10    10   ---   0.7 Few Clouds/
28/12/2006 09:50      14.0   9.0  15.8  14.0  72  1033   ---     N     3     3   ---   0.7 Few Clouds/
28/12/2006 10:20      15.0   8.0  16.2  15.0  63  1033   ---     N     5     5   ---   0.7 Few Clouds/
28/12/2006 11:20      16.0   8.0  16.9  14.4  59  1033   ---   SSW     6     6   ---   0.7 Few Clouds/
28/12/2006 12:20      17.0   7.0  17.5  17.0  52  1033   ---     N     5     5   ---   0.7 Few Clouds/
28/12/2006 13:50      17.0   7.0  17.5  17.0  52  1031   ---     N     2     2   ---   0.7 Few Clouds/
28/12/2006 14:50      17.0   8.0  17.7  17.0  55  1031   ---     N     3     3   ---   0.7 Few Clouds/
28/12/2006 15:50      16.0   7.0  16.7  16.0  55  1031   ---     N     3     3   ---   0.7 Few Clouds/
28/12/2006 16:20      16.0   7.0  16.7  16.0  55  1031   ---     N     5     5   ---   0.7 Few Clouds/
28/12/2006 17:50      12.0   7.0  13.7  10.1  71  1031   ---    SE     6     6   ---   0.7 Few Clouds/
28/12/2006 18:50      11.0   6.0  12.7   9.0  71  1032   ---    SE     6     6   ---   0.7 Few Clouds/
28/12/2006 19:50      11.0   6.0  12.7   6.5  71  1032   ---   SSE    10    10   ---   0.7 Few Clouds/
28/12/2006 21:00       0.0   0.0   4.0  -6.7 100   ---   ---   SSE   ---   ---   ---   --- /
28/12/2006 21:50      10.0   6.0  12.1   6.2  76  1031   ---    SE     8     8   ---   --- /
28/12/2006 22:50      10.0   6.0  12.1   5.3  76  1031   ---   SSE    10    10   ---   --- /
28/12/2006 23:20      10.0   5.0  11.7   5.3  71  1032   ---   SSE    10    10   ---   --- /
29/12/2006 00:50      10.0   3.0  11.1   7.9  62  1031   ---     S     6     6   ---   --- /
29/12/2006 01:50       8.0   3.0   9.7   8.0  71  1031   ---     N     5     5   ---   --- /
29/12/2006 02:20       8.0   3.0   9.7   8.0  71  1031   ---     N     5     5   ---   --- /
29/12/2006 03:50       9.0   1.0   9.8   1.4  57  1031   ---   SSE    14    14   ---   --- /
29/12/2006 04:50      10.0  -2.0  10.1   5.3  43  1031   ---   SSE    10    10   ---   --- /
29/12/2006 05:50      10.0   3.0  11.1   7.9  62  1031   ---    SE     6     6   ---   0.6 Scattered Clouds/
29/12/2006 06:50      10.0   3.0  11.1  10.0  62  1031   ---     N     5     5   ---   0.6 Few Clouds/
29/12/2006 07:50      11.0   5.0  12.4   6.5  66  1031   ---   SSE    10    10   ---   0.6 Scattered Clouds/
29/12/2006 09:50      16.0  10.0  17.5  14.4  68  1032   ---   SSW     6     6   ---   0.8 Few Clouds/
29/12/2006 10:20      16.0   9.0  17.2  10.6  63  1032   ---   SSW    14    14   ---   0.8 Few Clouds/
29/12/2006 11:20      17.0   7.0  17.5  14.3  52  1032   ---    SW     8     8   ---   0.8 Few Clouds/
29/12/2006 12:20      17.0   8.0  17.7  15.5  55  1031   ---   WSW     6     6   ---   0.8 Few Clouds/
29/12/2006 13:50      18.0   9.0  18.8  18.0  56  1030   ---     N     0     0   ---   0.8 Few Clouds/
29/12/2006 14:20      17.0   9.0  18.0  17.0  59  1030   ---   ---     2     2   ---   0.7 Few Clouds/
29/12/2006 15:50      16.0   9.0  17.2  14.4  63  1031   ---   NNW     6     6   ---   0.7 Scattered Clouds/
29/12/2006 16:20      16.0  10.0  17.5  12.5  68  1031   ---    NE    10    10   ---   0.7 Scattered Clouds/
29/12/2006 17:20      14.0  10.0  16.1   8.7  77  1031   ---   ENE    13    13   ---   0.7 Scattered Clouds/
29/12/2006 18:20      13.0   9.0  15.1   9.7  77  1031   ---     E     8     8   ---   0.7 Scattered Clouds/
29/12/2006 19:50      13.0   8.0  14.8  13.0  72  1032   ---     N     5     5   ---   0.7 Scattered Clouds/
29/12/2006 20:50      12.0   7.0  13.7  12.0  71  1033   ---     N     5     5   ---   --- /
29/12/2006 21:50      12.0   7.0  13.7  10.1  71  1033   ---     S     6     6   ---   --- /
29/12/2006 22:20      11.0   6.0  12.7   9.0  71  1033   ---     S     6     6   ---   --- /
29/12/2006 23:20      11.0   7.0  13.1  11.0  76  1033   ---     N     5     5   ---   --- /
30/12/2006 00:50      12.0   7.0  13.7  10.1  71  1033   ---     S     6     6   ---   --- /
30/12/2006 01:50      12.0   7.0  13.7  12.0  71  1033   ---     N     5     5   ---   1.2 Scattered Clouds/
30/12/2006 02:20      12.0   7.0  13.7  12.0  71  1033   ---     N     3     3   ---   1.2 Scattered Clouds/
30/12/2006 03:50      11.0   6.0  12.7  11.0  71  1034   ---     N     5     5   ---   0.8 Scattered Clouds/
30/12/2006 04:20      11.0   6.0  12.7  11.0  71  1033   ---     N     5     5   ---   0.8 Scattered Clouds/
30/12/2006 05:20      12.0   7.0  13.7  12.0  71  1033   ---     N     2     2   ---   0.8 Scattered Clouds/
30/12/2006 06:20      10.0   5.0  11.7   7.9  71  1034   ---   SSE     6     6   ---   0.8 Scattered Clouds/
30/12/2006 07:50      11.0   7.0  13.1   9.0  76  1035   ---     S     6     6   ---   0.8 Broken Clouds/
30/12/2006 08:20      12.0   7.0  13.7  12.0  71  1035   ---     N     3     3   ---   0.8 Broken Clouds/
30/12/2006 09:50      15.0   9.0  16.5  15.0  67  1036   ---     N     2     2   ---   0.7 Few Clouds/
30/12/2006 10:20      16.0   9.0  17.2  16.0  63  1036   ---     N     2     2   ---   0.7 Few Clouds/
30/12/2006 11:20      17.0  10.0  18.2  17.0  63  1036   ---     N     3     3   ---   0.7 Few Clouds/
30/12/2006 12:20      16.0  10.0  17.5  16.0  68  1036   ---     N     5     5   ---   0.7 Few Clouds/
30/12/2006 13:50      17.0   8.0  17.7  11.9  55  1036   ---    NE    14    14   ---   0.7 Few Clouds/
30/12/2006 14:20      17.0   7.0  17.5  11.3  52  1036   ---    NE    16    16   ---   0.7 Few Clouds/
30/12/2006 15:20      16.0   7.0  16.7  10.6  55  1036   ---    NE    14    14   ---   0.7 Few Clouds/
30/12/2006 16:50      15.0   8.0  16.2  10.0  63  1036   ---   ENE    13    13   ---   0.7 Few Clouds/
30/12/2006 17:20      14.0   7.0  15.2   8.7  63  1036   ---   ENE    13    13   ---   0.9 Few Clouds/
30/12/2006 18:20      14.0   7.0  15.2   8.0  63  1037   ---     E    14    14   ---   0.9 Few Clouds/
30/12/2006 19:50      14.0   7.0  15.2  10.1  63  1037   ---     E    10    10   ---   0.9 Few Clouds/
30/12/2006 20:50      14.0   6.0  14.9  10.8  59  1037   ---     E     8     8   ---   0.9 Few Clouds/
30/12/2006 20:50      14.0   6.0  14.9  10.8  59  1037   ---     E     8     8   ---   0.9 Few Clouds/None reported
30/12/2006 20:50      14.0   6.0  14.9  10.8  59  1037   ---     E     8     8   ---   0.9 Few Clouds/None reported
30/12/2006 21:50      13.0   7.0  14.4  11.2  67  1038   ---     E     6     6   ---   0.9 Few Clouds/
30/12/2006 22:20      13.0   7.0  14.4  13.0  67  1038   ---     N     3     3   ---   0.9 Few Clouds/
30/12/2006 23:20      12.0   7.0  13.7  12.0  71  1038   ---     N     3     3   ---   0.9 Few Clouds/
31/12/2006 00:50      11.0   6.0  12.7   9.0  71  1039   ---     S     6     6   ---   --- /
31/12/2006 01:50      11.0   6.0  12.7  11.0  71  1039   ---     N     5     5   ---   --- /
31/12/2006 02:20      10.0   6.0  12.1   7.9  76  1039   ---   SSE     6     6   ---   --- /
31/12/2006 03:50      11.0   6.0  12.7  11.0  71  1039   ---     N     5     5   ---   --- /
31/12/2006 04:20      10.0   6.0  12.1  10.0  76  1039   ---     N     5     5   ---   --- /
31/12/2006 05:20       9.0   5.0  11.1   9.0  76  1039   ---     N     3     3   ---   --- /
31/12/2006 06:20      10.0   6.0  12.1  10.0  76  1039   ---     N     3     3   ---   0.9 Few Clouds/
31/12/2006 07:50      10.0   5.0  11.7  10.0  71  1040   ---     N     5     5   ---   0.8 Few Clouds/
31/12/2006 09:50      13.0   8.0  14.8  13.0  72  1041   ---     N     3     3   ---   --- /
31/12/2006 10:20      15.0   9.0  16.5  15.0  67  1041   ---     N     5     5   ---   --- /
31/12/2006 11:20      17.0   9.0  18.0  15.5  59  1041   ---   SSW     6     6   ---   --- /
31/12/2006 12:20      17.0   8.0  17.7  17.0  55  1041   ---     N     5     5   ---   0.7 Few Clouds/
31/12/2006 13:50      16.0   8.0  16.9  16.0  59  1041   ---     N     5     5   ---   0.8 Few Clouds/
31/12/2006 14:20      16.0   6.0  16.5  14.4  51  1040   ---   NNW     6     6   ---   0.8 Few Clouds/
31/12/2006 15:50      16.0   7.0  16.7  16.0  55  1040   ---     N     3     3   ---   0.8 Few Clouds/
31/12/2006 16:50      16.0   8.0  16.9  16.0  59  1040   ---     N     5     5   ---   0.7 Few Clouds/
31/12/2006 17:20      14.0   7.0  15.2  14.0  63  1040   ---     N     2     2   ---   0.7 Few Clouds/
31/12/2006 18:20      14.0   7.0  15.2  14.0  63  1040   ---     N     3     3   ---   0.8 Scattered Clouds/
31/12/2006 19:50      12.0   7.0  13.7  12.0  71  1041   ---     N     5     5   ---   0.8 Scattered Clouds/
31/12/2006 20:50      11.0   7.0  13.1   9.0  76  1041   ---    SE     6     6   ---   0.8 Scattered Clouds/
31/12/2006 22:00       0.0   0.0   4.0  -3.0 100   ---   ---    SE   ---   ---   ---   --- /
31/12/2006 22:20      11.0   6.0  12.7   7.3  71  1041   ---   SSE     8     8   ---   --- /
31/12/2006 23:20      11.0   6.0  12.7   6.5  71  1041   ---   SSE    10    10   ---   --- /
31/12/2006 23:50      11.0   6.0  12.7   7.3  71  1041   ---   SSE     8     8   ---   --- /


Updated Automatically by Ambient Software's Virtual Weather Station  V 12.07
 All rights reserved. Unauthorized duplication or distribution is prohibited
 Never base important decisions on this or any weather information obtained from the Internet